<?xml version='1.0' encoding='UTF-8'?><gpx version="1.1" creator="JPX - https://github.com/jenetics/jpx" xmlns="http://www.topografix.com/GPX/1/1"><trk><trkseg><trkpt lat="41.7012342" lon="13.6116727"><ele>281.0</ele><time>2026-04-10T07:52:26.259Z</time></trkpt><trkpt lat="41.7010527" lon="13.6115789"><ele>281.0</ele><time>2026-04-10T07:52:27.298Z</time></trkpt><trkpt lat="41.7008636" lon="13.6114891"><ele>281.0</ele><time>2026-04-10T07:52:28.303Z</time></trkpt><trkpt lat="41.7009252" lon="13.6115133"><ele>281.0</ele><time>2026-04-10T07:52:40.348Z</time></trkpt><trkpt lat="41.7010009" lon="13.6115034"><ele>281.0</ele><time>2026-04-10T07:53:01.582Z</time></trkpt><trkpt lat="41.7010725" lon="13.6115079"><ele>281.0</ele><time>2026-04-10T07:54:43.591Z</time></trkpt><trkpt lat="41.7011738" lon="13.611754"><ele>281.0</ele><time>2026-04-10T07:54:46.585Z</time></trkpt><trkpt lat="41.7012094" lon="13.6119415"><ele>280.40000000000003</ele><time>2026-04-10T07:54:47.588Z</time></trkpt><trkpt lat="41.7012337" lon="13.6120229"><ele>279.8</ele><time>2026-04-10T07:54:48.583Z</time></trkpt><trkpt lat="41.7012481" lon="13.6121861"><ele>279.20000000000005</ele><time>2026-04-10T07:54:50.577Z</time></trkpt><trkpt lat="41.7012282" lon="13.6123037"><ele>278.6</ele><time>2026-04-10T07:54:51.575Z</time></trkpt><trkpt lat="41.7012135" lon="13.6124417"><ele>278.0</ele><time>2026-04-10T07:54:52.58Z</time></trkpt><trkpt lat="41.701199" lon="13.6125739"><ele>278.0</ele><time>2026-04-10T07:54:53.583Z</time></trkpt><trkpt lat="41.7011811" lon="13.612698"><ele>278.0</ele><time>2026-04-10T07:54:54.582Z</time></trkpt><trkpt lat="41.7011577" lon="13.6128327"><ele>278.0</ele><time>2026-04-10T07:54:55.581Z</time></trkpt><trkpt lat="41.7011268" lon="13.6129555"><ele>278.0</ele><time>2026-04-10T07:54:56.583Z</time></trkpt><trkpt lat="41.7011016" lon="13.6130789"><ele>278.0</ele><time>2026-04-10T07:54:57.582Z</time></trkpt><trkpt lat="41.7010818" lon="13.6132069"><ele>278.8</ele><time>2026-04-10T07:54:58.583Z</time></trkpt><trkpt lat="41.7010563" lon="13.6133285"><ele>279.6</ele><time>2026-04-10T07:54:59.587Z</time></trkpt><trkpt lat="41.7010343" lon="13.6134509"><ele>280.4</ele><time>2026-04-10T07:55:00.594Z</time></trkpt><trkpt lat="41.7010162" lon="13.6135735"><ele>281.2</ele><time>2026-04-10T07:55:01.593Z</time></trkpt><trkpt lat="41.7010048" lon="13.6137113"><ele>282.0</ele><time>2026-04-10T07:55:02.588Z</time></trkpt><trkpt lat="41.7009938" lon="13.6138496"><ele>282.25</ele><time>2026-04-10T07:55:03.573Z</time></trkpt><trkpt lat="41.7009885" lon="13.614"><ele>282.5</ele><time>2026-04-10T07:55:04.595Z</time></trkpt><trkpt lat="41.7009679" lon="13.614166"><ele>282.75</ele><time>2026-04-10T07:55:05.584Z</time></trkpt><trkpt lat="41.7009468" lon="13.61434"><ele>283.0</ele><time>2026-04-10T07:55:06.581Z</time></trkpt><trkpt lat="41.700924" lon="13.6145331"><ele>283.66666666666663</ele><time>2026-04-10T07:55:07.58Z</time></trkpt><trkpt lat="41.7009144" lon="13.614744"><ele>284.3333333333333</ele><time>2026-04-10T07:55:08.584Z</time></trkpt><trkpt lat="41.7008857" lon="13.6149644"><ele>285.0</ele><time>2026-04-10T07:55:09.587Z</time></trkpt><trkpt lat="41.700856" lon="13.6151861"><ele>284.6666666666667</ele><time>2026-04-10T07:55:10.584Z</time></trkpt><trkpt lat="41.7008389" lon="13.6154314"><ele>284.33333333333337</ele><time>2026-04-10T07:55:11.591Z</time></trkpt><trkpt lat="41.7008062" lon="13.6156563"><ele>284.0</ele><time>2026-04-10T07:55:12.582Z</time></trkpt><trkpt lat="41.7007779" lon="13.6158914"><ele>284.0</ele><time>2026-04-10T07:55:13.588Z</time></trkpt><trkpt lat="41.7007637" lon="13.6161254"><ele>284.0</ele><time>2026-04-10T07:55:14.584Z</time></trkpt><trkpt lat="41.7007503" lon="13.6163814"><ele>284.0</ele><time>2026-04-10T07:55:15.588Z</time></trkpt><trkpt lat="41.7007252" lon="13.6166234"><ele>284.0</ele><time>2026-04-10T07:55:16.59Z</time></trkpt><trkpt lat="41.7007177" lon="13.6168599"><ele>284.0</ele><time>2026-04-10T07:55:17.584Z</time></trkpt><trkpt lat="41.7007116" lon="13.6170896"><ele>284.0</ele><time>2026-04-10T07:55:18.589Z</time></trkpt><trkpt lat="41.7007273" lon="13.617323"><ele>284.33333333333337</ele><time>2026-04-10T07:55:19.592Z</time></trkpt><trkpt lat="41.7007249" lon="13.6175524"><ele>284.6666666666667</ele><time>2026-04-10T07:55:20.584Z</time></trkpt><trkpt lat="41.7007153" lon="13.61777"><ele>285.0</ele><time>2026-04-10T07:55:21.586Z</time></trkpt><trkpt lat="41.7007121" lon="13.6179778"><ele>285.0</ele><time>2026-04-10T07:55:22.589Z</time></trkpt><trkpt lat="41.7007261" lon="13.6182044"><ele>285.0</ele><time>2026-04-10T07:55:23.584Z</time></trkpt><trkpt lat="41.7007448" lon="13.6184368"><ele>285.0</ele><time>2026-04-10T07:55:24.59Z</time></trkpt><trkpt lat="41.7007623" lon="13.6186684"><ele>285.3333333333333</ele><time>2026-04-10T07:55:25.592Z</time></trkpt><trkpt lat="41.7007871" lon="13.6189093"><ele>285.66666666666663</ele><time>2026-04-10T07:55:26.588Z</time></trkpt><trkpt lat="41.7007971" lon="13.6191322"><ele>286.0</ele><time>2026-04-10T07:55:27.594Z</time></trkpt><trkpt lat="41.7008135" lon="13.6193639"><ele>286.0</ele><time>2026-04-10T07:55:28.59Z</time></trkpt><trkpt lat="41.700837" lon="13.6195881"><ele>286.0</ele><time>2026-04-10T07:55:29.604Z</time></trkpt><trkpt lat="41.7008709" lon="13.6197996"><ele>286.0</ele><time>2026-04-10T07:55:30.597Z</time></trkpt><trkpt lat="41.7009075" lon="13.620011"><ele>286.0</ele><time>2026-04-10T07:55:31.591Z</time></trkpt><trkpt lat="41.7009405" lon="13.6202157"><ele>286.0</ele><time>2026-04-10T07:55:32.61Z</time></trkpt><trkpt lat="41.7009862" lon="13.6204012"><ele>286.0</ele><time>2026-04-10T07:55:33.594Z</time></trkpt><trkpt lat="41.7010375" lon="13.6205588"><ele>286.0</ele><time>2026-04-10T07:55:34.599Z</time></trkpt><trkpt lat="41.701095" lon="13.6207217"><ele>287.0</ele><time>2026-04-10T07:55:35.614Z</time></trkpt><trkpt lat="41.7011328" lon="13.620901"><ele>288.0</ele><time>2026-04-10T07:55:36.592Z</time></trkpt><trkpt lat="41.7011643" lon="13.6210878"><ele>289.0</ele><time>2026-04-10T07:55:37.602Z</time></trkpt><trkpt lat="41.7011852" lon="13.6212553"><ele>290.0</ele><time>2026-04-10T07:55:38.6Z</time></trkpt><trkpt lat="41.701208" lon="13.6214317"><ele>290.75</ele><time>2026-04-10T07:55:39.6Z</time></trkpt><trkpt lat="41.7012499" lon="13.6216169"><ele>291.5</ele><time>2026-04-10T07:55:40.594Z</time></trkpt><trkpt lat="41.7012818" lon="13.6218058"><ele>292.25</ele><time>2026-04-10T07:55:41.599Z</time></trkpt><trkpt lat="41.7013139" lon="13.6219959"><ele>293.0</ele><time>2026-04-10T07:55:42.593Z</time></trkpt><trkpt lat="41.7013509" lon="13.6221786"><ele>293.5</ele><time>2026-04-10T07:55:43.599Z</time></trkpt><trkpt lat="41.7013825" lon="13.6223418"><ele>294.0</ele><time>2026-04-10T07:55:44.609Z</time></trkpt><trkpt lat="41.7014247" lon="13.6224991"><ele>294.5</ele><time>2026-04-10T07:55:45.599Z</time></trkpt><trkpt lat="41.7014471" lon="13.6226571"><ele>295.0</ele><time>2026-04-10T07:55:46.6Z</time></trkpt><trkpt lat="41.7014706" lon="13.6228175"><ele>295.0</ele><time>2026-04-10T07:55:47.604Z</time></trkpt><trkpt lat="41.7014893" lon="13.6229858"><ele>295.0</ele><time>2026-04-10T07:55:48.596Z</time></trkpt><trkpt lat="41.7015213" lon="13.6231502"><ele>295.0</ele><time>2026-04-10T07:55:49.607Z</time></trkpt><trkpt lat="41.7015501" lon="13.6233193"><ele>295.0</ele><time>2026-04-10T07:55:50.595Z</time></trkpt><trkpt lat="41.701577" lon="13.6234786"><ele>295.0</ele><time>2026-04-10T07:55:51.606Z</time></trkpt><trkpt lat="41.701611" lon="13.6236449"><ele>295.0</ele><time>2026-04-10T07:55:52.683Z</time></trkpt><trkpt lat="41.7016532" lon="13.6238123"><ele>295.0</ele><time>2026-04-10T07:55:53.679Z</time></trkpt><trkpt lat="41.7016936" lon="13.6239821"><ele>295.0</ele><time>2026-04-10T07:55:54.684Z</time></trkpt><trkpt lat="41.7017335" lon="13.6241455"><ele>294.4</ele><time>2026-04-10T07:55:55.679Z</time></trkpt><trkpt lat="41.7017668" lon="13.6242903"><ele>293.8</ele><time>2026-04-10T07:55:56.666Z</time></trkpt><trkpt lat="41.7017971" lon="13.624416"><ele>293.2</ele><time>2026-04-10T07:55:57.669Z</time></trkpt><trkpt lat="41.7018233" lon="13.624524"><ele>292.6</ele><time>2026-04-10T07:55:58.666Z</time></trkpt><trkpt lat="41.7018379" lon="13.6246321"><ele>292.0</ele><time>2026-04-10T07:55:59.673Z</time></trkpt><trkpt lat="41.7018402" lon="13.6247421"><ele>291.8</ele><time>2026-04-10T07:56:00.684Z</time></trkpt><trkpt lat="41.7018427" lon="13.6248498"><ele>291.6</ele><time>2026-04-10T07:56:01.686Z</time></trkpt><trkpt lat="41.7018428" lon="13.6250259"><ele>291.40000000000003</ele><time>2026-04-10T07:56:03.665Z</time></trkpt><trkpt lat="41.7018848" lon="13.6251824"><ele>291.2</ele><time>2026-04-10T07:56:05.663Z</time></trkpt><trkpt lat="41.7019618" lon="13.6252602"><ele>291.0</ele><time>2026-04-10T07:56:06.594Z</time></trkpt><trkpt lat="41.7020438" lon="13.6253323"><ele>292.25</ele><time>2026-04-10T07:56:07.578Z</time></trkpt><trkpt lat="41.7021229" lon="13.6254238"><ele>293.5</ele><time>2026-04-10T07:56:08.573Z</time></trkpt><trkpt lat="41.7022216" lon="13.6255277"><ele>294.75</ele><time>2026-04-10T07:56:09.58Z</time></trkpt><trkpt lat="41.702308" lon="13.6256724"><ele>296.0</ele><time>2026-04-10T07:56:10.579Z</time></trkpt><trkpt lat="41.7023937" lon="13.6258443"><ele>296.0</ele><time>2026-04-10T07:56:11.586Z</time></trkpt><trkpt lat="41.702495" lon="13.6260586"><ele>296.0</ele><time>2026-04-10T07:56:12.588Z</time></trkpt><trkpt lat="41.7025798" lon="13.6262713"><ele>296.0</ele><time>2026-04-10T07:56:13.583Z</time></trkpt><trkpt lat="41.7026647" lon="13.6264891"><ele>296.33333333333337</ele><time>2026-04-10T07:56:14.59Z</time></trkpt><trkpt lat="41.7027733" lon="13.626694"><ele>296.6666666666667</ele><time>2026-04-10T07:56:15.588Z</time></trkpt><trkpt lat="41.7029012" lon="13.6269017"><ele>297.0</ele><time>2026-04-10T07:56:16.598Z</time></trkpt><trkpt lat="41.7030365" lon="13.6271056"><ele>297.6666666666667</ele><time>2026-04-10T07:56:17.589Z</time></trkpt><trkpt lat="41.703167" lon="13.6273211"><ele>298.33333333333337</ele><time>2026-04-10T07:56:18.59Z</time></trkpt><trkpt lat="41.7033139" lon="13.6275224"><ele>299.0</ele><time>2026-04-10T07:56:19.587Z</time></trkpt><trkpt lat="41.703458" lon="13.6277214"><ele>300.33333333333337</ele><time>2026-04-10T07:56:20.585Z</time></trkpt><trkpt lat="41.7036052" lon="13.6279335"><ele>301.6666666666667</ele><time>2026-04-10T07:56:21.591Z</time></trkpt><trkpt lat="41.703745" lon="13.6281555"><ele>303.0</ele><time>2026-04-10T07:56:22.589Z</time></trkpt><trkpt lat="41.7038811" lon="13.6283751"><ele>303.0</ele><time>2026-04-10T07:56:23.579Z</time></trkpt><trkpt lat="41.7040187" lon="13.6285887"><ele>303.0</ele><time>2026-04-10T07:56:24.584Z</time></trkpt><trkpt lat="41.704161" lon="13.6288"><ele>303.0</ele><time>2026-04-10T07:56:25.583Z</time></trkpt><trkpt lat="41.7042898" lon="13.62901"><ele>304.0</ele><time>2026-04-10T07:56:26.587Z</time></trkpt><trkpt lat="41.7044318" lon="13.6292333"><ele>305.0</ele><time>2026-04-10T07:56:27.584Z</time></trkpt><trkpt lat="41.7045565" lon="13.6294311"><ele>306.0</ele><time>2026-04-10T07:56:28.588Z</time></trkpt><trkpt lat="41.7046791" lon="13.6296192"><ele>307.0</ele><time>2026-04-10T07:56:29.592Z</time></trkpt><trkpt lat="41.7047899" lon="13.6298039"><ele>308.0</ele><time>2026-04-10T07:56:30.586Z</time></trkpt><trkpt lat="41.7048981" lon="13.62999"><ele>309.0</ele><time>2026-04-10T07:56:31.59Z</time></trkpt><trkpt lat="41.7050101" lon="13.6301609"><ele>309.6666666666667</ele><time>2026-04-10T07:56:32.584Z</time></trkpt><trkpt lat="41.7051363" lon="13.6303297"><ele>310.33333333333337</ele><time>2026-04-10T07:56:33.573Z</time></trkpt><trkpt lat="41.7052617" lon="13.6304947"><ele>311.0</ele><time>2026-04-10T07:56:34.572Z</time></trkpt><trkpt lat="41.7053532" lon="13.6306349"><ele>311.2</ele><time>2026-04-10T07:56:35.582Z</time></trkpt><trkpt lat="41.705418" lon="13.6307741"><ele>311.40000000000003</ele><time>2026-04-10T07:56:36.575Z</time></trkpt><trkpt lat="41.7054707" lon="13.6308861"><ele>311.6</ele><time>2026-04-10T07:56:37.592Z</time></trkpt><trkpt lat="41.7055264" lon="13.6310032"><ele>311.8</ele><time>2026-04-10T07:56:38.58Z</time></trkpt><trkpt lat="41.7055538" lon="13.6311197"><ele>312.0</ele><time>2026-04-10T07:56:39.583Z</time></trkpt><trkpt lat="41.705577" lon="13.6312207"><ele>313.0</ele><time>2026-04-10T07:56:40.568Z</time></trkpt><trkpt lat="41.7055778" lon="13.6313687"><ele>314.0</ele><time>2026-04-10T07:56:42.566Z</time></trkpt><trkpt lat="41.705506" lon="13.6315107"><ele>315.0</ele><time>2026-04-10T07:56:44.589Z</time></trkpt><trkpt lat="41.705445" lon="13.6315766"><ele>316.0</ele><time>2026-04-10T07:56:45.574Z</time></trkpt><trkpt lat="41.7053644" lon="13.631644"><ele>317.0</ele><time>2026-04-10T07:56:46.574Z</time></trkpt><trkpt lat="41.7052709" lon="13.6317233"><ele>316.25</ele><time>2026-04-10T07:56:47.568Z</time></trkpt><trkpt lat="41.7051732" lon="13.6318008"><ele>315.5</ele><time>2026-04-10T07:56:48.564Z</time></trkpt><trkpt lat="41.7050868" lon="13.6318937"><ele>314.75</ele><time>2026-04-10T07:56:49.564Z</time></trkpt><trkpt lat="41.7049843" lon="13.632029"><ele>314.0</ele><time>2026-04-10T07:56:50.559Z</time></trkpt><trkpt lat="41.7048745" lon="13.6321961"><ele>314.0</ele><time>2026-04-10T07:56:51.566Z</time></trkpt><trkpt lat="41.7047526" lon="13.6324699"><ele>314.0</ele><time>2026-04-10T07:56:52.575Z</time></trkpt><trkpt lat="41.7046567" lon="13.6328005"><ele>314.6666666666667</ele><time>2026-04-10T07:56:53.576Z</time></trkpt><trkpt lat="41.7045768" lon="13.633055"><ele>315.3333333333333</ele><time>2026-04-10T07:56:54.578Z</time></trkpt><trkpt lat="41.7045652" lon="13.6331392"><ele>316.0</ele><time>2026-04-10T07:56:55.525Z</time></trkpt><trkpt lat="41.7044764" lon="13.6336027"><ele>317.25</ele><time>2026-04-10T07:56:56.581Z</time></trkpt><trkpt lat="41.704421" lon="13.6338376"><ele>318.5</ele><time>2026-04-10T07:56:57.579Z</time></trkpt><trkpt lat="41.7043703" lon="13.6340182"><ele>319.75</ele><time>2026-04-10T07:56:58.576Z</time></trkpt><trkpt lat="41.7043165" lon="13.6341498"><ele>321.0</ele><time>2026-04-10T07:56:59.582Z</time></trkpt><trkpt lat="41.7042606" lon="13.634281"><ele>321.0</ele><time>2026-04-10T07:57:00.583Z</time></trkpt><trkpt lat="41.7042171" lon="13.6343794"><ele>321.0</ele><time>2026-04-10T07:57:01.597Z</time></trkpt><trkpt lat="41.7042926" lon="13.6345021"><ele>321.0</ele><time>2026-04-10T07:57:03.584Z</time></trkpt><trkpt lat="41.7043662" lon="13.6345203"><ele>321.0</ele><time>2026-04-10T07:57:04.588Z</time></trkpt><trkpt lat="41.7044421" lon="13.6344967"><ele>321.0</ele><time>2026-04-10T07:57:05.578Z</time></trkpt><trkpt lat="41.7045244" lon="13.6344472"><ele>321.0</ele><time>2026-04-10T07:57:06.578Z</time></trkpt><trkpt lat="41.7045884" lon="13.6343672"><ele>321.0</ele><time>2026-04-10T07:57:07.573Z</time></trkpt><trkpt lat="41.7046403" lon="13.6342663"><ele>321.0</ele><time>2026-04-10T07:57:08.58Z</time></trkpt><trkpt lat="41.7046807" lon="13.6341582"><ele>321.0</ele><time>2026-04-10T07:57:09.569Z</time></trkpt><trkpt lat="41.7046989" lon="13.6340139"><ele>321.0</ele><time>2026-04-10T07:57:10.57Z</time></trkpt><trkpt lat="41.7047394" lon="13.6338572"><ele>321.0</ele><time>2026-04-10T07:57:11.569Z</time></trkpt><trkpt lat="41.7047767" lon="13.6336968"><ele>319.75</ele><time>2026-04-10T07:57:12.577Z</time></trkpt><trkpt lat="41.7048179" lon="13.6335161"><ele>318.5</ele><time>2026-04-10T07:57:13.57Z</time></trkpt><trkpt lat="41.704866" lon="13.6333338"><ele>317.25</ele><time>2026-04-10T07:57:14.572Z</time></trkpt><trkpt lat="41.7049234" lon="13.6331492"><ele>316.0</ele><time>2026-04-10T07:57:15.569Z</time></trkpt><trkpt lat="41.7049794" lon="13.6329471"><ele>315.3333333333333</ele><time>2026-04-10T07:57:16.563Z</time></trkpt><trkpt lat="41.7050546" lon="13.6327426"><ele>314.6666666666667</ele><time>2026-04-10T07:57:17.573Z</time></trkpt><trkpt lat="41.7051562" lon="13.6325618"><ele>314.0</ele><time>2026-04-10T07:57:18.572Z</time></trkpt><trkpt lat="41.7052376" lon="13.6323953"><ele>317.0</ele><time>2026-04-10T07:57:19.567Z</time></trkpt><trkpt lat="41.7053671" lon="13.6322739"><ele>320.0</ele><time>2026-04-10T07:57:20.565Z</time></trkpt><trkpt lat="41.7054962" lon="13.6321435"><ele>323.0</ele><time>2026-04-10T07:57:21.567Z</time></trkpt><trkpt lat="41.7056625" lon="13.6320431"><ele>322.0</ele><time>2026-04-10T07:57:22.57Z</time></trkpt><trkpt lat="41.7058326" lon="13.6319551"><ele>321.0</ele><time>2026-04-10T07:57:23.563Z</time></trkpt><trkpt lat="41.7060264" lon="13.6319125"><ele>320.0</ele><time>2026-04-10T07:57:24.57Z</time></trkpt><trkpt lat="41.706202" lon="13.6318805"><ele>320.0</ele><time>2026-04-10T07:57:25.573Z</time></trkpt><trkpt lat="41.7063799" lon="13.6318524"><ele>320.0</ele><time>2026-04-10T07:57:26.575Z</time></trkpt><trkpt lat="41.7065735" lon="13.6318055"><ele>320.0</ele><time>2026-04-10T07:57:27.571Z</time></trkpt><trkpt lat="41.7067373" lon="13.6317353"><ele>320.0</ele><time>2026-04-10T07:57:28.575Z</time></trkpt><trkpt lat="41.7068809" lon="13.6316449"><ele>320.0</ele><time>2026-04-10T07:57:29.58Z</time></trkpt><trkpt lat="41.7070558" lon="13.6315941"><ele>320.0</ele><time>2026-04-10T07:57:30.581Z</time></trkpt><trkpt lat="41.7072043" lon="13.6315472"><ele>323.6666666666667</ele><time>2026-04-10T07:57:31.577Z</time></trkpt><trkpt lat="41.707382" lon="13.6314638"><ele>327.3333333333333</ele><time>2026-04-10T07:57:32.577Z</time></trkpt><trkpt lat="41.7075319" lon="13.6313407"><ele>331.0</ele><time>2026-04-10T07:57:33.579Z</time></trkpt><trkpt lat="41.7076878" lon="13.6312241"><ele>331.0</ele><time>2026-04-10T07:57:34.565Z</time></trkpt><trkpt lat="41.7078477" lon="13.631118"><ele>331.0</ele><time>2026-04-10T07:57:35.574Z</time></trkpt><trkpt lat="41.7079882" lon="13.6309879"><ele>331.0</ele><time>2026-04-10T07:57:36.567Z</time></trkpt><trkpt lat="41.7081327" lon="13.6308668"><ele>331.0</ele><time>2026-04-10T07:57:37.571Z</time></trkpt><trkpt lat="41.708291" lon="13.6307673"><ele>331.0</ele><time>2026-04-10T07:57:38.572Z</time></trkpt><trkpt lat="41.7084431" lon="13.6306251"><ele>331.0</ele><time>2026-04-10T07:57:39.582Z</time></trkpt><trkpt lat="41.7085991" lon="13.6304831"><ele>334.0</ele><time>2026-04-10T07:57:40.569Z</time></trkpt><trkpt lat="41.7087524" lon="13.6303276"><ele>337.0</ele><time>2026-04-10T07:57:41.564Z</time></trkpt><trkpt lat="41.7088644" lon="13.6301321"><ele>340.0</ele><time>2026-04-10T07:57:42.564Z</time></trkpt><trkpt lat="41.7090036" lon="13.6299832"><ele>340.0</ele><time>2026-04-10T07:57:43.568Z</time></trkpt><trkpt lat="41.7091285" lon="13.629805"><ele>340.0</ele><time>2026-04-10T07:57:44.567Z</time></trkpt><trkpt lat="41.7092855" lon="13.6296452"><ele>340.0</ele><time>2026-04-10T07:57:45.564Z</time></trkpt><trkpt lat="41.7094207" lon="13.6294638"><ele>337.66666666666663</ele><time>2026-04-10T07:57:46.56Z</time></trkpt><trkpt lat="41.7095724" lon="13.6292995"><ele>335.3333333333333</ele><time>2026-04-10T07:57:47.565Z</time></trkpt><trkpt lat="41.7097423" lon="13.6291797"><ele>333.0</ele><time>2026-04-10T07:57:48.561Z</time></trkpt><trkpt lat="41.7099093" lon="13.6290429"><ele>333.0</ele><time>2026-04-10T07:57:49.564Z</time></trkpt><trkpt lat="41.7100388" lon="13.6288458"><ele>333.0</ele><time>2026-04-10T07:57:50.568Z</time></trkpt><trkpt lat="41.7101889" lon="13.6287098"><ele>333.0</ele><time>2026-04-10T07:57:51.568Z</time></trkpt><trkpt lat="41.7103464" lon="13.62856"><ele>327.0</ele><time>2026-04-10T07:57:52.571Z</time></trkpt><trkpt lat="41.7105075" lon="13.6284304"><ele>321.0</ele><time>2026-04-10T07:57:53.567Z</time></trkpt><trkpt lat="41.7106222" lon="13.6282734"><ele>315.0</ele><time>2026-04-10T07:57:54.571Z</time></trkpt><trkpt lat="41.7107787" lon="13.6281602"><ele>315.0</ele><time>2026-04-10T07:57:55.568Z</time></trkpt><trkpt lat="41.7109519" lon="13.6280698"><ele>315.0</ele><time>2026-04-10T07:57:56.57Z</time></trkpt><trkpt lat="41.7111336" lon="13.6279544"><ele>315.0</ele><time>2026-04-10T07:57:57.568Z</time></trkpt><trkpt lat="41.7112908" lon="13.6278438"><ele>308.6666666666667</ele><time>2026-04-10T07:57:58.57Z</time></trkpt><trkpt lat="41.7114771" lon="13.6277619"><ele>302.33333333333337</ele><time>2026-04-10T07:57:59.578Z</time></trkpt><trkpt lat="41.7116487" lon="13.6276816"><ele>296.0</ele><time>2026-04-10T07:58:00.579Z</time></trkpt><trkpt lat="41.7118478" lon="13.6276369"><ele>295.33333333333337</ele><time>2026-04-10T07:58:01.587Z</time></trkpt><trkpt lat="41.7120502" lon="13.6275828"><ele>294.6666666666667</ele><time>2026-04-10T07:58:02.581Z</time></trkpt><trkpt lat="41.7122535" lon="13.6275488"><ele>294.0</ele><time>2026-04-10T07:58:03.58Z</time></trkpt><trkpt lat="41.7124469" lon="13.6275083"><ele>294.0</ele><time>2026-04-10T07:58:04.579Z</time></trkpt><trkpt lat="41.7126316" lon="13.6274899"><ele>294.0</ele><time>2026-04-10T07:58:05.584Z</time></trkpt><trkpt lat="41.7128208" lon="13.6274797"><ele>294.0</ele><time>2026-04-10T07:58:06.573Z</time></trkpt><trkpt lat="41.713012" lon="13.6274686"><ele>293.0</ele><time>2026-04-10T07:58:07.581Z</time></trkpt><trkpt lat="41.7132132" lon="13.6274567"><ele>292.0</ele><time>2026-04-10T07:58:08.575Z</time></trkpt><trkpt lat="41.7134263" lon="13.627475"><ele>291.0</ele><time>2026-04-10T07:58:09.584Z</time></trkpt><trkpt lat="41.7136279" lon="13.6275233"><ele>293.0</ele><time>2026-04-10T07:58:10.601Z</time></trkpt><trkpt lat="41.7138415" lon="13.6275774"><ele>295.0</ele><time>2026-04-10T07:58:11.588Z</time></trkpt><trkpt lat="41.7140451" lon="13.6276391"><ele>297.0</ele><time>2026-04-10T07:58:12.576Z</time></trkpt><trkpt lat="41.7142611" lon="13.6277318"><ele>300.0</ele><time>2026-04-10T07:58:13.585Z</time></trkpt><trkpt lat="41.7144537" lon="13.6277975"><ele>303.0</ele><time>2026-04-10T07:58:14.589Z</time></trkpt><trkpt lat="41.7146464" lon="13.6278795"><ele>306.0</ele><time>2026-04-10T07:58:15.59Z</time></trkpt><trkpt lat="41.7148562" lon="13.6279806"><ele>307.5</ele><time>2026-04-10T07:58:16.586Z</time></trkpt><trkpt lat="41.7150697" lon="13.6280926"><ele>309.0</ele><time>2026-04-10T07:58:17.591Z</time></trkpt><trkpt lat="41.7152904" lon="13.6281838"><ele>313.6666666666667</ele><time>2026-04-10T07:58:18.587Z</time></trkpt><trkpt lat="41.7155056" lon="13.6282948"><ele>318.33333333333337</ele><time>2026-04-10T07:58:19.587Z</time></trkpt><trkpt lat="41.7157083" lon="13.6283679"><ele>323.0</ele><time>2026-04-10T07:58:20.592Z</time></trkpt><trkpt lat="41.7158877" lon="13.6284587"><ele>324.0</ele><time>2026-04-10T07:58:21.591Z</time></trkpt><trkpt lat="41.7160908" lon="13.6285724"><ele>325.0</ele><time>2026-04-10T07:58:22.593Z</time></trkpt><trkpt lat="41.7162931" lon="13.6286641"><ele>326.0</ele><time>2026-04-10T07:58:23.59Z</time></trkpt><trkpt lat="41.7165007" lon="13.6287789"><ele>326.33333333333337</ele><time>2026-04-10T07:58:24.591Z</time></trkpt><trkpt lat="41.7166824" lon="13.6288676"><ele>326.6666666666667</ele><time>2026-04-10T07:58:25.587Z</time></trkpt><trkpt lat="41.7168949" lon="13.6289468"><ele>327.0</ele><time>2026-04-10T07:58:26.591Z</time></trkpt><trkpt lat="41.7171199" lon="13.6290318"><ele>327.0</ele><time>2026-04-10T07:58:27.591Z</time></trkpt><trkpt lat="41.7172999" lon="13.629082"><ele>327.0</ele><time>2026-04-10T07:58:28.581Z</time></trkpt><trkpt lat="41.7174897" lon="13.6291132"><ele>327.0</ele><time>2026-04-10T07:58:29.592Z</time></trkpt><trkpt lat="41.7176938" lon="13.6291605"><ele>325.3333333333333</ele><time>2026-04-10T07:58:30.593Z</time></trkpt><trkpt lat="41.7178909" lon="13.6291903"><ele>323.66666666666663</ele><time>2026-04-10T07:58:31.596Z</time></trkpt><trkpt lat="41.7181113" lon="13.6292228"><ele>322.0</ele><time>2026-04-10T07:58:32.596Z</time></trkpt><trkpt lat="41.718311" lon="13.6292519"><ele>322.0</ele><time>2026-04-10T07:58:33.592Z</time></trkpt><trkpt lat="41.7185275" lon="13.6292576"><ele>322.0</ele><time>2026-04-10T07:58:34.589Z</time></trkpt><trkpt lat="41.71872" lon="13.6292665"><ele>322.0</ele><time>2026-04-10T07:58:35.592Z</time></trkpt><trkpt lat="41.7189236" lon="13.629272"><ele>322.66666666666663</ele><time>2026-04-10T07:58:36.592Z</time></trkpt><trkpt lat="41.7191451" lon="13.6292927"><ele>323.3333333333333</ele><time>2026-04-10T07:58:37.591Z</time></trkpt><trkpt lat="41.7193544" lon="13.6292927"><ele>324.0</ele><time>2026-04-10T07:58:38.597Z</time></trkpt><trkpt lat="41.7195876" lon="13.6293178"><ele>324.0</ele><time>2026-04-10T07:58:39.593Z</time></trkpt><trkpt lat="41.7198071" lon="13.6293235"><ele>324.0</ele><time>2026-04-10T07:58:40.599Z</time></trkpt><trkpt lat="41.7200113" lon="13.6293347"><ele>324.0</ele><time>2026-04-10T07:58:41.611Z</time></trkpt><trkpt lat="41.7202231" lon="13.629341"><ele>319.6666666666667</ele><time>2026-04-10T07:58:42.587Z</time></trkpt><trkpt lat="41.7204465" lon="13.6293512"><ele>315.33333333333337</ele><time>2026-04-10T07:58:43.597Z</time></trkpt><trkpt lat="41.7206669" lon="13.6293565"><ele>311.0</ele><time>2026-04-10T07:58:44.597Z</time></trkpt><trkpt lat="41.720895" lon="13.6293953"><ele>309.5</ele><time>2026-04-10T07:58:45.589Z</time></trkpt><trkpt lat="41.7211243" lon="13.6294275"><ele>308.0</ele><time>2026-04-10T07:58:46.604Z</time></trkpt><trkpt lat="41.7213582" lon="13.6294818"><ele>308.0</ele><time>2026-04-10T07:58:47.599Z</time></trkpt><trkpt lat="41.7215978" lon="13.6295416"><ele>308.0</ele><time>2026-04-10T07:58:48.603Z</time></trkpt><trkpt lat="41.7218327" lon="13.6296064"><ele>305.0</ele><time>2026-04-10T07:58:49.604Z</time></trkpt><trkpt lat="41.7220458" lon="13.6296648"><ele>302.0</ele><time>2026-04-10T07:58:50.596Z</time></trkpt><trkpt lat="41.7222676" lon="13.6297215"><ele>299.0</ele><time>2026-04-10T07:58:51.605Z</time></trkpt><trkpt lat="41.7224771" lon="13.6297652"><ele>299.0</ele><time>2026-04-10T07:58:52.603Z</time></trkpt><trkpt lat="41.7226799" lon="13.6298209"><ele>299.0</ele><time>2026-04-10T07:58:53.601Z</time></trkpt><trkpt lat="41.7228928" lon="13.6298862"><ele>299.0</ele><time>2026-04-10T07:58:54.6Z</time></trkpt><trkpt lat="41.7231065" lon="13.6299492"><ele>304.0</ele><time>2026-04-10T07:58:55.603Z</time></trkpt><trkpt lat="41.7233348" lon="13.6300125"><ele>309.0</ele><time>2026-04-10T07:58:56.606Z</time></trkpt><trkpt lat="41.7235511" lon="13.6300471"><ele>308.5</ele><time>2026-04-10T07:58:57.598Z</time></trkpt><trkpt lat="41.7237809" lon="13.6300969"><ele>308.0</ele><time>2026-04-10T07:58:58.607Z</time></trkpt><trkpt lat="41.7240103" lon="13.6301422"><ele>308.0</ele><time>2026-04-10T07:58:59.603Z</time></trkpt><trkpt lat="41.7242015" lon="13.6301674"><ele>308.0</ele><time>2026-04-10T07:59:00.609Z</time></trkpt><trkpt lat="41.7244195" lon="13.6302194"><ele>308.0</ele><time>2026-04-10T07:59:01.61Z</time></trkpt><trkpt lat="41.7246497" lon="13.6302571"><ele>304.33333333333337</ele><time>2026-04-10T07:59:02.607Z</time></trkpt><trkpt lat="41.7248546" lon="13.6302637"><ele>300.6666666666667</ele><time>2026-04-10T07:59:03.601Z</time></trkpt><trkpt lat="41.7250458" lon="13.6302668"><ele>297.0</ele><time>2026-04-10T07:59:04.601Z</time></trkpt><trkpt lat="41.7252628" lon="13.6302884"><ele>296.6666666666667</ele><time>2026-04-10T07:59:05.6Z</time></trkpt><trkpt lat="41.7254829" lon="13.6302981"><ele>296.33333333333337</ele><time>2026-04-10T07:59:06.596Z</time></trkpt><trkpt lat="41.7257038" lon="13.6303055"><ele>296.0</ele><time>2026-04-10T07:59:07.596Z</time></trkpt><trkpt lat="41.7259266" lon="13.6303093"><ele>300.5</ele><time>2026-04-10T07:59:08.607Z</time></trkpt><trkpt lat="41.7261445" lon="13.6303071"><ele>305.0</ele><time>2026-04-10T07:59:09.596Z</time></trkpt><trkpt lat="41.7263786" lon="13.6302982"><ele>305.0</ele><time>2026-04-10T07:59:10.6Z</time></trkpt><trkpt lat="41.7265938" lon="13.6302815"><ele>305.0</ele><time>2026-04-10T07:59:11.599Z</time></trkpt><trkpt lat="41.7268003" lon="13.630257"><ele>305.0</ele><time>2026-04-10T07:59:12.623Z</time></trkpt><trkpt lat="41.7270337" lon="13.6302466"><ele>309.0</ele><time>2026-04-10T07:59:13.604Z</time></trkpt><trkpt lat="41.7272416" lon="13.6302088"><ele>313.0</ele><time>2026-04-10T07:59:14.607Z</time></trkpt><trkpt lat="41.7274543" lon="13.6301692"><ele>317.0</ele><time>2026-04-10T07:59:15.596Z</time></trkpt><trkpt lat="41.7276863" lon="13.630126"><ele>323.0</ele><time>2026-04-10T07:59:16.612Z</time></trkpt><trkpt lat="41.7279268" lon="13.6300899"><ele>329.0</ele><time>2026-04-10T07:59:17.611Z</time></trkpt><trkpt lat="41.7281705" lon="13.6300422"><ele>329.0</ele><time>2026-04-10T07:59:18.611Z</time></trkpt><trkpt lat="41.7283887" lon="13.6299829"><ele>329.0</ele><time>2026-04-10T07:59:19.608Z</time></trkpt><trkpt lat="41.7286229" lon="13.6299403"><ele>330.0</ele><time>2026-04-10T07:59:20.593Z</time></trkpt><trkpt lat="41.7288581" lon="13.6298743"><ele>331.0</ele><time>2026-04-10T07:59:21.6Z</time></trkpt><trkpt lat="41.7290841" lon="13.6297967"><ele>331.0</ele><time>2026-04-10T07:59:22.599Z</time></trkpt><trkpt lat="41.729317" lon="13.6297206"><ele>331.0</ele><time>2026-04-10T07:59:23.598Z</time></trkpt><trkpt lat="41.7295504" lon="13.6296406"><ele>326.5</ele><time>2026-04-10T07:59:24.602Z</time></trkpt><trkpt lat="41.7297745" lon="13.629537"><ele>322.0</ele><time>2026-04-10T07:59:25.597Z</time></trkpt><trkpt lat="41.7299969" lon="13.6294611"><ele>312.0</ele><time>2026-04-10T07:59:26.612Z</time></trkpt><trkpt lat="41.7302361" lon="13.6293658"><ele>302.0</ele><time>2026-04-10T07:59:27.595Z</time></trkpt><trkpt lat="41.7304762" lon="13.6292692"><ele>302.0</ele><time>2026-04-10T07:59:28.605Z</time></trkpt><trkpt lat="41.7306846" lon="13.6291594"><ele>302.0</ele><time>2026-04-10T07:59:29.6Z</time></trkpt><trkpt lat="41.7308836" lon="13.6290608"><ele>302.0</ele><time>2026-04-10T07:59:30.605Z</time></trkpt><trkpt lat="41.731092" lon="13.6289332"><ele>300.5</ele><time>2026-04-10T07:59:31.606Z</time></trkpt><trkpt lat="41.731322" lon="13.628841"><ele>299.0</ele><time>2026-04-10T07:59:32.595Z</time></trkpt><trkpt lat="41.7315136" lon="13.6287242"><ele>298.6666666666667</ele><time>2026-04-10T07:59:33.605Z</time></trkpt><trkpt lat="41.7316997" lon="13.6286001"><ele>298.3333333333333</ele><time>2026-04-10T07:59:34.605Z</time></trkpt><trkpt lat="41.7318989" lon="13.6284544"><ele>298.0</ele><time>2026-04-10T07:59:35.605Z</time></trkpt><trkpt lat="41.73209" lon="13.6282951"><ele>297.66666666666663</ele><time>2026-04-10T07:59:36.601Z</time></trkpt><trkpt lat="41.7322972" lon="13.6281595"><ele>297.3333333333333</ele><time>2026-04-10T07:59:37.604Z</time></trkpt><trkpt lat="41.7324603" lon="13.6280064"><ele>297.0</ele><time>2026-04-10T07:59:38.609Z</time></trkpt><trkpt lat="41.7326535" lon="13.6278709"><ele>297.3333333333333</ele><time>2026-04-10T07:59:39.606Z</time></trkpt><trkpt lat="41.7328409" lon="13.6277175"><ele>297.66666666666663</ele><time>2026-04-10T07:59:40.606Z</time></trkpt><trkpt lat="41.7330032" lon="13.6275459"><ele>298.0</ele><time>2026-04-10T07:59:41.599Z</time></trkpt><trkpt lat="41.733202" lon="13.6274011"><ele>298.0</ele><time>2026-04-10T07:59:42.601Z</time></trkpt><trkpt lat="41.7333774" lon="13.627205"><ele>298.0</ele><time>2026-04-10T07:59:43.616Z</time></trkpt><trkpt lat="41.733542" lon="13.6270317"><ele>298.0</ele><time>2026-04-10T07:59:44.603Z</time></trkpt><trkpt lat="41.7337167" lon="13.6268419"><ele>300.5</ele><time>2026-04-10T07:59:45.602Z</time></trkpt><trkpt lat="41.7338915" lon="13.6266236"><ele>303.0</ele><time>2026-04-10T07:59:46.608Z</time></trkpt><trkpt lat="41.7340662" lon="13.6264191"><ele>303.0</ele><time>2026-04-10T07:59:47.609Z</time></trkpt><trkpt lat="41.7342201" lon="13.6261962"><ele>303.0</ele><time>2026-04-10T07:59:48.601Z</time></trkpt><trkpt lat="41.7343588" lon="13.6259621"><ele>302.5</ele><time>2026-04-10T07:59:49.607Z</time></trkpt><trkpt lat="41.734515" lon="13.6257429"><ele>302.0</ele><time>2026-04-10T07:59:50.599Z</time></trkpt><trkpt lat="41.734669" lon="13.6254927"><ele>303.0</ele><time>2026-04-10T07:59:51.604Z</time></trkpt><trkpt lat="41.7348041" lon="13.6252566"><ele>304.0</ele><time>2026-04-10T07:59:52.616Z</time></trkpt><trkpt lat="41.7349468" lon="13.6250167"><ele>304.0</ele><time>2026-04-10T07:59:53.601Z</time></trkpt><trkpt lat="41.7351067" lon="13.6247919"><ele>304.0</ele><time>2026-04-10T07:59:54.605Z</time></trkpt><trkpt lat="41.735267" lon="13.6245771"><ele>304.5</ele><time>2026-04-10T07:59:55.607Z</time></trkpt><trkpt lat="41.7354124" lon="13.6243406"><ele>305.0</ele><time>2026-04-10T07:59:56.604Z</time></trkpt><trkpt lat="41.7355626" lon="13.6240916"><ele>305.0</ele><time>2026-04-10T07:59:57.608Z</time></trkpt><trkpt lat="41.7357033" lon="13.6238518"><ele>305.0</ele><time>2026-04-10T07:59:58.6Z</time></trkpt><trkpt lat="41.7358715" lon="13.6236479"><ele>309.0</ele><time>2026-04-10T07:59:59.603Z</time></trkpt><trkpt lat="41.7360176" lon="13.623404"><ele>313.0</ele><time>2026-04-10T08:00:00.602Z</time></trkpt><trkpt lat="41.7361898" lon="13.623199"><ele>315.5</ele><time>2026-04-10T08:00:01.607Z</time></trkpt><trkpt lat="41.7363506" lon="13.6229646"><ele>318.0</ele><time>2026-04-10T08:00:02.606Z</time></trkpt><trkpt lat="41.7365163" lon="13.6227295"><ele>319.5</ele><time>2026-04-10T08:00:03.596Z</time></trkpt><trkpt lat="41.7366862" lon="13.6225352"><ele>321.0</ele><time>2026-04-10T08:00:04.598Z</time></trkpt><trkpt lat="41.7368693" lon="13.6223388"><ele>322.0</ele><time>2026-04-10T08:00:05.589Z</time></trkpt><trkpt lat="41.7370579" lon="13.6221624"><ele>323.0</ele><time>2026-04-10T08:00:06.597Z</time></trkpt><trkpt lat="41.7372529" lon="13.6219997"><ele>323.6666666666667</ele><time>2026-04-10T08:00:07.594Z</time></trkpt><trkpt lat="41.7374411" lon="13.6218451"><ele>324.3333333333333</ele><time>2026-04-10T08:00:08.597Z</time></trkpt><trkpt lat="41.737634" lon="13.6217128"><ele>325.0</ele><time>2026-04-10T08:00:09.607Z</time></trkpt><trkpt lat="41.7378292" lon="13.6216122"><ele>323.0</ele><time>2026-04-10T08:00:10.603Z</time></trkpt><trkpt lat="41.7380638" lon="13.6215116"><ele>321.0</ele><time>2026-04-10T08:00:11.597Z</time></trkpt><trkpt lat="41.7382767" lon="13.6214105"><ele>321.0</ele><time>2026-04-10T08:00:12.604Z</time></trkpt><trkpt lat="41.7384981" lon="13.6213385"><ele>321.0</ele><time>2026-04-10T08:00:13.604Z</time></trkpt><trkpt lat="41.7387208" lon="13.6212634"><ele>321.0</ele><time>2026-04-10T08:00:14.62Z</time></trkpt><trkpt lat="41.7389488" lon="13.621199"><ele>321.0</ele><time>2026-04-10T08:00:15.612Z</time></trkpt><trkpt lat="41.7391767" lon="13.6211554"><ele>321.0</ele><time>2026-04-10T08:00:16.601Z</time></trkpt><trkpt lat="41.739395" lon="13.6210936"><ele>321.0</ele><time>2026-04-10T08:00:17.608Z</time></trkpt><trkpt lat="41.739618" lon="13.6210372"><ele>321.0</ele><time>2026-04-10T08:00:18.616Z</time></trkpt><trkpt lat="41.739862" lon="13.6209753"><ele>321.0</ele><time>2026-04-10T08:00:19.609Z</time></trkpt><trkpt lat="41.7401141" lon="13.6209286"><ele>321.0</ele><time>2026-04-10T08:00:20.609Z</time></trkpt><trkpt lat="41.740358" lon="13.6208665"><ele>321.0</ele><time>2026-04-10T08:00:21.603Z</time></trkpt><trkpt lat="41.7405981" lon="13.6207855"><ele>321.0</ele><time>2026-04-10T08:00:22.608Z</time></trkpt><trkpt lat="41.7408429" lon="13.620719"><ele>321.0</ele><time>2026-04-10T08:00:23.602Z</time></trkpt><trkpt lat="41.7410924" lon="13.6206451"><ele>322.0</ele><time>2026-04-10T08:00:24.609Z</time></trkpt><trkpt lat="41.7413588" lon="13.6205986"><ele>323.0</ele><time>2026-04-10T08:00:25.604Z</time></trkpt><trkpt lat="41.7416248" lon="13.6205422"><ele>324.5</ele><time>2026-04-10T08:00:26.601Z</time></trkpt><trkpt lat="41.7418914" lon="13.6204925"><ele>326.0</ele><time>2026-04-10T08:00:27.6Z</time></trkpt><trkpt lat="41.742132" lon="13.6204461"><ele>326.0</ele><time>2026-04-10T08:00:28.61Z</time></trkpt><trkpt lat="41.742383" lon="13.6203779"><ele>326.0</ele><time>2026-04-10T08:00:29.607Z</time></trkpt><trkpt lat="41.7426507" lon="13.6203398"><ele>321.5</ele><time>2026-04-10T08:00:30.602Z</time></trkpt><trkpt lat="41.7429336" lon="13.6202893"><ele>317.0</ele><time>2026-04-10T08:00:31.604Z</time></trkpt><trkpt lat="41.7431823" lon="13.620242"><ele>317.0</ele><time>2026-04-10T08:00:32.597Z</time></trkpt><trkpt lat="41.7434442" lon="13.6201691"><ele>317.0</ele><time>2026-04-10T08:00:33.601Z</time></trkpt><trkpt lat="41.7437027" lon="13.6201029"><ele>315.0</ele><time>2026-04-10T08:00:34.601Z</time></trkpt><trkpt lat="41.7439716" lon="13.6200383"><ele>313.0</ele><time>2026-04-10T08:00:35.599Z</time></trkpt><trkpt lat="41.7442331" lon="13.6199742"><ele>313.5</ele><time>2026-04-10T08:00:36.588Z</time></trkpt><trkpt lat="41.744491" lon="13.6199287"><ele>314.0</ele><time>2026-04-10T08:00:37.604Z</time></trkpt><trkpt lat="41.744745" lon="13.6198862"><ele>314.0</ele><time>2026-04-10T08:00:38.597Z</time></trkpt><trkpt lat="41.7449931" lon="13.6198583"><ele>314.0</ele><time>2026-04-10T08:00:39.607Z</time></trkpt><trkpt lat="41.7452515" lon="13.61984"><ele>318.0</ele><time>2026-04-10T08:00:40.601Z</time></trkpt><trkpt lat="41.74548" lon="13.6197769"><ele>322.0</ele><time>2026-04-10T08:00:41.592Z</time></trkpt><trkpt lat="41.74573" lon="13.6197257"><ele>322.0</ele><time>2026-04-10T08:00:42.606Z</time></trkpt><trkpt lat="41.7459811" lon="13.6196636"><ele>322.0</ele><time>2026-04-10T08:00:43.59Z</time></trkpt><trkpt lat="41.7462251" lon="13.6195981"><ele>322.5</ele><time>2026-04-10T08:00:44.591Z</time></trkpt><trkpt lat="41.7464551" lon="13.6195224"><ele>323.0</ele><time>2026-04-10T08:00:45.61Z</time></trkpt><trkpt lat="41.7467147" lon="13.6194736"><ele>311.0</ele><time>2026-04-10T08:00:46.586Z</time></trkpt><trkpt lat="41.7469734" lon="13.6194279"><ele>299.0</ele><time>2026-04-10T08:00:47.595Z</time></trkpt><trkpt lat="41.7472262" lon="13.6193785"><ele>299.0</ele><time>2026-04-10T08:00:48.587Z</time></trkpt><trkpt lat="41.7474793" lon="13.619329"><ele>299.0</ele><time>2026-04-10T08:00:49.588Z</time></trkpt><trkpt lat="41.7477332" lon="13.6192587"><ele>296.0</ele><time>2026-04-10T08:00:50.591Z</time></trkpt><trkpt lat="41.7479587" lon="13.6191736"><ele>293.0</ele><time>2026-04-10T08:00:51.602Z</time></trkpt><trkpt lat="41.7481752" lon="13.6190533"><ele>293.0</ele><time>2026-04-10T08:00:52.598Z</time></trkpt><trkpt lat="41.7483926" lon="13.6189392"><ele>293.0</ele><time>2026-04-10T08:00:53.594Z</time></trkpt><trkpt lat="41.7486173" lon="13.6188168"><ele>293.5</ele><time>2026-04-10T08:00:54.602Z</time></trkpt><trkpt lat="41.7488538" lon="13.6187111"><ele>294.0</ele><time>2026-04-10T08:00:55.602Z</time></trkpt><trkpt lat="41.7490564" lon="13.6185548"><ele>294.5</ele><time>2026-04-10T08:00:56.604Z</time></trkpt><trkpt lat="41.7492694" lon="13.6183866"><ele>295.0</ele><time>2026-04-10T08:00:57.601Z</time></trkpt><trkpt lat="41.7494838" lon="13.6182234"><ele>294.0</ele><time>2026-04-10T08:00:58.611Z</time></trkpt><trkpt lat="41.7496968" lon="13.6180546"><ele>293.0</ele><time>2026-04-10T08:00:59.608Z</time></trkpt><trkpt lat="41.7498815" lon="13.6178596"><ele>293.5</ele><time>2026-04-10T08:01:00.612Z</time></trkpt><trkpt lat="41.7500933" lon="13.6176482"><ele>294.0</ele><time>2026-04-10T08:01:01.597Z</time></trkpt><trkpt lat="41.7502762" lon="13.6174282"><ele>294.0</ele><time>2026-04-10T08:01:02.604Z</time></trkpt><trkpt lat="41.7504656" lon="13.6172229"><ele>294.0</ele><time>2026-04-10T08:01:03.594Z</time></trkpt><trkpt lat="41.750664" lon="13.6170371"><ele>294.0</ele><time>2026-04-10T08:01:04.596Z</time></trkpt><trkpt lat="41.7508717" lon="13.6168433"><ele>294.0</ele><time>2026-04-10T08:01:05.6Z</time></trkpt><trkpt lat="41.7510458" lon="13.6165944"><ele>294.0</ele><time>2026-04-10T08:01:06.599Z</time></trkpt><trkpt lat="41.7512057" lon="13.6163669"><ele>294.0</ele><time>2026-04-10T08:01:07.601Z</time></trkpt><trkpt lat="41.7513791" lon="13.6161707"><ele>295.0</ele><time>2026-04-10T08:01:08.596Z</time></trkpt><trkpt lat="41.7515619" lon="13.6159851"><ele>296.0</ele><time>2026-04-10T08:01:09.596Z</time></trkpt><trkpt lat="41.7517615" lon="13.6158077"><ele>295.0</ele><time>2026-04-10T08:01:10.592Z</time></trkpt><trkpt lat="41.7519356" lon="13.6156169"><ele>294.0</ele><time>2026-04-10T08:01:11.589Z</time></trkpt><trkpt lat="41.7521209" lon="13.6154269"><ele>294.0</ele><time>2026-04-10T08:01:12.596Z</time></trkpt><trkpt lat="41.7522932" lon="13.6152227"><ele>294.0</ele><time>2026-04-10T08:01:13.6Z</time></trkpt><trkpt lat="41.752445" lon="13.6150171"><ele>294.0</ele><time>2026-04-10T08:01:14.597Z</time></trkpt><trkpt lat="41.752629" lon="13.6148461"><ele>294.5</ele><time>2026-04-10T08:01:15.598Z</time></trkpt><trkpt lat="41.7528096" lon="13.6146494"><ele>295.0</ele><time>2026-04-10T08:01:16.608Z</time></trkpt><trkpt lat="41.7530284" lon="13.6144523"><ele>295.5</ele><time>2026-04-10T08:01:17.591Z</time></trkpt><trkpt lat="41.7532216" lon="13.6142762"><ele>296.0</ele><time>2026-04-10T08:01:18.595Z</time></trkpt><trkpt lat="41.7534355" lon="13.6140992"><ele>297.0</ele><time>2026-04-10T08:01:19.591Z</time></trkpt><trkpt lat="41.7536266" lon="13.6139329"><ele>298.0</ele><time>2026-04-10T08:01:20.597Z</time></trkpt><trkpt lat="41.7538123" lon="13.6137698"><ele>297.5</ele><time>2026-04-10T08:01:21.587Z</time></trkpt><trkpt lat="41.7540138" lon="13.6136203"><ele>297.0</ele><time>2026-04-10T08:01:22.597Z</time></trkpt><trkpt lat="41.7542233" lon="13.6134472"><ele>297.5</ele><time>2026-04-10T08:01:23.592Z</time></trkpt><trkpt lat="41.7544432" lon="13.6133076"><ele>298.0</ele><time>2026-04-10T08:01:24.604Z</time></trkpt><trkpt lat="41.7546559" lon="13.613192"><ele>298.0</ele><time>2026-04-10T08:01:25.593Z</time></trkpt><trkpt lat="41.7548882" lon="13.6131017"><ele>298.0</ele><time>2026-04-10T08:01:26.593Z</time></trkpt><trkpt lat="41.7550953" lon="13.6129985"><ele>297.5</ele><time>2026-04-10T08:01:27.588Z</time></trkpt><trkpt lat="41.755313" lon="13.6128951"><ele>297.0</ele><time>2026-04-10T08:01:28.584Z</time></trkpt><trkpt lat="41.7555634" lon="13.6128186"><ele>297.0</ele><time>2026-04-10T08:01:29.594Z</time></trkpt><trkpt lat="41.7558264" lon="13.6127457"><ele>297.0</ele><time>2026-04-10T08:01:30.607Z</time></trkpt><trkpt lat="41.7560569" lon="13.6126727"><ele>297.0</ele><time>2026-04-10T08:01:31.598Z</time></trkpt><trkpt lat="41.7563025" lon="13.6126122"><ele>297.0</ele><time>2026-04-10T08:01:32.594Z</time></trkpt><trkpt lat="41.7565513" lon="13.6125742"><ele>297.0</ele><time>2026-04-10T08:01:33.585Z</time></trkpt><trkpt lat="41.7567996" lon="13.6125246"><ele>297.0</ele><time>2026-04-10T08:01:34.592Z</time></trkpt><trkpt lat="41.7570578" lon="13.6124929"><ele>298.5</ele><time>2026-04-10T08:01:35.585Z</time></trkpt><trkpt lat="41.7572909" lon="13.612419"><ele>300.0</ele><time>2026-04-10T08:01:36.591Z</time></trkpt><trkpt lat="41.7575241" lon="13.6123345"><ele>301.0</ele><time>2026-04-10T08:01:37.588Z</time></trkpt><trkpt lat="41.757755" lon="13.6122474"><ele>302.0</ele><time>2026-04-10T08:01:38.589Z</time></trkpt><trkpt lat="41.7579875" lon="13.6121469"><ele>302.0</ele><time>2026-04-10T08:01:39.589Z</time></trkpt><trkpt lat="41.7582289" lon="13.6120486"><ele>302.0</ele><time>2026-04-10T08:01:40.592Z</time></trkpt><trkpt lat="41.7584616" lon="13.6119083"><ele>301.0</ele><time>2026-04-10T08:01:41.593Z</time></trkpt><trkpt lat="41.7586902" lon="13.6117763"><ele>300.0</ele><time>2026-04-10T08:01:42.589Z</time></trkpt><trkpt lat="41.7589059" lon="13.6116358"><ele>300.0</ele><time>2026-04-10T08:01:43.594Z</time></trkpt><trkpt lat="41.7591336" lon="13.6115009"><ele>300.0</ele><time>2026-04-10T08:01:44.602Z</time></trkpt><trkpt lat="41.7593443" lon="13.6113405"><ele>298.5</ele><time>2026-04-10T08:01:45.601Z</time></trkpt><trkpt lat="41.7595468" lon="13.6111537"><ele>297.0</ele><time>2026-04-10T08:01:46.596Z</time></trkpt><trkpt lat="41.7597092" lon="13.610916"><ele>297.0</ele><time>2026-04-10T08:01:47.613Z</time></trkpt><trkpt lat="41.7598713" lon="13.6106968"><ele>297.0</ele><time>2026-04-10T08:01:48.599Z</time></trkpt><trkpt lat="41.7600333" lon="13.61048"><ele>303.0</ele><time>2026-04-10T08:01:49.592Z</time></trkpt><trkpt lat="41.7602001" lon="13.6102557"><ele>309.0</ele><time>2026-04-10T08:01:50.593Z</time></trkpt><trkpt lat="41.7603714" lon="13.6100101"><ele>309.0</ele><time>2026-04-10T08:01:51.602Z</time></trkpt><trkpt lat="41.7605427" lon="13.6097607"><ele>309.0</ele><time>2026-04-10T08:01:52.587Z</time></trkpt><trkpt lat="41.7607307" lon="13.6095399"><ele>305.5</ele><time>2026-04-10T08:01:53.584Z</time></trkpt><trkpt lat="41.7609446" lon="13.6093408"><ele>302.0</ele><time>2026-04-10T08:01:54.595Z</time></trkpt><trkpt lat="41.7611503" lon="13.6091633"><ele>302.0</ele><time>2026-04-10T08:01:55.581Z</time></trkpt><trkpt lat="41.7613723" lon="13.6090262"><ele>302.0</ele><time>2026-04-10T08:01:56.599Z</time></trkpt><trkpt lat="41.7616009" lon="13.6088865"><ele>302.0</ele><time>2026-04-10T08:01:57.591Z</time></trkpt><trkpt lat="41.7618342" lon="13.6087466"><ele>302.0</ele><time>2026-04-10T08:01:58.593Z</time></trkpt><trkpt lat="41.7620651" lon="13.6085937"><ele>300.5</ele><time>2026-04-10T08:01:59.602Z</time></trkpt><trkpt lat="41.7623027" lon="13.6084673"><ele>299.0</ele><time>2026-04-10T08:02:00.597Z</time></trkpt><trkpt lat="41.7625394" lon="13.608337"><ele>299.5</ele><time>2026-04-10T08:02:01.599Z</time></trkpt><trkpt lat="41.7627853" lon="13.6082042"><ele>300.0</ele><time>2026-04-10T08:02:02.599Z</time></trkpt><trkpt lat="41.7630038" lon="13.6080521"><ele>300.0</ele><time>2026-04-10T08:02:03.601Z</time></trkpt><trkpt lat="41.7632267" lon="13.6079036"><ele>300.0</ele><time>2026-04-10T08:02:04.599Z</time></trkpt><trkpt lat="41.7634602" lon="13.6077577"><ele>301.0</ele><time>2026-04-10T08:02:05.596Z</time></trkpt><trkpt lat="41.7636948" lon="13.6075911"><ele>302.0</ele><time>2026-04-10T08:02:06.602Z</time></trkpt><trkpt lat="41.7639223" lon="13.6074133"><ele>302.0</ele><time>2026-04-10T08:02:07.595Z</time></trkpt><trkpt lat="41.7641305" lon="13.6072011"><ele>302.0</ele><time>2026-04-10T08:02:08.598Z</time></trkpt><trkpt lat="41.7643468" lon="13.6070017"><ele>302.0</ele><time>2026-04-10T08:02:09.597Z</time></trkpt><trkpt lat="41.7645331" lon="13.6067593"><ele>302.0</ele><time>2026-04-10T08:02:10.594Z</time></trkpt><trkpt lat="41.7647082" lon="13.6065211"><ele>302.0</ele><time>2026-04-10T08:02:11.6Z</time></trkpt><trkpt lat="41.7648616" lon="13.6062424"><ele>302.0</ele><time>2026-04-10T08:02:12.609Z</time></trkpt><trkpt lat="41.7650186" lon="13.6059733"><ele>303.0</ele><time>2026-04-10T08:02:13.611Z</time></trkpt><trkpt lat="41.7651877" lon="13.6057061"><ele>304.0</ele><time>2026-04-10T08:02:14.604Z</time></trkpt><trkpt lat="41.7653373" lon="13.6054095"><ele>303.0</ele><time>2026-04-10T08:02:15.606Z</time></trkpt><trkpt lat="41.76551" lon="13.6051481"><ele>302.0</ele><time>2026-04-10T08:02:16.607Z</time></trkpt><trkpt lat="41.7656736" lon="13.6048842"><ele>302.0</ele><time>2026-04-10T08:02:17.599Z</time></trkpt><trkpt lat="41.7658202" lon="13.60461"><ele>302.0</ele><time>2026-04-10T08:02:18.631Z</time></trkpt><trkpt lat="41.765974" lon="13.604333"><ele>302.5</ele><time>2026-04-10T08:02:19.598Z</time></trkpt><trkpt lat="41.7661323" lon="13.6040403"><ele>303.0</ele><time>2026-04-10T08:02:20.595Z</time></trkpt><trkpt lat="41.7662939" lon="13.6037729"><ele>303.0</ele><time>2026-04-10T08:02:21.6Z</time></trkpt><trkpt lat="41.7664826" lon="13.6035388"><ele>303.0</ele><time>2026-04-10T08:02:22.597Z</time></trkpt><trkpt lat="41.7666526" lon="13.6032892"><ele>306.5</ele><time>2026-04-10T08:02:23.599Z</time></trkpt><trkpt lat="41.7668687" lon="13.6030579"><ele>310.0</ele><time>2026-04-10T08:02:24.598Z</time></trkpt><trkpt lat="41.7670593" lon="13.6028451"><ele>307.5</ele><time>2026-04-10T08:02:25.589Z</time></trkpt><trkpt lat="41.7672563" lon="13.602627"><ele>305.0</ele><time>2026-04-10T08:02:26.594Z</time></trkpt><trkpt lat="41.7674632" lon="13.6024374"><ele>305.0</ele><time>2026-04-10T08:02:27.596Z</time></trkpt><trkpt lat="41.7676813" lon="13.6022588"><ele>305.0</ele><time>2026-04-10T08:02:28.591Z</time></trkpt><trkpt lat="41.7679336" lon="13.602098"><ele>304.5</ele><time>2026-04-10T08:02:29.592Z</time></trkpt><trkpt lat="41.7681407" lon="13.6019457"><ele>304.0</ele><time>2026-04-10T08:02:30.599Z</time></trkpt><trkpt lat="41.7683719" lon="13.6017801"><ele>304.5</ele><time>2026-04-10T08:02:31.592Z</time></trkpt><trkpt lat="41.7686025" lon="13.6016128"><ele>305.0</ele><time>2026-04-10T08:02:32.597Z</time></trkpt><trkpt lat="41.7688144" lon="13.6014595"><ele>305.0</ele><time>2026-04-10T08:02:33.591Z</time></trkpt><trkpt lat="41.7690578" lon="13.6013105"><ele>305.0</ele><time>2026-04-10T08:02:34.592Z</time></trkpt><trkpt lat="41.7692588" lon="13.601131"><ele>303.5</ele><time>2026-04-10T08:02:35.591Z</time></trkpt><trkpt lat="41.7694876" lon="13.6009809"><ele>302.0</ele><time>2026-04-10T08:02:36.592Z</time></trkpt><trkpt lat="41.7697098" lon="13.6008247"><ele>302.0</ele><time>2026-04-10T08:02:37.596Z</time></trkpt><trkpt lat="41.7699389" lon="13.6006742"><ele>302.0</ele><time>2026-04-10T08:02:38.606Z</time></trkpt><trkpt lat="41.7701542" lon="13.600539"><ele>302.0</ele><time>2026-04-10T08:02:39.601Z</time></trkpt><trkpt lat="41.7703718" lon="13.600399"><ele>302.0</ele><time>2026-04-10T08:02:40.6Z</time></trkpt><trkpt lat="41.7705939" lon="13.6002481"><ele>302.0</ele><time>2026-04-10T08:02:41.596Z</time></trkpt><trkpt lat="41.7708207" lon="13.6000918"><ele>302.0</ele><time>2026-04-10T08:02:42.599Z</time></trkpt><trkpt lat="41.7710578" lon="13.5999615"><ele>302.0</ele><time>2026-04-10T08:02:43.6Z</time></trkpt><trkpt lat="41.7712887" lon="13.5998175"><ele>302.0</ele><time>2026-04-10T08:02:44.604Z</time></trkpt><trkpt lat="41.771507" lon="13.5996396"><ele>301.5</ele><time>2026-04-10T08:02:45.598Z</time></trkpt><trkpt lat="41.7717491" lon="13.599488"><ele>301.0</ele><time>2026-04-10T08:02:46.604Z</time></trkpt><trkpt lat="41.7719865" lon="13.5993488"><ele>300.5</ele><time>2026-04-10T08:02:47.604Z</time></trkpt><trkpt lat="41.7722047" lon="13.5991623"><ele>300.0</ele><time>2026-04-10T08:02:48.617Z</time></trkpt><trkpt lat="41.7724366" lon="13.5990027"><ele>300.0</ele><time>2026-04-10T08:02:49.603Z</time></trkpt><trkpt lat="41.7726677" lon="13.5988404"><ele>300.0</ele><time>2026-04-10T08:02:50.6Z</time></trkpt><trkpt lat="41.7728961" lon="13.5986793"><ele>301.5</ele><time>2026-04-10T08:02:51.604Z</time></trkpt><trkpt lat="41.7731253" lon="13.5985213"><ele>303.0</ele><time>2026-04-10T08:02:52.602Z</time></trkpt><trkpt lat="41.7733587" lon="13.5983801"><ele>302.5</ele><time>2026-04-10T08:02:53.606Z</time></trkpt><trkpt lat="41.7735949" lon="13.5982297"><ele>302.0</ele><time>2026-04-10T08:02:54.611Z</time></trkpt><trkpt lat="41.7738269" lon="13.598069"><ele>302.0</ele><time>2026-04-10T08:02:55.613Z</time></trkpt><trkpt lat="41.7740638" lon="13.5979339"><ele>302.0</ele><time>2026-04-10T08:02:56.604Z</time></trkpt><trkpt lat="41.7742841" lon="13.5977732"><ele>303.0</ele><time>2026-04-10T08:02:57.603Z</time></trkpt><trkpt lat="41.7744855" lon="13.5976154"><ele>304.0</ele><time>2026-04-10T08:02:58.612Z</time></trkpt><trkpt lat="41.7746953" lon="13.5974674"><ele>304.0</ele><time>2026-04-10T08:02:59.611Z</time></trkpt><trkpt lat="41.774914" lon="13.5973197"><ele>304.0</ele><time>2026-04-10T08:03:00.605Z</time></trkpt><trkpt lat="41.7751249" lon="13.5971614"><ele>304.5</ele><time>2026-04-10T08:03:01.61Z</time></trkpt><trkpt lat="41.7753345" lon="13.5970171"><ele>305.0</ele><time>2026-04-10T08:03:02.599Z</time></trkpt><trkpt lat="41.7755361" lon="13.5968873"><ele>305.0</ele><time>2026-04-10T08:03:03.604Z</time></trkpt><trkpt lat="41.7757543" lon="13.5967522"><ele>305.0</ele><time>2026-04-10T08:03:04.607Z</time></trkpt><trkpt lat="41.7759602" lon="13.5965858"><ele>307.0</ele><time>2026-04-10T08:03:05.607Z</time></trkpt><trkpt lat="41.7761772" lon="13.5964376"><ele>309.0</ele><time>2026-04-10T08:03:06.601Z</time></trkpt><trkpt lat="41.7764029" lon="13.5962917"><ele>306.0</ele><time>2026-04-10T08:03:07.607Z</time></trkpt><trkpt lat="41.7766115" lon="13.5961417"><ele>303.0</ele><time>2026-04-10T08:03:08.605Z</time></trkpt><trkpt lat="41.7768364" lon="13.5960133"><ele>304.5</ele><time>2026-04-10T08:03:09.623Z</time></trkpt><trkpt lat="41.7770564" lon="13.5958462"><ele>306.0</ele><time>2026-04-10T08:03:10.616Z</time></trkpt><trkpt lat="41.7772618" lon="13.5956846"><ele>306.0</ele><time>2026-04-10T08:03:11.616Z</time></trkpt><trkpt lat="41.7774636" lon="13.5955055"><ele>306.0</ele><time>2026-04-10T08:03:12.622Z</time></trkpt><trkpt lat="41.7776676" lon="13.5953173"><ele>307.5</ele><time>2026-04-10T08:03:13.608Z</time></trkpt><trkpt lat="41.7778634" lon="13.5951447"><ele>309.0</ele><time>2026-04-10T08:03:14.61Z</time></trkpt><trkpt lat="41.7780515" lon="13.5949501"><ele>309.0</ele><time>2026-04-10T08:03:15.617Z</time></trkpt><trkpt lat="41.7782341" lon="13.5947599"><ele>309.0</ele><time>2026-04-10T08:03:16.614Z</time></trkpt><trkpt lat="41.7784113" lon="13.5945625"><ele>308.5</ele><time>2026-04-10T08:03:17.62Z</time></trkpt><trkpt lat="41.7785948" lon="13.5943559"><ele>308.0</ele><time>2026-04-10T08:03:18.614Z</time></trkpt><trkpt lat="41.778761" lon="13.5941327"><ele>308.0</ele><time>2026-04-10T08:03:19.637Z</time></trkpt><trkpt lat="41.7789145" lon="13.5938885"><ele>308.0</ele><time>2026-04-10T08:03:20.606Z</time></trkpt><trkpt lat="41.779078" lon="13.5936537"><ele>308.5</ele><time>2026-04-10T08:03:21.612Z</time></trkpt><trkpt lat="41.7792668" lon="13.5934563"><ele>309.0</ele><time>2026-04-10T08:03:22.609Z</time></trkpt><trkpt lat="41.7794225" lon="13.5932282"><ele>309.0</ele><time>2026-04-10T08:03:23.61Z</time></trkpt><trkpt lat="41.779595" lon="13.5929577"><ele>309.0</ele><time>2026-04-10T08:03:24.605Z</time></trkpt><trkpt lat="41.7797942" lon="13.5927472"><ele>306.5</ele><time>2026-04-10T08:03:25.604Z</time></trkpt><trkpt lat="41.7799535" lon="13.592503"><ele>304.0</ele><time>2026-04-10T08:03:26.609Z</time></trkpt><trkpt lat="41.7801381" lon="13.5922511"><ele>309.5</ele><time>2026-04-10T08:03:27.607Z</time></trkpt><trkpt lat="41.7802566" lon="13.59196"><ele>315.0</ele><time>2026-04-10T08:03:28.617Z</time></trkpt><trkpt lat="41.7804197" lon="13.5916932"><ele>315.0</ele><time>2026-04-10T08:03:29.608Z</time></trkpt><trkpt lat="41.7805804" lon="13.5914213"><ele>315.0</ele><time>2026-04-10T08:03:30.613Z</time></trkpt><trkpt lat="41.7807551" lon="13.5911646"><ele>316.5</ele><time>2026-04-10T08:03:31.62Z</time></trkpt><trkpt lat="41.7809187" lon="13.5908926"><ele>318.0</ele><time>2026-04-10T08:03:32.623Z</time></trkpt><trkpt lat="41.7810787" lon="13.5906243"><ele>318.0</ele><time>2026-04-10T08:03:33.609Z</time></trkpt><trkpt lat="41.7812348" lon="13.5903889"><ele>318.0</ele><time>2026-04-10T08:03:34.605Z</time></trkpt><trkpt lat="41.7814151" lon="13.5901418"><ele>315.5</ele><time>2026-04-10T08:03:35.615Z</time></trkpt><trkpt lat="41.7815946" lon="13.5898993"><ele>313.0</ele><time>2026-04-10T08:03:36.611Z</time></trkpt><trkpt lat="41.7817471" lon="13.5896035"><ele>318.0</ele><time>2026-04-10T08:03:37.611Z</time></trkpt><trkpt lat="41.7819053" lon="13.5893349"><ele>323.0</ele><time>2026-04-10T08:03:38.608Z</time></trkpt><trkpt lat="41.782108" lon="13.5890813"><ele>323.0</ele><time>2026-04-10T08:03:39.609Z</time></trkpt><trkpt lat="41.7822855" lon="13.5888304"><ele>323.0</ele><time>2026-04-10T08:03:40.609Z</time></trkpt><trkpt lat="41.7824679" lon="13.5885649"><ele>322.5</ele><time>2026-04-10T08:03:41.606Z</time></trkpt><trkpt lat="41.782627" lon="13.5882859"><ele>322.0</ele><time>2026-04-10T08:03:42.614Z</time></trkpt><trkpt lat="41.7828091" lon="13.5880323"><ele>319.0</ele><time>2026-04-10T08:03:43.616Z</time></trkpt><trkpt lat="41.7829834" lon="13.5877539"><ele>316.0</ele><time>2026-04-10T08:03:44.611Z</time></trkpt><trkpt lat="41.7831612" lon="13.5874909"><ele>316.0</ele><time>2026-04-10T08:03:45.61Z</time></trkpt><trkpt lat="41.7833471" lon="13.5872428"><ele>316.0</ele><time>2026-04-10T08:03:46.611Z</time></trkpt><trkpt lat="41.7835203" lon="13.5869768"><ele>317.5</ele><time>2026-04-10T08:03:47.608Z</time></trkpt><trkpt lat="41.7836916" lon="13.5866936"><ele>319.0</ele><time>2026-04-10T08:03:48.616Z</time></trkpt><trkpt lat="41.7838641" lon="13.5864128"><ele>316.5</ele><time>2026-04-10T08:03:49.625Z</time></trkpt><trkpt lat="41.7840268" lon="13.5861381"><ele>314.0</ele><time>2026-04-10T08:03:50.63Z</time></trkpt><trkpt lat="41.7841935" lon="13.5858748"><ele>314.0</ele><time>2026-04-10T08:03:51.621Z</time></trkpt><trkpt lat="41.7843199" lon="13.5855722"><ele>314.0</ele><time>2026-04-10T08:03:52.621Z</time></trkpt><trkpt lat="41.7844561" lon="13.5852789"><ele>313.5</ele><time>2026-04-10T08:03:53.609Z</time></trkpt><trkpt lat="41.7845988" lon="13.5849714"><ele>313.0</ele><time>2026-04-10T08:03:54.617Z</time></trkpt><trkpt lat="41.7847118" lon="13.5846516"><ele>311.5</ele><time>2026-04-10T08:03:55.61Z</time></trkpt><trkpt lat="41.7848414" lon="13.5843597"><ele>310.0</ele><time>2026-04-10T08:03:56.614Z</time></trkpt><trkpt lat="41.7849606" lon="13.5840539"><ele>310.0</ele><time>2026-04-10T08:03:57.616Z</time></trkpt><trkpt lat="41.785066" lon="13.583736"><ele>310.0</ele><time>2026-04-10T08:03:58.618Z</time></trkpt><trkpt lat="41.7851628" lon="13.5834089"><ele>310.0</ele><time>2026-04-10T08:03:59.615Z</time></trkpt><trkpt lat="41.7852853" lon="13.5831068"><ele>310.0</ele><time>2026-04-10T08:04:00.623Z</time></trkpt><trkpt lat="41.7854006" lon="13.5828064"><ele>310.0</ele><time>2026-04-10T08:04:01.617Z</time></trkpt><trkpt lat="41.7855201" lon="13.582505"><ele>310.0</ele><time>2026-04-10T08:04:02.612Z</time></trkpt><trkpt lat="41.7856459" lon="13.582209"><ele>310.0</ele><time>2026-04-10T08:04:03.615Z</time></trkpt><trkpt lat="41.7857725" lon="13.5819165"><ele>310.0</ele><time>2026-04-10T08:04:04.618Z</time></trkpt><trkpt lat="41.7859202" lon="13.5816648"><ele>311.0</ele><time>2026-04-10T08:04:05.61Z</time></trkpt><trkpt lat="41.7860975" lon="13.5814386"><ele>312.0</ele><time>2026-04-10T08:04:06.613Z</time></trkpt><trkpt lat="41.7862316" lon="13.5811626"><ele>312.0</ele><time>2026-04-10T08:04:07.62Z</time></trkpt><trkpt lat="41.7863687" lon="13.5808911"><ele>312.0</ele><time>2026-04-10T08:04:08.622Z</time></trkpt><trkpt lat="41.7865012" lon="13.580607"><ele>312.0</ele><time>2026-04-10T08:04:09.614Z</time></trkpt><trkpt lat="41.7866537" lon="13.5802928"><ele>312.0</ele><time>2026-04-10T08:04:10.618Z</time></trkpt><trkpt lat="41.7867931" lon="13.5800285"><ele>315.0</ele><time>2026-04-10T08:04:11.612Z</time></trkpt><trkpt lat="41.7870802" lon="13.5795106"><ele>315.0</ele><time>2026-04-10T08:04:13.621Z</time></trkpt><trkpt lat="41.7872451" lon="13.5792602"><ele>315.0</ele><time>2026-04-10T08:04:14.616Z</time></trkpt><trkpt lat="41.7873802" lon="13.5789817"><ele>315.0</ele><time>2026-04-10T08:04:15.62Z</time></trkpt><trkpt lat="41.7875167" lon="13.5787138"><ele>315.0</ele><time>2026-04-10T08:04:16.624Z</time></trkpt><trkpt lat="41.7876606" lon="13.5784495"><ele>313.0</ele><time>2026-04-10T08:04:17.613Z</time></trkpt><trkpt lat="41.7878105" lon="13.5782085"><ele>311.0</ele><time>2026-04-10T08:04:18.621Z</time></trkpt><trkpt lat="41.7879575" lon="13.5779595"><ele>314.5</ele><time>2026-04-10T08:04:19.624Z</time></trkpt><trkpt lat="41.7880851" lon="13.5776714"><ele>318.0</ele><time>2026-04-10T08:04:20.624Z</time></trkpt><trkpt lat="41.7882445" lon="13.5774191"><ele>316.0</ele><time>2026-04-10T08:04:21.632Z</time></trkpt><trkpt lat="41.7886493" lon="13.5769652"><ele>316.0</ele><time>2026-04-10T08:04:23.613Z</time></trkpt><trkpt lat="41.7888604" lon="13.5767628"><ele>316.0</ele><time>2026-04-10T08:04:24.62Z</time></trkpt><trkpt lat="41.7890848" lon="13.5765873"><ele>316.0</ele><time>2026-04-10T08:04:25.609Z</time></trkpt><trkpt lat="41.7892936" lon="13.5764053"><ele>316.0</ele><time>2026-04-10T08:04:26.609Z</time></trkpt><trkpt lat="41.7895571" lon="13.5762999"><ele>315.5</ele><time>2026-04-10T08:04:27.612Z</time></trkpt><trkpt lat="41.7898144" lon="13.5762043"><ele>315.0</ele><time>2026-04-10T08:04:28.611Z</time></trkpt><trkpt lat="41.7900505" lon="13.5760744"><ele>317.0</ele><time>2026-04-10T08:04:29.612Z</time></trkpt><trkpt lat="41.7903177" lon="13.5759694"><ele>319.0</ele><time>2026-04-10T08:04:30.612Z</time></trkpt><trkpt lat="41.7905742" lon="13.5758318"><ele>319.0</ele><time>2026-04-10T08:04:31.619Z</time></trkpt><trkpt lat="41.7908276" lon="13.575682"><ele>319.0</ele><time>2026-04-10T08:04:32.61Z</time></trkpt><trkpt lat="41.791052" lon="13.5755094"><ele>318.5</ele><time>2026-04-10T08:04:33.604Z</time></trkpt><trkpt lat="41.7912754" lon="13.5753176"><ele>318.0</ele><time>2026-04-10T08:04:34.61Z</time></trkpt><trkpt lat="41.7914607" lon="13.5750949"><ele>318.0</ele><time>2026-04-10T08:04:35.611Z</time></trkpt><trkpt lat="41.7916548" lon="13.574905"><ele>318.0</ele><time>2026-04-10T08:04:36.604Z</time></trkpt><trkpt lat="41.7917887" lon="13.5746246"><ele>315.5</ele><time>2026-04-10T08:04:37.599Z</time></trkpt><trkpt lat="41.7919065" lon="13.5743376"><ele>313.0</ele><time>2026-04-10T08:04:38.602Z</time></trkpt><trkpt lat="41.7920568" lon="13.5740655"><ele>313.0</ele><time>2026-04-10T08:04:39.611Z</time></trkpt><trkpt lat="41.7921515" lon="13.5737369"><ele>313.0</ele><time>2026-04-10T08:04:40.613Z</time></trkpt><trkpt lat="41.7922409" lon="13.5734132"><ele>315.5</ele><time>2026-04-10T08:04:41.606Z</time></trkpt><trkpt lat="41.7923248" lon="13.5731149"><ele>318.0</ele><time>2026-04-10T08:04:42.602Z</time></trkpt><trkpt lat="41.7923742" lon="13.5727482"><ele>318.0</ele><time>2026-04-10T08:04:43.616Z</time></trkpt><trkpt lat="41.792421" lon="13.5723821"><ele>318.0</ele><time>2026-04-10T08:04:44.611Z</time></trkpt><trkpt lat="41.7924812" lon="13.5720549"><ele>320.0</ele><time>2026-04-10T08:04:45.608Z</time></trkpt><trkpt lat="41.792563" lon="13.5717211"><ele>322.0</ele><time>2026-04-10T08:04:46.613Z</time></trkpt><trkpt lat="41.7926558" lon="13.5713837"><ele>319.0</ele><time>2026-04-10T08:04:47.61Z</time></trkpt><trkpt lat="41.7927753" lon="13.5710793"><ele>316.0</ele><time>2026-04-10T08:04:48.608Z</time></trkpt><trkpt lat="41.7928723" lon="13.570744"><ele>316.0</ele><time>2026-04-10T08:04:49.61Z</time></trkpt><trkpt lat="41.7930246" lon="13.5704552"><ele>316.0</ele><time>2026-04-10T08:04:50.607Z</time></trkpt><trkpt lat="41.793213" lon="13.5701759"><ele>317.0</ele><time>2026-04-10T08:04:51.611Z</time></trkpt><trkpt lat="41.7933807" lon="13.5699231"><ele>318.0</ele><time>2026-04-10T08:04:52.617Z</time></trkpt><trkpt lat="41.7936236" lon="13.5697114"><ele>337.0</ele><time>2026-04-10T08:04:53.599Z</time></trkpt><trkpt lat="41.794123" lon="13.5693727"><ele>331.5</ele><time>2026-04-10T08:04:55.595Z</time></trkpt><trkpt lat="41.7943445" lon="13.5692406"><ele>326.0</ele><time>2026-04-10T08:04:56.596Z</time></trkpt><trkpt lat="41.7945857" lon="13.5691309"><ele>326.0</ele><time>2026-04-10T08:04:57.598Z</time></trkpt><trkpt lat="41.794857" lon="13.5690198"><ele>326.0</ele><time>2026-04-10T08:04:58.601Z</time></trkpt><trkpt lat="41.7951061" lon="13.5689607"><ele>322.0</ele><time>2026-04-10T08:04:59.604Z</time></trkpt><trkpt lat="41.7953377" lon="13.5688817"><ele>318.0</ele><time>2026-04-10T08:05:00.61Z</time></trkpt><trkpt lat="41.7955998" lon="13.5688234"><ele>318.0</ele><time>2026-04-10T08:05:01.614Z</time></trkpt><trkpt lat="41.7958476" lon="13.5687639"><ele>318.0</ele><time>2026-04-10T08:05:02.598Z</time></trkpt><trkpt lat="41.7961012" lon="13.5686496"><ele>320.5</ele><time>2026-04-10T08:05:03.602Z</time></trkpt><trkpt lat="41.7963397" lon="13.5685317"><ele>323.0</ele><time>2026-04-10T08:05:04.609Z</time></trkpt><trkpt lat="41.7965735" lon="13.5684005"><ele>323.0</ele><time>2026-04-10T08:05:05.61Z</time></trkpt><trkpt lat="41.796799" lon="13.568269"><ele>323.0</ele><time>2026-04-10T08:05:06.602Z</time></trkpt><trkpt lat="41.7970141" lon="13.5681056"><ele>321.5</ele><time>2026-04-10T08:05:07.604Z</time></trkpt><trkpt lat="41.7972296" lon="13.5678953"><ele>320.0</ele><time>2026-04-10T08:05:08.605Z</time></trkpt><trkpt lat="41.7974571" lon="13.5677284"><ele>321.0</ele><time>2026-04-10T08:05:09.604Z</time></trkpt><trkpt lat="41.7976387" lon="13.5675006"><ele>322.0</ele><time>2026-04-10T08:05:10.61Z</time></trkpt><trkpt lat="41.7978345" lon="13.5672872"><ele>322.0</ele><time>2026-04-10T08:05:11.611Z</time></trkpt><trkpt lat="41.7980048" lon="13.5670439"><ele>322.0</ele><time>2026-04-10T08:05:12.612Z</time></trkpt><trkpt lat="41.7981644" lon="13.566781"><ele>324.5</ele><time>2026-04-10T08:05:13.608Z</time></trkpt><trkpt lat="41.7983054" lon="13.5665059"><ele>327.0</ele><time>2026-04-10T08:05:14.615Z</time></trkpt><trkpt lat="41.7984573" lon="13.5662561"><ele>325.0</ele><time>2026-04-10T08:05:15.611Z</time></trkpt><trkpt lat="41.7986168" lon="13.5659851"><ele>323.0</ele><time>2026-04-10T08:05:16.605Z</time></trkpt><trkpt lat="41.7987582" lon="13.5656985"><ele>323.0</ele><time>2026-04-10T08:05:17.614Z</time></trkpt><trkpt lat="41.7988992" lon="13.5654764"><ele>323.0</ele><time>2026-04-10T08:05:18.616Z</time></trkpt><trkpt lat="41.7990742" lon="13.5652408"><ele>322.5</ele><time>2026-04-10T08:05:19.611Z</time></trkpt><trkpt lat="41.7992532" lon="13.5649926"><ele>322.0</ele><time>2026-04-10T08:05:20.61Z</time></trkpt><trkpt lat="41.7993976" lon="13.564701"><ele>323.0</ele><time>2026-04-10T08:05:21.603Z</time></trkpt><trkpt lat="41.7995576" lon="13.5644324"><ele>324.0</ele><time>2026-04-10T08:05:22.607Z</time></trkpt><trkpt lat="41.799774" lon="13.5642092"><ele>324.0</ele><time>2026-04-10T08:05:23.617Z</time></trkpt><trkpt lat="41.7999544" lon="13.5639575"><ele>324.0</ele><time>2026-04-10T08:05:24.607Z</time></trkpt><trkpt lat="41.8001456" lon="13.5637177"><ele>324.0</ele><time>2026-04-10T08:05:25.608Z</time></trkpt><trkpt lat="41.8003527" lon="13.5634882"><ele>324.0</ele><time>2026-04-10T08:05:26.608Z</time></trkpt><trkpt lat="41.800548" lon="13.5632863"><ele>324.0</ele><time>2026-04-10T08:05:27.61Z</time></trkpt><trkpt lat="41.8007666" lon="13.5631386"><ele>324.0</ele><time>2026-04-10T08:05:28.607Z</time></trkpt><trkpt lat="41.8009893" lon="13.5629493"><ele>322.0</ele><time>2026-04-10T08:05:29.62Z</time></trkpt><trkpt lat="41.8012066" lon="13.5627542"><ele>320.0</ele><time>2026-04-10T08:05:30.614Z</time></trkpt><trkpt lat="41.801413" lon="13.5625912"><ele>320.0</ele><time>2026-04-10T08:05:31.624Z</time></trkpt><trkpt lat="41.8016137" lon="13.5624128"><ele>320.0</ele><time>2026-04-10T08:05:32.622Z</time></trkpt><trkpt lat="41.801833" lon="13.5622427"><ele>321.5</ele><time>2026-04-10T08:05:33.62Z</time></trkpt><trkpt lat="41.8020426" lon="13.5620736"><ele>323.0</ele><time>2026-04-10T08:05:34.619Z</time></trkpt><trkpt lat="41.8022499" lon="13.561907"><ele>323.0</ele><time>2026-04-10T08:05:35.623Z</time></trkpt><trkpt lat="41.8024812" lon="13.5617445"><ele>323.0</ele><time>2026-04-10T08:05:36.621Z</time></trkpt><trkpt lat="41.8026879" lon="13.561588"><ele>326.5</ele><time>2026-04-10T08:05:37.621Z</time></trkpt><trkpt lat="41.8028642" lon="13.5614026"><ele>330.0</ele><time>2026-04-10T08:05:38.615Z</time></trkpt><trkpt lat="41.8030677" lon="13.5612455"><ele>328.5</ele><time>2026-04-10T08:05:39.619Z</time></trkpt><trkpt lat="41.8032871" lon="13.561063"><ele>327.0</ele><time>2026-04-10T08:05:40.616Z</time></trkpt><trkpt lat="41.803499" lon="13.560882"><ele>331.5</ele><time>2026-04-10T08:05:41.62Z</time></trkpt><trkpt lat="41.80372" lon="13.5606937"><ele>336.0</ele><time>2026-04-10T08:05:42.614Z</time></trkpt><trkpt lat="41.8039482" lon="13.5605222"><ele>336.5</ele><time>2026-04-10T08:05:43.615Z</time></trkpt><trkpt lat="41.8041645" lon="13.5603442"><ele>337.0</ele><time>2026-04-10T08:05:44.612Z</time></trkpt><trkpt lat="41.8044089" lon="13.5601761"><ele>337.0</ele><time>2026-04-10T08:05:45.618Z</time></trkpt><trkpt lat="41.8046456" lon="13.5600086"><ele>337.0</ele><time>2026-04-10T08:05:46.614Z</time></trkpt><trkpt lat="41.8048626" lon="13.5598389"><ele>337.0</ele><time>2026-04-10T08:05:47.629Z</time></trkpt><trkpt lat="41.8050559" lon="13.5596293"><ele>337.0</ele><time>2026-04-10T08:05:48.614Z</time></trkpt><trkpt lat="41.8053103" lon="13.5594675"><ele>335.5</ele><time>2026-04-10T08:05:49.62Z</time></trkpt><trkpt lat="41.8055329" lon="13.5593081"><ele>334.0</ele><time>2026-04-10T08:05:50.621Z</time></trkpt><trkpt lat="41.8057514" lon="13.55913"><ele>334.0</ele><time>2026-04-10T08:05:51.614Z</time></trkpt><trkpt lat="41.8059688" lon="13.5589684"><ele>334.0</ele><time>2026-04-10T08:05:52.618Z</time></trkpt><trkpt lat="41.806185" lon="13.5587859"><ele>332.5</ele><time>2026-04-10T08:05:53.616Z</time></trkpt><trkpt lat="41.8064251" lon="13.558631"><ele>331.0</ele><time>2026-04-10T08:05:54.633Z</time></trkpt><trkpt lat="41.8066298" lon="13.5584658"><ele>334.0</ele><time>2026-04-10T08:05:55.619Z</time></trkpt><trkpt lat="41.8068443" lon="13.5582933"><ele>337.0</ele><time>2026-04-10T08:05:56.616Z</time></trkpt><trkpt lat="41.8070711" lon="13.5581247"><ele>337.0</ele><time>2026-04-10T08:05:57.624Z</time></trkpt><trkpt lat="41.8073093" lon="13.5579509"><ele>337.0</ele><time>2026-04-10T08:05:58.612Z</time></trkpt><trkpt lat="41.8075226" lon="13.5577781"><ele>340.0</ele><time>2026-04-10T08:05:59.619Z</time></trkpt><trkpt lat="41.8077206" lon="13.557584"><ele>343.0</ele><time>2026-04-10T08:06:00.631Z</time></trkpt><trkpt lat="41.8079381" lon="13.5574041"><ele>343.0</ele><time>2026-04-10T08:06:01.628Z</time></trkpt><trkpt lat="41.808173" lon="13.5572381"><ele>343.0</ele><time>2026-04-10T08:06:02.622Z</time></trkpt><trkpt lat="41.8083874" lon="13.557084"><ele>342.0</ele><time>2026-04-10T08:06:03.624Z</time></trkpt><trkpt lat="41.8086234" lon="13.5569439"><ele>341.0</ele><time>2026-04-10T08:06:04.612Z</time></trkpt><trkpt lat="41.8088344" lon="13.5567706"><ele>341.0</ele><time>2026-04-10T08:06:05.62Z</time></trkpt><trkpt lat="41.8090472" lon="13.5565893"><ele>341.0</ele><time>2026-04-10T08:06:06.616Z</time></trkpt><trkpt lat="41.8092627" lon="13.5564526"><ele>340.5</ele><time>2026-04-10T08:06:07.621Z</time></trkpt><trkpt lat="41.8094846" lon="13.5562987"><ele>340.0</ele><time>2026-04-10T08:06:08.618Z</time></trkpt><trkpt lat="41.8097103" lon="13.5561395"><ele>340.0</ele><time>2026-04-10T08:06:09.622Z</time></trkpt><trkpt lat="41.8099272" lon="13.5559809"><ele>340.0</ele><time>2026-04-10T08:06:10.614Z</time></trkpt><trkpt lat="41.8101207" lon="13.5557944"><ele>342.5</ele><time>2026-04-10T08:06:11.617Z</time></trkpt><trkpt lat="41.8103114" lon="13.5556295"><ele>345.0</ele><time>2026-04-10T08:06:12.624Z</time></trkpt><trkpt lat="41.8105218" lon="13.5554392"><ele>342.5</ele><time>2026-04-10T08:06:13.624Z</time></trkpt><trkpt lat="41.8107258" lon="13.5552264"><ele>340.0</ele><time>2026-04-10T08:06:14.625Z</time></trkpt><trkpt lat="41.8109431" lon="13.5550385"><ele>339.5</ele><time>2026-04-10T08:06:15.618Z</time></trkpt><trkpt lat="41.8111687" lon="13.5548637"><ele>339.0</ele><time>2026-04-10T08:06:16.62Z</time></trkpt><trkpt lat="41.8113628" lon="13.5546471"><ele>336.5</ele><time>2026-04-10T08:06:17.629Z</time></trkpt><trkpt lat="41.8115466" lon="13.5544312"><ele>334.0</ele><time>2026-04-10T08:06:18.617Z</time></trkpt><trkpt lat="41.8117436" lon="13.5542033"><ele>333.0</ele><time>2026-04-10T08:06:19.627Z</time></trkpt><trkpt lat="41.8119139" lon="13.5539512"><ele>332.0</ele><time>2026-04-10T08:06:20.617Z</time></trkpt><trkpt lat="41.8120809" lon="13.5536918"><ele>332.0</ele><time>2026-04-10T08:06:21.618Z</time></trkpt><trkpt lat="41.8122593" lon="13.5534676"><ele>332.0</ele><time>2026-04-10T08:06:22.629Z</time></trkpt><trkpt lat="41.8124289" lon="13.5532241"><ele>332.0</ele><time>2026-04-10T08:06:23.632Z</time></trkpt><trkpt lat="41.8126143" lon="13.5529972"><ele>332.0</ele><time>2026-04-10T08:06:24.631Z</time></trkpt><trkpt lat="41.8127737" lon="13.5527387"><ele>335.0</ele><time>2026-04-10T08:06:25.646Z</time></trkpt><trkpt lat="41.8129327" lon="13.5524901"><ele>338.0</ele><time>2026-04-10T08:06:26.633Z</time></trkpt><trkpt lat="41.8130977" lon="13.5522358"><ele>338.0</ele><time>2026-04-10T08:06:27.629Z</time></trkpt><trkpt lat="41.8132582" lon="13.5519933"><ele>338.0</ele><time>2026-04-10T08:06:28.632Z</time></trkpt><trkpt lat="41.8134179" lon="13.5517482"><ele>340.5</ele><time>2026-04-10T08:06:29.642Z</time></trkpt><trkpt lat="41.8135813" lon="13.5515105"><ele>343.0</ele><time>2026-04-10T08:06:30.628Z</time></trkpt><trkpt lat="41.8137525" lon="13.5512844"><ele>343.0</ele><time>2026-04-10T08:06:31.627Z</time></trkpt><trkpt lat="41.8139161" lon="13.5510521"><ele>343.0</ele><time>2026-04-10T08:06:32.637Z</time></trkpt><trkpt lat="41.8140803" lon="13.5508202"><ele>343.0</ele><time>2026-04-10T08:06:33.62Z</time></trkpt><trkpt lat="41.8142448" lon="13.5506009"><ele>343.0</ele><time>2026-04-10T08:06:34.626Z</time></trkpt><trkpt lat="41.8144097" lon="13.5503602"><ele>342.0</ele><time>2026-04-10T08:06:35.625Z</time></trkpt><trkpt lat="41.8145867" lon="13.5501213"><ele>341.0</ele><time>2026-04-10T08:06:36.619Z</time></trkpt><trkpt lat="41.8147596" lon="13.5498705"><ele>341.0</ele><time>2026-04-10T08:06:37.623Z</time></trkpt><trkpt lat="41.8149346" lon="13.5496462"><ele>341.0</ele><time>2026-04-10T08:06:38.63Z</time></trkpt><trkpt lat="41.8151009" lon="13.5494467"><ele>339.0</ele><time>2026-04-10T08:06:39.622Z</time></trkpt><trkpt lat="41.8152718" lon="13.5492326"><ele>337.0</ele><time>2026-04-10T08:06:40.627Z</time></trkpt><trkpt lat="41.8154201" lon="13.5489843"><ele>337.0</ele><time>2026-04-10T08:06:41.627Z</time></trkpt><trkpt lat="41.8155774" lon="13.5487259"><ele>337.0</ele><time>2026-04-10T08:06:42.627Z</time></trkpt><trkpt lat="41.8157285" lon="13.5484704"><ele>339.0</ele><time>2026-04-10T08:06:43.635Z</time></trkpt><trkpt lat="41.815861" lon="13.548211"><ele>341.0</ele><time>2026-04-10T08:06:44.632Z</time></trkpt><trkpt lat="41.8159854" lon="13.5479256"><ele>343.0</ele><time>2026-04-10T08:06:45.632Z</time></trkpt><trkpt lat="41.8161152" lon="13.5476429"><ele>345.0</ele><time>2026-04-10T08:06:46.635Z</time></trkpt><trkpt lat="41.8162244" lon="13.5473583"><ele>345.0</ele><time>2026-04-10T08:06:47.641Z</time></trkpt><trkpt lat="41.8163246" lon="13.5470664"><ele>345.0</ele><time>2026-04-10T08:06:48.634Z</time></trkpt><trkpt lat="41.8164419" lon="13.5467764"><ele>350.0</ele><time>2026-04-10T08:06:49.626Z</time></trkpt><trkpt lat="41.8165357" lon="13.546455"><ele>355.0</ele><time>2026-04-10T08:06:50.626Z</time></trkpt><trkpt lat="41.8166" lon="13.5461175"><ele>358.0</ele><time>2026-04-10T08:06:51.633Z</time></trkpt><trkpt lat="41.8166488" lon="13.5457731"><ele>361.0</ele><time>2026-04-10T08:06:52.624Z</time></trkpt><trkpt lat="41.8166953" lon="13.5454304"><ele>363.5</ele><time>2026-04-10T08:06:53.623Z</time></trkpt><trkpt lat="41.8167363" lon="13.5450985"><ele>366.0</ele><time>2026-04-10T08:06:54.633Z</time></trkpt><trkpt lat="41.8167512" lon="13.5447615"><ele>369.0</ele><time>2026-04-10T08:06:55.637Z</time></trkpt><trkpt lat="41.8167802" lon="13.5444551"><ele>372.0</ele><time>2026-04-10T08:06:56.67Z</time></trkpt><trkpt lat="41.8167947" lon="13.5441215"><ele>373.5</ele><time>2026-04-10T08:06:57.638Z</time></trkpt><trkpt lat="41.8168291" lon="13.5437929"><ele>375.0</ele><time>2026-04-10T08:06:58.632Z</time></trkpt><trkpt lat="41.8168532" lon="13.5434618"><ele>375.0</ele><time>2026-04-10T08:06:59.623Z</time></trkpt><trkpt lat="41.8168883" lon="13.5431232"><ele>375.0</ele><time>2026-04-10T08:07:00.622Z</time></trkpt><trkpt lat="41.8169271" lon="13.542789"><ele>377.0</ele><time>2026-04-10T08:07:01.605Z</time></trkpt><trkpt lat="41.816974" lon="13.5424631"><ele>379.0</ele><time>2026-04-10T08:07:02.572Z</time></trkpt><trkpt lat="41.8170196" lon="13.5421392"><ele>377.5</ele><time>2026-04-10T08:07:03.563Z</time></trkpt><trkpt lat="41.8171359" lon="13.5417709"><ele>376.0</ele><time>2026-04-10T08:07:04.595Z</time></trkpt><trkpt lat="41.8172777" lon="13.5413622"><ele>378.0</ele><time>2026-04-10T08:07:05.612Z</time></trkpt><trkpt lat="41.8173959" lon="13.5410215"><ele>380.0</ele><time>2026-04-10T08:07:06.611Z</time></trkpt><trkpt lat="41.8175845" lon="13.5407945"><ele>376.0</ele><time>2026-04-10T08:07:07.618Z</time></trkpt><trkpt lat="41.8177848" lon="13.5405593"><ele>372.0</ele><time>2026-04-10T08:07:08.618Z</time></trkpt><trkpt lat="41.8179541" lon="13.5402878"><ele>372.0</ele><time>2026-04-10T08:07:09.628Z</time></trkpt><trkpt lat="41.8181241" lon="13.5400299"><ele>372.0</ele><time>2026-04-10T08:07:10.624Z</time></trkpt><trkpt lat="41.8182987" lon="13.5397874"><ele>369.5</ele><time>2026-04-10T08:07:11.63Z</time></trkpt><trkpt lat="41.8184938" lon="13.5395434"><ele>367.0</ele><time>2026-04-10T08:07:12.631Z</time></trkpt><trkpt lat="41.8187116" lon="13.5393269"><ele>367.0</ele><time>2026-04-10T08:07:13.632Z</time></trkpt><trkpt lat="41.8189475" lon="13.5391369"><ele>367.0</ele><time>2026-04-10T08:07:14.631Z</time></trkpt><trkpt lat="41.8191798" lon="13.5389486"><ele>363.0</ele><time>2026-04-10T08:07:15.632Z</time></trkpt><trkpt lat="41.8194355" lon="13.538796"><ele>359.0</ele><time>2026-04-10T08:07:16.632Z</time></trkpt><trkpt lat="41.8196997" lon="13.5386446"><ele>370.5</ele><time>2026-04-10T08:07:17.632Z</time></trkpt><trkpt lat="41.8199106" lon="13.5384979"><ele>382.0</ele><time>2026-04-10T08:07:18.628Z</time></trkpt><trkpt lat="41.8201281" lon="13.5383326"><ele>374.0</ele><time>2026-04-10T08:07:19.618Z</time></trkpt><trkpt lat="41.8203626" lon="13.5382261"><ele>366.0</ele><time>2026-04-10T08:07:20.606Z</time></trkpt><trkpt lat="41.8205825" lon="13.5381363"><ele>366.0</ele><time>2026-04-10T08:07:21.596Z</time></trkpt><trkpt lat="41.8209324" lon="13.5379492"><ele>366.0</ele><time>2026-04-10T08:07:22.597Z</time></trkpt><trkpt lat="41.8211253" lon="13.5377343"><ele>368.5</ele><time>2026-04-10T08:07:23.61Z</time></trkpt><trkpt lat="41.8213269" lon="13.5375404"><ele>371.0</ele><time>2026-04-10T08:07:24.616Z</time></trkpt><trkpt lat="41.821491" lon="13.5372991"><ele>371.0</ele><time>2026-04-10T08:07:25.614Z</time></trkpt><trkpt lat="41.8216267" lon="13.5370847"><ele>371.0</ele><time>2026-04-10T08:07:26.63Z</time></trkpt><trkpt lat="41.8217651" lon="13.5368535"><ele>371.0</ele><time>2026-04-10T08:07:27.616Z</time></trkpt><trkpt lat="41.8219159" lon="13.5366568"><ele>372.0</ele><time>2026-04-10T08:07:28.62Z</time></trkpt><trkpt lat="41.8220777" lon="13.5364559"><ele>373.0</ele><time>2026-04-10T08:07:29.634Z</time></trkpt><trkpt lat="41.8222116" lon="13.5362584"><ele>374.0</ele><time>2026-04-10T08:07:30.633Z</time></trkpt><trkpt lat="41.8223381" lon="13.5360923"><ele>374.0</ele><time>2026-04-10T08:07:31.638Z</time></trkpt><trkpt lat="41.8224669" lon="13.5359111"><ele>374.0</ele><time>2026-04-10T08:07:32.626Z</time></trkpt><trkpt lat="41.8226117" lon="13.5357528"><ele>374.0</ele><time>2026-04-10T08:07:33.623Z</time></trkpt><trkpt lat="41.8227316" lon="13.5355883"><ele>375.0</ele><time>2026-04-10T08:07:34.626Z</time></trkpt><trkpt lat="41.8228701" lon="13.5354491"><ele>376.0</ele><time>2026-04-10T08:07:35.623Z</time></trkpt><trkpt lat="41.8230331" lon="13.5352703"><ele>377.0</ele><time>2026-04-10T08:07:36.636Z</time></trkpt><trkpt lat="41.8232136" lon="13.5350635"><ele>377.0</ele><time>2026-04-10T08:07:37.619Z</time></trkpt><trkpt lat="41.8234029" lon="13.5348491"><ele>377.0</ele><time>2026-04-10T08:07:38.621Z</time></trkpt><trkpt lat="41.8235905" lon="13.5346201"><ele>376.5</ele><time>2026-04-10T08:07:39.619Z</time></trkpt><trkpt lat="41.8237825" lon="13.5343773"><ele>376.0</ele><time>2026-04-10T08:07:40.621Z</time></trkpt><trkpt lat="41.8239512" lon="13.5341237"><ele>376.0</ele><time>2026-04-10T08:07:41.622Z</time></trkpt><trkpt lat="41.8241351" lon="13.5339107"><ele>376.0</ele><time>2026-04-10T08:07:42.625Z</time></trkpt><trkpt lat="41.8242717" lon="13.5336293"><ele>378.5</ele><time>2026-04-10T08:07:43.616Z</time></trkpt><trkpt lat="41.8244289" lon="13.5333521"><ele>381.0</ele><time>2026-04-10T08:07:44.627Z</time></trkpt><trkpt lat="41.8246038" lon="13.5330995"><ele>384.0</ele><time>2026-04-10T08:07:45.625Z</time></trkpt><trkpt lat="41.8247501" lon="13.5328052"><ele>387.0</ele><time>2026-04-10T08:07:46.636Z</time></trkpt><trkpt lat="41.8248817" lon="13.5324792"><ele>387.0</ele><time>2026-04-10T08:07:47.631Z</time></trkpt><trkpt lat="41.8250306" lon="13.5322008"><ele>387.0</ele><time>2026-04-10T08:07:48.633Z</time></trkpt><trkpt lat="41.825142" lon="13.5318807"><ele>385.5</ele><time>2026-04-10T08:07:49.624Z</time></trkpt><trkpt lat="41.8252596" lon="13.5315919"><ele>384.0</ele><time>2026-04-10T08:07:50.631Z</time></trkpt><trkpt lat="41.8253432" lon="13.5312518"><ele>383.5</ele><time>2026-04-10T08:07:51.631Z</time></trkpt><trkpt lat="41.8254283" lon="13.5309389"><ele>383.0</ele><time>2026-04-10T08:07:52.63Z</time></trkpt><trkpt lat="41.825523" lon="13.5306282"><ele>382.5</ele><time>2026-04-10T08:07:53.633Z</time></trkpt><trkpt lat="41.8255903" lon="13.5303215"><ele>382.0</ele><time>2026-04-10T08:07:54.632Z</time></trkpt><trkpt lat="41.8256951" lon="13.5300158"><ele>382.0</ele><time>2026-04-10T08:07:55.64Z</time></trkpt><trkpt lat="41.8257879" lon="13.5296886"><ele>382.0</ele><time>2026-04-10T08:07:56.631Z</time></trkpt><trkpt lat="41.8258895" lon="13.5293809"><ele>379.5</ele><time>2026-04-10T08:07:57.65Z</time></trkpt><trkpt lat="41.8260059" lon="13.529084"><ele>377.0</ele><time>2026-04-10T08:07:58.639Z</time></trkpt><trkpt lat="41.8261254" lon="13.5287971"><ele>383.5</ele><time>2026-04-10T08:07:59.637Z</time></trkpt><trkpt lat="41.8262481" lon="13.5285193"><ele>390.0</ele><time>2026-04-10T08:08:00.638Z</time></trkpt><trkpt lat="41.8263849" lon="13.5282527"><ele>390.0</ele><time>2026-04-10T08:08:01.637Z</time></trkpt><trkpt lat="41.8265486" lon="13.5280003"><ele>390.0</ele><time>2026-04-10T08:08:02.624Z</time></trkpt><trkpt lat="41.8266996" lon="13.5277232"><ele>385.5</ele><time>2026-04-10T08:08:03.622Z</time></trkpt><trkpt lat="41.8268504" lon="13.5274659"><ele>381.0</ele><time>2026-04-10T08:08:04.625Z</time></trkpt><trkpt lat="41.8269911" lon="13.527209"><ele>387.0</ele><time>2026-04-10T08:08:05.636Z</time></trkpt><trkpt lat="41.8271565" lon="13.5269709"><ele>393.0</ele><time>2026-04-10T08:08:06.627Z</time></trkpt><trkpt lat="41.8273487" lon="13.5267466"><ele>393.0</ele><time>2026-04-10T08:08:07.638Z</time></trkpt><trkpt lat="41.8275358" lon="13.5265362"><ele>393.0</ele><time>2026-04-10T08:08:08.639Z</time></trkpt><trkpt lat="41.827729" lon="13.5263249"><ele>395.5</ele><time>2026-04-10T08:08:09.637Z</time></trkpt><trkpt lat="41.8279477" lon="13.5261516"><ele>398.0</ele><time>2026-04-10T08:08:10.629Z</time></trkpt><trkpt lat="41.828154" lon="13.5259513"><ele>398.0</ele><time>2026-04-10T08:08:11.639Z</time></trkpt><trkpt lat="41.8283389" lon="13.5257599"><ele>398.0</ele><time>2026-04-10T08:08:12.635Z</time></trkpt><trkpt lat="41.828538" lon="13.5255909"><ele>399.5</ele><time>2026-04-10T08:08:13.636Z</time></trkpt><trkpt lat="41.8287567" lon="13.525462"><ele>401.0</ele><time>2026-04-10T08:08:14.645Z</time></trkpt><trkpt lat="41.8289685" lon="13.5253155"><ele>401.0</ele><time>2026-04-10T08:08:15.661Z</time></trkpt><trkpt lat="41.8291868" lon="13.525179"><ele>401.0</ele><time>2026-04-10T08:08:16.648Z</time></trkpt><trkpt lat="41.8294122" lon="13.5250197"><ele>401.5</ele><time>2026-04-10T08:08:17.657Z</time></trkpt><trkpt lat="41.8296486" lon="13.5248809"><ele>402.0</ele><time>2026-04-10T08:08:18.641Z</time></trkpt><trkpt lat="41.8298777" lon="13.5247319"><ele>402.0</ele><time>2026-04-10T08:08:19.647Z</time></trkpt><trkpt lat="41.8301067" lon="13.5245723"><ele>402.0</ele><time>2026-04-10T08:08:20.643Z</time></trkpt><trkpt lat="41.8303317" lon="13.5244076"><ele>403.0</ele><time>2026-04-10T08:08:21.646Z</time></trkpt><trkpt lat="41.8305515" lon="13.5242192"><ele>404.0</ele><time>2026-04-10T08:08:22.643Z</time></trkpt><trkpt lat="41.8307656" lon="13.5240512"><ele>404.0</ele><time>2026-04-10T08:08:23.649Z</time></trkpt><trkpt lat="41.8309578" lon="13.5238691"><ele>404.0</ele><time>2026-04-10T08:08:24.647Z</time></trkpt><trkpt lat="41.8311525" lon="13.5236827"><ele>405.0</ele><time>2026-04-10T08:08:25.657Z</time></trkpt><trkpt lat="41.8313505" lon="13.5234807"><ele>406.0</ele><time>2026-04-10T08:08:26.648Z</time></trkpt><trkpt lat="41.8315508" lon="13.5232677"><ele>406.0</ele><time>2026-04-10T08:08:27.645Z</time></trkpt><trkpt lat="41.8317417" lon="13.523021"><ele>406.0</ele><time>2026-04-10T08:08:28.665Z</time></trkpt><trkpt lat="41.8319323" lon="13.522799"><ele>406.5</ele><time>2026-04-10T08:08:29.652Z</time></trkpt><trkpt lat="41.8321041" lon="13.5225424"><ele>407.0</ele><time>2026-04-10T08:08:30.649Z</time></trkpt><trkpt lat="41.8322777" lon="13.5222889"><ele>407.0</ele><time>2026-04-10T08:08:31.674Z</time></trkpt><trkpt lat="41.832486" lon="13.5220699"><ele>407.0</ele><time>2026-04-10T08:08:32.65Z</time></trkpt><trkpt lat="41.8326711" lon="13.5218277"><ele>406.5</ele><time>2026-04-10T08:08:33.648Z</time></trkpt><trkpt lat="41.8328639" lon="13.5215969"><ele>406.0</ele><time>2026-04-10T08:08:34.651Z</time></trkpt><trkpt lat="41.833067" lon="13.5213625"><ele>409.5</ele><time>2026-04-10T08:08:35.654Z</time></trkpt><trkpt lat="41.8332632" lon="13.5211019"><ele>413.0</ele><time>2026-04-10T08:08:36.65Z</time></trkpt><trkpt lat="41.8334425" lon="13.5208363"><ele>411.0</ele><time>2026-04-10T08:08:37.646Z</time></trkpt><trkpt lat="41.8336371" lon="13.5206061"><ele>409.0</ele><time>2026-04-10T08:08:38.652Z</time></trkpt><trkpt lat="41.8338273" lon="13.5203659"><ele>409.0</ele><time>2026-04-10T08:08:39.654Z</time></trkpt><trkpt lat="41.8340038" lon="13.5201251"><ele>409.0</ele><time>2026-04-10T08:08:40.654Z</time></trkpt><trkpt lat="41.8341981" lon="13.5198837"><ele>405.5</ele><time>2026-04-10T08:08:41.641Z</time></trkpt><trkpt lat="41.8343795" lon="13.5196336"><ele>402.0</ele><time>2026-04-10T08:08:42.651Z</time></trkpt><trkpt lat="41.8345584" lon="13.5194108"><ele>402.0</ele><time>2026-04-10T08:08:43.652Z</time></trkpt><trkpt lat="41.8347561" lon="13.5191793"><ele>402.0</ele><time>2026-04-10T08:08:44.648Z</time></trkpt><trkpt lat="41.8349581" lon="13.5189402"><ele>400.0</ele><time>2026-04-10T08:08:45.662Z</time></trkpt><trkpt lat="41.8351511" lon="13.5186961"><ele>398.0</ele><time>2026-04-10T08:08:46.641Z</time></trkpt><trkpt lat="41.835324" lon="13.5184726"><ele>398.0</ele><time>2026-04-10T08:08:47.637Z</time></trkpt><trkpt lat="41.8355012" lon="13.5182346"><ele>398.0</ele><time>2026-04-10T08:08:48.626Z</time></trkpt><trkpt lat="41.8356782" lon="13.5179941"><ele>405.5</ele><time>2026-04-10T08:08:49.607Z</time></trkpt><trkpt lat="41.8358383" lon="13.5177384"><ele>413.0</ele><time>2026-04-10T08:08:50.594Z</time></trkpt><trkpt lat="41.835887" lon="13.5174606"><ele>406.5</ele><time>2026-04-10T08:08:51.614Z</time></trkpt><trkpt lat="41.8361386" lon="13.5171781"><ele>400.0</ele><time>2026-04-10T08:08:52.63Z</time></trkpt><trkpt lat="41.8363427" lon="13.5169104"><ele>400.0</ele><time>2026-04-10T08:08:53.636Z</time></trkpt><trkpt lat="41.8364948" lon="13.516627"><ele>400.0</ele><time>2026-04-10T08:08:54.635Z</time></trkpt><trkpt lat="41.8366511" lon="13.5163534"><ele>394.5</ele><time>2026-04-10T08:08:55.65Z</time></trkpt><trkpt lat="41.836811" lon="13.5160678"><ele>389.0</ele><time>2026-04-10T08:08:56.653Z</time></trkpt><trkpt lat="41.8369714" lon="13.5157803"><ele>389.0</ele><time>2026-04-10T08:08:57.647Z</time></trkpt><trkpt lat="41.8371306" lon="13.5155156"><ele>389.0</ele><time>2026-04-10T08:08:58.647Z</time></trkpt><trkpt lat="41.8373066" lon="13.515283"><ele>391.0</ele><time>2026-04-10T08:08:59.66Z</time></trkpt><trkpt lat="41.8374798" lon="13.5150189"><ele>393.0</ele><time>2026-04-10T08:09:00.655Z</time></trkpt><trkpt lat="41.8376472" lon="13.5147691"><ele>391.5</ele><time>2026-04-10T08:09:01.654Z</time></trkpt><trkpt lat="41.8378152" lon="13.5145348"><ele>390.0</ele><time>2026-04-10T08:09:02.645Z</time></trkpt><trkpt lat="41.8379789" lon="13.5142768"><ele>390.0</ele><time>2026-04-10T08:09:03.651Z</time></trkpt><trkpt lat="41.8381364" lon="13.5140042"><ele>390.0</ele><time>2026-04-10T08:09:04.653Z</time></trkpt><trkpt lat="41.8382997" lon="13.5137247"><ele>387.0</ele><time>2026-04-10T08:09:05.658Z</time></trkpt><trkpt lat="41.838497" lon="13.5134952"><ele>384.0</ele><time>2026-04-10T08:09:06.648Z</time></trkpt><trkpt lat="41.8386941" lon="13.5132686"><ele>384.0</ele><time>2026-04-10T08:09:07.646Z</time></trkpt><trkpt lat="41.8389026" lon="13.5130485"><ele>384.0</ele><time>2026-04-10T08:09:08.653Z</time></trkpt><trkpt lat="41.8391051" lon="13.5128338"><ele>384.0</ele><time>2026-04-10T08:09:09.652Z</time></trkpt><trkpt lat="41.8393088" lon="13.5126277"><ele>384.0</ele><time>2026-04-10T08:09:10.653Z</time></trkpt><trkpt lat="41.839508" lon="13.5124398"><ele>384.0</ele><time>2026-04-10T08:09:11.648Z</time></trkpt><trkpt lat="41.8396947" lon="13.5122335"><ele>384.0</ele><time>2026-04-10T08:09:12.657Z</time></trkpt><trkpt lat="41.8398769" lon="13.5120197"><ele>384.5</ele><time>2026-04-10T08:09:13.65Z</time></trkpt><trkpt lat="41.8400843" lon="13.5118127"><ele>385.0</ele><time>2026-04-10T08:09:14.65Z</time></trkpt><trkpt lat="41.8402728" lon="13.5116169"><ele>385.0</ele><time>2026-04-10T08:09:15.664Z</time></trkpt><trkpt lat="41.8404727" lon="13.511417"><ele>385.0</ele><time>2026-04-10T08:09:16.659Z</time></trkpt><trkpt lat="41.8406838" lon="13.5112186"><ele>385.0</ele><time>2026-04-10T08:09:17.656Z</time></trkpt><trkpt lat="41.84089" lon="13.5110339"><ele>385.0</ele><time>2026-04-10T08:09:18.657Z</time></trkpt><trkpt lat="41.8410487" lon="13.5108178"><ele>385.0</ele><time>2026-04-10T08:09:19.645Z</time></trkpt><trkpt lat="41.8412768" lon="13.5106169"><ele>385.0</ele><time>2026-04-10T08:09:20.647Z</time></trkpt><trkpt lat="41.8414595" lon="13.5104099"><ele>385.0</ele><time>2026-04-10T08:09:21.649Z</time></trkpt><trkpt lat="41.8416751" lon="13.5101995"><ele>385.0</ele><time>2026-04-10T08:09:22.655Z</time></trkpt><trkpt lat="41.8418953" lon="13.5100078"><ele>385.0</ele><time>2026-04-10T08:09:23.658Z</time></trkpt><trkpt lat="41.8421031" lon="13.5098057"><ele>385.0</ele><time>2026-04-10T08:09:24.654Z</time></trkpt><trkpt lat="41.8423014" lon="13.5095741"><ele>386.0</ele><time>2026-04-10T08:09:25.666Z</time></trkpt><trkpt lat="41.8424977" lon="13.5093631"><ele>387.0</ele><time>2026-04-10T08:09:26.655Z</time></trkpt><trkpt lat="41.8426777" lon="13.5091624"><ele>387.0</ele><time>2026-04-10T08:09:27.653Z</time></trkpt><trkpt lat="41.8428458" lon="13.5089328"><ele>387.0</ele><time>2026-04-10T08:09:28.657Z</time></trkpt><trkpt lat="41.8430437" lon="13.5087143"><ele>391.5</ele><time>2026-04-10T08:09:29.656Z</time></trkpt><trkpt lat="41.8432108" lon="13.5084785"><ele>396.0</ele><time>2026-04-10T08:09:30.676Z</time></trkpt><trkpt lat="41.8433996" lon="13.5082131"><ele>396.0</ele><time>2026-04-10T08:09:31.656Z</time></trkpt><trkpt lat="41.8436012" lon="13.5079751"><ele>396.0</ele><time>2026-04-10T08:09:32.65Z</time></trkpt><trkpt lat="41.8437539" lon="13.5077141"><ele>396.0</ele><time>2026-04-10T08:09:33.65Z</time></trkpt><trkpt lat="41.8438728" lon="13.5074617"><ele>396.0</ele><time>2026-04-10T08:09:34.657Z</time></trkpt><trkpt lat="41.8440054" lon="13.5072198"><ele>396.0</ele><time>2026-04-10T08:09:35.658Z</time></trkpt><trkpt lat="41.8441207" lon="13.5069862"><ele>398.0</ele><time>2026-04-10T08:09:36.652Z</time></trkpt><trkpt lat="41.8442304" lon="13.5067717"><ele>400.0</ele><time>2026-04-10T08:09:37.648Z</time></trkpt><trkpt lat="41.8443423" lon="13.5065478"><ele>402.0</ele><time>2026-04-10T08:09:38.649Z</time></trkpt><trkpt lat="41.8444677" lon="13.5063228"><ele>397.66666666666663</ele><time>2026-04-10T08:09:39.654Z</time></trkpt><trkpt lat="41.8445671" lon="13.5060896"><ele>393.3333333333333</ele><time>2026-04-10T08:09:40.657Z</time></trkpt><trkpt lat="41.8446367" lon="13.5058607"><ele>389.0</ele><time>2026-04-10T08:09:41.643Z</time></trkpt><trkpt lat="41.8447399" lon="13.5056382"><ele>389.66666666666663</ele><time>2026-04-10T08:09:42.654Z</time></trkpt><trkpt lat="41.8448365" lon="13.5053897"><ele>390.33333333333337</ele><time>2026-04-10T08:09:43.652Z</time></trkpt><trkpt lat="41.8449286" lon="13.5051801"><ele>391.0</ele><time>2026-04-10T08:09:44.652Z</time></trkpt><trkpt lat="41.8450358" lon="13.5049438"><ele>391.0</ele><time>2026-04-10T08:09:45.651Z</time></trkpt><trkpt lat="41.8451268" lon="13.5047291"><ele>391.0</ele><time>2026-04-10T08:09:46.654Z</time></trkpt><trkpt lat="41.8452225" lon="13.5045098"><ele>391.0</ele><time>2026-04-10T08:09:47.67Z</time></trkpt><trkpt lat="41.845325" lon="13.5042907"><ele>394.33333333333337</ele><time>2026-04-10T08:09:48.657Z</time></trkpt><trkpt lat="41.8454385" lon="13.5040454"><ele>397.66666666666663</ele><time>2026-04-10T08:09:49.649Z</time></trkpt><trkpt lat="41.8455355" lon="13.5038143"><ele>401.0</ele><time>2026-04-10T08:09:50.648Z</time></trkpt><trkpt lat="41.8456487" lon="13.5036091"><ele>401.0</ele><time>2026-04-10T08:09:51.656Z</time></trkpt><trkpt lat="41.84574" lon="13.5033837"><ele>401.0</ele><time>2026-04-10T08:09:52.649Z</time></trkpt><trkpt lat="41.8458444" lon="13.5031868"><ele>401.0</ele><time>2026-04-10T08:09:53.648Z</time></trkpt><trkpt lat="41.845951" lon="13.5029853"><ele>405.66666666666663</ele><time>2026-04-10T08:09:54.651Z</time></trkpt><trkpt lat="41.8460408" lon="13.502777"><ele>410.33333333333337</ele><time>2026-04-10T08:09:55.653Z</time></trkpt><trkpt lat="41.8461414" lon="13.5025576"><ele>415.0</ele><time>2026-04-10T08:09:56.657Z</time></trkpt><trkpt lat="41.846243" lon="13.502341"><ele>415.0</ele><time>2026-04-10T08:09:57.66Z</time></trkpt><trkpt lat="41.8463582" lon="13.5021503"><ele>415.0</ele><time>2026-04-10T08:09:58.657Z</time></trkpt><trkpt lat="41.8464403" lon="13.5019408"><ele>415.0</ele><time>2026-04-10T08:09:59.656Z</time></trkpt><trkpt lat="41.8465475" lon="13.5017286"><ele>414.0</ele><time>2026-04-10T08:10:00.659Z</time></trkpt><trkpt lat="41.8466384" lon="13.501491"><ele>413.0</ele><time>2026-04-10T08:10:01.677Z</time></trkpt><trkpt lat="41.8467461" lon="13.501285"><ele>412.0</ele><time>2026-04-10T08:10:02.649Z</time></trkpt><trkpt lat="41.8468332" lon="13.5010665"><ele>412.0</ele><time>2026-04-10T08:10:03.651Z</time></trkpt><trkpt lat="41.8469211" lon="13.5008726"><ele>412.0</ele><time>2026-04-10T08:10:04.652Z</time></trkpt><trkpt lat="41.8469954" lon="13.500639"><ele>412.0</ele><time>2026-04-10T08:10:05.65Z</time></trkpt><trkpt lat="41.8470954" lon="13.5005097"><ele>409.6666666666667</ele><time>2026-04-10T08:10:06.653Z</time></trkpt><trkpt lat="41.8471733" lon="13.5003102"><ele>407.33333333333337</ele><time>2026-04-10T08:10:07.663Z</time></trkpt><trkpt lat="41.8472657" lon="13.5000768"><ele>405.0</ele><time>2026-04-10T08:10:08.652Z</time></trkpt><trkpt lat="41.8473427" lon="13.4998647"><ele>405.0</ele><time>2026-04-10T08:10:09.654Z</time></trkpt><trkpt lat="41.8474284" lon="13.4996542"><ele>405.0</ele><time>2026-04-10T08:10:10.653Z</time></trkpt><trkpt lat="41.8475018" lon="13.4994133"><ele>405.0</ele><time>2026-04-10T08:10:11.651Z</time></trkpt><trkpt lat="41.8475791" lon="13.4991995"><ele>405.33333333333337</ele><time>2026-04-10T08:10:12.651Z</time></trkpt><trkpt lat="41.8476515" lon="13.498966"><ele>405.6666666666667</ele><time>2026-04-10T08:10:13.658Z</time></trkpt><trkpt lat="41.8477522" lon="13.4987571"><ele>406.0</ele><time>2026-04-10T08:10:14.659Z</time></trkpt><trkpt lat="41.8478344" lon="13.4985397"><ele>405.33333333333337</ele><time>2026-04-10T08:10:15.659Z</time></trkpt><trkpt lat="41.8479345" lon="13.498357"><ele>404.66666666666663</ele><time>2026-04-10T08:10:16.659Z</time></trkpt><trkpt lat="41.8480366" lon="13.4981941"><ele>404.0</ele><time>2026-04-10T08:10:17.667Z</time></trkpt><trkpt lat="41.8481181" lon="13.4979936"><ele>403.66666666666663</ele><time>2026-04-10T08:10:18.656Z</time></trkpt><trkpt lat="41.8482263" lon="13.4977991"><ele>403.33333333333337</ele><time>2026-04-10T08:10:19.655Z</time></trkpt><trkpt lat="41.8483276" lon="13.4976209"><ele>403.0</ele><time>2026-04-10T08:10:20.654Z</time></trkpt><trkpt lat="41.8484379" lon="13.4974284"><ele>404.33333333333337</ele><time>2026-04-10T08:10:21.654Z</time></trkpt><trkpt lat="41.848526" lon="13.4972149"><ele>405.66666666666663</ele><time>2026-04-10T08:10:22.653Z</time></trkpt><trkpt lat="41.8486318" lon="13.4969913"><ele>407.0</ele><time>2026-04-10T08:10:23.65Z</time></trkpt><trkpt lat="41.8487522" lon="13.4967802"><ele>407.0</ele><time>2026-04-10T08:10:24.657Z</time></trkpt><trkpt lat="41.8488459" lon="13.4965295"><ele>407.0</ele><time>2026-04-10T08:10:25.647Z</time></trkpt><trkpt lat="41.8489865" lon="13.4963144"><ele>407.0</ele><time>2026-04-10T08:10:26.654Z</time></trkpt><trkpt lat="41.8490687" lon="13.4961605"><ele>406.0</ele><time>2026-04-10T08:10:27.661Z</time></trkpt><trkpt lat="41.8491517" lon="13.4959609"><ele>405.0</ele><time>2026-04-10T08:10:28.658Z</time></trkpt><trkpt lat="41.8492539" lon="13.4957719"><ele>404.0</ele><time>2026-04-10T08:10:29.653Z</time></trkpt><trkpt lat="41.8493128" lon="13.4955515"><ele>405.66666666666663</ele><time>2026-04-10T08:10:30.663Z</time></trkpt><trkpt lat="41.8494039" lon="13.4953998"><ele>407.33333333333337</ele><time>2026-04-10T08:10:31.662Z</time></trkpt><trkpt lat="41.8494627" lon="13.495169"><ele>409.0</ele><time>2026-04-10T08:10:32.668Z</time></trkpt><trkpt lat="41.8495462" lon="13.4949724"><ele>409.0</ele><time>2026-04-10T08:10:33.649Z</time></trkpt><trkpt lat="41.8496189" lon="13.4947134"><ele>409.0</ele><time>2026-04-10T08:10:34.65Z</time></trkpt><trkpt lat="41.8497034" lon="13.4945003"><ele>409.0</ele><time>2026-04-10T08:10:35.649Z</time></trkpt><trkpt lat="41.8497501" lon="13.4942529"><ele>408.5</ele><time>2026-04-10T08:10:36.648Z</time></trkpt><trkpt lat="41.8498416" lon="13.4940492"><ele>408.0</ele><time>2026-04-10T08:10:37.661Z</time></trkpt><trkpt lat="41.8499914" lon="13.4935515"><ele>407.66666666666663</ele><time>2026-04-10T08:10:39.651Z</time></trkpt><trkpt lat="41.8500727" lon="13.493276"><ele>407.3333333333333</ele><time>2026-04-10T08:10:40.654Z</time></trkpt><trkpt lat="41.8501416" lon="13.4930331"><ele>407.0</ele><time>2026-04-10T08:10:41.647Z</time></trkpt><trkpt lat="41.850215" lon="13.4927859"><ele>408.66666666666663</ele><time>2026-04-10T08:10:42.654Z</time></trkpt><trkpt lat="41.8502928" lon="13.4925435"><ele>410.33333333333337</ele><time>2026-04-10T08:10:43.656Z</time></trkpt><trkpt lat="41.8503744" lon="13.4922725"><ele>412.0</ele><time>2026-04-10T08:10:44.656Z</time></trkpt><trkpt lat="41.8504663" lon="13.4919844"><ele>412.0</ele><time>2026-04-10T08:10:45.654Z</time></trkpt><trkpt lat="41.8505389" lon="13.4917518"><ele>412.0</ele><time>2026-04-10T08:10:46.655Z</time></trkpt><trkpt lat="41.8506" lon="13.4914821"><ele>412.0</ele><time>2026-04-10T08:10:47.665Z</time></trkpt><trkpt lat="41.8506671" lon="13.4912416"><ele>411.33333333333337</ele><time>2026-04-10T08:10:48.669Z</time></trkpt><trkpt lat="41.8507381" lon="13.4910177"><ele>410.66666666666663</ele><time>2026-04-10T08:10:49.668Z</time></trkpt><trkpt lat="41.8507948" lon="13.4908041"><ele>410.0</ele><time>2026-04-10T08:10:50.667Z</time></trkpt><trkpt lat="41.8508612" lon="13.4905691"><ele>409.3333333333333</ele><time>2026-04-10T08:10:51.663Z</time></trkpt><trkpt lat="41.8509391" lon="13.4903486"><ele>408.66666666666663</ele><time>2026-04-10T08:10:52.658Z</time></trkpt><trkpt lat="41.8510124" lon="13.4901276"><ele>408.0</ele><time>2026-04-10T08:10:53.662Z</time></trkpt><trkpt lat="41.8511179" lon="13.4899317"><ele>410.0</ele><time>2026-04-10T08:10:54.652Z</time></trkpt><trkpt lat="41.8512399" lon="13.4897277"><ele>412.0</ele><time>2026-04-10T08:10:55.653Z</time></trkpt><trkpt lat="41.8513538" lon="13.4895528"><ele>414.0</ele><time>2026-04-10T08:10:56.657Z</time></trkpt><trkpt lat="41.85145" lon="13.4893802"><ele>414.0</ele><time>2026-04-10T08:10:57.664Z</time></trkpt><trkpt lat="41.8515492" lon="13.4891768"><ele>414.0</ele><time>2026-04-10T08:10:58.653Z</time></trkpt><trkpt lat="41.851663" lon="13.4890006"><ele>414.0</ele><time>2026-04-10T08:10:59.656Z</time></trkpt><trkpt lat="41.8517824" lon="13.4888124"><ele>414.66666666666663</ele><time>2026-04-10T08:11:00.668Z</time></trkpt><trkpt lat="41.8519055" lon="13.4886495"><ele>415.3333333333333</ele><time>2026-04-10T08:11:01.672Z</time></trkpt><trkpt lat="41.8520332" lon="13.4884803"><ele>416.0</ele><time>2026-04-10T08:11:02.659Z</time></trkpt><trkpt lat="41.8521873" lon="13.4883071"><ele>416.0</ele><time>2026-04-10T08:11:03.68Z</time></trkpt><trkpt lat="41.8523385" lon="13.4881618"><ele>416.0</ele><time>2026-04-10T08:11:04.669Z</time></trkpt><trkpt lat="41.8524944" lon="13.4880332"><ele>416.0</ele><time>2026-04-10T08:11:05.661Z</time></trkpt><trkpt lat="41.8526443" lon="13.4879108"><ele>415.66666666666663</ele><time>2026-04-10T08:11:06.667Z</time></trkpt><trkpt lat="41.8527968" lon="13.4877945"><ele>415.33333333333337</ele><time>2026-04-10T08:11:07.674Z</time></trkpt><trkpt lat="41.8529565" lon="13.4876886"><ele>415.0</ele><time>2026-04-10T08:11:08.666Z</time></trkpt><trkpt lat="41.8531267" lon="13.4875531"><ele>415.0</ele><time>2026-04-10T08:11:09.663Z</time></trkpt><trkpt lat="41.8532686" lon="13.4874094"><ele>415.0</ele><time>2026-04-10T08:11:10.659Z</time></trkpt><trkpt lat="41.8534033" lon="13.4872855"><ele>415.0</ele><time>2026-04-10T08:11:11.66Z</time></trkpt><trkpt lat="41.8535325" lon="13.4871274"><ele>412.33333333333337</ele><time>2026-04-10T08:11:12.66Z</time></trkpt><trkpt lat="41.8536536" lon="13.4869494"><ele>409.66666666666663</ele><time>2026-04-10T08:11:13.663Z</time></trkpt><trkpt lat="41.8537752" lon="13.4867543"><ele>407.0</ele><time>2026-04-10T08:11:14.654Z</time></trkpt><trkpt lat="41.8539117" lon="13.4865694"><ele>407.0</ele><time>2026-04-10T08:11:15.664Z</time></trkpt><trkpt lat="41.8540523" lon="13.4863842"><ele>407.0</ele><time>2026-04-10T08:11:16.671Z</time></trkpt><trkpt lat="41.8541708" lon="13.4861911"><ele>407.0</ele><time>2026-04-10T08:11:17.685Z</time></trkpt><trkpt lat="41.8542943" lon="13.4860031"><ele>407.3333333333333</ele><time>2026-04-10T08:11:18.672Z</time></trkpt><trkpt lat="41.8543981" lon="13.4857984"><ele>407.66666666666663</ele><time>2026-04-10T08:11:19.668Z</time></trkpt><trkpt lat="41.8545037" lon="13.4855778"><ele>408.0</ele><time>2026-04-10T08:11:20.669Z</time></trkpt><trkpt lat="41.8546126" lon="13.4853628"><ele>409.0</ele><time>2026-04-10T08:11:21.672Z</time></trkpt><trkpt lat="41.8547192" lon="13.4851255"><ele>410.0</ele><time>2026-04-10T08:11:22.667Z</time></trkpt><trkpt lat="41.8548104" lon="13.4848409"><ele>411.0</ele><time>2026-04-10T08:11:23.661Z</time></trkpt><trkpt lat="41.8549018" lon="13.4845265"><ele>410.0</ele><time>2026-04-10T08:11:24.667Z</time></trkpt><trkpt lat="41.8551612" lon="13.4838898"><ele>410.5</ele><time>2026-04-10T08:11:26.666Z</time></trkpt><trkpt lat="41.8552765" lon="13.4835155"><ele>411.0</ele><time>2026-04-10T08:11:27.669Z</time></trkpt><trkpt lat="41.8553993" lon="13.4832165"><ele>410.0</ele><time>2026-04-10T08:11:28.662Z</time></trkpt><trkpt lat="41.8555268" lon="13.4828714"><ele>409.0</ele><time>2026-04-10T08:11:29.663Z</time></trkpt><trkpt lat="41.8556407" lon="13.4825142"><ele>409.0</ele><time>2026-04-10T08:11:30.666Z</time></trkpt><trkpt lat="41.8557527" lon="13.4821755"><ele>409.0</ele><time>2026-04-10T08:11:31.671Z</time></trkpt><trkpt lat="41.8558676" lon="13.481822"><ele>414.0</ele><time>2026-04-10T08:11:32.664Z</time></trkpt><trkpt lat="41.8559547" lon="13.4814711"><ele>419.0</ele><time>2026-04-10T08:11:33.664Z</time></trkpt><trkpt lat="41.8560196" lon="13.4811319"><ele>419.0</ele><time>2026-04-10T08:11:34.706Z</time></trkpt><trkpt lat="41.8560836" lon="13.4807737"><ele>419.0</ele><time>2026-04-10T08:11:35.668Z</time></trkpt><trkpt lat="41.8561542" lon="13.4804277"><ele>419.0</ele><time>2026-04-10T08:11:36.671Z</time></trkpt><trkpt lat="41.8562078" lon="13.4800883"><ele>419.0</ele><time>2026-04-10T08:11:37.683Z</time></trkpt><trkpt lat="41.856251" lon="13.4797437"><ele>421.5</ele><time>2026-04-10T08:11:38.668Z</time></trkpt><trkpt lat="41.8562956" lon="13.4793939"><ele>424.0</ele><time>2026-04-10T08:11:39.672Z</time></trkpt><trkpt lat="41.8563218" lon="13.4790227"><ele>426.5</ele><time>2026-04-10T08:11:40.674Z</time></trkpt><trkpt lat="41.8563694" lon="13.4786963"><ele>429.0</ele><time>2026-04-10T08:11:41.668Z</time></trkpt><trkpt lat="41.856405" lon="13.478366"><ele>429.0</ele><time>2026-04-10T08:11:42.678Z</time></trkpt><trkpt lat="41.8564682" lon="13.4780253"><ele>429.0</ele><time>2026-04-10T08:11:43.672Z</time></trkpt><trkpt lat="41.8565126" lon="13.4776719"><ele>431.5</ele><time>2026-04-10T08:11:44.676Z</time></trkpt><trkpt lat="41.8565551" lon="13.4773275"><ele>434.0</ele><time>2026-04-10T08:11:45.673Z</time></trkpt><trkpt lat="41.8566088" lon="13.4769846"><ele>436.0</ele><time>2026-04-10T08:11:46.671Z</time></trkpt><trkpt lat="41.8566707" lon="13.4766517"><ele>438.0</ele><time>2026-04-10T08:11:47.682Z</time></trkpt><trkpt lat="41.856722" lon="13.4762961"><ele>437.0</ele><time>2026-04-10T08:11:48.678Z</time></trkpt><trkpt lat="41.8567739" lon="13.4759313"><ele>436.0</ele><time>2026-04-10T08:11:49.675Z</time></trkpt><trkpt lat="41.8568425" lon="13.4756155"><ele>436.5</ele><time>2026-04-10T08:11:50.667Z</time></trkpt><trkpt lat="41.856908" lon="13.4752723"><ele>437.0</ele><time>2026-04-10T08:11:51.671Z</time></trkpt><trkpt lat="41.8569673" lon="13.4749194"><ele>437.5</ele><time>2026-04-10T08:11:52.669Z</time></trkpt><trkpt lat="41.8570162" lon="13.4745731"><ele>438.0</ele><time>2026-04-10T08:11:53.669Z</time></trkpt><trkpt lat="41.8570818" lon="13.4742316"><ele>438.0</ele><time>2026-04-10T08:11:54.676Z</time></trkpt><trkpt lat="41.8571616" lon="13.4738871"><ele>438.0</ele><time>2026-04-10T08:11:55.671Z</time></trkpt><trkpt lat="41.857239" lon="13.4735297"><ele>438.0</ele><time>2026-04-10T08:11:56.669Z</time></trkpt><trkpt lat="41.8573334" lon="13.4731633"><ele>438.0</ele><time>2026-04-10T08:11:57.674Z</time></trkpt><trkpt lat="41.8574372" lon="13.4728133"><ele>426.0</ele><time>2026-04-10T08:11:58.674Z</time></trkpt><trkpt lat="41.8576672" lon="13.4721642"><ele>431.0</ele><time>2026-04-10T08:12:00.677Z</time></trkpt><trkpt lat="41.8578036" lon="13.4718618"><ele>436.0</ele><time>2026-04-10T08:12:01.672Z</time></trkpt><trkpt lat="41.8579282" lon="13.4715524"><ele>442.5</ele><time>2026-04-10T08:12:02.666Z</time></trkpt><trkpt lat="41.8580902" lon="13.4712552"><ele>449.0</ele><time>2026-04-10T08:12:03.664Z</time></trkpt><trkpt lat="41.858243" lon="13.4709449"><ele>449.0</ele><time>2026-04-10T08:12:04.681Z</time></trkpt><trkpt lat="41.858427" lon="13.4706579"><ele>449.0</ele><time>2026-04-10T08:12:05.664Z</time></trkpt><trkpt lat="41.8586133" lon="13.470376"><ele>447.5</ele><time>2026-04-10T08:12:06.666Z</time></trkpt><trkpt lat="41.8588042" lon="13.4701208"><ele>446.0</ele><time>2026-04-10T08:12:07.668Z</time></trkpt><trkpt lat="41.8590131" lon="13.469858"><ele>446.0</ele><time>2026-04-10T08:12:08.663Z</time></trkpt><trkpt lat="41.8592448" lon="13.4696317"><ele>446.0</ele><time>2026-04-10T08:12:09.66Z</time></trkpt><trkpt lat="41.8594795" lon="13.4693933"><ele>452.5</ele><time>2026-04-10T08:12:10.655Z</time></trkpt><trkpt lat="41.8596847" lon="13.4691854"><ele>459.0</ele><time>2026-04-10T08:12:11.644Z</time></trkpt><trkpt lat="41.8599054" lon="13.468971"><ele>466.5</ele><time>2026-04-10T08:12:12.631Z</time></trkpt><trkpt lat="41.8601224" lon="13.4687435"><ele>474.0</ele><time>2026-04-10T08:12:13.625Z</time></trkpt><trkpt lat="41.8603586" lon="13.4685209"><ele>474.0</ele><time>2026-04-10T08:12:14.625Z</time></trkpt><trkpt lat="41.8605575" lon="13.4683331"><ele>474.0</ele><time>2026-04-10T08:12:15.605Z</time></trkpt><trkpt lat="41.8607715" lon="13.468102"><ele>435.0</ele><time>2026-04-10T08:12:16.584Z</time></trkpt><trkpt lat="41.8628934" lon="13.4667372"><ele>435.0</ele><time>2026-04-10T08:12:24.64Z</time></trkpt><trkpt lat="41.8631722" lon="13.4665721"><ele>435.0</ele><time>2026-04-10T08:12:25.638Z</time></trkpt><trkpt lat="41.8634664" lon="13.4663836"><ele>433.0</ele><time>2026-04-10T08:12:26.656Z</time></trkpt><trkpt lat="41.8637293" lon="13.4662262"><ele>431.0</ele><time>2026-04-10T08:12:27.658Z</time></trkpt><trkpt lat="41.8639756" lon="13.4660559"><ele>431.0</ele><time>2026-04-10T08:12:28.66Z</time></trkpt><trkpt lat="41.8642256" lon="13.4658758"><ele>431.0</ele><time>2026-04-10T08:12:29.666Z</time></trkpt><trkpt lat="41.8644762" lon="13.4657037"><ele>439.5</ele><time>2026-04-10T08:12:30.671Z</time></trkpt><trkpt lat="41.8647393" lon="13.4655068"><ele>448.0</ele><time>2026-04-10T08:12:31.673Z</time></trkpt><trkpt lat="41.8649878" lon="13.4653235"><ele>457.5</ele><time>2026-04-10T08:12:32.67Z</time></trkpt><trkpt lat="41.8652376" lon="13.4651491"><ele>467.0</ele><time>2026-04-10T08:12:33.677Z</time></trkpt><trkpt lat="41.8655033" lon="13.4649849"><ele>467.0</ele><time>2026-04-10T08:12:34.674Z</time></trkpt><trkpt lat="41.8657462" lon="13.4648212"><ele>467.0</ele><time>2026-04-10T08:12:35.679Z</time></trkpt><trkpt lat="41.8660044" lon="13.4646653"><ele>473.5</ele><time>2026-04-10T08:12:36.655Z</time></trkpt><trkpt lat="41.8662667" lon="13.4645064"><ele>480.0</ele><time>2026-04-10T08:12:37.64Z</time></trkpt><trkpt lat="41.8665375" lon="13.4642842"><ele>494.0</ele><time>2026-04-10T08:12:38.632Z</time></trkpt><trkpt lat="41.8667887" lon="13.4641109"><ele>508.0</ele><time>2026-04-10T08:12:39.613Z</time></trkpt><trkpt lat="41.8670444" lon="13.4639294"><ele>462.0</ele><time>2026-04-10T08:12:40.6Z</time></trkpt><trkpt lat="41.8694025" lon="13.4623388"><ele>462.0</ele><time>2026-04-10T08:12:51.636Z</time></trkpt><trkpt lat="41.8695779" lon="13.46224"><ele>462.0</ele><time>2026-04-10T08:12:52.638Z</time></trkpt><trkpt lat="41.8698201" lon="13.4621059"><ele>458.0</ele><time>2026-04-10T08:12:53.656Z</time></trkpt><trkpt lat="41.8700571" lon="13.4619619"><ele>454.0</ele><time>2026-04-10T08:12:54.652Z</time></trkpt><trkpt lat="41.8702911" lon="13.4617735"><ele>462.0</ele><time>2026-04-10T08:12:55.671Z</time></trkpt><trkpt lat="41.8704809" lon="13.4615587"><ele>470.0</ele><time>2026-04-10T08:12:56.668Z</time></trkpt><trkpt lat="41.8707097" lon="13.4613394"><ele>471.5</ele><time>2026-04-10T08:12:57.672Z</time></trkpt><trkpt lat="41.8709134" lon="13.4611332"><ele>473.0</ele><time>2026-04-10T08:12:58.668Z</time></trkpt><trkpt lat="41.8711143" lon="13.4609315"><ele>473.0</ele><time>2026-04-10T08:12:59.672Z</time></trkpt><trkpt lat="41.8713101" lon="13.4607409"><ele>473.0</ele><time>2026-04-10T08:13:00.677Z</time></trkpt><trkpt lat="41.8715036" lon="13.4605663"><ele>472.3333333333333</ele><time>2026-04-10T08:13:01.67Z</time></trkpt><trkpt lat="41.8716823" lon="13.4604013"><ele>471.66666666666663</ele><time>2026-04-10T08:13:02.667Z</time></trkpt><trkpt lat="41.8718594" lon="13.4602306"><ele>471.0</ele><time>2026-04-10T08:13:03.67Z</time></trkpt><trkpt lat="41.8720291" lon="13.4600841"><ele>471.0</ele><time>2026-04-10T08:13:04.673Z</time></trkpt><trkpt lat="41.8722157" lon="13.4599373"><ele>471.0</ele><time>2026-04-10T08:13:05.662Z</time></trkpt><trkpt lat="41.8723896" lon="13.4598114"><ele>471.0</ele><time>2026-04-10T08:13:06.686Z</time></trkpt><trkpt lat="41.8725538" lon="13.459712"><ele>474.33333333333337</ele><time>2026-04-10T08:13:07.666Z</time></trkpt><trkpt lat="41.8727352" lon="13.4596207"><ele>477.6666666666667</ele><time>2026-04-10T08:13:08.668Z</time></trkpt><trkpt lat="41.8728804" lon="13.4595044"><ele>481.0</ele><time>2026-04-10T08:13:09.669Z</time></trkpt><trkpt lat="41.87303" lon="13.4594157"><ele>479.0</ele><time>2026-04-10T08:13:10.67Z</time></trkpt><trkpt lat="41.8732026" lon="13.4593381"><ele>477.0</ele><time>2026-04-10T08:13:11.676Z</time></trkpt><trkpt lat="41.8733458" lon="13.4592652"><ele>475.0</ele><time>2026-04-10T08:13:12.66Z</time></trkpt><trkpt lat="41.8735195" lon="13.4591824"><ele>475.0</ele><time>2026-04-10T08:13:13.675Z</time></trkpt><trkpt lat="41.873688" lon="13.4590833"><ele>475.0</ele><time>2026-04-10T08:13:14.669Z</time></trkpt><trkpt lat="41.873857" lon="13.4589979"><ele>475.0</ele><time>2026-04-10T08:13:15.675Z</time></trkpt><trkpt lat="41.8740249" lon="13.4589238"><ele>475.0</ele><time>2026-04-10T08:13:16.675Z</time></trkpt><trkpt lat="41.8741858" lon="13.4588377"><ele>475.0</ele><time>2026-04-10T08:13:17.678Z</time></trkpt><trkpt lat="41.8743306" lon="13.4587563"><ele>475.0</ele><time>2026-04-10T08:13:18.676Z</time></trkpt><trkpt lat="41.8744927" lon="13.4586767"><ele>473.0</ele><time>2026-04-10T08:13:19.672Z</time></trkpt><trkpt lat="41.8746407" lon="13.4585879"><ele>471.0</ele><time>2026-04-10T08:13:20.673Z</time></trkpt><trkpt lat="41.8748187" lon="13.4585262"><ele>469.0</ele><time>2026-04-10T08:13:21.67Z</time></trkpt><trkpt lat="41.8749913" lon="13.4584465"><ele>473.0</ele><time>2026-04-10T08:13:22.661Z</time></trkpt><trkpt lat="41.8751436" lon="13.458351"><ele>477.0</ele><time>2026-04-10T08:13:23.668Z</time></trkpt><trkpt lat="41.8752907" lon="13.4582546"><ele>481.0</ele><time>2026-04-10T08:13:24.663Z</time></trkpt><trkpt lat="41.875464" lon="13.4581583"><ele>481.0</ele><time>2026-04-10T08:13:25.666Z</time></trkpt><trkpt lat="41.8756581" lon="13.458044"><ele>481.0</ele><time>2026-04-10T08:13:26.66Z</time></trkpt><trkpt lat="41.8758737" lon="13.4579289"><ele>481.0</ele><time>2026-04-10T08:13:27.663Z</time></trkpt><trkpt lat="41.8760834" lon="13.4578"><ele>476.5</ele><time>2026-04-10T08:13:28.662Z</time></trkpt><trkpt lat="41.8763108" lon="13.4576801"><ele>472.0</ele><time>2026-04-10T08:13:29.659Z</time></trkpt><trkpt lat="41.8765617" lon="13.4575752"><ele>477.0</ele><time>2026-04-10T08:13:30.674Z</time></trkpt><trkpt lat="41.8768269" lon="13.4574681"><ele>482.0</ele><time>2026-04-10T08:13:31.669Z</time></trkpt><trkpt lat="41.8770881" lon="13.457328"><ele>482.0</ele><time>2026-04-10T08:13:32.669Z</time></trkpt><trkpt lat="41.8773497" lon="13.4572012"><ele>482.0</ele><time>2026-04-10T08:13:33.671Z</time></trkpt><trkpt lat="41.8776216" lon="13.4570576"><ele>483.5</ele><time>2026-04-10T08:13:34.664Z</time></trkpt><trkpt lat="41.8779051" lon="13.4569197"><ele>485.0</ele><time>2026-04-10T08:13:35.677Z</time></trkpt><trkpt lat="41.8781687" lon="13.4567645"><ele>489.5</ele><time>2026-04-10T08:13:36.676Z</time></trkpt><trkpt lat="41.878441" lon="13.4566282"><ele>494.0</ele><time>2026-04-10T08:13:37.686Z</time></trkpt><trkpt lat="41.8787071" lon="13.4564906"><ele>494.0</ele><time>2026-04-10T08:13:38.667Z</time></trkpt><trkpt lat="41.8789695" lon="13.4563501"><ele>494.0</ele><time>2026-04-10T08:13:39.67Z</time></trkpt><trkpt lat="41.8792425" lon="13.4562332"><ele>489.0</ele><time>2026-04-10T08:13:40.664Z</time></trkpt><trkpt lat="41.8794826" lon="13.4560824"><ele>484.0</ele><time>2026-04-10T08:13:41.668Z</time></trkpt><trkpt lat="41.8797414" lon="13.4559262"><ele>484.0</ele><time>2026-04-10T08:13:42.661Z</time></trkpt><trkpt lat="41.8800057" lon="13.4557812"><ele>484.0</ele><time>2026-04-10T08:13:43.665Z</time></trkpt><trkpt lat="41.8802359" lon="13.4556209"><ele>488.0</ele><time>2026-04-10T08:13:44.667Z</time></trkpt><trkpt lat="41.8804897" lon="13.4554373"><ele>492.0</ele><time>2026-04-10T08:13:45.67Z</time></trkpt><trkpt lat="41.8807307" lon="13.4552412"><ele>498.0</ele><time>2026-04-10T08:13:46.656Z</time></trkpt><trkpt lat="41.8809591" lon="13.4550606"><ele>504.0</ele><time>2026-04-10T08:13:47.666Z</time></trkpt><trkpt lat="41.8811991" lon="13.4548746"><ele>504.0</ele><time>2026-04-10T08:13:48.661Z</time></trkpt><trkpt lat="41.8814067" lon="13.4546463"><ele>504.0</ele><time>2026-04-10T08:13:49.668Z</time></trkpt><trkpt lat="41.8816135" lon="13.4544249"><ele>504.0</ele><time>2026-04-10T08:13:50.659Z</time></trkpt><trkpt lat="41.8818212" lon="13.4542013"><ele>504.0</ele><time>2026-04-10T08:13:51.67Z</time></trkpt><trkpt lat="41.882048" lon="13.4540037"><ele>504.0</ele><time>2026-04-10T08:13:52.666Z</time></trkpt><trkpt lat="41.8822777" lon="13.4537996"><ele>504.0</ele><time>2026-04-10T08:13:53.666Z</time></trkpt><trkpt lat="41.8824921" lon="13.4535868"><ele>504.0</ele><time>2026-04-10T08:13:54.67Z</time></trkpt><trkpt lat="41.8827178" lon="13.4534022"><ele>504.0</ele><time>2026-04-10T08:13:55.664Z</time></trkpt><trkpt lat="41.8829406" lon="13.4532023"><ele>504.0</ele><time>2026-04-10T08:13:56.672Z</time></trkpt><trkpt lat="41.8831501" lon="13.4530104"><ele>504.0</ele><time>2026-04-10T08:13:57.67Z</time></trkpt><trkpt lat="41.8833721" lon="13.4527947"><ele>505.5</ele><time>2026-04-10T08:13:58.666Z</time></trkpt><trkpt lat="41.8835859" lon="13.4525703"><ele>507.0</ele><time>2026-04-10T08:13:59.67Z</time></trkpt><trkpt lat="41.8837968" lon="13.4523686"><ele>507.0</ele><time>2026-04-10T08:14:00.681Z</time></trkpt><trkpt lat="41.8840182" lon="13.4521445"><ele>507.0</ele><time>2026-04-10T08:14:01.682Z</time></trkpt><trkpt lat="41.8844691" lon="13.4517623"><ele>504.5</ele><time>2026-04-10T08:14:03.673Z</time></trkpt><trkpt lat="41.8846854" lon="13.4515675"><ele>502.0</ele><time>2026-04-10T08:14:04.678Z</time></trkpt><trkpt lat="41.8849002" lon="13.4513564"><ele>502.5</ele><time>2026-04-10T08:14:05.673Z</time></trkpt><trkpt lat="41.885111" lon="13.4511399"><ele>503.0</ele><time>2026-04-10T08:14:06.67Z</time></trkpt><trkpt lat="41.8853224" lon="13.450932"><ele>503.0</ele><time>2026-04-10T08:14:07.676Z</time></trkpt><trkpt lat="41.885543" lon="13.450737"><ele>503.0</ele><time>2026-04-10T08:14:08.72Z</time></trkpt><trkpt lat="41.8857462" lon="13.45054"><ele>498.5</ele><time>2026-04-10T08:14:09.677Z</time></trkpt><trkpt lat="41.8859687" lon="13.450334"><ele>494.0</ele><time>2026-04-10T08:14:10.679Z</time></trkpt><trkpt lat="41.8861844" lon="13.4501472"><ele>494.0</ele><time>2026-04-10T08:14:11.676Z</time></trkpt><trkpt lat="41.8863934" lon="13.4499286"><ele>494.0</ele><time>2026-04-10T08:14:12.676Z</time></trkpt><trkpt lat="41.8866224" lon="13.4497475"><ele>498.0</ele><time>2026-04-10T08:14:13.675Z</time></trkpt><trkpt lat="41.8868433" lon="13.4495474"><ele>502.0</ele><time>2026-04-10T08:14:14.674Z</time></trkpt><trkpt lat="41.887045" lon="13.4493422"><ele>502.0</ele><time>2026-04-10T08:14:15.672Z</time></trkpt><trkpt lat="41.8872612" lon="13.449148"><ele>502.0</ele><time>2026-04-10T08:14:16.683Z</time></trkpt><trkpt lat="41.8874612" lon="13.4489464"><ele>509.0</ele><time>2026-04-10T08:14:17.675Z</time></trkpt><trkpt lat="41.8876899" lon="13.4487649"><ele>516.0</ele><time>2026-04-10T08:14:18.675Z</time></trkpt><trkpt lat="41.8878776" lon="13.4485625"><ele>516.0</ele><time>2026-04-10T08:14:19.681Z</time></trkpt><trkpt lat="41.8880959" lon="13.4483637"><ele>516.0</ele><time>2026-04-10T08:14:20.673Z</time></trkpt><trkpt lat="41.8882988" lon="13.4481845"><ele>514.0</ele><time>2026-04-10T08:14:21.673Z</time></trkpt><trkpt lat="41.8884995" lon="13.4479989"><ele>512.0</ele><time>2026-04-10T08:14:22.663Z</time></trkpt><trkpt lat="41.8887027" lon="13.4478136"><ele>512.0</ele><time>2026-04-10T08:14:23.65Z</time></trkpt><trkpt lat="41.8888824" lon="13.4475695"><ele>512.0</ele><time>2026-04-10T08:14:24.65Z</time></trkpt><trkpt lat="41.8891601" lon="13.4473666"><ele>508.5</ele><time>2026-04-10T08:14:25.66Z</time></trkpt><trkpt lat="41.8893683" lon="13.4471779"><ele>505.0</ele><time>2026-04-10T08:14:26.679Z</time></trkpt><trkpt lat="41.8895799" lon="13.4469557"><ele>501.5</ele><time>2026-04-10T08:14:27.679Z</time></trkpt><trkpt lat="41.8897905" lon="13.446744"><ele>498.0</ele><time>2026-04-10T08:14:28.675Z</time></trkpt><trkpt lat="41.8900108" lon="13.4465474"><ele>501.5</ele><time>2026-04-10T08:14:29.676Z</time></trkpt><trkpt lat="41.8902248" lon="13.4463504"><ele>505.0</ele><time>2026-04-10T08:14:30.689Z</time></trkpt><trkpt lat="41.8904303" lon="13.4461481"><ele>506.5</ele><time>2026-04-10T08:14:31.688Z</time></trkpt><trkpt lat="41.8906582" lon="13.4459522"><ele>508.0</ele><time>2026-04-10T08:14:32.679Z</time></trkpt><trkpt lat="41.8908932" lon="13.4457879"><ele>510.0</ele><time>2026-04-10T08:14:33.686Z</time></trkpt><trkpt lat="41.8911009" lon="13.4455856"><ele>512.0</ele><time>2026-04-10T08:14:34.683Z</time></trkpt><trkpt lat="41.8913446" lon="13.4454301"><ele>512.0</ele><time>2026-04-10T08:14:35.679Z</time></trkpt><trkpt lat="41.8915698" lon="13.4452573"><ele>512.0</ele><time>2026-04-10T08:14:36.673Z</time></trkpt><trkpt lat="41.8918222" lon="13.4450948"><ele>523.0</ele><time>2026-04-10T08:14:37.676Z</time></trkpt><trkpt lat="41.8920723" lon="13.4449291"><ele>534.0</ele><time>2026-04-10T08:14:38.674Z</time></trkpt><trkpt lat="41.8923121" lon="13.4448017"><ele>534.0</ele><time>2026-04-10T08:14:39.695Z</time></trkpt><trkpt lat="41.8925389" lon="13.4446664"><ele>534.0</ele><time>2026-04-10T08:14:40.681Z</time></trkpt><trkpt lat="41.8927997" lon="13.4445211"><ele>532.0</ele><time>2026-04-10T08:14:41.679Z</time></trkpt><trkpt lat="41.8930727" lon="13.4444043"><ele>530.0</ele><time>2026-04-10T08:14:42.671Z</time></trkpt><trkpt lat="41.8933218" lon="13.4443033"><ele>533.5</ele><time>2026-04-10T08:14:43.676Z</time></trkpt><trkpt lat="41.8935657" lon="13.4441771"><ele>537.0</ele><time>2026-04-10T08:14:44.684Z</time></trkpt><trkpt lat="41.8938237" lon="13.4440625"><ele>537.0</ele><time>2026-04-10T08:14:45.667Z</time></trkpt><trkpt lat="41.8940898" lon="13.4439679"><ele>537.0</ele><time>2026-04-10T08:14:46.668Z</time></trkpt><trkpt lat="41.8943615" lon="13.4438883"><ele>530.0</ele><time>2026-04-10T08:14:47.675Z</time></trkpt><trkpt lat="41.8946244" lon="13.4437864"><ele>523.0</ele><time>2026-04-10T08:14:48.667Z</time></trkpt><trkpt lat="41.8948702" lon="13.4436859"><ele>526.5</ele><time>2026-04-10T08:14:49.681Z</time></trkpt><trkpt lat="41.8950949" lon="13.4435654"><ele>530.0</ele><time>2026-04-10T08:14:50.67Z</time></trkpt><trkpt lat="41.8953422" lon="13.4434523"><ele>530.0</ele><time>2026-04-10T08:14:51.674Z</time></trkpt><trkpt lat="41.8955752" lon="13.4433568"><ele>530.0</ele><time>2026-04-10T08:14:52.673Z</time></trkpt><trkpt lat="41.8958367" lon="13.4432649"><ele>533.5</ele><time>2026-04-10T08:14:53.674Z</time></trkpt><trkpt lat="41.8960756" lon="13.4431612"><ele>537.0</ele><time>2026-04-10T08:14:54.673Z</time></trkpt><trkpt lat="41.8963133" lon="13.4430669"><ele>537.0</ele><time>2026-04-10T08:14:55.673Z</time></trkpt><trkpt lat="41.896564" lon="13.4429825"><ele>537.0</ele><time>2026-04-10T08:14:56.675Z</time></trkpt><trkpt lat="41.8968156" lon="13.4429163"><ele>530.0</ele><time>2026-04-10T08:14:57.676Z</time></trkpt><trkpt lat="41.8970485" lon="13.442818"><ele>523.0</ele><time>2026-04-10T08:14:58.857Z</time></trkpt><trkpt lat="41.8975419" lon="13.442644"><ele>528.0</ele><time>2026-04-10T08:15:00.667Z</time></trkpt><trkpt lat="41.8977671" lon="13.4425295"><ele>533.0</ele><time>2026-04-10T08:15:01.663Z</time></trkpt><trkpt lat="41.8979834" lon="13.4424073"><ele>533.0</ele><time>2026-04-10T08:15:02.66Z</time></trkpt><trkpt lat="41.8982279" lon="13.4423064"><ele>533.0</ele><time>2026-04-10T08:15:03.744Z</time></trkpt><trkpt lat="41.8984743" lon="13.4422104"><ele>529.0</ele><time>2026-04-10T08:15:04.742Z</time></trkpt><trkpt lat="41.8987202" lon="13.4421186"><ele>525.0</ele><time>2026-04-10T08:15:05.744Z</time></trkpt><trkpt lat="41.8989618" lon="13.4420234"><ele>525.0</ele><time>2026-04-10T08:15:06.752Z</time></trkpt><trkpt lat="41.8992031" lon="13.4419247"><ele>525.0</ele><time>2026-04-10T08:15:07.748Z</time></trkpt><trkpt lat="41.8994391" lon="13.4418192"><ele>529.5</ele><time>2026-04-10T08:15:08.743Z</time></trkpt><trkpt lat="41.8996753" lon="13.4417035"><ele>534.0</ele><time>2026-04-10T08:15:09.744Z</time></trkpt><trkpt lat="41.8999091" lon="13.4415807"><ele>532.0</ele><time>2026-04-10T08:15:10.752Z</time></trkpt><trkpt lat="41.9001369" lon="13.4414414"><ele>530.0</ele><time>2026-04-10T08:15:11.744Z</time></trkpt><trkpt lat="41.9003622" lon="13.4412932"><ele>530.0</ele><time>2026-04-10T08:15:12.745Z</time></trkpt><trkpt lat="41.900584" lon="13.4411414"><ele>530.0</ele><time>2026-04-10T08:15:13.74Z</time></trkpt><trkpt lat="41.9007943" lon="13.4409683"><ele>536.0</ele><time>2026-04-10T08:15:14.746Z</time></trkpt><trkpt lat="41.9010149" lon="13.4408127"><ele>542.0</ele><time>2026-04-10T08:15:15.742Z</time></trkpt><trkpt lat="41.9012314" lon="13.4406451"><ele>536.5</ele><time>2026-04-10T08:15:16.738Z</time></trkpt><trkpt lat="41.9014416" lon="13.4404654"><ele>531.0</ele><time>2026-04-10T08:15:17.75Z</time></trkpt><trkpt lat="41.901642" lon="13.4402757"><ele>544.0</ele><time>2026-04-10T08:15:18.741Z</time></trkpt><trkpt lat="41.9018408" lon="13.440081"><ele>557.0</ele><time>2026-04-10T08:15:19.753Z</time></trkpt><trkpt lat="41.9020362" lon="13.4398763"><ele>557.0</ele><time>2026-04-10T08:15:20.742Z</time></trkpt><trkpt lat="41.9022311" lon="13.4396644"><ele>557.0</ele><time>2026-04-10T08:15:21.747Z</time></trkpt><trkpt lat="41.9024253" lon="13.4394495"><ele>554.5</ele><time>2026-04-10T08:15:22.755Z</time></trkpt><trkpt lat="41.9026193" lon="13.4392367"><ele>552.0</ele><time>2026-04-10T08:15:23.746Z</time></trkpt><trkpt lat="41.9028104" lon="13.4390267"><ele>552.0</ele><time>2026-04-10T08:15:24.742Z</time></trkpt><trkpt lat="41.9029976" lon="13.438815"><ele>552.0</ele><time>2026-04-10T08:15:25.744Z</time></trkpt><trkpt lat="41.9031859" lon="13.4385997"><ele>552.5</ele><time>2026-04-10T08:15:26.737Z</time></trkpt><trkpt lat="41.9033744" lon="13.438393"><ele>553.0</ele><time>2026-04-10T08:15:27.742Z</time></trkpt><trkpt lat="41.9035627" lon="13.4381858"><ele>553.0</ele><time>2026-04-10T08:15:28.746Z</time></trkpt><trkpt lat="41.9037501" lon="13.4379769"><ele>553.0</ele><time>2026-04-10T08:15:29.746Z</time></trkpt><trkpt lat="41.9039401" lon="13.4377793"><ele>556.5</ele><time>2026-04-10T08:15:30.75Z</time></trkpt><trkpt lat="41.9041286" lon="13.4375762"><ele>560.0</ele><time>2026-04-10T08:15:31.742Z</time></trkpt><trkpt lat="41.9043199" lon="13.4373784"><ele>566.0</ele><time>2026-04-10T08:15:32.719Z</time></trkpt><trkpt lat="41.9045118" lon="13.4371797"><ele>572.0</ele><time>2026-04-10T08:15:33.692Z</time></trkpt><trkpt lat="41.9047009" lon="13.436983"><ele>572.0</ele><time>2026-04-10T08:15:34.679Z</time></trkpt><trkpt lat="41.9048902" lon="13.4367858"><ele>572.0</ele><time>2026-04-10T08:15:35.664Z</time></trkpt><trkpt lat="41.9050798" lon="13.4365867"><ele>583.5</ele><time>2026-04-10T08:15:36.628Z</time></trkpt><trkpt lat="41.9052675" lon="13.4363865"><ele>595.0</ele><time>2026-04-10T08:15:37.624Z</time></trkpt><trkpt lat="41.9054458" lon="13.4361793"><ele>595.0</ele><time>2026-04-10T08:15:38.624Z</time></trkpt><trkpt lat="41.9056284" lon="13.4359832"><ele>595.0</ele><time>2026-04-10T08:15:39.623Z</time></trkpt><trkpt lat="41.9058114" lon="13.4357829"><ele>589.0</ele><time>2026-04-10T08:15:40.621Z</time></trkpt><trkpt lat="41.9059951" lon="13.435583"><ele>583.0</ele><time>2026-04-10T08:15:41.633Z</time></trkpt><trkpt lat="41.9061776" lon="13.4353832"><ele>583.0</ele><time>2026-04-10T08:15:42.622Z</time></trkpt><trkpt lat="41.9063589" lon="13.4351818"><ele>583.0</ele><time>2026-04-10T08:15:43.626Z</time></trkpt><trkpt lat="41.9065365" lon="13.4349807"><ele>583.0</ele><time>2026-04-10T08:15:44.623Z</time></trkpt><trkpt lat="41.9067107" lon="13.4347828"><ele>583.0</ele><time>2026-04-10T08:15:45.628Z</time></trkpt><trkpt lat="41.9068877" lon="13.4345801"><ele>578.5</ele><time>2026-04-10T08:15:46.632Z</time></trkpt><trkpt lat="41.9070425" lon="13.4344091"><ele>574.0</ele><time>2026-04-10T08:15:47.698Z</time></trkpt><trkpt lat="41.9074389" lon="13.4339933"><ele>572.0</ele><time>2026-04-10T08:15:49.699Z</time></trkpt><trkpt lat="41.9076274" lon="13.4338254"><ele>570.0</ele><time>2026-04-10T08:15:50.708Z</time></trkpt><trkpt lat="41.9078986" lon="13.4336105"><ele>570.0</ele><time>2026-04-10T08:15:51.734Z</time></trkpt><trkpt lat="41.9081221" lon="13.4334516"><ele>570.0</ele><time>2026-04-10T08:15:52.737Z</time></trkpt><trkpt lat="41.908518" lon="13.4331532"><ele>573.5</ele><time>2026-04-10T08:15:53.733Z</time></trkpt><trkpt lat="41.9087489" lon="13.4329896"><ele>577.0</ele><time>2026-04-10T08:15:54.732Z</time></trkpt><trkpt lat="41.9089833" lon="13.4328454"><ele>577.0</ele><time>2026-04-10T08:15:55.742Z</time></trkpt><trkpt lat="41.9092264" lon="13.4327104"><ele>577.0</ele><time>2026-04-10T08:15:56.728Z</time></trkpt><trkpt lat="41.9094738" lon="13.4325886"><ele>577.0</ele><time>2026-04-10T08:15:57.739Z</time></trkpt><trkpt lat="41.9097271" lon="13.4324767"><ele>577.0</ele><time>2026-04-10T08:15:58.739Z</time></trkpt><trkpt lat="41.9099831" lon="13.4323768"><ele>575.0</ele><time>2026-04-10T08:15:59.752Z</time></trkpt><trkpt lat="41.9102414" lon="13.4322851"><ele>573.0</ele><time>2026-04-10T08:16:00.729Z</time></trkpt><trkpt lat="41.9105049" lon="13.4322114"><ele>573.0</ele><time>2026-04-10T08:16:01.731Z</time></trkpt><trkpt lat="41.9107675" lon="13.4321512"><ele>573.0</ele><time>2026-04-10T08:16:02.728Z</time></trkpt><trkpt lat="41.9110325" lon="13.4321102"><ele>566.5</ele><time>2026-04-10T08:16:03.732Z</time></trkpt><trkpt lat="41.9112874" lon="13.4320761"><ele>560.0</ele><time>2026-04-10T08:16:04.722Z</time></trkpt><trkpt lat="41.9115477" lon="13.4320637"><ele>563.5</ele><time>2026-04-10T08:16:05.735Z</time></trkpt><trkpt lat="41.911815" lon="13.4320655"><ele>567.0</ele><time>2026-04-10T08:16:06.736Z</time></trkpt><trkpt lat="41.9120845" lon="13.4320575"><ele>567.0</ele><time>2026-04-10T08:16:07.731Z</time></trkpt><trkpt lat="41.9123592" lon="13.4320611"><ele>567.0</ele><time>2026-04-10T08:16:08.734Z</time></trkpt><trkpt lat="41.9126372" lon="13.4320654"><ele>567.0</ele><time>2026-04-10T08:16:09.739Z</time></trkpt><trkpt lat="41.9129136" lon="13.4320678"><ele>567.0</ele><time>2026-04-10T08:16:10.746Z</time></trkpt><trkpt lat="41.9131863" lon="13.4320669"><ele>565.0</ele><time>2026-04-10T08:16:11.744Z</time></trkpt><trkpt lat="41.9134571" lon="13.4320633"><ele>563.0</ele><time>2026-04-10T08:16:12.768Z</time></trkpt><trkpt lat="41.9137263" lon="13.4320469"><ele>563.0</ele><time>2026-04-10T08:16:13.733Z</time></trkpt><trkpt lat="41.913997" lon="13.432016"><ele>563.0</ele><time>2026-04-10T08:16:14.738Z</time></trkpt><trkpt lat="41.9142598" lon="13.4319708"><ele>570.5</ele><time>2026-04-10T08:16:15.74Z</time></trkpt><trkpt lat="41.9145191" lon="13.4319138"><ele>578.0</ele><time>2026-04-10T08:16:16.743Z</time></trkpt><trkpt lat="41.9147748" lon="13.4318441"><ele>578.0</ele><time>2026-04-10T08:16:17.746Z</time></trkpt><trkpt lat="41.9150263" lon="13.4317573"><ele>578.0</ele><time>2026-04-10T08:16:18.726Z</time></trkpt><trkpt lat="41.9152777" lon="13.4316506"><ele>579.0</ele><time>2026-04-10T08:16:19.713Z</time></trkpt><trkpt lat="41.9155153" lon="13.4315403"><ele>580.0</ele><time>2026-04-10T08:16:20.701Z</time></trkpt><trkpt lat="41.9157468" lon="13.4314197"><ele>574.0</ele><time>2026-04-10T08:16:21.695Z</time></trkpt><trkpt lat="41.9159838" lon="13.4312981"><ele>568.0</ele><time>2026-04-10T08:16:22.722Z</time></trkpt><trkpt lat="41.9162146" lon="13.4311619"><ele>568.0</ele><time>2026-04-10T08:16:23.729Z</time></trkpt><trkpt lat="41.9164369" lon="13.4310177"><ele>568.0</ele><time>2026-04-10T08:16:24.738Z</time></trkpt><trkpt lat="41.9166532" lon="13.4308636"><ele>573.0</ele><time>2026-04-10T08:16:25.742Z</time></trkpt><trkpt lat="41.9168396" lon="13.4306954"><ele>578.0</ele><time>2026-04-10T08:16:26.745Z</time></trkpt><trkpt lat="41.917047" lon="13.4305364"><ele>580.0</ele><time>2026-04-10T08:16:27.748Z</time></trkpt><trkpt lat="41.9172549" lon="13.4303765"><ele>582.0</ele><time>2026-04-10T08:16:28.746Z</time></trkpt><trkpt lat="41.9174731" lon="13.430214"><ele>594.0</ele><time>2026-04-10T08:16:29.75Z</time></trkpt><trkpt lat="41.9176872" lon="13.4300559"><ele>606.0</ele><time>2026-04-10T08:16:30.753Z</time></trkpt><trkpt lat="41.9179037" lon="13.4298975"><ele>606.0</ele><time>2026-04-10T08:16:31.737Z</time></trkpt><trkpt lat="41.9181174" lon="13.4297407"><ele>606.0</ele><time>2026-04-10T08:16:32.716Z</time></trkpt><trkpt lat="41.918335" lon="13.4295824"><ele>599.0</ele><time>2026-04-10T08:16:33.681Z</time></trkpt><trkpt lat="41.9185569" lon="13.4294316"><ele>592.0</ele><time>2026-04-10T08:16:34.669Z</time></trkpt><trkpt lat="41.9187826" lon="13.4292936"><ele>592.0</ele><time>2026-04-10T08:16:35.645Z</time></trkpt><trkpt lat="41.9190144" lon="13.4291675"><ele>592.0</ele><time>2026-04-10T08:16:36.688Z</time></trkpt><trkpt lat="41.9192161" lon="13.4290734"><ele>596.5</ele><time>2026-04-10T08:16:37.733Z</time></trkpt><trkpt lat="41.9194414" lon="13.4289652"><ele>601.0</ele><time>2026-04-10T08:16:38.731Z</time></trkpt><trkpt lat="41.9196755" lon="13.4288728"><ele>593.5</ele><time>2026-04-10T08:16:39.739Z</time></trkpt><trkpt lat="41.9199168" lon="13.4287862"><ele>586.0</ele><time>2026-04-10T08:16:40.741Z</time></trkpt><trkpt lat="41.9201484" lon="13.4286807"><ele>586.0</ele><time>2026-04-10T08:16:41.742Z</time></trkpt><trkpt lat="41.9203907" lon="13.4286044"><ele>586.0</ele><time>2026-04-10T08:16:42.754Z</time></trkpt><trkpt lat="41.9206349" lon="13.4285395"><ele>586.0</ele><time>2026-04-10T08:16:43.733Z</time></trkpt><trkpt lat="41.9208844" lon="13.4284799"><ele>586.0</ele><time>2026-04-10T08:16:44.734Z</time></trkpt><trkpt lat="41.9211385" lon="13.4284244"><ele>589.0</ele><time>2026-04-10T08:16:45.738Z</time></trkpt><trkpt lat="41.921395" lon="13.4283687"><ele>592.0</ele><time>2026-04-10T08:16:46.74Z</time></trkpt><trkpt lat="41.9216536" lon="13.4283141"><ele>600.5</ele><time>2026-04-10T08:16:47.742Z</time></trkpt><trkpt lat="41.9219191" lon="13.4282596"><ele>609.0</ele><time>2026-04-10T08:16:48.735Z</time></trkpt><trkpt lat="41.9221881" lon="13.4282083"><ele>609.0</ele><time>2026-04-10T08:16:49.742Z</time></trkpt><trkpt lat="41.9224574" lon="13.4281568"><ele>609.0</ele><time>2026-04-10T08:16:50.744Z</time></trkpt><trkpt lat="41.9227217" lon="13.4281016"><ele>608.0</ele><time>2026-04-10T08:16:51.73Z</time></trkpt><trkpt lat="41.922986" lon="13.428044"><ele>607.0</ele><time>2026-04-10T08:16:52.72Z</time></trkpt><trkpt lat="41.9232449" lon="13.4279904"><ele>597.0</ele><time>2026-04-10T08:16:53.723Z</time></trkpt><trkpt lat="41.9235053" lon="13.4279358"><ele>587.0</ele><time>2026-04-10T08:16:54.732Z</time></trkpt><trkpt lat="41.9237591" lon="13.4278838"><ele>587.0</ele><time>2026-04-10T08:16:55.736Z</time></trkpt><trkpt lat="41.9240209" lon="13.4278374"><ele>587.0</ele><time>2026-04-10T08:16:56.725Z</time></trkpt><trkpt lat="41.9242863" lon="13.4277893"><ele>581.5</ele><time>2026-04-10T08:16:57.734Z</time></trkpt><trkpt lat="41.9245464" lon="13.4277357"><ele>576.0</ele><time>2026-04-10T08:16:58.731Z</time></trkpt><trkpt lat="41.9248056" lon="13.427681"><ele>576.0</ele><time>2026-04-10T08:16:59.737Z</time></trkpt><trkpt lat="41.9250602" lon="13.4276281"><ele>576.0</ele><time>2026-04-10T08:17:00.739Z</time></trkpt><trkpt lat="41.9253137" lon="13.4275771"><ele>585.0</ele><time>2026-04-10T08:17:01.759Z</time></trkpt><trkpt lat="41.9255645" lon="13.4275311"><ele>594.0</ele><time>2026-04-10T08:17:02.736Z</time></trkpt><trkpt lat="41.9258167" lon="13.4274969"><ele>611.5</ele><time>2026-04-10T08:17:03.735Z</time></trkpt><trkpt lat="41.9260703" lon="13.4274769"><ele>629.0</ele><time>2026-04-10T08:17:04.733Z</time></trkpt><trkpt lat="41.9263215" lon="13.4274658"><ele>629.0</ele><time>2026-04-10T08:17:05.734Z</time></trkpt><trkpt lat="41.9265729" lon="13.4274711"><ele>629.0</ele><time>2026-04-10T08:17:06.733Z</time></trkpt><trkpt lat="41.9268289" lon="13.4274861"><ele>640.5</ele><time>2026-04-10T08:17:07.722Z</time></trkpt><trkpt lat="41.9270859" lon="13.4275127"><ele>652.0</ele><time>2026-04-10T08:17:08.705Z</time></trkpt><trkpt lat="41.9273317" lon="13.4275461"><ele>654.0</ele><time>2026-04-10T08:17:09.695Z</time></trkpt><trkpt lat="41.9275718" lon="13.4275853"><ele>656.0</ele><time>2026-04-10T08:17:10.69Z</time></trkpt><trkpt lat="41.9278054" lon="13.4276279"><ele>656.0</ele><time>2026-04-10T08:17:11.675Z</time></trkpt><trkpt lat="41.9280364" lon="13.4276719"><ele>656.0</ele><time>2026-04-10T08:17:12.641Z</time></trkpt><trkpt lat="41.928265" lon="13.4277168"><ele>653.5</ele><time>2026-04-10T08:17:13.639Z</time></trkpt><trkpt lat="41.928491" lon="13.4277664"><ele>651.0</ele><time>2026-04-10T08:17:14.62Z</time></trkpt><trkpt lat="41.9287155" lon="13.4278156"><ele>651.0</ele><time>2026-04-10T08:17:15.619Z</time></trkpt><trkpt lat="41.9289318" lon="13.4278626"><ele>651.0</ele><time>2026-04-10T08:17:16.621Z</time></trkpt><trkpt lat="41.9291441" lon="13.4279176"><ele>651.0</ele><time>2026-04-10T08:17:17.629Z</time></trkpt><trkpt lat="41.9293553" lon="13.4279682"><ele>649.0</ele><time>2026-04-10T08:17:18.625Z</time></trkpt><trkpt lat="41.929552" lon="13.4280097"><ele>647.0</ele><time>2026-04-10T08:17:19.623Z</time></trkpt><trkpt lat="41.9297275" lon="13.4280421"><ele>645.0</ele><time>2026-04-10T08:17:20.626Z</time></trkpt><trkpt lat="41.9299075" lon="13.428069"><ele>642.6666666666666</ele><time>2026-04-10T08:17:21.629Z</time></trkpt><trkpt lat="41.9300876" lon="13.42809"><ele>640.3333333333333</ele><time>2026-04-10T08:17:22.687Z</time></trkpt><trkpt lat="41.9302489" lon="13.4281008"><ele>638.0</ele><time>2026-04-10T08:17:23.696Z</time></trkpt><trkpt lat="41.9304626" lon="13.428105"><ele>638.0</ele><time>2026-04-10T08:17:24.693Z</time></trkpt><trkpt lat="41.9306473" lon="13.4280901"><ele>638.0</ele><time>2026-04-10T08:17:25.704Z</time></trkpt><trkpt lat="41.9315203" lon="13.4281765"><ele>642.5</ele><time>2026-04-10T08:17:26.734Z</time></trkpt><trkpt lat="41.9317901" lon="13.428198"><ele>647.0</ele><time>2026-04-10T08:17:27.733Z</time></trkpt><trkpt lat="41.9320235" lon="13.4281589"><ele>647.0</ele><time>2026-04-10T08:17:28.732Z</time></trkpt><trkpt lat="41.9322669" lon="13.4281158"><ele>647.0</ele><time>2026-04-10T08:17:29.738Z</time></trkpt><trkpt lat="41.9325049" lon="13.4280711"><ele>651.0</ele><time>2026-04-10T08:17:30.741Z</time></trkpt><trkpt lat="41.9327568" lon="13.4280371"><ele>655.0</ele><time>2026-04-10T08:17:31.747Z</time></trkpt><trkpt lat="41.9330037" lon="13.4280037"><ele>653.0</ele><time>2026-04-10T08:17:32.738Z</time></trkpt><trkpt lat="41.9332466" lon="13.4279692"><ele>651.0</ele><time>2026-04-10T08:17:33.716Z</time></trkpt><trkpt lat="41.9334932" lon="13.4279328"><ele>656.5</ele><time>2026-04-10T08:17:34.697Z</time></trkpt><trkpt lat="41.9337348" lon="13.427896"><ele>662.0</ele><time>2026-04-10T08:17:35.683Z</time></trkpt><trkpt lat="41.9339761" lon="13.4278601"><ele>662.0</ele><time>2026-04-10T08:17:36.657Z</time></trkpt><trkpt lat="41.934217" lon="13.4278227"><ele>662.0</ele><time>2026-04-10T08:17:37.631Z</time></trkpt><trkpt lat="41.9344586" lon="13.427785"><ele>664.5</ele><time>2026-04-10T08:17:38.626Z</time></trkpt><trkpt lat="41.9347009" lon="13.4277516"><ele>667.0</ele><time>2026-04-10T08:17:39.621Z</time></trkpt><trkpt lat="41.9349473" lon="13.4277192"><ele>669.5</ele><time>2026-04-10T08:17:40.623Z</time></trkpt><trkpt lat="41.9351962" lon="13.4276873"><ele>672.0</ele><time>2026-04-10T08:17:41.623Z</time></trkpt><trkpt lat="41.9354438" lon="13.427653"><ele>672.0</ele><time>2026-04-10T08:17:42.622Z</time></trkpt><trkpt lat="41.9356947" lon="13.4276168"><ele>672.0</ele><time>2026-04-10T08:17:43.622Z</time></trkpt><trkpt lat="41.9359461" lon="13.4275736"><ele>676.0</ele><time>2026-04-10T08:17:44.638Z</time></trkpt><trkpt lat="41.9362031" lon="13.4275316"><ele>680.0</ele><time>2026-04-10T08:17:45.622Z</time></trkpt><trkpt lat="41.9364638" lon="13.42749"><ele>676.0</ele><time>2026-04-10T08:17:46.62Z</time></trkpt><trkpt lat="41.9367239" lon="13.4274537"><ele>672.0</ele><time>2026-04-10T08:17:47.622Z</time></trkpt><trkpt lat="41.9369921" lon="13.4274124"><ele>672.0</ele><time>2026-04-10T08:17:48.622Z</time></trkpt><trkpt lat="41.9372577" lon="13.4273713"><ele>672.0</ele><time>2026-04-10T08:17:49.619Z</time></trkpt><trkpt lat="41.9375195" lon="13.4273237"><ele>671.3333333333334</ele><time>2026-04-10T08:17:50.621Z</time></trkpt><trkpt lat="41.9377721" lon="13.4272821"><ele>670.6666666666667</ele><time>2026-04-10T08:17:51.642Z</time></trkpt><trkpt lat="41.9378967" lon="13.4272442"><ele>670.0</ele><time>2026-04-10T08:17:52.699Z</time></trkpt><trkpt lat="41.9380338" lon="13.4272075"><ele>670.0</ele><time>2026-04-10T08:17:53.71Z</time></trkpt><trkpt lat="41.9382078" lon="13.427158"><ele>670.0</ele><time>2026-04-10T08:17:54.709Z</time></trkpt><trkpt lat="41.9383304" lon="13.4270865"><ele>670.0</ele><time>2026-04-10T08:17:55.705Z</time></trkpt><trkpt lat="41.9388285" lon="13.4270335"><ele>672.0</ele><time>2026-04-10T08:17:56.727Z</time></trkpt><trkpt lat="41.9390537" lon="13.4269648"><ele>674.0</ele><time>2026-04-10T08:17:57.732Z</time></trkpt><trkpt lat="41.9392898" lon="13.4268431"><ele>674.0</ele><time>2026-04-10T08:17:58.728Z</time></trkpt><trkpt lat="41.9395229" lon="13.42669"><ele>674.0</ele><time>2026-04-10T08:17:59.742Z</time></trkpt><trkpt lat="41.939745" lon="13.4265138"><ele>674.0</ele><time>2026-04-10T08:18:00.74Z</time></trkpt><trkpt lat="41.9399587" lon="13.4263319"><ele>674.0</ele><time>2026-04-10T08:18:01.737Z</time></trkpt><trkpt lat="41.940235" lon="13.4260795"><ele>676.5</ele><time>2026-04-10T08:18:02.746Z</time></trkpt><trkpt lat="41.9404388" lon="13.4258569"><ele>679.0</ele><time>2026-04-10T08:18:03.738Z</time></trkpt><trkpt lat="41.940631" lon="13.4256201"><ele>674.5</ele><time>2026-04-10T08:18:04.745Z</time></trkpt><trkpt lat="41.9408015" lon="13.4253768"><ele>670.0</ele><time>2026-04-10T08:18:05.74Z</time></trkpt><trkpt lat="41.9409647" lon="13.4251259"><ele>679.5</ele><time>2026-04-10T08:18:06.721Z</time></trkpt><trkpt lat="41.9411222" lon="13.4248696"><ele>689.0</ele><time>2026-04-10T08:18:07.701Z</time></trkpt><trkpt lat="41.9412761" lon="13.4246086"><ele>689.0</ele><time>2026-04-10T08:18:08.694Z</time></trkpt><trkpt lat="41.941431" lon="13.4243488"><ele>689.0</ele><time>2026-04-10T08:18:09.679Z</time></trkpt><trkpt lat="41.941592" lon="13.4240974"><ele>690.0</ele><time>2026-04-10T08:18:10.647Z</time></trkpt><trkpt lat="41.9417579" lon="13.4238581"><ele>691.0</ele><time>2026-04-10T08:18:11.625Z</time></trkpt><trkpt lat="41.9419333" lon="13.4236492"><ele>691.0</ele><time>2026-04-10T08:18:12.62Z</time></trkpt><trkpt lat="41.9421153" lon="13.4234567"><ele>691.0</ele><time>2026-04-10T08:18:13.622Z</time></trkpt><trkpt lat="41.9423051" lon="13.4232722"><ele>691.0</ele><time>2026-04-10T08:18:14.622Z</time></trkpt><trkpt lat="41.9425019" lon="13.4230985"><ele>691.0</ele><time>2026-04-10T08:18:15.635Z</time></trkpt><trkpt lat="41.9427019" lon="13.4229328"><ele>691.5</ele><time>2026-04-10T08:18:16.622Z</time></trkpt><trkpt lat="41.9429028" lon="13.4227758"><ele>692.0</ele><time>2026-04-10T08:18:17.622Z</time></trkpt><trkpt lat="41.9430998" lon="13.4226241"><ele>692.0</ele><time>2026-04-10T08:18:18.624Z</time></trkpt><trkpt lat="41.9432973" lon="13.4224651"><ele>692.0</ele><time>2026-04-10T08:18:19.628Z</time></trkpt><trkpt lat="41.943482" lon="13.4223083"><ele>692.0</ele><time>2026-04-10T08:18:20.644Z</time></trkpt><trkpt lat="41.9436572" lon="13.4221449"><ele>690.5</ele><time>2026-04-10T08:18:21.673Z</time></trkpt><trkpt lat="41.9438502" lon="13.4219613"><ele>689.0</ele><time>2026-04-10T08:18:22.695Z</time></trkpt><trkpt lat="41.9440555" lon="13.42176"><ele>693.5</ele><time>2026-04-10T08:18:23.715Z</time></trkpt><trkpt lat="41.9442368" lon="13.4215747"><ele>698.0</ele><time>2026-04-10T08:18:24.722Z</time></trkpt><trkpt lat="41.9447495" lon="13.4210805"><ele>698.0</ele><time>2026-04-10T08:18:25.744Z</time></trkpt><trkpt lat="41.9449702" lon="13.4208438"><ele>698.0</ele><time>2026-04-10T08:18:26.748Z</time></trkpt><trkpt lat="41.9452365" lon="13.4206141"><ele>703.0</ele><time>2026-04-10T08:18:27.75Z</time></trkpt><trkpt lat="41.9454466" lon="13.420396"><ele>708.0</ele><time>2026-04-10T08:18:28.732Z</time></trkpt><trkpt lat="41.9456561" lon="13.4201782"><ele>708.0</ele><time>2026-04-10T08:18:29.714Z</time></trkpt><trkpt lat="41.9458658" lon="13.4199606"><ele>708.0</ele><time>2026-04-10T08:18:30.705Z</time></trkpt><trkpt lat="41.9460686" lon="13.4197494"><ele>718.5</ele><time>2026-04-10T08:18:31.689Z</time></trkpt><trkpt lat="41.9462673" lon="13.419539"><ele>729.0</ele><time>2026-04-10T08:18:32.636Z</time></trkpt><trkpt lat="41.946463" lon="13.4193306"><ele>729.0</ele><time>2026-04-10T08:18:33.634Z</time></trkpt><trkpt lat="41.9466566" lon="13.4191287"><ele>729.0</ele><time>2026-04-10T08:18:34.625Z</time></trkpt><trkpt lat="41.946849" lon="13.4189319"><ele>733.5</ele><time>2026-04-10T08:18:35.62Z</time></trkpt><trkpt lat="41.9470367" lon="13.4187376"><ele>738.0</ele><time>2026-04-10T08:18:36.623Z</time></trkpt><trkpt lat="41.9472189" lon="13.4185454"><ele>738.0</ele><time>2026-04-10T08:18:37.621Z</time></trkpt><trkpt lat="41.9473969" lon="13.4183587"><ele>738.0</ele><time>2026-04-10T08:18:38.621Z</time></trkpt><trkpt lat="41.9475749" lon="13.4181769"><ele>738.0</ele><time>2026-04-10T08:18:39.624Z</time></trkpt><trkpt lat="41.9477473" lon="13.417996"><ele>735.3333333333334</ele><time>2026-04-10T08:18:40.621Z</time></trkpt><trkpt lat="41.947913" lon="13.4178175"><ele>732.6666666666667</ele><time>2026-04-10T08:18:41.62Z</time></trkpt><trkpt lat="41.9480766" lon="13.4176422"><ele>730.0</ele><time>2026-04-10T08:18:42.623Z</time></trkpt><trkpt lat="41.9482382" lon="13.4174714"><ele>729.3333333333334</ele><time>2026-04-10T08:18:43.625Z</time></trkpt><trkpt lat="41.9483915" lon="13.4173094"><ele>728.6666666666666</ele><time>2026-04-10T08:18:44.626Z</time></trkpt><trkpt lat="41.9485433" lon="13.4171473"><ele>728.0</ele><time>2026-04-10T08:18:45.627Z</time></trkpt><trkpt lat="41.9486891" lon="13.4169937"><ele>728.0</ele><time>2026-04-10T08:18:46.64Z</time></trkpt><trkpt lat="41.9488294" lon="13.4168524"><ele>728.0</ele><time>2026-04-10T08:18:47.688Z</time></trkpt><trkpt lat="41.948961" lon="13.4167182"><ele>728.0</ele><time>2026-04-10T08:18:48.702Z</time></trkpt><trkpt lat="41.9490982" lon="13.4165807"><ele>738.5</ele><time>2026-04-10T08:18:49.715Z</time></trkpt><trkpt lat="41.9492244" lon="13.4164532"><ele>749.0</ele><time>2026-04-10T08:18:50.712Z</time></trkpt><trkpt lat="41.9500654" lon="13.4156277"><ele>737.5</ele><time>2026-04-10T08:18:51.739Z</time></trkpt><trkpt lat="41.9502839" lon="13.4154186"><ele>726.0</ele><time>2026-04-10T08:18:52.737Z</time></trkpt><trkpt lat="41.9504944" lon="13.4152036"><ele>726.0</ele><time>2026-04-10T08:18:53.746Z</time></trkpt><trkpt lat="41.950701" lon="13.4149945"><ele>726.0</ele><time>2026-04-10T08:18:54.741Z</time></trkpt><trkpt lat="41.9509105" lon="13.4147838"><ele>728.0</ele><time>2026-04-10T08:18:55.747Z</time></trkpt><trkpt lat="41.9511228" lon="13.4145619"><ele>730.0</ele><time>2026-04-10T08:18:56.749Z</time></trkpt><trkpt lat="41.9513334" lon="13.41434"><ele>730.0</ele><time>2026-04-10T08:18:57.749Z</time></trkpt><trkpt lat="41.9515404" lon="13.4141153"><ele>730.0</ele><time>2026-04-10T08:18:58.745Z</time></trkpt><trkpt lat="41.9517444" lon="13.4138851"><ele>730.0</ele><time>2026-04-10T08:18:59.754Z</time></trkpt><trkpt lat="41.9519433" lon="13.413652"><ele>730.0</ele><time>2026-04-10T08:19:00.755Z</time></trkpt><trkpt lat="41.952142" lon="13.4134133"><ele>730.0</ele><time>2026-04-10T08:19:01.756Z</time></trkpt><trkpt lat="41.9523384" lon="13.4131306"><ele>730.0</ele><time>2026-04-10T08:19:02.757Z</time></trkpt><trkpt lat="41.952525" lon="13.4128796"><ele>735.0</ele><time>2026-04-10T08:19:03.755Z</time></trkpt><trkpt lat="41.9527146" lon="13.4126073"><ele>740.0</ele><time>2026-04-10T08:19:04.757Z</time></trkpt><trkpt lat="41.9529026" lon="13.4123373"><ele>733.5</ele><time>2026-04-10T08:19:05.746Z</time></trkpt><trkpt lat="41.9530886" lon="13.4120663"><ele>727.0</ele><time>2026-04-10T08:19:06.749Z</time></trkpt><trkpt lat="41.9532718" lon="13.411801"><ele>727.5</ele><time>2026-04-10T08:19:07.757Z</time></trkpt><trkpt lat="41.9534587" lon="13.4115377"><ele>728.0</ele><time>2026-04-10T08:19:08.746Z</time></trkpt><trkpt lat="41.9536475" lon="13.4112915"><ele>728.0</ele><time>2026-04-10T08:19:09.747Z</time></trkpt><trkpt lat="41.953838" lon="13.4110647"><ele>728.0</ele><time>2026-04-10T08:19:10.74Z</time></trkpt><trkpt lat="41.9540363" lon="13.4108565"><ele>734.0</ele><time>2026-04-10T08:19:11.738Z</time></trkpt><trkpt lat="41.9542429" lon="13.410666"><ele>740.0</ele><time>2026-04-10T08:19:12.747Z</time></trkpt><trkpt lat="41.9544584" lon="13.4104857"><ele>740.0</ele><time>2026-04-10T08:19:13.743Z</time></trkpt><trkpt lat="41.954683" lon="13.4103223"><ele>740.0</ele><time>2026-04-10T08:19:14.75Z</time></trkpt><trkpt lat="41.9549171" lon="13.4101716"><ele>757.0</ele><time>2026-04-10T08:19:15.747Z</time></trkpt><trkpt lat="41.9551485" lon="13.4100361"><ele>774.0</ele><time>2026-04-10T08:19:16.747Z</time></trkpt><trkpt lat="41.955379" lon="13.4099054"><ele>774.0</ele><time>2026-04-10T08:19:17.737Z</time></trkpt><trkpt lat="41.9556075" lon="13.4097757"><ele>774.0</ele><time>2026-04-10T08:19:18.701Z</time></trkpt><trkpt lat="41.9558301" lon="13.4096464"><ele>785.5</ele><time>2026-04-10T08:19:19.688Z</time></trkpt><trkpt lat="41.9560458" lon="13.409523"><ele>797.0</ele><time>2026-04-10T08:19:20.684Z</time></trkpt><trkpt lat="41.9562546" lon="13.4094166"><ele>797.0</ele><time>2026-04-10T08:19:21.646Z</time></trkpt><trkpt lat="41.956455" lon="13.4093197"><ele>797.0</ele><time>2026-04-10T08:19:22.628Z</time></trkpt><trkpt lat="41.9566488" lon="13.4092266"><ele>797.0</ele><time>2026-04-10T08:19:23.623Z</time></trkpt><trkpt lat="41.956842" lon="13.4091318"><ele>812.0</ele><time>2026-04-10T08:19:24.624Z</time></trkpt><trkpt lat="41.9570299" lon="13.4090456"><ele>827.0</ele><time>2026-04-10T08:19:25.622Z</time></trkpt><trkpt lat="41.957206" lon="13.4089619"><ele>842.0</ele><time>2026-04-10T08:19:26.62Z</time></trkpt><trkpt lat="41.9573555" lon="13.408891"><ele>836.6666666666667</ele><time>2026-04-10T08:19:27.622Z</time></trkpt><trkpt lat="41.957514" lon="13.4088115"><ele>831.3333333333333</ele><time>2026-04-10T08:19:28.62Z</time></trkpt><trkpt lat="41.9576669" lon="13.408733"><ele>826.0</ele><time>2026-04-10T08:19:29.624Z</time></trkpt><trkpt lat="41.9578124" lon="13.40866"><ele>838.0</ele><time>2026-04-10T08:19:30.625Z</time></trkpt><trkpt lat="41.9579576" lon="13.4085864"><ele>850.0</ele><time>2026-04-10T08:19:31.624Z</time></trkpt><trkpt lat="41.9580973" lon="13.4085152"><ele>862.0</ele><time>2026-04-10T08:19:32.619Z</time></trkpt><trkpt lat="41.9582109" lon="13.4084578"><ele>874.0</ele><time>2026-04-10T08:19:33.619Z</time></trkpt><trkpt lat="41.958331" lon="13.4083977"><ele>883.4000000000001</ele><time>2026-04-10T08:19:34.619Z</time></trkpt><trkpt lat="41.9584471" lon="13.4083393"><ele>892.8000000000001</ele><time>2026-04-10T08:19:35.627Z</time></trkpt><trkpt lat="41.9585503" lon="13.4082857"><ele>902.1999999999999</ele><time>2026-04-10T08:19:36.621Z</time></trkpt><trkpt lat="41.9586519" lon="13.4082381"><ele>911.5999999999999</ele><time>2026-04-10T08:19:37.622Z</time></trkpt><trkpt lat="41.9587448" lon="13.4081923"><ele>921.0</ele><time>2026-04-10T08:19:38.619Z</time></trkpt><trkpt lat="41.9588216" lon="13.4081564"><ele>921.0</ele><time>2026-04-10T08:19:39.621Z</time></trkpt><trkpt lat="41.9589009" lon="13.4081181"><ele>920.9999999999999</ele><time>2026-04-10T08:19:40.621Z</time></trkpt><trkpt lat="41.958964" lon="13.4080853"><ele>920.9999999999999</ele><time>2026-04-10T08:19:41.623Z</time></trkpt><trkpt lat="41.9590682" lon="13.4080281"><ele>921.0</ele><time>2026-04-10T08:19:43.619Z</time></trkpt><trkpt lat="41.9591802" lon="13.407967"><ele>921.0</ele><time>2026-04-10T08:19:45.621Z</time></trkpt><trkpt lat="41.9592602" lon="13.4079234"><ele>933.0</ele><time>2026-04-10T08:19:49.62Z</time></trkpt><trkpt lat="41.9593266" lon="13.4078846"><ele>945.0</ele><time>2026-04-10T08:19:51.62Z</time></trkpt><trkpt lat="41.9594295" lon="13.4078397"><ele>957.0</ele><time>2026-04-10T08:20:02.619Z</time></trkpt><trkpt lat="41.9597137" lon="13.4076722"><ele>957.0</ele><time>2026-04-10T08:20:03.619Z</time></trkpt><trkpt lat="41.959811" lon="13.4076168"><ele>957.0</ele><time>2026-04-10T08:20:05.62Z</time></trkpt><trkpt lat="41.9599606" lon="13.4075334"><ele>957.0</ele><time>2026-04-10T08:20:06.626Z</time></trkpt><trkpt lat="41.9600989" lon="13.4074576"><ele>957.0</ele><time>2026-04-10T08:20:08.618Z</time></trkpt><trkpt lat="41.9697208" lon="13.402056"><ele>883.3333333333334</ele><time>2026-04-10T08:20:25.699Z</time></trkpt><trkpt lat="41.9699195" lon="13.4019829"><ele>809.6666666666667</ele><time>2026-04-10T08:20:26.725Z</time></trkpt><trkpt lat="41.970148" lon="13.4019827"><ele>736.0</ele><time>2026-04-10T08:20:27.735Z</time></trkpt><trkpt lat="41.9703892" lon="13.4020871"><ele>734.0</ele><time>2026-04-10T08:20:28.737Z</time></trkpt><trkpt lat="41.9705817" lon="13.4020792"><ele>732.0</ele><time>2026-04-10T08:20:29.737Z</time></trkpt><trkpt lat="41.9708044" lon="13.4021087"><ele>730.0</ele><time>2026-04-10T08:20:30.743Z</time></trkpt><trkpt lat="41.9710404" lon="13.4021546"><ele>730.5</ele><time>2026-04-10T08:20:31.744Z</time></trkpt><trkpt lat="41.9712771" lon="13.4022201"><ele>731.0</ele><time>2026-04-10T08:20:32.74Z</time></trkpt><trkpt lat="41.9715136" lon="13.4022996"><ele>731.0</ele><time>2026-04-10T08:20:33.746Z</time></trkpt><trkpt lat="41.9717445" lon="13.4023924"><ele>731.0</ele><time>2026-04-10T08:20:34.747Z</time></trkpt><trkpt lat="41.9719692" lon="13.4024932"><ele>731.0</ele><time>2026-04-10T08:20:35.75Z</time></trkpt><trkpt lat="41.9721895" lon="13.40259"><ele>731.0</ele><time>2026-04-10T08:20:36.748Z</time></trkpt><trkpt lat="41.9724043" lon="13.4026869"><ele>729.5</ele><time>2026-04-10T08:20:37.753Z</time></trkpt><trkpt lat="41.972828" lon="13.4028863"><ele>728.0</ele><time>2026-04-10T08:20:39.759Z</time></trkpt><trkpt lat="41.9732465" lon="13.403092"><ele>727.0</ele><time>2026-04-10T08:20:41.752Z</time></trkpt><trkpt lat="41.9734563" lon="13.4031935"><ele>726.0</ele><time>2026-04-10T08:20:42.735Z</time></trkpt><trkpt lat="41.9736598" lon="13.4032925"><ele>725.0</ele><time>2026-04-10T08:20:43.74Z</time></trkpt><trkpt lat="41.9738709" lon="13.403393"><ele>725.0</ele><time>2026-04-10T08:20:44.73Z</time></trkpt><trkpt lat="41.9740788" lon="13.4034867"><ele>725.0</ele><time>2026-04-10T08:20:45.748Z</time></trkpt><trkpt lat="41.9742968" lon="13.403584"><ele>725.0</ele><time>2026-04-10T08:20:46.743Z</time></trkpt><trkpt lat="41.9745199" lon="13.4036831"><ele>725.0</ele><time>2026-04-10T08:20:47.74Z</time></trkpt><trkpt lat="41.9747478" lon="13.4037838"><ele>725.0</ele><time>2026-04-10T08:20:48.742Z</time></trkpt><trkpt lat="41.9749759" lon="13.4038834"><ele>724.5</ele><time>2026-04-10T08:20:49.748Z</time></trkpt><trkpt lat="41.9752036" lon="13.4039813"><ele>724.0</ele><time>2026-04-10T08:20:50.769Z</time></trkpt><trkpt lat="41.9754329" lon="13.4040798"><ele>724.0</ele><time>2026-04-10T08:20:51.746Z</time></trkpt><trkpt lat="41.9756654" lon="13.4041777"><ele>724.0</ele><time>2026-04-10T08:20:52.738Z</time></trkpt><trkpt lat="41.9758987" lon="13.4042788"><ele>724.5</ele><time>2026-04-10T08:20:53.744Z</time></trkpt><trkpt lat="41.9761276" lon="13.4043826"><ele>725.0</ele><time>2026-04-10T08:20:54.757Z</time></trkpt><trkpt lat="41.9763609" lon="13.4044859"><ele>725.0</ele><time>2026-04-10T08:20:55.749Z</time></trkpt><trkpt lat="41.9765986" lon="13.4045926"><ele>725.0</ele><time>2026-04-10T08:20:56.761Z</time></trkpt><trkpt lat="41.9768383" lon="13.4046984"><ele>724.5</ele><time>2026-04-10T08:20:57.752Z</time></trkpt><trkpt lat="41.9770833" lon="13.4048096"><ele>724.0</ele><time>2026-04-10T08:20:58.745Z</time></trkpt><trkpt lat="41.9773275" lon="13.4049214"><ele>723.5</ele><time>2026-04-10T08:20:59.756Z</time></trkpt><trkpt lat="41.977568" lon="13.4050275"><ele>723.0</ele><time>2026-04-10T08:21:00.75Z</time></trkpt><trkpt lat="41.9778097" lon="13.4051331"><ele>723.0</ele><time>2026-04-10T08:21:01.74Z</time></trkpt><trkpt lat="41.9780476" lon="13.4052298"><ele>723.0</ele><time>2026-04-10T08:21:02.748Z</time></trkpt><trkpt lat="41.9782813" lon="13.4053303"><ele>722.0</ele><time>2026-04-10T08:21:03.753Z</time></trkpt><trkpt lat="41.9785136" lon="13.4054284"><ele>721.0</ele><time>2026-04-10T08:21:04.761Z</time></trkpt><trkpt lat="41.9787455" lon="13.4055259"><ele>720.5</ele><time>2026-04-10T08:21:05.745Z</time></trkpt><trkpt lat="41.9789719" lon="13.4056259"><ele>720.0</ele><time>2026-04-10T08:21:06.756Z</time></trkpt><trkpt lat="41.9791943" lon="13.4057303"><ele>720.0</ele><time>2026-04-10T08:21:07.746Z</time></trkpt><trkpt lat="41.9794182" lon="13.4058424"><ele>720.0</ele><time>2026-04-10T08:21:08.77Z</time></trkpt><trkpt lat="41.9796397" lon="13.4059611"><ele>720.0</ele><time>2026-04-10T08:21:09.75Z</time></trkpt><trkpt lat="41.9798563" lon="13.4060855"><ele>720.0</ele><time>2026-04-10T08:21:10.749Z</time></trkpt><trkpt lat="41.9800814" lon="13.4062211"><ele>721.5</ele><time>2026-04-10T08:21:11.744Z</time></trkpt><trkpt lat="41.9803009" lon="13.4063659"><ele>723.0</ele><time>2026-04-10T08:21:12.748Z</time></trkpt><trkpt lat="41.9805193" lon="13.4065238"><ele>723.0</ele><time>2026-04-10T08:21:13.744Z</time></trkpt><trkpt lat="41.980737" lon="13.406691"><ele>723.0</ele><time>2026-04-10T08:21:14.75Z</time></trkpt><trkpt lat="41.9809626" lon="13.4068683"><ele>723.0</ele><time>2026-04-10T08:21:15.745Z</time></trkpt><trkpt lat="41.9811834" lon="13.4070532"><ele>723.0</ele><time>2026-04-10T08:21:16.755Z</time></trkpt><trkpt lat="41.9814023" lon="13.4072424"><ele>723.0</ele><time>2026-04-10T08:21:17.752Z</time></trkpt><trkpt lat="41.9816224" lon="13.4074298"><ele>723.0</ele><time>2026-04-10T08:21:18.75Z</time></trkpt><trkpt lat="41.9818415" lon="13.4076175"><ele>723.0</ele><time>2026-04-10T08:21:19.758Z</time></trkpt><trkpt lat="41.9822774" lon="13.4079822"><ele>722.5</ele><time>2026-04-10T08:21:21.752Z</time></trkpt><trkpt lat="41.9824977" lon="13.408162"><ele>722.0</ele><time>2026-04-10T08:21:22.759Z</time></trkpt><trkpt lat="41.9827281" lon="13.4083496"><ele>722.0</ele><time>2026-04-10T08:21:23.749Z</time></trkpt><trkpt lat="41.9829615" lon="13.4085423"><ele>722.0</ele><time>2026-04-10T08:21:24.757Z</time></trkpt><trkpt lat="41.9831846" lon="13.4087361"><ele>723.5</ele><time>2026-04-10T08:21:25.748Z</time></trkpt><trkpt lat="41.9834024" lon="13.4089273"><ele>725.0</ele><time>2026-04-10T08:21:26.757Z</time></trkpt><trkpt lat="41.9836169" lon="13.4091127"><ele>725.0</ele><time>2026-04-10T08:21:27.748Z</time></trkpt><trkpt lat="41.9838233" lon="13.4092942"><ele>725.0</ele><time>2026-04-10T08:21:28.756Z</time></trkpt><trkpt lat="41.9840288" lon="13.4094737"><ele>725.5</ele><time>2026-04-10T08:21:29.75Z</time></trkpt><trkpt lat="41.9842343" lon="13.4096522"><ele>726.0</ele><time>2026-04-10T08:21:30.765Z</time></trkpt><trkpt lat="41.9844397" lon="13.4098263"><ele>726.0</ele><time>2026-04-10T08:21:31.761Z</time></trkpt><trkpt lat="41.9846472" lon="13.4099942"><ele>726.0</ele><time>2026-04-10T08:21:32.754Z</time></trkpt><trkpt lat="41.9848548" lon="13.4101667"><ele>725.5</ele><time>2026-04-10T08:21:33.756Z</time></trkpt><trkpt lat="41.9850588" lon="13.41034"><ele>725.0</ele><time>2026-04-10T08:21:34.756Z</time></trkpt><trkpt lat="41.9852603" lon="13.4105149"><ele>727.0</ele><time>2026-04-10T08:21:35.755Z</time></trkpt><trkpt lat="41.9854618" lon="13.4106919"><ele>729.0</ele><time>2026-04-10T08:21:36.755Z</time></trkpt><trkpt lat="41.9856722" lon="13.4108748"><ele>727.0</ele><time>2026-04-10T08:21:37.761Z</time></trkpt><trkpt lat="41.986087" lon="13.4112414"><ele>727.5</ele><time>2026-04-10T08:21:39.773Z</time></trkpt><trkpt lat="41.9863023" lon="13.411424"><ele>728.0</ele><time>2026-04-10T08:21:40.758Z</time></trkpt><trkpt lat="41.9865185" lon="13.4116082"><ele>726.5</ele><time>2026-04-10T08:21:41.757Z</time></trkpt><trkpt lat="41.986733" lon="13.4117938"><ele>725.0</ele><time>2026-04-10T08:21:42.759Z</time></trkpt><trkpt lat="41.9869448" lon="13.4119798"><ele>724.5</ele><time>2026-04-10T08:21:43.759Z</time></trkpt><trkpt lat="41.9871577" lon="13.4121627"><ele>724.0</ele><time>2026-04-10T08:21:44.759Z</time></trkpt><trkpt lat="41.9873736" lon="13.4123453"><ele>723.0</ele><time>2026-04-10T08:21:45.756Z</time></trkpt><trkpt lat="41.987587" lon="13.4125243"><ele>722.0</ele><time>2026-04-10T08:21:46.762Z</time></trkpt><trkpt lat="41.9877986" lon="13.4127005"><ele>722.0</ele><time>2026-04-10T08:21:47.76Z</time></trkpt><trkpt lat="41.9880038" lon="13.4128787"><ele>722.0</ele><time>2026-04-10T08:21:48.758Z</time></trkpt><trkpt lat="41.9882075" lon="13.4130577"><ele>722.5</ele><time>2026-04-10T08:21:49.754Z</time></trkpt><trkpt lat="41.9884076" lon="13.413233"><ele>723.0</ele><time>2026-04-10T08:21:50.755Z</time></trkpt><trkpt lat="41.9886138" lon="13.413413"><ele>723.0</ele><time>2026-04-10T08:21:51.756Z</time></trkpt><trkpt lat="41.9888334" lon="13.413597"><ele>723.0</ele><time>2026-04-10T08:21:52.743Z</time></trkpt><trkpt lat="41.9890571" lon="13.4137911"><ele>724.5</ele><time>2026-04-10T08:21:53.749Z</time></trkpt><trkpt lat="41.9892882" lon="13.4139946"><ele>726.0</ele><time>2026-04-10T08:21:54.751Z</time></trkpt><trkpt lat="41.9895162" lon="13.4141945"><ele>726.0</ele><time>2026-04-10T08:21:55.749Z</time></trkpt><trkpt lat="41.9897388" lon="13.4143924"><ele>726.0</ele><time>2026-04-10T08:21:56.745Z</time></trkpt><trkpt lat="41.9899555" lon="13.4145811"><ele>729.5</ele><time>2026-04-10T08:21:57.747Z</time></trkpt><trkpt lat="41.9901696" lon="13.4147649"><ele>733.0</ele><time>2026-04-10T08:21:58.75Z</time></trkpt><trkpt lat="41.9903829" lon="13.4149431"><ele>733.0</ele><time>2026-04-10T08:21:59.746Z</time></trkpt><trkpt lat="41.9905919" lon="13.4151158"><ele>733.0</ele><time>2026-04-10T08:22:00.736Z</time></trkpt><trkpt lat="41.9907984" lon="13.4152906"><ele>737.5</ele><time>2026-04-10T08:22:01.721Z</time></trkpt><trkpt lat="41.9910066" lon="13.4154632"><ele>742.0</ele><time>2026-04-10T08:22:02.686Z</time></trkpt><trkpt lat="41.9912169" lon="13.4156291"><ele>747.5</ele><time>2026-04-10T08:22:03.677Z</time></trkpt><trkpt lat="41.9914274" lon="13.4157933"><ele>753.0</ele><time>2026-04-10T08:22:04.647Z</time></trkpt><trkpt lat="41.9916321" lon="13.4159649"><ele>761.0</ele><time>2026-04-10T08:22:05.621Z</time></trkpt><trkpt lat="41.9918321" lon="13.4161434"><ele>769.0</ele><time>2026-04-10T08:22:06.626Z</time></trkpt><trkpt lat="41.9920364" lon="13.4163171"><ele>780.0</ele><time>2026-04-10T08:22:07.624Z</time></trkpt><trkpt lat="41.9922392" lon="13.4164837"><ele>791.0</ele><time>2026-04-10T08:22:08.623Z</time></trkpt><trkpt lat="41.9924388" lon="13.416642"><ele>801.0</ele><time>2026-04-10T08:22:09.63Z</time></trkpt><trkpt lat="41.9926313" lon="13.4167968"><ele>811.0</ele><time>2026-04-10T08:22:10.624Z</time></trkpt><trkpt lat="41.9929593" lon="13.4170984"><ele>820.0</ele><time>2026-04-10T08:22:12.625Z</time></trkpt><trkpt lat="41.9931211" lon="13.4172414"><ele>829.0</ele><time>2026-04-10T08:22:13.625Z</time></trkpt><trkpt lat="41.9932744" lon="13.4173745"><ele>838.0</ele><time>2026-04-10T08:22:14.624Z</time></trkpt><trkpt lat="41.9934247" lon="13.4174968"><ele>842.3333333333333</ele><time>2026-04-10T08:22:15.624Z</time></trkpt><trkpt lat="41.9935751" lon="13.4176203"><ele>846.6666666666667</ele><time>2026-04-10T08:22:16.626Z</time></trkpt><trkpt lat="41.9937236" lon="13.4177439"><ele>851.0</ele><time>2026-04-10T08:22:17.627Z</time></trkpt><trkpt lat="41.9938566" lon="13.4178568"><ele>851.0</ele><time>2026-04-10T08:22:18.627Z</time></trkpt><trkpt lat="41.9939945" lon="13.4179725"><ele>851.0</ele><time>2026-04-10T08:22:19.627Z</time></trkpt><trkpt lat="41.9941013" lon="13.4180637"><ele>851.0</ele><time>2026-04-10T08:22:20.633Z</time></trkpt><trkpt lat="41.9937355" lon="13.417742"><ele>851.0</ele><time>2026-04-10T08:22:21.637Z</time></trkpt><trkpt lat="41.9938802" lon="13.4178361"><ele>851.0</ele><time>2026-04-10T08:22:24.633Z</time></trkpt><trkpt lat="41.9939781" lon="13.4179079"><ele>851.0</ele><time>2026-04-10T08:22:25.631Z</time></trkpt><trkpt lat="41.9941012" lon="13.4180039"><ele>851.0</ele><time>2026-04-10T08:22:26.631Z</time></trkpt><trkpt lat="41.9941835" lon="13.4180651"><ele>859.0</ele><time>2026-04-10T08:22:27.632Z</time></trkpt><trkpt lat="41.9942619" lon="13.4181223"><ele>867.0</ele><time>2026-04-10T08:22:28.634Z</time></trkpt><trkpt lat="41.9943768" lon="13.418205"><ele>874.9999999999999</ele><time>2026-04-10T08:22:29.634Z</time></trkpt><trkpt lat="41.9944795" lon="13.4182793"><ele>883.0</ele><time>2026-04-10T08:22:30.638Z</time></trkpt><trkpt lat="41.9945787" lon="13.4183485"><ele>891.0</ele><time>2026-04-10T08:22:31.649Z</time></trkpt><trkpt lat="41.9946621" lon="13.4184082"><ele>891.0</ele><time>2026-04-10T08:22:32.633Z</time></trkpt><trkpt lat="41.9947594" lon="13.4184798"><ele>891.0</ele><time>2026-04-10T08:22:33.632Z</time></trkpt><trkpt lat="41.994834" lon="13.4185357"><ele>891.0</ele><time>2026-04-10T08:22:34.631Z</time></trkpt><trkpt lat="41.994893" lon="13.4185844"><ele>891.0</ele><time>2026-04-10T08:22:35.634Z</time></trkpt><trkpt lat="41.9950603" lon="13.4187056"><ele>896.0</ele><time>2026-04-10T08:22:36.635Z</time></trkpt><trkpt lat="41.9952701" lon="13.4188528"><ele>901.0</ele><time>2026-04-10T08:22:37.63Z</time></trkpt><trkpt lat="41.9954901" lon="13.4189963"><ele>901.0</ele><time>2026-04-10T08:22:38.673Z</time></trkpt><trkpt lat="41.9956261" lon="13.4191197"><ele>901.0</ele><time>2026-04-10T08:22:39.704Z</time></trkpt><trkpt lat="41.9958367" lon="13.4192344"><ele>901.0</ele><time>2026-04-10T08:22:40.71Z</time></trkpt><trkpt lat="41.9960124" lon="13.4193036"><ele>702.0</ele><time>2026-04-10T08:22:41.716Z</time></trkpt><trkpt lat="41.9995226" lon="13.4224822"><ele>702.0</ele><time>2026-04-10T08:22:42.739Z</time></trkpt><trkpt lat="41.9998164" lon="13.4226119"><ele>702.0</ele><time>2026-04-10T08:22:43.739Z</time></trkpt><trkpt lat="42.0000674" lon="13.4227028"><ele>702.0</ele><time>2026-04-10T08:22:44.744Z</time></trkpt><trkpt lat="42.0002539" lon="13.4227508"><ele>702.0</ele><time>2026-04-10T08:22:45.749Z</time></trkpt><trkpt lat="42.0004997" lon="13.4228247"><ele>702.0</ele><time>2026-04-10T08:22:46.747Z</time></trkpt><trkpt lat="42.0007453" lon="13.4228688"><ele>701.5</ele><time>2026-04-10T08:22:47.751Z</time></trkpt><trkpt lat="42.0009995" lon="13.4228993"><ele>701.0</ele><time>2026-04-10T08:22:48.75Z</time></trkpt><trkpt lat="42.0012558" lon="13.4229186"><ele>701.0</ele><time>2026-04-10T08:22:49.757Z</time></trkpt><trkpt lat="42.0015135" lon="13.4229278"><ele>701.0</ele><time>2026-04-10T08:22:50.75Z</time></trkpt><trkpt lat="42.0017723" lon="13.4229245"><ele>700.0</ele><time>2026-04-10T08:22:51.768Z</time></trkpt><trkpt lat="42.0020346" lon="13.4229018"><ele>699.0</ele><time>2026-04-10T08:22:52.758Z</time></trkpt><trkpt lat="42.0022989" lon="13.4228675"><ele>698.5</ele><time>2026-04-10T08:22:53.765Z</time></trkpt><trkpt lat="42.0025624" lon="13.4228186"><ele>698.0</ele><time>2026-04-10T08:22:54.756Z</time></trkpt><trkpt lat="42.0028332" lon="13.4227522"><ele>698.0</ele><time>2026-04-10T08:22:55.754Z</time></trkpt><trkpt lat="42.0030913" lon="13.422674"><ele>698.0</ele><time>2026-04-10T08:22:56.747Z</time></trkpt><trkpt lat="42.0033453" lon="13.4225789"><ele>696.5</ele><time>2026-04-10T08:22:57.748Z</time></trkpt><trkpt lat="42.0035989" lon="13.4224722"><ele>695.0</ele><time>2026-04-10T08:22:58.754Z</time></trkpt><trkpt lat="42.0038469" lon="13.4223576"><ele>695.0</ele><time>2026-04-10T08:22:59.758Z</time></trkpt><trkpt lat="42.0040907" lon="13.4222424"><ele>695.0</ele><time>2026-04-10T08:23:00.756Z</time></trkpt><trkpt lat="42.0043343" lon="13.4221263"><ele>696.0</ele><time>2026-04-10T08:23:01.786Z</time></trkpt><trkpt lat="42.0045754" lon="13.4220077"><ele>697.0</ele><time>2026-04-10T08:23:02.755Z</time></trkpt><trkpt lat="42.0048166" lon="13.4218906"><ele>696.5</ele><time>2026-04-10T08:23:03.753Z</time></trkpt><trkpt lat="42.0050562" lon="13.4217763"><ele>696.0</ele><time>2026-04-10T08:23:04.755Z</time></trkpt><trkpt lat="42.0052926" lon="13.4216623"><ele>696.0</ele><time>2026-04-10T08:23:05.762Z</time></trkpt><trkpt lat="42.0055332" lon="13.4215503"><ele>696.0</ele><time>2026-04-10T08:23:06.755Z</time></trkpt><trkpt lat="42.0057712" lon="13.4214362"><ele>694.5</ele><time>2026-04-10T08:23:07.751Z</time></trkpt><trkpt lat="42.0060046" lon="13.4213226"><ele>693.0</ele><time>2026-04-10T08:23:08.753Z</time></trkpt><trkpt lat="42.0062368" lon="13.4212087"><ele>693.0</ele><time>2026-04-10T08:23:09.748Z</time></trkpt><trkpt lat="42.0064714" lon="13.4210928"><ele>693.0</ele><time>2026-04-10T08:23:10.756Z</time></trkpt><trkpt lat="42.0067108" lon="13.4209816"><ele>693.0</ele><time>2026-04-10T08:23:11.768Z</time></trkpt><trkpt lat="42.0069527" lon="13.4208725"><ele>693.0</ele><time>2026-04-10T08:23:12.753Z</time></trkpt><trkpt lat="42.0071934" lon="13.4207606"><ele>693.0</ele><time>2026-04-10T08:23:13.756Z</time></trkpt><trkpt lat="42.0074341" lon="13.4206459"><ele>693.0</ele><time>2026-04-10T08:23:14.756Z</time></trkpt><trkpt lat="42.0076713" lon="13.4205316"><ele>692.5</ele><time>2026-04-10T08:23:15.757Z</time></trkpt><trkpt lat="42.0079077" lon="13.4204182"><ele>692.0</ele><time>2026-04-10T08:23:16.756Z</time></trkpt><trkpt lat="42.0081444" lon="13.4203104"><ele>691.0</ele><time>2026-04-10T08:23:17.762Z</time></trkpt><trkpt lat="42.0083843" lon="13.4202021"><ele>690.0</ele><time>2026-04-10T08:23:18.757Z</time></trkpt><trkpt lat="42.0086225" lon="13.4200917"><ele>690.0</ele><time>2026-04-10T08:23:19.759Z</time></trkpt><trkpt lat="42.0088592" lon="13.4199797"><ele>690.0</ele><time>2026-04-10T08:23:20.751Z</time></trkpt><trkpt lat="42.0090947" lon="13.4198632"><ele>690.0</ele><time>2026-04-10T08:23:21.77Z</time></trkpt><trkpt lat="42.009331" lon="13.4197536"><ele>690.0</ele><time>2026-04-10T08:23:22.759Z</time></trkpt><trkpt lat="42.0095661" lon="13.4196448"><ele>690.5</ele><time>2026-04-10T08:23:23.757Z</time></trkpt><trkpt lat="42.0098018" lon="13.4195332"><ele>691.0</ele><time>2026-04-10T08:23:24.774Z</time></trkpt><trkpt lat="42.0100395" lon="13.4194225"><ele>691.5</ele><time>2026-04-10T08:23:25.763Z</time></trkpt><trkpt lat="42.0102765" lon="13.4193131"><ele>692.0</ele><time>2026-04-10T08:23:26.758Z</time></trkpt><trkpt lat="42.0105126" lon="13.4192048"><ele>692.0</ele><time>2026-04-10T08:23:27.756Z</time></trkpt><trkpt lat="42.0107482" lon="13.4190987"><ele>692.0</ele><time>2026-04-10T08:23:28.761Z</time></trkpt><trkpt lat="42.0109843" lon="13.4189934"><ele>692.5</ele><time>2026-04-10T08:23:29.759Z</time></trkpt><trkpt lat="42.0112185" lon="13.4188843"><ele>693.0</ele><time>2026-04-10T08:23:30.758Z</time></trkpt><trkpt lat="42.0114503" lon="13.4187728"><ele>694.0</ele><time>2026-04-10T08:23:31.782Z</time></trkpt><trkpt lat="42.0116818" lon="13.418665"><ele>695.0</ele><time>2026-04-10T08:23:32.764Z</time></trkpt><trkpt lat="42.0119148" lon="13.4185587"><ele>695.0</ele><time>2026-04-10T08:23:33.755Z</time></trkpt><trkpt lat="42.0121489" lon="13.4184491"><ele>695.0</ele><time>2026-04-10T08:23:34.763Z</time></trkpt><trkpt lat="42.0123847" lon="13.418338"><ele>694.5</ele><time>2026-04-10T08:23:35.76Z</time></trkpt><trkpt lat="42.0126197" lon="13.4182283"><ele>694.0</ele><time>2026-04-10T08:23:36.762Z</time></trkpt><trkpt lat="42.012857" lon="13.418116"><ele>694.0</ele><time>2026-04-10T08:23:37.763Z</time></trkpt><trkpt lat="42.0130939" lon="13.4180033"><ele>694.0</ele><time>2026-04-10T08:23:38.757Z</time></trkpt><trkpt lat="42.0133315" lon="13.41789"><ele>696.0</ele><time>2026-04-10T08:23:39.758Z</time></trkpt><trkpt lat="42.0135694" lon="13.4177777"><ele>698.0</ele><time>2026-04-10T08:23:40.759Z</time></trkpt><trkpt lat="42.0138082" lon="13.4176633"><ele>698.0</ele><time>2026-04-10T08:23:41.769Z</time></trkpt><trkpt lat="42.0140493" lon="13.41755"><ele>698.0</ele><time>2026-04-10T08:23:42.765Z</time></trkpt><trkpt lat="42.0142883" lon="13.417436"><ele>697.0</ele><time>2026-04-10T08:23:43.757Z</time></trkpt><trkpt lat="42.01452" lon="13.4173191"><ele>696.0</ele><time>2026-04-10T08:23:44.759Z</time></trkpt><trkpt lat="42.0147547" lon="13.4172094"><ele>696.5</ele><time>2026-04-10T08:23:45.759Z</time></trkpt><trkpt lat="42.0149863" lon="13.4170999"><ele>697.0</ele><time>2026-04-10T08:23:46.753Z</time></trkpt><trkpt lat="42.0152178" lon="13.4169936"><ele>696.0</ele><time>2026-04-10T08:23:47.763Z</time></trkpt><trkpt lat="42.0154415" lon="13.4168887"><ele>695.0</ele><time>2026-04-10T08:23:48.756Z</time></trkpt><trkpt lat="42.0156641" lon="13.4167871"><ele>695.5</ele><time>2026-04-10T08:23:49.754Z</time></trkpt><trkpt lat="42.0158874" lon="13.4166869"><ele>696.0</ele><time>2026-04-10T08:23:50.753Z</time></trkpt><trkpt lat="42.0161102" lon="13.4165824"><ele>696.0</ele><time>2026-04-10T08:23:51.773Z</time></trkpt><trkpt lat="42.0163323" lon="13.4164759"><ele>696.0</ele><time>2026-04-10T08:23:52.758Z</time></trkpt><trkpt lat="42.0165551" lon="13.4163691"><ele>696.0</ele><time>2026-04-10T08:23:53.766Z</time></trkpt><trkpt lat="42.0167801" lon="13.4162592"><ele>696.0</ele><time>2026-04-10T08:23:54.761Z</time></trkpt><trkpt lat="42.0170061" lon="13.4161484"><ele>696.0</ele><time>2026-04-10T08:23:55.777Z</time></trkpt><trkpt lat="42.0172356" lon="13.416036"><ele>696.0</ele><time>2026-04-10T08:23:56.762Z</time></trkpt><trkpt lat="42.0174682" lon="13.4159277"><ele>697.0</ele><time>2026-04-10T08:23:57.753Z</time></trkpt><trkpt lat="42.0177044" lon="13.4158179"><ele>698.0</ele><time>2026-04-10T08:23:58.764Z</time></trkpt><trkpt lat="42.0179414" lon="13.4157073"><ele>698.0</ele><time>2026-04-10T08:23:59.763Z</time></trkpt><trkpt lat="42.0181735" lon="13.4155948"><ele>698.0</ele><time>2026-04-10T08:24:00.766Z</time></trkpt><trkpt lat="42.0183994" lon="13.4154821"><ele>697.5</ele><time>2026-04-10T08:24:01.786Z</time></trkpt><trkpt lat="42.0186255" lon="13.4153737"><ele>697.0</ele><time>2026-04-10T08:24:02.76Z</time></trkpt><trkpt lat="42.0188465" lon="13.4152684"><ele>697.0</ele><time>2026-04-10T08:24:03.755Z</time></trkpt><trkpt lat="42.0190765" lon="13.4151605"><ele>697.0</ele><time>2026-04-10T08:24:04.761Z</time></trkpt><trkpt lat="42.0193053" lon="13.4150525"><ele>696.5</ele><time>2026-04-10T08:24:05.761Z</time></trkpt><trkpt lat="42.019537" lon="13.4149453"><ele>696.0</ele><time>2026-04-10T08:24:06.751Z</time></trkpt><trkpt lat="42.0197716" lon="13.4148406"><ele>698.0</ele><time>2026-04-10T08:24:07.756Z</time></trkpt><trkpt lat="42.0200037" lon="13.4147336"><ele>700.0</ele><time>2026-04-10T08:24:08.757Z</time></trkpt><trkpt lat="42.0202347" lon="13.4146266"><ele>701.0</ele><time>2026-04-10T08:24:09.752Z</time></trkpt><trkpt lat="42.0204649" lon="13.4145179"><ele>702.0</ele><time>2026-04-10T08:24:10.761Z</time></trkpt><trkpt lat="42.0206944" lon="13.4144075"><ele>702.5</ele><time>2026-04-10T08:24:11.765Z</time></trkpt><trkpt lat="42.0209206" lon="13.4142992"><ele>703.0</ele><time>2026-04-10T08:24:12.757Z</time></trkpt><trkpt lat="42.0211438" lon="13.4141928"><ele>703.0</ele><time>2026-04-10T08:24:13.762Z</time></trkpt><trkpt lat="42.0213682" lon="13.4140865"><ele>703.0</ele><time>2026-04-10T08:24:14.758Z</time></trkpt><trkpt lat="42.0215979" lon="13.4139834"><ele>702.0</ele><time>2026-04-10T08:24:15.757Z</time></trkpt><trkpt lat="42.0218256" lon="13.4138808"><ele>701.0</ele><time>2026-04-10T08:24:16.761Z</time></trkpt><trkpt lat="42.0220599" lon="13.4137762"><ele>703.0</ele><time>2026-04-10T08:24:17.757Z</time></trkpt><trkpt lat="42.0222942" lon="13.4136716"><ele>705.0</ele><time>2026-04-10T08:24:18.755Z</time></trkpt><trkpt lat="42.0225289" lon="13.4135669"><ele>706.0</ele><time>2026-04-10T08:24:19.758Z</time></trkpt><trkpt lat="42.0227621" lon="13.413457"><ele>707.0</ele><time>2026-04-10T08:24:20.757Z</time></trkpt><trkpt lat="42.0229932" lon="13.4133485"><ele>707.0</ele><time>2026-04-10T08:24:21.765Z</time></trkpt><trkpt lat="42.0232273" lon="13.4132404"><ele>707.0</ele><time>2026-04-10T08:24:22.755Z</time></trkpt><trkpt lat="42.0234608" lon="13.413134"><ele>708.0</ele><time>2026-04-10T08:24:23.756Z</time></trkpt><trkpt lat="42.0236879" lon="13.4130288"><ele>709.0</ele><time>2026-04-10T08:24:24.762Z</time></trkpt><trkpt lat="42.0239068" lon="13.4129269"><ele>721.0</ele><time>2026-04-10T08:24:25.755Z</time></trkpt><trkpt lat="42.0243429" lon="13.4127198"><ele>721.0</ele><time>2026-04-10T08:24:27.753Z</time></trkpt><trkpt lat="42.024558" lon="13.4126175"><ele>721.0</ele><time>2026-04-10T08:24:28.752Z</time></trkpt><trkpt lat="42.0247734" lon="13.4125174"><ele>716.5</ele><time>2026-04-10T08:24:29.752Z</time></trkpt><trkpt lat="42.0249894" lon="13.4124159"><ele>712.0</ele><time>2026-04-10T08:24:30.756Z</time></trkpt><trkpt lat="42.0252047" lon="13.4123134"><ele>712.0</ele><time>2026-04-10T08:24:31.769Z</time></trkpt><trkpt lat="42.0254227" lon="13.4122097"><ele>712.0</ele><time>2026-04-10T08:24:32.752Z</time></trkpt><trkpt lat="42.0256397" lon="13.4121064"><ele>717.0</ele><time>2026-04-10T08:24:33.751Z</time></trkpt><trkpt lat="42.0258592" lon="13.4120053"><ele>722.0</ele><time>2026-04-10T08:24:34.757Z</time></trkpt><trkpt lat="42.0260793" lon="13.4119079"><ele>722.0</ele><time>2026-04-10T08:24:35.753Z</time></trkpt><trkpt lat="42.0263024" lon="13.4118207"><ele>722.0</ele><time>2026-04-10T08:24:36.745Z</time></trkpt><trkpt lat="42.0265294" lon="13.4117487"><ele>721.0</ele><time>2026-04-10T08:24:37.753Z</time></trkpt><trkpt lat="42.0267518" lon="13.4116943"><ele>720.0</ele><time>2026-04-10T08:24:38.752Z</time></trkpt><trkpt lat="42.0269766" lon="13.4116488"><ele>720.0</ele><time>2026-04-10T08:24:39.752Z</time></trkpt><trkpt lat="42.0271956" lon="13.4116081"><ele>720.0</ele><time>2026-04-10T08:24:40.756Z</time></trkpt><trkpt lat="42.0274141" lon="13.4115721"><ele>720.0</ele><time>2026-04-10T08:24:41.768Z</time></trkpt><trkpt lat="42.0276451" lon="13.4115419"><ele>721.0</ele><time>2026-04-10T08:24:42.751Z</time></trkpt><trkpt lat="42.0278839" lon="13.4115153"><ele>722.0</ele><time>2026-04-10T08:24:43.751Z</time></trkpt><trkpt lat="42.0281245" lon="13.4114885"><ele>723.5</ele><time>2026-04-10T08:24:44.752Z</time></trkpt><trkpt lat="42.0283666" lon="13.4114618"><ele>725.0</ele><time>2026-04-10T08:24:45.745Z</time></trkpt><trkpt lat="42.0286104" lon="13.4114348"><ele>725.0</ele><time>2026-04-10T08:24:46.744Z</time></trkpt><trkpt lat="42.028855" lon="13.4114051"><ele>725.0</ele><time>2026-04-10T08:24:47.746Z</time></trkpt><trkpt lat="42.0291048" lon="13.4113738"><ele>724.5</ele><time>2026-04-10T08:24:48.747Z</time></trkpt><trkpt lat="42.0293574" lon="13.4113436"><ele>724.0</ele><time>2026-04-10T08:24:49.754Z</time></trkpt><trkpt lat="42.029613" lon="13.4113156"><ele>733.0</ele><time>2026-04-10T08:24:50.743Z</time></trkpt><trkpt lat="42.0298712" lon="13.411289"><ele>742.0</ele><time>2026-04-10T08:24:51.765Z</time></trkpt><trkpt lat="42.0301306" lon="13.411259"><ele>744.0</ele><time>2026-04-10T08:24:52.75Z</time></trkpt><trkpt lat="42.0303896" lon="13.4112329"><ele>746.0</ele><time>2026-04-10T08:24:53.747Z</time></trkpt><trkpt lat="42.0306441" lon="13.4112058"><ele>746.0</ele><time>2026-04-10T08:24:54.748Z</time></trkpt><trkpt lat="42.0308962" lon="13.4111795"><ele>746.0</ele><time>2026-04-10T08:24:55.749Z</time></trkpt><trkpt lat="42.0311494" lon="13.4111515"><ele>746.0</ele><time>2026-04-10T08:24:56.747Z</time></trkpt><trkpt lat="42.0314043" lon="13.4111205"><ele>746.0</ele><time>2026-04-10T08:24:57.762Z</time></trkpt><trkpt lat="42.0316563" lon="13.4110919"><ele>745.5</ele><time>2026-04-10T08:24:58.746Z</time></trkpt><trkpt lat="42.0319042" lon="13.4110612"><ele>745.0</ele><time>2026-04-10T08:24:59.748Z</time></trkpt><trkpt lat="42.0321472" lon="13.4110275"><ele>745.0</ele><time>2026-04-10T08:25:00.751Z</time></trkpt><trkpt lat="42.0323967" lon="13.4109958"><ele>745.0</ele><time>2026-04-10T08:25:01.765Z</time></trkpt><trkpt lat="42.0326442" lon="13.410966"><ele>745.0</ele><time>2026-04-10T08:25:02.746Z</time></trkpt><trkpt lat="42.0328891" lon="13.4109384"><ele>745.0</ele><time>2026-04-10T08:25:03.749Z</time></trkpt><trkpt lat="42.0333801" lon="13.4108869"><ele>742.5</ele><time>2026-04-10T08:25:05.745Z</time></trkpt><trkpt lat="42.0336182" lon="13.410861"><ele>740.0</ele><time>2026-04-10T08:25:06.751Z</time></trkpt><trkpt lat="42.0338549" lon="13.4108353"><ele>740.0</ele><time>2026-04-10T08:25:07.749Z</time></trkpt><trkpt lat="42.0340917" lon="13.4108099"><ele>740.0</ele><time>2026-04-10T08:25:08.754Z</time></trkpt><trkpt lat="42.0343302" lon="13.4107852"><ele>735.0</ele><time>2026-04-10T08:25:09.759Z</time></trkpt><trkpt lat="42.0345727" lon="13.4107608"><ele>730.0</ele><time>2026-04-10T08:25:10.755Z</time></trkpt><trkpt lat="42.0348171" lon="13.4107337"><ele>726.5</ele><time>2026-04-10T08:25:11.769Z</time></trkpt><trkpt lat="42.0350612" lon="13.410705"><ele>723.0</ele><time>2026-04-10T08:25:12.764Z</time></trkpt><trkpt lat="42.0353071" lon="13.410679"><ele>723.0</ele><time>2026-04-10T08:25:13.756Z</time></trkpt><trkpt lat="42.0355493" lon="13.4106547"><ele>723.0</ele><time>2026-04-10T08:25:14.753Z</time></trkpt><trkpt lat="42.0357941" lon="13.4106295"><ele>721.5</ele><time>2026-04-10T08:25:15.765Z</time></trkpt><trkpt lat="42.036037" lon="13.4106039"><ele>720.0</ele><time>2026-04-10T08:25:16.76Z</time></trkpt><trkpt lat="42.0362808" lon="13.4105786"><ele>720.0</ele><time>2026-04-10T08:25:17.768Z</time></trkpt><trkpt lat="42.0365241" lon="13.410553"><ele>720.0</ele><time>2026-04-10T08:25:18.763Z</time></trkpt><trkpt lat="42.0367708" lon="13.4105253"><ele>721.0</ele><time>2026-04-10T08:25:19.76Z</time></trkpt><trkpt lat="42.0370135" lon="13.4104945"><ele>722.0</ele><time>2026-04-10T08:25:20.757Z</time></trkpt><trkpt lat="42.0372618" lon="13.4104639"><ele>719.0</ele><time>2026-04-10T08:25:21.761Z</time></trkpt><trkpt lat="42.0375234" lon="13.4104294"><ele>716.0</ele><time>2026-04-10T08:25:22.777Z</time></trkpt><trkpt lat="42.0377882" lon="13.4103932"><ele>716.0</ele><time>2026-04-10T08:25:23.759Z</time></trkpt><trkpt lat="42.0380574" lon="13.4103579"><ele>716.0</ele><time>2026-04-10T08:25:24.757Z</time></trkpt><trkpt lat="42.0383277" lon="13.4103204"><ele>715.5</ele><time>2026-04-10T08:25:25.761Z</time></trkpt><trkpt lat="42.0386092" lon="13.4102832"><ele>715.0</ele><time>2026-04-10T08:25:26.758Z</time></trkpt><trkpt lat="42.0389085" lon="13.4102437"><ele>713.5</ele><time>2026-04-10T08:25:27.757Z</time></trkpt><trkpt lat="42.0392214" lon="13.4102001"><ele>712.0</ele><time>2026-04-10T08:25:28.78Z</time></trkpt><trkpt lat="42.0395451" lon="13.4101487"><ele>712.0</ele><time>2026-04-10T08:25:29.758Z</time></trkpt><trkpt lat="42.0398744" lon="13.4100928"><ele>712.0</ele><time>2026-04-10T08:25:30.758Z</time></trkpt><trkpt lat="42.0401851" lon="13.410054"><ele>712.5</ele><time>2026-04-10T08:25:31.75Z</time></trkpt><trkpt lat="42.0404955" lon="13.4100274"><ele>713.0</ele><time>2026-04-10T08:25:32.765Z</time></trkpt><trkpt lat="42.0407792" lon="13.4100254"><ele>713.0</ele><time>2026-04-10T08:25:33.752Z</time></trkpt><trkpt lat="42.0410453" lon="13.4100454"><ele>713.0</ele><time>2026-04-10T08:25:34.75Z</time></trkpt><trkpt lat="42.0413015" lon="13.4100793"><ele>713.0</ele><time>2026-04-10T08:25:35.74Z</time></trkpt><trkpt lat="42.0415476" lon="13.4101259"><ele>713.0</ele><time>2026-04-10T08:25:36.752Z</time></trkpt><trkpt lat="42.0417583" lon="13.4101946"><ele>713.0</ele><time>2026-04-10T08:25:37.757Z</time></trkpt><trkpt lat="42.0419729" lon="13.4102529"><ele>713.0</ele><time>2026-04-10T08:25:38.759Z</time></trkpt><trkpt lat="42.0421887" lon="13.4103026"><ele>713.0</ele><time>2026-04-10T08:25:39.749Z</time></trkpt><trkpt lat="42.0424105" lon="13.4103535"><ele>713.0</ele><time>2026-04-10T08:25:40.763Z</time></trkpt><trkpt lat="42.0426386" lon="13.4104042"><ele>713.0</ele><time>2026-04-10T08:25:41.765Z</time></trkpt><trkpt lat="42.0428646" lon="13.4104532"><ele>713.0</ele><time>2026-04-10T08:25:42.775Z</time></trkpt><trkpt lat="42.0430918" lon="13.4105056"><ele>713.0</ele><time>2026-04-10T08:25:43.765Z</time></trkpt><trkpt lat="42.0433178" lon="13.4105586"><ele>714.0</ele><time>2026-04-10T08:25:44.765Z</time></trkpt><trkpt lat="42.0435464" lon="13.410608"><ele>715.0</ele><time>2026-04-10T08:25:45.766Z</time></trkpt><trkpt lat="42.0437742" lon="13.4106558"><ele>715.0</ele><time>2026-04-10T08:25:46.775Z</time></trkpt><trkpt lat="42.0440017" lon="13.4107029"><ele>715.0</ele><time>2026-04-10T08:25:47.773Z</time></trkpt><trkpt lat="42.044229" lon="13.410748"><ele>714.5</ele><time>2026-04-10T08:25:48.765Z</time></trkpt><trkpt lat="42.0444573" lon="13.4107901"><ele>714.0</ele><time>2026-04-10T08:25:49.778Z</time></trkpt><trkpt lat="42.0446832" lon="13.4108363"><ele>714.0</ele><time>2026-04-10T08:25:50.768Z</time></trkpt><trkpt lat="42.0449145" lon="13.410888"><ele>714.0</ele><time>2026-04-10T08:25:51.775Z</time></trkpt><trkpt lat="42.0451458" lon="13.4109375"><ele>715.0</ele><time>2026-04-10T08:25:52.78Z</time></trkpt><trkpt lat="42.0453747" lon="13.4109845"><ele>716.0</ele><time>2026-04-10T08:25:53.773Z</time></trkpt><trkpt lat="42.0456013" lon="13.4110317"><ele>717.0</ele><time>2026-04-10T08:25:54.776Z</time></trkpt><trkpt lat="42.0458279" lon="13.4110791"><ele>718.0</ele><time>2026-04-10T08:25:55.772Z</time></trkpt><trkpt lat="42.0460484" lon="13.411123"><ele>718.0</ele><time>2026-04-10T08:25:56.773Z</time></trkpt><trkpt lat="42.0462707" lon="13.4111665"><ele>718.0</ele><time>2026-04-10T08:25:57.766Z</time></trkpt><trkpt lat="42.0464958" lon="13.41121"><ele>717.5</ele><time>2026-04-10T08:25:58.785Z</time></trkpt><trkpt lat="42.0467176" lon="13.4112567"><ele>717.0</ele><time>2026-04-10T08:25:59.779Z</time></trkpt><trkpt lat="42.0469434" lon="13.411305"><ele>715.5</ele><time>2026-04-10T08:26:00.785Z</time></trkpt><trkpt lat="42.0471688" lon="13.4113523"><ele>714.0</ele><time>2026-04-10T08:26:01.788Z</time></trkpt><trkpt lat="42.0473922" lon="13.4113988"><ele>715.0</ele><time>2026-04-10T08:26:02.789Z</time></trkpt><trkpt lat="42.0476143" lon="13.4114437"><ele>716.0</ele><time>2026-04-10T08:26:03.782Z</time></trkpt><trkpt lat="42.0478341" lon="13.4114893"><ele>717.0</ele><time>2026-04-10T08:26:04.779Z</time></trkpt><trkpt lat="42.0480554" lon="13.4115347"><ele>717.0</ele><time>2026-04-10T08:26:05.777Z</time></trkpt><trkpt lat="42.0482743" lon="13.4115769"><ele>717.0</ele><time>2026-04-10T08:26:06.773Z</time></trkpt><trkpt lat="42.0484931" lon="13.4116205"><ele>717.0</ele><time>2026-04-10T08:26:07.779Z</time></trkpt><trkpt lat="42.0487103" lon="13.4116646"><ele>718.3333333333334</ele><time>2026-04-10T08:26:08.781Z</time></trkpt><trkpt lat="42.0489264" lon="13.4117051"><ele>719.6666666666667</ele><time>2026-04-10T08:26:09.779Z</time></trkpt><trkpt lat="42.0491392" lon="13.4117377"><ele>721.0</ele><time>2026-04-10T08:26:10.783Z</time></trkpt><trkpt lat="42.0493496" lon="13.4117592"><ele>722.0</ele><time>2026-04-10T08:26:11.773Z</time></trkpt><trkpt lat="42.0495589" lon="13.4117701"><ele>723.0</ele><time>2026-04-10T08:26:12.781Z</time></trkpt><trkpt lat="42.0497656" lon="13.4117689"><ele>724.0</ele><time>2026-04-10T08:26:13.773Z</time></trkpt><trkpt lat="42.0499699" lon="13.4117634"><ele>725.6666666666667</ele><time>2026-04-10T08:26:14.779Z</time></trkpt><trkpt lat="42.050171" lon="13.411756"><ele>727.3333333333334</ele><time>2026-04-10T08:26:15.773Z</time></trkpt><trkpt lat="42.0503761" lon="13.4117494"><ele>729.0</ele><time>2026-04-10T08:26:16.772Z</time></trkpt><trkpt lat="42.0505768" lon="13.4117537"><ele>729.0</ele><time>2026-04-10T08:26:17.787Z</time></trkpt><trkpt lat="42.0507653" lon="13.4117845"><ele>729.0</ele><time>2026-04-10T08:26:18.762Z</time></trkpt><trkpt lat="42.050941" lon="13.411846"><ele>729.0</ele><time>2026-04-10T08:26:19.753Z</time></trkpt><trkpt lat="42.05111" lon="13.4119423"><ele>730.3333333333334</ele><time>2026-04-10T08:26:20.747Z</time></trkpt><trkpt lat="42.0512495" lon="13.4120725"><ele>731.6666666666667</ele><time>2026-04-10T08:26:21.746Z</time></trkpt><trkpt lat="42.0513701" lon="13.412213"><ele>733.0</ele><time>2026-04-10T08:26:22.76Z</time></trkpt><trkpt lat="42.0514903" lon="13.4123037"><ele>733.2</ele><time>2026-04-10T08:26:23.744Z</time></trkpt><trkpt lat="42.0515897" lon="13.412369"><ele>733.4</ele><time>2026-04-10T08:26:24.765Z</time></trkpt><trkpt lat="42.0516668" lon="13.4125043"><ele>733.6</ele><time>2026-04-10T08:26:25.676Z</time></trkpt><trkpt lat="42.0517198" lon="13.4125769"><ele>733.8000000000001</ele><time>2026-04-10T08:26:26.673Z</time></trkpt><trkpt lat="42.0517648" lon="13.4126528"><ele>734.0</ele><time>2026-04-10T08:26:27.666Z</time></trkpt><trkpt lat="42.0517894" lon="13.4127499"><ele>734.4000000000001</ele><time>2026-04-10T08:26:28.666Z</time></trkpt><trkpt lat="42.0517915" lon="13.4128517"><ele>734.8</ele><time>2026-04-10T08:26:29.683Z</time></trkpt><trkpt lat="42.0517627" lon="13.4129594"><ele>735.2</ele><time>2026-04-10T08:26:30.674Z</time></trkpt><trkpt lat="42.051728" lon="13.4130903"><ele>735.5999999999999</ele><time>2026-04-10T08:26:31.672Z</time></trkpt><trkpt lat="42.0516753" lon="13.4132414"><ele>736.0</ele><time>2026-04-10T08:26:32.664Z</time></trkpt><trkpt lat="42.0516377" lon="13.413403"><ele>735.6666666666667</ele><time>2026-04-10T08:26:33.667Z</time></trkpt><trkpt lat="42.0515991" lon="13.4135356"><ele>735.3333333333334</ele><time>2026-04-10T08:26:34.672Z</time></trkpt><trkpt lat="42.051554" lon="13.4136349"><ele>735.0</ele><time>2026-04-10T08:26:35.667Z</time></trkpt><trkpt lat="42.0515163" lon="13.4137266"><ele>734.6666666666666</ele><time>2026-04-10T08:26:36.67Z</time></trkpt><trkpt lat="42.0514717" lon="13.4138142"><ele>734.3333333333333</ele><time>2026-04-10T08:26:37.671Z</time></trkpt><trkpt lat="42.0514458" lon="13.413897"><ele>734.0</ele><time>2026-04-10T08:26:38.666Z</time></trkpt><trkpt lat="42.0514669" lon="13.413997"><ele>733.6666666666666</ele><time>2026-04-10T08:26:39.651Z</time></trkpt><trkpt lat="42.0515044" lon="13.4140846"><ele>733.3333333333333</ele><time>2026-04-10T08:26:40.658Z</time></trkpt><trkpt lat="42.0515644" lon="13.4141312"><ele>733.0</ele><time>2026-04-10T08:26:41.667Z</time></trkpt><trkpt lat="42.0516291" lon="13.4141237"><ele>732.6666666666666</ele><time>2026-04-10T08:26:42.672Z</time></trkpt><trkpt lat="42.051711" lon="13.4140709"><ele>732.3333333333334</ele><time>2026-04-10T08:26:43.666Z</time></trkpt><trkpt lat="42.0518261" lon="13.4139992"><ele>732.0</ele><time>2026-04-10T08:26:44.66Z</time></trkpt><trkpt lat="42.0519778" lon="13.4139494"><ele>733.3333333333334</ele><time>2026-04-10T08:26:45.66Z</time></trkpt><trkpt lat="42.0521637" lon="13.413912"><ele>734.6666666666667</ele><time>2026-04-10T08:26:46.647Z</time></trkpt><trkpt lat="42.0523719" lon="13.4138698"><ele>736.0</ele><time>2026-04-10T08:26:47.656Z</time></trkpt><trkpt lat="42.0526555" lon="13.4137798"><ele>738.0</ele><time>2026-04-10T08:26:48.652Z</time></trkpt><trkpt lat="42.0528768" lon="13.4137441"><ele>740.0</ele><time>2026-04-10T08:26:49.652Z</time></trkpt><trkpt lat="42.0530786" lon="13.4137061"><ele>742.0</ele><time>2026-04-10T08:26:50.652Z</time></trkpt><trkpt lat="42.053304" lon="13.4136717"><ele>743.0</ele><time>2026-04-10T08:26:51.66Z</time></trkpt><trkpt lat="42.0535211" lon="13.4136143"><ele>744.0</ele><time>2026-04-10T08:26:52.656Z</time></trkpt><trkpt lat="42.0537485" lon="13.4135569"><ele>744.0</ele><time>2026-04-10T08:26:53.657Z</time></trkpt><trkpt lat="42.0539445" lon="13.413506"><ele>744.0</ele><time>2026-04-10T08:26:54.66Z</time></trkpt><trkpt lat="42.0541848" lon="13.4134747"><ele>744.0</ele><time>2026-04-10T08:26:55.667Z</time></trkpt><trkpt lat="42.054434" lon="13.413455"><ele>745.5</ele><time>2026-04-10T08:26:56.66Z</time></trkpt><trkpt lat="42.054672" lon="13.413424"><ele>747.0</ele><time>2026-04-10T08:26:57.671Z</time></trkpt><trkpt lat="42.0549264" lon="13.4133919"><ele>748.0</ele><time>2026-04-10T08:26:58.677Z</time></trkpt><trkpt lat="42.0551757" lon="13.4133379"><ele>749.0</ele><time>2026-04-10T08:26:59.677Z</time></trkpt><trkpt lat="42.055441" lon="13.4133096"><ele>749.0</ele><time>2026-04-10T08:27:00.691Z</time></trkpt><trkpt lat="42.0556992" lon="13.4132802"><ele>749.0</ele><time>2026-04-10T08:27:01.684Z</time></trkpt><trkpt lat="42.0559402" lon="13.413242"><ele>751.0</ele><time>2026-04-10T08:27:02.676Z</time></trkpt><trkpt lat="42.0561811" lon="13.4132006"><ele>753.0</ele><time>2026-04-10T08:27:03.671Z</time></trkpt><trkpt lat="42.0564206" lon="13.4131577"><ele>753.6666666666666</ele><time>2026-04-10T08:27:04.671Z</time></trkpt><trkpt lat="42.0566457" lon="13.413127"><ele>754.3333333333333</ele><time>2026-04-10T08:27:05.677Z</time></trkpt><trkpt lat="42.0568621" lon="13.4130732"><ele>755.0</ele><time>2026-04-10T08:27:06.678Z</time></trkpt><trkpt lat="42.0570972" lon="13.4130411"><ele>755.0</ele><time>2026-04-10T08:27:07.681Z</time></trkpt><trkpt lat="42.0573393" lon="13.4130058"><ele>755.0</ele><time>2026-04-10T08:27:08.682Z</time></trkpt><trkpt lat="42.0575776" lon="13.412981"><ele>755.5</ele><time>2026-04-10T08:27:09.672Z</time></trkpt><trkpt lat="42.0577978" lon="13.4129406"><ele>756.0</ele><time>2026-04-10T08:27:10.67Z</time></trkpt><trkpt lat="42.0580493" lon="13.4129129"><ele>756.0</ele><time>2026-04-10T08:27:11.673Z</time></trkpt><trkpt lat="42.0582824" lon="13.412867"><ele>756.0</ele><time>2026-04-10T08:27:12.673Z</time></trkpt><trkpt lat="42.0585077" lon="13.4128386"><ele>759.0</ele><time>2026-04-10T08:27:13.675Z</time></trkpt><trkpt lat="42.058732" lon="13.4127942"><ele>762.0</ele><time>2026-04-10T08:27:14.679Z</time></trkpt><trkpt lat="42.0589664" lon="13.4127617"><ele>761.6666666666666</ele><time>2026-04-10T08:27:15.673Z</time></trkpt><trkpt lat="42.0591987" lon="13.412727"><ele>761.3333333333333</ele><time>2026-04-10T08:27:16.671Z</time></trkpt><trkpt lat="42.0594074" lon="13.4127268"><ele>761.0</ele><time>2026-04-10T08:27:17.667Z</time></trkpt><trkpt lat="42.0595983" lon="13.4127028"><ele>761.0</ele><time>2026-04-10T08:27:18.673Z</time></trkpt><trkpt lat="42.059796" lon="13.412679"><ele>761.0</ele><time>2026-04-10T08:27:19.671Z</time></trkpt><trkpt lat="42.0599625" lon="13.4126506"><ele>761.0</ele><time>2026-04-10T08:27:20.665Z</time></trkpt><trkpt lat="42.0600896" lon="13.4126097"><ele>761.5</ele><time>2026-04-10T08:27:21.659Z</time></trkpt><trkpt lat="42.0602083" lon="13.4125949"><ele>762.0</ele><time>2026-04-10T08:27:22.675Z</time></trkpt><trkpt lat="42.060305" lon="13.4125771"><ele>762.5</ele><time>2026-04-10T08:27:23.671Z</time></trkpt><trkpt lat="42.0604309" lon="13.412567"><ele>763.0</ele><time>2026-04-10T08:27:24.677Z</time></trkpt><trkpt lat="42.0605435" lon="13.4125383"><ele>763.0</ele><time>2026-04-10T08:27:25.667Z</time></trkpt><trkpt lat="42.0606523" lon="13.4125172"><ele>763.0</ele><time>2026-04-10T08:27:26.678Z</time></trkpt><trkpt lat="42.060763" lon="13.4125142"><ele>763.0</ele><time>2026-04-10T08:27:27.67Z</time></trkpt><trkpt lat="42.0608479" lon="13.4124935"><ele>763.0</ele><time>2026-04-10T08:27:28.668Z</time></trkpt><trkpt lat="42.0609364" lon="13.4124821"><ele>763.0</ele><time>2026-04-10T08:27:29.668Z</time></trkpt><trkpt lat="42.0610164" lon="13.4124718"><ele>763.5</ele><time>2026-04-10T08:27:30.667Z</time></trkpt><trkpt lat="42.0610892" lon="13.4124559"><ele>764.0</ele><time>2026-04-10T08:27:31.683Z</time></trkpt><trkpt lat="42.0611563" lon="13.4124386"><ele>764.5</ele><time>2026-04-10T08:27:32.669Z</time></trkpt><trkpt lat="42.0612335" lon="13.4124409"><ele>765.0</ele><time>2026-04-10T08:27:34.673Z</time></trkpt><trkpt lat="42.0613554" lon="13.4125177"><ele>765.5</ele><time>2026-04-10T08:27:56.637Z</time></trkpt><trkpt lat="42.0614143" lon="13.4125686"><ele>766.0</ele><time>2026-04-10T08:27:57.639Z</time></trkpt><trkpt lat="42.0614548" lon="13.4126445"><ele>766.0</ele><time>2026-04-10T08:27:58.645Z</time></trkpt><trkpt lat="42.0614682" lon="13.4127538"><ele>766.0</ele><time>2026-04-10T08:27:59.657Z</time></trkpt><trkpt lat="42.0614287" lon="13.4129027"><ele>766.0</ele><time>2026-04-10T08:28:00.652Z</time></trkpt><trkpt lat="42.0613693" lon="13.4130861"><ele>766.0</ele><time>2026-04-10T08:28:01.644Z</time></trkpt><trkpt lat="42.0613134" lon="13.4132626"><ele>766.5</ele><time>2026-04-10T08:28:02.656Z</time></trkpt><trkpt lat="42.0612654" lon="13.4134598"><ele>767.0</ele><time>2026-04-10T08:28:03.638Z</time></trkpt><trkpt lat="42.0612203" lon="13.4136282"><ele>767.5</ele><time>2026-04-10T08:28:04.648Z</time></trkpt><trkpt lat="42.0611705" lon="13.413796"><ele>768.0</ele><time>2026-04-10T08:28:05.656Z</time></trkpt><trkpt lat="42.0611104" lon="13.4139858"><ele>768.3333333333333</ele><time>2026-04-10T08:28:06.649Z</time></trkpt><trkpt lat="42.0610512" lon="13.4141755"><ele>768.6666666666666</ele><time>2026-04-10T08:28:07.657Z</time></trkpt><trkpt lat="42.0609889" lon="13.4143905"><ele>769.0</ele><time>2026-04-10T08:28:08.655Z</time></trkpt><trkpt lat="42.060958" lon="13.4145997"><ele>769.6666666666666</ele><time>2026-04-10T08:28:09.655Z</time></trkpt><trkpt lat="42.0609243" lon="13.4148034"><ele>770.3333333333333</ele><time>2026-04-10T08:28:10.658Z</time></trkpt><trkpt lat="42.0609353" lon="13.4150105"><ele>771.0</ele><time>2026-04-10T08:28:11.658Z</time></trkpt><trkpt lat="42.0609498" lon="13.4152263"><ele>771.0</ele><time>2026-04-10T08:28:12.659Z</time></trkpt><trkpt lat="42.0609295" lon="13.4154775"><ele>771.0</ele><time>2026-04-10T08:28:13.658Z</time></trkpt><trkpt lat="42.0609315" lon="13.4157086"><ele>771.0</ele><time>2026-04-10T08:28:14.66Z</time></trkpt><trkpt lat="42.0609207" lon="13.4159138"><ele>771.25</ele><time>2026-04-10T08:28:15.658Z</time></trkpt><trkpt lat="42.0609107" lon="13.4160944"><ele>771.5</ele><time>2026-04-10T08:28:16.661Z</time></trkpt><trkpt lat="42.0608994" lon="13.4162984"><ele>771.75</ele><time>2026-04-10T08:28:17.667Z</time></trkpt><trkpt lat="42.0609004" lon="13.4165011"><ele>772.0</ele><time>2026-04-10T08:28:18.658Z</time></trkpt><trkpt lat="42.0608844" lon="13.4167232"><ele>773.0</ele><time>2026-04-10T08:28:19.66Z</time></trkpt><trkpt lat="42.0608423" lon="13.4169087"><ele>774.0</ele><time>2026-04-10T08:28:20.663Z</time></trkpt><trkpt lat="42.0608105" lon="13.4170867"><ele>775.0</ele><time>2026-04-10T08:28:21.655Z</time></trkpt><trkpt lat="42.0607488" lon="13.4172416"><ele>776.0</ele><time>2026-04-10T08:28:22.657Z</time></trkpt><trkpt lat="42.0606906" lon="13.4174054"><ele>776.0</ele><time>2026-04-10T08:28:23.662Z</time></trkpt><trkpt lat="42.0606334" lon="13.4175616"><ele>776.0</ele><time>2026-04-10T08:28:24.664Z</time></trkpt><trkpt lat="42.0605767" lon="13.4177216"><ele>776.0</ele><time>2026-04-10T08:28:25.656Z</time></trkpt><trkpt lat="42.0605392" lon="13.41788"><ele>776.0</ele><time>2026-04-10T08:28:26.654Z</time></trkpt><trkpt lat="42.0604922" lon="13.4180386"><ele>776.0</ele><time>2026-04-10T08:28:27.658Z</time></trkpt><trkpt lat="42.0604404" lon="13.4181881"><ele>776.0</ele><time>2026-04-10T08:28:28.661Z</time></trkpt><trkpt lat="42.0603959" lon="13.4183172"><ele>776.0</ele><time>2026-04-10T08:28:29.655Z</time></trkpt><trkpt lat="42.0603577" lon="13.4184268"><ele>776.0</ele><time>2026-04-10T08:28:30.662Z</time></trkpt><trkpt lat="42.0603341" lon="13.4185142"><ele>776.0</ele><time>2026-04-10T08:28:31.656Z</time></trkpt><trkpt lat="42.0603235" lon="13.418598"><ele>776.0</ele><time>2026-04-10T08:28:32.666Z</time></trkpt><trkpt lat="42.0604205" lon="13.4186894"><ele>776.0</ele><time>2026-04-10T08:28:34.657Z</time></trkpt><trkpt lat="42.0605295" lon="13.4187003"><ele>776.0</ele><time>2026-04-10T08:28:35.649Z</time></trkpt><trkpt lat="42.0606523" lon="13.4187056"><ele>776.0</ele><time>2026-04-10T08:28:36.65Z</time></trkpt><trkpt lat="42.0607796" lon="13.4187049"><ele>777.0</ele><time>2026-04-10T08:28:37.647Z</time></trkpt><trkpt lat="42.0609354" lon="13.4186783"><ele>778.0</ele><time>2026-04-10T08:28:38.649Z</time></trkpt><trkpt lat="42.0611145" lon="13.4186268"><ele>779.0</ele><time>2026-04-10T08:28:39.648Z</time></trkpt><trkpt lat="42.0613181" lon="13.418572"><ele>779.0</ele><time>2026-04-10T08:28:40.654Z</time></trkpt><trkpt lat="42.0615482" lon="13.4184757"><ele>779.0</ele><time>2026-04-10T08:28:41.659Z</time></trkpt><trkpt lat="42.0617521" lon="13.4184352"><ele>779.0</ele><time>2026-04-10T08:28:42.662Z</time></trkpt><trkpt lat="42.0619386" lon="13.4184019"><ele>779.6666666666667</ele><time>2026-04-10T08:28:43.666Z</time></trkpt><trkpt lat="42.0620969" lon="13.4183609"><ele>780.3333333333333</ele><time>2026-04-10T08:28:44.676Z</time></trkpt><trkpt lat="42.0622563" lon="13.4183297"><ele>781.0</ele><time>2026-04-10T08:28:45.665Z</time></trkpt><trkpt lat="42.0624166" lon="13.4182669"><ele>781.3333333333333</ele><time>2026-04-10T08:28:46.664Z</time></trkpt><trkpt lat="42.0625727" lon="13.4181869"><ele>781.6666666666667</ele><time>2026-04-10T08:28:47.662Z</time></trkpt><trkpt lat="42.0627162" lon="13.4181254"><ele>782.0</ele><time>2026-04-10T08:28:48.665Z</time></trkpt><trkpt lat="42.0628752" lon="13.4181036"><ele>782.0</ele><time>2026-04-10T08:28:49.659Z</time></trkpt><trkpt lat="42.0630534" lon="13.4180854"><ele>782.0</ele><time>2026-04-10T08:28:50.664Z</time></trkpt><trkpt lat="42.0632591" lon="13.4180818"><ele>782.0</ele><time>2026-04-10T08:28:51.666Z</time></trkpt><trkpt lat="42.0634538" lon="13.4181091"><ele>783.0</ele><time>2026-04-10T08:28:52.666Z</time></trkpt><trkpt lat="42.0636231" lon="13.4181494"><ele>784.0</ele><time>2026-04-10T08:28:53.66Z</time></trkpt><trkpt lat="42.0637816" lon="13.4182002"><ele>785.0</ele><time>2026-04-10T08:28:54.656Z</time></trkpt><trkpt lat="42.0639327" lon="13.4182417"><ele>785.0</ele><time>2026-04-10T08:28:55.66Z</time></trkpt><trkpt lat="42.0640579" lon="13.4182695"><ele>785.0</ele><time>2026-04-10T08:28:56.657Z</time></trkpt><trkpt lat="42.0641608" lon="13.4182703"><ele>785.0</ele><time>2026-04-10T08:28:57.65Z</time></trkpt><trkpt lat="42.0642971" lon="13.4182157"><ele>785.0</ele><time>2026-04-10T08:28:59.654Z</time></trkpt><trkpt lat="42.0643726" lon="13.4181556"><ele>785.8</ele><time>2026-04-10T08:29:00.668Z</time></trkpt><trkpt lat="42.0644713" lon="13.4180949"><ele>786.6</ele><time>2026-04-10T08:29:01.658Z</time></trkpt><trkpt lat="42.0645497" lon="13.4180306"><ele>787.4000000000001</ele><time>2026-04-10T08:29:02.648Z</time></trkpt><trkpt lat="42.0646459" lon="13.4179717"><ele>788.2</ele><time>2026-04-10T08:29:03.637Z</time></trkpt><trkpt lat="42.0647619" lon="13.4179064"><ele>789.0</ele><time>2026-04-10T08:29:04.665Z</time></trkpt><trkpt lat="42.0648732" lon="13.4178443"><ele>790.3333333333333</ele><time>2026-04-10T08:29:05.651Z</time></trkpt><trkpt lat="42.0649839" lon="13.4177783"><ele>791.6666666666666</ele><time>2026-04-10T08:29:06.659Z</time></trkpt><trkpt lat="42.0651476" lon="13.4177478"><ele>793.0</ele><time>2026-04-10T08:29:07.658Z</time></trkpt><trkpt lat="42.0653269" lon="13.4177028"><ele>793.0</ele><time>2026-04-10T08:29:08.664Z</time></trkpt><trkpt lat="42.0655162" lon="13.4176507"><ele>793.0</ele><time>2026-04-10T08:29:09.66Z</time></trkpt><trkpt lat="42.0656838" lon="13.4176327"><ele>793.0</ele><time>2026-04-10T08:29:10.659Z</time></trkpt><trkpt lat="42.0658457" lon="13.4175926"><ele>795.0</ele><time>2026-04-10T08:29:11.657Z</time></trkpt><trkpt lat="42.0659779" lon="13.4175416"><ele>797.0</ele><time>2026-04-10T08:29:12.65Z</time></trkpt><trkpt lat="42.0661278" lon="13.417463"><ele>799.0</ele><time>2026-04-10T08:29:13.645Z</time></trkpt><trkpt lat="42.066288" lon="13.4173791"><ele>799.0</ele><time>2026-04-10T08:29:14.655Z</time></trkpt><trkpt lat="42.0664218" lon="13.4172703"><ele>799.0</ele><time>2026-04-10T08:29:15.645Z</time></trkpt><trkpt lat="42.0666008" lon="13.417172"><ele>799.0</ele><time>2026-04-10T08:29:16.655Z</time></trkpt><trkpt lat="42.0667514" lon="13.4170596"><ele>801.5</ele><time>2026-04-10T08:29:17.654Z</time></trkpt><trkpt lat="42.0668785" lon="13.4169563"><ele>804.0</ele><time>2026-04-10T08:29:18.652Z</time></trkpt><trkpt lat="42.0670098" lon="13.4168486"><ele>806.5</ele><time>2026-04-10T08:29:19.644Z</time></trkpt><trkpt lat="42.0671304" lon="13.4167412"><ele>809.0</ele><time>2026-04-10T08:29:20.645Z</time></trkpt><trkpt lat="42.0672645" lon="13.4166525"><ele>809.0</ele><time>2026-04-10T08:29:21.652Z</time></trkpt><trkpt lat="42.0674169" lon="13.4165715"><ele>809.0</ele><time>2026-04-10T08:29:22.652Z</time></trkpt><trkpt lat="42.0675615" lon="13.4165016"><ele>809.0</ele><time>2026-04-10T08:29:23.646Z</time></trkpt><trkpt lat="42.0677024" lon="13.4164201"><ele>812.3333333333334</ele><time>2026-04-10T08:29:24.648Z</time></trkpt><trkpt lat="42.0678628" lon="13.4163515"><ele>815.6666666666667</ele><time>2026-04-10T08:29:25.647Z</time></trkpt><trkpt lat="42.0680175" lon="13.4162861"><ele>819.0</ele><time>2026-04-10T08:29:26.645Z</time></trkpt><trkpt lat="42.0681317" lon="13.4162262"><ele>819.0</ele><time>2026-04-10T08:29:27.644Z</time></trkpt><trkpt lat="42.0682461" lon="13.4161591"><ele>819.0</ele><time>2026-04-10T08:29:28.649Z</time></trkpt><trkpt lat="42.0683792" lon="13.416072"><ele>819.0</ele><time>2026-04-10T08:29:29.647Z</time></trkpt><trkpt lat="42.0684929" lon="13.4159728"><ele>819.0</ele><time>2026-04-10T08:29:30.648Z</time></trkpt><trkpt lat="42.0686267" lon="13.4158959"><ele>822.6</ele><time>2026-04-10T08:29:31.656Z</time></trkpt><trkpt lat="42.0687492" lon="13.4158497"><ele>826.2</ele><time>2026-04-10T08:29:32.653Z</time></trkpt><trkpt lat="42.0688502" lon="13.4157844"><ele>829.8000000000001</ele><time>2026-04-10T08:29:33.663Z</time></trkpt><trkpt lat="42.0689306" lon="13.4157411"><ele>833.4000000000001</ele><time>2026-04-10T08:29:34.653Z</time></trkpt><trkpt lat="42.0690071" lon="13.4156914"><ele>837.0</ele><time>2026-04-10T08:29:35.67Z</time></trkpt><trkpt lat="42.0691033" lon="13.4156035"><ele>838.2</ele><time>2026-04-10T08:29:36.656Z</time></trkpt><trkpt lat="42.0691692" lon="13.4155023"><ele>839.4000000000001</ele><time>2026-04-10T08:29:37.657Z</time></trkpt><trkpt lat="42.0692363" lon="13.4154007"><ele>840.5999999999999</ele><time>2026-04-10T08:29:38.662Z</time></trkpt><trkpt lat="42.0693037" lon="13.4152869"><ele>841.8</ele><time>2026-04-10T08:29:39.654Z</time></trkpt><trkpt lat="42.069374" lon="13.4151749"><ele>843.0</ele><time>2026-04-10T08:29:40.653Z</time></trkpt><trkpt lat="42.0694387" lon="13.4150789"><ele>844.6666666666666</ele><time>2026-04-10T08:29:41.649Z</time></trkpt><trkpt lat="42.0695168" lon="13.4150253"><ele>846.3333333333333</ele><time>2026-04-10T08:29:42.649Z</time></trkpt><trkpt lat="42.0695886" lon="13.4149554"><ele>848.0</ele><time>2026-04-10T08:29:43.652Z</time></trkpt><trkpt lat="42.0696618" lon="13.4148972"><ele>849.6666666666666</ele><time>2026-04-10T08:29:44.65Z</time></trkpt><trkpt lat="42.0697353" lon="13.4148302"><ele>851.3333333333333</ele><time>2026-04-10T08:29:45.653Z</time></trkpt><trkpt lat="42.0697985" lon="13.4147615"><ele>853.0</ele><time>2026-04-10T08:29:46.651Z</time></trkpt><trkpt lat="42.0698456" lon="13.414699"><ele>852.9999999999999</ele><time>2026-04-10T08:29:47.651Z</time></trkpt><trkpt lat="42.0698799" lon="13.4146067"><ele>853.0</ele><time>2026-04-10T08:29:49.642Z</time></trkpt><trkpt lat="42.0698263" lon="13.4146636"><ele>853.0</ele><time>2026-04-10T08:29:58.651Z</time></trkpt><trkpt lat="42.0698239" lon="13.414555"><ele>853.0</ele><time>2026-04-10T08:30:26.628Z</time></trkpt><trkpt lat="42.0697931" lon="13.4144624"><ele>852.9999999999999</ele><time>2026-04-10T08:30:27.628Z</time></trkpt><trkpt lat="42.0697332" lon="13.4143233"><ele>853.0</ele><time>2026-04-10T08:30:28.625Z</time></trkpt><trkpt lat="42.0696929" lon="13.4142188"><ele>853.75</ele><time>2026-04-10T08:30:29.627Z</time></trkpt><trkpt lat="42.0696271" lon="13.4140802"><ele>854.5</ele><time>2026-04-10T08:30:30.634Z</time></trkpt><trkpt lat="42.0695357" lon="13.4139218"><ele>855.25</ele><time>2026-04-10T08:30:31.638Z</time></trkpt><trkpt lat="42.0694231" lon="13.4138067"><ele>856.0</ele><time>2026-04-10T08:30:32.646Z</time></trkpt><trkpt lat="42.0693244" lon="13.4136672"><ele>853.6666666666666</ele><time>2026-04-10T08:30:33.636Z</time></trkpt><trkpt lat="42.0692132" lon="13.4135168"><ele>851.3333333333333</ele><time>2026-04-10T08:30:34.636Z</time></trkpt><trkpt lat="42.0691255" lon="13.4133554"><ele>849.0</ele><time>2026-04-10T08:30:35.643Z</time></trkpt><trkpt lat="42.0690546" lon="13.4131581"><ele>851.75</ele><time>2026-04-10T08:30:36.654Z</time></trkpt><trkpt lat="42.0689892" lon="13.4129531"><ele>854.5</ele><time>2026-04-10T08:30:37.65Z</time></trkpt><trkpt lat="42.0689187" lon="13.4127893"><ele>857.25</ele><time>2026-04-10T08:30:38.644Z</time></trkpt><trkpt lat="42.0688505" lon="13.4126216"><ele>860.0</ele><time>2026-04-10T08:30:39.659Z</time></trkpt><trkpt lat="42.0688148" lon="13.4124765"><ele>860.0</ele><time>2026-04-10T08:30:40.648Z</time></trkpt><trkpt lat="42.0687866" lon="13.4123222"><ele>860.0</ele><time>2026-04-10T08:30:41.645Z</time></trkpt><trkpt lat="42.06877" lon="13.4122204"><ele>860.0</ele><time>2026-04-10T08:30:42.644Z</time></trkpt><trkpt lat="42.0687217" lon="13.4121134"><ele>860.0</ele><time>2026-04-10T08:30:43.641Z</time></trkpt><trkpt lat="42.0686664" lon="13.4120191"><ele>860.0</ele><time>2026-04-10T08:30:44.643Z</time></trkpt><trkpt lat="42.0686091" lon="13.4119308"><ele>859.3333333333334</ele><time>2026-04-10T08:30:45.64Z</time></trkpt><trkpt lat="42.0685577" lon="13.4118353"><ele>858.6666666666667</ele><time>2026-04-10T08:30:46.652Z</time></trkpt><trkpt lat="42.0685295" lon="13.4116985"><ele>858.0</ele><time>2026-04-10T08:30:48.641Z</time></trkpt><trkpt lat="42.0685453" lon="13.4116036"><ele>857.3333333333333</ele><time>2026-04-10T08:30:50.649Z</time></trkpt><trkpt lat="42.0686232" lon="13.4115947"><ele>856.6666666666666</ele><time>2026-04-10T08:31:04.676Z</time></trkpt><trkpt lat="42.0686883" lon="13.4116409"><ele>856.0</ele><time>2026-04-10T08:31:17.679Z</time></trkpt><trkpt lat="42.0686704" lon="13.4117299"><ele>855.9999999999999</ele><time>2026-04-10T08:31:26.656Z</time></trkpt><trkpt lat="42.0686222" lon="13.4118199"><ele>856.0</ele><time>2026-04-10T08:31:28.66Z</time></trkpt><trkpt lat="42.0686061" lon="13.4119531"><ele>856.0</ele><time>2026-04-10T08:31:30.664Z</time></trkpt><trkpt lat="42.0686038" lon="13.4120503"><ele>856.0</ele><time>2026-04-10T08:31:32.658Z</time></trkpt><trkpt lat="42.0686467" lon="13.4121254"><ele>855.9999999999999</ele><time>2026-04-10T08:31:34.664Z</time></trkpt><trkpt lat="42.0687169" lon="13.4122104"><ele>856.0</ele><time>2026-04-10T08:31:36.662Z</time></trkpt><trkpt lat="42.068786" lon="13.4123157"><ele>856.8</ele><time>2026-04-10T08:31:38.662Z</time></trkpt><trkpt lat="42.0688201" lon="13.4123871"><ele>857.5999999999999</ele><time>2026-04-10T08:31:39.65Z</time></trkpt><trkpt lat="42.0688721" lon="13.412536"><ele>858.4</ele><time>2026-04-10T08:31:41.642Z</time></trkpt><trkpt lat="42.0688979" lon="13.4126975"><ele>859.2</ele><time>2026-04-10T08:31:43.643Z</time></trkpt><trkpt lat="42.0689131" lon="13.4128377"><ele>860.0</ele><time>2026-04-10T08:31:45.652Z</time></trkpt><trkpt lat="42.0689379" lon="13.4129269"><ele>860.0000000000001</ele><time>2026-04-10T08:31:47.654Z</time></trkpt><trkpt lat="42.0690048" lon="13.4129148"><ele>860.0</ele><time>2026-04-10T08:32:28.672Z</time></trkpt><trkpt lat="42.0690927" lon="13.4128827"><ele>860.0</ele><time>2026-04-10T08:32:31.662Z</time></trkpt><trkpt lat="42.0691725" lon="13.4129031"><ele>860.0</ele><time>2026-04-10T08:32:33.653Z</time></trkpt><trkpt lat="42.0692652" lon="13.412925"><ele>860.0000000000001</ele><time>2026-04-10T08:32:34.662Z</time></trkpt><trkpt lat="42.0693665" lon="13.4129313"><ele>860.0</ele><time>2026-04-10T08:32:35.641Z</time></trkpt><trkpt lat="42.0694642" lon="13.4129308"><ele>861.0000000000001</ele><time>2026-04-10T08:32:36.644Z</time></trkpt><trkpt lat="42.0695608" lon="13.4129151"><ele>862.0</ele><time>2026-04-10T08:32:37.64Z</time></trkpt><trkpt lat="42.0696433" lon="13.412903"><ele>863.0</ele><time>2026-04-10T08:32:38.637Z</time></trkpt><trkpt lat="42.0697324" lon="13.4129096"><ele>864.0</ele><time>2026-04-10T08:32:39.636Z</time></trkpt><trkpt lat="42.0697957" lon="13.4129253"><ele>865.0000000000001</ele><time>2026-04-10T08:32:40.656Z</time></trkpt><trkpt lat="42.0698621" lon="13.4130362"><ele>866.0</ele><time>2026-04-10T08:32:43.641Z</time></trkpt><trkpt lat="42.0698884" lon="13.4131142"><ele>866.0000000000001</ele><time>2026-04-10T08:32:44.639Z</time></trkpt><trkpt lat="42.0699326" lon="13.4131791"><ele>866.0</ele><time>2026-04-10T08:32:45.644Z</time></trkpt><trkpt lat="42.0699769" lon="13.4132405"><ele>866.0</ele><time>2026-04-10T08:32:46.65Z</time></trkpt><trkpt lat="42.0701002" lon="13.413314"><ele>866.0</ele><time>2026-04-10T08:32:48.653Z</time></trkpt><trkpt lat="42.0701739" lon="13.4133336"><ele>866.0000000000001</ele><time>2026-04-10T08:32:49.658Z</time></trkpt><trkpt lat="42.070256" lon="13.4133649"><ele>866.0</ele><time>2026-04-10T08:32:50.651Z</time></trkpt><trkpt lat="42.0703568" lon="13.4134095"><ele>870.25</ele><time>2026-04-10T08:32:51.651Z</time></trkpt><trkpt lat="42.0704824" lon="13.4134496"><ele>874.5</ele><time>2026-04-10T08:32:52.654Z</time></trkpt><trkpt lat="42.0706036" lon="13.4134817"><ele>878.75</ele><time>2026-04-10T08:32:53.655Z</time></trkpt><trkpt lat="42.0707272" lon="13.4135181"><ele>883.0</ele><time>2026-04-10T08:32:54.649Z</time></trkpt><trkpt lat="42.0708697" lon="13.4135444"><ele>886.0</ele><time>2026-04-10T08:32:55.641Z</time></trkpt><trkpt lat="42.0710029" lon="13.4135315"><ele>889.0</ele><time>2026-04-10T08:32:56.642Z</time></trkpt><trkpt lat="42.0711481" lon="13.4135047"><ele>892.0</ele><time>2026-04-10T08:32:57.646Z</time></trkpt><trkpt lat="42.0712764" lon="13.4134979"><ele>895.0</ele><time>2026-04-10T08:32:58.653Z</time></trkpt><trkpt lat="42.0713812" lon="13.4135016"><ele>895.0</ele><time>2026-04-10T08:32:59.653Z</time></trkpt><trkpt lat="42.0714819" lon="13.4135221"><ele>895.0</ele><time>2026-04-10T08:33:00.651Z</time></trkpt><trkpt lat="42.0715752" lon="13.4135644"><ele>895.0</ele><time>2026-04-10T08:33:01.65Z</time></trkpt><trkpt lat="42.0716315" lon="13.4136605"><ele>895.0</ele><time>2026-04-10T08:33:02.657Z</time></trkpt><trkpt lat="42.0716898" lon="13.4137476"><ele>895.0</ele><time>2026-04-10T08:33:03.644Z</time></trkpt><trkpt lat="42.0717488" lon="13.413824"><ele>894.8</ele><time>2026-04-10T08:33:04.644Z</time></trkpt><trkpt lat="42.071795" lon="13.4139059"><ele>894.6</ele><time>2026-04-10T08:33:05.649Z</time></trkpt><trkpt lat="42.0718575" lon="13.4139417"><ele>894.4000000000001</ele><time>2026-04-10T08:33:06.647Z</time></trkpt><trkpt lat="42.0719853" lon="13.4139671"><ele>894.2</ele><time>2026-04-10T08:33:08.645Z</time></trkpt><trkpt lat="42.0720683" lon="13.4139975"><ele>894.0</ele><time>2026-04-10T08:33:09.649Z</time></trkpt><trkpt lat="42.0721692" lon="13.4140406"><ele>894.0</ele><time>2026-04-10T08:33:10.647Z</time></trkpt><trkpt lat="42.0722821" lon="13.4140809"><ele>894.0000000000001</ele><time>2026-04-10T08:33:11.661Z</time></trkpt><trkpt lat="42.0723912" lon="13.4141224"><ele>894.0000000000001</ele><time>2026-04-10T08:33:12.644Z</time></trkpt><trkpt lat="42.0724814" lon="13.4141607"><ele>894.0</ele><time>2026-04-10T08:33:13.641Z</time></trkpt><trkpt lat="42.0725725" lon="13.4142072"><ele>894.0</ele><time>2026-04-10T08:33:14.635Z</time></trkpt><trkpt lat="42.0726431" lon="13.414264"><ele>896.3333333333334</ele><time>2026-04-10T08:33:15.64Z</time></trkpt><trkpt lat="42.0726925" lon="13.4143269"><ele>898.6666666666667</ele><time>2026-04-10T08:33:16.638Z</time></trkpt><trkpt lat="42.072781" lon="13.4143931"><ele>901.0</ele><time>2026-04-10T08:33:18.636Z</time></trkpt><trkpt lat="42.0728658" lon="13.4143609"><ele>903.3333333333334</ele><time>2026-04-10T08:33:20.639Z</time></trkpt><trkpt lat="42.0729107" lon="13.4143005"><ele>905.6666666666667</ele><time>2026-04-10T08:33:21.641Z</time></trkpt><trkpt lat="42.0729826" lon="13.4141896"><ele>908.0</ele><time>2026-04-10T08:33:23.638Z</time></trkpt><trkpt lat="42.0730428" lon="13.4141345"><ele>908.0</ele><time>2026-04-10T08:33:25.645Z</time></trkpt><trkpt lat="42.073147" lon="13.4141431"><ele>908.0</ele><time>2026-04-10T08:33:54.659Z</time></trkpt><trkpt lat="42.0732266" lon="13.4141583"><ele>908.0</ele><time>2026-04-10T08:33:55.652Z</time></trkpt><trkpt lat="42.0733335" lon="13.4141576"><ele>908.0</ele><time>2026-04-10T08:33:56.643Z</time></trkpt><trkpt lat="42.0734468" lon="13.4141511"><ele>908.0</ele><time>2026-04-10T08:33:57.636Z</time></trkpt><trkpt lat="42.0735567" lon="13.4141365"><ele>908.8</ele><time>2026-04-10T08:33:58.632Z</time></trkpt><trkpt lat="42.0736674" lon="13.4141206"><ele>909.5999999999999</ele><time>2026-04-10T08:33:59.638Z</time></trkpt><trkpt lat="42.0737589" lon="13.4141252"><ele>910.4000000000001</ele><time>2026-04-10T08:34:00.655Z</time></trkpt><trkpt lat="42.0738423" lon="13.4141315"><ele>911.2</ele><time>2026-04-10T08:34:01.638Z</time></trkpt><trkpt lat="42.0739425" lon="13.414256"><ele>912.0</ele><time>2026-04-10T08:34:03.634Z</time></trkpt><trkpt lat="42.0739677" lon="13.4143536"><ele>912.0</ele><time>2026-04-10T08:34:04.634Z</time></trkpt><trkpt lat="42.0740049" lon="13.4144626"><ele>912.0</ele><time>2026-04-10T08:34:05.64Z</time></trkpt><trkpt lat="42.0740414" lon="13.4145558"><ele>912.0</ele><time>2026-04-10T08:34:06.641Z</time></trkpt><trkpt lat="42.0740744" lon="13.414643"><ele>912.0</ele><time>2026-04-10T08:34:07.643Z</time></trkpt><trkpt lat="42.0741232" lon="13.4147904"><ele>912.0</ele><time>2026-04-10T08:34:09.638Z</time></trkpt><trkpt lat="42.0741427" lon="13.4148768"><ele>912.0</ele><time>2026-04-10T08:34:11.633Z</time></trkpt><trkpt lat="42.0741145" lon="13.4149546"><ele>909.0</ele><time>2026-04-10T08:34:13.658Z</time></trkpt><trkpt lat="42.0740668" lon="13.4151005"><ele>906.0</ele><time>2026-04-10T08:34:15.631Z</time></trkpt><trkpt lat="42.0740534" lon="13.4152513"><ele>903.0</ele><time>2026-04-10T08:34:16.634Z</time></trkpt><trkpt lat="42.0740637" lon="13.4154023"><ele>900.0</ele><time>2026-04-10T08:34:17.631Z</time></trkpt><trkpt lat="42.0740638" lon="13.4155038"><ele>897.0</ele><time>2026-04-10T08:34:18.628Z</time></trkpt><trkpt lat="42.0740473" lon="13.4156654"><ele>893.8333333333334</ele><time>2026-04-10T08:34:20.629Z</time></trkpt><trkpt lat="42.074041" lon="13.4157712"><ele>890.6666666666667</ele><time>2026-04-10T08:34:22.648Z</time></trkpt><trkpt lat="42.0739666" lon="13.4158884"><ele>887.5</ele><time>2026-04-10T08:34:24.648Z</time></trkpt><trkpt lat="42.0739073" lon="13.4159199"><ele>884.3333333333334</ele><time>2026-04-10T08:34:25.655Z</time></trkpt><trkpt lat="42.0738319" lon="13.4159336"><ele>881.1666666666667</ele><time>2026-04-10T08:34:26.65Z</time></trkpt><trkpt lat="42.0737581" lon="13.4159411"><ele>878.0</ele><time>2026-04-10T08:34:28.648Z</time></trkpt><trkpt lat="42.0737356" lon="13.416033"><ele>878.0000000000001</ele><time>2026-04-10T08:34:33.649Z</time></trkpt><trkpt lat="42.0737616" lon="13.4161293"><ele>878.0</ele><time>2026-04-10T08:34:39.657Z</time></trkpt><trkpt lat="42.0737001" lon="13.416181"><ele>878.0</ele><time>2026-04-10T08:34:42.649Z</time></trkpt><trkpt lat="42.0737712" lon="13.4162655"><ele>878.0</ele><time>2026-04-10T08:34:56.659Z</time></trkpt><trkpt lat="42.0738555" lon="13.4163154"><ele>878.0000000000001</ele><time>2026-04-10T08:34:58.654Z</time></trkpt><trkpt lat="42.0738923" lon="13.416414"><ele>878.0</ele><time>2026-04-10T08:35:32.654Z</time></trkpt><trkpt lat="42.0739538" lon="13.4165207"><ele>876.3333333333334</ele><time>2026-04-10T08:35:35.661Z</time></trkpt><trkpt lat="42.074022" lon="13.4165547"><ele>874.6666666666667</ele><time>2026-04-10T08:35:37.66Z</time></trkpt><trkpt lat="42.074089" lon="13.4165186"><ele>873.0</ele><time>2026-04-10T08:35:41.657Z</time></trkpt><trkpt lat="42.0741436" lon="13.4165803"><ele>871.3333333333333</ele><time>2026-04-10T08:35:44.655Z</time></trkpt><trkpt lat="42.074131" lon="13.4166767"><ele>869.6666666666666</ele><time>2026-04-10T08:35:46.674Z</time></trkpt><trkpt lat="42.0741061" lon="13.4168144"><ele>868.0</ele><time>2026-04-10T08:35:48.649Z</time></trkpt><trkpt lat="42.0741033" lon="13.4169709"><ele>867.9999999999999</ele><time>2026-04-10T08:35:50.649Z</time></trkpt><trkpt lat="42.0741164" lon="13.4171121"><ele>868.0</ele><time>2026-04-10T08:35:52.649Z</time></trkpt><trkpt lat="42.0740858" lon="13.4172399"><ele>868.0</ele><time>2026-04-10T08:35:54.648Z</time></trkpt><trkpt lat="42.0740487" lon="13.4173114"><ele>868.0</ele><time>2026-04-10T08:35:55.651Z</time></trkpt><trkpt lat="42.073999" lon="13.4173673"><ele>867.9999999999999</ele><time>2026-04-10T08:35:56.665Z</time></trkpt><trkpt lat="42.0739222" lon="13.4174578"><ele>868.0</ele><time>2026-04-10T08:35:58.648Z</time></trkpt><trkpt lat="42.0738839" lon="13.4175582"><ele>866.1666666666666</ele><time>2026-04-10T08:36:00.656Z</time></trkpt><trkpt lat="42.0739315" lon="13.4176201"><ele>864.3333333333333</ele><time>2026-04-10T08:36:21.652Z</time></trkpt><trkpt lat="42.0740075" lon="13.4176907"><ele>862.5</ele><time>2026-04-10T08:36:24.661Z</time></trkpt><trkpt lat="42.0741022" lon="13.4177418"><ele>860.6666666666667</ele><time>2026-04-10T08:36:26.659Z</time></trkpt><trkpt lat="42.0741597" lon="13.4177816"><ele>858.8333333333334</ele><time>2026-04-10T08:36:27.652Z</time></trkpt><trkpt lat="42.0742197" lon="13.4178313"><ele>857.0</ele><time>2026-04-10T08:36:28.649Z</time></trkpt><trkpt lat="42.0742771" lon="13.41787"><ele>857.0</ele><time>2026-04-10T08:36:29.652Z</time></trkpt><trkpt lat="42.0743846" lon="13.4179299"><ele>857.0</ele><time>2026-04-10T08:36:31.66Z</time></trkpt><trkpt lat="42.0744777" lon="13.4179645"><ele>857.0</ele><time>2026-04-10T08:36:33.645Z</time></trkpt><trkpt lat="42.0745665" lon="13.4180264"><ele>857.0</ele><time>2026-04-10T08:36:35.649Z</time></trkpt><trkpt lat="42.0746202" lon="13.4180768"><ele>857.0</ele><time>2026-04-10T08:36:36.642Z</time></trkpt><trkpt lat="42.0746779" lon="13.4181334"><ele>854.2</ele><time>2026-04-10T08:36:37.648Z</time></trkpt><trkpt lat="42.0747425" lon="13.4181818"><ele>851.4000000000001</ele><time>2026-04-10T08:36:38.652Z</time></trkpt><trkpt lat="42.0748486" lon="13.4182337"><ele>848.5999999999999</ele><time>2026-04-10T08:36:40.639Z</time></trkpt><trkpt lat="42.0749748" lon="13.4182329"><ele>845.8</ele><time>2026-04-10T08:36:42.65Z</time></trkpt><trkpt lat="42.0750391" lon="13.4182026"><ele>843.0</ele><time>2026-04-10T08:36:44.651Z</time></trkpt><trkpt lat="42.07502" lon="13.4183225"><ele>843.0</ele><time>2026-04-10T08:36:50.659Z</time></trkpt><trkpt lat="42.0750205" lon="13.4184578"><ele>843.0</ele><time>2026-04-10T08:36:53.658Z</time></trkpt><trkpt lat="42.075042" lon="13.4185978"><ele>843.0</ele><time>2026-04-10T08:36:55.655Z</time></trkpt><trkpt lat="42.0750819" lon="13.4186721"><ele>843.0</ele><time>2026-04-10T08:36:57.665Z</time></trkpt><trkpt lat="42.075148" lon="13.4187509"><ele>843.0</ele><time>2026-04-10T08:36:59.657Z</time></trkpt><trkpt lat="42.0751255" lon="13.4188362"><ele>843.0</ele><time>2026-04-10T08:37:11.668Z</time></trkpt><trkpt lat="42.0750582" lon="13.418858"><ele>841.0</ele><time>2026-04-10T08:37:14.64Z</time></trkpt><trkpt lat="42.0748925" lon="13.4189176"><ele>839.0</ele><time>2026-04-10T08:37:16.652Z</time></trkpt><trkpt lat="42.0747979" lon="13.4189471"><ele>837.0</ele><time>2026-04-10T08:37:17.648Z</time></trkpt><trkpt lat="42.0747165" lon="13.4189776"><ele>835.0</ele><time>2026-04-10T08:37:18.648Z</time></trkpt><trkpt lat="42.0746255" lon="13.4190042"><ele>833.0</ele><time>2026-04-10T08:37:19.655Z</time></trkpt><trkpt lat="42.0745489" lon="13.419065"><ele>833.0</ele><time>2026-04-10T08:37:20.646Z</time></trkpt><trkpt lat="42.0745085" lon="13.4191663"><ele>833.0</ele><time>2026-04-10T08:37:21.646Z</time></trkpt><trkpt lat="42.0744907" lon="13.4192872"><ele>833.0</ele><time>2026-04-10T08:37:22.658Z</time></trkpt><trkpt lat="42.0744919" lon="13.4194066"><ele>833.0</ele><time>2026-04-10T08:37:23.644Z</time></trkpt><trkpt lat="42.0745255" lon="13.4195472"><ele>833.0</ele><time>2026-04-10T08:37:24.652Z</time></trkpt><trkpt lat="42.074547" lon="13.4196917"><ele>832.4</ele><time>2026-04-10T08:37:25.656Z</time></trkpt><trkpt lat="42.0745571" lon="13.4198262"><ele>831.8</ele><time>2026-04-10T08:37:26.657Z</time></trkpt><trkpt lat="42.0745702" lon="13.4199731"><ele>831.2</ele><time>2026-04-10T08:37:27.658Z</time></trkpt><trkpt lat="42.0745913" lon="13.4201183"><ele>830.6</ele><time>2026-04-10T08:37:28.649Z</time></trkpt><trkpt lat="42.0746113" lon="13.4202675"><ele>830.0</ele><time>2026-04-10T08:37:29.659Z</time></trkpt><trkpt lat="42.0746388" lon="13.4204223"><ele>830.2</ele><time>2026-04-10T08:37:30.659Z</time></trkpt><trkpt lat="42.074675" lon="13.4205664"><ele>830.4</ele><time>2026-04-10T08:37:31.667Z</time></trkpt><trkpt lat="42.0747203" lon="13.4207048"><ele>830.5999999999999</ele><time>2026-04-10T08:37:32.655Z</time></trkpt><trkpt lat="42.0747642" lon="13.4208403"><ele>830.8</ele><time>2026-04-10T08:37:33.652Z</time></trkpt><trkpt lat="42.0748279" lon="13.4209626"><ele>831.0</ele><time>2026-04-10T08:37:34.647Z</time></trkpt><trkpt lat="42.074885" lon="13.4210668"><ele>831.3333333333334</ele><time>2026-04-10T08:37:35.64Z</time></trkpt><trkpt lat="42.0749397" lon="13.4211443"><ele>831.6666666666667</ele><time>2026-04-10T08:37:36.637Z</time></trkpt><trkpt lat="42.0749945" lon="13.4212009"><ele>832.0</ele><time>2026-04-10T08:37:37.656Z</time></trkpt><trkpt lat="42.0750412" lon="13.4212632"><ele>832.3333333333334</ele><time>2026-04-10T08:37:38.655Z</time></trkpt><trkpt lat="42.0750818" lon="13.4213425"><ele>832.6666666666667</ele><time>2026-04-10T08:37:39.654Z</time></trkpt><trkpt lat="42.0751275" lon="13.421487"><ele>833.0</ele><time>2026-04-10T08:37:41.644Z</time></trkpt><trkpt lat="42.0750586" lon="13.4216144"><ele>833.0</ele><time>2026-04-10T08:37:43.645Z</time></trkpt><trkpt lat="42.0750037" lon="13.4217074"><ele>833.0</ele><time>2026-04-10T08:37:44.647Z</time></trkpt><trkpt lat="42.0749401" lon="13.4218103"><ele>833.0</ele><time>2026-04-10T08:37:45.651Z</time></trkpt><trkpt lat="42.0748709" lon="13.4219178"><ele>833.0</ele><time>2026-04-10T08:37:46.643Z</time></trkpt><trkpt lat="42.0748048" lon="13.4220069"><ele>833.0</ele><time>2026-04-10T08:37:47.649Z</time></trkpt><trkpt lat="42.074735" lon="13.4220961"><ele>833.1666666666667</ele><time>2026-04-10T08:37:48.651Z</time></trkpt><trkpt lat="42.0746655" lon="13.4221563"><ele>833.3333333333334</ele><time>2026-04-10T08:37:49.651Z</time></trkpt><trkpt lat="42.0745953" lon="13.4221983"><ele>833.5</ele><time>2026-04-10T08:37:50.657Z</time></trkpt><trkpt lat="42.0745313" lon="13.4222136"><ele>833.6666666666667</ele><time>2026-04-10T08:37:51.658Z</time></trkpt><trkpt lat="42.0744591" lon="13.4222255"><ele>833.8333333333334</ele><time>2026-04-10T08:37:52.656Z</time></trkpt><trkpt lat="42.0743159" lon="13.4222518"><ele>834.0</ele><time>2026-04-10T08:37:54.658Z</time></trkpt><trkpt lat="42.0742404" lon="13.4222727"><ele>834.0</ele><time>2026-04-10T08:37:55.654Z</time></trkpt><trkpt lat="42.0741668" lon="13.422303"><ele>834.0</ele><time>2026-04-10T08:37:56.653Z</time></trkpt><trkpt lat="42.0741079" lon="13.4223366"><ele>834.0</ele><time>2026-04-10T08:37:57.654Z</time></trkpt><trkpt lat="42.0740267" lon="13.4224055"><ele>834.0</ele><time>2026-04-10T08:37:59.655Z</time></trkpt><trkpt lat="42.0740544" lon="13.4224823"><ele>834.0</ele><time>2026-04-10T08:38:10.666Z</time></trkpt><trkpt lat="42.0741187" lon="13.4224912"><ele>834.0</ele><time>2026-04-10T08:38:13.669Z</time></trkpt><trkpt lat="42.0741299" lon="13.4223857"><ele>834.0</ele><time>2026-04-10T08:38:15.672Z</time></trkpt><trkpt lat="42.0741861" lon="13.4222749"><ele>834.0</ele><time>2026-04-10T08:38:17.649Z</time></trkpt><trkpt lat="42.0742535" lon="13.4222553"><ele>834.0</ele><time>2026-04-10T08:38:18.65Z</time></trkpt><trkpt lat="42.0743367" lon="13.4222413"><ele>834.0</ele><time>2026-04-10T08:38:19.657Z</time></trkpt><trkpt lat="42.0744263" lon="13.4222348"><ele>834.0</ele><time>2026-04-10T08:38:20.651Z</time></trkpt><trkpt lat="42.0744984" lon="13.4222155"><ele>834.0</ele><time>2026-04-10T08:38:21.666Z</time></trkpt><trkpt lat="42.0745622" lon="13.4222201"><ele>834.0</ele><time>2026-04-10T08:38:22.654Z</time></trkpt><trkpt lat="42.0746239" lon="13.4222379"><ele>834.0</ele><time>2026-04-10T08:38:23.645Z</time></trkpt><trkpt lat="42.0746913" lon="13.4222656"><ele>834.0</ele><time>2026-04-10T08:38:24.638Z</time></trkpt><trkpt lat="42.0747606" lon="13.4223001"><ele>834.0</ele><time>2026-04-10T08:38:25.639Z</time></trkpt><trkpt lat="42.0748158" lon="13.4222556"><ele>834.0</ele><time>2026-04-10T08:38:27.662Z</time></trkpt><trkpt lat="42.0748945" lon="13.4221975"><ele>834.0</ele><time>2026-04-10T08:38:30.667Z</time></trkpt><trkpt lat="42.0749576" lon="13.4221867"><ele>834.0</ele><time>2026-04-10T08:38:31.664Z</time></trkpt><trkpt lat="42.0750205" lon="13.4221948"><ele>834.0</ele><time>2026-04-10T08:38:32.658Z</time></trkpt><trkpt lat="42.0750923" lon="13.4222429"><ele>834.0</ele><time>2026-04-10T08:38:33.646Z</time></trkpt><trkpt lat="42.0751693" lon="13.4223105"><ele>833.6</ele><time>2026-04-10T08:38:34.646Z</time></trkpt><trkpt lat="42.0752672" lon="13.4223845"><ele>833.2</ele><time>2026-04-10T08:38:35.648Z</time></trkpt><trkpt lat="42.0753617" lon="13.4224548"><ele>832.8000000000001</ele><time>2026-04-10T08:38:36.655Z</time></trkpt><trkpt lat="42.0754633" lon="13.4225159"><ele>832.4000000000001</ele><time>2026-04-10T08:38:37.658Z</time></trkpt><trkpt lat="42.0755721" lon="13.4225718"><ele>832.0</ele><time>2026-04-10T08:38:38.663Z</time></trkpt><trkpt lat="42.0756833" lon="13.4226183"><ele>833.75</ele><time>2026-04-10T08:38:39.657Z</time></trkpt><trkpt lat="42.0757929" lon="13.4226621"><ele>835.5</ele><time>2026-04-10T08:38:40.655Z</time></trkpt><trkpt lat="42.0759102" lon="13.4226857"><ele>837.25</ele><time>2026-04-10T08:38:41.658Z</time></trkpt><trkpt lat="42.0760346" lon="13.4227002"><ele>839.0</ele><time>2026-04-10T08:38:42.652Z</time></trkpt><trkpt lat="42.0761514" lon="13.4227118"><ele>839.0</ele><time>2026-04-10T08:38:43.657Z</time></trkpt><trkpt lat="42.0762733" lon="13.4227108"><ele>839.0</ele><time>2026-04-10T08:38:44.654Z</time></trkpt><trkpt lat="42.0763917" lon="13.4227212"><ele>839.0</ele><time>2026-04-10T08:38:45.658Z</time></trkpt><trkpt lat="42.0764953" lon="13.4227351"><ele>839.0</ele><time>2026-04-10T08:38:46.654Z</time></trkpt><trkpt lat="42.0765968" lon="13.4227455"><ele>839.0</ele><time>2026-04-10T08:38:47.653Z</time></trkpt><trkpt lat="42.076694" lon="13.4227542"><ele>840.0</ele><time>2026-04-10T08:38:48.641Z</time></trkpt><trkpt lat="42.0768203" lon="13.4227415"><ele>841.0</ele><time>2026-04-10T08:38:49.644Z</time></trkpt><trkpt lat="42.0769645" lon="13.4227282"><ele>842.0</ele><time>2026-04-10T08:38:50.639Z</time></trkpt><trkpt lat="42.0771158" lon="13.4227373"><ele>843.0</ele><time>2026-04-10T08:38:51.645Z</time></trkpt><trkpt lat="42.077274" lon="13.4227541"><ele>844.6666666666667</ele><time>2026-04-10T08:38:52.659Z</time></trkpt><trkpt lat="42.0774498" lon="13.4227723"><ele>846.3333333333334</ele><time>2026-04-10T08:38:53.65Z</time></trkpt><trkpt lat="42.0776261" lon="13.4227987"><ele>848.0</ele><time>2026-04-10T08:38:54.653Z</time></trkpt><trkpt lat="42.0777748" lon="13.4227929"><ele>848.0</ele><time>2026-04-10T08:38:55.65Z</time></trkpt><trkpt lat="42.0779256" lon="13.4227775"><ele>848.0</ele><time>2026-04-10T08:38:56.649Z</time></trkpt><trkpt lat="42.0780653" lon="13.4227915"><ele>848.0</ele><time>2026-04-10T08:38:57.65Z</time></trkpt><trkpt lat="42.0781737" lon="13.4228458"><ele>848.0</ele><time>2026-04-10T08:38:58.659Z</time></trkpt><trkpt lat="42.0783094" lon="13.4228645"><ele>848.8333333333334</ele><time>2026-04-10T08:38:59.653Z</time></trkpt><trkpt lat="42.0784007" lon="13.4228733"><ele>849.6666666666667</ele><time>2026-04-10T08:39:00.664Z</time></trkpt><trkpt lat="42.0784872" lon="13.4228814"><ele>850.5</ele><time>2026-04-10T08:39:01.661Z</time></trkpt><trkpt lat="42.0785818" lon="13.4228714"><ele>851.3333333333333</ele><time>2026-04-10T08:39:02.65Z</time></trkpt><trkpt lat="42.0786689" lon="13.4228785"><ele>852.1666666666666</ele><time>2026-04-10T08:39:03.646Z</time></trkpt><trkpt lat="42.0787326" lon="13.4228965"><ele>853.0</ele><time>2026-04-10T08:39:04.636Z</time></trkpt><trkpt lat="42.0787894" lon="13.4229508"><ele>852.8333333333333</ele><time>2026-04-10T08:39:05.652Z</time></trkpt><trkpt lat="42.0788249" lon="13.4230271"><ele>852.6666666666666</ele><time>2026-04-10T08:39:06.651Z</time></trkpt><trkpt lat="42.0788409" lon="13.4231109"><ele>852.5</ele><time>2026-04-10T08:39:07.652Z</time></trkpt><trkpt lat="42.0788722" lon="13.4232813"><ele>852.3333333333333</ele><time>2026-04-10T08:39:09.661Z</time></trkpt><trkpt lat="42.0788977" lon="13.4233688"><ele>852.1666666666666</ele><time>2026-04-10T08:39:10.661Z</time></trkpt><trkpt lat="42.0789366" lon="13.4234597"><ele>852.0</ele><time>2026-04-10T08:39:11.657Z</time></trkpt><trkpt lat="42.0789815" lon="13.4235357"><ele>852.0</ele><time>2026-04-10T08:39:12.652Z</time></trkpt><trkpt lat="42.0790238" lon="13.4236019"><ele>852.0</ele><time>2026-04-10T08:39:13.647Z</time></trkpt><trkpt lat="42.0790562" lon="13.4236767"><ele>852.0</ele><time>2026-04-10T08:39:14.653Z</time></trkpt><trkpt lat="42.079099" lon="13.4237592"><ele>852.0</ele><time>2026-04-10T08:39:15.651Z</time></trkpt><trkpt lat="42.0791517" lon="13.4238735"><ele>852.0</ele><time>2026-04-10T08:39:16.655Z</time></trkpt><trkpt lat="42.0791987" lon="13.4239932"><ele>852.0</ele><time>2026-04-10T08:39:17.659Z</time></trkpt><trkpt lat="42.0792215" lon="13.4241029"><ele>852.3333333333334</ele><time>2026-04-10T08:39:18.658Z</time></trkpt><trkpt lat="42.0792333" lon="13.4242042"><ele>852.6666666666667</ele><time>2026-04-10T08:39:19.656Z</time></trkpt><trkpt lat="42.0792256" lon="13.4242947"><ele>853.0</ele><time>2026-04-10T08:39:20.664Z</time></trkpt><trkpt lat="42.0791917" lon="13.4244322"><ele>853.3333333333334</ele><time>2026-04-10T08:39:22.668Z</time></trkpt><trkpt lat="42.0791163" lon="13.4245681"><ele>853.6666666666667</ele><time>2026-04-10T08:39:24.657Z</time></trkpt><trkpt lat="42.0790793" lon="13.4246427"><ele>854.0</ele><time>2026-04-10T08:39:25.66Z</time></trkpt><trkpt lat="42.079043" lon="13.4247256"><ele>853.3333333333334</ele><time>2026-04-10T08:39:26.655Z</time></trkpt><trkpt lat="42.0790171" lon="13.4248709"><ele>852.6666666666667</ele><time>2026-04-10T08:39:28.651Z</time></trkpt><trkpt lat="42.0790287" lon="13.4250039"><ele>852.0</ele><time>2026-04-10T08:39:30.658Z</time></trkpt><trkpt lat="42.0790688" lon="13.4249278"><ele>851.3333333333333</ele><time>2026-04-10T08:39:41.675Z</time></trkpt><trkpt lat="42.0790638" lon="13.42483"><ele>850.6666666666666</ele><time>2026-04-10T08:39:46.668Z</time></trkpt><trkpt lat="42.0790597" lon="13.4247301"><ele>850.0</ele><time>2026-04-10T08:39:48.667Z</time></trkpt><trkpt lat="42.0790735" lon="13.4245912"><ele>850.6666666666666</ele><time>2026-04-10T08:39:50.666Z</time></trkpt><trkpt lat="42.0791088" lon="13.4244561"><ele>851.3333333333333</ele><time>2026-04-10T08:39:52.658Z</time></trkpt><trkpt lat="42.0791328" lon="13.424347"><ele>852.0</ele><time>2026-04-10T08:39:54.668Z</time></trkpt><trkpt lat="42.0791809" lon="13.4242649"><ele>852.6666666666667</ele><time>2026-04-10T08:39:56.662Z</time></trkpt><trkpt lat="42.0792468" lon="13.4242402"><ele>853.3333333333334</ele><time>2026-04-10T08:39:59.668Z</time></trkpt><trkpt lat="42.0793114" lon="13.4242338"><ele>854.0</ele><time>2026-04-10T08:40:01.671Z</time></trkpt><trkpt lat="42.0794296" lon="13.4242339"><ele>854.0000000000001</ele><time>2026-04-10T08:40:03.655Z</time></trkpt><trkpt lat="42.079494" lon="13.4242252"><ele>854.0</ele><time>2026-04-10T08:40:04.649Z</time></trkpt><trkpt lat="42.0795645" lon="13.4242008"><ele>854.0</ele><time>2026-04-10T08:40:05.656Z</time></trkpt><trkpt lat="42.0796612" lon="13.4241748"><ele>854.0</ele><time>2026-04-10T08:40:07.649Z</time></trkpt><trkpt lat="42.0797257" lon="13.4242611"><ele>854.0000000000001</ele><time>2026-04-10T08:40:09.649Z</time></trkpt><trkpt lat="42.0797799" lon="13.4244078"><ele>854.0</ele><time>2026-04-10T08:40:11.645Z</time></trkpt><trkpt lat="42.0798089" lon="13.4244833"><ele>854.0</ele><time>2026-04-10T08:40:12.659Z</time></trkpt><trkpt lat="42.0798616" lon="13.4245895"><ele>854.0000000000001</ele><time>2026-04-10T08:40:14.654Z</time></trkpt><trkpt lat="42.0799382" lon="13.424673"><ele>854.0000000000001</ele><time>2026-04-10T08:40:16.649Z</time></trkpt><trkpt lat="42.0800333" lon="13.4247183"><ele>854.0</ele><time>2026-04-10T08:40:18.645Z</time></trkpt><trkpt lat="42.0801498" lon="13.4247737"><ele>854.0</ele><time>2026-04-10T08:40:20.651Z</time></trkpt><trkpt lat="42.0802662" lon="13.4248177"><ele>855.0000000000001</ele><time>2026-04-10T08:40:22.662Z</time></trkpt><trkpt lat="42.0802692" lon="13.4249054"><ele>856.0</ele><time>2026-04-10T08:40:33.672Z</time></trkpt><trkpt lat="42.0802331" lon="13.4249844"><ele>857.0</ele><time>2026-04-10T08:40:35.673Z</time></trkpt><trkpt lat="42.0802119" lon="13.4251284"><ele>858.0</ele><time>2026-04-10T08:40:37.666Z</time></trkpt><trkpt lat="42.0802167" lon="13.4252135"><ele>859.0000000000001</ele><time>2026-04-10T08:40:38.661Z</time></trkpt><trkpt lat="42.0802187" lon="13.4253126"><ele>860.0</ele><time>2026-04-10T08:40:39.657Z</time></trkpt><trkpt lat="42.0802216" lon="13.4254159"><ele>859.8333333333334</ele><time>2026-04-10T08:40:40.66Z</time></trkpt><trkpt lat="42.0802109" lon="13.4255149"><ele>859.6666666666667</ele><time>2026-04-10T08:40:41.651Z</time></trkpt><trkpt lat="42.0801713" lon="13.4256104"><ele>859.5</ele><time>2026-04-10T08:40:42.655Z</time></trkpt><trkpt lat="42.0801511" lon="13.425705"><ele>859.3333333333333</ele><time>2026-04-10T08:40:43.664Z</time></trkpt><trkpt lat="42.0800977" lon="13.4258612"><ele>859.1666666666666</ele><time>2026-04-10T08:40:45.647Z</time></trkpt><trkpt lat="42.0800957" lon="13.4259868"><ele>859.0</ele><time>2026-04-10T08:40:47.649Z</time></trkpt><trkpt lat="42.0801235" lon="13.4261664"><ele>858.9999999999999</ele><time>2026-04-10T08:40:49.658Z</time></trkpt><trkpt lat="42.0801338" lon="13.4262732"><ele>859.0</ele><time>2026-04-10T08:40:50.654Z</time></trkpt><trkpt lat="42.0801381" lon="13.426401"><ele>859.0</ele><time>2026-04-10T08:40:51.641Z</time></trkpt><trkpt lat="42.0801512" lon="13.4265132"><ele>859.0</ele><time>2026-04-10T08:40:52.654Z</time></trkpt><trkpt lat="42.0801641" lon="13.4266302"><ele>858.9999999999999</ele><time>2026-04-10T08:40:53.645Z</time></trkpt><trkpt lat="42.0801818" lon="13.4267518"><ele>859.0</ele><time>2026-04-10T08:40:54.647Z</time></trkpt><trkpt lat="42.0802269" lon="13.4268751"><ele>859.4999999999999</ele><time>2026-04-10T08:40:55.658Z</time></trkpt><trkpt lat="42.080278" lon="13.4269818"><ele>860.0</ele><time>2026-04-10T08:40:56.647Z</time></trkpt><trkpt lat="42.0803433" lon="13.4270242"><ele>860.5</ele><time>2026-04-10T08:40:57.637Z</time></trkpt><trkpt lat="42.0804228" lon="13.4270695"><ele>861.0</ele><time>2026-04-10T08:40:58.636Z</time></trkpt><trkpt lat="42.0804978" lon="13.4271025"><ele>861.4999999999999</ele><time>2026-04-10T08:40:59.646Z</time></trkpt><trkpt lat="42.0805644" lon="13.4271255"><ele>862.0</ele><time>2026-04-10T08:41:00.648Z</time></trkpt><trkpt lat="42.0806297" lon="13.4271496"><ele>862.4000000000001</ele><time>2026-04-10T08:41:01.652Z</time></trkpt><trkpt lat="42.0806925" lon="13.4271908"><ele>862.8000000000001</ele><time>2026-04-10T08:41:02.651Z</time></trkpt><trkpt lat="42.0807488" lon="13.4272448"><ele>863.2</ele><time>2026-04-10T08:41:03.642Z</time></trkpt><trkpt lat="42.0808292" lon="13.4273414"><ele>863.6</ele><time>2026-04-10T08:41:05.647Z</time></trkpt><trkpt lat="42.0809423" lon="13.4274244"><ele>864.0</ele><time>2026-04-10T08:41:07.646Z</time></trkpt><trkpt lat="42.0810199" lon="13.4274665"><ele>864.0</ele><time>2026-04-10T08:41:08.652Z</time></trkpt><trkpt lat="42.0811074" lon="13.4275292"><ele>864.0000000000001</ele><time>2026-04-10T08:41:09.648Z</time></trkpt><trkpt lat="42.0811937" lon="13.4275799"><ele>864.0000000000001</ele><time>2026-04-10T08:41:10.65Z</time></trkpt><trkpt lat="42.0812621" lon="13.4276274"><ele>864.0</ele><time>2026-04-10T08:41:11.653Z</time></trkpt><trkpt lat="42.0813161" lon="13.4276844"><ele>864.0</ele><time>2026-04-10T08:41:12.643Z</time></trkpt><trkpt lat="42.0814027" lon="13.4277957"><ele>864.0</ele><time>2026-04-10T08:41:14.652Z</time></trkpt><trkpt lat="42.0814555" lon="13.4278463"><ele>864.0</ele><time>2026-04-10T08:41:15.655Z</time></trkpt><trkpt lat="42.081509" lon="13.4278951"><ele>864.0</ele><time>2026-04-10T08:41:16.652Z</time></trkpt><trkpt lat="42.0815729" lon="13.4279758"><ele>864.0</ele><time>2026-04-10T08:41:18.659Z</time></trkpt><trkpt lat="42.0816116" lon="13.4280529"><ele>864.0</ele><time>2026-04-10T08:41:20.654Z</time></trkpt><trkpt lat="42.0816525" lon="13.428145"><ele>864.0</ele><time>2026-04-10T08:41:22.668Z</time></trkpt><trkpt lat="42.0817032" lon="13.4282124"><ele>864.0</ele><time>2026-04-10T08:41:24.656Z</time></trkpt><trkpt lat="42.0818158" lon="13.4282679"><ele>865.3333333333334</ele><time>2026-04-10T08:41:26.676Z</time></trkpt><trkpt lat="42.0819332" lon="13.4282873"><ele>866.6666666666667</ele><time>2026-04-10T08:41:28.652Z</time></trkpt><trkpt lat="42.0820152" lon="13.4283178"><ele>868.0</ele><time>2026-04-10T08:41:30.658Z</time></trkpt><trkpt lat="42.0820483" lon="13.4283982"><ele>869.3333333333334</ele><time>2026-04-10T08:41:32.647Z</time></trkpt><trkpt lat="42.082059" lon="13.4285145"><ele>870.6666666666667</ele><time>2026-04-10T08:41:34.65Z</time></trkpt><trkpt lat="42.0820065" lon="13.4285623"><ele>872.0</ele><time>2026-04-10T08:41:44.654Z</time></trkpt><trkpt lat="42.0818717" lon="13.4285369"><ele>872.0</ele><time>2026-04-10T08:41:46.638Z</time></trkpt><trkpt lat="42.0817907" lon="13.4285131"><ele>872.0</ele><time>2026-04-10T08:41:47.643Z</time></trkpt><trkpt lat="42.0816879" lon="13.4284922"><ele>872.0</ele><time>2026-04-10T08:41:48.639Z</time></trkpt><trkpt lat="42.08157" lon="13.4284511"><ele>872.0</ele><time>2026-04-10T08:41:50.637Z</time></trkpt><trkpt lat="42.0814475" lon="13.428438"><ele>872.0</ele><time>2026-04-10T08:41:52.644Z</time></trkpt><trkpt lat="42.0813793" lon="13.4284171"><ele>872.75</ele><time>2026-04-10T08:41:53.636Z</time></trkpt><trkpt lat="42.0812835" lon="13.4283763"><ele>873.5</ele><time>2026-04-10T08:41:55.651Z</time></trkpt><trkpt lat="42.0812054" lon="13.4283239"><ele>874.25</ele><time>2026-04-10T08:41:57.665Z</time></trkpt><trkpt lat="42.0813871" lon="13.4284206"><ele>875.0</ele><time>2026-04-10T08:42:03.651Z</time></trkpt><trkpt lat="42.08148" lon="13.4284508"><ele>875.0000000000001</ele><time>2026-04-10T08:42:04.657Z</time></trkpt><trkpt lat="42.0815736" lon="13.4284785"><ele>875.0</ele><time>2026-04-10T08:42:05.647Z</time></trkpt><trkpt lat="42.0816526" lon="13.4284964"><ele>875.0</ele><time>2026-04-10T08:42:06.647Z</time></trkpt><trkpt lat="42.0817218" lon="13.4285121"><ele>875.0</ele><time>2026-04-10T08:42:07.648Z</time></trkpt><trkpt lat="42.0817986" lon="13.4285329"><ele>875.0000000000001</ele><time>2026-04-10T08:42:08.645Z</time></trkpt><trkpt lat="42.0818831" lon="13.4285653"><ele>875.0</ele><time>2026-04-10T08:42:09.644Z</time></trkpt><trkpt lat="42.0819704" lon="13.4286017"><ele>874.5000000000001</ele><time>2026-04-10T08:42:10.636Z</time></trkpt><trkpt lat="42.0820594" lon="13.4286415"><ele>874.0</ele><time>2026-04-10T08:42:11.636Z</time></trkpt><trkpt lat="42.0821387" lon="13.428681"><ele>873.5</ele><time>2026-04-10T08:42:12.643Z</time></trkpt><trkpt lat="42.0822046" lon="13.4287188"><ele>873.0</ele><time>2026-04-10T08:42:13.64Z</time></trkpt><trkpt lat="42.0822631" lon="13.4287567"><ele>872.5000000000001</ele><time>2026-04-10T08:42:14.634Z</time></trkpt><trkpt lat="42.0823161" lon="13.4288027"><ele>872.0</ele><time>2026-04-10T08:42:15.647Z</time></trkpt><trkpt lat="42.08237" lon="13.4288893"><ele>873.0</ele><time>2026-04-10T08:42:17.632Z</time></trkpt><trkpt lat="42.0824069" lon="13.4289601"><ele>874.0</ele><time>2026-04-10T08:42:26.651Z</time></trkpt><trkpt lat="42.0824955" lon="13.4289974"><ele>875.0</ele><time>2026-04-10T08:42:28.667Z</time></trkpt><trkpt lat="42.0825587" lon="13.4289928"><ele>876.0</ele><time>2026-04-10T08:42:29.645Z</time></trkpt><trkpt lat="42.0826353" lon="13.4289913"><ele>877.0</ele><time>2026-04-10T08:42:30.641Z</time></trkpt><trkpt lat="42.0827113" lon="13.4289921"><ele>878.0</ele><time>2026-04-10T08:42:31.645Z</time></trkpt><trkpt lat="42.0827801" lon="13.4289884"><ele>879.0</ele><time>2026-04-10T08:42:32.629Z</time></trkpt><trkpt lat="42.0829042" lon="13.428978"><ele>879.0</ele><time>2026-04-10T08:42:34.64Z</time></trkpt><trkpt lat="42.0830304" lon="13.4289925"><ele>879.0</ele><time>2026-04-10T08:42:36.641Z</time></trkpt><trkpt lat="42.083095" lon="13.4289951"><ele>879.0</ele><time>2026-04-10T08:42:37.635Z</time></trkpt><trkpt lat="42.083185" lon="13.4289947"><ele>879.0</ele><time>2026-04-10T08:42:39.636Z</time></trkpt><trkpt lat="42.0832661" lon="13.4289809"><ele>879.0</ele><time>2026-04-10T08:42:44.661Z</time></trkpt><trkpt lat="42.0833321" lon="13.4289817"><ele>879.0</ele><time>2026-04-10T08:43:00.675Z</time></trkpt><trkpt lat="42.0833979" lon="13.4290144"><ele>879.8000000000001</ele><time>2026-04-10T08:43:04.669Z</time></trkpt><trkpt lat="42.0834445" lon="13.4290759"><ele>880.6000000000001</ele><time>2026-04-10T08:43:06.661Z</time></trkpt><trkpt lat="42.0835353" lon="13.4291495"><ele>881.4</ele><time>2026-04-10T08:43:08.667Z</time></trkpt><trkpt lat="42.0836523" lon="13.4291921"><ele>882.2</ele><time>2026-04-10T08:43:10.645Z</time></trkpt><trkpt lat="42.083728" lon="13.4291751"><ele>883.0</ele><time>2026-04-10T08:43:11.651Z</time></trkpt><trkpt lat="42.0838121" lon="13.4291476"><ele>883.0</ele><time>2026-04-10T08:43:12.647Z</time></trkpt><trkpt lat="42.0839018" lon="13.4291211"><ele>883.0</ele><time>2026-04-10T08:43:13.648Z</time></trkpt><trkpt lat="42.084017" lon="13.4290939"><ele>883.0</ele><time>2026-04-10T08:43:14.652Z</time></trkpt><trkpt lat="42.0841326" lon="13.429061"><ele>883.0</ele><time>2026-04-10T08:43:15.659Z</time></trkpt><trkpt lat="42.0842535" lon="13.4290365"><ele>883.0</ele><time>2026-04-10T08:43:16.656Z</time></trkpt><trkpt lat="42.0843587" lon="13.4290123"><ele>883.5999999999999</ele><time>2026-04-10T08:43:17.666Z</time></trkpt><trkpt lat="42.084467" lon="13.4289955"><ele>884.1999999999999</ele><time>2026-04-10T08:43:18.662Z</time></trkpt><trkpt lat="42.0845636" lon="13.4289777"><ele>884.8</ele><time>2026-04-10T08:43:19.662Z</time></trkpt><trkpt lat="42.0846505" lon="13.4289524"><ele>885.4</ele><time>2026-04-10T08:43:20.657Z</time></trkpt><trkpt lat="42.0847322" lon="13.4289212"><ele>886.0</ele><time>2026-04-10T08:43:21.662Z</time></trkpt><trkpt lat="42.0848159" lon="13.4288822"><ele>885.9999999999999</ele><time>2026-04-10T08:43:22.664Z</time></trkpt><trkpt lat="42.0849032" lon="13.4288504"><ele>886.0</ele><time>2026-04-10T08:43:23.659Z</time></trkpt><trkpt lat="42.0849883" lon="13.4288043"><ele>886.0</ele><time>2026-04-10T08:43:24.661Z</time></trkpt><trkpt lat="42.0850669" lon="13.4287725"><ele>886.0</ele><time>2026-04-10T08:43:25.665Z</time></trkpt><trkpt lat="42.0851456" lon="13.4287386"><ele>885.9999999999999</ele><time>2026-04-10T08:43:26.666Z</time></trkpt><trkpt lat="42.0852245" lon="13.4287081"><ele>886.0</ele><time>2026-04-10T08:43:27.653Z</time></trkpt><trkpt lat="42.0853035" lon="13.4286778"><ele>887.4</ele><time>2026-04-10T08:43:28.664Z</time></trkpt><trkpt lat="42.0854045" lon="13.4286297"><ele>888.8</ele><time>2026-04-10T08:43:29.655Z</time></trkpt><trkpt lat="42.0855055" lon="13.4285657"><ele>890.1999999999999</ele><time>2026-04-10T08:43:30.677Z</time></trkpt><trkpt lat="42.0856022" lon="13.4285079"><ele>891.5999999999999</ele><time>2026-04-10T08:43:31.664Z</time></trkpt><trkpt lat="42.0856828" lon="13.4284518"><ele>893.0</ele><time>2026-04-10T08:43:32.656Z</time></trkpt><trkpt lat="42.0857612" lon="13.4283918"><ele>894.8</ele><time>2026-04-10T08:43:33.652Z</time></trkpt><trkpt lat="42.0858301" lon="13.4283497"><ele>896.5999999999999</ele><time>2026-04-10T08:43:34.657Z</time></trkpt><trkpt lat="42.0858918" lon="13.4283068"><ele>898.4000000000001</ele><time>2026-04-10T08:43:35.642Z</time></trkpt><trkpt lat="42.0860012" lon="13.4282729"><ele>900.2</ele><time>2026-04-10T08:43:37.651Z</time></trkpt><trkpt lat="42.0861032" lon="13.4283911"><ele>902.0</ele><time>2026-04-10T08:43:39.651Z</time></trkpt><trkpt lat="42.0861287" lon="13.4284992"><ele>902.0</ele><time>2026-04-10T08:43:40.646Z</time></trkpt><trkpt lat="42.0861388" lon="13.4286218"><ele>902.0</ele><time>2026-04-10T08:43:41.639Z</time></trkpt><trkpt lat="42.0861182" lon="13.4287546"><ele>902.0</ele><time>2026-04-10T08:43:42.648Z</time></trkpt><trkpt lat="42.0860993" lon="13.4288877"><ele>902.0</ele><time>2026-04-10T08:43:43.65Z</time></trkpt><trkpt lat="42.0860791" lon="13.4290207"><ele>902.0</ele><time>2026-04-10T08:43:44.653Z</time></trkpt><trkpt lat="42.0860799" lon="13.4291248"><ele>901.2</ele><time>2026-04-10T08:43:45.652Z</time></trkpt><trkpt lat="42.0861096" lon="13.4292761"><ele>900.4000000000001</ele><time>2026-04-10T08:43:47.646Z</time></trkpt><trkpt lat="42.0862087" lon="13.4293826"><ele>899.5999999999999</ele><time>2026-04-10T08:43:49.651Z</time></trkpt><trkpt lat="42.0862851" lon="13.4294119"><ele>898.8</ele><time>2026-04-10T08:43:50.639Z</time></trkpt><trkpt lat="42.0863731" lon="13.4294339"><ele>898.0</ele><time>2026-04-10T08:43:51.641Z</time></trkpt><trkpt lat="42.0864847" lon="13.4294551"><ele>900.25</ele><time>2026-04-10T08:43:52.64Z</time></trkpt><trkpt lat="42.086602" lon="13.4294867"><ele>902.5</ele><time>2026-04-10T08:43:53.648Z</time></trkpt><trkpt lat="42.0867177" lon="13.429518"><ele>904.75</ele><time>2026-04-10T08:43:54.651Z</time></trkpt><trkpt lat="42.0868259" lon="13.4295482"><ele>907.0</ele><time>2026-04-10T08:43:55.647Z</time></trkpt><trkpt lat="42.0869313" lon="13.4295688"><ele>907.0</ele><time>2026-04-10T08:43:56.643Z</time></trkpt><trkpt lat="42.0870438" lon="13.4295762"><ele>907.0</ele><time>2026-04-10T08:43:57.641Z</time></trkpt><trkpt lat="42.0871367" lon="13.4296035"><ele>907.0</ele><time>2026-04-10T08:43:58.647Z</time></trkpt><trkpt lat="42.087211" lon="13.4296537"><ele>907.0</ele><time>2026-04-10T08:43:59.648Z</time></trkpt><trkpt lat="42.0872883" lon="13.429716"><ele>907.0</ele><time>2026-04-10T08:44:00.655Z</time></trkpt><trkpt lat="42.0873389" lon="13.4298126"><ele>906.0</ele><time>2026-04-10T08:44:01.658Z</time></trkpt><trkpt lat="42.0873348" lon="13.4299453"><ele>905.0</ele><time>2026-04-10T08:44:02.661Z</time></trkpt><trkpt lat="42.087319" lon="13.4300881"><ele>904.0</ele><time>2026-04-10T08:44:03.635Z</time></trkpt><trkpt lat="42.0872885" lon="13.4302548"><ele>903.0</ele><time>2026-04-10T08:44:04.632Z</time></trkpt><trkpt lat="42.0872545" lon="13.4303963"><ele>902.0</ele><time>2026-04-10T08:44:05.635Z</time></trkpt><trkpt lat="42.087236" lon="13.4305698"><ele>899.75</ele><time>2026-04-10T08:44:06.645Z</time></trkpt><trkpt lat="42.0872157" lon="13.4307457"><ele>897.5</ele><time>2026-04-10T08:44:07.636Z</time></trkpt><trkpt lat="42.0871983" lon="13.4308986"><ele>895.25</ele><time>2026-04-10T08:44:08.641Z</time></trkpt><trkpt lat="42.0871861" lon="13.4310485"><ele>893.0</ele><time>2026-04-10T08:44:09.64Z</time></trkpt><trkpt lat="42.0871634" lon="13.4312027"><ele>892.0000000000001</ele><time>2026-04-10T08:44:10.642Z</time></trkpt><trkpt lat="42.0871446" lon="13.4313423"><ele>891.0</ele><time>2026-04-10T08:44:11.635Z</time></trkpt><trkpt lat="42.0871294" lon="13.431471"><ele>890.0</ele><time>2026-04-10T08:44:12.636Z</time></trkpt><trkpt lat="42.0871431" lon="13.4315813"><ele>889.0</ele><time>2026-04-10T08:44:13.64Z</time></trkpt><trkpt lat="42.0871772" lon="13.4316666"><ele>888.0000000000001</ele><time>2026-04-10T08:44:14.641Z</time></trkpt><trkpt lat="42.0872297" lon="13.4317369"><ele>887.0</ele><time>2026-04-10T08:44:15.64Z</time></trkpt><trkpt lat="42.0873004" lon="13.4317847"><ele>887.0</ele><time>2026-04-10T08:44:16.649Z</time></trkpt><trkpt lat="42.0873798" lon="13.4318112"><ele>887.0</ele><time>2026-04-10T08:44:17.643Z</time></trkpt><trkpt lat="42.0874776" lon="13.4318393"><ele>887.0</ele><time>2026-04-10T08:44:18.636Z</time></trkpt><trkpt lat="42.0876033" lon="13.431861"><ele>887.0</ele><time>2026-04-10T08:44:19.654Z</time></trkpt><trkpt lat="42.0877397" lon="13.4318973"><ele>887.0</ele><time>2026-04-10T08:44:20.639Z</time></trkpt><trkpt lat="42.0878873" lon="13.4319468"><ele>893.6666666666667</ele><time>2026-04-10T08:44:21.646Z</time></trkpt><trkpt lat="42.088023" lon="13.4320061"><ele>900.3333333333333</ele><time>2026-04-10T08:44:22.649Z</time></trkpt><trkpt lat="42.0881528" lon="13.4320905"><ele>907.0</ele><time>2026-04-10T08:44:23.649Z</time></trkpt><trkpt lat="42.0883121" lon="13.4321397"><ele>909.0</ele><time>2026-04-10T08:44:24.651Z</time></trkpt><trkpt lat="42.0884125" lon="13.4321815"><ele>911.0</ele><time>2026-04-10T08:44:25.646Z</time></trkpt><trkpt lat="42.088522" lon="13.4322312"><ele>913.0</ele><time>2026-04-10T08:44:26.648Z</time></trkpt><trkpt lat="42.0886559" lon="13.4322874"><ele>915.0</ele><time>2026-04-10T08:44:27.657Z</time></trkpt><trkpt lat="42.0887984" lon="13.4323241"><ele>915.0</ele><time>2026-04-10T08:44:28.66Z</time></trkpt><trkpt lat="42.088926" lon="13.4323859"><ele>915.0</ele><time>2026-04-10T08:44:29.661Z</time></trkpt><trkpt lat="42.0890689" lon="13.4324449"><ele>915.0</ele><time>2026-04-10T08:44:30.664Z</time></trkpt><trkpt lat="42.089217" lon="13.4325029"><ele>915.0</ele><time>2026-04-10T08:44:31.677Z</time></trkpt><trkpt lat="42.0893489" lon="13.4325606"><ele>915.75</ele><time>2026-04-10T08:44:32.674Z</time></trkpt><trkpt lat="42.0894666" lon="13.4326332"><ele>916.5</ele><time>2026-04-10T08:44:33.66Z</time></trkpt><trkpt lat="42.0895558" lon="13.4326889"><ele>917.25</ele><time>2026-04-10T08:44:34.662Z</time></trkpt><trkpt lat="42.0897001" lon="13.4327518"><ele>918.0</ele><time>2026-04-10T08:44:35.667Z</time></trkpt><trkpt lat="42.0898197" lon="13.4328086"><ele>917.5</ele><time>2026-04-10T08:44:36.665Z</time></trkpt><trkpt lat="42.0899432" lon="13.4328577"><ele>917.0</ele><time>2026-04-10T08:44:37.66Z</time></trkpt><trkpt lat="42.0900873" lon="13.4329091"><ele>916.5</ele><time>2026-04-10T08:44:38.67Z</time></trkpt><trkpt lat="42.0902157" lon="13.4329666"><ele>916.0</ele><time>2026-04-10T08:44:39.667Z</time></trkpt><trkpt lat="42.0903402" lon="13.4330302"><ele>916.0</ele><time>2026-04-10T08:44:40.669Z</time></trkpt><trkpt lat="42.0904639" lon="13.4330957"><ele>916.0</ele><time>2026-04-10T08:44:41.668Z</time></trkpt><trkpt lat="42.0906011" lon="13.433166"><ele>916.0</ele><time>2026-04-10T08:44:42.67Z</time></trkpt><trkpt lat="42.0907532" lon="13.4332162"><ele>916.0</ele><time>2026-04-10T08:44:43.66Z</time></trkpt><trkpt lat="42.0908765" lon="13.4332666"><ele>918.5</ele><time>2026-04-10T08:44:44.669Z</time></trkpt><trkpt lat="42.0909976" lon="13.4333164"><ele>921.0</ele><time>2026-04-10T08:44:45.671Z</time></trkpt><trkpt lat="42.0911256" lon="13.433367"><ele>923.5</ele><time>2026-04-10T08:44:46.667Z</time></trkpt><trkpt lat="42.0912594" lon="13.4334067"><ele>926.0</ele><time>2026-04-10T08:44:47.679Z</time></trkpt><trkpt lat="42.091375" lon="13.4334507"><ele>926.0</ele><time>2026-04-10T08:44:48.67Z</time></trkpt><trkpt lat="42.0915063" lon="13.4334972"><ele>926.0</ele><time>2026-04-10T08:44:49.677Z</time></trkpt><trkpt lat="42.0916316" lon="13.4335501"><ele>926.0</ele><time>2026-04-10T08:44:50.676Z</time></trkpt><trkpt lat="42.0917545" lon="13.4336094"><ele>926.0</ele><time>2026-04-10T08:44:51.675Z</time></trkpt><trkpt lat="42.0918749" lon="13.4336654"><ele>928.0</ele><time>2026-04-10T08:44:52.918Z</time></trkpt><trkpt lat="42.0921359" lon="13.4337909"><ele>930.0</ele><time>2026-04-10T08:44:54.762Z</time></trkpt><trkpt lat="42.0924046" lon="13.4339049"><ele>932.25</ele><time>2026-04-10T08:44:56.661Z</time></trkpt><trkpt lat="42.0925456" lon="13.4339434"><ele>934.5</ele><time>2026-04-10T08:44:57.652Z</time></trkpt><trkpt lat="42.0926744" lon="13.4339678"><ele>936.75</ele><time>2026-04-10T08:44:58.66Z</time></trkpt><trkpt lat="42.0927897" lon="13.4339677"><ele>939.0</ele><time>2026-04-10T08:44:59.66Z</time></trkpt><trkpt lat="42.0929135" lon="13.4339708"><ele>939.0</ele><time>2026-04-10T08:45:00.667Z</time></trkpt><trkpt lat="42.0930322" lon="13.433999"><ele>939.0</ele><time>2026-04-10T08:45:01.669Z</time></trkpt><trkpt lat="42.093147" lon="13.4340292"><ele>939.0</ele><time>2026-04-10T08:45:02.663Z</time></trkpt><trkpt lat="42.0932675" lon="13.4340556"><ele>939.0</ele><time>2026-04-10T08:45:03.669Z</time></trkpt><trkpt lat="42.093384" lon="13.4340895"><ele>940.25</ele><time>2026-04-10T08:45:04.652Z</time></trkpt><trkpt lat="42.0935065" lon="13.4341432"><ele>941.5</ele><time>2026-04-10T08:45:05.657Z</time></trkpt><trkpt lat="42.0936278" lon="13.434216"><ele>942.75</ele><time>2026-04-10T08:45:06.665Z</time></trkpt><trkpt lat="42.0937444" lon="13.4342956"><ele>944.0</ele><time>2026-04-10T08:45:07.661Z</time></trkpt><trkpt lat="42.0938541" lon="13.434389"><ele>944.0</ele><time>2026-04-10T08:45:08.661Z</time></trkpt><trkpt lat="42.093962" lon="13.4344869"><ele>944.0</ele><time>2026-04-10T08:45:09.659Z</time></trkpt><trkpt lat="42.0940777" lon="13.4345826"><ele>944.0</ele><time>2026-04-10T08:45:10.663Z</time></trkpt><trkpt lat="42.0942039" lon="13.4346768"><ele>944.0</ele><time>2026-04-10T08:45:11.656Z</time></trkpt><trkpt lat="42.094349" lon="13.4347759"><ele>944.3333333333334</ele><time>2026-04-10T08:45:12.655Z</time></trkpt><trkpt lat="42.0945058" lon="13.4348659"><ele>944.6666666666667</ele><time>2026-04-10T08:45:13.657Z</time></trkpt><trkpt lat="42.0946513" lon="13.4349356"><ele>945.0</ele><time>2026-04-10T08:45:14.665Z</time></trkpt><trkpt lat="42.0947757" lon="13.4349892"><ele>945.0</ele><time>2026-04-10T08:45:15.662Z</time></trkpt><trkpt lat="42.0949017" lon="13.4350366"><ele>945.0</ele><time>2026-04-10T08:45:16.658Z</time></trkpt><trkpt lat="42.0950509" lon="13.4350884"><ele>945.0</ele><time>2026-04-10T08:45:17.663Z</time></trkpt><trkpt lat="42.0951993" lon="13.4351323"><ele>945.0</ele><time>2026-04-10T08:45:18.659Z</time></trkpt><trkpt lat="42.0953389" lon="13.4351703"><ele>946.25</ele><time>2026-04-10T08:45:19.656Z</time></trkpt><trkpt lat="42.0954603" lon="13.4352221"><ele>947.5</ele><time>2026-04-10T08:45:20.66Z</time></trkpt><trkpt lat="42.0955706" lon="13.4352843"><ele>948.75</ele><time>2026-04-10T08:45:21.672Z</time></trkpt><trkpt lat="42.0956907" lon="13.4353468"><ele>950.0</ele><time>2026-04-10T08:45:22.655Z</time></trkpt><trkpt lat="42.0958103" lon="13.4354174"><ele>950.5</ele><time>2026-04-10T08:45:23.657Z</time></trkpt><trkpt lat="42.0959334" lon="13.4354854"><ele>951.0</ele><time>2026-04-10T08:45:24.656Z</time></trkpt><trkpt lat="42.0960629" lon="13.4355578"><ele>951.5</ele><time>2026-04-10T08:45:25.658Z</time></trkpt><trkpt lat="42.0962037" lon="13.4356063"><ele>952.0</ele><time>2026-04-10T08:45:26.653Z</time></trkpt><trkpt lat="42.0963407" lon="13.4356402"><ele>952.0</ele><time>2026-04-10T08:45:27.658Z</time></trkpt><trkpt lat="42.0964758" lon="13.435667"><ele>952.0</ele><time>2026-04-10T08:45:28.657Z</time></trkpt><trkpt lat="42.0966046" lon="13.4356983"><ele>952.0</ele><time>2026-04-10T08:45:29.659Z</time></trkpt><trkpt lat="42.0967306" lon="13.4357406"><ele>952.0</ele><time>2026-04-10T08:45:30.667Z</time></trkpt><trkpt lat="42.0968448" lon="13.4357855"><ele>952.8333333333333</ele><time>2026-04-10T08:45:31.65Z</time></trkpt><trkpt lat="42.0969486" lon="13.4358366"><ele>953.6666666666666</ele><time>2026-04-10T08:45:32.646Z</time></trkpt><trkpt lat="42.0970389" lon="13.4358749"><ele>954.5</ele><time>2026-04-10T08:45:33.654Z</time></trkpt><trkpt lat="42.0971236" lon="13.4359117"><ele>955.3333333333333</ele><time>2026-04-10T08:45:34.658Z</time></trkpt><trkpt lat="42.0972046" lon="13.4359438"><ele>956.1666666666666</ele><time>2026-04-10T08:45:35.645Z</time></trkpt><trkpt lat="42.0972641" lon="13.43598"><ele>957.0</ele><time>2026-04-10T08:45:36.642Z</time></trkpt><trkpt lat="42.0972912" lon="13.4360762"><ele>957.0</ele><time>2026-04-10T08:45:38.662Z</time></trkpt><trkpt lat="42.0972148" lon="13.4361492"><ele>957.0</ele><time>2026-04-10T08:45:40.668Z</time></trkpt><trkpt lat="42.0971098" lon="13.4362547"><ele>957.0</ele><time>2026-04-10T08:45:42.648Z</time></trkpt><trkpt lat="42.0970504" lon="13.4363173"><ele>957.0</ele><time>2026-04-10T08:45:43.649Z</time></trkpt><trkpt lat="42.0970017" lon="13.4363793"><ele>957.0</ele><time>2026-04-10T08:45:44.651Z</time></trkpt><trkpt lat="42.0969312" lon="13.4364193"><ele>957.0</ele><time>2026-04-10T08:45:46.673Z</time></trkpt><trkpt lat="42.0968534" lon="13.4364316"><ele>956.6</ele><time>2026-04-10T08:45:48.661Z</time></trkpt><trkpt lat="42.0967458" lon="13.4365044"><ele>956.2</ele><time>2026-04-10T08:45:50.639Z</time></trkpt><trkpt lat="42.0966805" lon="13.4365775"><ele>955.8</ele><time>2026-04-10T08:45:51.641Z</time></trkpt><trkpt lat="42.0966063" lon="13.4366703"><ele>955.4</ele><time>2026-04-10T08:45:52.662Z</time></trkpt><trkpt lat="42.0965291" lon="13.436774"><ele>955.0</ele><time>2026-04-10T08:45:53.636Z</time></trkpt><trkpt lat="42.0964373" lon="13.4368839"><ele>954.0</ele><time>2026-04-10T08:45:54.647Z</time></trkpt><trkpt lat="42.0963313" lon="13.4369885"><ele>953.0</ele><time>2026-04-10T08:45:55.644Z</time></trkpt><trkpt lat="42.0962115" lon="13.4370653"><ele>952.0</ele><time>2026-04-10T08:45:56.638Z</time></trkpt><trkpt lat="42.0960894" lon="13.4371424"><ele>951.0</ele><time>2026-04-10T08:45:57.645Z</time></trkpt><trkpt lat="42.0959652" lon="13.4372163"><ele>950.75</ele><time>2026-04-10T08:45:58.644Z</time></trkpt><trkpt lat="42.095843" lon="13.4372955"><ele>950.5</ele><time>2026-04-10T08:45:59.651Z</time></trkpt><trkpt lat="42.0957202" lon="13.4373865"><ele>950.25</ele><time>2026-04-10T08:46:00.65Z</time></trkpt><trkpt lat="42.0956077" lon="13.4374943"><ele>950.0</ele><time>2026-04-10T08:46:01.66Z</time></trkpt><trkpt lat="42.0955226" lon="13.4376075"><ele>949.0</ele><time>2026-04-10T08:46:02.648Z</time></trkpt><trkpt lat="42.0954341" lon="13.4377165"><ele>948.0</ele><time>2026-04-10T08:46:03.652Z</time></trkpt><trkpt lat="42.095351" lon="13.4378125"><ele>947.0</ele><time>2026-04-10T08:46:04.648Z</time></trkpt><trkpt lat="42.0952797" lon="13.4379008"><ele>946.0</ele><time>2026-04-10T08:46:05.654Z</time></trkpt><trkpt lat="42.0952144" lon="13.437999"><ele>945.0</ele><time>2026-04-10T08:46:06.639Z</time></trkpt><trkpt lat="42.0951263" lon="13.4380947"><ele>944.2</ele><time>2026-04-10T08:46:07.639Z</time></trkpt><trkpt lat="42.0950392" lon="13.4381859"><ele>943.4</ele><time>2026-04-10T08:46:08.65Z</time></trkpt><trkpt lat="42.0949541" lon="13.438266"><ele>942.5999999999999</ele><time>2026-04-10T08:46:09.65Z</time></trkpt><trkpt lat="42.0948785" lon="13.4383576"><ele>941.8</ele><time>2026-04-10T08:46:10.644Z</time></trkpt><trkpt lat="42.0948178" lon="13.4384691"><ele>941.0</ele><time>2026-04-10T08:46:11.638Z</time></trkpt><trkpt lat="42.0947689" lon="13.4385971"><ele>940.5</ele><time>2026-04-10T08:46:12.649Z</time></trkpt><trkpt lat="42.0947283" lon="13.4387526"><ele>940.0</ele><time>2026-04-10T08:46:13.649Z</time></trkpt><trkpt lat="42.0946956" lon="13.4389093"><ele>939.5</ele><time>2026-04-10T08:46:14.649Z</time></trkpt><trkpt lat="42.0946648" lon="13.4390551"><ele>939.0</ele><time>2026-04-10T08:46:15.649Z</time></trkpt><trkpt lat="42.0946321" lon="13.4392012"><ele>938.0</ele><time>2026-04-10T08:46:16.652Z</time></trkpt><trkpt lat="42.0945954" lon="13.4393413"><ele>937.0000000000001</ele><time>2026-04-10T08:46:17.646Z</time></trkpt><trkpt lat="42.0945593" lon="13.4394799"><ele>936.0000000000001</ele><time>2026-04-10T08:46:18.663Z</time></trkpt><trkpt lat="42.0945146" lon="13.439602"><ele>935.0</ele><time>2026-04-10T08:46:19.654Z</time></trkpt><trkpt lat="42.094462" lon="13.4397194"><ele>934.0</ele><time>2026-04-10T08:46:20.649Z</time></trkpt><trkpt lat="42.0944153" lon="13.4398308"><ele>933.8000000000001</ele><time>2026-04-10T08:46:21.651Z</time></trkpt><trkpt lat="42.0943833" lon="13.4399231"><ele>933.6000000000001</ele><time>2026-04-10T08:46:22.661Z</time></trkpt><trkpt lat="42.0943814" lon="13.440029"><ele>933.4</ele><time>2026-04-10T08:46:24.643Z</time></trkpt><trkpt lat="42.0945049" lon="13.4400945"><ele>933.2</ele><time>2026-04-10T08:46:26.649Z</time></trkpt><trkpt lat="42.0946109" lon="13.4401419"><ele>933.0</ele><time>2026-04-10T08:46:27.641Z</time></trkpt><trkpt lat="42.0947236" lon="13.4401958"><ele>933.0</ele><time>2026-04-10T08:46:28.641Z</time></trkpt><trkpt lat="42.0948379" lon="13.440237"><ele>933.0</ele><time>2026-04-10T08:46:29.646Z</time></trkpt><trkpt lat="42.0949619" lon="13.4402454"><ele>933.0</ele><time>2026-04-10T08:46:30.645Z</time></trkpt><trkpt lat="42.0950836" lon="13.4402538"><ele>933.0</ele><time>2026-04-10T08:46:31.649Z</time></trkpt><trkpt lat="42.095209" lon="13.4402709"><ele>934.25</ele><time>2026-04-10T08:46:32.65Z</time></trkpt><trkpt lat="42.0953409" lon="13.4402978"><ele>935.5</ele><time>2026-04-10T08:46:33.648Z</time></trkpt><trkpt lat="42.0954628" lon="13.4403485"><ele>936.75</ele><time>2026-04-10T08:46:34.652Z</time></trkpt><trkpt lat="42.0955845" lon="13.4404106"><ele>938.0</ele><time>2026-04-10T08:46:35.65Z</time></trkpt><trkpt lat="42.095715" lon="13.4404719"><ele>939.0</ele><time>2026-04-10T08:46:36.659Z</time></trkpt><trkpt lat="42.095847" lon="13.4405193"><ele>940.0</ele><time>2026-04-10T08:46:37.65Z</time></trkpt><trkpt lat="42.0959814" lon="13.440548"><ele>941.0</ele><time>2026-04-10T08:46:38.658Z</time></trkpt><trkpt lat="42.0961085" lon="13.4405638"><ele>942.0</ele><time>2026-04-10T08:46:39.647Z</time></trkpt><trkpt lat="42.0962319" lon="13.4405739"><ele>942.0</ele><time>2026-04-10T08:46:40.653Z</time></trkpt><trkpt lat="42.0963568" lon="13.4405818"><ele>942.0</ele><time>2026-04-10T08:46:41.655Z</time></trkpt><trkpt lat="42.0964837" lon="13.4405843"><ele>942.0</ele><time>2026-04-10T08:46:42.647Z</time></trkpt><trkpt lat="42.0966134" lon="13.4405907"><ele>942.0</ele><time>2026-04-10T08:46:43.649Z</time></trkpt><trkpt lat="42.0967419" lon="13.4405948"><ele>942.4000000000001</ele><time>2026-04-10T08:46:44.654Z</time></trkpt><trkpt lat="42.0968679" lon="13.4406041"><ele>942.8000000000001</ele><time>2026-04-10T08:46:45.65Z</time></trkpt><trkpt lat="42.0969828" lon="13.440618"><ele>943.2</ele><time>2026-04-10T08:46:46.64Z</time></trkpt><trkpt lat="42.0970855" lon="13.440636"><ele>943.6</ele><time>2026-04-10T08:46:47.646Z</time></trkpt><trkpt lat="42.0971775" lon="13.4406478"><ele>944.0</ele><time>2026-04-10T08:46:48.639Z</time></trkpt><trkpt lat="42.0972651" lon="13.4406593"><ele>944.0000000000001</ele><time>2026-04-10T08:46:49.634Z</time></trkpt><trkpt lat="42.0973573" lon="13.4406638"><ele>944.0</ele><time>2026-04-10T08:46:50.626Z</time></trkpt><trkpt lat="42.0974498" lon="13.4406714"><ele>944.0</ele><time>2026-04-10T08:46:51.626Z</time></trkpt><trkpt lat="42.0975358" lon="13.4406834"><ele>944.0</ele><time>2026-04-10T08:46:52.617Z</time></trkpt><trkpt lat="42.0976137" lon="13.4407062"><ele>944.0000000000001</ele><time>2026-04-10T08:46:53.618Z</time></trkpt><trkpt lat="42.0976803" lon="13.4407327"><ele>944.0</ele><time>2026-04-10T08:46:54.62Z</time></trkpt><trkpt lat="42.0977745" lon="13.4407785"><ele>944.8333333333334</ele><time>2026-04-10T08:46:56.635Z</time></trkpt><trkpt lat="42.0978212" lon="13.4408405"><ele>945.6666666666667</ele><time>2026-04-10T08:46:58.637Z</time></trkpt><trkpt lat="42.0978768" lon="13.4409379"><ele>946.5</ele><time>2026-04-10T08:47:00.633Z</time></trkpt><trkpt lat="42.0979104" lon="13.441021"><ele>947.3333333333333</ele><time>2026-04-10T08:47:01.639Z</time></trkpt><trkpt lat="42.0979481" lon="13.4411239"><ele>948.1666666666666</ele><time>2026-04-10T08:47:02.63Z</time></trkpt><trkpt lat="42.0979981" lon="13.4412203"><ele>949.0</ele><time>2026-04-10T08:47:03.625Z</time></trkpt><trkpt lat="42.0980613" lon="13.4413005"><ele>950.2</ele><time>2026-04-10T08:47:04.621Z</time></trkpt><trkpt lat="42.0981326" lon="13.4413583"><ele>951.4000000000001</ele><time>2026-04-10T08:47:05.62Z</time></trkpt><trkpt lat="42.0982202" lon="13.4414012"><ele>952.6</ele><time>2026-04-10T08:47:06.621Z</time></trkpt><trkpt lat="42.0983188" lon="13.4414326"><ele>953.8</ele><time>2026-04-10T08:47:07.638Z</time></trkpt><trkpt lat="42.0984202" lon="13.4414565"><ele>955.0</ele><time>2026-04-10T08:47:08.622Z</time></trkpt><trkpt lat="42.0985305" lon="13.441472"><ele>955.5</ele><time>2026-04-10T08:47:09.624Z</time></trkpt><trkpt lat="42.0986447" lon="13.4414768"><ele>956.0</ele><time>2026-04-10T08:47:10.627Z</time></trkpt><trkpt lat="42.0987576" lon="13.4414886"><ele>956.5</ele><time>2026-04-10T08:47:11.627Z</time></trkpt><trkpt lat="42.098884" lon="13.4415042"><ele>957.0</ele><time>2026-04-10T08:47:12.643Z</time></trkpt><trkpt lat="42.0990091" lon="13.4415353"><ele>956.5</ele><time>2026-04-10T08:47:13.633Z</time></trkpt><trkpt lat="42.0991286" lon="13.4415785"><ele>956.0</ele><time>2026-04-10T08:47:14.641Z</time></trkpt><trkpt lat="42.0992421" lon="13.4416321"><ele>955.5</ele><time>2026-04-10T08:47:15.634Z</time></trkpt><trkpt lat="42.0993438" lon="13.4416832"><ele>955.0</ele><time>2026-04-10T08:47:16.64Z</time></trkpt><trkpt lat="42.0994368" lon="13.4417313"><ele>955.0</ele><time>2026-04-10T08:47:17.638Z</time></trkpt><trkpt lat="42.0995269" lon="13.4417657"><ele>955.0</ele><time>2026-04-10T08:47:18.633Z</time></trkpt><trkpt lat="42.0996196" lon="13.4417744"><ele>955.0</ele><time>2026-04-10T08:47:19.632Z</time></trkpt><trkpt lat="42.0997172" lon="13.441785"><ele>955.0</ele><time>2026-04-10T08:47:20.624Z</time></trkpt><trkpt lat="42.0998205" lon="13.4418075"><ele>955.0</ele><time>2026-04-10T08:47:21.635Z</time></trkpt><trkpt lat="42.0999235" lon="13.4418271"><ele>955.0</ele><time>2026-04-10T08:47:22.639Z</time></trkpt><trkpt lat="42.1000138" lon="13.4418632"><ele>955.0</ele><time>2026-04-10T08:47:23.636Z</time></trkpt><trkpt lat="42.1001061" lon="13.4419029"><ele>955.0</ele><time>2026-04-10T08:47:24.635Z</time></trkpt><trkpt lat="42.1002039" lon="13.4419356"><ele>955.0</ele><time>2026-04-10T08:47:25.636Z</time></trkpt><trkpt lat="42.1003091" lon="13.4419549"><ele>955.0</ele><time>2026-04-10T08:47:26.636Z</time></trkpt><trkpt lat="42.100417" lon="13.4419699"><ele>955.0</ele><time>2026-04-10T08:47:27.641Z</time></trkpt><trkpt lat="42.1005212" lon="13.4419809"><ele>955.0</ele><time>2026-04-10T08:47:28.643Z</time></trkpt><trkpt lat="42.1006213" lon="13.4419865"><ele>955.0</ele><time>2026-04-10T08:47:29.632Z</time></trkpt><trkpt lat="42.1007183" lon="13.4419965"><ele>955.0</ele><time>2026-04-10T08:47:30.638Z</time></trkpt><trkpt lat="42.1008052" lon="13.4420235"><ele>955.0</ele><time>2026-04-10T08:47:31.655Z</time></trkpt><trkpt lat="42.100891" lon="13.4420537"><ele>955.6</ele><time>2026-04-10T08:47:32.64Z</time></trkpt><trkpt lat="42.1009922" lon="13.4420748"><ele>956.2</ele><time>2026-04-10T08:47:33.637Z</time></trkpt><trkpt lat="42.1010997" lon="13.442099"><ele>956.8</ele><time>2026-04-10T08:47:34.63Z</time></trkpt><trkpt lat="42.1012128" lon="13.4421248"><ele>957.4</ele><time>2026-04-10T08:47:35.632Z</time></trkpt><trkpt lat="42.1013282" lon="13.4421386"><ele>958.0</ele><time>2026-04-10T08:47:36.636Z</time></trkpt><trkpt lat="42.1014287" lon="13.4421461"><ele>958.1666666666666</ele><time>2026-04-10T08:47:37.638Z</time></trkpt><trkpt lat="42.1015133" lon="13.4421713"><ele>958.3333333333333</ele><time>2026-04-10T08:47:38.648Z</time></trkpt><trkpt lat="42.1015822" lon="13.4422092"><ele>958.5</ele><time>2026-04-10T08:47:39.638Z</time></trkpt><trkpt lat="42.1016738" lon="13.4422345"><ele>958.6666666666667</ele><time>2026-04-10T08:47:41.63Z</time></trkpt><trkpt lat="42.1017485" lon="13.4421478"><ele>958.8333333333334</ele><time>2026-04-10T08:47:43.633Z</time></trkpt><trkpt lat="42.1017728" lon="13.4420522"><ele>959.0</ele><time>2026-04-10T08:47:44.637Z</time></trkpt><trkpt lat="42.1018036" lon="13.4419378"><ele>959.0</ele><time>2026-04-10T08:47:45.637Z</time></trkpt><trkpt lat="42.1018477" lon="13.4418261"><ele>959.0000000000001</ele><time>2026-04-10T08:47:46.633Z</time></trkpt><trkpt lat="42.101905" lon="13.4417129"><ele>959.0000000000001</ele><time>2026-04-10T08:47:47.638Z</time></trkpt><trkpt lat="42.1019775" lon="13.4416165"><ele>959.0</ele><time>2026-04-10T08:47:48.639Z</time></trkpt><trkpt lat="42.1020456" lon="13.44154"><ele>959.0</ele><time>2026-04-10T08:47:49.63Z</time></trkpt><trkpt lat="42.1021112" lon="13.4414573"><ele>959.0</ele><time>2026-04-10T08:47:50.631Z</time></trkpt><trkpt lat="42.1021767" lon="13.4413562"><ele>959.0000000000001</ele><time>2026-04-10T08:47:51.635Z</time></trkpt><trkpt lat="42.1022379" lon="13.4412608"><ele>959.0000000000001</ele><time>2026-04-10T08:47:52.632Z</time></trkpt><trkpt lat="42.1023056" lon="13.4411747"><ele>959.0</ele><time>2026-04-10T08:47:53.636Z</time></trkpt><trkpt lat="42.1023822" lon="13.4411101"><ele>959.0</ele><time>2026-04-10T08:47:54.64Z</time></trkpt><trkpt lat="42.102471" lon="13.4410648"><ele>960.4000000000001</ele><time>2026-04-10T08:47:55.634Z</time></trkpt><trkpt lat="42.1025646" lon="13.441034"><ele>961.8000000000001</ele><time>2026-04-10T08:47:56.635Z</time></trkpt><trkpt lat="42.1026651" lon="13.4410103"><ele>963.1999999999999</ele><time>2026-04-10T08:47:57.63Z</time></trkpt><trkpt lat="42.1027698" lon="13.4410038"><ele>964.5999999999999</ele><time>2026-04-10T08:47:58.627Z</time></trkpt><trkpt lat="42.102878" lon="13.4409837"><ele>966.0</ele><time>2026-04-10T08:47:59.625Z</time></trkpt><trkpt lat="42.1029904" lon="13.4409561"><ele>966.0</ele><time>2026-04-10T08:48:00.617Z</time></trkpt><trkpt lat="42.1030988" lon="13.4409081"><ele>965.9999999999999</ele><time>2026-04-10T08:48:01.632Z</time></trkpt><trkpt lat="42.1031953" lon="13.440857"><ele>965.9999999999999</ele><time>2026-04-10T08:48:02.627Z</time></trkpt><trkpt lat="42.103276" lon="13.4408076"><ele>966.0</ele><time>2026-04-10T08:48:03.631Z</time></trkpt><trkpt lat="42.1033483" lon="13.4407458"><ele>966.0</ele><time>2026-04-10T08:48:05.627Z</time></trkpt><trkpt lat="42.1033421" lon="13.4408573"><ele>966.6666666666666</ele><time>2026-04-10T08:48:22.639Z</time></trkpt><trkpt lat="42.1033736" lon="13.4410107"><ele>967.3333333333333</ele><time>2026-04-10T08:48:24.647Z</time></trkpt><trkpt lat="42.1034098" lon="13.4411061"><ele>968.0</ele><time>2026-04-10T08:48:26.654Z</time></trkpt><trkpt lat="42.1034549" lon="13.4411833"><ele>968.6666666666666</ele><time>2026-04-10T08:48:32.644Z</time></trkpt><trkpt lat="42.1035022" lon="13.4412695"><ele>969.3333333333333</ele><time>2026-04-10T08:48:34.647Z</time></trkpt><trkpt lat="42.1035469" lon="13.4413523"><ele>970.0</ele><time>2026-04-10T08:48:35.632Z</time></trkpt><trkpt lat="42.1036119" lon="13.4414538"><ele>970.0</ele><time>2026-04-10T08:48:36.628Z</time></trkpt><trkpt lat="42.1037077" lon="13.441604"><ele>970.0</ele><time>2026-04-10T08:48:37.639Z</time></trkpt><trkpt lat="42.1038103" lon="13.4417698"><ele>970.0</ele><time>2026-04-10T08:48:38.645Z</time></trkpt><trkpt lat="42.1038915" lon="13.4419477"><ele>970.0</ele><time>2026-04-10T08:48:39.647Z</time></trkpt><trkpt lat="42.1039684" lon="13.4421289"><ele>970.0</ele><time>2026-04-10T08:48:40.661Z</time></trkpt><trkpt lat="42.1040299" lon="13.4422874"><ele>970.0</ele><time>2026-04-10T08:48:41.645Z</time></trkpt><trkpt lat="42.1040772" lon="13.442421"><ele>970.0</ele><time>2026-04-10T08:48:42.652Z</time></trkpt><trkpt lat="42.1041234" lon="13.4425481"><ele>970.75</ele><time>2026-04-10T08:48:43.648Z</time></trkpt><trkpt lat="42.1041779" lon="13.4426783"><ele>971.5</ele><time>2026-04-10T08:48:44.647Z</time></trkpt><trkpt lat="42.104246" lon="13.4428067"><ele>972.25</ele><time>2026-04-10T08:48:45.654Z</time></trkpt><trkpt lat="42.1043243" lon="13.4429271"><ele>973.0</ele><time>2026-04-10T08:48:46.646Z</time></trkpt><trkpt lat="42.1044136" lon="13.4430552"><ele>973.0</ele><time>2026-04-10T08:48:47.653Z</time></trkpt><trkpt lat="42.1044919" lon="13.4431976"><ele>973.0</ele><time>2026-04-10T08:48:48.653Z</time></trkpt><trkpt lat="42.1045582" lon="13.4433502"><ele>973.0</ele><time>2026-04-10T08:48:49.643Z</time></trkpt><trkpt lat="42.1046065" lon="13.4435049"><ele>973.0</ele><time>2026-04-10T08:48:50.646Z</time></trkpt><trkpt lat="42.1046566" lon="13.4436509"><ele>973.0</ele><time>2026-04-10T08:48:51.646Z</time></trkpt><trkpt lat="42.104714" lon="13.4437856"><ele>973.0</ele><time>2026-04-10T08:48:52.647Z</time></trkpt><trkpt lat="42.1047768" lon="13.4439076"><ele>973.0</ele><time>2026-04-10T08:48:53.647Z</time></trkpt><trkpt lat="42.1048581" lon="13.4440241"><ele>973.0</ele><time>2026-04-10T08:48:54.648Z</time></trkpt><trkpt lat="42.1049311" lon="13.4441591"><ele>973.5</ele><time>2026-04-10T08:48:55.645Z</time></trkpt><trkpt lat="42.1049932" lon="13.4443106"><ele>974.0</ele><time>2026-04-10T08:48:56.644Z</time></trkpt><trkpt lat="42.1050476" lon="13.4444679"><ele>974.5</ele><time>2026-04-10T08:48:57.64Z</time></trkpt><trkpt lat="42.1051042" lon="13.4446276"><ele>975.0</ele><time>2026-04-10T08:48:58.647Z</time></trkpt><trkpt lat="42.1051627" lon="13.4447727"><ele>975.4</ele><time>2026-04-10T08:48:59.639Z</time></trkpt><trkpt lat="42.1052138" lon="13.4448982"><ele>975.8</ele><time>2026-04-10T08:49:00.649Z</time></trkpt><trkpt lat="42.1052558" lon="13.4450128"><ele>976.2</ele><time>2026-04-10T08:49:01.642Z</time></trkpt><trkpt lat="42.1052956" lon="13.4451265"><ele>976.6</ele><time>2026-04-10T08:49:02.627Z</time></trkpt><trkpt lat="42.1053301" lon="13.4452507"><ele>977.0</ele><time>2026-04-10T08:49:03.638Z</time></trkpt><trkpt lat="42.1053703" lon="13.445366"><ele>977.0</ele><time>2026-04-10T08:49:04.634Z</time></trkpt><trkpt lat="42.1054149" lon="13.4454757"><ele>977.0</ele><time>2026-04-10T08:49:05.64Z</time></trkpt><trkpt lat="42.1054609" lon="13.4455855"><ele>977.0</ele><time>2026-04-10T08:49:06.632Z</time></trkpt><trkpt lat="42.1055089" lon="13.4457002"><ele>977.0</ele><time>2026-04-10T08:49:07.633Z</time></trkpt><trkpt lat="42.105563" lon="13.4458136"><ele>977.0</ele><time>2026-04-10T08:49:08.634Z</time></trkpt><trkpt lat="42.1056115" lon="13.4459223"><ele>977.0</ele><time>2026-04-10T08:49:09.629Z</time></trkpt><trkpt lat="42.1056478" lon="13.446023"><ele>977.0</ele><time>2026-04-10T08:49:10.64Z</time></trkpt><trkpt lat="42.1056818" lon="13.4461115"><ele>977.0</ele><time>2026-04-10T08:49:11.652Z</time></trkpt><trkpt lat="42.1057351" lon="13.446232"><ele>977.0</ele><time>2026-04-10T08:49:13.637Z</time></trkpt><trkpt lat="42.1057853" lon="13.4463418"><ele>977.0</ele><time>2026-04-10T08:49:15.64Z</time></trkpt><trkpt lat="42.1058349" lon="13.4464934"><ele>978.8</ele><time>2026-04-10T08:49:17.637Z</time></trkpt><trkpt lat="42.1058528" lon="13.4465872"><ele>980.6</ele><time>2026-04-10T08:49:18.641Z</time></trkpt><trkpt lat="42.105874" lon="13.4466923"><ele>982.3999999999999</ele><time>2026-04-10T08:49:19.645Z</time></trkpt><trkpt lat="42.1058868" lon="13.446786"><ele>984.1999999999999</ele><time>2026-04-10T08:49:20.64Z</time></trkpt><trkpt lat="42.1059232" lon="13.446944"><ele>986.0</ele><time>2026-04-10T08:49:22.646Z</time></trkpt><trkpt lat="42.1059751" lon="13.4470901"><ele>987.0000000000001</ele><time>2026-04-10T08:49:24.64Z</time></trkpt><trkpt lat="42.1060347" lon="13.4472492"><ele>988.0</ele><time>2026-04-10T08:49:26.635Z</time></trkpt><trkpt lat="42.1060516" lon="13.4473354"><ele>989.0</ele><time>2026-04-10T08:49:27.646Z</time></trkpt><trkpt lat="42.1060816" lon="13.4474671"><ele>990.0</ele><time>2026-04-10T08:49:29.665Z</time></trkpt><trkpt lat="42.1061366" lon="13.4475354"><ele>991.0000000000001</ele><time>2026-04-10T08:49:31.653Z</time></trkpt><trkpt lat="42.1061971" lon="13.4475834"><ele>992.0</ele><time>2026-04-10T08:49:33.658Z</time></trkpt><trkpt lat="42.106261" lon="13.4476713"><ele>992.0</ele><time>2026-04-10T09:04:57.633Z</time></trkpt><trkpt lat="42.1063229" lon="13.4477367"><ele>992.0</ele><time>2026-04-10T09:04:59.644Z</time></trkpt><trkpt lat="42.1063689" lon="13.4478553"><ele>992.0</ele><time>2026-04-10T09:05:02.66Z</time></trkpt><trkpt lat="42.1064349" lon="13.4479282"><ele>992.0</ele><time>2026-04-10T09:05:03.663Z</time></trkpt><trkpt lat="42.1065233" lon="13.44806"><ele>992.0</ele><time>2026-04-10T09:05:05.66Z</time></trkpt><trkpt lat="42.1065685" lon="13.4481479"><ele>993.6</ele><time>2026-04-10T09:05:06.651Z</time></trkpt><trkpt lat="42.1066129" lon="13.4482508"><ele>995.2</ele><time>2026-04-10T09:05:07.649Z</time></trkpt><trkpt lat="42.1066675" lon="13.4483533"><ele>996.8</ele><time>2026-04-10T09:05:08.649Z</time></trkpt><trkpt lat="42.1067179" lon="13.4484626"><ele>998.4</ele><time>2026-04-10T09:05:09.652Z</time></trkpt><trkpt lat="42.1067589" lon="13.4485787"><ele>1000.0</ele><time>2026-04-10T09:05:10.651Z</time></trkpt><trkpt lat="42.106793" lon="13.4486983"><ele>1000.4</ele><time>2026-04-10T09:05:11.656Z</time></trkpt><trkpt lat="42.1068271" lon="13.4488153"><ele>1000.8</ele><time>2026-04-10T09:05:12.652Z</time></trkpt><trkpt lat="42.1068571" lon="13.4489172"><ele>1001.2</ele><time>2026-04-10T09:05:13.649Z</time></trkpt><trkpt lat="42.1068902" lon="13.4490307"><ele>1001.6</ele><time>2026-04-10T09:05:14.649Z</time></trkpt><trkpt lat="42.1069219" lon="13.4491513"><ele>1002.0</ele><time>2026-04-10T09:05:15.649Z</time></trkpt><trkpt lat="42.106962" lon="13.4492737"><ele>1002.0</ele><time>2026-04-10T09:05:16.648Z</time></trkpt><trkpt lat="42.1070049" lon="13.4493916"><ele>1002.0</ele><time>2026-04-10T09:05:17.653Z</time></trkpt><trkpt lat="42.1070408" lon="13.4495009"><ele>1002.0</ele><time>2026-04-10T09:05:18.645Z</time></trkpt><trkpt lat="42.1071046" lon="13.4495991"><ele>1002.0</ele><time>2026-04-10T09:05:20.643Z</time></trkpt><trkpt lat="42.1071495" lon="13.4496586"><ele>1002.0</ele><time>2026-04-10T09:05:24.661Z</time></trkpt><trkpt lat="42.1071822" lon="13.4497617"><ele>1002.0</ele><time>2026-04-10T09:05:27.657Z</time></trkpt><trkpt lat="42.1072222" lon="13.4498344"><ele>1002.5</ele><time>2026-04-10T09:05:29.655Z</time></trkpt><trkpt lat="42.1072809" lon="13.4499172"><ele>1003.0</ele><time>2026-04-10T09:05:31.663Z</time></trkpt><trkpt lat="42.1073315" lon="13.4500111"><ele>1003.5</ele><time>2026-04-10T09:05:33.658Z</time></trkpt><trkpt lat="42.1073647" lon="13.4500854"><ele>1004.0</ele><time>2026-04-10T09:05:35.66Z</time></trkpt><trkpt lat="42.1074089" lon="13.4501743"><ele>1004.5</ele><time>2026-04-10T09:05:37.655Z</time></trkpt><trkpt lat="42.1074657" lon="13.4502613"><ele>1005.0</ele><time>2026-04-10T09:05:39.652Z</time></trkpt><trkpt lat="42.1075138" lon="13.450359"><ele>1006.3333333333334</ele><time>2026-04-10T09:05:41.652Z</time></trkpt><trkpt lat="42.1075631" lon="13.450493"><ele>1007.6666666666667</ele><time>2026-04-10T09:05:43.646Z</time></trkpt><trkpt lat="42.1075924" lon="13.4505757"><ele>1009.0</ele><time>2026-04-10T09:05:44.646Z</time></trkpt><trkpt lat="42.1076275" lon="13.4506693"><ele>1010.3333333333334</ele><time>2026-04-10T09:05:45.648Z</time></trkpt><trkpt lat="42.107666" lon="13.4507707"><ele>1011.6666666666667</ele><time>2026-04-10T09:05:46.646Z</time></trkpt><trkpt lat="42.1077098" lon="13.45088"><ele>1013.0</ele><time>2026-04-10T09:05:47.651Z</time></trkpt><trkpt lat="42.1077568" lon="13.4509939"><ele>1013.0000000000001</ele><time>2026-04-10T09:05:48.653Z</time></trkpt><trkpt lat="42.107806" lon="13.4511107"><ele>1013.0</ele><time>2026-04-10T09:05:49.654Z</time></trkpt><trkpt lat="42.1078513" lon="13.4512213"><ele>1013.0</ele><time>2026-04-10T09:05:50.655Z</time></trkpt><trkpt lat="42.1078947" lon="13.4513292"><ele>1013.0</ele><time>2026-04-10T09:05:51.652Z</time></trkpt><trkpt lat="42.1079301" lon="13.4514294"><ele>1013.0000000000001</ele><time>2026-04-10T09:05:52.654Z</time></trkpt><trkpt lat="42.1079657" lon="13.4515148"><ele>1013.0</ele><time>2026-04-10T09:05:53.652Z</time></trkpt><trkpt lat="42.1079936" lon="13.4515984"><ele>1013.1666666666667</ele><time>2026-04-10T09:05:54.65Z</time></trkpt><trkpt lat="42.1080082" lon="13.4516974"><ele>1013.3333333333334</ele><time>2026-04-10T09:05:55.651Z</time></trkpt><trkpt lat="42.1080052" lon="13.4517975"><ele>1013.5</ele><time>2026-04-10T09:05:56.653Z</time></trkpt><trkpt lat="42.1080073" lon="13.451901"><ele>1013.6666666666667</ele><time>2026-04-10T09:05:57.652Z</time></trkpt><trkpt lat="42.1080239" lon="13.4520066"><ele>1013.8333333333334</ele><time>2026-04-10T09:05:58.659Z</time></trkpt><trkpt lat="42.1080434" lon="13.4521101"><ele>1014.0</ele><time>2026-04-10T09:05:59.656Z</time></trkpt><trkpt lat="42.1080581" lon="13.4522259"><ele>1014.0</ele><time>2026-04-10T09:06:00.652Z</time></trkpt><trkpt lat="42.1080632" lon="13.4523559"><ele>1014.0000000000001</ele><time>2026-04-10T09:06:01.647Z</time></trkpt><trkpt lat="42.1080675" lon="13.4525006"><ele>1014.0000000000001</ele><time>2026-04-10T09:06:02.647Z</time></trkpt><trkpt lat="42.1080592" lon="13.4526593"><ele>1014.0</ele><time>2026-04-10T09:06:03.65Z</time></trkpt><trkpt lat="42.1080549" lon="13.4528176"><ele>1014.0</ele><time>2026-04-10T09:06:04.655Z</time></trkpt><trkpt lat="42.1080511" lon="13.4529679"><ele>1015.2</ele><time>2026-04-10T09:06:05.657Z</time></trkpt><trkpt lat="42.1080638" lon="13.4531093"><ele>1016.4000000000001</ele><time>2026-04-10T09:06:06.653Z</time></trkpt><trkpt lat="42.1080956" lon="13.4532532"><ele>1017.6</ele><time>2026-04-10T09:06:07.657Z</time></trkpt><trkpt lat="42.1081421" lon="13.4533791"><ele>1018.8</ele><time>2026-04-10T09:06:08.653Z</time></trkpt><trkpt lat="42.1081897" lon="13.4534977"><ele>1020.0</ele><time>2026-04-10T09:06:09.647Z</time></trkpt><trkpt lat="42.1082281" lon="13.4536124"><ele>1022.0</ele><time>2026-04-10T09:06:10.653Z</time></trkpt><trkpt lat="42.108251" lon="13.4537313"><ele>1024.0</ele><time>2026-04-10T09:06:11.656Z</time></trkpt><trkpt lat="42.1082655" lon="13.4538575"><ele>1026.0</ele><time>2026-04-10T09:06:12.652Z</time></trkpt><trkpt lat="42.1082728" lon="13.4539951"><ele>1028.0</ele><time>2026-04-10T09:06:13.654Z</time></trkpt><trkpt lat="42.1082754" lon="13.4541266"><ele>1030.0</ele><time>2026-04-10T09:06:14.653Z</time></trkpt><trkpt lat="42.108275" lon="13.4542629"><ele>1031.2</ele><time>2026-04-10T09:06:15.652Z</time></trkpt><trkpt lat="42.1082767" lon="13.4543932"><ele>1032.4</ele><time>2026-04-10T09:06:16.647Z</time></trkpt><trkpt lat="42.1082875" lon="13.4545288"><ele>1033.6</ele><time>2026-04-10T09:06:17.655Z</time></trkpt><trkpt lat="42.1083023" lon="13.4546655"><ele>1034.8</ele><time>2026-04-10T09:06:18.653Z</time></trkpt><trkpt lat="42.1083167" lon="13.4547937"><ele>1036.0</ele><time>2026-04-10T09:06:19.658Z</time></trkpt><trkpt lat="42.1083254" lon="13.4549124"><ele>1036.8333333333333</ele><time>2026-04-10T09:06:20.656Z</time></trkpt><trkpt lat="42.1083488" lon="13.455018"><ele>1037.6666666666665</ele><time>2026-04-10T09:06:21.653Z</time></trkpt><trkpt lat="42.1083838" lon="13.4551147"><ele>1038.5</ele><time>2026-04-10T09:06:22.66Z</time></trkpt><trkpt lat="42.1084064" lon="13.4552069"><ele>1039.3333333333333</ele><time>2026-04-10T09:06:23.656Z</time></trkpt><trkpt lat="42.1084194" lon="13.4552939"><ele>1040.1666666666667</ele><time>2026-04-10T09:06:24.654Z</time></trkpt><trkpt lat="42.1084367" lon="13.4554439"><ele>1041.0</ele><time>2026-04-10T09:06:26.651Z</time></trkpt><trkpt lat="42.1084783" lon="13.4555939"><ele>1042.0</ele><time>2026-04-10T09:06:28.654Z</time></trkpt><trkpt lat="42.1084882" lon="13.4556937"><ele>1043.0</ele><time>2026-04-10T09:06:29.66Z</time></trkpt><trkpt lat="42.1085019" lon="13.4557938"><ele>1044.0</ele><time>2026-04-10T09:06:30.663Z</time></trkpt><trkpt lat="42.1085214" lon="13.4558907"><ele>1045.0</ele><time>2026-04-10T09:06:31.664Z</time></trkpt><trkpt lat="42.1085474" lon="13.4559911"><ele>1046.0</ele><time>2026-04-10T09:06:32.653Z</time></trkpt><trkpt lat="42.1085749" lon="13.4560938"><ele>1047.0</ele><time>2026-04-10T09:06:33.658Z</time></trkpt><trkpt lat="42.1086045" lon="13.4562053"><ele>1048.4</ele><time>2026-04-10T09:06:34.658Z</time></trkpt><trkpt lat="42.1086313" lon="13.4563242"><ele>1049.8000000000002</ele><time>2026-04-10T09:06:35.656Z</time></trkpt><trkpt lat="42.1086461" lon="13.456442"><ele>1051.2</ele><time>2026-04-10T09:06:36.657Z</time></trkpt><trkpt lat="42.1086492" lon="13.4565637"><ele>1052.6000000000001</ele><time>2026-04-10T09:06:37.653Z</time></trkpt><trkpt lat="42.1086525" lon="13.4566881"><ele>1054.0</ele><time>2026-04-10T09:06:38.656Z</time></trkpt><trkpt lat="42.1086537" lon="13.4568156"><ele>1054.0</ele><time>2026-04-10T09:06:39.661Z</time></trkpt><trkpt lat="42.108648" lon="13.4569423"><ele>1054.0</ele><time>2026-04-10T09:06:40.654Z</time></trkpt><trkpt lat="42.1086462" lon="13.4570675"><ele>1054.0</ele><time>2026-04-10T09:06:41.655Z</time></trkpt><trkpt lat="42.1086424" lon="13.457212"><ele>1054.0</ele><time>2026-04-10T09:06:42.658Z</time></trkpt><trkpt lat="42.1086326" lon="13.4573393"><ele>1054.0</ele><time>2026-04-10T09:06:43.651Z</time></trkpt><trkpt lat="42.1086297" lon="13.4574516"><ele>1055.6666666666665</ele><time>2026-04-10T09:06:44.643Z</time></trkpt><trkpt lat="42.1086227" lon="13.4575592"><ele>1057.3333333333333</ele><time>2026-04-10T09:06:45.638Z</time></trkpt><trkpt lat="42.1086176" lon="13.4576758"><ele>1059.0</ele><time>2026-04-10T09:06:46.645Z</time></trkpt><trkpt lat="42.1086008" lon="13.4577944"><ele>1060.6666666666667</ele><time>2026-04-10T09:06:47.649Z</time></trkpt><trkpt lat="42.1085611" lon="13.4579081"><ele>1062.3333333333335</ele><time>2026-04-10T09:06:48.65Z</time></trkpt><trkpt lat="42.1085241" lon="13.4580307"><ele>1064.0</ele><time>2026-04-10T09:06:49.652Z</time></trkpt><trkpt lat="42.1085042" lon="13.4581569"><ele>1065.5</ele><time>2026-04-10T09:06:50.653Z</time></trkpt><trkpt lat="42.1084997" lon="13.4582803"><ele>1067.0</ele><time>2026-04-10T09:06:51.652Z</time></trkpt><trkpt lat="42.1084971" lon="13.4583948"><ele>1068.5</ele><time>2026-04-10T09:06:52.651Z</time></trkpt><trkpt lat="42.1085083" lon="13.4584946"><ele>1070.0</ele><time>2026-04-10T09:06:53.654Z</time></trkpt><trkpt lat="42.1085103" lon="13.4585884"><ele>1071.5</ele><time>2026-04-10T09:06:54.656Z</time></trkpt><trkpt lat="42.1085034" lon="13.4586839"><ele>1073.0</ele><time>2026-04-10T09:06:55.655Z</time></trkpt><trkpt lat="42.1085014" lon="13.4587882"><ele>1074.8</ele><time>2026-04-10T09:06:56.655Z</time></trkpt><trkpt lat="42.1084902" lon="13.4588991"><ele>1076.6</ele><time>2026-04-10T09:06:57.655Z</time></trkpt><trkpt lat="42.1084813" lon="13.4590203"><ele>1078.4</ele><time>2026-04-10T09:06:58.659Z</time></trkpt><trkpt lat="42.1084811" lon="13.4591466"><ele>1080.2</ele><time>2026-04-10T09:06:59.662Z</time></trkpt><trkpt lat="42.1084883" lon="13.4592717"><ele>1082.0</ele><time>2026-04-10T09:07:00.664Z</time></trkpt><trkpt lat="42.1084978" lon="13.4593947"><ele>1082.0</ele><time>2026-04-10T09:07:01.662Z</time></trkpt><trkpt lat="42.1085089" lon="13.4595184"><ele>1082.0</ele><time>2026-04-10T09:07:02.657Z</time></trkpt><trkpt lat="42.1085246" lon="13.4596398"><ele>1082.0</ele><time>2026-04-10T09:07:03.656Z</time></trkpt><trkpt lat="42.1085416" lon="13.4597369"><ele>1082.0</ele><time>2026-04-10T09:07:04.648Z</time></trkpt><trkpt lat="42.1085665" lon="13.4598155"><ele>1082.0</ele><time>2026-04-10T09:07:05.644Z</time></trkpt><trkpt lat="42.1085871" lon="13.4598978"><ele>1082.0</ele><time>2026-04-10T09:07:07.644Z</time></trkpt><trkpt lat="42.1085383" lon="13.4599668"><ele>1083.8333333333335</ele><time>2026-04-10T09:07:10.648Z</time></trkpt><trkpt lat="42.1084673" lon="13.4600563"><ele>1085.6666666666667</ele><time>2026-04-10T09:07:12.647Z</time></trkpt><trkpt lat="42.1084293" lon="13.4601259"><ele>1087.5</ele><time>2026-04-10T09:07:13.654Z</time></trkpt><trkpt lat="42.1084014" lon="13.4602027"><ele>1089.3333333333333</ele><time>2026-04-10T09:07:14.646Z</time></trkpt><trkpt lat="42.1083894" lon="13.4602953"><ele>1091.1666666666665</ele><time>2026-04-10T09:07:15.648Z</time></trkpt><trkpt lat="42.1084137" lon="13.4604225"><ele>1093.0</ele><time>2026-04-10T09:07:16.656Z</time></trkpt><trkpt lat="42.1084597" lon="13.4605375"><ele>1095.0</ele><time>2026-04-10T09:07:17.654Z</time></trkpt><trkpt lat="42.1085028" lon="13.4606561"><ele>1097.0</ele><time>2026-04-10T09:07:18.652Z</time></trkpt><trkpt lat="42.1085302" lon="13.4607684"><ele>1099.0</ele><time>2026-04-10T09:07:19.653Z</time></trkpt><trkpt lat="42.108558" lon="13.460893"><ele>1101.0</ele><time>2026-04-10T09:07:20.653Z</time></trkpt><trkpt lat="42.1085734" lon="13.4610054"><ele>1103.0</ele><time>2026-04-10T09:07:21.647Z</time></trkpt><trkpt lat="42.1085938" lon="13.4611081"><ele>1105.0</ele><time>2026-04-10T09:07:22.652Z</time></trkpt><trkpt lat="42.1086149" lon="13.4611964"><ele>1105.0</ele><time>2026-04-10T09:07:23.652Z</time></trkpt><trkpt lat="42.1086484" lon="13.4612729"><ele>1105.0</ele><time>2026-04-10T09:07:24.65Z</time></trkpt><trkpt lat="42.1086751" lon="13.4613532"><ele>1105.0</ele><time>2026-04-10T09:07:25.65Z</time></trkpt><trkpt lat="42.108699" lon="13.4614436"><ele>1105.0</ele><time>2026-04-10T09:07:26.651Z</time></trkpt><trkpt lat="42.1087105" lon="13.4615435"><ele>1105.0</ele><time>2026-04-10T09:07:27.65Z</time></trkpt><trkpt lat="42.108715" lon="13.4616411"><ele>1105.0</ele><time>2026-04-10T09:07:28.648Z</time></trkpt><trkpt lat="42.1087117" lon="13.4618027"><ele>1106.0</ele><time>2026-04-10T09:07:30.655Z</time></trkpt><trkpt lat="42.1087072" lon="13.461893"><ele>1107.0</ele><time>2026-04-10T09:07:31.663Z</time></trkpt><trkpt lat="42.1086893" lon="13.4619861"><ele>1108.0</ele><time>2026-04-10T09:07:32.655Z</time></trkpt><trkpt lat="42.1086623" lon="13.4620889"><ele>1109.0</ele><time>2026-04-10T09:07:33.663Z</time></trkpt><trkpt lat="42.108633" lon="13.4621979"><ele>1110.0</ele><time>2026-04-10T09:07:34.658Z</time></trkpt><trkpt lat="42.108599" lon="13.4623153"><ele>1111.0</ele><time>2026-04-10T09:07:35.662Z</time></trkpt><trkpt lat="42.1085678" lon="13.4624376"><ele>1111.0</ele><time>2026-04-10T09:07:36.664Z</time></trkpt><trkpt lat="42.1085401" lon="13.4625533"><ele>1111.0</ele><time>2026-04-10T09:07:37.657Z</time></trkpt><trkpt lat="42.1085137" lon="13.4626663"><ele>1111.0</ele><time>2026-04-10T09:07:38.657Z</time></trkpt><trkpt lat="42.1084842" lon="13.4627725"><ele>1111.0</ele><time>2026-04-10T09:07:39.655Z</time></trkpt><trkpt lat="42.1084457" lon="13.4628779"><ele>1111.0</ele><time>2026-04-10T09:07:40.66Z</time></trkpt><trkpt lat="42.1083981" lon="13.4629868"><ele>1111.0</ele><time>2026-04-10T09:07:41.666Z</time></trkpt><trkpt lat="42.1083495" lon="13.4630886"><ele>1110.2</ele><time>2026-04-10T09:07:42.659Z</time></trkpt><trkpt lat="42.1082997" lon="13.4631962"><ele>1109.3999999999999</ele><time>2026-04-10T09:07:43.659Z</time></trkpt><trkpt lat="42.1082509" lon="13.4633024"><ele>1108.6</ele><time>2026-04-10T09:07:44.666Z</time></trkpt><trkpt lat="42.1081973" lon="13.4634075"><ele>1107.8</ele><time>2026-04-10T09:07:45.657Z</time></trkpt><trkpt lat="42.1081453" lon="13.4635098"><ele>1107.0</ele><time>2026-04-10T09:07:46.656Z</time></trkpt><trkpt lat="42.1080261" lon="13.4637392"><ele>1105.0</ele><time>2026-04-10T09:07:48.654Z</time></trkpt><trkpt lat="42.1079536" lon="13.4638741"><ele>1103.0</ele><time>2026-04-10T09:07:49.651Z</time></trkpt><trkpt lat="42.107876" lon="13.4640262"><ele>1101.0</ele><time>2026-04-10T09:07:50.654Z</time></trkpt><trkpt lat="42.1077875" lon="13.4641862"><ele>1099.0</ele><time>2026-04-10T09:07:51.656Z</time></trkpt><trkpt lat="42.1076825" lon="13.4643639"><ele>1099.0</ele><time>2026-04-10T09:07:52.663Z</time></trkpt><trkpt lat="42.1075849" lon="13.4645207"><ele>1099.0</ele><time>2026-04-10T09:07:53.667Z</time></trkpt><trkpt lat="42.1074878" lon="13.4646839"><ele>1099.0</ele><time>2026-04-10T09:07:54.663Z</time></trkpt><trkpt lat="42.107402" lon="13.4648642"><ele>1098.0</ele><time>2026-04-10T09:07:55.663Z</time></trkpt><trkpt lat="42.107334" lon="13.4650425"><ele>1097.0</ele><time>2026-04-10T09:07:56.661Z</time></trkpt><trkpt lat="42.107275" lon="13.4652196"><ele>1096.0</ele><time>2026-04-10T09:07:57.653Z</time></trkpt><trkpt lat="42.1073012" lon="13.4654566"><ele>1098.0</ele><time>2026-04-10T09:07:58.651Z</time></trkpt><trkpt lat="42.1073192" lon="13.4656988"><ele>1100.0</ele><time>2026-04-10T09:07:59.65Z</time></trkpt><trkpt lat="42.1073504" lon="13.4659184"><ele>1102.0</ele><time>2026-04-10T09:08:00.655Z</time></trkpt><trkpt lat="42.1073965" lon="13.4661256"><ele>1099.0</ele><time>2026-04-10T09:08:01.66Z</time></trkpt><trkpt lat="42.107506" lon="13.4663829"><ele>1096.0</ele><time>2026-04-10T09:08:02.654Z</time></trkpt><trkpt lat="42.1076219" lon="13.4666428"><ele>1093.0</ele><time>2026-04-10T09:08:03.648Z</time></trkpt><trkpt lat="42.107715" lon="13.466922"><ele>1090.5</ele><time>2026-04-10T09:08:04.646Z</time></trkpt><trkpt lat="42.1078236" lon="13.4671949"><ele>1088.0</ele><time>2026-04-10T09:08:05.651Z</time></trkpt><trkpt lat="42.1079293" lon="13.4674753"><ele>1088.0</ele><time>2026-04-10T09:08:06.648Z</time></trkpt><trkpt lat="42.1080442" lon="13.4677326"><ele>1088.0</ele><time>2026-04-10T09:08:07.649Z</time></trkpt><trkpt lat="42.1081389" lon="13.4680184"><ele>1089.5</ele><time>2026-04-10T09:08:08.651Z</time></trkpt><trkpt lat="42.108247" lon="13.4683099"><ele>1091.0</ele><time>2026-04-10T09:08:09.651Z</time></trkpt><trkpt lat="42.1083684" lon="13.4685921"><ele>1088.5</ele><time>2026-04-10T09:08:10.651Z</time></trkpt><trkpt lat="42.1084609" lon="13.4688642"><ele>1086.0</ele><time>2026-04-10T09:08:11.654Z</time></trkpt><trkpt lat="42.1085558" lon="13.4691445"><ele>1086.0</ele><time>2026-04-10T09:08:12.652Z</time></trkpt><trkpt lat="42.1086662" lon="13.4694143"><ele>1086.0</ele><time>2026-04-10T09:08:13.657Z</time></trkpt><trkpt lat="42.1087451" lon="13.4696809"><ele>1086.0</ele><time>2026-04-10T09:08:14.651Z</time></trkpt><trkpt lat="42.1088082" lon="13.4699576"><ele>1086.3333333333333</ele><time>2026-04-10T09:08:15.657Z</time></trkpt><trkpt lat="42.108924" lon="13.4702175"><ele>1086.6666666666665</ele><time>2026-04-10T09:08:16.647Z</time></trkpt><trkpt lat="42.1089458" lon="13.470508"><ele>1087.0</ele><time>2026-04-10T09:08:17.659Z</time></trkpt><trkpt lat="42.1089453" lon="13.4707769"><ele>1088.0</ele><time>2026-04-10T09:08:18.647Z</time></trkpt><trkpt lat="42.1089017" lon="13.4710472"><ele>1089.0</ele><time>2026-04-10T09:08:19.651Z</time></trkpt><trkpt lat="42.1088689" lon="13.4713147"><ele>1090.0</ele><time>2026-04-10T09:08:20.641Z</time></trkpt><trkpt lat="42.1089051" lon="13.4715941"><ele>1090.0</ele><time>2026-04-10T09:08:21.64Z</time></trkpt><trkpt lat="42.108976" lon="13.4718976"><ele>1090.0</ele><time>2026-04-10T09:08:22.648Z</time></trkpt><trkpt lat="42.10905" lon="13.4721694"><ele>1091.3333333333333</ele><time>2026-04-10T09:08:23.648Z</time></trkpt><trkpt lat="42.1091159" lon="13.4724436"><ele>1092.6666666666667</ele><time>2026-04-10T09:08:24.645Z</time></trkpt><trkpt lat="42.1091888" lon="13.4727116"><ele>1094.0</ele><time>2026-04-10T09:08:25.645Z</time></trkpt><trkpt lat="42.1092584" lon="13.4729693"><ele>1094.0</ele><time>2026-04-10T09:08:26.639Z</time></trkpt><trkpt lat="42.1093429" lon="13.4732655"><ele>1094.0</ele><time>2026-04-10T09:08:27.641Z</time></trkpt><trkpt lat="42.1094455" lon="13.473516"><ele>1094.0</ele><time>2026-04-10T09:08:28.641Z</time></trkpt><trkpt lat="42.109568" lon="13.4737405"><ele>1092.3333333333335</ele><time>2026-04-10T09:08:29.65Z</time></trkpt><trkpt lat="42.1096787" lon="13.4739575"><ele>1090.6666666666667</ele><time>2026-04-10T09:08:30.662Z</time></trkpt><trkpt lat="42.1097613" lon="13.4741983"><ele>1089.0</ele><time>2026-04-10T09:08:31.66Z</time></trkpt><trkpt lat="42.1098508" lon="13.4744389"><ele>1093.0</ele><time>2026-04-10T09:08:32.656Z</time></trkpt><trkpt lat="42.1099607" lon="13.4746471"><ele>1097.0</ele><time>2026-04-10T09:08:33.659Z</time></trkpt><trkpt lat="42.1100744" lon="13.4748646"><ele>1101.0</ele><time>2026-04-10T09:08:34.653Z</time></trkpt><trkpt lat="42.1101528" lon="13.4750869"><ele>1101.0</ele><time>2026-04-10T09:08:35.644Z</time></trkpt><trkpt lat="42.1101889" lon="13.4753423"><ele>1101.0</ele><time>2026-04-10T09:08:36.634Z</time></trkpt><trkpt lat="42.1102016" lon="13.475602"><ele>1101.0</ele><time>2026-04-10T09:08:37.648Z</time></trkpt><trkpt lat="42.1102342" lon="13.4758823"><ele>1101.3333333333333</ele><time>2026-04-10T09:08:38.657Z</time></trkpt><trkpt lat="42.1103094" lon="13.4761191"><ele>1101.6666666666665</ele><time>2026-04-10T09:08:39.655Z</time></trkpt><trkpt lat="42.1103763" lon="13.4763755"><ele>1102.0</ele><time>2026-04-10T09:08:40.652Z</time></trkpt><trkpt lat="42.1105063" lon="13.4765841"><ele>1100.3333333333333</ele><time>2026-04-10T09:08:41.647Z</time></trkpt><trkpt lat="42.1106418" lon="13.4768204"><ele>1098.6666666666667</ele><time>2026-04-10T09:08:42.655Z</time></trkpt><trkpt lat="42.1107941" lon="13.4770222"><ele>1097.0</ele><time>2026-04-10T09:08:43.659Z</time></trkpt><trkpt lat="42.1109121" lon="13.4772391"><ele>1103.5</ele><time>2026-04-10T09:08:44.657Z</time></trkpt><trkpt lat="42.1110261" lon="13.4775062"><ele>1110.0</ele><time>2026-04-10T09:08:45.651Z</time></trkpt><trkpt lat="42.1111346" lon="13.4777717"><ele>1110.3333333333333</ele><time>2026-04-10T09:08:46.664Z</time></trkpt><trkpt lat="42.1112144" lon="13.4780824"><ele>1110.6666666666665</ele><time>2026-04-10T09:08:47.659Z</time></trkpt><trkpt lat="42.1112253" lon="13.4783552"><ele>1111.0</ele><time>2026-04-10T09:08:48.653Z</time></trkpt><trkpt lat="42.1112043" lon="13.4785971"><ele>1110.0</ele><time>2026-04-10T09:08:49.653Z</time></trkpt><trkpt lat="42.1112029" lon="13.4788873"><ele>1109.0</ele><time>2026-04-10T09:08:50.651Z</time></trkpt><trkpt lat="42.1112626" lon="13.4791359"><ele>1108.0</ele><time>2026-04-10T09:08:51.647Z</time></trkpt><trkpt lat="42.1113385" lon="13.4793987"><ele>1105.0</ele><time>2026-04-10T09:08:52.653Z</time></trkpt><trkpt lat="42.1113718" lon="13.4796768"><ele>1102.0</ele><time>2026-04-10T09:08:53.651Z</time></trkpt><trkpt lat="42.1114082" lon="13.4799855"><ele>1099.0</ele><time>2026-04-10T09:08:54.646Z</time></trkpt><trkpt lat="42.1114071" lon="13.4802872"><ele>1098.3333333333333</ele><time>2026-04-10T09:08:55.652Z</time></trkpt><trkpt lat="42.1113923" lon="13.480578"><ele>1097.6666666666667</ele><time>2026-04-10T09:08:56.647Z</time></trkpt><trkpt lat="42.1113378" lon="13.4808795"><ele>1097.0</ele><time>2026-04-10T09:08:57.655Z</time></trkpt><trkpt lat="42.1112781" lon="13.4811808"><ele>1096.5</ele><time>2026-04-10T09:08:58.658Z</time></trkpt><trkpt lat="42.111182" lon="13.4814623"><ele>1096.0</ele><time>2026-04-10T09:08:59.656Z</time></trkpt><trkpt lat="42.111089" lon="13.4817621"><ele>1096.0</ele><time>2026-04-10T09:09:00.657Z</time></trkpt><trkpt lat="42.1110037" lon="13.48204"><ele>1096.0</ele><time>2026-04-10T09:09:01.661Z</time></trkpt><trkpt lat="42.110912" lon="13.4823044"><ele>1096.0</ele><time>2026-04-10T09:09:02.644Z</time></trkpt><trkpt lat="42.110762" lon="13.4825153"><ele>1088.5</ele><time>2026-04-10T09:09:03.643Z</time></trkpt><trkpt lat="42.1105528" lon="13.4827056"><ele>1081.0</ele><time>2026-04-10T09:09:04.647Z</time></trkpt><trkpt lat="42.1103328" lon="13.48286"><ele>1083.3333333333333</ele><time>2026-04-10T09:09:05.646Z</time></trkpt><trkpt lat="42.1101607" lon="13.4830436"><ele>1085.6666666666667</ele><time>2026-04-10T09:09:06.648Z</time></trkpt><trkpt lat="42.1100154" lon="13.4832063"><ele>1088.0</ele><time>2026-04-10T09:09:07.644Z</time></trkpt><trkpt lat="42.1098901" lon="13.4833991"><ele>1078.5</ele><time>2026-04-10T09:09:08.651Z</time></trkpt><trkpt lat="42.1098142" lon="13.4836747"><ele>1069.0</ele><time>2026-04-10T09:09:09.648Z</time></trkpt><trkpt lat="42.1097743" lon="13.4839853"><ele>1069.0</ele><time>2026-04-10T09:09:10.649Z</time></trkpt><trkpt lat="42.1097414" lon="13.4842718"><ele>1069.0</ele><time>2026-04-10T09:09:11.651Z</time></trkpt><trkpt lat="42.1097645" lon="13.4845617"><ele>1069.0</ele><time>2026-04-10T09:09:12.649Z</time></trkpt><trkpt lat="42.1098413" lon="13.4848076"><ele>1067.3333333333333</ele><time>2026-04-10T09:09:13.655Z</time></trkpt><trkpt lat="42.1099019" lon="13.485038"><ele>1065.6666666666667</ele><time>2026-04-10T09:09:14.655Z</time></trkpt><trkpt lat="42.1099469" lon="13.4853068"><ele>1064.0</ele><time>2026-04-10T09:09:15.652Z</time></trkpt><trkpt lat="42.1099516" lon="13.4855975"><ele>1064.0</ele><time>2026-04-10T09:09:16.651Z</time></trkpt><trkpt lat="42.1098518" lon="13.4858672"><ele>1064.0</ele><time>2026-04-10T09:09:17.649Z</time></trkpt><trkpt lat="42.1097724" lon="13.4861143"><ele>1064.0</ele><time>2026-04-10T09:09:18.651Z</time></trkpt><trkpt lat="42.1096435" lon="13.4863234"><ele>1066.5</ele><time>2026-04-10T09:09:19.652Z</time></trkpt><trkpt lat="42.1094911" lon="13.4865886"><ele>1069.0</ele><time>2026-04-10T09:09:20.658Z</time></trkpt><trkpt lat="42.1093654" lon="13.4868461"><ele>1070.3333333333333</ele><time>2026-04-10T09:09:21.652Z</time></trkpt><trkpt lat="42.1092411" lon="13.4871071"><ele>1071.6666666666667</ele><time>2026-04-10T09:09:22.654Z</time></trkpt><trkpt lat="42.1091213" lon="13.4873384"><ele>1073.0</ele><time>2026-04-10T09:09:23.654Z</time></trkpt><trkpt lat="42.1089931" lon="13.4875509"><ele>1070.0</ele><time>2026-04-10T09:09:24.652Z</time></trkpt><trkpt lat="42.108876" lon="13.4877539"><ele>1067.0</ele><time>2026-04-10T09:09:25.648Z</time></trkpt><trkpt lat="42.1087332" lon="13.4879651"><ele>1064.0</ele><time>2026-04-10T09:09:26.649Z</time></trkpt><trkpt lat="42.1085901" lon="13.4881634"><ele>1064.0</ele><time>2026-04-10T09:09:27.65Z</time></trkpt><trkpt lat="42.1084217" lon="13.4883465"><ele>1064.0</ele><time>2026-04-10T09:09:28.644Z</time></trkpt><trkpt lat="42.1082077" lon="13.4884693"><ele>1064.0</ele><time>2026-04-10T09:09:29.643Z</time></trkpt><trkpt lat="42.1080135" lon="13.4885442"><ele>1058.3333333333335</ele><time>2026-04-10T09:09:30.655Z</time></trkpt><trkpt lat="42.1078247" lon="13.4885788"><ele>1052.6666666666667</ele><time>2026-04-10T09:09:31.654Z</time></trkpt><trkpt lat="42.107629" lon="13.4886167"><ele>1047.0</ele><time>2026-04-10T09:09:32.644Z</time></trkpt><trkpt lat="42.1074815" lon="13.4887041"><ele>1044.3333333333333</ele><time>2026-04-10T09:09:33.642Z</time></trkpt><trkpt lat="42.1073431" lon="13.4888023"><ele>1041.6666666666665</ele><time>2026-04-10T09:09:34.646Z</time></trkpt><trkpt lat="42.1072716" lon="13.4890377"><ele>1039.0</ele><time>2026-04-10T09:09:35.65Z</time></trkpt><trkpt lat="42.1072383" lon="13.4893274"><ele>1037.0</ele><time>2026-04-10T09:09:36.646Z</time></trkpt><trkpt lat="42.1071895" lon="13.4896072"><ele>1035.0</ele><time>2026-04-10T09:09:37.648Z</time></trkpt><trkpt lat="42.1071289" lon="13.4898614"><ele>1033.0</ele><time>2026-04-10T09:09:38.642Z</time></trkpt><trkpt lat="42.1070844" lon="13.490097"><ele>1033.0</ele><time>2026-04-10T09:09:39.645Z</time></trkpt><trkpt lat="42.1070384" lon="13.4903336"><ele>1033.0</ele><time>2026-04-10T09:09:40.643Z</time></trkpt><trkpt lat="42.1070064" lon="13.4906197"><ele>1033.0</ele><time>2026-04-10T09:09:41.65Z</time></trkpt><trkpt lat="42.1070042" lon="13.4908593"><ele>1031.6666666666665</ele><time>2026-04-10T09:09:42.648Z</time></trkpt><trkpt lat="42.1070341" lon="13.4911382"><ele>1030.3333333333333</ele><time>2026-04-10T09:09:43.644Z</time></trkpt><trkpt lat="42.1070556" lon="13.49141"><ele>1029.0</ele><time>2026-04-10T09:09:44.654Z</time></trkpt><trkpt lat="42.1071006" lon="13.4916884"><ele>1031.3333333333333</ele><time>2026-04-10T09:09:45.64Z</time></trkpt><trkpt lat="42.1072208" lon="13.4918081"><ele>1033.6666666666665</ele><time>2026-04-10T09:09:46.635Z</time></trkpt><trkpt lat="42.1073243" lon="13.4919447"><ele>1036.0</ele><time>2026-04-10T09:09:47.65Z</time></trkpt><trkpt lat="42.1074222" lon="13.4921133"><ele>1036.0</ele><time>2026-04-10T09:09:48.638Z</time></trkpt><trkpt lat="42.1074986" lon="13.4922916"><ele>1036.0</ele><time>2026-04-10T09:09:49.642Z</time></trkpt><trkpt lat="42.1075809" lon="13.4925139"><ele>1036.0</ele><time>2026-04-10T09:09:50.633Z</time></trkpt><trkpt lat="42.1076359" lon="13.4927491"><ele>1034.0</ele><time>2026-04-10T09:09:51.636Z</time></trkpt><trkpt lat="42.1076797" lon="13.4929877"><ele>1032.0</ele><time>2026-04-10T09:09:52.641Z</time></trkpt><trkpt lat="42.1076809" lon="13.4932197"><ele>1030.0</ele><time>2026-04-10T09:09:53.639Z</time></trkpt><trkpt lat="42.1076317" lon="13.4934494"><ele>1030.0</ele><time>2026-04-10T09:09:54.636Z</time></trkpt><trkpt lat="42.1075517" lon="13.4936412"><ele>1030.0</ele><time>2026-04-10T09:09:55.633Z</time></trkpt><trkpt lat="42.1074141" lon="13.4938145"><ele>1030.0</ele><time>2026-04-10T09:09:56.623Z</time></trkpt><trkpt lat="42.1072771" lon="13.493979"><ele>1025.3333333333333</ele><time>2026-04-10T09:09:57.635Z</time></trkpt><trkpt lat="42.1070945" lon="13.4941815"><ele>1020.6666666666667</ele><time>2026-04-10T09:09:58.633Z</time></trkpt><trkpt lat="42.1069362" lon="13.494338"><ele>1016.0</ele><time>2026-04-10T09:09:59.644Z</time></trkpt><trkpt lat="42.1067873" lon="13.4945303"><ele>1016.6666666666667</ele><time>2026-04-10T09:10:00.645Z</time></trkpt><trkpt lat="42.1066807" lon="13.4947231"><ele>1017.3333333333333</ele><time>2026-04-10T09:10:01.651Z</time></trkpt><trkpt lat="42.1066709" lon="13.4949971"><ele>1018.0</ele><time>2026-04-10T09:10:02.648Z</time></trkpt><trkpt lat="42.1066288" lon="13.4952573"><ele>1018.6666666666666</ele><time>2026-04-10T09:10:03.652Z</time></trkpt><trkpt lat="42.1065899" lon="13.4954721"><ele>1019.3333333333333</ele><time>2026-04-10T09:10:04.651Z</time></trkpt><trkpt lat="42.1065654" lon="13.4957031"><ele>1020.0</ele><time>2026-04-10T09:10:05.651Z</time></trkpt><trkpt lat="42.1065395" lon="13.4959162"><ele>1016.6666666666667</ele><time>2026-04-10T09:10:06.65Z</time></trkpt><trkpt lat="42.1064978" lon="13.4961316"><ele>1013.3333333333334</ele><time>2026-04-10T09:10:07.644Z</time></trkpt><trkpt lat="42.1063655" lon="13.496313"><ele>1010.0</ele><time>2026-04-10T09:10:08.655Z</time></trkpt><trkpt lat="42.1062451" lon="13.4964861"><ele>1010.0</ele><time>2026-04-10T09:10:09.647Z</time></trkpt><trkpt lat="42.1061294" lon="13.4966253"><ele>1010.0</ele><time>2026-04-10T09:10:10.649Z</time></trkpt><trkpt lat="42.1059928" lon="13.4967666"><ele>1010.0</ele><time>2026-04-10T09:10:11.647Z</time></trkpt><trkpt lat="42.1058305" lon="13.4968471"><ele>1009.0</ele><time>2026-04-10T09:10:12.646Z</time></trkpt><trkpt lat="42.1056788" lon="13.4969456"><ele>1008.0</ele><time>2026-04-10T09:10:13.651Z</time></trkpt><trkpt lat="42.1055271" lon="13.4970479"><ele>1007.0</ele><time>2026-04-10T09:10:14.648Z</time></trkpt><trkpt lat="42.1053695" lon="13.4971676"><ele>1007.0</ele><time>2026-04-10T09:10:15.655Z</time></trkpt><trkpt lat="42.1052246" lon="13.4972875"><ele>1007.0</ele><time>2026-04-10T09:10:16.655Z</time></trkpt><trkpt lat="42.1050829" lon="13.497418"><ele>1007.0</ele><time>2026-04-10T09:10:17.659Z</time></trkpt><trkpt lat="42.1049248" lon="13.4975343"><ele>1004.75</ele><time>2026-04-10T09:10:18.658Z</time></trkpt><trkpt lat="42.1047921" lon="13.4976285"><ele>1002.5</ele><time>2026-04-10T09:10:19.66Z</time></trkpt><trkpt lat="42.1046864" lon="13.4977551"><ele>1000.25</ele><time>2026-04-10T09:10:20.656Z</time></trkpt><trkpt lat="42.1045962" lon="13.4979245"><ele>998.0</ele><time>2026-04-10T09:10:21.659Z</time></trkpt><trkpt lat="42.1045211" lon="13.4980843"><ele>998.0</ele><time>2026-04-10T09:10:22.659Z</time></trkpt><trkpt lat="42.1044624" lon="13.4982521"><ele>998.0</ele><time>2026-04-10T09:10:23.653Z</time></trkpt><trkpt lat="42.1044443" lon="13.4984372"><ele>998.0</ele><time>2026-04-10T09:10:24.653Z</time></trkpt><trkpt lat="42.1044861" lon="13.498641"><ele>998.0</ele><time>2026-04-10T09:10:25.646Z</time></trkpt><trkpt lat="42.1045745" lon="13.4988457"><ele>999.6666666666667</ele><time>2026-04-10T09:10:26.641Z</time></trkpt><trkpt lat="42.1047012" lon="13.4990259"><ele>1001.3333333333333</ele><time>2026-04-10T09:10:27.649Z</time></trkpt><trkpt lat="42.1048169" lon="13.4991552"><ele>1003.0</ele><time>2026-04-10T09:10:28.65Z</time></trkpt><trkpt lat="42.1049389" lon="13.4992961"><ele>1003.0</ele><time>2026-04-10T09:10:29.654Z</time></trkpt><trkpt lat="42.1050993" lon="13.4994331"><ele>1003.0</ele><time>2026-04-10T09:10:30.656Z</time></trkpt><trkpt lat="42.1052211" lon="13.4995854"><ele>1003.0</ele><time>2026-04-10T09:10:31.658Z</time></trkpt><trkpt lat="42.1053456" lon="13.4997545"><ele>999.3333333333333</ele><time>2026-04-10T09:10:32.648Z</time></trkpt><trkpt lat="42.1054514" lon="13.4999423"><ele>995.6666666666667</ele><time>2026-04-10T09:10:33.647Z</time></trkpt><trkpt lat="42.1055406" lon="13.5001696"><ele>992.0</ele><time>2026-04-10T09:10:34.641Z</time></trkpt><trkpt lat="42.1055766" lon="13.5003993"><ele>989.3333333333334</ele><time>2026-04-10T09:10:35.649Z</time></trkpt><trkpt lat="42.1054838" lon="13.5006728"><ele>986.6666666666667</ele><time>2026-04-10T09:10:36.64Z</time></trkpt><trkpt lat="42.1054218" lon="13.5009206"><ele>984.0</ele><time>2026-04-10T09:10:37.636Z</time></trkpt><trkpt lat="42.1053723" lon="13.5011784"><ele>984.3333333333333</ele><time>2026-04-10T09:10:38.635Z</time></trkpt><trkpt lat="42.1053008" lon="13.5014336"><ele>984.6666666666666</ele><time>2026-04-10T09:10:39.631Z</time></trkpt><trkpt lat="42.1052335" lon="13.5016868"><ele>985.0</ele><time>2026-04-10T09:10:40.644Z</time></trkpt><trkpt lat="42.1051512" lon="13.5019464"><ele>986.0</ele><time>2026-04-10T09:10:41.641Z</time></trkpt><trkpt lat="42.1050733" lon="13.5021975"><ele>987.0</ele><time>2026-04-10T09:10:42.646Z</time></trkpt><trkpt lat="42.1049881" lon="13.502443"><ele>988.0</ele><time>2026-04-10T09:10:43.649Z</time></trkpt><trkpt lat="42.1049254" lon="13.5026778"><ele>981.3333333333333</ele><time>2026-04-10T09:10:44.65Z</time></trkpt><trkpt lat="42.1048633" lon="13.5029166"><ele>974.6666666666667</ele><time>2026-04-10T09:10:45.653Z</time></trkpt><trkpt lat="42.1047804" lon="13.5031385"><ele>968.0</ele><time>2026-04-10T09:10:46.654Z</time></trkpt><trkpt lat="42.104684" lon="13.5033806"><ele>969.5</ele><time>2026-04-10T09:10:47.655Z</time></trkpt><trkpt lat="42.104455" lon="13.503809"><ele>971.0</ele><time>2026-04-10T09:10:49.657Z</time></trkpt><trkpt lat="42.1043501" lon="13.5040083"><ele>971.0</ele><time>2026-04-10T09:10:50.649Z</time></trkpt><trkpt lat="42.1042115" lon="13.5041921"><ele>971.0</ele><time>2026-04-10T09:10:51.655Z</time></trkpt><trkpt lat="42.1040546" lon="13.5043804"><ele>971.0</ele><time>2026-04-10T09:10:52.655Z</time></trkpt><trkpt lat="42.1038685" lon="13.5045448"><ele>969.6666666666667</ele><time>2026-04-10T09:10:53.651Z</time></trkpt><trkpt lat="42.1036878" lon="13.5046779"><ele>968.3333333333333</ele><time>2026-04-10T09:10:54.649Z</time></trkpt><trkpt lat="42.1035186" lon="13.5047807"><ele>967.0</ele><time>2026-04-10T09:10:55.643Z</time></trkpt><trkpt lat="42.1033353" lon="13.5048683"><ele>960.0</ele><time>2026-04-10T09:10:56.643Z</time></trkpt><trkpt lat="42.1031315" lon="13.5049801"><ele>953.0</ele><time>2026-04-10T09:10:57.65Z</time></trkpt><trkpt lat="42.1029814" lon="13.5050946"><ele>946.0</ele><time>2026-04-10T09:10:58.649Z</time></trkpt><trkpt lat="42.1028498" lon="13.5052929"><ele>947.6666666666666</ele><time>2026-04-10T09:10:59.645Z</time></trkpt><trkpt lat="42.1027655" lon="13.50556"><ele>949.3333333333333</ele><time>2026-04-10T09:11:00.645Z</time></trkpt><trkpt lat="42.1026933" lon="13.5058119"><ele>951.0</ele><time>2026-04-10T09:11:01.653Z</time></trkpt><trkpt lat="42.1026385" lon="13.5060915"><ele>953.6666666666667</ele><time>2026-04-10T09:11:02.652Z</time></trkpt><trkpt lat="42.1025865" lon="13.5063856"><ele>956.3333333333334</ele><time>2026-04-10T09:11:03.65Z</time></trkpt><trkpt lat="42.1025323" lon="13.5066644"><ele>959.0</ele><time>2026-04-10T09:11:04.654Z</time></trkpt><trkpt lat="42.1024732" lon="13.5069198"><ele>955.0</ele><time>2026-04-10T09:11:05.657Z</time></trkpt><trkpt lat="42.102375" lon="13.5071614"><ele>951.0</ele><time>2026-04-10T09:11:06.656Z</time></trkpt><trkpt lat="42.1022669" lon="13.5073898"><ele>947.0</ele><time>2026-04-10T09:11:07.652Z</time></trkpt><trkpt lat="42.1021514" lon="13.5076207"><ele>947.0</ele><time>2026-04-10T09:11:08.653Z</time></trkpt><trkpt lat="42.1020279" lon="13.5078515"><ele>947.0</ele><time>2026-04-10T09:11:09.655Z</time></trkpt><trkpt lat="42.1018982" lon="13.5080438"><ele>947.0</ele><time>2026-04-10T09:11:10.656Z</time></trkpt><trkpt lat="42.1017568" lon="13.5082269"><ele>946.6666666666667</ele><time>2026-04-10T09:11:11.654Z</time></trkpt><trkpt lat="42.1015898" lon="13.5084203"><ele>946.3333333333333</ele><time>2026-04-10T09:11:12.655Z</time></trkpt><trkpt lat="42.1014297" lon="13.5085968"><ele>946.0</ele><time>2026-04-10T09:11:13.656Z</time></trkpt><trkpt lat="42.1012657" lon="13.5087984"><ele>949.3333333333333</ele><time>2026-04-10T09:11:14.657Z</time></trkpt><trkpt lat="42.1011133" lon="13.508963"><ele>952.6666666666667</ele><time>2026-04-10T09:11:15.655Z</time></trkpt><trkpt lat="42.100971" lon="13.5091566"><ele>956.0</ele><time>2026-04-10T09:11:16.651Z</time></trkpt><trkpt lat="42.1008612" lon="13.5093222"><ele>956.0</ele><time>2026-04-10T09:11:17.652Z</time></trkpt><trkpt lat="42.1007795" lon="13.5094491"><ele>956.0</ele><time>2026-04-10T09:11:18.648Z</time></trkpt><trkpt lat="42.1006669" lon="13.509586"><ele>956.0</ele><time>2026-04-10T09:11:19.638Z</time></trkpt><trkpt lat="42.1006342" lon="13.5097299"><ele>956.0</ele><time>2026-04-10T09:11:20.648Z</time></trkpt><trkpt lat="42.1006858" lon="13.5099219"><ele>956.0</ele><time>2026-04-10T09:11:22.654Z</time></trkpt><trkpt lat="42.1007461" lon="13.5100295"><ele>956.0</ele><time>2026-04-10T09:11:23.653Z</time></trkpt><trkpt lat="42.100818" lon="13.5101669"><ele>956.0</ele><time>2026-04-10T09:11:24.653Z</time></trkpt><trkpt lat="42.1009131" lon="13.5102776"><ele>956.0</ele><time>2026-04-10T09:11:25.654Z</time></trkpt><trkpt lat="42.1010189" lon="13.5104101"><ele>954.3333333333334</ele><time>2026-04-10T09:11:26.656Z</time></trkpt><trkpt lat="42.101135" lon="13.5105444"><ele>952.6666666666667</ele><time>2026-04-10T09:11:27.662Z</time></trkpt><trkpt lat="42.101279" lon="13.5106806"><ele>951.0</ele><time>2026-04-10T09:11:28.663Z</time></trkpt><trkpt lat="42.101471" lon="13.5108445"><ele>954.3333333333333</ele><time>2026-04-10T09:11:29.668Z</time></trkpt><trkpt lat="42.1016843" lon="13.5109803"><ele>957.6666666666666</ele><time>2026-04-10T09:11:30.667Z</time></trkpt><trkpt lat="42.1018211" lon="13.5111459"><ele>961.0</ele><time>2026-04-10T09:11:31.671Z</time></trkpt><trkpt lat="42.1019418" lon="13.5113359"><ele>961.0</ele><time>2026-04-10T09:11:32.67Z</time></trkpt><trkpt lat="42.1020542" lon="13.5115065"><ele>961.0</ele><time>2026-04-10T09:11:33.672Z</time></trkpt><trkpt lat="42.1021725" lon="13.511674"><ele>961.0</ele><time>2026-04-10T09:11:34.668Z</time></trkpt><trkpt lat="42.1022237" lon="13.511881"><ele>959.3333333333333</ele><time>2026-04-10T09:11:35.664Z</time></trkpt><trkpt lat="42.1022316" lon="13.5121133"><ele>957.6666666666667</ele><time>2026-04-10T09:11:36.668Z</time></trkpt><trkpt lat="42.1022166" lon="13.5123528"><ele>956.0</ele><time>2026-04-10T09:11:37.664Z</time></trkpt><trkpt lat="42.1022117" lon="13.5125984"><ele>956.0</ele><time>2026-04-10T09:11:38.656Z</time></trkpt><trkpt lat="42.102189" lon="13.5128377"><ele>956.0</ele><time>2026-04-10T09:11:39.654Z</time></trkpt><trkpt lat="42.1021676" lon="13.5130776"><ele>956.0</ele><time>2026-04-10T09:11:40.679Z</time></trkpt><trkpt lat="42.1021218" lon="13.5133223"><ele>956.0</ele><time>2026-04-10T09:11:41.679Z</time></trkpt><trkpt lat="42.1021033" lon="13.5135746"><ele>956.0</ele><time>2026-04-10T09:11:42.679Z</time></trkpt><trkpt lat="42.1020617" lon="13.5138244"><ele>956.0</ele><time>2026-04-10T09:11:43.681Z</time></trkpt><trkpt lat="42.1020265" lon="13.5140874"><ele>956.6666666666667</ele><time>2026-04-10T09:11:44.683Z</time></trkpt><trkpt lat="42.1020123" lon="13.5143463"><ele>957.3333333333333</ele><time>2026-04-10T09:11:45.68Z</time></trkpt><trkpt lat="42.1020311" lon="13.5146126"><ele>958.0</ele><time>2026-04-10T09:11:46.683Z</time></trkpt><trkpt lat="42.1020438" lon="13.5148835"><ele>959.3333333333333</ele><time>2026-04-10T09:11:47.686Z</time></trkpt><trkpt lat="42.1020547" lon="13.51515"><ele>960.6666666666667</ele><time>2026-04-10T09:11:48.685Z</time></trkpt><trkpt lat="42.1020533" lon="13.5154305"><ele>962.0</ele><time>2026-04-10T09:11:49.682Z</time></trkpt><trkpt lat="42.1020569" lon="13.5156736"><ele>963.0</ele><time>2026-04-10T09:11:50.674Z</time></trkpt><trkpt lat="42.1020614" lon="13.515952"><ele>964.0</ele><time>2026-04-10T09:11:51.682Z</time></trkpt><trkpt lat="42.1020846" lon="13.5162357"><ele>965.0</ele><time>2026-04-10T09:11:52.676Z</time></trkpt><trkpt lat="42.1021228" lon="13.5164979"><ele>965.0</ele><time>2026-04-10T09:11:53.67Z</time></trkpt><trkpt lat="42.1021972" lon="13.516765"><ele>965.0</ele><time>2026-04-10T09:11:54.672Z</time></trkpt><trkpt lat="42.102251" lon="13.5170476"><ele>965.0</ele><time>2026-04-10T09:11:55.671Z</time></trkpt><trkpt lat="42.102286" lon="13.5173142"><ele>965.0</ele><time>2026-04-10T09:11:56.664Z</time></trkpt><trkpt lat="42.102297" lon="13.5175965"><ele>965.0</ele><time>2026-04-10T09:11:57.655Z</time></trkpt><trkpt lat="42.1022753" lon="13.5178096"><ele>965.0</ele><time>2026-04-10T09:11:58.66Z</time></trkpt><trkpt lat="42.1022532" lon="13.518014"><ele>965.0</ele><time>2026-04-10T09:11:59.659Z</time></trkpt><trkpt lat="42.1022734" lon="13.5182209"><ele>965.0</ele><time>2026-04-10T09:12:00.654Z</time></trkpt><trkpt lat="42.1022813" lon="13.5184169"><ele>965.0</ele><time>2026-04-10T09:12:01.655Z</time></trkpt><trkpt lat="42.102392" lon="13.5185886"><ele>972.6666666666667</ele><time>2026-04-10T09:12:02.646Z</time></trkpt><trkpt lat="42.1024957" lon="13.5186989"><ele>980.3333333333333</ele><time>2026-04-10T09:12:03.643Z</time></trkpt><trkpt lat="42.1026256" lon="13.5187041"><ele>988.0</ele><time>2026-04-10T09:12:04.639Z</time></trkpt><trkpt lat="42.102836" lon="13.5185437"><ele>988.0</ele><time>2026-04-10T09:12:05.632Z</time></trkpt><trkpt lat="42.1030333" lon="13.5184417"><ele>988.0</ele><time>2026-04-10T09:12:06.641Z</time></trkpt><trkpt lat="42.1032295" lon="13.5183989"><ele>988.0</ele><time>2026-04-10T09:12:07.65Z</time></trkpt><trkpt lat="42.1034425" lon="13.5183854"><ele>990.3333333333333</ele><time>2026-04-10T09:12:08.657Z</time></trkpt><trkpt lat="42.1036187" lon="13.5184219"><ele>992.6666666666667</ele><time>2026-04-10T09:12:09.661Z</time></trkpt><trkpt lat="42.1037978" lon="13.5185142"><ele>995.0</ele><time>2026-04-10T09:12:10.662Z</time></trkpt><trkpt lat="42.103978" lon="13.5186323"><ele>997.0</ele><time>2026-04-10T09:12:11.663Z</time></trkpt><trkpt lat="42.1041465" lon="13.5187679"><ele>999.0</ele><time>2026-04-10T09:12:12.653Z</time></trkpt><trkpt lat="42.1042894" lon="13.5189124"><ele>1001.0</ele><time>2026-04-10T09:12:13.648Z</time></trkpt><trkpt lat="42.1044062" lon="13.5191077"><ele>1001.0</ele><time>2026-04-10T09:12:14.654Z</time></trkpt><trkpt lat="42.10452" lon="13.5193317"><ele>1001.0</ele><time>2026-04-10T09:12:15.656Z</time></trkpt><trkpt lat="42.1045898" lon="13.5195585"><ele>1001.0</ele><time>2026-04-10T09:12:16.65Z</time></trkpt><trkpt lat="42.1046421" lon="13.5197985"><ele>1000.3333333333334</ele><time>2026-04-10T09:12:17.654Z</time></trkpt><trkpt lat="42.1046975" lon="13.5200352"><ele>999.6666666666667</ele><time>2026-04-10T09:12:18.65Z</time></trkpt><trkpt lat="42.1047885" lon="13.5202283"><ele>999.0</ele><time>2026-04-10T09:12:19.649Z</time></trkpt><trkpt lat="42.1049045" lon="13.5204156"><ele>1001.0</ele><time>2026-04-10T09:12:20.651Z</time></trkpt><trkpt lat="42.1050275" lon="13.5206235"><ele>1003.0</ele><time>2026-04-10T09:12:21.646Z</time></trkpt><trkpt lat="42.1051354" lon="13.5207867"><ele>1005.0</ele><time>2026-04-10T09:12:22.648Z</time></trkpt><trkpt lat="42.1052329" lon="13.5209284"><ele>1005.0</ele><time>2026-04-10T09:12:23.641Z</time></trkpt><trkpt lat="42.1053498" lon="13.5210782"><ele>1005.0</ele><time>2026-04-10T09:12:24.635Z</time></trkpt><trkpt lat="42.1055117" lon="13.5212319"><ele>1005.0</ele><time>2026-04-10T09:12:25.642Z</time></trkpt><trkpt lat="42.105692" lon="13.5213778"><ele>1004.3333333333333</ele><time>2026-04-10T09:12:26.642Z</time></trkpt><trkpt lat="42.1058864" lon="13.5213267"><ele>1003.6666666666666</ele><time>2026-04-10T09:12:27.635Z</time></trkpt><trkpt lat="42.1060574" lon="13.5212207"><ele>1003.0</ele><time>2026-04-10T09:12:28.636Z</time></trkpt><trkpt lat="42.1061813" lon="13.5210929"><ele>1003.0</ele><time>2026-04-10T09:12:29.631Z</time></trkpt><trkpt lat="42.1062633" lon="13.5209195"><ele>1003.0</ele><time>2026-04-10T09:12:30.646Z</time></trkpt><trkpt lat="42.1063172" lon="13.5207434"><ele>1003.0</ele><time>2026-04-10T09:12:31.662Z</time></trkpt><trkpt lat="42.1063996" lon="13.5205427"><ele>1003.6666666666666</ele><time>2026-04-10T09:12:32.653Z</time></trkpt><trkpt lat="42.1065364" lon="13.5203683"><ele>1004.3333333333333</ele><time>2026-04-10T09:12:33.653Z</time></trkpt><trkpt lat="42.1067125" lon="13.5202745"><ele>1005.0</ele><time>2026-04-10T09:12:34.651Z</time></trkpt><trkpt lat="42.106847" lon="13.5201894"><ele>1005.0</ele><time>2026-04-10T09:12:35.65Z</time></trkpt><trkpt lat="42.1070034" lon="13.5200872"><ele>1005.0</ele><time>2026-04-10T09:12:36.652Z</time></trkpt><trkpt lat="42.1071717" lon="13.5199681"><ele>1005.0</ele><time>2026-04-10T09:12:37.647Z</time></trkpt><trkpt lat="42.1072991" lon="13.5197711"><ele>1006.3333333333333</ele><time>2026-04-10T09:12:38.651Z</time></trkpt><trkpt lat="42.1073451" lon="13.5194989"><ele>1007.6666666666666</ele><time>2026-04-10T09:12:39.653Z</time></trkpt><trkpt lat="42.1073813" lon="13.5192145"><ele>1009.0</ele><time>2026-04-10T09:12:40.652Z</time></trkpt><trkpt lat="42.1074121" lon="13.5189323"><ele>1005.3333333333333</ele><time>2026-04-10T09:12:41.645Z</time></trkpt><trkpt lat="42.1074882" lon="13.518702"><ele>1001.6666666666667</ele><time>2026-04-10T09:12:42.649Z</time></trkpt><trkpt lat="42.1075973" lon="13.5184885"><ele>998.0</ele><time>2026-04-10T09:12:43.647Z</time></trkpt><trkpt lat="42.1076256" lon="13.5182625"><ele>998.0</ele><time>2026-04-10T09:12:44.646Z</time></trkpt><trkpt lat="42.1076277" lon="13.5180431"><ele>998.0</ele><time>2026-04-10T09:12:45.647Z</time></trkpt><trkpt lat="42.1076558" lon="13.5178567"><ele>998.0</ele><time>2026-04-10T09:12:46.648Z</time></trkpt><trkpt lat="42.1077064" lon="13.5176519"><ele>999.0</ele><time>2026-04-10T09:12:47.652Z</time></trkpt><trkpt lat="42.1078266" lon="13.5175459"><ele>1000.0</ele><time>2026-04-10T09:12:48.653Z</time></trkpt><trkpt lat="42.1079846" lon="13.5174518"><ele>1001.0</ele><time>2026-04-10T09:12:49.664Z</time></trkpt><trkpt lat="42.1081699" lon="13.5173936"><ele>999.75</ele><time>2026-04-10T09:12:50.661Z</time></trkpt><trkpt lat="42.1083081" lon="13.5173361"><ele>998.5</ele><time>2026-04-10T09:12:51.653Z</time></trkpt><trkpt lat="42.108437" lon="13.5172516"><ele>997.25</ele><time>2026-04-10T09:12:52.658Z</time></trkpt><trkpt lat="42.1085754" lon="13.5171488"><ele>996.0</ele><time>2026-04-10T09:12:53.662Z</time></trkpt><trkpt lat="42.1086789" lon="13.5171385"><ele>996.0</ele><time>2026-04-10T09:12:54.67Z</time></trkpt><trkpt lat="42.108777" lon="13.5173018"><ele>996.0</ele><time>2026-04-10T09:12:55.657Z</time></trkpt><trkpt lat="42.10884" lon="13.5174708"><ele>996.0</ele><time>2026-04-10T09:12:56.653Z</time></trkpt><trkpt lat="42.1089377" lon="13.5176635"><ele>996.0</ele><time>2026-04-10T09:12:57.657Z</time></trkpt><trkpt lat="42.1089993" lon="13.5179136"><ele>996.0</ele><time>2026-04-10T09:12:58.657Z</time></trkpt><trkpt lat="42.1090831" lon="13.5181424"><ele>996.0</ele><time>2026-04-10T09:12:59.663Z</time></trkpt><trkpt lat="42.1091732" lon="13.518343"><ele>996.0</ele><time>2026-04-10T09:13:00.666Z</time></trkpt><trkpt lat="42.1092277" lon="13.5185411"><ele>996.0</ele><time>2026-04-10T09:13:01.659Z</time></trkpt><trkpt lat="42.1092734" lon="13.5187138"><ele>996.0</ele><time>2026-04-10T09:13:02.648Z</time></trkpt><trkpt lat="42.1092568" lon="13.5189001"><ele>996.0</ele><time>2026-04-10T09:13:03.655Z</time></trkpt><trkpt lat="42.1091858" lon="13.5190924"><ele>995.6666666666667</ele><time>2026-04-10T09:13:04.646Z</time></trkpt><trkpt lat="42.1091021" lon="13.5192532"><ele>995.3333333333334</ele><time>2026-04-10T09:13:05.647Z</time></trkpt><trkpt lat="42.1089912" lon="13.5194113"><ele>995.0</ele><time>2026-04-10T09:13:06.642Z</time></trkpt><trkpt lat="42.1088782" lon="13.5195305"><ele>996.0</ele><time>2026-04-10T09:13:07.649Z</time></trkpt><trkpt lat="42.1087864" lon="13.5197027"><ele>997.0</ele><time>2026-04-10T09:13:08.649Z</time></trkpt><trkpt lat="42.1087055" lon="13.5199161"><ele>998.0</ele><time>2026-04-10T09:13:09.653Z</time></trkpt><trkpt lat="42.1086307" lon="13.5201019"><ele>998.0</ele><time>2026-04-10T09:13:10.649Z</time></trkpt><trkpt lat="42.1085516" lon="13.520318"><ele>998.0</ele><time>2026-04-10T09:13:11.656Z</time></trkpt><trkpt lat="42.1084716" lon="13.5205325"><ele>998.0</ele><time>2026-04-10T09:13:12.666Z</time></trkpt><trkpt lat="42.1083851" lon="13.5207627"><ele>999.6666666666667</ele><time>2026-04-10T09:13:13.667Z</time></trkpt><trkpt lat="42.1083099" lon="13.5210212"><ele>1001.3333333333333</ele><time>2026-04-10T09:13:14.663Z</time></trkpt><trkpt lat="42.108244" lon="13.5212552"><ele>1003.0</ele><time>2026-04-10T09:13:15.661Z</time></trkpt><trkpt lat="42.1081683" lon="13.5215003"><ele>1003.0</ele><time>2026-04-10T09:13:16.66Z</time></trkpt><trkpt lat="42.1081002" lon="13.5216771"><ele>1003.0</ele><time>2026-04-10T09:13:17.663Z</time></trkpt><trkpt lat="42.1080244" lon="13.5218623"><ele>1003.0</ele><time>2026-04-10T09:13:18.662Z</time></trkpt><trkpt lat="42.1079813" lon="13.5219992"><ele>1003.0</ele><time>2026-04-10T09:13:19.659Z</time></trkpt><trkpt lat="42.1079225" lon="13.5221372"><ele>1005.0</ele><time>2026-04-10T09:13:20.663Z</time></trkpt><trkpt lat="42.1078548" lon="13.5222645"><ele>1007.0</ele><time>2026-04-10T09:13:21.656Z</time></trkpt><trkpt lat="42.1077994" lon="13.5223356"><ele>1009.0</ele><time>2026-04-10T09:13:22.654Z</time></trkpt><trkpt lat="42.1077837" lon="13.5224533"><ele>1011.0</ele><time>2026-04-10T09:13:24.667Z</time></trkpt><trkpt lat="42.1078631" lon="13.5225008"><ele>1013.0</ele><time>2026-04-10T09:13:26.657Z</time></trkpt><trkpt lat="42.1079747" lon="13.5224263"><ele>1013.0</ele><time>2026-04-10T09:13:28.65Z</time></trkpt><trkpt lat="42.1080757" lon="13.5223407"><ele>1013.0</ele><time>2026-04-10T09:13:29.643Z</time></trkpt><trkpt lat="42.1081462" lon="13.5222838"><ele>1013.0</ele><time>2026-04-10T09:13:30.658Z</time></trkpt><trkpt lat="42.1082583" lon="13.5221757"><ele>1013.0</ele><time>2026-04-10T09:13:31.656Z</time></trkpt><trkpt lat="42.1083861" lon="13.5220636"><ele>1013.6666666666667</ele><time>2026-04-10T09:13:32.648Z</time></trkpt><trkpt lat="42.1085322" lon="13.5219408"><ele>1014.3333333333333</ele><time>2026-04-10T09:13:33.654Z</time></trkpt><trkpt lat="42.1087143" lon="13.5217854"><ele>1015.0</ele><time>2026-04-10T09:13:34.652Z</time></trkpt><trkpt lat="42.108887" lon="13.521653"><ele>1018.3333333333333</ele><time>2026-04-10T09:13:35.648Z</time></trkpt><trkpt lat="42.1090944" lon="13.5215433"><ele>1021.6666666666667</ele><time>2026-04-10T09:13:36.652Z</time></trkpt><trkpt lat="42.1093002" lon="13.5214773"><ele>1025.0</ele><time>2026-04-10T09:13:37.655Z</time></trkpt><trkpt lat="42.1095131" lon="13.5214744"><ele>1025.0</ele><time>2026-04-10T09:13:38.66Z</time></trkpt><trkpt lat="42.1096766" lon="13.5214462"><ele>1025.0</ele><time>2026-04-10T09:13:39.658Z</time></trkpt><trkpt lat="42.1098637" lon="13.5214206"><ele>1025.0</ele><time>2026-04-10T09:13:40.658Z</time></trkpt><trkpt lat="42.110057" lon="13.5213603"><ele>1024.0</ele><time>2026-04-10T09:13:41.66Z</time></trkpt><trkpt lat="42.1102249" lon="13.5212675"><ele>1023.0</ele><time>2026-04-10T09:13:42.663Z</time></trkpt><trkpt lat="42.1104025" lon="13.521161"><ele>1022.0</ele><time>2026-04-10T09:13:43.654Z</time></trkpt><trkpt lat="42.1106032" lon="13.5210362"><ele>1025.3333333333335</ele><time>2026-04-10T09:13:44.654Z</time></trkpt><trkpt lat="42.110761" lon="13.5209032"><ele>1028.6666666666667</ele><time>2026-04-10T09:13:45.67Z</time></trkpt><trkpt lat="42.1109183" lon="13.5207521"><ele>1032.0</ele><time>2026-04-10T09:13:46.666Z</time></trkpt><trkpt lat="42.1110889" lon="13.5206086"><ele>1032.0</ele><time>2026-04-10T09:13:47.668Z</time></trkpt><trkpt lat="42.1112463" lon="13.5204962"><ele>1032.0</ele><time>2026-04-10T09:13:48.672Z</time></trkpt><trkpt lat="42.111427" lon="13.5204431"><ele>1032.0</ele><time>2026-04-10T09:13:49.666Z</time></trkpt><trkpt lat="42.1116267" lon="13.5204223"><ele>1036.3333333333333</ele><time>2026-04-10T09:13:50.665Z</time></trkpt><trkpt lat="42.111826" lon="13.5204284"><ele>1040.6666666666665</ele><time>2026-04-10T09:13:51.665Z</time></trkpt><trkpt lat="42.1120379" lon="13.5204672"><ele>1045.0</ele><time>2026-04-10T09:13:52.668Z</time></trkpt><trkpt lat="42.1122593" lon="13.5204873"><ele>1047.0</ele><time>2026-04-10T09:13:53.665Z</time></trkpt><trkpt lat="42.1124696" lon="13.5204866"><ele>1049.0</ele><time>2026-04-10T09:13:54.664Z</time></trkpt><trkpt lat="42.1126805" lon="13.5204835"><ele>1051.0</ele><time>2026-04-10T09:13:55.662Z</time></trkpt><trkpt lat="42.1128589" lon="13.5204429"><ele>1049.3333333333333</ele><time>2026-04-10T09:13:56.662Z</time></trkpt><trkpt lat="42.1130728" lon="13.5203389"><ele>1047.6666666666667</ele><time>2026-04-10T09:13:57.663Z</time></trkpt><trkpt lat="42.1132508" lon="13.5202111"><ele>1046.0</ele><time>2026-04-10T09:13:58.67Z</time></trkpt><trkpt lat="42.1134347" lon="13.5200237"><ele>1046.0</ele><time>2026-04-10T09:13:59.672Z</time></trkpt><trkpt lat="42.113608" lon="13.5198334"><ele>1046.0</ele><time>2026-04-10T09:14:00.666Z</time></trkpt><trkpt lat="42.1137759" lon="13.5196514"><ele>1046.0</ele><time>2026-04-10T09:14:01.671Z</time></trkpt><trkpt lat="42.1139437" lon="13.5195045"><ele>1047.0</ele><time>2026-04-10T09:14:02.661Z</time></trkpt><trkpt lat="42.1141504" lon="13.5193707"><ele>1048.0</ele><time>2026-04-10T09:14:03.662Z</time></trkpt><trkpt lat="42.1143584" lon="13.5192439"><ele>1048.0</ele><time>2026-04-10T09:14:04.665Z</time></trkpt><trkpt lat="42.1145644" lon="13.5191194"><ele>1048.0</ele><time>2026-04-10T09:14:05.669Z</time></trkpt><trkpt lat="42.1147663" lon="13.5189928"><ele>1048.0</ele><time>2026-04-10T09:14:06.739Z</time></trkpt><trkpt lat="42.1149743" lon="13.5188695"><ele>1046.5</ele><time>2026-04-10T09:14:07.743Z</time></trkpt><trkpt lat="42.115192" lon="13.5187428"><ele>1045.0</ele><time>2026-04-10T09:14:08.652Z</time></trkpt><trkpt lat="42.1153942" lon="13.518618"><ele>1045.0</ele><time>2026-04-10T09:14:09.653Z</time></trkpt><trkpt lat="42.1156067" lon="13.5184934"><ele>1045.0</ele><time>2026-04-10T09:14:10.656Z</time></trkpt><trkpt lat="42.1158205" lon="13.5183829"><ele>1053.0</ele><time>2026-04-10T09:14:11.651Z</time></trkpt><trkpt lat="42.1160641" lon="13.5182741"><ele>1061.0</ele><time>2026-04-10T09:14:12.652Z</time></trkpt><trkpt lat="42.1162932" lon="13.5182026"><ele>1061.0</ele><time>2026-04-10T09:14:13.653Z</time></trkpt><trkpt lat="42.1165029" lon="13.5181408"><ele>1061.0</ele><time>2026-04-10T09:14:14.647Z</time></trkpt><trkpt lat="42.1167354" lon="13.5180829"><ele>1064.5</ele><time>2026-04-10T09:14:15.654Z</time></trkpt><trkpt lat="42.1169552" lon="13.5180286"><ele>1068.0</ele><time>2026-04-10T09:14:16.651Z</time></trkpt><trkpt lat="42.1171896" lon="13.5179471"><ele>1062.5</ele><time>2026-04-10T09:14:17.658Z</time></trkpt><trkpt lat="42.1174213" lon="13.5178614"><ele>1057.0</ele><time>2026-04-10T09:14:18.656Z</time></trkpt><trkpt lat="42.1176224" lon="13.5177723"><ele>1057.0</ele><time>2026-04-10T09:14:19.649Z</time></trkpt><trkpt lat="42.1178163" lon="13.5177219"><ele>1057.0</ele><time>2026-04-10T09:14:20.647Z</time></trkpt><trkpt lat="42.1180235" lon="13.5176732"><ele>1057.0</ele><time>2026-04-10T09:14:21.64Z</time></trkpt><trkpt lat="42.1182261" lon="13.5176143"><ele>1061.6666666666665</ele><time>2026-04-10T09:14:22.639Z</time></trkpt><trkpt lat="42.1183924" lon="13.5175543"><ele>1066.3333333333333</ele><time>2026-04-10T09:14:23.639Z</time></trkpt><trkpt lat="42.1185576" lon="13.5175076"><ele>1071.0</ele><time>2026-04-10T09:14:24.638Z</time></trkpt><trkpt lat="42.1187238" lon="13.5174645"><ele>1071.0</ele><time>2026-04-10T09:14:25.648Z</time></trkpt><trkpt lat="42.1188318" lon="13.5174783"><ele>1071.0</ele><time>2026-04-10T09:14:26.637Z</time></trkpt><trkpt lat="42.1189387" lon="13.5175948"><ele>1071.0</ele><time>2026-04-10T09:14:27.642Z</time></trkpt><trkpt lat="42.1190524" lon="13.51773"><ele>1071.0</ele><time>2026-04-10T09:14:28.644Z</time></trkpt><trkpt lat="42.1191833" lon="13.5178922"><ele>1080.6666666666667</ele><time>2026-04-10T09:14:29.649Z</time></trkpt><trkpt lat="42.1192943" lon="13.5180738"><ele>1090.3333333333335</ele><time>2026-04-10T09:14:30.644Z</time></trkpt><trkpt lat="42.1194021" lon="13.5182414"><ele>1100.0</ele><time>2026-04-10T09:14:31.636Z</time></trkpt><trkpt lat="42.1194919" lon="13.5183463"><ele>1100.0</ele><time>2026-04-10T09:14:32.627Z</time></trkpt><trkpt lat="42.1195786" lon="13.5184565"><ele>1100.0</ele><time>2026-04-10T09:14:33.621Z</time></trkpt><trkpt lat="42.1196334" lon="13.5185277"><ele>1100.0</ele><time>2026-04-10T09:14:34.618Z</time></trkpt><trkpt lat="42.1196411" lon="13.5183724"><ele>1100.0</ele><time>2026-04-10T09:14:36.617Z</time></trkpt><trkpt lat="42.1196128" lon="13.5182046"><ele>1100.0</ele><time>2026-04-10T09:14:37.614Z</time></trkpt><trkpt lat="42.1195139" lon="13.5177019"><ele>1089.5</ele><time>2026-04-10T09:14:39.635Z</time></trkpt><trkpt lat="42.1194315" lon="13.5173709"><ele>1079.0</ele><time>2026-04-10T09:14:40.643Z</time></trkpt><trkpt lat="42.1193939" lon="13.5170707"><ele>1076.5</ele><time>2026-04-10T09:14:41.65Z</time></trkpt><trkpt lat="42.1194076" lon="13.5168664"><ele>1074.0</ele><time>2026-04-10T09:14:42.646Z</time></trkpt><trkpt lat="42.1194843" lon="13.5166996"><ele>1071.5</ele><time>2026-04-10T09:14:43.652Z</time></trkpt><trkpt lat="42.1195944" lon="13.5165859"><ele>1069.0</ele><time>2026-04-10T09:14:44.652Z</time></trkpt><trkpt lat="42.1197202" lon="13.5164748"><ele>1069.0</ele><time>2026-04-10T09:14:45.652Z</time></trkpt><trkpt lat="42.11984" lon="13.5163453"><ele>1069.0</ele><time>2026-04-10T09:14:46.649Z</time></trkpt><trkpt lat="42.1199919" lon="13.5162021"><ele>1069.0</ele><time>2026-04-10T09:14:47.656Z</time></trkpt><trkpt lat="42.1201147" lon="13.5160542"><ele>1073.3333333333333</ele><time>2026-04-10T09:14:48.649Z</time></trkpt><trkpt lat="42.1202357" lon="13.5158876"><ele>1077.6666666666667</ele><time>2026-04-10T09:14:49.647Z</time></trkpt><trkpt lat="42.1203751" lon="13.5157385"><ele>1082.0</ele><time>2026-04-10T09:14:50.645Z</time></trkpt><trkpt lat="42.1205304" lon="13.5156263"><ele>1082.0</ele><time>2026-04-10T09:14:51.654Z</time></trkpt><trkpt lat="42.1207138" lon="13.5155061"><ele>1082.0</ele><time>2026-04-10T09:14:52.658Z</time></trkpt><trkpt lat="42.1209023" lon="13.5153962"><ele>1082.0</ele><time>2026-04-10T09:14:53.66Z</time></trkpt><trkpt lat="42.1210614" lon="13.5152634"><ele>1083.0</ele><time>2026-04-10T09:14:54.651Z</time></trkpt><trkpt lat="42.1212314" lon="13.5151015"><ele>1084.0</ele><time>2026-04-10T09:14:55.657Z</time></trkpt><trkpt lat="42.1213705" lon="13.5149218"><ele>1085.0</ele><time>2026-04-10T09:14:56.653Z</time></trkpt><trkpt lat="42.1215396" lon="13.5148073"><ele>1083.6666666666667</ele><time>2026-04-10T09:14:57.645Z</time></trkpt><trkpt lat="42.1216678" lon="13.5146988"><ele>1082.3333333333333</ele><time>2026-04-10T09:14:58.645Z</time></trkpt><trkpt lat="42.1218318" lon="13.5146419"><ele>1081.0</ele><time>2026-04-10T09:14:59.979Z</time></trkpt><trkpt lat="42.1221714" lon="13.5145324"><ele>1081.0</ele><time>2026-04-10T09:15:01.643Z</time></trkpt><trkpt lat="42.1223579" lon="13.5145256"><ele>1081.0</ele><time>2026-04-10T09:15:02.641Z</time></trkpt><trkpt lat="42.1225374" lon="13.5145186"><ele>1081.0</ele><time>2026-04-10T09:15:03.645Z</time></trkpt><trkpt lat="42.1227403" lon="13.5144775"><ele>1086.0</ele><time>2026-04-10T09:15:04.635Z</time></trkpt><trkpt lat="42.1229176" lon="13.5143673"><ele>1091.0</ele><time>2026-04-10T09:15:05.635Z</time></trkpt><trkpt lat="42.1230475" lon="13.5142254"><ele>1096.0</ele><time>2026-04-10T09:15:06.634Z</time></trkpt><trkpt lat="42.1231541" lon="13.5140483"><ele>1099.3333333333333</ele><time>2026-04-10T09:15:07.63Z</time></trkpt><trkpt lat="42.123238" lon="13.5138467"><ele>1102.6666666666667</ele><time>2026-04-10T09:15:08.624Z</time></trkpt><trkpt lat="42.1233343" lon="13.5136337"><ele>1106.0</ele><time>2026-04-10T09:15:09.642Z</time></trkpt><trkpt lat="42.1233623" lon="13.5134327"><ele>1106.0</ele><time>2026-04-10T09:15:10.639Z</time></trkpt><trkpt lat="42.1234335" lon="13.5132998"><ele>1106.0</ele><time>2026-04-10T09:15:11.643Z</time></trkpt><trkpt lat="42.1235306" lon="13.5132134"><ele>1106.0</ele><time>2026-04-10T09:15:12.641Z</time></trkpt><trkpt lat="42.1236265" lon="13.5131606"><ele>1106.0</ele><time>2026-04-10T09:15:13.637Z</time></trkpt><trkpt lat="42.1237661" lon="13.5132018"><ele>1106.0</ele><time>2026-04-10T09:15:14.631Z</time></trkpt><trkpt lat="42.1239264" lon="13.5132762"><ele>1106.0</ele><time>2026-04-10T09:15:15.628Z</time></trkpt><trkpt lat="42.1241156" lon="13.5133596"><ele>1106.0</ele><time>2026-04-10T09:15:16.625Z</time></trkpt><trkpt lat="42.1243206" lon="13.513297"><ele>1109.0</ele><time>2026-04-10T09:15:17.633Z</time></trkpt><trkpt lat="42.1245346" lon="13.5132727"><ele>1112.0</ele><time>2026-04-10T09:15:18.644Z</time></trkpt><trkpt lat="42.1247455" lon="13.5132001"><ele>1115.0</ele><time>2026-04-10T09:15:19.637Z</time></trkpt><trkpt lat="42.1249213" lon="13.5131392"><ele>1116.3333333333335</ele><time>2026-04-10T09:15:20.633Z</time></trkpt><trkpt lat="42.1251063" lon="13.5130339"><ele>1117.6666666666667</ele><time>2026-04-10T09:15:21.632Z</time></trkpt><trkpt lat="42.1253105" lon="13.5129236"><ele>1119.0</ele><time>2026-04-10T09:15:22.638Z</time></trkpt><trkpt lat="42.1254371" lon="13.5127878"><ele>1119.0</ele><time>2026-04-10T09:15:23.639Z</time></trkpt><trkpt lat="42.1255738" lon="13.5126773"><ele>1119.0</ele><time>2026-04-10T09:15:24.646Z</time></trkpt><trkpt lat="42.125735" lon="13.5125164"><ele>1119.0</ele><time>2026-04-10T09:15:25.644Z</time></trkpt><trkpt lat="42.1259072" lon="13.512369"><ele>1123.6666666666667</ele><time>2026-04-10T09:15:26.644Z</time></trkpt><trkpt lat="42.1260726" lon="13.5122216"><ele>1128.3333333333335</ele><time>2026-04-10T09:15:27.659Z</time></trkpt><trkpt lat="42.1262384" lon="13.5120564"><ele>1133.0</ele><time>2026-04-10T09:15:28.644Z</time></trkpt><trkpt lat="42.1263975" lon="13.5119006"><ele>1134.6666666666667</ele><time>2026-04-10T09:15:29.651Z</time></trkpt><trkpt lat="42.1265522" lon="13.5117712"><ele>1136.3333333333333</ele><time>2026-04-10T09:15:30.651Z</time></trkpt><trkpt lat="42.1266938" lon="13.5116304"><ele>1138.0</ele><time>2026-04-10T09:15:31.657Z</time></trkpt><trkpt lat="42.1268542" lon="13.5114917"><ele>1139.2</ele><time>2026-04-10T09:15:32.643Z</time></trkpt><trkpt lat="42.1269688" lon="13.511467"><ele>1140.4</ele><time>2026-04-10T09:15:33.645Z</time></trkpt><trkpt lat="42.1270797" lon="13.5114965"><ele>1141.6000000000001</ele><time>2026-04-10T09:15:35.653Z</time></trkpt><trkpt lat="42.1271169" lon="13.511609"><ele>1142.8</ele><time>2026-04-10T09:15:36.637Z</time></trkpt><trkpt lat="42.1270953" lon="13.5117362"><ele>1144.0</ele><time>2026-04-10T09:15:37.625Z</time></trkpt><trkpt lat="42.1270381" lon="13.5119617"><ele>1144.0</ele><time>2026-04-10T09:15:38.641Z</time></trkpt><trkpt lat="42.1269314" lon="13.5120482"><ele>1144.0</ele><time>2026-04-10T09:15:39.636Z</time></trkpt><trkpt lat="42.1268021" lon="13.5121029"><ele>1144.0</ele><time>2026-04-10T09:15:40.624Z</time></trkpt><trkpt lat="42.1266547" lon="13.5121805"><ele>1144.0</ele><time>2026-04-10T09:15:41.629Z</time></trkpt><trkpt lat="42.1265055" lon="13.51226"><ele>1140.3333333333333</ele><time>2026-04-10T09:15:42.632Z</time></trkpt><trkpt lat="42.1263712" lon="13.5123622"><ele>1136.6666666666667</ele><time>2026-04-10T09:15:43.633Z</time></trkpt><trkpt lat="42.1262795" lon="13.5125763"><ele>1133.0</ele><time>2026-04-10T09:15:44.633Z</time></trkpt><trkpt lat="42.126188" lon="13.5127725"><ele>1139.3333333333335</ele><time>2026-04-10T09:15:45.652Z</time></trkpt><trkpt lat="42.1260953" lon="13.5130086"><ele>1145.6666666666667</ele><time>2026-04-10T09:15:46.645Z</time></trkpt><trkpt lat="42.1260067" lon="13.5132272"><ele>1152.0</ele><time>2026-04-10T09:15:47.65Z</time></trkpt><trkpt lat="42.1258542" lon="13.5134018"><ele>1154.0</ele><time>2026-04-10T09:15:48.644Z</time></trkpt><trkpt lat="42.1256629" lon="13.5135717"><ele>1156.0</ele><time>2026-04-10T09:15:49.647Z</time></trkpt><trkpt lat="42.1255375" lon="13.5137571"><ele>1158.0</ele><time>2026-04-10T09:15:50.643Z</time></trkpt><trkpt lat="42.1254215" lon="13.5139322"><ele>1158.0</ele><time>2026-04-10T09:15:51.648Z</time></trkpt><trkpt lat="42.1253262" lon="13.5140927"><ele>1158.0</ele><time>2026-04-10T09:15:52.643Z</time></trkpt><trkpt lat="42.12521" lon="13.5142174"><ele>1158.0</ele><time>2026-04-10T09:15:53.645Z</time></trkpt><trkpt lat="42.1250872" lon="13.5143768"><ele>1158.0</ele><time>2026-04-10T09:15:54.644Z</time></trkpt><trkpt lat="42.1249724" lon="13.5144752"><ele>1158.0</ele><time>2026-04-10T09:15:55.646Z</time></trkpt><trkpt lat="42.1248574" lon="13.5144366"><ele>1158.0</ele><time>2026-04-10T09:15:56.634Z</time></trkpt><trkpt lat="42.1247443" lon="13.5144857"><ele>1158.0</ele><time>2026-04-10T09:15:57.635Z</time></trkpt><trkpt lat="42.1246356" lon="13.5145909"><ele>1162.25</ele><time>2026-04-10T09:15:58.635Z</time></trkpt><trkpt lat="42.1245335" lon="13.5147166"><ele>1166.5</ele><time>2026-04-10T09:15:59.63Z</time></trkpt><trkpt lat="42.124451" lon="13.514823"><ele>1170.75</ele><time>2026-04-10T09:16:00.637Z</time></trkpt><trkpt lat="42.1244119" lon="13.5149523"><ele>1175.0</ele><time>2026-04-10T09:16:01.63Z</time></trkpt><trkpt lat="42.1245841" lon="13.5150336"><ele>1175.0</ele><time>2026-04-10T09:16:03.624Z</time></trkpt><trkpt lat="42.1247036" lon="13.5150237"><ele>1175.0</ele><time>2026-04-10T09:16:04.621Z</time></trkpt><trkpt lat="42.1247996" lon="13.515069"><ele>1175.0</ele><time>2026-04-10T09:16:05.632Z</time></trkpt><trkpt lat="42.1249063" lon="13.5149271"><ele>1175.0</ele><time>2026-04-10T09:16:06.634Z</time></trkpt><trkpt lat="42.1250071" lon="13.5148096"><ele>1177.0</ele><time>2026-04-10T09:16:07.636Z</time></trkpt><trkpt lat="42.1251119" lon="13.5147449"><ele>1179.0</ele><time>2026-04-10T09:16:08.633Z</time></trkpt><trkpt lat="42.1252201" lon="13.5146863"><ele>1181.0</ele><time>2026-04-10T09:16:09.632Z</time></trkpt><trkpt lat="42.1253333" lon="13.5147064"><ele>1183.0</ele><time>2026-04-10T09:16:10.623Z</time></trkpt><trkpt lat="42.1254751" lon="13.514667"><ele>1183.0</ele><time>2026-04-10T09:16:11.629Z</time></trkpt><trkpt lat="42.1256146" lon="13.5146403"><ele>1183.0</ele><time>2026-04-10T09:16:12.626Z</time></trkpt><trkpt lat="42.1257613" lon="13.5145766"><ele>1183.0</ele><time>2026-04-10T09:16:13.628Z</time></trkpt><trkpt lat="42.1259085" lon="13.5144787"><ele>1181.3333333333333</ele><time>2026-04-10T09:16:14.629Z</time></trkpt><trkpt lat="42.1260206" lon="13.514331"><ele>1179.6666666666667</ele><time>2026-04-10T09:16:15.638Z</time></trkpt><trkpt lat="42.1261144" lon="13.5141233"><ele>1178.0</ele><time>2026-04-10T09:16:16.642Z</time></trkpt><trkpt lat="42.1262248" lon="13.5139766"><ele>1178.0</ele><time>2026-04-10T09:16:17.659Z</time></trkpt><trkpt lat="42.1263514" lon="13.5138355"><ele>1178.0</ele><time>2026-04-10T09:16:18.646Z</time></trkpt><trkpt lat="42.1264656" lon="13.513717"><ele>1178.0</ele><time>2026-04-10T09:16:19.648Z</time></trkpt><trkpt lat="42.1265959" lon="13.513586"><ele>1177.3333333333335</ele><time>2026-04-10T09:16:20.639Z</time></trkpt><trkpt lat="42.1267467" lon="13.513455"><ele>1176.6666666666667</ele><time>2026-04-10T09:16:21.641Z</time></trkpt><trkpt lat="42.1269113" lon="13.5133229"><ele>1176.0</ele><time>2026-04-10T09:16:22.65Z</time></trkpt><trkpt lat="42.1270859" lon="13.5132137"><ele>1176.0</ele><time>2026-04-10T09:16:23.648Z</time></trkpt><trkpt lat="42.1272534" lon="13.5131359"><ele>1176.0</ele><time>2026-04-10T09:16:24.654Z</time></trkpt><trkpt lat="42.1274312" lon="13.5130553"><ele>1176.0</ele><time>2026-04-10T09:16:25.653Z</time></trkpt><trkpt lat="42.1276023" lon="13.5129808"><ele>1173.6666666666667</ele><time>2026-04-10T09:16:26.656Z</time></trkpt><trkpt lat="42.1277811" lon="13.5129124"><ele>1171.3333333333335</ele><time>2026-04-10T09:16:27.655Z</time></trkpt><trkpt lat="42.1279931" lon="13.5128237"><ele>1169.0</ele><time>2026-04-10T09:16:28.65Z</time></trkpt><trkpt lat="42.1282028" lon="13.512769"><ele>1172.3333333333335</ele><time>2026-04-10T09:16:29.664Z</time></trkpt><trkpt lat="42.1283943" lon="13.512747"><ele>1175.6666666666667</ele><time>2026-04-10T09:16:30.667Z</time></trkpt><trkpt lat="42.1285827" lon="13.5127415"><ele>1179.0</ele><time>2026-04-10T09:16:31.654Z</time></trkpt><trkpt lat="42.1287665" lon="13.5127626"><ele>1179.0</ele><time>2026-04-10T09:16:32.659Z</time></trkpt><trkpt lat="42.1289632" lon="13.5127572"><ele>1179.0</ele><time>2026-04-10T09:16:33.647Z</time></trkpt><trkpt lat="42.1291651" lon="13.5127414"><ele>1179.0</ele><time>2026-04-10T09:16:34.641Z</time></trkpt><trkpt lat="42.1293465" lon="13.5126984"><ele>1181.0</ele><time>2026-04-10T09:16:35.64Z</time></trkpt><trkpt lat="42.1295594" lon="13.512664"><ele>1183.0</ele><time>2026-04-10T09:16:36.644Z</time></trkpt><trkpt lat="42.1297646" lon="13.512626"><ele>1185.0</ele><time>2026-04-10T09:16:37.641Z</time></trkpt><trkpt lat="42.1299574" lon="13.5126008"><ele>1189.6666666666667</ele><time>2026-04-10T09:16:38.64Z</time></trkpt><trkpt lat="42.1301599" lon="13.5125609"><ele>1194.3333333333335</ele><time>2026-04-10T09:16:39.641Z</time></trkpt><trkpt lat="42.1303774" lon="13.5124963"><ele>1199.0</ele><time>2026-04-10T09:16:40.64Z</time></trkpt><trkpt lat="42.1305923" lon="13.5124459"><ele>1202.6666666666667</ele><time>2026-04-10T09:16:41.64Z</time></trkpt><trkpt lat="42.1307933" lon="13.5124176"><ele>1206.3333333333333</ele><time>2026-04-10T09:16:42.636Z</time></trkpt><trkpt lat="42.1309991" lon="13.5123814"><ele>1210.0</ele><time>2026-04-10T09:16:43.636Z</time></trkpt><trkpt lat="42.1311899" lon="13.5123532"><ele>1210.0</ele><time>2026-04-10T09:16:44.633Z</time></trkpt><trkpt lat="42.1313892" lon="13.5123556"><ele>1210.0</ele><time>2026-04-10T09:16:45.635Z</time></trkpt><trkpt lat="42.1315533" lon="13.5123276"><ele>1210.0</ele><time>2026-04-10T09:16:46.634Z</time></trkpt><trkpt lat="42.1316934" lon="13.5123048"><ele>1212.75</ele><time>2026-04-10T09:16:47.643Z</time></trkpt><trkpt lat="42.1318193" lon="13.5122684"><ele>1215.5</ele><time>2026-04-10T09:16:48.643Z</time></trkpt><trkpt lat="42.1319546" lon="13.5121964"><ele>1218.25</ele><time>2026-04-10T09:16:49.642Z</time></trkpt><trkpt lat="42.1320923" lon="13.5121323"><ele>1221.0</ele><time>2026-04-10T09:16:50.64Z</time></trkpt><trkpt lat="42.1321715" lon="13.5121406"><ele>1221.0</ele><time>2026-04-10T09:16:51.645Z</time></trkpt><trkpt lat="42.1322782" lon="13.5122464"><ele>1221.0</ele><time>2026-04-10T09:16:52.64Z</time></trkpt><trkpt lat="42.1322951" lon="13.5123749"><ele>1221.0</ele><time>2026-04-10T09:16:53.643Z</time></trkpt><trkpt lat="42.1322512" lon="13.5125584"><ele>1221.0</ele><time>2026-04-10T09:16:54.642Z</time></trkpt><trkpt lat="42.1320939" lon="13.5126045"><ele>1221.0</ele><time>2026-04-10T09:16:55.634Z</time></trkpt><trkpt lat="42.1319157" lon="13.5125723"><ele>1221.0</ele><time>2026-04-10T09:16:56.635Z</time></trkpt><trkpt lat="42.131747" lon="13.5126262"><ele>1221.0</ele><time>2026-04-10T09:16:57.644Z</time></trkpt><trkpt lat="42.131574" lon="13.512694"><ele>1217.3333333333333</ele><time>2026-04-10T09:16:58.637Z</time></trkpt><trkpt lat="42.1313633" lon="13.5127183"><ele>1213.6666666666665</ele><time>2026-04-10T09:16:59.641Z</time></trkpt><trkpt lat="42.131154" lon="13.5127943"><ele>1210.0</ele><time>2026-04-10T09:17:00.651Z</time></trkpt><trkpt lat="42.1309412" lon="13.512875"><ele>1216.0</ele><time>2026-04-10T09:17:01.641Z</time></trkpt><trkpt lat="42.1307282" lon="13.51298"><ele>1222.0</ele><time>2026-04-10T09:17:02.642Z</time></trkpt><trkpt lat="42.1305212" lon="13.5130745"><ele>1228.0</ele><time>2026-04-10T09:17:03.64Z</time></trkpt><trkpt lat="42.1303145" lon="13.5131552"><ele>1228.0</ele><time>2026-04-10T09:17:04.641Z</time></trkpt><trkpt lat="42.1300782" lon="13.5132639"><ele>1228.0</ele><time>2026-04-10T09:17:05.644Z</time></trkpt><trkpt lat="42.1298609" lon="13.5133598"><ele>1226.0</ele><time>2026-04-10T09:17:06.65Z</time></trkpt><trkpt lat="42.1296731" lon="13.5134534"><ele>1224.0</ele><time>2026-04-10T09:17:07.649Z</time></trkpt><trkpt lat="42.1294497" lon="13.5135375"><ele>1222.0</ele><time>2026-04-10T09:17:08.648Z</time></trkpt><trkpt lat="42.1292909" lon="13.5135946"><ele>1222.0</ele><time>2026-04-10T09:17:09.64Z</time></trkpt><trkpt lat="42.1291167" lon="13.5136573"><ele>1222.0</ele><time>2026-04-10T09:17:10.643Z</time></trkpt><trkpt lat="42.1289367" lon="13.5137159"><ele>1222.0</ele><time>2026-04-10T09:17:11.652Z</time></trkpt><trkpt lat="42.1287745" lon="13.5137526"><ele>1225.75</ele><time>2026-04-10T09:17:12.637Z</time></trkpt><trkpt lat="42.1286335" lon="13.5137647"><ele>1229.5</ele><time>2026-04-10T09:17:13.629Z</time></trkpt><trkpt lat="42.1285211" lon="13.5137899"><ele>1233.25</ele><time>2026-04-10T09:17:14.632Z</time></trkpt><trkpt lat="42.128382" lon="13.5138142"><ele>1237.0</ele><time>2026-04-10T09:17:15.64Z</time></trkpt><trkpt lat="42.1282743" lon="13.5138819"><ele>1237.0</ele><time>2026-04-10T09:17:16.636Z</time></trkpt><trkpt lat="42.1282177" lon="13.5140049"><ele>1237.0</ele><time>2026-04-10T09:17:17.653Z</time></trkpt><trkpt lat="42.1282443" lon="13.5141407"><ele>1237.0</ele><time>2026-04-10T09:17:18.65Z</time></trkpt><trkpt lat="42.128358" lon="13.5142686"><ele>1237.0</ele><time>2026-04-10T09:17:19.629Z</time></trkpt><trkpt lat="42.12851" lon="13.5143606"><ele>1237.0</ele><time>2026-04-10T09:17:20.624Z</time></trkpt><trkpt lat="42.1286607" lon="13.5144844"><ele>1237.0</ele><time>2026-04-10T09:17:21.628Z</time></trkpt><trkpt lat="42.1287866" lon="13.5144623"><ele>1237.0</ele><time>2026-04-10T09:17:22.613Z</time></trkpt><trkpt lat="42.128906" lon="13.5144067"><ele>1237.0</ele><time>2026-04-10T09:17:23.605Z</time></trkpt><trkpt lat="42.129093" lon="13.5143231"><ele>1246.5</ele><time>2026-04-10T09:17:24.615Z</time></trkpt><trkpt lat="42.1292938" lon="13.5142221"><ele>1256.0</ele><time>2026-04-10T09:17:25.618Z</time></trkpt><trkpt lat="42.1295197" lon="13.5140562"><ele>1256.0</ele><time>2026-04-10T09:17:26.631Z</time></trkpt><trkpt lat="42.1297476" lon="13.5139829"><ele>1256.0</ele><time>2026-04-10T09:17:27.626Z</time></trkpt><trkpt lat="42.129958" lon="13.5138711"><ele>1260.0</ele><time>2026-04-10T09:17:28.632Z</time></trkpt><trkpt lat="42.1301625" lon="13.5137923"><ele>1264.0</ele><time>2026-04-10T09:17:29.639Z</time></trkpt><trkpt lat="42.1303802" lon="13.5137163"><ele>1268.0</ele><time>2026-04-10T09:17:30.636Z</time></trkpt><trkpt lat="42.1306238" lon="13.5136378"><ele>1258.5</ele><time>2026-04-10T09:17:31.639Z</time></trkpt><trkpt lat="42.1308526" lon="13.5135768"><ele>1249.0</ele><time>2026-04-10T09:17:32.633Z</time></trkpt><trkpt lat="42.1310857" lon="13.513524"><ele>1249.0</ele><time>2026-04-10T09:17:33.634Z</time></trkpt><trkpt lat="42.1313102" lon="13.5134547"><ele>1249.0</ele><time>2026-04-10T09:17:34.632Z</time></trkpt><trkpt lat="42.1315471" lon="13.5133873"><ele>1254.0</ele><time>2026-04-10T09:17:35.633Z</time></trkpt><trkpt lat="42.131779" lon="13.5133612"><ele>1259.0</ele><time>2026-04-10T09:17:36.637Z</time></trkpt><trkpt lat="42.1320123" lon="13.5132726"><ele>1259.0</ele><time>2026-04-10T09:17:37.638Z</time></trkpt><trkpt lat="42.1321974" lon="13.5132056"><ele>1259.0</ele><time>2026-04-10T09:17:38.64Z</time></trkpt><trkpt lat="42.1323591" lon="13.5131217"><ele>1259.0</ele><time>2026-04-10T09:17:39.632Z</time></trkpt><trkpt lat="42.1325265" lon="13.513036"><ele>1264.6666666666667</ele><time>2026-04-10T09:17:40.637Z</time></trkpt><trkpt lat="42.1327199" lon="13.5129351"><ele>1270.3333333333333</ele><time>2026-04-10T09:17:41.636Z</time></trkpt><trkpt lat="42.1329248" lon="13.5128363"><ele>1276.0</ele><time>2026-04-10T09:17:42.64Z</time></trkpt><trkpt lat="42.1331149" lon="13.512738"><ele>1272.5</ele><time>2026-04-10T09:17:43.632Z</time></trkpt><trkpt lat="42.133299" lon="13.5125533"><ele>1269.0</ele><time>2026-04-10T09:17:44.639Z</time></trkpt><trkpt lat="42.1334842" lon="13.512338"><ele>1269.0</ele><time>2026-04-10T09:17:45.643Z</time></trkpt><trkpt lat="42.133652" lon="13.5121429"><ele>1269.0</ele><time>2026-04-10T09:17:46.642Z</time></trkpt><trkpt lat="42.1338274" lon="13.5119491"><ele>1269.0</ele><time>2026-04-10T09:17:47.655Z</time></trkpt><trkpt lat="42.1340317" lon="13.5117905"><ele>1270.0</ele><time>2026-04-10T09:17:48.649Z</time></trkpt><trkpt lat="42.1342429" lon="13.5116085"><ele>1271.0</ele><time>2026-04-10T09:17:49.649Z</time></trkpt><trkpt lat="42.1344524" lon="13.5114157"><ele>1271.0</ele><time>2026-04-10T09:17:50.652Z</time></trkpt><trkpt lat="42.1346334" lon="13.5112713"><ele>1271.0</ele><time>2026-04-10T09:17:51.65Z</time></trkpt><trkpt lat="42.1348332" lon="13.511103"><ele>1271.0</ele><time>2026-04-10T09:17:52.648Z</time></trkpt><trkpt lat="42.135005" lon="13.5109261"><ele>1273.3333333333335</ele><time>2026-04-10T09:17:53.647Z</time></trkpt><trkpt lat="42.1351763" lon="13.5107644"><ele>1275.6666666666667</ele><time>2026-04-10T09:17:54.649Z</time></trkpt><trkpt lat="42.1353523" lon="13.5105815"><ele>1278.0</ele><time>2026-04-10T09:17:55.645Z</time></trkpt><trkpt lat="42.1355251" lon="13.5103864"><ele>1278.3333333333333</ele><time>2026-04-10T09:17:56.644Z</time></trkpt><trkpt lat="42.13571" lon="13.510207"><ele>1278.6666666666665</ele><time>2026-04-10T09:17:57.641Z</time></trkpt><trkpt lat="42.135908" lon="13.5100769"><ele>1279.0</ele><time>2026-04-10T09:17:58.643Z</time></trkpt><trkpt lat="42.1361255" lon="13.5099866"><ele>1279.0</ele><time>2026-04-10T09:17:59.653Z</time></trkpt><trkpt lat="42.1363301" lon="13.5099004"><ele>1279.0</ele><time>2026-04-10T09:18:00.647Z</time></trkpt><trkpt lat="42.1365505" lon="13.5098157"><ele>1279.0</ele><time>2026-04-10T09:18:01.644Z</time></trkpt><trkpt lat="42.1367675" lon="13.5097109"><ele>1277.0</ele><time>2026-04-10T09:18:02.657Z</time></trkpt><trkpt lat="42.1369813" lon="13.5095811"><ele>1275.0</ele><time>2026-04-10T09:18:03.644Z</time></trkpt><trkpt lat="42.1371881" lon="13.5094534"><ele>1279.6666666666667</ele><time>2026-04-10T09:18:04.644Z</time></trkpt><trkpt lat="42.1373899" lon="13.5093482"><ele>1284.3333333333335</ele><time>2026-04-10T09:18:05.644Z</time></trkpt><trkpt lat="42.1375932" lon="13.5092887"><ele>1289.0</ele><time>2026-04-10T09:18:06.64Z</time></trkpt><trkpt lat="42.1378005" lon="13.509254"><ele>1289.0</ele><time>2026-04-10T09:18:07.647Z</time></trkpt><trkpt lat="42.1380116" lon="13.5092277"><ele>1289.0</ele><time>2026-04-10T09:18:08.645Z</time></trkpt><trkpt lat="42.1382079" lon="13.5092176"><ele>1289.0</ele><time>2026-04-10T09:18:09.648Z</time></trkpt><trkpt lat="42.138384" lon="13.5091772"><ele>1288.6666666666667</ele><time>2026-04-10T09:18:10.64Z</time></trkpt><trkpt lat="42.1385966" lon="13.5091176"><ele>1288.3333333333333</ele><time>2026-04-10T09:18:11.636Z</time></trkpt><trkpt lat="42.1387314" lon="13.50894"><ele>1288.0</ele><time>2026-04-10T09:18:12.637Z</time></trkpt><trkpt lat="42.1388763" lon="13.5087221"><ele>1288.0</ele><time>2026-04-10T09:18:13.637Z</time></trkpt><trkpt lat="42.1389381" lon="13.5084132"><ele>1288.0</ele><time>2026-04-10T09:18:14.646Z</time></trkpt><trkpt lat="42.1390209" lon="13.5081374"><ele>1292.6666666666665</ele><time>2026-04-10T09:18:15.65Z</time></trkpt><trkpt lat="42.1390661" lon="13.5079263"><ele>1297.3333333333333</ele><time>2026-04-10T09:18:16.643Z</time></trkpt><trkpt lat="42.1390972" lon="13.5076783"><ele>1302.0</ele><time>2026-04-10T09:18:17.656Z</time></trkpt><trkpt lat="42.139118" lon="13.507475"><ele>1302.0</ele><time>2026-04-10T09:18:18.644Z</time></trkpt><trkpt lat="42.1391709" lon="13.5073076"><ele>1302.0</ele><time>2026-04-10T09:18:19.652Z</time></trkpt><trkpt lat="42.1392456" lon="13.5073329"><ele>1302.0</ele><time>2026-04-10T09:18:21.648Z</time></trkpt><trkpt lat="42.1393218" lon="13.5075491"><ele>1302.0</ele><time>2026-04-10T09:18:22.643Z</time></trkpt><trkpt lat="42.1393599" lon="13.5077488"><ele>1305.5</ele><time>2026-04-10T09:18:23.642Z</time></trkpt><trkpt lat="42.1392995" lon="13.5079192"><ele>1309.0</ele><time>2026-04-10T09:18:24.638Z</time></trkpt><trkpt lat="42.1392045" lon="13.5080499"><ele>1312.5</ele><time>2026-04-10T09:18:25.632Z</time></trkpt><trkpt lat="42.1390944" lon="13.5082069"><ele>1316.0</ele><time>2026-04-10T09:18:26.638Z</time></trkpt><trkpt lat="42.1389851" lon="13.5083972"><ele>1311.3333333333335</ele><time>2026-04-10T09:18:27.643Z</time></trkpt><trkpt lat="42.1388825" lon="13.50861"><ele>1306.6666666666667</ele><time>2026-04-10T09:18:28.642Z</time></trkpt><trkpt lat="42.1387887" lon="13.5088003"><ele>1302.0</ele><time>2026-04-10T09:18:29.647Z</time></trkpt><trkpt lat="42.1387142" lon="13.5090123"><ele>1302.0</ele><time>2026-04-10T09:18:30.647Z</time></trkpt><trkpt lat="42.1386288" lon="13.5092448"><ele>1302.0</ele><time>2026-04-10T09:18:31.641Z</time></trkpt><trkpt lat="42.1385818" lon="13.5093766"><ele>1302.0</ele><time>2026-04-10T09:18:32.65Z</time></trkpt><trkpt lat="42.1385222" lon="13.5095085"><ele>1302.0</ele><time>2026-04-10T09:18:33.637Z</time></trkpt><trkpt lat="42.138486" lon="13.5095843"><ele>1306.1999999999998</ele><time>2026-04-10T09:18:34.643Z</time></trkpt><trkpt lat="42.1385246" lon="13.5096984"><ele>1310.4</ele><time>2026-04-10T09:18:36.647Z</time></trkpt><trkpt lat="42.1385463" lon="13.5097955"><ele>1314.6</ele><time>2026-04-10T09:18:37.636Z</time></trkpt><trkpt lat="42.1385974" lon="13.5099229"><ele>1318.8000000000002</ele><time>2026-04-10T09:18:38.632Z</time></trkpt><trkpt lat="42.138616" lon="13.5101117"><ele>1323.0</ele><time>2026-04-10T09:18:39.63Z</time></trkpt><trkpt lat="42.1386359" lon="13.5103158"><ele>1325.6666666666667</ele><time>2026-04-10T09:18:40.624Z</time></trkpt><trkpt lat="42.1386486" lon="13.5105291"><ele>1328.3333333333335</ele><time>2026-04-10T09:18:41.627Z</time></trkpt><trkpt lat="42.1386738" lon="13.5107415"><ele>1331.0</ele><time>2026-04-10T09:18:42.642Z</time></trkpt><trkpt lat="42.1387218" lon="13.5109473"><ele>1331.0</ele><time>2026-04-10T09:18:43.64Z</time></trkpt><trkpt lat="42.1387948" lon="13.5111466"><ele>1331.0</ele><time>2026-04-10T09:18:44.642Z</time></trkpt><trkpt lat="42.1389223" lon="13.511318"><ele>1331.0</ele><time>2026-04-10T09:18:45.638Z</time></trkpt><trkpt lat="42.1390422" lon="13.5114392"><ele>1332.3333333333335</ele><time>2026-04-10T09:18:46.633Z</time></trkpt><trkpt lat="42.1391932" lon="13.5114967"><ele>1333.6666666666667</ele><time>2026-04-10T09:18:47.635Z</time></trkpt><trkpt lat="42.1393408" lon="13.5114958"><ele>1335.0</ele><time>2026-04-10T09:18:48.644Z</time></trkpt><trkpt lat="42.1395028" lon="13.5114998"><ele>1335.0</ele><time>2026-04-10T09:18:49.635Z</time></trkpt><trkpt lat="42.1396367" lon="13.5114467"><ele>1335.0</ele><time>2026-04-10T09:18:50.636Z</time></trkpt><trkpt lat="42.1397562" lon="13.5113706"><ele>1335.0</ele><time>2026-04-10T09:18:51.639Z</time></trkpt><trkpt lat="42.1398877" lon="13.5111557"><ele>1335.0</ele><time>2026-04-10T09:18:52.631Z</time></trkpt><trkpt lat="42.1399031" lon="13.5108644"><ele>1335.0</ele><time>2026-04-10T09:18:53.63Z</time></trkpt><trkpt lat="42.1399295" lon="13.5105715"><ele>1335.0</ele><time>2026-04-10T09:18:54.633Z</time></trkpt><trkpt lat="42.1399413" lon="13.5103083"><ele>1335.0</ele><time>2026-04-10T09:18:55.639Z</time></trkpt><trkpt lat="42.1399539" lon="13.5100363"><ele>1335.0</ele><time>2026-04-10T09:18:56.632Z</time></trkpt><trkpt lat="42.1399483" lon="13.509747"><ele>1335.0</ele><time>2026-04-10T09:18:57.635Z</time></trkpt><trkpt lat="42.1399786" lon="13.5095361"><ele>1337.0</ele><time>2026-04-10T09:18:58.641Z</time></trkpt><trkpt lat="42.1400203" lon="13.5093422"><ele>1339.0</ele><time>2026-04-10T09:18:59.652Z</time></trkpt><trkpt lat="42.1401026" lon="13.5092027"><ele>1341.0</ele><time>2026-04-10T09:19:00.647Z</time></trkpt><trkpt lat="42.1401761" lon="13.5090431"><ele>1343.0</ele><time>2026-04-10T09:19:01.649Z</time></trkpt><trkpt lat="42.1403056" lon="13.508949"><ele>1343.0</ele><time>2026-04-10T09:19:02.651Z</time></trkpt><trkpt lat="42.1404353" lon="13.5089047"><ele>1343.0</ele><time>2026-04-10T09:19:03.654Z</time></trkpt><trkpt lat="42.1405639" lon="13.508899"><ele>1343.0</ele><time>2026-04-10T09:19:04.64Z</time></trkpt><trkpt lat="42.1406708" lon="13.50899"><ele>1343.0</ele><time>2026-04-10T09:19:05.645Z</time></trkpt><trkpt lat="42.1407972" lon="13.5091623"><ele>1345.3333333333335</ele><time>2026-04-10T09:19:06.643Z</time></trkpt><trkpt lat="42.1409038" lon="13.5093698"><ele>1347.6666666666667</ele><time>2026-04-10T09:19:07.643Z</time></trkpt><trkpt lat="42.1409766" lon="13.5095779"><ele>1350.0</ele><time>2026-04-10T09:19:08.634Z</time></trkpt><trkpt lat="42.1409972" lon="13.5097691"><ele>1350.0</ele><time>2026-04-10T09:19:09.643Z</time></trkpt><trkpt lat="42.1409534" lon="13.5099471"><ele>1350.0</ele><time>2026-04-10T09:19:10.645Z</time></trkpt><trkpt lat="42.1408988" lon="13.5100626"><ele>1350.0</ele><time>2026-04-10T09:19:11.65Z</time></trkpt><trkpt lat="42.1407561" lon="13.5101945"><ele>1350.0</ele><time>2026-04-10T09:19:12.645Z</time></trkpt><trkpt lat="42.1406166" lon="13.5102882"><ele>1347.0</ele><time>2026-04-10T09:19:13.652Z</time></trkpt><trkpt lat="42.140513" lon="13.5103773"><ele>1344.0</ele><time>2026-04-10T09:19:14.66Z</time></trkpt><trkpt lat="42.1404363" lon="13.5105275"><ele>1341.0</ele><time>2026-04-10T09:19:15.658Z</time></trkpt><trkpt lat="42.1403787" lon="13.5107373"><ele>1338.0</ele><time>2026-04-10T09:19:16.659Z</time></trkpt><trkpt lat="42.1403655" lon="13.5108974"><ele>1338.0</ele><time>2026-04-10T09:19:17.67Z</time></trkpt><trkpt lat="42.140394" lon="13.5111026"><ele>1338.0</ele><time>2026-04-10T09:19:18.683Z</time></trkpt><trkpt lat="42.1404477" lon="13.5113398"><ele>1338.0</ele><time>2026-04-10T09:19:19.671Z</time></trkpt><trkpt lat="42.140477" lon="13.5116224"><ele>1339.3333333333333</ele><time>2026-04-10T09:19:20.677Z</time></trkpt><trkpt lat="42.1404756" lon="13.5119068"><ele>1340.6666666666665</ele><time>2026-04-10T09:19:21.678Z</time></trkpt><trkpt lat="42.1404846" lon="13.5121572"><ele>1342.0</ele><time>2026-04-10T09:19:22.672Z</time></trkpt><trkpt lat="42.1405093" lon="13.5124026"><ele>1345.5</ele><time>2026-04-10T09:19:23.672Z</time></trkpt><trkpt lat="42.1405168" lon="13.5126417"><ele>1349.0</ele><time>2026-04-10T09:19:24.676Z</time></trkpt><trkpt lat="42.140499" lon="13.5128237"><ele>1352.5</ele><time>2026-04-10T09:19:25.669Z</time></trkpt><trkpt lat="42.1404929" lon="13.5129737"><ele>1356.0</ele><time>2026-04-10T09:19:26.667Z</time></trkpt><trkpt lat="42.1404826" lon="13.5131225"><ele>1356.8</ele><time>2026-04-10T09:19:27.672Z</time></trkpt><trkpt lat="42.1405802" lon="13.5132171"><ele>1357.6</ele><time>2026-04-10T09:19:30.656Z</time></trkpt><trkpt lat="42.1406644" lon="13.5132214"><ele>1358.4</ele><time>2026-04-10T09:19:31.651Z</time></trkpt><trkpt lat="42.1407597" lon="13.5132191"><ele>1359.2</ele><time>2026-04-10T09:19:32.656Z</time></trkpt><trkpt lat="42.1408517" lon="13.5131844"><ele>1360.0</ele><time>2026-04-10T09:19:33.645Z</time></trkpt><trkpt lat="42.1409439" lon="13.5131118"><ele>1360.0</ele><time>2026-04-10T09:19:34.668Z</time></trkpt><trkpt lat="42.1410447" lon="13.5130291"><ele>1360.0</ele><time>2026-04-10T09:19:35.652Z</time></trkpt><trkpt lat="42.1411583" lon="13.5129213"><ele>1360.0</ele><time>2026-04-10T09:19:36.65Z</time></trkpt><trkpt lat="42.1412916" lon="13.5127936"><ele>1360.0</ele><time>2026-04-10T09:19:37.65Z</time></trkpt><trkpt lat="42.1414328" lon="13.5126109"><ele>1360.0</ele><time>2026-04-10T09:19:38.655Z</time></trkpt><trkpt lat="42.1415419" lon="13.5123151"><ele>1360.0</ele><time>2026-04-10T09:19:39.661Z</time></trkpt><trkpt lat="42.1416222" lon="13.5120009"><ele>1362.3333333333333</ele><time>2026-04-10T09:19:40.668Z</time></trkpt><trkpt lat="42.1417322" lon="13.5117596"><ele>1364.6666666666667</ele><time>2026-04-10T09:19:41.682Z</time></trkpt><trkpt lat="42.1418626" lon="13.511509"><ele>1367.0</ele><time>2026-04-10T09:19:42.675Z</time></trkpt><trkpt lat="42.1420034" lon="13.5112818"><ele>1370.0</ele><time>2026-04-10T09:19:43.679Z</time></trkpt><trkpt lat="42.1421888" lon="13.5110637"><ele>1373.0</ele><time>2026-04-10T09:19:44.691Z</time></trkpt><trkpt lat="42.1423338" lon="13.5108645"><ele>1371.6666666666667</ele><time>2026-04-10T09:19:45.677Z</time></trkpt><trkpt lat="42.1424717" lon="13.5106771"><ele>1370.3333333333333</ele><time>2026-04-10T09:19:46.67Z</time></trkpt><trkpt lat="42.1426103" lon="13.5105615"><ele>1369.0</ele><time>2026-04-10T09:19:47.671Z</time></trkpt><trkpt lat="42.142718" lon="13.5104715"><ele>1371.25</ele><time>2026-04-10T09:19:48.671Z</time></trkpt><trkpt lat="42.1428305" lon="13.5103537"><ele>1373.5</ele><time>2026-04-10T09:19:49.667Z</time></trkpt><trkpt lat="42.1428748" lon="13.5101833"><ele>1375.75</ele><time>2026-04-10T09:19:50.663Z</time></trkpt><trkpt lat="42.1428743" lon="13.5100168"><ele>1378.0</ele><time>2026-04-10T09:19:51.647Z</time></trkpt><trkpt lat="42.1428293" lon="13.5097902"><ele>1378.0</ele><time>2026-04-10T09:19:52.648Z</time></trkpt><trkpt lat="42.1427593" lon="13.5095814"><ele>1378.0</ele><time>2026-04-10T09:19:53.654Z</time></trkpt><trkpt lat="42.1427197" lon="13.5093671"><ele>1378.0</ele><time>2026-04-10T09:19:54.67Z</time></trkpt><trkpt lat="42.1427161" lon="13.509187"><ele>1377.6666666666665</ele><time>2026-04-10T09:19:55.654Z</time></trkpt><trkpt lat="42.1428058" lon="13.5090837"><ele>1377.3333333333333</ele><time>2026-04-10T09:19:56.663Z</time></trkpt><trkpt lat="42.1429381" lon="13.5089628"><ele>1377.0</ele><time>2026-04-10T09:19:57.666Z</time></trkpt><trkpt lat="42.1431017" lon="13.5088358"><ele>1375.6666666666667</ele><time>2026-04-10T09:19:58.662Z</time></trkpt><trkpt lat="42.1432753" lon="13.5087526"><ele>1374.3333333333335</ele><time>2026-04-10T09:19:59.669Z</time></trkpt><trkpt lat="42.1433963" lon="13.5086242"><ele>1373.0</ele><time>2026-04-10T09:20:00.669Z</time></trkpt><trkpt lat="42.1435072" lon="13.5084643"><ele>1371.6666666666667</ele><time>2026-04-10T09:20:01.66Z</time></trkpt><trkpt lat="42.1435768" lon="13.5082781"><ele>1370.3333333333333</ele><time>2026-04-10T09:20:02.649Z</time></trkpt><trkpt lat="42.143643" lon="13.5080725"><ele>1369.0</ele><time>2026-04-10T09:20:03.664Z</time></trkpt><trkpt lat="42.1436859" lon="13.5078695"><ele>1368.75</ele><time>2026-04-10T09:20:04.673Z</time></trkpt><trkpt lat="42.1437673" lon="13.507735"><ele>1368.5</ele><time>2026-04-10T09:20:05.661Z</time></trkpt><trkpt lat="42.1438633" lon="13.5076214"><ele>1368.25</ele><time>2026-04-10T09:20:06.652Z</time></trkpt><trkpt lat="42.1439424" lon="13.5074558"><ele>1368.0</ele><time>2026-04-10T09:20:07.657Z</time></trkpt><trkpt lat="42.1440028" lon="13.507284"><ele>1370.5</ele><time>2026-04-10T09:20:08.659Z</time></trkpt><trkpt lat="42.1440779" lon="13.5071561"><ele>1373.0</ele><time>2026-04-10T09:20:09.663Z</time></trkpt><trkpt lat="42.1441814" lon="13.5070767"><ele>1375.5</ele><time>2026-04-10T09:20:10.646Z</time></trkpt><trkpt lat="42.1443213" lon="13.5070653"><ele>1378.0</ele><time>2026-04-10T09:20:11.639Z</time></trkpt><trkpt lat="42.1444703" lon="13.5070193"><ele>1378.0</ele><time>2026-04-10T09:20:12.642Z</time></trkpt><trkpt lat="42.1446376" lon="13.5070505"><ele>1378.0</ele><time>2026-04-10T09:20:13.642Z</time></trkpt><trkpt lat="42.1448068" lon="13.5070707"><ele>1378.0</ele><time>2026-04-10T09:20:14.65Z</time></trkpt><trkpt lat="42.1449693" lon="13.5070331"><ele>1380.0</ele><time>2026-04-10T09:20:15.644Z</time></trkpt><trkpt lat="42.1450938" lon="13.5069837"><ele>1382.0</ele><time>2026-04-10T09:20:16.641Z</time></trkpt><trkpt lat="42.1452461" lon="13.5068787"><ele>1384.0</ele><time>2026-04-10T09:20:17.644Z</time></trkpt><trkpt lat="42.1454066" lon="13.5067653"><ele>1384.0</ele><time>2026-04-10T09:20:18.645Z</time></trkpt><trkpt lat="42.1455763" lon="13.5066329"><ele>1384.0</ele><time>2026-04-10T09:20:19.655Z</time></trkpt><trkpt lat="42.1457341" lon="13.5065279"><ele>1384.0</ele><time>2026-04-10T09:20:20.648Z</time></trkpt><trkpt lat="42.1458971" lon="13.5064048"><ele>1385.3333333333333</ele><time>2026-04-10T09:20:21.643Z</time></trkpt><trkpt lat="42.1460508" lon="13.5062581"><ele>1386.6666666666667</ele><time>2026-04-10T09:20:22.645Z</time></trkpt><trkpt lat="42.1461864" lon="13.5061155"><ele>1388.0</ele><time>2026-04-10T09:20:23.648Z</time></trkpt><trkpt lat="42.1463001" lon="13.5059361"><ele>1388.0</ele><time>2026-04-10T09:20:24.636Z</time></trkpt><trkpt lat="42.1463593" lon="13.5057527"><ele>1388.0</ele><time>2026-04-10T09:20:25.641Z</time></trkpt><trkpt lat="42.1464354" lon="13.5055337"><ele>1388.0</ele><time>2026-04-10T09:20:26.64Z</time></trkpt><trkpt lat="42.1465047" lon="13.5053327"><ele>1391.0</ele><time>2026-04-10T09:20:27.645Z</time></trkpt><trkpt lat="42.1465501" lon="13.5051265"><ele>1394.0</ele><time>2026-04-10T09:20:28.638Z</time></trkpt><trkpt lat="42.1465746" lon="13.5049387"><ele>1397.0</ele><time>2026-04-10T09:20:29.642Z</time></trkpt><trkpt lat="42.1465905" lon="13.5047595"><ele>1400.0</ele><time>2026-04-10T09:20:30.647Z</time></trkpt><trkpt lat="42.146712" lon="13.5047136"><ele>1400.0</ele><time>2026-04-10T09:20:31.648Z</time></trkpt><trkpt lat="42.1468118" lon="13.5045825"><ele>1400.0</ele><time>2026-04-10T09:20:32.644Z</time></trkpt><trkpt lat="42.1469093" lon="13.5045091"><ele>1400.0</ele><time>2026-04-10T09:20:33.645Z</time></trkpt><trkpt lat="42.147012" lon="13.5044313"><ele>1400.0</ele><time>2026-04-10T09:20:34.655Z</time></trkpt><trkpt lat="42.1471257" lon="13.5043862"><ele>1403.0</ele><time>2026-04-10T09:20:35.655Z</time></trkpt><trkpt lat="42.1472146" lon="13.5043108"><ele>1406.0</ele><time>2026-04-10T09:20:36.658Z</time></trkpt><trkpt lat="42.1473187" lon="13.5042351"><ele>1409.0</ele><time>2026-04-10T09:20:37.665Z</time></trkpt><trkpt lat="42.1474328" lon="13.5041721"><ele>1412.0</ele><time>2026-04-10T09:20:38.664Z</time></trkpt><trkpt lat="42.1475439" lon="13.5040931"><ele>1412.0</ele><time>2026-04-10T09:20:39.654Z</time></trkpt><trkpt lat="42.1476487" lon="13.5040174"><ele>1412.0</ele><time>2026-04-10T09:20:40.653Z</time></trkpt><trkpt lat="42.1477508" lon="13.5039432"><ele>1412.0</ele><time>2026-04-10T09:20:41.646Z</time></trkpt><trkpt lat="42.1478521" lon="13.5038732"><ele>1412.0</ele><time>2026-04-10T09:20:42.653Z</time></trkpt><trkpt lat="42.1479525" lon="13.5038135"><ele>1412.0</ele><time>2026-04-10T09:20:43.649Z</time></trkpt><trkpt lat="42.1480575" lon="13.5037824"><ele>1412.0</ele><time>2026-04-10T09:20:44.647Z</time></trkpt><trkpt lat="42.148173" lon="13.5037802"><ele>1412.0</ele><time>2026-04-10T09:20:45.653Z</time></trkpt><trkpt lat="42.1482986" lon="13.5037755"><ele>1412.0</ele><time>2026-04-10T09:20:46.645Z</time></trkpt><trkpt lat="42.1484071" lon="13.5037819"><ele>1411.3999999999999</ele><time>2026-04-10T09:20:47.657Z</time></trkpt><trkpt lat="42.1485089" lon="13.5037846"><ele>1410.8</ele><time>2026-04-10T09:20:48.655Z</time></trkpt><trkpt lat="42.1486127" lon="13.5037637"><ele>1410.2</ele><time>2026-04-10T09:20:49.65Z</time></trkpt><trkpt lat="42.1487189" lon="13.5037474"><ele>1409.6</ele><time>2026-04-10T09:20:50.655Z</time></trkpt><trkpt lat="42.1488196" lon="13.5037255"><ele>1409.0</ele><time>2026-04-10T09:20:51.652Z</time></trkpt><trkpt lat="42.1489217" lon="13.5036527"><ele>1411.3333333333335</ele><time>2026-04-10T09:20:52.653Z</time></trkpt><trkpt lat="42.1490295" lon="13.5035713"><ele>1413.6666666666667</ele><time>2026-04-10T09:20:53.647Z</time></trkpt><trkpt lat="42.1491488" lon="13.5034825"><ele>1416.0</ele><time>2026-04-10T09:20:54.646Z</time></trkpt><trkpt lat="42.1493704" lon="13.5033069"><ele>1416.0</ele><time>2026-04-10T09:20:56.656Z</time></trkpt><trkpt lat="42.1494837" lon="13.5032314"><ele>1416.0</ele><time>2026-04-10T09:20:57.652Z</time></trkpt><trkpt lat="42.1495964" lon="13.5031566"><ele>1416.0</ele><time>2026-04-10T09:20:58.655Z</time></trkpt><trkpt lat="42.1497015" lon="13.5030835"><ele>1416.0</ele><time>2026-04-10T09:20:59.666Z</time></trkpt><trkpt lat="42.149812" lon="13.5030088"><ele>1416.0</ele><time>2026-04-10T09:21:00.663Z</time></trkpt><trkpt lat="42.1499229" lon="13.5029369"><ele>1416.0</ele><time>2026-04-10T09:21:01.661Z</time></trkpt><trkpt lat="42.1500368" lon="13.5028642"><ele>1416.0</ele><time>2026-04-10T09:21:02.661Z</time></trkpt><trkpt lat="42.1501513" lon="13.5027964"><ele>1416.0</ele><time>2026-04-10T09:21:03.658Z</time></trkpt><trkpt lat="42.1502691" lon="13.5027403"><ele>1416.0</ele><time>2026-04-10T09:21:04.657Z</time></trkpt><trkpt lat="42.1503808" lon="13.5026784"><ele>1416.0</ele><time>2026-04-10T09:21:05.652Z</time></trkpt><trkpt lat="42.1504902" lon="13.5026086"><ele>1416.0</ele><time>2026-04-10T09:21:06.644Z</time></trkpt><trkpt lat="42.1505783" lon="13.5025161"><ele>1416.0</ele><time>2026-04-10T09:21:07.656Z</time></trkpt><trkpt lat="42.1506726" lon="13.5024215"><ele>1415.3333333333333</ele><time>2026-04-10T09:21:08.653Z</time></trkpt><trkpt lat="42.1507658" lon="13.5023402"><ele>1414.6666666666667</ele><time>2026-04-10T09:21:09.644Z</time></trkpt><trkpt lat="42.1508364" lon="13.5022896"><ele>1414.0</ele><time>2026-04-10T09:21:10.646Z</time></trkpt><trkpt lat="42.1508944" lon="13.5022413"><ele>1413.3333333333335</ele><time>2026-04-10T09:21:11.646Z</time></trkpt><trkpt lat="42.1509513" lon="13.5021952"><ele>1412.6666666666667</ele><time>2026-04-10T09:21:12.65Z</time></trkpt><trkpt lat="42.1510146" lon="13.5021381"><ele>1412.0</ele><time>2026-04-10T09:21:13.657Z</time></trkpt><trkpt lat="42.1510738" lon="13.5020723"><ele>1412.0</ele><time>2026-04-10T09:21:14.658Z</time></trkpt><trkpt lat="42.1511347" lon="13.5020015"><ele>1412.0</ele><time>2026-04-10T09:21:15.667Z</time></trkpt><trkpt lat="42.1512104" lon="13.5019316"><ele>1412.0</ele><time>2026-04-10T09:21:16.676Z</time></trkpt><trkpt lat="42.1512855" lon="13.5018586"><ele>1412.0</ele><time>2026-04-10T09:21:17.677Z</time></trkpt><trkpt lat="42.1513606" lon="13.501785"><ele>1412.0</ele><time>2026-04-10T09:21:18.667Z</time></trkpt><trkpt lat="42.1514392" lon="13.5017092"><ele>1412.0</ele><time>2026-04-10T09:21:19.661Z</time></trkpt><trkpt lat="42.151527" lon="13.5016133"><ele>1412.0</ele><time>2026-04-10T09:21:20.662Z</time></trkpt><trkpt lat="42.1516337" lon="13.5015422"><ele>1412.0</ele><time>2026-04-10T09:21:21.665Z</time></trkpt><trkpt lat="42.1517323" lon="13.5014729"><ele>1412.0</ele><time>2026-04-10T09:21:22.664Z</time></trkpt><trkpt lat="42.1518308" lon="13.5014019"><ele>1410.75</ele><time>2026-04-10T09:21:23.663Z</time></trkpt><trkpt lat="42.1519278" lon="13.5013136"><ele>1409.5</ele><time>2026-04-10T09:21:24.661Z</time></trkpt><trkpt lat="42.152028" lon="13.5012249"><ele>1408.25</ele><time>2026-04-10T09:21:25.66Z</time></trkpt><trkpt lat="42.1521634" lon="13.5011399"><ele>1407.0</ele><time>2026-04-10T09:21:26.659Z</time></trkpt><trkpt lat="42.1523008" lon="13.5010568"><ele>1408.75</ele><time>2026-04-10T09:21:27.664Z</time></trkpt><trkpt lat="42.1524208" lon="13.5009764"><ele>1410.5</ele><time>2026-04-10T09:21:28.657Z</time></trkpt><trkpt lat="42.15254" lon="13.500896"><ele>1412.25</ele><time>2026-04-10T09:21:29.658Z</time></trkpt><trkpt lat="42.1526472" lon="13.5008179"><ele>1414.0</ele><time>2026-04-10T09:21:30.662Z</time></trkpt><trkpt lat="42.1527425" lon="13.500722"><ele>1414.0</ele><time>2026-04-10T09:21:31.653Z</time></trkpt><trkpt lat="42.152838" lon="13.5006075"><ele>1414.0</ele><time>2026-04-10T09:21:32.643Z</time></trkpt><trkpt lat="42.1528729" lon="13.5004892"><ele>1414.0</ele><time>2026-04-10T09:21:33.634Z</time></trkpt><trkpt lat="42.1528643" lon="13.5003279"><ele>1414.0</ele><time>2026-04-10T09:21:34.631Z</time></trkpt><trkpt lat="42.1527644" lon="13.5003361"><ele>1414.0</ele><time>2026-04-10T09:21:35.627Z</time></trkpt><trkpt lat="42.1526748" lon="13.5003438"><ele>1414.8000000000002</ele><time>2026-04-10T09:21:37.635Z</time></trkpt><trkpt lat="42.1525578" lon="13.5002964"><ele>1415.6000000000001</ele><time>2026-04-10T09:21:40.643Z</time></trkpt><trkpt lat="42.152485" lon="13.5003017"><ele>1416.4</ele><time>2026-04-10T09:21:41.636Z</time></trkpt><trkpt lat="42.1523527" lon="13.5001949"><ele>1417.2</ele><time>2026-04-10T09:21:42.63Z</time></trkpt><trkpt lat="42.152278" lon="13.5001528"><ele>1418.0</ele><time>2026-04-10T09:21:43.617Z</time></trkpt><trkpt lat="42.1522093" lon="13.5001598"><ele>1419.4</ele><time>2026-04-10T09:21:44.607Z</time></trkpt><trkpt lat="42.1521103" lon="13.5001305"><ele>1420.8000000000002</ele><time>2026-04-10T09:21:45.61Z</time></trkpt><trkpt lat="42.1520011" lon="13.500108"><ele>1422.2</ele><time>2026-04-10T09:21:46.616Z</time></trkpt><trkpt lat="42.1518929" lon="13.5000896"><ele>1423.6</ele><time>2026-04-10T09:21:47.636Z</time></trkpt><trkpt lat="42.1517999" lon="13.5000343"><ele>1425.0</ele><time>2026-04-10T09:21:48.632Z</time></trkpt><trkpt lat="42.1517203" lon="13.4999563"><ele>1425.0</ele><time>2026-04-10T09:21:49.63Z</time></trkpt><trkpt lat="42.1516603" lon="13.4998548"><ele>1425.0</ele><time>2026-04-10T09:21:50.64Z</time></trkpt><trkpt lat="42.1516331" lon="13.4997201"><ele>1425.0</ele><time>2026-04-10T09:21:51.641Z</time></trkpt><trkpt lat="42.1516329" lon="13.4995811"><ele>1425.0</ele><time>2026-04-10T09:21:52.632Z</time></trkpt><trkpt lat="42.1516327" lon="13.4994465"><ele>1425.0</ele><time>2026-04-10T09:21:53.63Z</time></trkpt><trkpt lat="42.1516853" lon="13.499282"><ele>1426.6666666666667</ele><time>2026-04-10T09:21:54.639Z</time></trkpt><trkpt lat="42.1517556" lon="13.4990997"><ele>1428.3333333333335</ele><time>2026-04-10T09:21:55.624Z</time></trkpt><trkpt lat="42.1518361" lon="13.4989103"><ele>1430.0</ele><time>2026-04-10T09:21:56.629Z</time></trkpt><trkpt lat="42.1519126" lon="13.4987319"><ele>1431.0</ele><time>2026-04-10T09:21:57.622Z</time></trkpt><trkpt lat="42.1519867" lon="13.4985538"><ele>1432.0</ele><time>2026-04-10T09:21:58.626Z</time></trkpt><trkpt lat="42.152041" lon="13.4983766"><ele>1433.0</ele><time>2026-04-10T09:21:59.635Z</time></trkpt><trkpt lat="42.1520796" lon="13.4981841"><ele>1434.0</ele><time>2026-04-10T09:22:00.624Z</time></trkpt><trkpt lat="42.1521108" lon="13.4980057"><ele>1433.0</ele><time>2026-04-10T09:22:01.63Z</time></trkpt><trkpt lat="42.152131" lon="13.4978422"><ele>1432.0</ele><time>2026-04-10T09:22:02.624Z</time></trkpt><trkpt lat="42.1521345" lon="13.4977054"><ele>1431.0</ele><time>2026-04-10T09:22:03.618Z</time></trkpt><trkpt lat="42.1521502" lon="13.4975776"><ele>1430.0</ele><time>2026-04-10T09:22:04.615Z</time></trkpt><trkpt lat="42.1521708" lon="13.4974653"><ele>1429.0</ele><time>2026-04-10T09:22:05.623Z</time></trkpt><trkpt lat="42.1521914" lon="13.4973606"><ele>1429.0</ele><time>2026-04-10T09:22:06.629Z</time></trkpt><trkpt lat="42.152206" lon="13.49727"><ele>1429.0</ele><time>2026-04-10T09:22:07.638Z</time></trkpt><trkpt lat="42.1522451" lon="13.4971634"><ele>1429.0</ele><time>2026-04-10T09:22:08.631Z</time></trkpt><trkpt lat="42.1523132" lon="13.4970507"><ele>1429.0</ele><time>2026-04-10T09:22:09.635Z</time></trkpt><trkpt lat="42.1523965" lon="13.4969579"><ele>1429.0</ele><time>2026-04-10T09:22:10.626Z</time></trkpt><trkpt lat="42.1524763" lon="13.4968682"><ele>1430.0</ele><time>2026-04-10T09:22:11.625Z</time></trkpt><trkpt lat="42.1525779" lon="13.4967743"><ele>1431.0</ele><time>2026-04-10T09:22:12.628Z</time></trkpt><trkpt lat="42.1526741" lon="13.4966742"><ele>1432.0</ele><time>2026-04-10T09:22:13.634Z</time></trkpt><trkpt lat="42.1527563" lon="13.4965603"><ele>1433.0</ele><time>2026-04-10T09:22:14.633Z</time></trkpt><trkpt lat="42.1528425" lon="13.4964544"><ele>1433.0</ele><time>2026-04-10T09:22:15.643Z</time></trkpt><trkpt lat="42.1529043" lon="13.496336"><ele>1433.0</ele><time>2026-04-10T09:22:16.638Z</time></trkpt><trkpt lat="42.15294" lon="13.4962483"><ele>1433.0</ele><time>2026-04-10T09:22:17.645Z</time></trkpt><trkpt lat="42.1529695" lon="13.4961384"><ele>1433.0</ele><time>2026-04-10T09:22:18.633Z</time></trkpt><trkpt lat="42.1529873" lon="13.4960213"><ele>1433.0</ele><time>2026-04-10T09:22:19.638Z</time></trkpt><trkpt lat="42.153025" lon="13.4959098"><ele>1433.0</ele><time>2026-04-10T09:22:20.637Z</time></trkpt><trkpt lat="42.1530601" lon="13.4957516"><ele>1433.5</ele><time>2026-04-10T09:22:21.629Z</time></trkpt><trkpt lat="42.1531176" lon="13.4955869"><ele>1434.0</ele><time>2026-04-10T09:22:22.638Z</time></trkpt><trkpt lat="42.1531659" lon="13.4954243"><ele>1434.5</ele><time>2026-04-10T09:22:23.642Z</time></trkpt><trkpt lat="42.1532243" lon="13.4952499"><ele>1435.0</ele><time>2026-04-10T09:22:24.645Z</time></trkpt><trkpt lat="42.1532692" lon="13.4951033"><ele>1435.2</ele><time>2026-04-10T09:22:25.65Z</time></trkpt><trkpt lat="42.1533276" lon="13.4949689"><ele>1435.4</ele><time>2026-04-10T09:22:26.644Z</time></trkpt><trkpt lat="42.1533805" lon="13.4948356"><ele>1435.6</ele><time>2026-04-10T09:22:27.644Z</time></trkpt><trkpt lat="42.1534404" lon="13.494702"><ele>1435.8</ele><time>2026-04-10T09:22:28.624Z</time></trkpt><trkpt lat="42.1534856" lon="13.49459"><ele>1436.0</ele><time>2026-04-10T09:22:29.632Z</time></trkpt><trkpt lat="42.1534916" lon="13.4944522"><ele>1436.0</ele><time>2026-04-10T09:22:30.636Z</time></trkpt><trkpt lat="42.1534837" lon="13.4943285"><ele>1436.0</ele><time>2026-04-10T09:22:31.634Z</time></trkpt><trkpt lat="42.1534276" lon="13.494232"><ele>1436.0</ele><time>2026-04-10T09:22:32.62Z</time></trkpt><trkpt lat="42.1533278" lon="13.4940998"><ele>1436.0</ele><time>2026-04-10T09:22:33.622Z</time></trkpt><trkpt lat="42.1532552" lon="13.494009"><ele>1436.0</ele><time>2026-04-10T09:22:34.618Z</time></trkpt><trkpt lat="42.1532246" lon="13.4939159"><ele>1437.5</ele><time>2026-04-10T09:22:35.627Z</time></trkpt><trkpt lat="42.1531884" lon="13.4938121"><ele>1439.0</ele><time>2026-04-10T09:22:40.648Z</time></trkpt><trkpt lat="42.1531765" lon="13.4937261"><ele>1440.5</ele><time>2026-04-10T09:22:45.66Z</time></trkpt><trkpt lat="42.1531538" lon="13.4936181"><ele>1442.0</ele><time>2026-04-10T09:22:50.642Z</time></trkpt><trkpt lat="42.1531306" lon="13.4935167"><ele>1443.5</ele><time>2026-04-10T09:22:52.642Z</time></trkpt><trkpt lat="42.1531112" lon="13.4934345"><ele>1445.0</ele><time>2026-04-10T09:22:53.636Z</time></trkpt><trkpt lat="42.1530659" lon="13.4932917"><ele>1445.5</ele><time>2026-04-10T09:22:54.634Z</time></trkpt><trkpt lat="42.1530238" lon="13.4931579"><ele>1446.0</ele><time>2026-04-10T09:22:55.641Z</time></trkpt><trkpt lat="42.1529716" lon="13.4930021"><ele>1446.5</ele><time>2026-04-10T09:22:56.639Z</time></trkpt><trkpt lat="42.1529165" lon="13.4928371"><ele>1447.0</ele><time>2026-04-10T09:22:57.641Z</time></trkpt><trkpt lat="42.1528711" lon="13.4926876"><ele>1447.5</ele><time>2026-04-10T09:22:58.628Z</time></trkpt><trkpt lat="42.1528266" lon="13.4925494"><ele>1448.0</ele><time>2026-04-10T09:22:59.636Z</time></trkpt><trkpt lat="42.152774" lon="13.4923949"><ele>1448.5</ele><time>2026-04-10T09:23:00.637Z</time></trkpt><trkpt lat="42.1527344" lon="13.4922429"><ele>1449.0</ele><time>2026-04-10T09:23:01.641Z</time></trkpt><trkpt lat="42.1527133" lon="13.4921154"><ele>1450.0</ele><time>2026-04-10T09:23:02.637Z</time></trkpt><trkpt lat="42.1526954" lon="13.4920052"><ele>1451.0</ele><time>2026-04-10T09:23:03.635Z</time></trkpt><trkpt lat="42.1526935" lon="13.4919171"><ele>1452.0</ele><time>2026-04-10T09:23:04.632Z</time></trkpt><trkpt lat="42.1527249" lon="13.4918146"><ele>1453.0</ele><time>2026-04-10T09:23:05.639Z</time></trkpt><trkpt lat="42.1527918" lon="13.4917129"><ele>1454.0</ele><time>2026-04-10T09:23:06.639Z</time></trkpt><trkpt lat="42.1528811" lon="13.4916421"><ele>1455.0</ele><time>2026-04-10T09:23:07.636Z</time></trkpt><trkpt lat="42.1529631" lon="13.4916009"><ele>1455.0</ele><time>2026-04-10T09:23:08.636Z</time></trkpt><trkpt lat="42.1530506" lon="13.4915772"><ele>1455.0</ele><time>2026-04-10T09:23:09.634Z</time></trkpt><trkpt lat="42.1531522" lon="13.4916205"><ele>1455.0</ele><time>2026-04-10T09:23:10.65Z</time></trkpt><trkpt lat="42.1532475" lon="13.4917073"><ele>1455.0</ele><time>2026-04-10T09:23:11.647Z</time></trkpt><trkpt lat="42.1533343" lon="13.491789"><ele>1455.0</ele><time>2026-04-10T09:23:12.643Z</time></trkpt><trkpt lat="42.1534083" lon="13.4918903"><ele>1453.6</ele><time>2026-04-10T09:23:13.645Z</time></trkpt><trkpt lat="42.1534642" lon="13.4919558"><ele>1452.2</ele><time>2026-04-10T09:23:14.644Z</time></trkpt><trkpt lat="42.1535382" lon="13.4919823"><ele>1450.8000000000002</ele><time>2026-04-10T09:23:15.641Z</time></trkpt><trkpt lat="42.1536293" lon="13.4919728"><ele>1449.4</ele><time>2026-04-10T09:23:16.647Z</time></trkpt><trkpt lat="42.1537226" lon="13.4919144"><ele>1448.0</ele><time>2026-04-10T09:23:17.65Z</time></trkpt><trkpt lat="42.1538046" lon="13.4918254"><ele>1448.0</ele><time>2026-04-10T09:23:18.644Z</time></trkpt><trkpt lat="42.1538701" lon="13.4917335"><ele>1448.0</ele><time>2026-04-10T09:23:19.644Z</time></trkpt><trkpt lat="42.1539083" lon="13.4916368"><ele>1448.0</ele><time>2026-04-10T09:23:20.641Z</time></trkpt><trkpt lat="42.1539271" lon="13.4915407"><ele>1448.0</ele><time>2026-04-10T09:23:21.642Z</time></trkpt><trkpt lat="42.1539245" lon="13.491449"><ele>1448.0</ele><time>2026-04-10T09:23:22.625Z</time></trkpt><trkpt lat="42.1538696" lon="13.4913831"><ele>1448.0</ele><time>2026-04-10T09:23:23.634Z</time></trkpt><trkpt lat="42.1537876" lon="13.491316"><ele>1449.8000000000002</ele><time>2026-04-10T09:23:24.64Z</time></trkpt><trkpt lat="42.1537011" lon="13.4912347"><ele>1451.6</ele><time>2026-04-10T09:23:25.642Z</time></trkpt><trkpt lat="42.1536239" lon="13.4911365"><ele>1453.4</ele><time>2026-04-10T09:23:26.645Z</time></trkpt><trkpt lat="42.1535649" lon="13.4910528"><ele>1455.1999999999998</ele><time>2026-04-10T09:23:27.648Z</time></trkpt><trkpt lat="42.15351" lon="13.4909534"><ele>1457.0</ele><time>2026-04-10T09:23:28.639Z</time></trkpt><trkpt lat="42.1534722" lon="13.4908534"><ele>1457.0</ele><time>2026-04-10T09:23:29.661Z</time></trkpt><trkpt lat="42.1534464" lon="13.4907421"><ele>1457.0</ele><time>2026-04-10T09:23:30.645Z</time></trkpt><trkpt lat="42.1534288" lon="13.4906142"><ele>1457.0</ele><time>2026-04-10T09:23:31.636Z</time></trkpt><trkpt lat="42.1534284" lon="13.4904873"><ele>1457.0</ele><time>2026-04-10T09:23:32.643Z</time></trkpt><trkpt lat="42.1534498" lon="13.4903489"><ele>1457.0</ele><time>2026-04-10T09:23:33.629Z</time></trkpt><trkpt lat="42.1535058" lon="13.490214"><ele>1459.3999999999999</ele><time>2026-04-10T09:23:34.63Z</time></trkpt><trkpt lat="42.1535851" lon="13.4901303"><ele>1461.8</ele><time>2026-04-10T09:23:35.63Z</time></trkpt><trkpt lat="42.1536709" lon="13.490063"><ele>1464.2</ele><time>2026-04-10T09:23:36.628Z</time></trkpt><trkpt lat="42.1537784" lon="13.4900402"><ele>1466.6</ele><time>2026-04-10T09:23:37.625Z</time></trkpt><trkpt lat="42.1538834" lon="13.4900563"><ele>1469.0</ele><time>2026-04-10T09:23:38.621Z</time></trkpt><trkpt lat="42.1539899" lon="13.4900896"><ele>1469.75</ele><time>2026-04-10T09:23:39.624Z</time></trkpt><trkpt lat="42.1540835" lon="13.4902016"><ele>1470.5</ele><time>2026-04-10T09:23:40.629Z</time></trkpt><trkpt lat="42.1541768" lon="13.4903523"><ele>1471.25</ele><time>2026-04-10T09:23:41.635Z</time></trkpt><trkpt lat="42.1542557" lon="13.4904906"><ele>1472.0</ele><time>2026-04-10T09:23:42.639Z</time></trkpt><trkpt lat="42.1543337" lon="13.4906036"><ele>1469.3333333333335</ele><time>2026-04-10T09:23:43.637Z</time></trkpt><trkpt lat="42.1543951" lon="13.4907033"><ele>1466.6666666666667</ele><time>2026-04-10T09:23:44.633Z</time></trkpt><trkpt lat="42.1544451" lon="13.4907678"><ele>1464.0</ele><time>2026-04-10T09:23:45.632Z</time></trkpt><trkpt lat="42.1545139" lon="13.4907974"><ele>1461.3333333333333</ele><time>2026-04-10T09:23:46.633Z</time></trkpt><trkpt lat="42.1545907" lon="13.490787"><ele>1458.6666666666665</ele><time>2026-04-10T09:23:47.643Z</time></trkpt><trkpt lat="42.1546556" lon="13.4907342"><ele>1456.0</ele><time>2026-04-10T09:23:48.644Z</time></trkpt><trkpt lat="42.154707" lon="13.4906668"><ele>1456.0</ele><time>2026-04-10T09:23:49.632Z</time></trkpt><trkpt lat="42.1547309" lon="13.4905632"><ele>1456.0</ele><time>2026-04-10T09:23:50.63Z</time></trkpt><trkpt lat="42.1547345" lon="13.4904681"><ele>1456.0</ele><time>2026-04-10T09:23:51.616Z</time></trkpt><trkpt lat="42.1546869" lon="13.4903944"><ele>1456.0</ele><time>2026-04-10T09:23:52.619Z</time></trkpt><trkpt lat="42.1546087" lon="13.4903332"><ele>1456.0</ele><time>2026-04-10T09:23:53.617Z</time></trkpt><trkpt lat="42.1544826" lon="13.4902586"><ele>1460.0</ele><time>2026-04-10T09:23:54.619Z</time></trkpt><trkpt lat="42.1543768" lon="13.4901885"><ele>1464.0</ele><time>2026-04-10T09:23:55.619Z</time></trkpt><trkpt lat="42.1542516" lon="13.4901389"><ele>1468.0</ele><time>2026-04-10T09:23:56.615Z</time></trkpt><trkpt lat="42.1541664" lon="13.4900857"><ele>1472.0</ele><time>2026-04-10T09:23:57.618Z</time></trkpt><trkpt lat="42.1540686" lon="13.4900127"><ele>1471.25</ele><time>2026-04-10T09:23:58.609Z</time></trkpt><trkpt lat="42.1539601" lon="13.4899027"><ele>1470.5</ele><time>2026-04-10T09:23:59.624Z</time></trkpt><trkpt lat="42.1538349" lon="13.4897576"><ele>1469.75</ele><time>2026-04-10T09:24:00.627Z</time></trkpt><trkpt lat="42.1537149" lon="13.4896413"><ele>1469.0</ele><time>2026-04-10T09:24:01.627Z</time></trkpt><trkpt lat="42.1536048" lon="13.4895344"><ele>1470.2</ele><time>2026-04-10T09:24:02.628Z</time></trkpt><trkpt lat="42.1535046" lon="13.4894656"><ele>1471.4</ele><time>2026-04-10T09:24:03.622Z</time></trkpt><trkpt lat="42.1534052" lon="13.4893942"><ele>1472.6</ele><time>2026-04-10T09:24:04.62Z</time></trkpt><trkpt lat="42.1533064" lon="13.4893376"><ele>1473.8</ele><time>2026-04-10T09:24:05.622Z</time></trkpt><trkpt lat="42.1532328" lon="13.4893013"><ele>1475.0</ele><time>2026-04-10T09:24:06.62Z</time></trkpt><trkpt lat="42.1531399" lon="13.4893065"><ele>1475.0</ele><time>2026-04-10T09:24:07.624Z</time></trkpt><trkpt lat="42.1530705" lon="13.4892798"><ele>1475.0</ele><time>2026-04-10T09:24:08.621Z</time></trkpt><trkpt lat="42.1529747" lon="13.4893264"><ele>1475.0</ele><time>2026-04-10T09:24:09.623Z</time></trkpt><trkpt lat="42.1528735" lon="13.4891998"><ele>1475.0</ele><time>2026-04-10T09:24:11.625Z</time></trkpt><trkpt lat="42.1528072" lon="13.4891394"><ele>1475.0</ele><time>2026-04-10T09:24:12.631Z</time></trkpt><trkpt lat="42.1527654" lon="13.4890633"><ele>1475.0</ele><time>2026-04-10T09:24:13.628Z</time></trkpt><trkpt lat="42.1527461" lon="13.488943"><ele>1475.0</ele><time>2026-04-10T09:24:14.64Z</time></trkpt><trkpt lat="42.152769" lon="13.4887986"><ele>1475.0</ele><time>2026-04-10T09:24:15.642Z</time></trkpt><trkpt lat="42.1527839" lon="13.4886654"><ele>1475.0</ele><time>2026-04-10T09:24:16.643Z</time></trkpt><trkpt lat="42.1528149" lon="13.4885293"><ele>1475.0</ele><time>2026-04-10T09:24:17.645Z</time></trkpt><trkpt lat="42.1528172" lon="13.4883952"><ele>1477.0</ele><time>2026-04-10T09:24:18.639Z</time></trkpt><trkpt lat="42.1528026" lon="13.4882884"><ele>1479.0</ele><time>2026-04-10T09:24:19.633Z</time></trkpt><trkpt lat="42.1527638" lon="13.4881933"><ele>1481.0</ele><time>2026-04-10T09:24:20.627Z</time></trkpt><trkpt lat="42.1527076" lon="13.4881097"><ele>1483.0</ele><time>2026-04-10T09:24:21.624Z</time></trkpt><trkpt lat="42.1526408" lon="13.4880422"><ele>1485.0</ele><time>2026-04-10T09:24:22.621Z</time></trkpt><trkpt lat="42.1526018" lon="13.4879411"><ele>1487.0</ele><time>2026-04-10T09:24:23.619Z</time></trkpt><trkpt lat="42.1525772" lon="13.4878356"><ele>1488.5</ele><time>2026-04-10T09:24:24.618Z</time></trkpt><trkpt lat="42.1525997" lon="13.4877304"><ele>1490.0</ele><time>2026-04-10T09:24:25.628Z</time></trkpt><trkpt lat="42.1526505" lon="13.4876443"><ele>1491.5</ele><time>2026-04-10T09:24:26.63Z</time></trkpt><trkpt lat="42.1527158" lon="13.4875928"><ele>1493.0</ele><time>2026-04-10T09:24:27.627Z</time></trkpt><trkpt lat="42.1527886" lon="13.4875865"><ele>1494.5</ele><time>2026-04-10T09:24:28.629Z</time></trkpt><trkpt lat="42.1528702" lon="13.4876043"><ele>1496.0</ele><time>2026-04-10T09:24:29.634Z</time></trkpt><trkpt lat="42.1529535" lon="13.487674"><ele>1496.0</ele><time>2026-04-10T09:24:30.638Z</time></trkpt><trkpt lat="42.1530326" lon="13.4877727"><ele>1496.0</ele><time>2026-04-10T09:24:31.627Z</time></trkpt><trkpt lat="42.1531003" lon="13.4878786"><ele>1496.0</ele><time>2026-04-10T09:24:32.63Z</time></trkpt><trkpt lat="42.1531952" lon="13.4879932"><ele>1496.0</ele><time>2026-04-10T09:24:33.637Z</time></trkpt><trkpt lat="42.1532505" lon="13.4881436"><ele>1496.0</ele><time>2026-04-10T09:24:34.629Z</time></trkpt><trkpt lat="42.1532924" lon="13.4882894"><ele>1496.0</ele><time>2026-04-10T09:24:35.633Z</time></trkpt><trkpt lat="42.1533408" lon="13.4884163"><ele>1496.0</ele><time>2026-04-10T09:24:36.631Z</time></trkpt><trkpt lat="42.1533917" lon="13.4885608"><ele>1496.0</ele><time>2026-04-10T09:24:37.639Z</time></trkpt><trkpt lat="42.1534544" lon="13.4886704"><ele>1496.0</ele><time>2026-04-10T09:24:38.636Z</time></trkpt><trkpt lat="42.1535378" lon="13.4887685"><ele>1492.5</ele><time>2026-04-10T09:24:39.633Z</time></trkpt><trkpt lat="42.1536335" lon="13.4888376"><ele>1489.0</ele><time>2026-04-10T09:24:40.635Z</time></trkpt><trkpt lat="42.1537382" lon="13.4889015"><ele>1485.5</ele><time>2026-04-10T09:24:41.641Z</time></trkpt><trkpt lat="42.1538381" lon="13.4889801"><ele>1482.0</ele><time>2026-04-10T09:24:42.639Z</time></trkpt><trkpt lat="42.1539408" lon="13.4890413"><ele>1485.0</ele><time>2026-04-10T09:24:43.642Z</time></trkpt><trkpt lat="42.1540454" lon="13.4890771"><ele>1488.0</ele><time>2026-04-10T09:24:44.631Z</time></trkpt><trkpt lat="42.1541597" lon="13.4890588"><ele>1491.0</ele><time>2026-04-10T09:24:45.635Z</time></trkpt><trkpt lat="42.1542806" lon="13.4890175"><ele>1494.0</ele><time>2026-04-10T09:24:46.629Z</time></trkpt><trkpt lat="42.1543963" lon="13.4889851"><ele>1494.0</ele><time>2026-04-10T09:24:47.635Z</time></trkpt><trkpt lat="42.1545035" lon="13.4889812"><ele>1494.0</ele><time>2026-04-10T09:24:48.625Z</time></trkpt><trkpt lat="42.1546176" lon="13.488982"><ele>1494.0</ele><time>2026-04-10T09:24:49.631Z</time></trkpt><trkpt lat="42.1547289" lon="13.4890043"><ele>1494.0</ele><time>2026-04-10T09:24:50.63Z</time></trkpt><trkpt lat="42.1548297" lon="13.4890671"><ele>1494.0</ele><time>2026-04-10T09:24:51.632Z</time></trkpt><trkpt lat="42.1549304" lon="13.4891543"><ele>1497.25</ele><time>2026-04-10T09:24:52.629Z</time></trkpt><trkpt lat="42.1550343" lon="13.4892305"><ele>1500.5</ele><time>2026-04-10T09:24:53.631Z</time></trkpt><trkpt lat="42.1551446" lon="13.4892972"><ele>1503.75</ele><time>2026-04-10T09:24:54.624Z</time></trkpt><trkpt lat="42.155248" lon="13.4893318"><ele>1507.0</ele><time>2026-04-10T09:24:55.621Z</time></trkpt><trkpt lat="42.1553572" lon="13.4893387"><ele>1507.0</ele><time>2026-04-10T09:24:56.622Z</time></trkpt><trkpt lat="42.1554728" lon="13.4893488"><ele>1507.0</ele><time>2026-04-10T09:24:57.624Z</time></trkpt><trkpt lat="42.1555953" lon="13.4893618"><ele>1507.0</ele><time>2026-04-10T09:24:58.635Z</time></trkpt><trkpt lat="42.1556987" lon="13.4893919"><ele>1507.0</ele><time>2026-04-10T09:24:59.637Z</time></trkpt><trkpt lat="42.1558005" lon="13.4894349"><ele>1510.0</ele><time>2026-04-10T09:25:00.641Z</time></trkpt><trkpt lat="42.1559541" lon="13.4894566"><ele>1513.0</ele><time>2026-04-10T09:25:01.631Z</time></trkpt><trkpt lat="42.1560973" lon="13.4894581"><ele>1516.0</ele><time>2026-04-10T09:25:02.628Z</time></trkpt><trkpt lat="42.1562355" lon="13.4894392"><ele>1519.0</ele><time>2026-04-10T09:25:03.633Z</time></trkpt><trkpt lat="42.1563591" lon="13.4894063"><ele>1519.0</ele><time>2026-04-10T09:25:04.632Z</time></trkpt><trkpt lat="42.1564814" lon="13.4893649"><ele>1519.0</ele><time>2026-04-10T09:25:05.627Z</time></trkpt><trkpt lat="42.1566207" lon="13.4893156"><ele>1519.0</ele><time>2026-04-10T09:25:06.631Z</time></trkpt><trkpt lat="42.156747" lon="13.4892761"><ele>1519.0</ele><time>2026-04-10T09:25:07.63Z</time></trkpt><trkpt lat="42.1568558" lon="13.489245"><ele>1520.25</ele><time>2026-04-10T09:25:08.63Z</time></trkpt><trkpt lat="42.1569765" lon="13.4892093"><ele>1521.5</ele><time>2026-04-10T09:25:09.628Z</time></trkpt><trkpt lat="42.1570997" lon="13.4891669"><ele>1522.75</ele><time>2026-04-10T09:25:10.627Z</time></trkpt><trkpt lat="42.1572186" lon="13.489129"><ele>1524.0</ele><time>2026-04-10T09:25:11.627Z</time></trkpt><trkpt lat="42.157338" lon="13.4890716"><ele>1523.5</ele><time>2026-04-10T09:25:12.628Z</time></trkpt><trkpt lat="42.1574641" lon="13.4890214"><ele>1523.0</ele><time>2026-04-10T09:25:13.619Z</time></trkpt><trkpt lat="42.1575806" lon="13.4889818"><ele>1522.5</ele><time>2026-04-10T09:25:14.632Z</time></trkpt><trkpt lat="42.1577041" lon="13.4889433"><ele>1522.0</ele><time>2026-04-10T09:25:15.622Z</time></trkpt><trkpt lat="42.1578124" lon="13.4889244"><ele>1522.0</ele><time>2026-04-10T09:25:16.621Z</time></trkpt><trkpt lat="42.1579363" lon="13.4888909"><ele>1522.0</ele><time>2026-04-10T09:25:17.627Z</time></trkpt><trkpt lat="42.1580572" lon="13.4888682"><ele>1522.0</ele><time>2026-04-10T09:25:18.622Z</time></trkpt><trkpt lat="42.1581837" lon="13.4888257"><ele>1522.0</ele><time>2026-04-10T09:25:19.62Z</time></trkpt><trkpt lat="42.1583088" lon="13.488795"><ele>1521.25</ele><time>2026-04-10T09:25:20.615Z</time></trkpt><trkpt lat="42.1584351" lon="13.4887672"><ele>1520.5</ele><time>2026-04-10T09:25:21.622Z</time></trkpt><trkpt lat="42.158562" lon="13.4887554"><ele>1519.75</ele><time>2026-04-10T09:25:22.626Z</time></trkpt><trkpt lat="42.1587147" lon="13.4887322"><ele>1519.0</ele><time>2026-04-10T09:25:23.628Z</time></trkpt><trkpt lat="42.1588687" lon="13.4886877"><ele>1529.0</ele><time>2026-04-10T09:25:24.627Z</time></trkpt><trkpt lat="42.1590309" lon="13.4886416"><ele>1539.0</ele><time>2026-04-10T09:25:25.626Z</time></trkpt><trkpt lat="42.1591653" lon="13.4885858"><ele>1549.0</ele><time>2026-04-10T09:25:26.625Z</time></trkpt><trkpt lat="42.1593159" lon="13.4885672"><ele>1549.0</ele><time>2026-04-10T09:25:27.625Z</time></trkpt><trkpt lat="42.1594735" lon="13.4884895"><ele>1549.0</ele><time>2026-04-10T09:25:28.625Z</time></trkpt><trkpt lat="42.1596205" lon="13.4884373"><ele>1549.0</ele><time>2026-04-10T09:25:29.631Z</time></trkpt><trkpt lat="42.1597471" lon="13.4883552"><ele>1548.5</ele><time>2026-04-10T09:25:30.627Z</time></trkpt><trkpt lat="42.1598807" lon="13.4882845"><ele>1548.0</ele><time>2026-04-10T09:25:31.624Z</time></trkpt><trkpt lat="42.1600066" lon="13.4882346"><ele>1547.5</ele><time>2026-04-10T09:25:32.626Z</time></trkpt><trkpt lat="42.1601371" lon="13.4881869"><ele>1547.0</ele><time>2026-04-10T09:25:33.623Z</time></trkpt><trkpt lat="42.1602791" lon="13.4881462"><ele>1547.0</ele><time>2026-04-10T09:25:34.622Z</time></trkpt><trkpt lat="42.1604426" lon="13.4881232"><ele>1547.0</ele><time>2026-04-10T09:25:35.632Z</time></trkpt><trkpt lat="42.1606099" lon="13.4881055"><ele>1547.0</ele><time>2026-04-10T09:25:36.628Z</time></trkpt><trkpt lat="42.1607869" lon="13.4880778"><ele>1545.5</ele><time>2026-04-10T09:25:37.639Z</time></trkpt><trkpt lat="42.1609572" lon="13.4880205"><ele>1544.0</ele><time>2026-04-10T09:25:38.639Z</time></trkpt><trkpt lat="42.1610773" lon="13.4879776"><ele>1542.5</ele><time>2026-04-10T09:25:39.639Z</time></trkpt><trkpt lat="42.161183" lon="13.4879613"><ele>1541.0</ele><time>2026-04-10T09:25:40.644Z</time></trkpt><trkpt lat="42.1613059" lon="13.487927"><ele>1552.3333333333333</ele><time>2026-04-10T09:25:41.635Z</time></trkpt><trkpt lat="42.1614596" lon="13.487897"><ele>1563.6666666666665</ele><time>2026-04-10T09:25:42.637Z</time></trkpt><trkpt lat="42.1616359" lon="13.4878431"><ele>1575.0</ele><time>2026-04-10T09:25:43.645Z</time></trkpt><trkpt lat="42.1618151" lon="13.4877805"><ele>1575.3333333333335</ele><time>2026-04-10T09:25:44.642Z</time></trkpt><trkpt lat="42.1620014" lon="13.4877262"><ele>1575.6666666666667</ele><time>2026-04-10T09:25:45.645Z</time></trkpt><trkpt lat="42.1621672" lon="13.4876446"><ele>1576.0</ele><time>2026-04-10T09:25:46.636Z</time></trkpt><trkpt lat="42.1623163" lon="13.4875572"><ele>1574.5</ele><time>2026-04-10T09:25:47.64Z</time></trkpt><trkpt lat="42.1624666" lon="13.4874629"><ele>1573.0</ele><time>2026-04-10T09:25:48.637Z</time></trkpt><trkpt lat="42.1625918" lon="13.4873753"><ele>1571.5</ele><time>2026-04-10T09:25:49.637Z</time></trkpt><trkpt lat="42.162694" lon="13.4873097"><ele>1570.0</ele><time>2026-04-10T09:25:50.631Z</time></trkpt><trkpt lat="42.1628068" lon="13.4872526"><ele>1570.0</ele><time>2026-04-10T09:25:51.624Z</time></trkpt><trkpt lat="42.1629181" lon="13.4872262"><ele>1570.0</ele><time>2026-04-10T09:25:52.616Z</time></trkpt><trkpt lat="42.1630544" lon="13.4872446"><ele>1570.0</ele><time>2026-04-10T09:25:53.617Z</time></trkpt><trkpt lat="42.1631998" lon="13.487299"><ele>1570.0</ele><time>2026-04-10T09:25:54.621Z</time></trkpt><trkpt lat="42.1633478" lon="13.4873715"><ele>1570.2</ele><time>2026-04-10T09:25:55.623Z</time></trkpt><trkpt lat="42.1634704" lon="13.4874509"><ele>1570.4</ele><time>2026-04-10T09:25:56.629Z</time></trkpt><trkpt lat="42.1635665" lon="13.4875114"><ele>1570.6</ele><time>2026-04-10T09:25:57.637Z</time></trkpt><trkpt lat="42.163669" lon="13.4875406"><ele>1570.8</ele><time>2026-04-10T09:25:58.642Z</time></trkpt><trkpt lat="42.1637671" lon="13.4875359"><ele>1571.0</ele><time>2026-04-10T09:25:59.64Z</time></trkpt><trkpt lat="42.1638599" lon="13.4874855"><ele>1571.0</ele><time>2026-04-10T09:26:00.645Z</time></trkpt><trkpt lat="42.1639472" lon="13.487397"><ele>1571.0</ele><time>2026-04-10T09:26:01.639Z</time></trkpt><trkpt lat="42.1640307" lon="13.4872872"><ele>1571.0</ele><time>2026-04-10T09:26:02.628Z</time></trkpt><trkpt lat="42.1641084" lon="13.4871619"><ele>1571.0</ele><time>2026-04-10T09:26:03.634Z</time></trkpt><trkpt lat="42.1641774" lon="13.4870298"><ele>1573.8</ele><time>2026-04-10T09:26:04.635Z</time></trkpt><trkpt lat="42.1642333" lon="13.4869036"><ele>1576.6</ele><time>2026-04-10T09:26:05.619Z</time></trkpt><trkpt lat="42.1642859" lon="13.4867808"><ele>1579.4</ele><time>2026-04-10T09:26:06.611Z</time></trkpt><trkpt lat="42.1643414" lon="13.4866713"><ele>1582.2</ele><time>2026-04-10T09:26:07.606Z</time></trkpt><trkpt lat="42.1644202" lon="13.486597"><ele>1585.0</ele><time>2026-04-10T09:26:08.612Z</time></trkpt><trkpt lat="42.164498" lon="13.4865114"><ele>1585.0</ele><time>2026-04-10T09:26:09.617Z</time></trkpt><trkpt lat="42.1645872" lon="13.4864354"><ele>1585.0</ele><time>2026-04-10T09:26:10.613Z</time></trkpt><trkpt lat="42.164693" lon="13.4863901"><ele>1585.0</ele><time>2026-04-10T09:26:11.618Z</time></trkpt><trkpt lat="42.1648068" lon="13.4863508"><ele>1585.0</ele><time>2026-04-10T09:26:12.617Z</time></trkpt><trkpt lat="42.164932" lon="13.4863025"><ele>1585.5</ele><time>2026-04-10T09:26:13.623Z</time></trkpt><trkpt lat="42.1650534" lon="13.4862544"><ele>1586.0</ele><time>2026-04-10T09:26:14.621Z</time></trkpt><trkpt lat="42.1651833" lon="13.48622"><ele>1586.5</ele><time>2026-04-10T09:26:15.618Z</time></trkpt><trkpt lat="42.1653186" lon="13.4861908"><ele>1587.0</ele><time>2026-04-10T09:26:16.633Z</time></trkpt><trkpt lat="42.1654213" lon="13.4861389"><ele>1587.0</ele><time>2026-04-10T09:26:17.636Z</time></trkpt><trkpt lat="42.1655012" lon="13.4860643"><ele>1587.0</ele><time>2026-04-10T09:26:18.634Z</time></trkpt><trkpt lat="42.1655557" lon="13.4859878"><ele>1587.0</ele><time>2026-04-10T09:26:19.64Z</time></trkpt><trkpt lat="42.1655774" lon="13.4858632"><ele>1587.0</ele><time>2026-04-10T09:26:21.648Z</time></trkpt><trkpt lat="42.1655102" lon="13.4858872"><ele>1587.0</ele><time>2026-04-10T09:28:08.685Z</time></trkpt><trkpt lat="42.1655832" lon="13.4858333"><ele>1587.0</ele><time>2026-04-10T09:30:36.653Z</time></trkpt><trkpt lat="42.1656488" lon="13.4857615"><ele>1585.5</ele><time>2026-04-10T09:30:38.655Z</time></trkpt><trkpt lat="42.1657312" lon="13.4857137"><ele>1584.0</ele><time>2026-04-10T09:30:40.653Z</time></trkpt><trkpt lat="42.1658271" lon="13.4857021"><ele>1582.5</ele><time>2026-04-10T09:30:42.642Z</time></trkpt><trkpt lat="42.1658957" lon="13.4856616"><ele>1581.0</ele><time>2026-04-10T09:30:44.655Z</time></trkpt><trkpt lat="42.1659346" lon="13.4855914"><ele>1579.5</ele><time>2026-04-10T09:30:46.655Z</time></trkpt><trkpt lat="42.1659621" lon="13.485514"><ele>1578.0</ele><time>2026-04-10T09:30:48.657Z</time></trkpt><trkpt lat="42.1659871" lon="13.485424"><ele>1577.0</ele><time>2026-04-10T09:31:34.646Z</time></trkpt><trkpt lat="42.1660618" lon="13.4853554"><ele>1576.0</ele><time>2026-04-10T09:31:36.639Z</time></trkpt><trkpt lat="42.16613" lon="13.4852848"><ele>1575.0</ele><time>2026-04-10T09:31:37.636Z</time></trkpt><trkpt lat="42.1662216" lon="13.4851746"><ele>1574.0</ele><time>2026-04-10T09:31:38.628Z</time></trkpt><trkpt lat="42.1663177" lon="13.4850553"><ele>1573.0</ele><time>2026-04-10T09:31:39.636Z</time></trkpt><trkpt lat="42.1664152" lon="13.4849309"><ele>1573.0</ele><time>2026-04-10T09:31:40.635Z</time></trkpt><trkpt lat="42.1665103" lon="13.4848146"><ele>1573.0</ele><time>2026-04-10T09:31:41.635Z</time></trkpt><trkpt lat="42.166608" lon="13.4846956"><ele>1573.0</ele><time>2026-04-10T09:31:42.634Z</time></trkpt><trkpt lat="42.1667013" lon="13.4845799"><ele>1573.0</ele><time>2026-04-10T09:31:43.642Z</time></trkpt><trkpt lat="42.1667824" lon="13.4844787"><ele>1569.2</ele><time>2026-04-10T09:31:44.641Z</time></trkpt><trkpt lat="42.1668558" lon="13.4843924"><ele>1565.4</ele><time>2026-04-10T09:31:45.644Z</time></trkpt><trkpt lat="42.1669271" lon="13.4843102"><ele>1561.6000000000001</ele><time>2026-04-10T09:31:46.644Z</time></trkpt><trkpt lat="42.1670036" lon="13.4842276"><ele>1557.8000000000002</ele><time>2026-04-10T09:31:47.647Z</time></trkpt><trkpt lat="42.1670693" lon="13.4841461"><ele>1554.0</ele><time>2026-04-10T09:31:48.645Z</time></trkpt><trkpt lat="42.1671361" lon="13.484075"><ele>1554.0</ele><time>2026-04-10T09:31:49.647Z</time></trkpt><trkpt lat="42.1672144" lon="13.4840168"><ele>1554.0</ele><time>2026-04-10T09:31:50.649Z</time></trkpt><trkpt lat="42.1672894" lon="13.4839733"><ele>1554.0</ele><time>2026-04-10T09:31:51.651Z</time></trkpt><trkpt lat="42.1673709" lon="13.4839195"><ele>1554.0</ele><time>2026-04-10T09:31:52.653Z</time></trkpt><trkpt lat="42.1674511" lon="13.4838673"><ele>1554.0</ele><time>2026-04-10T09:31:53.649Z</time></trkpt><trkpt lat="42.1675258" lon="13.4837944"><ele>1554.0</ele><time>2026-04-10T09:31:54.65Z</time></trkpt><trkpt lat="42.1676021" lon="13.483716"><ele>1553.1666666666667</ele><time>2026-04-10T09:31:55.649Z</time></trkpt><trkpt lat="42.167676" lon="13.4836512"><ele>1552.3333333333335</ele><time>2026-04-10T09:31:56.656Z</time></trkpt><trkpt lat="42.1677484" lon="13.4835901"><ele>1551.5</ele><time>2026-04-10T09:31:57.647Z</time></trkpt><trkpt lat="42.1678093" lon="13.4835218"><ele>1550.6666666666667</ele><time>2026-04-10T09:31:58.641Z</time></trkpt><trkpt lat="42.1678674" lon="13.4834561"><ele>1549.8333333333335</ele><time>2026-04-10T09:31:59.641Z</time></trkpt><trkpt lat="42.1679109" lon="13.4833414"><ele>1549.0</ele><time>2026-04-10T09:32:01.648Z</time></trkpt><trkpt lat="42.1679858" lon="13.483289"><ele>1549.0</ele><time>2026-04-10T09:32:03.645Z</time></trkpt><trkpt lat="42.1681014" lon="13.4832565"><ele>1549.0</ele><time>2026-04-10T09:32:05.643Z</time></trkpt><trkpt lat="42.1682015" lon="13.4832304"><ele>1549.0</ele><time>2026-04-10T09:32:07.642Z</time></trkpt><trkpt lat="42.1682741" lon="13.4831406"><ele>1549.0</ele><time>2026-04-10T09:32:09.634Z</time></trkpt><trkpt lat="42.1683066" lon="13.4830307"><ele>1549.0</ele><time>2026-04-10T09:32:10.635Z</time></trkpt><trkpt lat="42.1683367" lon="13.4829126"><ele>1547.4</ele><time>2026-04-10T09:32:11.635Z</time></trkpt><trkpt lat="42.1683773" lon="13.4827893"><ele>1545.8000000000002</ele><time>2026-04-10T09:32:12.635Z</time></trkpt><trkpt lat="42.16842" lon="13.482674"><ele>1544.1999999999998</ele><time>2026-04-10T09:32:13.634Z</time></trkpt><trkpt lat="42.168466" lon="13.4825581"><ele>1542.6</ele><time>2026-04-10T09:32:14.636Z</time></trkpt><trkpt lat="42.1685041" lon="13.4824435"><ele>1541.0</ele><time>2026-04-10T09:32:15.635Z</time></trkpt><trkpt lat="42.1685401" lon="13.4823211"><ele>1541.0</ele><time>2026-04-10T09:32:16.635Z</time></trkpt><trkpt lat="42.1685948" lon="13.482211"><ele>1541.0</ele><time>2026-04-10T09:32:17.642Z</time></trkpt><trkpt lat="42.1686463" lon="13.482093"><ele>1541.0</ele><time>2026-04-10T09:32:18.638Z</time></trkpt><trkpt lat="42.1686958" lon="13.481999"><ele>1541.0</ele><time>2026-04-10T09:32:19.635Z</time></trkpt><trkpt lat="42.1687606" lon="13.4819129"><ele>1541.0</ele><time>2026-04-10T09:32:20.634Z</time></trkpt><trkpt lat="42.1688242" lon="13.4818449"><ele>1539.8</ele><time>2026-04-10T09:32:21.637Z</time></trkpt><trkpt lat="42.1688912" lon="13.4817702"><ele>1538.6</ele><time>2026-04-10T09:32:22.631Z</time></trkpt><trkpt lat="42.168939" lon="13.4816726"><ele>1537.4</ele><time>2026-04-10T09:32:23.632Z</time></trkpt><trkpt lat="42.1689878" lon="13.4815617"><ele>1536.2</ele><time>2026-04-10T09:32:24.638Z</time></trkpt><trkpt lat="42.1690482" lon="13.4814604"><ele>1535.0</ele><time>2026-04-10T09:32:25.632Z</time></trkpt><trkpt lat="42.1691115" lon="13.4813556"><ele>1532.4</ele><time>2026-04-10T09:32:26.64Z</time></trkpt><trkpt lat="42.1691755" lon="13.4812271"><ele>1529.8</ele><time>2026-04-10T09:32:27.642Z</time></trkpt><trkpt lat="42.1692417" lon="13.4810939"><ele>1527.1999999999998</ele><time>2026-04-10T09:32:28.641Z</time></trkpt><trkpt lat="42.1693018" lon="13.4809605"><ele>1524.6</ele><time>2026-04-10T09:32:29.646Z</time></trkpt><trkpt lat="42.169342" lon="13.4808453"><ele>1522.0</ele><time>2026-04-10T09:32:30.65Z</time></trkpt><trkpt lat="42.1693779" lon="13.4807279"><ele>1522.0</ele><time>2026-04-10T09:32:31.648Z</time></trkpt><trkpt lat="42.1694118" lon="13.480624"><ele>1522.0</ele><time>2026-04-10T09:32:32.646Z</time></trkpt><trkpt lat="42.1694586" lon="13.4805466"><ele>1522.0</ele><time>2026-04-10T09:32:33.639Z</time></trkpt><trkpt lat="42.1695251" lon="13.4804812"><ele>1522.0</ele><time>2026-04-10T09:32:34.647Z</time></trkpt><trkpt lat="42.1696069" lon="13.4804308"><ele>1522.0</ele><time>2026-04-10T09:32:35.645Z</time></trkpt><trkpt lat="42.1697066" lon="13.4803712"><ele>1522.0</ele><time>2026-04-10T09:32:36.642Z</time></trkpt><trkpt lat="42.1698081" lon="13.4803039"><ele>1520.0</ele><time>2026-04-10T09:32:37.644Z</time></trkpt><trkpt lat="42.1699153" lon="13.4802188"><ele>1518.0</ele><time>2026-04-10T09:32:38.644Z</time></trkpt><trkpt lat="42.1700136" lon="13.4801386"><ele>1516.0</ele><time>2026-04-10T09:32:39.653Z</time></trkpt><trkpt lat="42.1701108" lon="13.4800718"><ele>1514.0</ele><time>2026-04-10T09:32:40.652Z</time></trkpt><trkpt lat="42.1702076" lon="13.4800092"><ele>1514.0</ele><time>2026-04-10T09:32:41.654Z</time></trkpt><trkpt lat="42.1703046" lon="13.4799514"><ele>1514.0</ele><time>2026-04-10T09:32:42.654Z</time></trkpt><trkpt lat="42.170399" lon="13.4798867"><ele>1514.0</ele><time>2026-04-10T09:32:43.654Z</time></trkpt><trkpt lat="42.1704911" lon="13.4798044"><ele>1514.0</ele><time>2026-04-10T09:32:44.658Z</time></trkpt><trkpt lat="42.1705863" lon="13.4797285"><ele>1514.0</ele><time>2026-04-10T09:32:45.66Z</time></trkpt><trkpt lat="42.1706822" lon="13.479654"><ele>1514.2</ele><time>2026-04-10T09:32:46.651Z</time></trkpt><trkpt lat="42.1707915" lon="13.4796032"><ele>1514.4</ele><time>2026-04-10T09:32:47.654Z</time></trkpt><trkpt lat="42.1709017" lon="13.479577"><ele>1514.6</ele><time>2026-04-10T09:32:48.652Z</time></trkpt><trkpt lat="42.1710103" lon="13.4795748"><ele>1514.8</ele><time>2026-04-10T09:32:49.655Z</time></trkpt><trkpt lat="42.1711208" lon="13.4795795"><ele>1515.0</ele><time>2026-04-10T09:32:50.655Z</time></trkpt><trkpt lat="42.1712255" lon="13.4795848"><ele>1513.0</ele><time>2026-04-10T09:32:51.663Z</time></trkpt><trkpt lat="42.1713214" lon="13.4795871"><ele>1511.0</ele><time>2026-04-10T09:32:52.658Z</time></trkpt><trkpt lat="42.1714111" lon="13.4795871"><ele>1509.0</ele><time>2026-04-10T09:32:53.664Z</time></trkpt><trkpt lat="42.1715026" lon="13.4795754"><ele>1507.0</ele><time>2026-04-10T09:32:54.668Z</time></trkpt><trkpt lat="42.171599" lon="13.4795666"><ele>1505.0</ele><time>2026-04-10T09:32:55.672Z</time></trkpt><trkpt lat="42.1716993" lon="13.4795752"><ele>1505.6</ele><time>2026-04-10T09:32:56.666Z</time></trkpt><trkpt lat="42.171806" lon="13.4796032"><ele>1506.2</ele><time>2026-04-10T09:32:57.665Z</time></trkpt><trkpt lat="42.1719121" lon="13.4796411"><ele>1506.8000000000002</ele><time>2026-04-10T09:32:58.673Z</time></trkpt><trkpt lat="42.1720138" lon="13.4796833"><ele>1507.4</ele><time>2026-04-10T09:32:59.674Z</time></trkpt><trkpt lat="42.1721129" lon="13.4797244"><ele>1508.0</ele><time>2026-04-10T09:33:00.674Z</time></trkpt><trkpt lat="42.1722207" lon="13.479756"><ele>1508.0</ele><time>2026-04-10T09:33:01.666Z</time></trkpt><trkpt lat="42.1723321" lon="13.4797874"><ele>1508.0</ele><time>2026-04-10T09:33:02.658Z</time></trkpt><trkpt lat="42.172446" lon="13.4798261"><ele>1508.0</ele><time>2026-04-10T09:33:03.659Z</time></trkpt><trkpt lat="42.1725643" lon="13.4798627"><ele>1508.0</ele><time>2026-04-10T09:33:04.65Z</time></trkpt><trkpt lat="42.1726867" lon="13.4799071"><ele>1506.25</ele><time>2026-04-10T09:33:05.652Z</time></trkpt><trkpt lat="42.1728189" lon="13.4799638"><ele>1504.5</ele><time>2026-04-10T09:33:06.649Z</time></trkpt><trkpt lat="42.172958" lon="13.4800337"><ele>1502.75</ele><time>2026-04-10T09:33:07.649Z</time></trkpt><trkpt lat="42.173109" lon="13.4801142"><ele>1501.0</ele><time>2026-04-10T09:33:08.649Z</time></trkpt><trkpt lat="42.173257" lon="13.4802151"><ele>1502.6666666666665</ele><time>2026-04-10T09:33:09.65Z</time></trkpt><trkpt lat="42.1734096" lon="13.4803156"><ele>1504.3333333333333</ele><time>2026-04-10T09:33:10.654Z</time></trkpt><trkpt lat="42.1735709" lon="13.4804362"><ele>1506.0</ele><time>2026-04-10T09:33:11.653Z</time></trkpt><trkpt lat="42.1737177" lon="13.4805559"><ele>1506.0</ele><time>2026-04-10T09:33:12.656Z</time></trkpt><trkpt lat="42.1738652" lon="13.4806616"><ele>1506.0</ele><time>2026-04-10T09:33:13.652Z</time></trkpt><trkpt lat="42.1740187" lon="13.4807628"><ele>1506.0</ele><time>2026-04-10T09:33:14.653Z</time></trkpt><trkpt lat="42.1741554" lon="13.480874"><ele>1505.75</ele><time>2026-04-10T09:33:15.65Z</time></trkpt><trkpt lat="42.1742863" lon="13.4809685"><ele>1505.5</ele><time>2026-04-10T09:33:16.65Z</time></trkpt><trkpt lat="42.1744111" lon="13.4810691"><ele>1505.25</ele><time>2026-04-10T09:33:17.658Z</time></trkpt><trkpt lat="42.1745465" lon="13.4811661"><ele>1505.0</ele><time>2026-04-10T09:33:18.647Z</time></trkpt><trkpt lat="42.1746834" lon="13.4812754"><ele>1505.0</ele><time>2026-04-10T09:33:19.648Z</time></trkpt><trkpt lat="42.1748247" lon="13.481358"><ele>1505.0</ele><time>2026-04-10T09:33:20.642Z</time></trkpt><trkpt lat="42.1749673" lon="13.481441"><ele>1505.0</ele><time>2026-04-10T09:33:21.646Z</time></trkpt><trkpt lat="42.175093" lon="13.4815224"><ele>1505.0</ele><time>2026-04-10T09:33:22.652Z</time></trkpt><trkpt lat="42.1751986" lon="13.481613"><ele>1504.6</ele><time>2026-04-10T09:33:23.646Z</time></trkpt><trkpt lat="42.1752827" lon="13.4817157"><ele>1504.2</ele><time>2026-04-10T09:33:24.644Z</time></trkpt><trkpt lat="42.1753522" lon="13.4818161"><ele>1503.8000000000002</ele><time>2026-04-10T09:33:25.645Z</time></trkpt><trkpt lat="42.175418" lon="13.4819196"><ele>1503.4</ele><time>2026-04-10T09:33:26.651Z</time></trkpt><trkpt lat="42.1754768" lon="13.4820484"><ele>1503.0</ele><time>2026-04-10T09:33:27.647Z</time></trkpt><trkpt lat="42.1755324" lon="13.4821913"><ele>1503.0</ele><time>2026-04-10T09:33:28.651Z</time></trkpt><trkpt lat="42.175586" lon="13.4823331"><ele>1503.0</ele><time>2026-04-10T09:33:29.656Z</time></trkpt><trkpt lat="42.1756383" lon="13.4824727"><ele>1503.0</ele><time>2026-04-10T09:33:30.651Z</time></trkpt><trkpt lat="42.1756948" lon="13.4826126"><ele>1503.0</ele><time>2026-04-10T09:33:31.651Z</time></trkpt><trkpt lat="42.1757554" lon="13.4827409"><ele>1501.6000000000001</ele><time>2026-04-10T09:33:32.643Z</time></trkpt><trkpt lat="42.1758193" lon="13.482844"><ele>1500.2</ele><time>2026-04-10T09:33:33.644Z</time></trkpt><trkpt lat="42.1758851" lon="13.4829262"><ele>1498.8</ele><time>2026-04-10T09:33:34.647Z</time></trkpt><trkpt lat="42.1759558" lon="13.4830109"><ele>1497.4</ele><time>2026-04-10T09:33:35.65Z</time></trkpt><trkpt lat="42.1760271" lon="13.4830912"><ele>1496.0</ele><time>2026-04-10T09:33:36.652Z</time></trkpt><trkpt lat="42.1761111" lon="13.4831681"><ele>1496.0</ele><time>2026-04-10T09:33:37.656Z</time></trkpt><trkpt lat="42.1762025" lon="13.4832454"><ele>1496.0</ele><time>2026-04-10T09:33:38.651Z</time></trkpt><trkpt lat="42.1762912" lon="13.4833245"><ele>1496.0</ele><time>2026-04-10T09:33:39.65Z</time></trkpt><trkpt lat="42.1763846" lon="13.4834062"><ele>1496.0</ele><time>2026-04-10T09:33:40.652Z</time></trkpt><trkpt lat="42.1764766" lon="13.4834821"><ele>1496.0</ele><time>2026-04-10T09:33:41.652Z</time></trkpt><trkpt lat="42.176567" lon="13.4835665"><ele>1495.0</ele><time>2026-04-10T09:33:42.649Z</time></trkpt><trkpt lat="42.176652" lon="13.4836605"><ele>1494.0</ele><time>2026-04-10T09:33:43.646Z</time></trkpt><trkpt lat="42.1767302" lon="13.483772"><ele>1493.0</ele><time>2026-04-10T09:33:44.654Z</time></trkpt><trkpt lat="42.1768078" lon="13.4838847"><ele>1492.0</ele><time>2026-04-10T09:33:45.655Z</time></trkpt><trkpt lat="42.1768803" lon="13.4840052"><ele>1492.0</ele><time>2026-04-10T09:33:46.651Z</time></trkpt><trkpt lat="42.1769341" lon="13.4841479"><ele>1492.0</ele><time>2026-04-10T09:33:47.661Z</time></trkpt><trkpt lat="42.17698" lon="13.4842983"><ele>1492.0</ele><time>2026-04-10T09:33:48.652Z</time></trkpt><trkpt lat="42.1770279" lon="13.4844558"><ele>1492.0</ele><time>2026-04-10T09:33:49.651Z</time></trkpt><trkpt lat="42.1770765" lon="13.4846088"><ele>1494.75</ele><time>2026-04-10T09:33:50.646Z</time></trkpt><trkpt lat="42.1771286" lon="13.4847605"><ele>1497.5</ele><time>2026-04-10T09:33:51.642Z</time></trkpt><trkpt lat="42.1771808" lon="13.4849143"><ele>1500.25</ele><time>2026-04-10T09:33:52.65Z</time></trkpt><trkpt lat="42.1772201" lon="13.4850762"><ele>1503.0</ele><time>2026-04-10T09:33:53.647Z</time></trkpt><trkpt lat="42.1772598" lon="13.4852417"><ele>1503.0</ele><time>2026-04-10T09:33:54.649Z</time></trkpt><trkpt lat="42.1773048" lon="13.4854084"><ele>1503.0</ele><time>2026-04-10T09:33:55.647Z</time></trkpt><trkpt lat="42.177347" lon="13.4855671"><ele>1503.0</ele><time>2026-04-10T09:33:56.649Z</time></trkpt><trkpt lat="42.1773976" lon="13.4857101"><ele>1503.0</ele><time>2026-04-10T09:33:57.643Z</time></trkpt><trkpt lat="42.1774486" lon="13.4858468"><ele>1502.4</ele><time>2026-04-10T09:33:58.648Z</time></trkpt><trkpt lat="42.177509" lon="13.4859726"><ele>1501.8000000000002</ele><time>2026-04-10T09:33:59.653Z</time></trkpt><trkpt lat="42.1775687" lon="13.4860801"><ele>1501.2</ele><time>2026-04-10T09:34:00.655Z</time></trkpt><trkpt lat="42.1776388" lon="13.4861789"><ele>1500.6</ele><time>2026-04-10T09:34:01.655Z</time></trkpt><trkpt lat="42.1777152" lon="13.4862605"><ele>1500.0</ele><time>2026-04-10T09:34:02.649Z</time></trkpt><trkpt lat="42.1777939" lon="13.4863345"><ele>1500.0</ele><time>2026-04-10T09:34:03.646Z</time></trkpt><trkpt lat="42.17787" lon="13.4863993"><ele>1500.0</ele><time>2026-04-10T09:34:04.646Z</time></trkpt><trkpt lat="42.1779449" lon="13.4864485"><ele>1500.0</ele><time>2026-04-10T09:34:05.639Z</time></trkpt><trkpt lat="42.1780161" lon="13.4864774"><ele>1500.0</ele><time>2026-04-10T09:34:06.63Z</time></trkpt><trkpt lat="42.1780964" lon="13.4864794"><ele>1500.0</ele><time>2026-04-10T09:34:07.631Z</time></trkpt><trkpt lat="42.1781882" lon="13.4864424"><ele>1500.0</ele><time>2026-04-10T09:34:08.623Z</time></trkpt><trkpt lat="42.1782717" lon="13.4863582"><ele>1497.6</ele><time>2026-04-10T09:34:09.633Z</time></trkpt><trkpt lat="42.1783496" lon="13.4862462"><ele>1495.2</ele><time>2026-04-10T09:34:10.634Z</time></trkpt><trkpt lat="42.1784202" lon="13.4861392"><ele>1492.8000000000002</ele><time>2026-04-10T09:34:11.639Z</time></trkpt><trkpt lat="42.1784953" lon="13.486022"><ele>1490.4</ele><time>2026-04-10T09:34:12.63Z</time></trkpt><trkpt lat="42.1785693" lon="13.4859089"><ele>1488.0</ele><time>2026-04-10T09:34:13.631Z</time></trkpt><trkpt lat="42.1786505" lon="13.4857936"><ele>1488.0</ele><time>2026-04-10T09:34:14.633Z</time></trkpt><trkpt lat="42.1787321" lon="13.4856841"><ele>1488.0</ele><time>2026-04-10T09:34:15.635Z</time></trkpt><trkpt lat="42.1788167" lon="13.485586"><ele>1488.0</ele><time>2026-04-10T09:34:16.632Z</time></trkpt><trkpt lat="42.1789168" lon="13.4855074"><ele>1488.0</ele><time>2026-04-10T09:34:17.636Z</time></trkpt><trkpt lat="42.1790373" lon="13.4854394"><ele>1487.25</ele><time>2026-04-10T09:34:18.642Z</time></trkpt><trkpt lat="42.1791633" lon="13.4853835"><ele>1486.5</ele><time>2026-04-10T09:34:19.637Z</time></trkpt><trkpt lat="42.1792995" lon="13.4853367"><ele>1485.75</ele><time>2026-04-10T09:34:20.641Z</time></trkpt><trkpt lat="42.1794372" lon="13.4853018"><ele>1485.0</ele><time>2026-04-10T09:34:21.637Z</time></trkpt><trkpt lat="42.1795843" lon="13.4852449"><ele>1485.0</ele><time>2026-04-10T09:34:22.64Z</time></trkpt><trkpt lat="42.1797332" lon="13.4851857"><ele>1485.0</ele><time>2026-04-10T09:34:23.641Z</time></trkpt><trkpt lat="42.1798762" lon="13.4851145"><ele>1485.0</ele><time>2026-04-10T09:34:24.639Z</time></trkpt><trkpt lat="42.1800019" lon="13.4850212"><ele>1486.25</ele><time>2026-04-10T09:34:25.633Z</time></trkpt><trkpt lat="42.1801193" lon="13.4849165"><ele>1487.5</ele><time>2026-04-10T09:34:26.633Z</time></trkpt><trkpt lat="42.1802254" lon="13.4848194"><ele>1488.75</ele><time>2026-04-10T09:34:27.63Z</time></trkpt><trkpt lat="42.1803164" lon="13.4847013"><ele>1490.0</ele><time>2026-04-10T09:34:28.631Z</time></trkpt><trkpt lat="42.180392" lon="13.4845819"><ele>1489.1666666666667</ele><time>2026-04-10T09:34:29.639Z</time></trkpt><trkpt lat="42.1804704" lon="13.4844835"><ele>1488.3333333333335</ele><time>2026-04-10T09:34:30.638Z</time></trkpt><trkpt lat="42.1805261" lon="13.484398"><ele>1487.5</ele><time>2026-04-10T09:34:31.646Z</time></trkpt><trkpt lat="42.1805952" lon="13.484332"><ele>1486.6666666666667</ele><time>2026-04-10T09:34:32.65Z</time></trkpt><trkpt lat="42.1806627" lon="13.4842692"><ele>1485.8333333333333</ele><time>2026-04-10T09:34:33.648Z</time></trkpt><trkpt lat="42.1807357" lon="13.4842275"><ele>1485.0</ele><time>2026-04-10T09:34:34.65Z</time></trkpt><trkpt lat="42.180828" lon="13.4841839"><ele>1485.0</ele><time>2026-04-10T09:34:35.655Z</time></trkpt><trkpt lat="42.1809165" lon="13.4841329"><ele>1485.0</ele><time>2026-04-10T09:34:36.653Z</time></trkpt><trkpt lat="42.1810011" lon="13.4840669"><ele>1485.0</ele><time>2026-04-10T09:34:37.648Z</time></trkpt><trkpt lat="42.1810843" lon="13.4839951"><ele>1485.0</ele><time>2026-04-10T09:34:38.652Z</time></trkpt><trkpt lat="42.1811686" lon="13.4839167"><ele>1485.0</ele><time>2026-04-10T09:34:39.657Z</time></trkpt><trkpt lat="42.1812563" lon="13.4838488"><ele>1485.0</ele><time>2026-04-10T09:34:40.652Z</time></trkpt><trkpt lat="42.1813477" lon="13.4837922"><ele>1485.0</ele><time>2026-04-10T09:34:41.653Z</time></trkpt><trkpt lat="42.1814454" lon="13.4837551"><ele>1485.0</ele><time>2026-04-10T09:34:42.651Z</time></trkpt><trkpt lat="42.1815456" lon="13.4837379"><ele>1485.0</ele><time>2026-04-10T09:34:43.647Z</time></trkpt><trkpt lat="42.1816417" lon="13.483736"><ele>1485.0</ele><time>2026-04-10T09:34:44.645Z</time></trkpt><trkpt lat="42.1817335" lon="13.4837571"><ele>1486.2</ele><time>2026-04-10T09:34:45.641Z</time></trkpt><trkpt lat="42.1818192" lon="13.4837913"><ele>1487.4</ele><time>2026-04-10T09:34:46.649Z</time></trkpt><trkpt lat="42.1819" lon="13.4838411"><ele>1488.6</ele><time>2026-04-10T09:34:47.65Z</time></trkpt><trkpt lat="42.1819762" lon="13.4839183"><ele>1489.8</ele><time>2026-04-10T09:34:48.656Z</time></trkpt><trkpt lat="42.1820445" lon="13.4840039"><ele>1491.0</ele><time>2026-04-10T09:34:49.654Z</time></trkpt><trkpt lat="42.1821044" lon="13.4841011"><ele>1491.0</ele><time>2026-04-10T09:34:50.641Z</time></trkpt><trkpt lat="42.1821403" lon="13.4842186"><ele>1491.0</ele><time>2026-04-10T09:34:51.654Z</time></trkpt><trkpt lat="42.1821613" lon="13.4843364"><ele>1491.0</ele><time>2026-04-10T09:34:52.656Z</time></trkpt><trkpt lat="42.1821765" lon="13.4844587"><ele>1491.0</ele><time>2026-04-10T09:34:53.664Z</time></trkpt><trkpt lat="42.1821991" lon="13.484581"><ele>1491.0</ele><time>2026-04-10T09:34:54.661Z</time></trkpt><trkpt lat="42.1822253" lon="13.4846978"><ele>1491.5</ele><time>2026-04-10T09:34:55.65Z</time></trkpt><trkpt lat="42.1822497" lon="13.4847987"><ele>1492.0</ele><time>2026-04-10T09:34:56.648Z</time></trkpt><trkpt lat="42.1822807" lon="13.4848916"><ele>1492.5</ele><time>2026-04-10T09:34:57.648Z</time></trkpt><trkpt lat="42.1823184" lon="13.4849764"><ele>1493.0</ele><time>2026-04-10T09:34:58.651Z</time></trkpt><trkpt lat="42.1823628" lon="13.4850438"><ele>1493.5</ele><time>2026-04-10T09:34:59.659Z</time></trkpt><trkpt lat="42.1824342" lon="13.4851645"><ele>1494.0</ele><time>2026-04-10T09:35:01.654Z</time></trkpt><trkpt lat="42.1824778" lon="13.4852285"><ele>1494.0</ele><time>2026-04-10T09:35:02.66Z</time></trkpt><trkpt lat="42.1825116" lon="13.4853038"><ele>1494.0</ele><time>2026-04-10T09:35:03.658Z</time></trkpt><trkpt lat="42.1825488" lon="13.4853811"><ele>1494.0</ele><time>2026-04-10T09:35:04.656Z</time></trkpt><trkpt lat="42.1825847" lon="13.4854544"><ele>1494.0</ele><time>2026-04-10T09:35:05.651Z</time></trkpt><trkpt lat="42.1826651" lon="13.4855377"><ele>1494.0</ele><time>2026-04-10T09:35:07.649Z</time></trkpt><trkpt lat="42.1826504" lon="13.4856326"><ele>1494.0</ele><time>2026-04-10T09:35:10.665Z</time></trkpt><trkpt lat="42.1825603" lon="13.485635"><ele>1494.0</ele><time>2026-04-10T09:35:13.65Z</time></trkpt><trkpt lat="42.1825415" lon="13.485496"><ele>1494.0</ele><time>2026-04-10T09:35:15.647Z</time></trkpt><trkpt lat="42.1825402" lon="13.4853403"><ele>1494.0</ele><time>2026-04-10T09:35:17.667Z</time></trkpt><trkpt lat="42.1825345" lon="13.4851989"><ele>1494.0</ele><time>2026-04-10T09:35:19.66Z</time></trkpt><trkpt lat="42.1824995" lon="13.4850802"><ele>1494.0</ele><time>2026-04-10T09:35:21.649Z</time></trkpt><trkpt lat="42.1824431" lon="13.4849619"><ele>1493.9999999999998</ele><time>2026-04-10T09:35:23.663Z</time></trkpt><trkpt lat="42.1823989" lon="13.4848842"><ele>1494.0</ele><time>2026-04-10T09:35:26.656Z</time></trkpt><trkpt lat="42.182331" lon="13.4849006"><ele>1494.0</ele><time>2026-04-10T09:35:30.67Z</time></trkpt><trkpt lat="42.1822984" lon="13.4849767"><ele>1494.0</ele><time>2026-04-10T09:35:32.66Z</time></trkpt><trkpt lat="42.1823153" lon="13.4850649"><ele>1494.0</ele><time>2026-04-10T09:37:35.663Z</time></trkpt><trkpt lat="42.1823582" lon="13.4851812"><ele>1493.9999999999998</ele><time>2026-04-10T09:37:37.649Z</time></trkpt><trkpt lat="42.1823892" lon="13.4852744"><ele>1494.0</ele><time>2026-04-10T09:37:38.637Z</time></trkpt><trkpt lat="42.1824647" lon="13.4854503"><ele>1494.3333333333333</ele><time>2026-04-10T09:37:39.645Z</time></trkpt><trkpt lat="42.1825736" lon="13.4856614"><ele>1494.6666666666665</ele><time>2026-04-10T09:37:40.65Z</time></trkpt><trkpt lat="42.182673" lon="13.4858908"><ele>1495.0</ele><time>2026-04-10T09:37:41.636Z</time></trkpt><trkpt lat="42.1827668" lon="13.4861233"><ele>1494.3333333333333</ele><time>2026-04-10T09:37:42.653Z</time></trkpt><trkpt lat="42.1828479" lon="13.4863812"><ele>1493.6666666666667</ele><time>2026-04-10T09:37:43.654Z</time></trkpt><trkpt lat="42.1829065" lon="13.4866372"><ele>1493.0</ele><time>2026-04-10T09:37:44.645Z</time></trkpt><trkpt lat="42.1829125" lon="13.4869014"><ele>1493.0</ele><time>2026-04-10T09:37:45.64Z</time></trkpt><trkpt lat="42.1829224" lon="13.4871401"><ele>1493.0</ele><time>2026-04-10T09:37:46.64Z</time></trkpt><trkpt lat="42.1829211" lon="13.4873754"><ele>1493.0</ele><time>2026-04-10T09:37:47.648Z</time></trkpt><trkpt lat="42.1829335" lon="13.4876138"><ele>1493.0</ele><time>2026-04-10T09:37:48.645Z</time></trkpt><trkpt lat="42.1829473" lon="13.4878634"><ele>1493.0</ele><time>2026-04-10T09:37:49.647Z</time></trkpt><trkpt lat="42.182958" lon="13.4881094"><ele>1493.0</ele><time>2026-04-10T09:37:50.651Z</time></trkpt><trkpt lat="42.1829802" lon="13.4883506"><ele>1494.0</ele><time>2026-04-10T09:37:51.646Z</time></trkpt><trkpt lat="42.1830239" lon="13.4885821"><ele>1495.0</ele><time>2026-04-10T09:37:52.644Z</time></trkpt><trkpt lat="42.1830418" lon="13.4888311"><ele>1496.0</ele><time>2026-04-10T09:37:53.654Z</time></trkpt><trkpt lat="42.1830698" lon="13.4890455"><ele>1496.75</ele><time>2026-04-10T09:37:54.644Z</time></trkpt><trkpt lat="42.1830879" lon="13.4892375"><ele>1497.5</ele><time>2026-04-10T09:37:55.654Z</time></trkpt><trkpt lat="42.1830848" lon="13.4894217"><ele>1498.25</ele><time>2026-04-10T09:37:56.648Z</time></trkpt><trkpt lat="42.1831054" lon="13.4896223"><ele>1499.0</ele><time>2026-04-10T09:37:57.641Z</time></trkpt><trkpt lat="42.1831621" lon="13.4898235"><ele>1493.3333333333335</ele><time>2026-04-10T09:37:58.641Z</time></trkpt><trkpt lat="42.1832518" lon="13.4900075"><ele>1487.6666666666667</ele><time>2026-04-10T09:37:59.651Z</time></trkpt><trkpt lat="42.1833505" lon="13.4901718"><ele>1482.0</ele><time>2026-04-10T09:38:00.654Z</time></trkpt><trkpt lat="42.1834658" lon="13.4903334"><ele>1478.3333333333333</ele><time>2026-04-10T09:38:01.654Z</time></trkpt><trkpt lat="42.1836267" lon="13.4904776"><ele>1474.6666666666665</ele><time>2026-04-10T09:38:02.65Z</time></trkpt><trkpt lat="42.1837517" lon="13.4906461"><ele>1471.0</ele><time>2026-04-10T09:38:03.649Z</time></trkpt><trkpt lat="42.1838185" lon="13.4908488"><ele>1471.0</ele><time>2026-04-10T09:38:04.639Z</time></trkpt><trkpt lat="42.1838913" lon="13.4910622"><ele>1471.0</ele><time>2026-04-10T09:38:05.636Z</time></trkpt><trkpt lat="42.1839599" lon="13.4912975"><ele>1471.0</ele><time>2026-04-10T09:38:06.637Z</time></trkpt><trkpt lat="42.1840463" lon="13.4915608"><ele>1469.6666666666665</ele><time>2026-04-10T09:38:07.643Z</time></trkpt><trkpt lat="42.1840953" lon="13.4918117"><ele>1468.3333333333333</ele><time>2026-04-10T09:38:08.631Z</time></trkpt><trkpt lat="42.1841215" lon="13.4920499"><ele>1467.0</ele><time>2026-04-10T09:38:09.635Z</time></trkpt><trkpt lat="42.1840924" lon="13.4923261"><ele>1467.0</ele><time>2026-04-10T09:38:10.636Z</time></trkpt><trkpt lat="42.1840977" lon="13.4925921"><ele>1467.0</ele><time>2026-04-10T09:38:11.642Z</time></trkpt><trkpt lat="42.1841315" lon="13.4928423"><ele>1467.0</ele><time>2026-04-10T09:38:12.639Z</time></trkpt><trkpt lat="42.1842167" lon="13.4930497"><ele>1460.6666666666667</ele><time>2026-04-10T09:38:13.645Z</time></trkpt><trkpt lat="42.1843225" lon="13.4932743"><ele>1454.3333333333335</ele><time>2026-04-10T09:38:14.638Z</time></trkpt><trkpt lat="42.1844337" lon="13.4934481"><ele>1448.0</ele><time>2026-04-10T09:38:15.641Z</time></trkpt><trkpt lat="42.1845538" lon="13.4936145"><ele>1450.3333333333335</ele><time>2026-04-10T09:38:16.633Z</time></trkpt><trkpt lat="42.1846775" lon="13.4938021"><ele>1452.6666666666667</ele><time>2026-04-10T09:38:17.641Z</time></trkpt><trkpt lat="42.1848203" lon="13.4939739"><ele>1455.0</ele><time>2026-04-10T09:38:18.63Z</time></trkpt><trkpt lat="42.1849184" lon="13.4941564"><ele>1455.0</ele><time>2026-04-10T09:38:19.629Z</time></trkpt><trkpt lat="42.1849867" lon="13.4943582"><ele>1455.0</ele><time>2026-04-10T09:38:20.625Z</time></trkpt><trkpt lat="42.1850208" lon="13.4945984"><ele>1455.0</ele><time>2026-04-10T09:38:21.625Z</time></trkpt><trkpt lat="42.1850457" lon="13.4948173"><ele>1452.3333333333333</ele><time>2026-04-10T09:38:22.626Z</time></trkpt><trkpt lat="42.1850716" lon="13.4950239"><ele>1449.6666666666665</ele><time>2026-04-10T09:38:23.644Z</time></trkpt><trkpt lat="42.1850645" lon="13.4952178"><ele>1447.0</ele><time>2026-04-10T09:38:24.634Z</time></trkpt><trkpt lat="42.185132" lon="13.4954119"><ele>1443.0</ele><time>2026-04-10T09:38:25.64Z</time></trkpt><trkpt lat="42.1852052" lon="13.4956299"><ele>1439.0</ele><time>2026-04-10T09:38:26.641Z</time></trkpt><trkpt lat="42.1853041" lon="13.4958013"><ele>1435.0</ele><time>2026-04-10T09:38:27.641Z</time></trkpt><trkpt lat="42.185461" lon="13.4960003"><ele>1435.0</ele><time>2026-04-10T09:38:28.639Z</time></trkpt><trkpt lat="42.1855744" lon="13.4961403"><ele>1435.0</ele><time>2026-04-10T09:38:29.643Z</time></trkpt><trkpt lat="42.1857205" lon="13.496198"><ele>1435.0</ele><time>2026-04-10T09:38:30.641Z</time></trkpt><trkpt lat="42.1858187" lon="13.4963179"><ele>1435.0</ele><time>2026-04-10T09:38:31.632Z</time></trkpt><trkpt lat="42.1859014" lon="13.4964759"><ele>1435.0</ele><time>2026-04-10T09:38:32.629Z</time></trkpt><trkpt lat="42.1859571" lon="13.4965933"><ele>1435.0</ele><time>2026-04-10T09:38:33.643Z</time></trkpt><trkpt lat="42.186036" lon="13.4966691"><ele>1435.0</ele><time>2026-04-10T09:38:34.637Z</time></trkpt><trkpt lat="42.1861831" lon="13.4967758"><ele>1435.0</ele><time>2026-04-10T09:38:35.634Z</time></trkpt><trkpt lat="42.1863619" lon="13.4968406"><ele>1435.0</ele><time>2026-04-10T09:38:36.623Z</time></trkpt><trkpt lat="42.1864977" lon="13.4968791"><ele>1435.0</ele><time>2026-04-10T09:38:37.631Z</time></trkpt><trkpt lat="42.1866401" lon="13.496894"><ele>1435.0</ele><time>2026-04-10T09:38:38.632Z</time></trkpt><trkpt lat="42.1868192" lon="13.4969322"><ele>1437.3333333333333</ele><time>2026-04-10T09:38:39.627Z</time></trkpt><trkpt lat="42.187" lon="13.497039"><ele>1439.6666666666667</ele><time>2026-04-10T09:38:40.631Z</time></trkpt><trkpt lat="42.1871716" lon="13.4970851"><ele>1442.0</ele><time>2026-04-10T09:38:41.637Z</time></trkpt><trkpt lat="42.1873536" lon="13.4970939"><ele>1446.0</ele><time>2026-04-10T09:38:42.627Z</time></trkpt><trkpt lat="42.1875512" lon="13.4970487"><ele>1450.0</ele><time>2026-04-10T09:38:43.627Z</time></trkpt><trkpt lat="42.1878129" lon="13.497034"><ele>1450.0</ele><time>2026-04-10T09:38:44.626Z</time></trkpt><trkpt lat="42.1880261" lon="13.4970443"><ele>1450.0</ele><time>2026-04-10T09:38:45.628Z</time></trkpt><trkpt lat="42.1881756" lon="13.4970797"><ele>1450.0</ele><time>2026-04-10T09:38:46.644Z</time></trkpt><trkpt lat="42.1883011" lon="13.4971717"><ele>1444.5</ele><time>2026-04-10T09:38:47.633Z</time></trkpt><trkpt lat="42.1883034" lon="13.4972782"><ele>1439.0</ele><time>2026-04-10T09:38:48.649Z</time></trkpt><trkpt lat="42.1883322" lon="13.497467"><ele>1433.5</ele><time>2026-04-10T09:38:49.644Z</time></trkpt><trkpt lat="42.1883141" lon="13.4976655"><ele>1428.0</ele><time>2026-04-10T09:38:50.644Z</time></trkpt><trkpt lat="42.1882441" lon="13.4979011"><ele>1424.3333333333333</ele><time>2026-04-10T09:38:51.668Z</time></trkpt><trkpt lat="42.1882717" lon="13.4981214"><ele>1420.6666666666665</ele><time>2026-04-10T09:38:52.665Z</time></trkpt><trkpt lat="42.1883331" lon="13.4983237"><ele>1417.0</ele><time>2026-04-10T09:38:53.67Z</time></trkpt><trkpt lat="42.1884333" lon="13.4984952"><ele>1417.0</ele><time>2026-04-10T09:38:54.66Z</time></trkpt><trkpt lat="42.1885207" lon="13.4986557"><ele>1417.0</ele><time>2026-04-10T09:38:55.658Z</time></trkpt><trkpt lat="42.1886344" lon="13.4988049"><ele>1417.0</ele><time>2026-04-10T09:38:56.664Z</time></trkpt><trkpt lat="42.1886675" lon="13.4989719"><ele>1417.0</ele><time>2026-04-10T09:38:57.663Z</time></trkpt><trkpt lat="42.1886751" lon="13.4991258"><ele>1415.0</ele><time>2026-04-10T09:38:58.658Z</time></trkpt><trkpt lat="42.1886304" lon="13.4992696"><ele>1413.0</ele><time>2026-04-10T09:38:59.662Z</time></trkpt><trkpt lat="42.1885825" lon="13.4994298"><ele>1411.0</ele><time>2026-04-10T09:39:00.667Z</time></trkpt><trkpt lat="42.1885731" lon="13.4995869"><ele>1409.0</ele><time>2026-04-10T09:39:01.664Z</time></trkpt><trkpt lat="42.1886406" lon="13.4997362"><ele>1406.75</ele><time>2026-04-10T09:39:02.657Z</time></trkpt><trkpt lat="42.1886999" lon="13.4998774"><ele>1404.5</ele><time>2026-04-10T09:39:03.648Z</time></trkpt><trkpt lat="42.188779" lon="13.5000328"><ele>1402.25</ele><time>2026-04-10T09:39:04.659Z</time></trkpt><trkpt lat="42.1888651" lon="13.5002219"><ele>1400.0</ele><time>2026-04-10T09:39:05.66Z</time></trkpt><trkpt lat="42.1889405" lon="13.5004339"><ele>1401.6666666666667</ele><time>2026-04-10T09:39:06.658Z</time></trkpt><trkpt lat="42.1889838" lon="13.5006556"><ele>1403.3333333333333</ele><time>2026-04-10T09:39:07.667Z</time></trkpt><trkpt lat="42.1890423" lon="13.5008749"><ele>1405.0</ele><time>2026-04-10T09:39:08.674Z</time></trkpt><trkpt lat="42.1890763" lon="13.5011056"><ele>1400.6666666666665</ele><time>2026-04-10T09:39:09.675Z</time></trkpt><trkpt lat="42.1891416" lon="13.5012984"><ele>1396.3333333333333</ele><time>2026-04-10T09:39:10.662Z</time></trkpt><trkpt lat="42.1892739" lon="13.5014039"><ele>1392.0</ele><time>2026-04-10T09:39:11.664Z</time></trkpt><trkpt lat="42.1894125" lon="13.5015106"><ele>1392.0</ele><time>2026-04-10T09:39:12.66Z</time></trkpt><trkpt lat="42.189565" lon="13.5016102"><ele>1392.0</ele><time>2026-04-10T09:39:13.659Z</time></trkpt><trkpt lat="42.1897113" lon="13.5017245"><ele>1392.0</ele><time>2026-04-10T09:39:14.663Z</time></trkpt><trkpt lat="42.1898602" lon="13.5017965"><ele>1394.3333333333333</ele><time>2026-04-10T09:39:15.656Z</time></trkpt><trkpt lat="42.1900316" lon="13.5018483"><ele>1396.6666666666665</ele><time>2026-04-10T09:39:16.652Z</time></trkpt><trkpt lat="42.1902182" lon="13.5019157"><ele>1399.0</ele><time>2026-04-10T09:39:17.671Z</time></trkpt><trkpt lat="42.1903757" lon="13.5019499"><ele>1399.0</ele><time>2026-04-10T09:39:18.654Z</time></trkpt><trkpt lat="42.1905012" lon="13.5019334"><ele>1399.0</ele><time>2026-04-10T09:39:19.645Z</time></trkpt><trkpt lat="42.1905643" lon="13.5018263"><ele>1399.0</ele><time>2026-04-10T09:39:20.646Z</time></trkpt><trkpt lat="42.1906847" lon="13.5016887"><ele>1399.0</ele><time>2026-04-10T09:39:21.64Z</time></trkpt><trkpt lat="42.1908016" lon="13.501599"><ele>1397.5</ele><time>2026-04-10T09:39:22.637Z</time></trkpt><trkpt lat="42.1909114" lon="13.5015255"><ele>1396.0</ele><time>2026-04-10T09:39:23.635Z</time></trkpt><trkpt lat="42.1910094" lon="13.5014867"><ele>1394.5</ele><time>2026-04-10T09:39:24.633Z</time></trkpt><trkpt lat="42.1911311" lon="13.5014917"><ele>1393.0</ele><time>2026-04-10T09:39:25.636Z</time></trkpt><trkpt lat="42.1912662" lon="13.5015443"><ele>1393.0</ele><time>2026-04-10T09:39:26.644Z</time></trkpt><trkpt lat="42.1913904" lon="13.5016186"><ele>1393.0</ele><time>2026-04-10T09:39:27.651Z</time></trkpt><trkpt lat="42.1915125" lon="13.5016802"><ele>1393.0</ele><time>2026-04-10T09:39:28.647Z</time></trkpt><trkpt lat="42.1916447" lon="13.5017196"><ele>1393.0</ele><time>2026-04-10T09:39:29.653Z</time></trkpt><trkpt lat="42.1917952" lon="13.5017347"><ele>1393.0</ele><time>2026-04-10T09:39:30.649Z</time></trkpt><trkpt lat="42.1918943" lon="13.5017297"><ele>1393.0</ele><time>2026-04-10T09:39:31.651Z</time></trkpt><trkpt lat="42.1920267" lon="13.5017705"><ele>1393.0</ele><time>2026-04-10T09:39:32.637Z</time></trkpt><trkpt lat="42.1921018" lon="13.5018681"><ele>1393.0</ele><time>2026-04-10T09:39:33.635Z</time></trkpt><trkpt lat="42.1921644" lon="13.5019746"><ele>1393.0</ele><time>2026-04-10T09:39:34.639Z</time></trkpt><trkpt lat="42.192132" lon="13.5021044"><ele>1389.75</ele><time>2026-04-10T09:39:35.638Z</time></trkpt><trkpt lat="42.1920859" lon="13.5022136"><ele>1386.5</ele><time>2026-04-10T09:39:36.638Z</time></trkpt><trkpt lat="42.1920269" lon="13.5023438"><ele>1383.25</ele><time>2026-04-10T09:39:37.637Z</time></trkpt><trkpt lat="42.191938" lon="13.5025009"><ele>1380.0</ele><time>2026-04-10T09:39:38.641Z</time></trkpt><trkpt lat="42.1918389" lon="13.5026643"><ele>1380.0</ele><time>2026-04-10T09:39:39.638Z</time></trkpt><trkpt lat="42.1917619" lon="13.5028514"><ele>1380.0</ele><time>2026-04-10T09:39:40.645Z</time></trkpt><trkpt lat="42.1916836" lon="13.503094"><ele>1380.0</ele><time>2026-04-10T09:39:41.644Z</time></trkpt><trkpt lat="42.1916232" lon="13.5033435"><ele>1380.0</ele><time>2026-04-10T09:39:42.64Z</time></trkpt><trkpt lat="42.1915894" lon="13.5035428"><ele>1380.0</ele><time>2026-04-10T09:39:43.661Z</time></trkpt><trkpt lat="42.191577" lon="13.5037332"><ele>1380.0</ele><time>2026-04-10T09:39:44.653Z</time></trkpt><trkpt lat="42.1915122" lon="13.5038882"><ele>1380.0</ele><time>2026-04-10T09:39:45.654Z</time></trkpt><trkpt lat="42.1914102" lon="13.5040292"><ele>1374.6666666666667</ele><time>2026-04-10T09:39:46.659Z</time></trkpt><trkpt lat="42.1913177" lon="13.5041956"><ele>1369.3333333333335</ele><time>2026-04-10T09:39:47.659Z</time></trkpt><trkpt lat="42.1912595" lon="13.504386"><ele>1364.0</ele><time>2026-04-10T09:39:48.658Z</time></trkpt><trkpt lat="42.1912126" lon="13.5045728"><ele>1364.25</ele><time>2026-04-10T09:39:49.661Z</time></trkpt><trkpt lat="42.1911903" lon="13.5047629"><ele>1364.5</ele><time>2026-04-10T09:39:50.663Z</time></trkpt><trkpt lat="42.1911516" lon="13.5049312"><ele>1364.75</ele><time>2026-04-10T09:39:51.666Z</time></trkpt><trkpt lat="42.1911762" lon="13.5051207"><ele>1365.0</ele><time>2026-04-10T09:39:52.663Z</time></trkpt><trkpt lat="42.1912433" lon="13.5052762"><ele>1364.0</ele><time>2026-04-10T09:39:53.662Z</time></trkpt><trkpt lat="42.1913219" lon="13.5054687"><ele>1363.0</ele><time>2026-04-10T09:39:54.652Z</time></trkpt><trkpt lat="42.1914235" lon="13.505645"><ele>1362.0</ele><time>2026-04-10T09:39:55.653Z</time></trkpt><trkpt lat="42.1915286" lon="13.5058082"><ele>1362.0</ele><time>2026-04-10T09:39:56.65Z</time></trkpt><trkpt lat="42.1915952" lon="13.5060112"><ele>1362.0</ele><time>2026-04-10T09:39:57.653Z</time></trkpt><trkpt lat="42.1916184" lon="13.5062568"><ele>1362.0</ele><time>2026-04-10T09:39:58.666Z</time></trkpt><trkpt lat="42.1916646" lon="13.5064864"><ele>1361.0</ele><time>2026-04-10T09:39:59.656Z</time></trkpt><trkpt lat="42.1917542" lon="13.5066795"><ele>1360.0</ele><time>2026-04-10T09:40:00.654Z</time></trkpt><trkpt lat="42.1918369" lon="13.5069148"><ele>1359.0</ele><time>2026-04-10T09:40:01.656Z</time></trkpt><trkpt lat="42.1919128" lon="13.5071008"><ele>1357.3333333333333</ele><time>2026-04-10T09:40:02.65Z</time></trkpt><trkpt lat="42.1919859" lon="13.5072885"><ele>1355.6666666666665</ele><time>2026-04-10T09:40:03.664Z</time></trkpt><trkpt lat="42.1920553" lon="13.507487"><ele>1354.0</ele><time>2026-04-10T09:40:04.665Z</time></trkpt><trkpt lat="42.1921164" lon="13.5077096"><ele>1351.6666666666665</ele><time>2026-04-10T09:40:05.668Z</time></trkpt><trkpt lat="42.1921986" lon="13.5079143"><ele>1349.3333333333333</ele><time>2026-04-10T09:40:06.663Z</time></trkpt><trkpt lat="42.1922617" lon="13.5081341"><ele>1347.0</ele><time>2026-04-10T09:40:07.662Z</time></trkpt><trkpt lat="42.1923292" lon="13.5083624"><ele>1348.3333333333333</ele><time>2026-04-10T09:40:08.666Z</time></trkpt><trkpt lat="42.1924149" lon="13.5085731"><ele>1349.6666666666665</ele><time>2026-04-10T09:40:09.668Z</time></trkpt><trkpt lat="42.1924588" lon="13.508781"><ele>1351.0</ele><time>2026-04-10T09:40:10.66Z</time></trkpt><trkpt lat="42.1925291" lon="13.5089788"><ele>1348.3333333333333</ele><time>2026-04-10T09:40:11.673Z</time></trkpt><trkpt lat="42.1925907" lon="13.5091784"><ele>1345.6666666666667</ele><time>2026-04-10T09:40:12.663Z</time></trkpt><trkpt lat="42.1926483" lon="13.5093831"><ele>1343.0</ele><time>2026-04-10T09:40:13.664Z</time></trkpt><trkpt lat="42.192706" lon="13.5095912"><ele>1340.6666666666667</ele><time>2026-04-10T09:40:14.658Z</time></trkpt><trkpt lat="42.1927356" lon="13.5097818"><ele>1338.3333333333333</ele><time>2026-04-10T09:40:15.659Z</time></trkpt><trkpt lat="42.1927279" lon="13.5099897"><ele>1336.0</ele><time>2026-04-10T09:40:16.664Z</time></trkpt><trkpt lat="42.1927036" lon="13.5102021"><ele>1335.0</ele><time>2026-04-10T09:40:17.67Z</time></trkpt><trkpt lat="42.1926898" lon="13.5104146"><ele>1334.0</ele><time>2026-04-10T09:40:18.669Z</time></trkpt><trkpt lat="42.1926695" lon="13.5106306"><ele>1333.0</ele><time>2026-04-10T09:40:19.664Z</time></trkpt><trkpt lat="42.1926525" lon="13.5108747"><ele>1333.0</ele><time>2026-04-10T09:40:20.663Z</time></trkpt><trkpt lat="42.1926297" lon="13.5110925"><ele>1333.0</ele><time>2026-04-10T09:40:21.664Z</time></trkpt><trkpt lat="42.1926059" lon="13.5112974"><ele>1333.0</ele><time>2026-04-10T09:40:22.671Z</time></trkpt><trkpt lat="42.1925879" lon="13.5114998"><ele>1332.0</ele><time>2026-04-10T09:40:23.67Z</time></trkpt><trkpt lat="42.1925876" lon="13.5116911"><ele>1331.0</ele><time>2026-04-10T09:40:24.668Z</time></trkpt><trkpt lat="42.1925895" lon="13.5118829"><ele>1330.0</ele><time>2026-04-10T09:40:25.67Z</time></trkpt><trkpt lat="42.1926135" lon="13.5120347"><ele>1329.0</ele><time>2026-04-10T09:40:26.662Z</time></trkpt><trkpt lat="42.1927168" lon="13.5121645"><ele>1328.0</ele><time>2026-04-10T09:40:27.656Z</time></trkpt><trkpt lat="42.1928538" lon="13.5122118"><ele>1327.0</ele><time>2026-04-10T09:40:28.653Z</time></trkpt><trkpt lat="42.1929746" lon="13.5121897"><ele>1326.0</ele><time>2026-04-10T09:40:29.667Z</time></trkpt><trkpt lat="42.193059" lon="13.5121667"><ele>1325.0</ele><time>2026-04-10T09:40:30.663Z</time></trkpt><trkpt lat="42.1931571" lon="13.5121844"><ele>1324.0</ele><time>2026-04-10T09:40:31.655Z</time></trkpt><trkpt lat="42.1933079" lon="13.5121726"><ele>1323.3333333333333</ele><time>2026-04-10T09:40:32.653Z</time></trkpt><trkpt lat="42.1934499" lon="13.5121742"><ele>1322.6666666666667</ele><time>2026-04-10T09:40:33.657Z</time></trkpt><trkpt lat="42.1936132" lon="13.5121959"><ele>1322.0</ele><time>2026-04-10T09:40:34.655Z</time></trkpt><trkpt lat="42.1937572" lon="13.5122555"><ele>1322.0</ele><time>2026-04-10T09:40:35.654Z</time></trkpt><trkpt lat="42.193926" lon="13.5123244"><ele>1322.0</ele><time>2026-04-10T09:40:36.657Z</time></trkpt><trkpt lat="42.1940987" lon="13.5123609"><ele>1322.0</ele><time>2026-04-10T09:40:37.661Z</time></trkpt><trkpt lat="42.1942587" lon="13.512425"><ele>1320.5</ele><time>2026-04-10T09:40:38.665Z</time></trkpt><trkpt lat="42.1943894" lon="13.5125435"><ele>1319.0</ele><time>2026-04-10T09:40:39.668Z</time></trkpt><trkpt lat="42.1944662" lon="13.5126909"><ele>1317.5</ele><time>2026-04-10T09:40:40.666Z</time></trkpt><trkpt lat="42.1945672" lon="13.5128433"><ele>1316.0</ele><time>2026-04-10T09:40:41.663Z</time></trkpt><trkpt lat="42.194681" lon="13.5129966"><ele>1314.3333333333335</ele><time>2026-04-10T09:40:42.673Z</time></trkpt><trkpt lat="42.1948091" lon="13.5131385"><ele>1312.6666666666667</ele><time>2026-04-10T09:40:43.671Z</time></trkpt><trkpt lat="42.1949184" lon="13.5132865"><ele>1311.0</ele><time>2026-04-10T09:40:44.671Z</time></trkpt><trkpt lat="42.1950372" lon="13.5133933"><ele>1310.6666666666667</ele><time>2026-04-10T09:40:45.668Z</time></trkpt><trkpt lat="42.1951608" lon="13.5135183"><ele>1310.3333333333335</ele><time>2026-04-10T09:40:46.662Z</time></trkpt><trkpt lat="42.1953063" lon="13.5136015"><ele>1310.0</ele><time>2026-04-10T09:40:47.667Z</time></trkpt><trkpt lat="42.1954367" lon="13.5136959"><ele>1309.0</ele><time>2026-04-10T09:40:48.656Z</time></trkpt><trkpt lat="42.195551" lon="13.5138447"><ele>1308.0</ele><time>2026-04-10T09:40:49.665Z</time></trkpt><trkpt lat="42.1956787" lon="13.5139936"><ele>1307.0</ele><time>2026-04-10T09:40:50.66Z</time></trkpt><trkpt lat="42.1957871" lon="13.5141643"><ele>1307.0</ele><time>2026-04-10T09:40:51.666Z</time></trkpt><trkpt lat="42.1958951" lon="13.5143465"><ele>1307.0</ele><time>2026-04-10T09:40:52.662Z</time></trkpt><trkpt lat="42.1959994" lon="13.5145368"><ele>1307.0</ele><time>2026-04-10T09:40:53.661Z</time></trkpt><trkpt lat="42.1961317" lon="13.5147174"><ele>1306.0</ele><time>2026-04-10T09:40:54.665Z</time></trkpt><trkpt lat="42.1962469" lon="13.5148821"><ele>1305.0</ele><time>2026-04-10T09:40:55.663Z</time></trkpt><trkpt lat="42.1963514" lon="13.515046"><ele>1304.0</ele><time>2026-04-10T09:40:56.663Z</time></trkpt><trkpt lat="42.196458" lon="13.5152152"><ele>1304.0</ele><time>2026-04-10T09:40:57.668Z</time></trkpt><trkpt lat="42.196568" lon="13.5153727"><ele>1304.0</ele><time>2026-04-10T09:40:58.668Z</time></trkpt><trkpt lat="42.1966753" lon="13.5155143"><ele>1304.0</ele><time>2026-04-10T09:40:59.674Z</time></trkpt><trkpt lat="42.1967775" lon="13.5156567"><ele>1303.25</ele><time>2026-04-10T09:41:00.684Z</time></trkpt><trkpt lat="42.1968717" lon="13.5158008"><ele>1302.5</ele><time>2026-04-10T09:41:01.673Z</time></trkpt><trkpt lat="42.1969674" lon="13.5159377"><ele>1301.75</ele><time>2026-04-10T09:41:02.67Z</time></trkpt><trkpt lat="42.1970776" lon="13.516084"><ele>1301.0</ele><time>2026-04-10T09:41:03.669Z</time></trkpt><trkpt lat="42.1971577" lon="13.5162523"><ele>1299.75</ele><time>2026-04-10T09:41:04.665Z</time></trkpt><trkpt lat="42.1972208" lon="13.5164223"><ele>1298.5</ele><time>2026-04-10T09:41:05.667Z</time></trkpt><trkpt lat="42.1972781" lon="13.5166117"><ele>1297.25</ele><time>2026-04-10T09:41:06.664Z</time></trkpt><trkpt lat="42.1973338" lon="13.5167979"><ele>1296.0</ele><time>2026-04-10T09:41:07.678Z</time></trkpt><trkpt lat="42.1973988" lon="13.5170021"><ele>1293.6666666666667</ele><time>2026-04-10T09:41:08.672Z</time></trkpt><trkpt lat="42.1974649" lon="13.5171906"><ele>1291.3333333333335</ele><time>2026-04-10T09:41:09.669Z</time></trkpt><trkpt lat="42.1975255" lon="13.5173916"><ele>1289.0</ele><time>2026-04-10T09:41:10.672Z</time></trkpt><trkpt lat="42.1975972" lon="13.517589"><ele>1289.0</ele><time>2026-04-10T09:41:11.675Z</time></trkpt><trkpt lat="42.1976604" lon="13.5177683"><ele>1289.0</ele><time>2026-04-10T09:41:12.674Z</time></trkpt><trkpt lat="42.1977638" lon="13.5179336"><ele>1289.0</ele><time>2026-04-10T09:41:13.675Z</time></trkpt><trkpt lat="42.1978603" lon="13.518079"><ele>1287.6666666666667</ele><time>2026-04-10T09:41:14.672Z</time></trkpt><trkpt lat="42.1979856" lon="13.5182028"><ele>1286.3333333333333</ele><time>2026-04-10T09:41:15.669Z</time></trkpt><trkpt lat="42.1981348" lon="13.5182818"><ele>1285.0</ele><time>2026-04-10T09:41:16.664Z</time></trkpt><trkpt lat="42.1983018" lon="13.5183348"><ele>1284.6666666666665</ele><time>2026-04-10T09:41:17.668Z</time></trkpt><trkpt lat="42.1984673" lon="13.518379"><ele>1284.3333333333333</ele><time>2026-04-10T09:41:18.663Z</time></trkpt><trkpt lat="42.1986189" lon="13.5184227"><ele>1284.0</ele><time>2026-04-10T09:41:19.658Z</time></trkpt><trkpt lat="42.1987941" lon="13.5184403"><ele>1284.0</ele><time>2026-04-10T09:41:20.656Z</time></trkpt><trkpt lat="42.1989789" lon="13.5184568"><ele>1284.0</ele><time>2026-04-10T09:41:21.654Z</time></trkpt><trkpt lat="42.1991417" lon="13.518477"><ele>1284.0</ele><time>2026-04-10T09:41:22.657Z</time></trkpt><trkpt lat="42.1992825" lon="13.5184834"><ele>1283.5</ele><time>2026-04-10T09:41:23.659Z</time></trkpt><trkpt lat="42.1994401" lon="13.5184904"><ele>1283.0</ele><time>2026-04-10T09:41:24.655Z</time></trkpt><trkpt lat="42.1995617" lon="13.5185278"><ele>1282.5</ele><time>2026-04-10T09:41:25.653Z</time></trkpt><trkpt lat="42.1996887" lon="13.5185431"><ele>1282.0</ele><time>2026-04-10T09:41:26.66Z</time></trkpt><trkpt lat="42.1998151" lon="13.5185584"><ele>1282.0</ele><time>2026-04-10T09:41:27.665Z</time></trkpt><trkpt lat="42.1999579" lon="13.5185911"><ele>1282.0</ele><time>2026-04-10T09:41:28.662Z</time></trkpt><trkpt lat="42.2000679" lon="13.5186396"><ele>1282.0</ele><time>2026-04-10T09:41:29.66Z</time></trkpt><trkpt lat="42.2001991" lon="13.518738"><ele>1282.0</ele><time>2026-04-10T09:41:30.66Z</time></trkpt><trkpt lat="42.200277" lon="13.5188666"><ele>1282.0</ele><time>2026-04-10T09:41:31.664Z</time></trkpt><trkpt lat="42.2003648" lon="13.5190288"><ele>1282.0</ele><time>2026-04-10T09:41:32.662Z</time></trkpt><trkpt lat="42.2004691" lon="13.5191481"><ele>1282.0</ele><time>2026-04-10T09:41:33.651Z</time></trkpt><trkpt lat="42.2005611" lon="13.5192505"><ele>1282.0</ele><time>2026-04-10T09:41:34.644Z</time></trkpt><trkpt lat="42.2006465" lon="13.5193387"><ele>1282.1999999999998</ele><time>2026-04-10T09:41:35.65Z</time></trkpt><trkpt lat="42.2007233" lon="13.5194221"><ele>1282.4</ele><time>2026-04-10T09:41:36.644Z</time></trkpt><trkpt lat="42.2008019" lon="13.5194925"><ele>1282.6</ele><time>2026-04-10T09:41:37.649Z</time></trkpt><trkpt lat="42.2008416" lon="13.5195585"><ele>1282.8000000000002</ele><time>2026-04-10T09:41:38.656Z</time></trkpt><trkpt lat="42.2008835" lon="13.5197093"><ele>1283.0</ele><time>2026-04-10T09:41:40.661Z</time></trkpt><trkpt lat="42.2009377" lon="13.5198489"><ele>1283.0</ele><time>2026-04-10T09:41:42.655Z</time></trkpt><trkpt lat="42.2010053" lon="13.5199053"><ele>1283.0</ele><time>2026-04-10T09:41:44.665Z</time></trkpt><trkpt lat="42.2010652" lon="13.519989"><ele>1283.0</ele><time>2026-04-10T09:42:14.687Z</time></trkpt><trkpt lat="42.2011272" lon="13.5200705"><ele>1283.0</ele><time>2026-04-10T09:42:16.655Z</time></trkpt><trkpt lat="42.2011989" lon="13.5201798"><ele>1283.0</ele><time>2026-04-10T09:42:17.659Z</time></trkpt><trkpt lat="42.2012812" lon="13.5202929"><ele>1282.5</ele><time>2026-04-10T09:42:18.659Z</time></trkpt><trkpt lat="42.2013534" lon="13.520419"><ele>1282.0</ele><time>2026-04-10T09:42:19.657Z</time></trkpt><trkpt lat="42.2014136" lon="13.5205418"><ele>1281.5</ele><time>2026-04-10T09:42:20.657Z</time></trkpt><trkpt lat="42.2014788" lon="13.5206615"><ele>1281.0</ele><time>2026-04-10T09:42:21.657Z</time></trkpt><trkpt lat="42.2015639" lon="13.5207986"><ele>1281.0</ele><time>2026-04-10T09:42:22.663Z</time></trkpt><trkpt lat="42.2016581" lon="13.5209301"><ele>1281.0</ele><time>2026-04-10T09:42:23.665Z</time></trkpt><trkpt lat="42.2017462" lon="13.5210577"><ele>1281.0</ele><time>2026-04-10T09:42:24.664Z</time></trkpt><trkpt lat="42.201816" lon="13.5211777"><ele>1281.0</ele><time>2026-04-10T09:42:25.66Z</time></trkpt><trkpt lat="42.201893" lon="13.5212853"><ele>1282.1999999999998</ele><time>2026-04-10T09:42:26.661Z</time></trkpt><trkpt lat="42.2019713" lon="13.5213965"><ele>1283.3999999999999</ele><time>2026-04-10T09:42:27.664Z</time></trkpt><trkpt lat="42.2020587" lon="13.521495"><ele>1284.6</ele><time>2026-04-10T09:42:28.662Z</time></trkpt><trkpt lat="42.2021425" lon="13.5215864"><ele>1285.8</ele><time>2026-04-10T09:42:29.67Z</time></trkpt><trkpt lat="42.2022287" lon="13.521666"><ele>1287.0</ele><time>2026-04-10T09:42:30.663Z</time></trkpt><trkpt lat="42.2023247" lon="13.5217175"><ele>1285.8</ele><time>2026-04-10T09:42:31.658Z</time></trkpt><trkpt lat="42.2024128" lon="13.5217621"><ele>1284.6</ele><time>2026-04-10T09:42:32.65Z</time></trkpt><trkpt lat="42.2024994" lon="13.5217819"><ele>1283.3999999999999</ele><time>2026-04-10T09:42:33.657Z</time></trkpt><trkpt lat="42.2026108" lon="13.5217717"><ele>1282.1999999999998</ele><time>2026-04-10T09:42:34.651Z</time></trkpt><trkpt lat="42.2027377" lon="13.5217488"><ele>1281.0</ele><time>2026-04-10T09:42:35.648Z</time></trkpt><trkpt lat="42.2028852" lon="13.5217104"><ele>1281.0</ele><time>2026-04-10T09:42:36.64Z</time></trkpt><trkpt lat="42.2030428" lon="13.5216892"><ele>1281.0</ele><time>2026-04-10T09:42:37.641Z</time></trkpt><trkpt lat="42.2031987" lon="13.5216624"><ele>1281.0</ele><time>2026-04-10T09:42:38.645Z</time></trkpt><trkpt lat="42.2033527" lon="13.5216408"><ele>1281.4</ele><time>2026-04-10T09:42:39.64Z</time></trkpt><trkpt lat="42.2034861" lon="13.5216058"><ele>1281.8</ele><time>2026-04-10T09:42:40.642Z</time></trkpt><trkpt lat="42.2035958" lon="13.5216026"><ele>1282.2</ele><time>2026-04-10T09:42:41.643Z</time></trkpt><trkpt lat="42.2036718" lon="13.521601"><ele>1282.6000000000001</ele><time>2026-04-10T09:42:42.649Z</time></trkpt><trkpt lat="42.2037546" lon="13.5216489"><ele>1283.0</ele><time>2026-04-10T09:42:43.65Z</time></trkpt><trkpt lat="42.2038325" lon="13.5217179"><ele>1283.0</ele><time>2026-04-10T09:42:44.645Z</time></trkpt><trkpt lat="42.2038386" lon="13.5218881"><ele>1283.0</ele><time>2026-04-10T09:42:45.657Z</time></trkpt><trkpt lat="42.2038528" lon="13.5220567"><ele>1283.0</ele><time>2026-04-10T09:42:46.649Z</time></trkpt><trkpt lat="42.2038713" lon="13.522251"><ele>1283.0</ele><time>2026-04-10T09:42:47.647Z</time></trkpt><trkpt lat="42.2038913" lon="13.522431"><ele>1283.0</ele><time>2026-04-10T09:42:48.648Z</time></trkpt><trkpt lat="42.2039046" lon="13.5226382"><ele>1283.0</ele><time>2026-04-10T09:42:49.64Z</time></trkpt><trkpt lat="42.203939" lon="13.522829"><ele>1283.0</ele><time>2026-04-10T09:42:50.636Z</time></trkpt><trkpt lat="42.2039562" lon="13.5230275"><ele>1283.0</ele><time>2026-04-10T09:42:51.639Z</time></trkpt><trkpt lat="42.2039639" lon="13.523201"><ele>1283.0</ele><time>2026-04-10T09:42:52.648Z</time></trkpt><trkpt lat="42.2039947" lon="13.5233536"><ele>1283.0</ele><time>2026-04-10T09:42:53.65Z</time></trkpt><trkpt lat="42.2040367" lon="13.5234903"><ele>1283.0</ele><time>2026-04-10T09:42:54.65Z</time></trkpt><trkpt lat="42.2040936" lon="13.5236389"><ele>1283.0</ele><time>2026-04-10T09:42:55.649Z</time></trkpt><trkpt lat="42.2041489" lon="13.5237731"><ele>1284.75</ele><time>2026-04-10T09:42:56.648Z</time></trkpt><trkpt lat="42.2042441" lon="13.5238941"><ele>1286.5</ele><time>2026-04-10T09:42:57.653Z</time></trkpt><trkpt lat="42.2043368" lon="13.5240156"><ele>1288.25</ele><time>2026-04-10T09:42:58.645Z</time></trkpt><trkpt lat="42.2044315" lon="13.5241204"><ele>1290.0</ele><time>2026-04-10T09:42:59.655Z</time></trkpt><trkpt lat="42.2045288" lon="13.5242054"><ele>1290.0</ele><time>2026-04-10T09:43:00.658Z</time></trkpt><trkpt lat="42.2046595" lon="13.5242674"><ele>1290.0</ele><time>2026-04-10T09:43:01.658Z</time></trkpt><trkpt lat="42.2047919" lon="13.5242922"><ele>1290.0</ele><time>2026-04-10T09:43:02.653Z</time></trkpt><trkpt lat="42.2049306" lon="13.5242677"><ele>1290.0</ele><time>2026-04-10T09:43:03.66Z</time></trkpt><trkpt lat="42.2050679" lon="13.5242005"><ele>1292.0</ele><time>2026-04-10T09:43:04.653Z</time></trkpt><trkpt lat="42.2051946" lon="13.5241105"><ele>1294.0</ele><time>2026-04-10T09:43:05.656Z</time></trkpt><trkpt lat="42.2053164" lon="13.5240233"><ele>1296.0</ele><time>2026-04-10T09:43:06.648Z</time></trkpt><trkpt lat="42.2054251" lon="13.5239203"><ele>1298.0</ele><time>2026-04-10T09:43:07.658Z</time></trkpt><trkpt lat="42.2055238" lon="13.5237929"><ele>1298.75</ele><time>2026-04-10T09:43:08.648Z</time></trkpt><trkpt lat="42.2055735" lon="13.5236133"><ele>1299.5</ele><time>2026-04-10T09:43:09.647Z</time></trkpt><trkpt lat="42.2056354" lon="13.5234391"><ele>1300.25</ele><time>2026-04-10T09:43:10.649Z</time></trkpt><trkpt lat="42.2056849" lon="13.5232429"><ele>1301.0</ele><time>2026-04-10T09:43:11.658Z</time></trkpt><trkpt lat="42.2057326" lon="13.5230228"><ele>1303.6666666666667</ele><time>2026-04-10T09:43:12.657Z</time></trkpt><trkpt lat="42.2058034" lon="13.5227913"><ele>1306.3333333333333</ele><time>2026-04-10T09:43:13.66Z</time></trkpt><trkpt lat="42.2058947" lon="13.522604"><ele>1309.0</ele><time>2026-04-10T09:43:14.656Z</time></trkpt><trkpt lat="42.2059716" lon="13.5224343"><ele>1309.0</ele><time>2026-04-10T09:43:15.647Z</time></trkpt><trkpt lat="42.206036" lon="13.5223383"><ele>1309.0</ele><time>2026-04-10T09:43:16.654Z</time></trkpt><trkpt lat="42.2060667" lon="13.5222111"><ele>1309.0</ele><time>2026-04-10T09:43:17.654Z</time></trkpt><trkpt lat="42.2061235" lon="13.5221128"><ele>1309.0</ele><time>2026-04-10T09:43:18.65Z</time></trkpt><trkpt lat="42.206236" lon="13.52206"><ele>1309.0</ele><time>2026-04-10T09:43:19.647Z</time></trkpt><trkpt lat="42.2063556" lon="13.5219691"><ele>1309.5</ele><time>2026-04-10T09:43:20.655Z</time></trkpt><trkpt lat="42.2064886" lon="13.5219312"><ele>1310.0</ele><time>2026-04-10T09:43:21.656Z</time></trkpt><trkpt lat="42.2065901" lon="13.5218847"><ele>1310.5</ele><time>2026-04-10T09:43:22.657Z</time></trkpt><trkpt lat="42.2067141" lon="13.5218274"><ele>1311.0</ele><time>2026-04-10T09:43:23.657Z</time></trkpt><trkpt lat="42.2068358" lon="13.5217786"><ele>1308.25</ele><time>2026-04-10T09:43:24.658Z</time></trkpt><trkpt lat="42.2069622" lon="13.5217367"><ele>1305.5</ele><time>2026-04-10T09:43:25.66Z</time></trkpt><trkpt lat="42.2070851" lon="13.5216886"><ele>1302.75</ele><time>2026-04-10T09:43:26.655Z</time></trkpt><trkpt lat="42.2072143" lon="13.5216335"><ele>1300.0</ele><time>2026-04-10T09:43:27.654Z</time></trkpt><trkpt lat="42.2073376" lon="13.5215556"><ele>1299.25</ele><time>2026-04-10T09:43:28.654Z</time></trkpt><trkpt lat="42.2074484" lon="13.5214516"><ele>1298.5</ele><time>2026-04-10T09:43:29.659Z</time></trkpt><trkpt lat="42.2075716" lon="13.5213336"><ele>1297.75</ele><time>2026-04-10T09:43:30.658Z</time></trkpt><trkpt lat="42.2076891" lon="13.5211882"><ele>1297.0</ele><time>2026-04-10T09:43:31.654Z</time></trkpt><trkpt lat="42.2077941" lon="13.5210471"><ele>1297.0</ele><time>2026-04-10T09:43:32.649Z</time></trkpt><trkpt lat="42.2079419" lon="13.5209229"><ele>1297.0</ele><time>2026-04-10T09:43:33.645Z</time></trkpt><trkpt lat="42.2080371" lon="13.5208018"><ele>1297.0</ele><time>2026-04-10T09:43:34.651Z</time></trkpt><trkpt lat="42.208126" lon="13.5206656"><ele>1297.0</ele><time>2026-04-10T09:43:35.648Z</time></trkpt><trkpt lat="42.2082524" lon="13.5205435"><ele>1294.1999999999998</ele><time>2026-04-10T09:43:36.645Z</time></trkpt><trkpt lat="42.2083676" lon="13.5204278"><ele>1291.4</ele><time>2026-04-10T09:43:37.646Z</time></trkpt><trkpt lat="42.2084491" lon="13.5203288"><ele>1288.6</ele><time>2026-04-10T09:43:38.64Z</time></trkpt><trkpt lat="42.2085019" lon="13.5202727"><ele>1285.8000000000002</ele><time>2026-04-10T09:43:39.643Z</time></trkpt><trkpt lat="42.2086099" lon="13.5202807"><ele>1283.0</ele><time>2026-04-10T09:43:41.65Z</time></trkpt><trkpt lat="42.2086712" lon="13.5203099"><ele>1283.0</ele><time>2026-04-10T09:43:42.643Z</time></trkpt><trkpt lat="42.2087349" lon="13.5203469"><ele>1283.0</ele><time>2026-04-10T09:43:43.633Z</time></trkpt><trkpt lat="42.2088229" lon="13.5204359"><ele>1283.0</ele><time>2026-04-10T09:43:44.644Z</time></trkpt><trkpt lat="42.2089446" lon="13.5205212"><ele>1283.0</ele><time>2026-04-10T09:43:45.656Z</time></trkpt><trkpt lat="42.2090618" lon="13.5206254"><ele>1281.5</ele><time>2026-04-10T09:43:46.653Z</time></trkpt><trkpt lat="42.2091674" lon="13.5207425"><ele>1280.0</ele><time>2026-04-10T09:43:47.659Z</time></trkpt><trkpt lat="42.2092642" lon="13.5208402"><ele>1278.5</ele><time>2026-04-10T09:43:48.646Z</time></trkpt><trkpt lat="42.2093605" lon="13.5209103"><ele>1277.0</ele><time>2026-04-10T09:43:49.645Z</time></trkpt><trkpt lat="42.2094604" lon="13.5209519"><ele>1277.0</ele><time>2026-04-10T09:43:50.643Z</time></trkpt><trkpt lat="42.2095733" lon="13.5209441"><ele>1277.0</ele><time>2026-04-10T09:43:51.641Z</time></trkpt><trkpt lat="42.2096734" lon="13.5208762"><ele>1277.0</ele><time>2026-04-10T09:43:52.643Z</time></trkpt><trkpt lat="42.2097883" lon="13.5208715"><ele>1277.0</ele><time>2026-04-10T09:43:53.648Z</time></trkpt><trkpt lat="42.2098964" lon="13.5209073"><ele>1276.5</ele><time>2026-04-10T09:43:54.654Z</time></trkpt><trkpt lat="42.2100249" lon="13.5209521"><ele>1276.0</ele><time>2026-04-10T09:43:55.658Z</time></trkpt><trkpt lat="42.2101359" lon="13.5210601"><ele>1275.5</ele><time>2026-04-10T09:43:56.656Z</time></trkpt><trkpt lat="42.210252" lon="13.5211902"><ele>1275.0</ele><time>2026-04-10T09:43:57.661Z</time></trkpt><trkpt lat="42.2103997" lon="13.5213268"><ele>1273.6666666666667</ele><time>2026-04-10T09:43:58.672Z</time></trkpt><trkpt lat="42.2105194" lon="13.5215102"><ele>1272.3333333333335</ele><time>2026-04-10T09:43:59.671Z</time></trkpt><trkpt lat="42.2106441" lon="13.5216756"><ele>1271.0</ele><time>2026-04-10T09:44:00.677Z</time></trkpt><trkpt lat="42.2107469" lon="13.5218391"><ele>1271.0</ele><time>2026-04-10T09:44:01.661Z</time></trkpt><trkpt lat="42.2108559" lon="13.5219611"><ele>1271.0</ele><time>2026-04-10T09:44:02.662Z</time></trkpt><trkpt lat="42.2109577" lon="13.5220901"><ele>1271.0</ele><time>2026-04-10T09:44:03.652Z</time></trkpt><trkpt lat="42.2110537" lon="13.5221934"><ele>1271.0</ele><time>2026-04-10T09:44:04.657Z</time></trkpt><trkpt lat="42.2111402" lon="13.5223053"><ele>1271.3999999999999</ele><time>2026-04-10T09:44:05.663Z</time></trkpt><trkpt lat="42.2112115" lon="13.5223739"><ele>1271.8</ele><time>2026-04-10T09:44:06.654Z</time></trkpt><trkpt lat="42.2112961" lon="13.5224765"><ele>1272.1999999999998</ele><time>2026-04-10T09:44:07.654Z</time></trkpt><trkpt lat="42.2113824" lon="13.5225679"><ele>1272.6</ele><time>2026-04-10T09:44:08.653Z</time></trkpt><trkpt lat="42.2114662" lon="13.5226294"><ele>1273.0</ele><time>2026-04-10T09:44:09.651Z</time></trkpt><trkpt lat="42.2115528" lon="13.5226691"><ele>1273.0</ele><time>2026-04-10T09:44:10.655Z</time></trkpt><trkpt lat="42.211648" lon="13.5227174"><ele>1273.0</ele><time>2026-04-10T09:44:11.657Z</time></trkpt><trkpt lat="42.2117502" lon="13.5227554"><ele>1273.0</ele><time>2026-04-10T09:44:12.654Z</time></trkpt><trkpt lat="42.2118579" lon="13.5228299"><ele>1273.0</ele><time>2026-04-10T09:44:13.652Z</time></trkpt><trkpt lat="42.2119666" lon="13.5229146"><ele>1273.0</ele><time>2026-04-10T09:44:14.655Z</time></trkpt><trkpt lat="42.2120802" lon="13.5230152"><ele>1273.0</ele><time>2026-04-10T09:44:15.646Z</time></trkpt><trkpt lat="42.2121799" lon="13.5231482"><ele>1273.0</ele><time>2026-04-10T09:44:16.662Z</time></trkpt><trkpt lat="42.2122751" lon="13.5233037"><ele>1273.0</ele><time>2026-04-10T09:44:17.667Z</time></trkpt><trkpt lat="42.2123576" lon="13.5235032"><ele>1273.0</ele><time>2026-04-10T09:44:18.672Z</time></trkpt><trkpt lat="42.2124665" lon="13.5236772"><ele>1273.0</ele><time>2026-04-10T09:44:19.665Z</time></trkpt><trkpt lat="42.2125626" lon="13.5238431"><ele>1273.0</ele><time>2026-04-10T09:44:20.658Z</time></trkpt><trkpt lat="42.2126537" lon="13.5240252"><ele>1273.0</ele><time>2026-04-10T09:44:21.688Z</time></trkpt><trkpt lat="42.2127471" lon="13.524201"><ele>1273.0</ele><time>2026-04-10T09:44:22.747Z</time></trkpt><trkpt lat="42.2128439" lon="13.5243776"><ele>1273.0</ele><time>2026-04-10T09:44:23.742Z</time></trkpt><trkpt lat="42.2129439" lon="13.5245506"><ele>1272.0</ele><time>2026-04-10T09:44:24.745Z</time></trkpt><trkpt lat="42.2130401" lon="13.5247281"><ele>1271.0</ele><time>2026-04-10T09:44:25.747Z</time></trkpt><trkpt lat="42.2131397" lon="13.5249069"><ele>1270.0</ele><time>2026-04-10T09:44:26.757Z</time></trkpt><trkpt lat="42.2132362" lon="13.5250938"><ele>1270.0</ele><time>2026-04-10T09:44:27.755Z</time></trkpt><trkpt lat="42.213334" lon="13.5252885"><ele>1270.0</ele><time>2026-04-10T09:44:28.744Z</time></trkpt><trkpt lat="42.2134295" lon="13.5254946"><ele>1270.0</ele><time>2026-04-10T09:44:29.764Z</time></trkpt><trkpt lat="42.2135181" lon="13.5257128"><ele>1270.0</ele><time>2026-04-10T09:44:30.76Z</time></trkpt><trkpt lat="42.2136161" lon="13.525912"><ele>1270.0</ele><time>2026-04-10T09:44:31.755Z</time></trkpt><trkpt lat="42.2136864" lon="13.5261712"><ele>1270.0</ele><time>2026-04-10T09:44:32.736Z</time></trkpt><trkpt lat="42.2137365" lon="13.5264481"><ele>1270.0</ele><time>2026-04-10T09:44:33.738Z</time></trkpt><trkpt lat="42.2137769" lon="13.5267282"><ele>1270.0</ele><time>2026-04-10T09:44:34.742Z</time></trkpt><trkpt lat="42.2138142" lon="13.5270131"><ele>1270.0</ele><time>2026-04-10T09:44:35.743Z</time></trkpt><trkpt lat="42.2138468" lon="13.5272904"><ele>1269.3333333333333</ele><time>2026-04-10T09:44:36.761Z</time></trkpt><trkpt lat="42.2138882" lon="13.5275549"><ele>1268.6666666666667</ele><time>2026-04-10T09:44:37.755Z</time></trkpt><trkpt lat="42.2139537" lon="13.5277846"><ele>1268.0</ele><time>2026-04-10T09:44:38.752Z</time></trkpt><trkpt lat="42.2140596" lon="13.5279884"><ele>1268.0</ele><time>2026-04-10T09:44:39.744Z</time></trkpt><trkpt lat="42.2141988" lon="13.5281771"><ele>1268.0</ele><time>2026-04-10T09:44:40.726Z</time></trkpt><trkpt lat="42.2143634" lon="13.5283604"><ele>1268.0</ele><time>2026-04-10T09:44:41.715Z</time></trkpt><trkpt lat="42.2145468" lon="13.5285507"><ele>1268.0</ele><time>2026-04-10T09:44:42.711Z</time></trkpt><trkpt lat="42.2147036" lon="13.5287143"><ele>1268.0</ele><time>2026-04-10T09:44:43.727Z</time></trkpt><trkpt lat="42.2148906" lon="13.5289013"><ele>1268.0</ele><time>2026-04-10T09:44:44.749Z</time></trkpt><trkpt lat="42.2150806" lon="13.5290931"><ele>1267.5</ele><time>2026-04-10T09:44:45.755Z</time></trkpt><trkpt lat="42.2152879" lon="13.5292674"><ele>1267.0</ele><time>2026-04-10T09:44:46.75Z</time></trkpt><trkpt lat="42.2155042" lon="13.5294298"><ele>1266.0</ele><time>2026-04-10T09:44:47.756Z</time></trkpt><trkpt lat="42.2157215" lon="13.5295787"><ele>1265.0</ele><time>2026-04-10T09:44:48.759Z</time></trkpt><trkpt lat="42.2159399" lon="13.5297219"><ele>1265.0</ele><time>2026-04-10T09:44:49.757Z</time></trkpt><trkpt lat="42.2161577" lon="13.5298636"><ele>1265.0</ele><time>2026-04-10T09:44:50.754Z</time></trkpt><trkpt lat="42.2163775" lon="13.5300009"><ele>1264.0</ele><time>2026-04-10T09:44:51.757Z</time></trkpt><trkpt lat="42.2165873" lon="13.5301387"><ele>1263.0</ele><time>2026-04-10T09:44:52.755Z</time></trkpt><trkpt lat="42.2167851" lon="13.530271"><ele>1262.6666666666667</ele><time>2026-04-10T09:44:53.758Z</time></trkpt><trkpt lat="42.2169692" lon="13.5303949"><ele>1262.3333333333335</ele><time>2026-04-10T09:44:54.753Z</time></trkpt><trkpt lat="42.217144" lon="13.5305071"><ele>1262.0</ele><time>2026-04-10T09:44:55.755Z</time></trkpt><trkpt lat="42.2173148" lon="13.5306154"><ele>1262.6666666666667</ele><time>2026-04-10T09:44:56.762Z</time></trkpt><trkpt lat="42.2174826" lon="13.5307191"><ele>1263.3333333333333</ele><time>2026-04-10T09:44:57.753Z</time></trkpt><trkpt lat="42.2176539" lon="13.5308153"><ele>1264.0</ele><time>2026-04-10T09:44:58.765Z</time></trkpt><trkpt lat="42.2178258" lon="13.5309081"><ele>1264.0</ele><time>2026-04-10T09:44:59.774Z</time></trkpt><trkpt lat="42.2180063" lon="13.5309994"><ele>1264.0</ele><time>2026-04-10T09:45:00.778Z</time></trkpt><trkpt lat="42.2181904" lon="13.5310934"><ele>1264.0</ele><time>2026-04-10T09:45:01.76Z</time></trkpt><trkpt lat="42.2183732" lon="13.5311854"><ele>1262.0</ele><time>2026-04-10T09:45:02.758Z</time></trkpt><trkpt lat="42.2185474" lon="13.5312735"><ele>1260.0</ele><time>2026-04-10T09:45:03.995Z</time></trkpt><trkpt lat="42.218869" lon="13.5314371"><ele>1260.25</ele><time>2026-04-10T09:45:05.762Z</time></trkpt><trkpt lat="42.2190124" lon="13.531512"><ele>1260.5</ele><time>2026-04-10T09:45:06.762Z</time></trkpt><trkpt lat="42.2191449" lon="13.5315833"><ele>1260.75</ele><time>2026-04-10T09:45:07.763Z</time></trkpt><trkpt lat="42.2192713" lon="13.5316447"><ele>1261.0</ele><time>2026-04-10T09:45:08.761Z</time></trkpt><trkpt lat="42.2193789" lon="13.531686"><ele>1261.0</ele><time>2026-04-10T09:45:09.756Z</time></trkpt><trkpt lat="42.2194805" lon="13.5317169"><ele>1261.0</ele><time>2026-04-10T09:45:10.764Z</time></trkpt><trkpt lat="42.2195503" lon="13.5317229"><ele>1261.0</ele><time>2026-04-10T09:45:11.756Z</time></trkpt><trkpt lat="42.219617" lon="13.5316845"><ele>1261.0</ele><time>2026-04-10T09:45:13.741Z</time></trkpt><trkpt lat="42.2196413" lon="13.5315634"><ele>1261.0</ele><time>2026-04-10T09:45:16.754Z</time></trkpt><trkpt lat="42.2196655" lon="13.5314061"><ele>1261.0</ele><time>2026-04-10T09:45:18.749Z</time></trkpt><trkpt lat="42.219704" lon="13.5312931"><ele>1261.0</ele><time>2026-04-10T09:45:19.747Z</time></trkpt><trkpt lat="42.2196748" lon="13.5311764"><ele>1261.0</ele><time>2026-04-10T09:45:20.66Z</time></trkpt><trkpt lat="42.219739" lon="13.5310302"><ele>1261.0</ele><time>2026-04-10T09:45:21.648Z</time></trkpt><trkpt lat="42.2198104" lon="13.530829"><ele>1261.0</ele><time>2026-04-10T09:45:22.653Z</time></trkpt><trkpt lat="42.2198698" lon="13.5306176"><ele>1261.0</ele><time>2026-04-10T09:45:23.649Z</time></trkpt><trkpt lat="42.2199526" lon="13.5303634"><ele>1261.0</ele><time>2026-04-10T09:45:24.662Z</time></trkpt><trkpt lat="42.2200204" lon="13.5301354"><ele>1261.3333333333333</ele><time>2026-04-10T09:45:25.661Z</time></trkpt><trkpt lat="42.2201123" lon="13.5299215"><ele>1261.6666666666667</ele><time>2026-04-10T09:45:26.665Z</time></trkpt><trkpt lat="42.2201918" lon="13.5297011"><ele>1262.0</ele><time>2026-04-10T09:45:27.671Z</time></trkpt><trkpt lat="42.2203023" lon="13.5294686"><ele>1262.3333333333335</ele><time>2026-04-10T09:45:28.675Z</time></trkpt><trkpt lat="42.2203747" lon="13.5292596"><ele>1262.6666666666667</ele><time>2026-04-10T09:45:29.681Z</time></trkpt><trkpt lat="42.2204283" lon="13.5290448"><ele>1263.0</ele><time>2026-04-10T09:45:30.684Z</time></trkpt><trkpt lat="42.2204856" lon="13.5288516"><ele>1262.3333333333333</ele><time>2026-04-10T09:45:31.683Z</time></trkpt><trkpt lat="42.2205511" lon="13.5286696"><ele>1261.6666666666665</ele><time>2026-04-10T09:45:32.681Z</time></trkpt><trkpt lat="42.2206088" lon="13.5284736"><ele>1261.0</ele><time>2026-04-10T09:45:33.679Z</time></trkpt><trkpt lat="42.2206831" lon="13.5282827"><ele>1260.5</ele><time>2026-04-10T09:45:34.68Z</time></trkpt><trkpt lat="42.220745" lon="13.5280977"><ele>1260.0</ele><time>2026-04-10T09:45:35.677Z</time></trkpt><trkpt lat="42.2207949" lon="13.5279"><ele>1259.5</ele><time>2026-04-10T09:45:36.679Z</time></trkpt><trkpt lat="42.2208451" lon="13.5277305"><ele>1259.0</ele><time>2026-04-10T09:45:37.681Z</time></trkpt><trkpt lat="42.220896" lon="13.5275552"><ele>1259.0</ele><time>2026-04-10T09:45:38.683Z</time></trkpt><trkpt lat="42.2209588" lon="13.5273735"><ele>1259.0</ele><time>2026-04-10T09:45:39.68Z</time></trkpt><trkpt lat="42.2210154" lon="13.5271838"><ele>1259.0</ele><time>2026-04-10T09:45:40.682Z</time></trkpt><trkpt lat="42.2210776" lon="13.5269898"><ele>1260.0</ele><time>2026-04-10T09:45:41.686Z</time></trkpt><trkpt lat="42.2211377" lon="13.5267697"><ele>1261.0</ele><time>2026-04-10T09:45:42.681Z</time></trkpt><trkpt lat="42.2211895" lon="13.5265888"><ele>1262.0</ele><time>2026-04-10T09:45:43.681Z</time></trkpt><trkpt lat="42.2212469" lon="13.5264161"><ele>1262.0</ele><time>2026-04-10T09:45:44.679Z</time></trkpt><trkpt lat="42.2213133" lon="13.526235"><ele>1262.0</ele><time>2026-04-10T09:45:45.68Z</time></trkpt><trkpt lat="42.2213706" lon="13.526075"><ele>1262.0</ele><time>2026-04-10T09:45:46.676Z</time></trkpt><trkpt lat="42.2214272" lon="13.5259329"><ele>1262.0</ele><time>2026-04-10T09:45:47.674Z</time></trkpt><trkpt lat="42.2214703" lon="13.5258201"><ele>1262.0</ele><time>2026-04-10T09:45:48.682Z</time></trkpt><trkpt lat="42.2215016" lon="13.5256954"><ele>1262.0</ele><time>2026-04-10T09:45:49.69Z</time></trkpt><trkpt lat="42.2215502" lon="13.5255477"><ele>1262.0</ele><time>2026-04-10T09:45:50.685Z</time></trkpt><trkpt lat="42.221596" lon="13.5253961"><ele>1262.0</ele><time>2026-04-10T09:45:51.69Z</time></trkpt><trkpt lat="42.2216451" lon="13.5252378"><ele>1262.0</ele><time>2026-04-10T09:45:52.683Z</time></trkpt><trkpt lat="42.2216996" lon="13.5250758"><ele>1262.0</ele><time>2026-04-10T09:45:53.685Z</time></trkpt><trkpt lat="42.2217487" lon="13.5249234"><ele>1262.0</ele><time>2026-04-10T09:45:54.687Z</time></trkpt><trkpt lat="42.2217955" lon="13.5247701"><ele>1262.0</ele><time>2026-04-10T09:45:55.689Z</time></trkpt><trkpt lat="42.2218429" lon="13.5246125"><ele>1261.75</ele><time>2026-04-10T09:45:56.683Z</time></trkpt><trkpt lat="42.2218866" lon="13.5244611"><ele>1261.5</ele><time>2026-04-10T09:45:57.687Z</time></trkpt><trkpt lat="42.2219344" lon="13.5243098"><ele>1261.25</ele><time>2026-04-10T09:45:58.681Z</time></trkpt><trkpt lat="42.2219822" lon="13.5241599"><ele>1261.0</ele><time>2026-04-10T09:45:59.689Z</time></trkpt><trkpt lat="42.2220274" lon="13.5240084"><ele>1261.0</ele><time>2026-04-10T09:46:00.689Z</time></trkpt><trkpt lat="42.2220773" lon="13.5238576"><ele>1261.0</ele><time>2026-04-10T09:46:01.687Z</time></trkpt><trkpt lat="42.2221338" lon="13.5237125"><ele>1261.0</ele><time>2026-04-10T09:46:02.684Z</time></trkpt><trkpt lat="42.2221976" lon="13.5235645"><ele>1261.0</ele><time>2026-04-10T09:46:03.685Z</time></trkpt><trkpt lat="42.2222726" lon="13.5234086"><ele>1260.5</ele><time>2026-04-10T09:46:04.685Z</time></trkpt><trkpt lat="42.2223501" lon="13.5232544"><ele>1260.0</ele><time>2026-04-10T09:46:05.684Z</time></trkpt><trkpt lat="42.222435" lon="13.5231011"><ele>1259.5</ele><time>2026-04-10T09:46:06.681Z</time></trkpt><trkpt lat="42.2225334" lon="13.5229565"><ele>1259.0</ele><time>2026-04-10T09:46:07.681Z</time></trkpt><trkpt lat="42.2226259" lon="13.5228064"><ele>1258.75</ele><time>2026-04-10T09:46:08.684Z</time></trkpt><trkpt lat="42.2227324" lon="13.5226588"><ele>1258.5</ele><time>2026-04-10T09:46:09.682Z</time></trkpt><trkpt lat="42.2228342" lon="13.5225178"><ele>1258.25</ele><time>2026-04-10T09:46:10.681Z</time></trkpt><trkpt lat="42.2229421" lon="13.5223883"><ele>1258.0</ele><time>2026-04-10T09:46:11.679Z</time></trkpt><trkpt lat="42.2230655" lon="13.5222628"><ele>1258.5</ele><time>2026-04-10T09:46:12.687Z</time></trkpt><trkpt lat="42.2231828" lon="13.5221579"><ele>1259.0</ele><time>2026-04-10T09:46:13.679Z</time></trkpt><trkpt lat="42.2233019" lon="13.5220696"><ele>1259.5</ele><time>2026-04-10T09:46:14.682Z</time></trkpt><trkpt lat="42.2234173" lon="13.5219875"><ele>1260.0</ele><time>2026-04-10T09:46:15.674Z</time></trkpt><trkpt lat="42.2235365" lon="13.5218937"><ele>1260.25</ele><time>2026-04-10T09:46:16.676Z</time></trkpt><trkpt lat="42.2236591" lon="13.5218022"><ele>1260.5</ele><time>2026-04-10T09:46:17.678Z</time></trkpt><trkpt lat="42.2237819" lon="13.5217232"><ele>1260.75</ele><time>2026-04-10T09:46:18.683Z</time></trkpt><trkpt lat="42.2239088" lon="13.5216381"><ele>1261.0</ele><time>2026-04-10T09:46:19.687Z</time></trkpt><trkpt lat="42.2240507" lon="13.5215458"><ele>1260.6666666666665</ele><time>2026-04-10T09:46:20.691Z</time></trkpt><trkpt lat="42.2242057" lon="13.5214489"><ele>1260.3333333333333</ele><time>2026-04-10T09:46:21.688Z</time></trkpt><trkpt lat="42.224362" lon="13.5213414"><ele>1260.0</ele><time>2026-04-10T09:46:22.696Z</time></trkpt><trkpt lat="42.2245177" lon="13.521228"><ele>1260.0</ele><time>2026-04-10T09:46:23.683Z</time></trkpt><trkpt lat="42.224667" lon="13.521115"><ele>1260.0</ele><time>2026-04-10T09:46:24.685Z</time></trkpt><trkpt lat="42.2248165" lon="13.5210148"><ele>1260.0</ele><time>2026-04-10T09:46:25.685Z</time></trkpt><trkpt lat="42.2249533" lon="13.5209386"><ele>1259.5</ele><time>2026-04-10T09:46:26.68Z</time></trkpt><trkpt lat="42.2250786" lon="13.5208708"><ele>1259.0</ele><time>2026-04-10T09:46:27.683Z</time></trkpt><trkpt lat="42.2252012" lon="13.5208016"><ele>1258.5</ele><time>2026-04-10T09:46:28.68Z</time></trkpt><trkpt lat="42.225338" lon="13.5207183"><ele>1258.0</ele><time>2026-04-10T09:46:29.689Z</time></trkpt><trkpt lat="42.225473" lon="13.5206379"><ele>1258.0</ele><time>2026-04-10T09:46:30.688Z</time></trkpt><trkpt lat="42.2256" lon="13.5205511"><ele>1258.0</ele><time>2026-04-10T09:46:31.686Z</time></trkpt><trkpt lat="42.2257457" lon="13.5204607"><ele>1258.0</ele><time>2026-04-10T09:46:32.683Z</time></trkpt><trkpt lat="42.2258848" lon="13.5203741"><ele>1258.3333333333333</ele><time>2026-04-10T09:46:33.686Z</time></trkpt><trkpt lat="42.2260288" lon="13.5202707"><ele>1258.6666666666667</ele><time>2026-04-10T09:46:34.685Z</time></trkpt><trkpt lat="42.2261742" lon="13.5201626"><ele>1259.0</ele><time>2026-04-10T09:46:35.687Z</time></trkpt><trkpt lat="42.2263377" lon="13.5200457"><ele>1259.3333333333335</ele><time>2026-04-10T09:46:36.686Z</time></trkpt><trkpt lat="42.2265026" lon="13.5199353"><ele>1259.6666666666667</ele><time>2026-04-10T09:46:37.688Z</time></trkpt><trkpt lat="42.2266663" lon="13.5198257"><ele>1260.0</ele><time>2026-04-10T09:46:38.689Z</time></trkpt><trkpt lat="42.2268093" lon="13.519727"><ele>1260.0</ele><time>2026-04-10T09:46:39.685Z</time></trkpt><trkpt lat="42.2269736" lon="13.5196211"><ele>1260.0</ele><time>2026-04-10T09:46:40.689Z</time></trkpt><trkpt lat="42.2271499" lon="13.5195163"><ele>1260.0</ele><time>2026-04-10T09:46:41.687Z</time></trkpt><trkpt lat="42.2273247" lon="13.5194111"><ele>1260.3333333333333</ele><time>2026-04-10T09:46:42.684Z</time></trkpt><trkpt lat="42.2274922" lon="13.5193002"><ele>1260.6666666666665</ele><time>2026-04-10T09:46:43.689Z</time></trkpt><trkpt lat="42.2276575" lon="13.5191778"><ele>1261.0</ele><time>2026-04-10T09:46:44.687Z</time></trkpt><trkpt lat="42.2278226" lon="13.5190454"><ele>1261.0</ele><time>2026-04-10T09:46:45.689Z</time></trkpt><trkpt lat="42.2279804" lon="13.518912"><ele>1261.0</ele><time>2026-04-10T09:46:46.687Z</time></trkpt><trkpt lat="42.2281366" lon="13.5187797"><ele>1261.0</ele><time>2026-04-10T09:46:47.692Z</time></trkpt><trkpt lat="42.2282753" lon="13.5186301"><ele>1260.6666666666665</ele><time>2026-04-10T09:46:48.688Z</time></trkpt><trkpt lat="42.2284192" lon="13.5184786"><ele>1260.3333333333333</ele><time>2026-04-10T09:46:49.683Z</time></trkpt><trkpt lat="42.2285591" lon="13.518316"><ele>1260.0</ele><time>2026-04-10T09:46:50.685Z</time></trkpt><trkpt lat="42.2286888" lon="13.5181691"><ele>1260.0</ele><time>2026-04-10T09:46:51.681Z</time></trkpt><trkpt lat="42.228822" lon="13.5180163"><ele>1260.0</ele><time>2026-04-10T09:46:52.688Z</time></trkpt><trkpt lat="42.228954" lon="13.5178657"><ele>1260.0</ele><time>2026-04-10T09:46:53.689Z</time></trkpt><trkpt lat="42.2290835" lon="13.517703"><ele>1260.0</ele><time>2026-04-10T09:46:54.684Z</time></trkpt><trkpt lat="42.2292081" lon="13.5175314"><ele>1260.0</ele><time>2026-04-10T09:46:55.682Z</time></trkpt><trkpt lat="42.2293307" lon="13.5173532"><ele>1260.0</ele><time>2026-04-10T09:46:56.681Z</time></trkpt><trkpt lat="42.2294506" lon="13.5171681"><ele>1260.0</ele><time>2026-04-10T09:46:57.679Z</time></trkpt><trkpt lat="42.2295723" lon="13.5169858"><ele>1260.0</ele><time>2026-04-10T09:46:58.672Z</time></trkpt><trkpt lat="42.2296827" lon="13.5167982"><ele>1260.0</ele><time>2026-04-10T09:46:59.684Z</time></trkpt><trkpt lat="42.2298033" lon="13.5165942"><ele>1260.0</ele><time>2026-04-10T09:47:00.685Z</time></trkpt><trkpt lat="42.2299245" lon="13.5163782"><ele>1260.0</ele><time>2026-04-10T09:47:01.684Z</time></trkpt><trkpt lat="42.2300435" lon="13.5161622"><ele>1260.0</ele><time>2026-04-10T09:47:02.679Z</time></trkpt><trkpt lat="42.2301616" lon="13.5159528"><ele>1260.0</ele><time>2026-04-10T09:47:03.678Z</time></trkpt><trkpt lat="42.2302769" lon="13.5157382"><ele>1260.0</ele><time>2026-04-10T09:47:04.677Z</time></trkpt><trkpt lat="42.2304028" lon="13.5155153"><ele>1260.0</ele><time>2026-04-10T09:47:05.675Z</time></trkpt><trkpt lat="42.2305051" lon="13.5153242"><ele>1260.0</ele><time>2026-04-10T09:47:06.677Z</time></trkpt><trkpt lat="42.2306144" lon="13.5151269"><ele>1260.0</ele><time>2026-04-10T09:47:07.676Z</time></trkpt><trkpt lat="42.2307212" lon="13.5149173"><ele>1260.0</ele><time>2026-04-10T09:47:08.681Z</time></trkpt><trkpt lat="42.2308405" lon="13.5147074"><ele>1259.6666666666667</ele><time>2026-04-10T09:47:09.679Z</time></trkpt><trkpt lat="42.2309588" lon="13.5144973"><ele>1259.3333333333335</ele><time>2026-04-10T09:47:10.675Z</time></trkpt><trkpt lat="42.2310788" lon="13.5142878"><ele>1259.0</ele><time>2026-04-10T09:47:11.689Z</time></trkpt><trkpt lat="42.2311942" lon="13.5140828"><ele>1259.0</ele><time>2026-04-10T09:47:12.681Z</time></trkpt><trkpt lat="42.2313123" lon="13.5138785"><ele>1259.0</ele><time>2026-04-10T09:47:13.689Z</time></trkpt><trkpt lat="42.2314396" lon="13.5136678"><ele>1259.0</ele><time>2026-04-10T09:47:14.678Z</time></trkpt><trkpt lat="42.2315628" lon="13.5134506"><ele>1258.6666666666667</ele><time>2026-04-10T09:47:15.683Z</time></trkpt><trkpt lat="42.2316854" lon="13.5132369"><ele>1258.3333333333333</ele><time>2026-04-10T09:47:16.685Z</time></trkpt><trkpt lat="42.2318023" lon="13.5130352"><ele>1258.0</ele><time>2026-04-10T09:47:17.684Z</time></trkpt><trkpt lat="42.2319209" lon="13.5128306"><ele>1259.3333333333333</ele><time>2026-04-10T09:47:18.681Z</time></trkpt><trkpt lat="42.2320454" lon="13.5126176"><ele>1260.6666666666667</ele><time>2026-04-10T09:47:19.682Z</time></trkpt><trkpt lat="42.2321446" lon="13.512425"><ele>1262.0</ele><time>2026-04-10T09:47:20.686Z</time></trkpt><trkpt lat="42.2322537" lon="13.5122285"><ele>1261.6666666666667</ele><time>2026-04-10T09:47:21.687Z</time></trkpt><trkpt lat="42.2323699" lon="13.51204"><ele>1261.3333333333333</ele><time>2026-04-10T09:47:22.683Z</time></trkpt><trkpt lat="42.2325045" lon="13.511842"><ele>1261.0</ele><time>2026-04-10T09:47:23.684Z</time></trkpt><trkpt lat="42.2326527" lon="13.5116511"><ele>1261.0</ele><time>2026-04-10T09:47:24.68Z</time></trkpt><trkpt lat="42.23281" lon="13.5114659"><ele>1261.0</ele><time>2026-04-10T09:47:25.682Z</time></trkpt><trkpt lat="42.2329524" lon="13.511264"><ele>1261.0</ele><time>2026-04-10T09:47:26.68Z</time></trkpt><trkpt lat="42.2331015" lon="13.511083"><ele>1260.3333333333333</ele><time>2026-04-10T09:47:27.679Z</time></trkpt><trkpt lat="42.2332658" lon="13.5109155"><ele>1259.6666666666667</ele><time>2026-04-10T09:47:28.677Z</time></trkpt><trkpt lat="42.2334331" lon="13.5107643"><ele>1259.0</ele><time>2026-04-10T09:47:29.681Z</time></trkpt><trkpt lat="42.2336022" lon="13.510615"><ele>1259.0</ele><time>2026-04-10T09:47:30.682Z</time></trkpt><trkpt lat="42.2337906" lon="13.5104782"><ele>1259.0</ele><time>2026-04-10T09:47:31.673Z</time></trkpt><trkpt lat="42.2339752" lon="13.5103555"><ele>1259.0</ele><time>2026-04-10T09:47:32.675Z</time></trkpt><trkpt lat="42.2341441" lon="13.5102521"><ele>1259.3333333333335</ele><time>2026-04-10T09:47:33.664Z</time></trkpt><trkpt lat="42.2343198" lon="13.5101501"><ele>1259.6666666666667</ele><time>2026-04-10T09:47:34.659Z</time></trkpt><trkpt lat="42.234477" lon="13.5100664"><ele>1260.0</ele><time>2026-04-10T09:47:35.664Z</time></trkpt><trkpt lat="42.2346608" lon="13.5099781"><ele>1259.0</ele><time>2026-04-10T09:47:36.666Z</time></trkpt><trkpt lat="42.2348306" lon="13.5098916"><ele>1258.0</ele><time>2026-04-10T09:47:37.673Z</time></trkpt><trkpt lat="42.2349929" lon="13.509816"><ele>1257.0</ele><time>2026-04-10T09:47:38.674Z</time></trkpt><trkpt lat="42.2351687" lon="13.5097429"><ele>1257.0</ele><time>2026-04-10T09:47:39.674Z</time></trkpt><trkpt lat="42.2353474" lon="13.5096752"><ele>1257.0</ele><time>2026-04-10T09:47:40.676Z</time></trkpt><trkpt lat="42.2355284" lon="13.5095981"><ele>1257.0</ele><time>2026-04-10T09:47:41.681Z</time></trkpt><trkpt lat="42.2357197" lon="13.5095216"><ele>1258.6666666666667</ele><time>2026-04-10T09:47:42.671Z</time></trkpt><trkpt lat="42.2358981" lon="13.5094461"><ele>1260.3333333333335</ele><time>2026-04-10T09:47:43.675Z</time></trkpt><trkpt lat="42.2360749" lon="13.5093678"><ele>1262.0</ele><time>2026-04-10T09:47:44.673Z</time></trkpt><trkpt lat="42.2362463" lon="13.5092946"><ele>1262.0</ele><time>2026-04-10T09:47:45.67Z</time></trkpt><trkpt lat="42.2363944" lon="13.5092289"><ele>1262.0</ele><time>2026-04-10T09:47:46.655Z</time></trkpt><trkpt lat="42.2365202" lon="13.5091733"><ele>1262.0</ele><time>2026-04-10T09:47:47.66Z</time></trkpt><trkpt lat="42.2365928" lon="13.5091431"><ele>1262.0</ele><time>2026-04-10T09:47:48.653Z</time></trkpt><trkpt lat="42.2365555" lon="13.509048"><ele>1262.0</ele><time>2026-04-10T09:47:52.669Z</time></trkpt><trkpt lat="42.2364725" lon="13.5089169"><ele>1262.0</ele><time>2026-04-10T09:47:54.664Z</time></trkpt><trkpt lat="42.2364162" lon="13.5088254"><ele>1262.0</ele><time>2026-04-10T09:47:55.665Z</time></trkpt><trkpt lat="42.2363572" lon="13.5087308"><ele>1262.0</ele><time>2026-04-10T09:47:56.656Z</time></trkpt><trkpt lat="42.2362839" lon="13.5086497"><ele>1262.0</ele><time>2026-04-10T09:47:57.652Z</time></trkpt><trkpt lat="42.2361594" lon="13.5085908"><ele>1262.0</ele><time>2026-04-10T09:47:58.66Z</time></trkpt><trkpt lat="42.2360159" lon="13.5085307"><ele>1262.0</ele><time>2026-04-10T09:47:59.664Z</time></trkpt><trkpt lat="42.2358721" lon="13.5084602"><ele>1262.0</ele><time>2026-04-10T09:48:00.673Z</time></trkpt><trkpt lat="42.2357343" lon="13.5083399"><ele>1262.0</ele><time>2026-04-10T09:48:01.674Z</time></trkpt><trkpt lat="42.2356127" lon="13.5082222"><ele>1262.0</ele><time>2026-04-10T09:48:02.667Z</time></trkpt><trkpt lat="42.2355238" lon="13.5080773"><ele>1262.0</ele><time>2026-04-10T09:48:03.665Z</time></trkpt><trkpt lat="42.2354563" lon="13.5079064"><ele>1262.0</ele><time>2026-04-10T09:48:04.66Z</time></trkpt><trkpt lat="42.2354009" lon="13.5077084"><ele>1262.0</ele><time>2026-04-10T09:48:05.66Z</time></trkpt><trkpt lat="42.2353615" lon="13.5074876"><ele>1262.0</ele><time>2026-04-10T09:48:06.663Z</time></trkpt><trkpt lat="42.2353112" lon="13.5072636"><ele>1262.0</ele><time>2026-04-10T09:48:07.657Z</time></trkpt><trkpt lat="42.2352606" lon="13.5070229"><ele>1262.0</ele><time>2026-04-10T09:48:08.659Z</time></trkpt><trkpt lat="42.2352134" lon="13.5067786"><ele>1262.0</ele><time>2026-04-10T09:48:09.664Z</time></trkpt><trkpt lat="42.2351622" lon="13.5065475"><ele>1262.0</ele><time>2026-04-10T09:48:10.668Z</time></trkpt><trkpt lat="42.235104" lon="13.5063299"><ele>1262.0</ele><time>2026-04-10T09:48:11.664Z</time></trkpt><trkpt lat="42.2350535" lon="13.506091"><ele>1262.3333333333335</ele><time>2026-04-10T09:48:12.667Z</time></trkpt><trkpt lat="42.2349948" lon="13.5058435"><ele>1262.6666666666667</ele><time>2026-04-10T09:48:13.672Z</time></trkpt><trkpt lat="42.2349263" lon="13.5055884"><ele>1263.0</ele><time>2026-04-10T09:48:14.674Z</time></trkpt><trkpt lat="42.234871" lon="13.5053488"><ele>1263.0</ele><time>2026-04-10T09:48:15.668Z</time></trkpt><trkpt lat="42.2348085" lon="13.5051291"><ele>1263.0</ele><time>2026-04-10T09:48:16.682Z</time></trkpt><trkpt lat="42.234743" lon="13.5048959"><ele>1263.0</ele><time>2026-04-10T09:48:17.679Z</time></trkpt><trkpt lat="42.2346786" lon="13.5046733"><ele>1264.0</ele><time>2026-04-10T09:48:18.678Z</time></trkpt><trkpt lat="42.2345887" lon="13.5044425"><ele>1265.0</ele><time>2026-04-10T09:48:19.681Z</time></trkpt><trkpt lat="42.2345079" lon="13.5042066"><ele>1266.0</ele><time>2026-04-10T09:48:20.679Z</time></trkpt><trkpt lat="42.2344222" lon="13.503975"><ele>1266.0</ele><time>2026-04-10T09:48:21.68Z</time></trkpt><trkpt lat="42.2343371" lon="13.5037409"><ele>1266.0</ele><time>2026-04-10T09:48:22.68Z</time></trkpt><trkpt lat="42.2342344" lon="13.5034836"><ele>1266.0</ele><time>2026-04-10T09:48:23.683Z</time></trkpt><trkpt lat="42.2341343" lon="13.5032354"><ele>1266.0</ele><time>2026-04-10T09:48:24.677Z</time></trkpt><trkpt lat="42.2340291" lon="13.5029884"><ele>1266.0</ele><time>2026-04-10T09:48:25.686Z</time></trkpt><trkpt lat="42.2339279" lon="13.5027674"><ele>1266.0</ele><time>2026-04-10T09:48:26.68Z</time></trkpt><trkpt lat="42.2338297" lon="13.5025417"><ele>1267.0</ele><time>2026-04-10T09:48:27.68Z</time></trkpt><trkpt lat="42.2337183" lon="13.5023025"><ele>1268.0</ele><time>2026-04-10T09:48:28.677Z</time></trkpt><trkpt lat="42.233629" lon="13.5020771"><ele>1269.0</ele><time>2026-04-10T09:48:29.679Z</time></trkpt><trkpt lat="42.2335325" lon="13.5018492"><ele>1269.0</ele><time>2026-04-10T09:48:30.684Z</time></trkpt><trkpt lat="42.2334377" lon="13.5016202"><ele>1269.0</ele><time>2026-04-10T09:48:31.681Z</time></trkpt><trkpt lat="42.2333301" lon="13.5013912"><ele>1269.0</ele><time>2026-04-10T09:48:32.678Z</time></trkpt><trkpt lat="42.2332153" lon="13.5011608"><ele>1269.0</ele><time>2026-04-10T09:48:33.677Z</time></trkpt><trkpt lat="42.2330919" lon="13.5009236"><ele>1269.0</ele><time>2026-04-10T09:48:34.668Z</time></trkpt><trkpt lat="42.2329719" lon="13.5006858"><ele>1269.0</ele><time>2026-04-10T09:48:35.67Z</time></trkpt><trkpt lat="42.2328737" lon="13.5004612"><ele>1270.0</ele><time>2026-04-10T09:48:36.652Z</time></trkpt><trkpt lat="42.2327754" lon="13.5002461"><ele>1271.0</ele><time>2026-04-10T09:48:37.657Z</time></trkpt><trkpt lat="42.232674" lon="13.5000525"><ele>1272.0</ele><time>2026-04-10T09:48:38.656Z</time></trkpt><trkpt lat="42.2325762" lon="13.4998851"><ele>1272.0</ele><time>2026-04-10T09:48:39.65Z</time></trkpt><trkpt lat="42.2324929" lon="13.4997252"><ele>1272.0</ele><time>2026-04-10T09:48:40.651Z</time></trkpt><trkpt lat="42.2324118" lon="13.499565"><ele>1272.0</ele><time>2026-04-10T09:48:41.658Z</time></trkpt><trkpt lat="42.2323516" lon="13.4994289"><ele>1272.0</ele><time>2026-04-10T09:48:42.654Z</time></trkpt><trkpt lat="42.2323148" lon="13.4993078"><ele>1272.1666666666667</ele><time>2026-04-10T09:48:43.655Z</time></trkpt><trkpt lat="42.2323004" lon="13.4992137"><ele>1272.3333333333333</ele><time>2026-04-10T09:48:44.652Z</time></trkpt><trkpt lat="42.2323063" lon="13.4991107"><ele>1272.5</ele><time>2026-04-10T09:48:45.65Z</time></trkpt><trkpt lat="42.2323243" lon="13.4989918"><ele>1272.6666666666665</ele><time>2026-04-10T09:48:46.651Z</time></trkpt><trkpt lat="42.2323377" lon="13.4988546"><ele>1272.8333333333333</ele><time>2026-04-10T09:48:47.656Z</time></trkpt><trkpt lat="42.2323474" lon="13.4987099"><ele>1273.0</ele><time>2026-04-10T09:48:48.654Z</time></trkpt><trkpt lat="42.2323492" lon="13.4985517"><ele>1273.0</ele><time>2026-04-10T09:48:49.662Z</time></trkpt><trkpt lat="42.2323553" lon="13.498388"><ele>1273.0</ele><time>2026-04-10T09:48:50.66Z</time></trkpt><trkpt lat="42.2323651" lon="13.4982166"><ele>1273.0</ele><time>2026-04-10T09:48:51.666Z</time></trkpt><trkpt lat="42.2323844" lon="13.4980434"><ele>1273.0</ele><time>2026-04-10T09:48:52.664Z</time></trkpt><trkpt lat="42.2324122" lon="13.4978677"><ele>1273.5</ele><time>2026-04-10T09:48:53.669Z</time></trkpt><trkpt lat="42.2324416" lon="13.4976889"><ele>1274.0</ele><time>2026-04-10T09:48:54.667Z</time></trkpt><trkpt lat="42.2324698" lon="13.4975001"><ele>1274.5</ele><time>2026-04-10T09:48:55.672Z</time></trkpt><trkpt lat="42.2324968" lon="13.4973318"><ele>1275.0</ele><time>2026-04-10T09:48:56.673Z</time></trkpt><trkpt lat="42.232522" lon="13.4971835"><ele>1275.3333333333333</ele><time>2026-04-10T09:48:57.666Z</time></trkpt><trkpt lat="42.2325335" lon="13.4970449"><ele>1275.6666666666667</ele><time>2026-04-10T09:48:58.662Z</time></trkpt><trkpt lat="42.2325288" lon="13.4969287"><ele>1276.0</ele><time>2026-04-10T09:48:59.672Z</time></trkpt><trkpt lat="42.2325032" lon="13.4968278"><ele>1276.3333333333335</ele><time>2026-04-10T09:49:00.679Z</time></trkpt><trkpt lat="42.2324555" lon="13.4967409"><ele>1276.6666666666667</ele><time>2026-04-10T09:49:01.679Z</time></trkpt><trkpt lat="42.2324082" lon="13.4966392"><ele>1277.0</ele><time>2026-04-10T09:49:02.681Z</time></trkpt><trkpt lat="42.2323698" lon="13.4965365"><ele>1277.0</ele><time>2026-04-10T09:49:03.668Z</time></trkpt><trkpt lat="42.2323536" lon="13.49642"><ele>1277.0</ele><time>2026-04-10T09:49:04.658Z</time></trkpt><trkpt lat="42.2323657" lon="13.4962892"><ele>1277.0</ele><time>2026-04-10T09:49:05.676Z</time></trkpt><trkpt lat="42.2323959" lon="13.4961765"><ele>1277.0</ele><time>2026-04-10T09:49:06.668Z</time></trkpt><trkpt lat="42.2324596" lon="13.4960764"><ele>1277.0</ele><time>2026-04-10T09:49:07.676Z</time></trkpt><trkpt lat="42.2325274" lon="13.4959936"><ele>1277.1666666666667</ele><time>2026-04-10T09:49:08.668Z</time></trkpt><trkpt lat="42.2325982" lon="13.4959177"><ele>1277.3333333333335</ele><time>2026-04-10T09:49:09.678Z</time></trkpt><trkpt lat="42.2326568" lon="13.4958496"><ele>1277.5</ele><time>2026-04-10T09:49:10.677Z</time></trkpt><trkpt lat="42.2327167" lon="13.4957766"><ele>1277.6666666666667</ele><time>2026-04-10T09:49:11.699Z</time></trkpt><trkpt lat="42.2327715" lon="13.495711"><ele>1277.8333333333333</ele><time>2026-04-10T09:49:12.691Z</time></trkpt><trkpt lat="42.2328222" lon="13.4956371"><ele>1278.0</ele><time>2026-04-10T09:49:13.694Z</time></trkpt><trkpt lat="42.2328571" lon="13.4955533"><ele>1278.0</ele><time>2026-04-10T09:49:14.694Z</time></trkpt><trkpt lat="42.2328897" lon="13.4954527"><ele>1278.0</ele><time>2026-04-10T09:49:15.692Z</time></trkpt><trkpt lat="42.2329249" lon="13.495339"><ele>1278.0</ele><time>2026-04-10T09:49:16.691Z</time></trkpt><trkpt lat="42.2329654" lon="13.4952225"><ele>1278.0</ele><time>2026-04-10T09:49:17.701Z</time></trkpt><trkpt lat="42.2330086" lon="13.4951136"><ele>1278.0</ele><time>2026-04-10T09:49:18.695Z</time></trkpt><trkpt lat="42.2330462" lon="13.4950221"><ele>1278.0</ele><time>2026-04-10T09:49:19.696Z</time></trkpt><trkpt lat="42.2330892" lon="13.4949381"><ele>1278.3333333333333</ele><time>2026-04-10T09:49:20.696Z</time></trkpt><trkpt lat="42.2331314" lon="13.494863"><ele>1278.6666666666667</ele><time>2026-04-10T09:49:21.703Z</time></trkpt><trkpt lat="42.2331866" lon="13.4947689"><ele>1279.0</ele><time>2026-04-10T09:49:23.698Z</time></trkpt><trkpt lat="42.2331275" lon="13.4948055"><ele>1279.3333333333335</ele><time>2026-04-10T09:49:26.698Z</time></trkpt><trkpt lat="42.2330798" lon="13.494892"><ele>1279.6666666666667</ele><time>2026-04-10T09:49:27.7Z</time></trkpt><trkpt lat="42.23303" lon="13.4950196"><ele>1280.0</ele><time>2026-04-10T09:49:28.694Z</time></trkpt><trkpt lat="42.2329903" lon="13.4951405"><ele>1280.1666666666667</ele><time>2026-04-10T09:49:29.69Z</time></trkpt><trkpt lat="42.2329677" lon="13.4952468"><ele>1280.3333333333335</ele><time>2026-04-10T09:49:30.691Z</time></trkpt><trkpt lat="42.2329671" lon="13.495356"><ele>1280.5</ele><time>2026-04-10T09:49:31.672Z</time></trkpt><trkpt lat="42.232994" lon="13.4954713"><ele>1280.6666666666667</ele><time>2026-04-10T09:49:32.674Z</time></trkpt><trkpt lat="42.233051" lon="13.4955677"><ele>1280.8333333333333</ele><time>2026-04-10T09:49:33.668Z</time></trkpt><trkpt lat="42.2331368" lon="13.4956435"><ele>1281.0</ele><time>2026-04-10T09:49:34.666Z</time></trkpt><trkpt lat="42.2332327" lon="13.495705"><ele>1280.0</ele><time>2026-04-10T09:49:35.671Z</time></trkpt><trkpt lat="42.2333438" lon="13.4957613"><ele>1279.0</ele><time>2026-04-10T09:49:36.674Z</time></trkpt><trkpt lat="42.2334473" lon="13.4958198"><ele>1278.0</ele><time>2026-04-10T09:49:37.677Z</time></trkpt><trkpt lat="42.2335456" lon="13.4958762"><ele>1277.0</ele><time>2026-04-10T09:49:38.669Z</time></trkpt><trkpt lat="42.2336403" lon="13.4959224"><ele>1276.0</ele><time>2026-04-10T09:49:39.665Z</time></trkpt><trkpt lat="42.2337184" lon="13.4959616"><ele>1276.0</ele><time>2026-04-10T09:49:40.68Z</time></trkpt><trkpt lat="42.2338068" lon="13.4960038"><ele>1276.0</ele><time>2026-04-10T09:49:42.678Z</time></trkpt><trkpt lat="42.2338775" lon="13.4960798"><ele>1276.0</ele><time>2026-04-10T09:49:46.692Z</time></trkpt><trkpt lat="42.2339388" lon="13.4961694"><ele>1276.0</ele><time>2026-04-10T09:49:49.686Z</time></trkpt><trkpt lat="42.2340488" lon="13.4963023"><ele>1276.0</ele><time>2026-04-10T09:49:51.673Z</time></trkpt><trkpt lat="42.2341215" lon="13.4963865"><ele>1275.75</ele><time>2026-04-10T09:49:52.663Z</time></trkpt><trkpt lat="42.2342207" lon="13.4964932"><ele>1275.5</ele><time>2026-04-10T09:49:53.663Z</time></trkpt><trkpt lat="42.2343283" lon="13.4966111"><ele>1275.25</ele><time>2026-04-10T09:49:54.664Z</time></trkpt><trkpt lat="42.2344404" lon="13.4967277"><ele>1275.0</ele><time>2026-04-10T09:49:55.677Z</time></trkpt><trkpt lat="42.2345552" lon="13.4968416"><ele>1275.0</ele><time>2026-04-10T09:49:56.688Z</time></trkpt><trkpt lat="42.2346788" lon="13.4969593"><ele>1275.0</ele><time>2026-04-10T09:49:57.676Z</time></trkpt><trkpt lat="42.2348001" lon="13.4970729"><ele>1275.0</ele><time>2026-04-10T09:49:58.691Z</time></trkpt><trkpt lat="42.2349181" lon="13.4971788"><ele>1275.0</ele><time>2026-04-10T09:49:59.698Z</time></trkpt><trkpt lat="42.2350285" lon="13.4972805"><ele>1274.75</ele><time>2026-04-10T09:50:00.692Z</time></trkpt><trkpt lat="42.2351358" lon="13.4973841"><ele>1274.5</ele><time>2026-04-10T09:50:01.69Z</time></trkpt><trkpt lat="42.2352378" lon="13.4974807"><ele>1274.25</ele><time>2026-04-10T09:50:02.684Z</time></trkpt><trkpt lat="42.2353389" lon="13.497576"><ele>1274.0</ele><time>2026-04-10T09:50:03.69Z</time></trkpt><trkpt lat="42.235446" lon="13.4976733"><ele>1274.0</ele><time>2026-04-10T09:50:04.686Z</time></trkpt><trkpt lat="42.2355429" lon="13.4977746"><ele>1274.0</ele><time>2026-04-10T09:50:05.685Z</time></trkpt><trkpt lat="42.2356432" lon="13.4978779"><ele>1274.0</ele><time>2026-04-10T09:50:06.678Z</time></trkpt><trkpt lat="42.2357502" lon="13.4979754"><ele>1274.0</ele><time>2026-04-10T09:50:07.672Z</time></trkpt><trkpt lat="42.2358603" lon="13.4980688"><ele>1273.5</ele><time>2026-04-10T09:50:08.672Z</time></trkpt><trkpt lat="42.2359709" lon="13.4981507"><ele>1273.0</ele><time>2026-04-10T09:50:09.663Z</time></trkpt><trkpt lat="42.2360843" lon="13.4982115"><ele>1272.5</ele><time>2026-04-10T09:50:10.669Z</time></trkpt><trkpt lat="42.2362039" lon="13.4982548"><ele>1272.0</ele><time>2026-04-10T09:50:11.68Z</time></trkpt><trkpt lat="42.2363302" lon="13.4982954"><ele>1272.0</ele><time>2026-04-10T09:50:12.67Z</time></trkpt><trkpt lat="42.2364628" lon="13.498344"><ele>1272.0</ele><time>2026-04-10T09:50:13.679Z</time></trkpt><trkpt lat="42.2365979" lon="13.4984002"><ele>1272.0</ele><time>2026-04-10T09:50:14.673Z</time></trkpt><trkpt lat="42.2367245" lon="13.4984564"><ele>1272.0</ele><time>2026-04-10T09:50:15.671Z</time></trkpt><trkpt lat="42.2368439" lon="13.4984989"><ele>1272.25</ele><time>2026-04-10T09:50:16.673Z</time></trkpt><trkpt lat="42.236956" lon="13.4985372"><ele>1272.5</ele><time>2026-04-10T09:50:17.665Z</time></trkpt><trkpt lat="42.237068" lon="13.4985778"><ele>1272.75</ele><time>2026-04-10T09:50:18.666Z</time></trkpt><trkpt lat="42.2371673" lon="13.4986184"><ele>1273.0</ele><time>2026-04-10T09:50:19.675Z</time></trkpt><trkpt lat="42.2372741" lon="13.4986779"><ele>1272.8</ele><time>2026-04-10T09:50:20.67Z</time></trkpt><trkpt lat="42.2373815" lon="13.4987493"><ele>1272.6</ele><time>2026-04-10T09:50:21.666Z</time></trkpt><trkpt lat="42.237482" lon="13.4988126"><ele>1272.4</ele><time>2026-04-10T09:50:22.664Z</time></trkpt><trkpt lat="42.2375795" lon="13.4988657"><ele>1272.2</ele><time>2026-04-10T09:50:23.661Z</time></trkpt><trkpt lat="42.2376734" lon="13.4989129"><ele>1272.0</ele><time>2026-04-10T09:50:24.66Z</time></trkpt><trkpt lat="42.2377571" lon="13.4989492"><ele>1271.6666666666667</ele><time>2026-04-10T09:50:25.656Z</time></trkpt><trkpt lat="42.2378279" lon="13.4989841"><ele>1271.3333333333333</ele><time>2026-04-10T09:50:26.667Z</time></trkpt><trkpt lat="42.2378874" lon="13.4990289"><ele>1271.0</ele><time>2026-04-10T09:50:27.668Z</time></trkpt><trkpt lat="42.2379802" lon="13.499122"><ele>1270.6666666666665</ele><time>2026-04-10T09:50:29.671Z</time></trkpt><trkpt lat="42.2380475" lon="13.4991494"><ele>1270.3333333333333</ele><time>2026-04-10T09:50:32.674Z</time></trkpt><trkpt lat="42.2381039" lon="13.4990881"><ele>1270.0</ele><time>2026-04-10T09:50:34.665Z</time></trkpt><trkpt lat="42.2382417" lon="13.4990445"><ele>1270.0</ele><time>2026-04-10T09:50:36.656Z</time></trkpt><trkpt lat="42.2383523" lon="13.4990501"><ele>1270.0</ele><time>2026-04-10T09:50:37.641Z</time></trkpt><trkpt lat="42.2384964" lon="13.4990803"><ele>1270.0</ele><time>2026-04-10T09:50:38.652Z</time></trkpt><trkpt lat="42.238631" lon="13.499105"><ele>1270.0</ele><time>2026-04-10T09:50:39.652Z</time></trkpt><trkpt lat="42.2387364" lon="13.4991226"><ele>1270.0</ele><time>2026-04-10T09:50:40.658Z</time></trkpt><trkpt lat="42.2388288" lon="13.4991306"><ele>1270.0</ele><time>2026-04-10T09:50:41.644Z</time></trkpt><trkpt lat="42.238911" lon="13.4991307"><ele>1270.0</ele><time>2026-04-10T09:50:42.645Z</time></trkpt><trkpt lat="42.2389833" lon="13.4991081"><ele>1270.0</ele><time>2026-04-10T09:50:43.651Z</time></trkpt><trkpt lat="42.2390517" lon="13.4990594"><ele>1270.0</ele><time>2026-04-10T09:50:44.647Z</time></trkpt><trkpt lat="42.2391187" lon="13.4989761"><ele>1270.0</ele><time>2026-04-10T09:50:45.639Z</time></trkpt><trkpt lat="42.2392035" lon="13.498862"><ele>1269.5</ele><time>2026-04-10T09:50:46.648Z</time></trkpt><trkpt lat="42.2392942" lon="13.4987393"><ele>1269.0</ele><time>2026-04-10T09:50:47.66Z</time></trkpt><trkpt lat="42.2393855" lon="13.4986137"><ele>1268.5</ele><time>2026-04-10T09:50:48.647Z</time></trkpt><trkpt lat="42.2394806" lon="13.4984784"><ele>1268.0</ele><time>2026-04-10T09:50:49.644Z</time></trkpt><trkpt lat="42.239582" lon="13.4983319"><ele>1268.0</ele><time>2026-04-10T09:50:50.649Z</time></trkpt><trkpt lat="42.2396794" lon="13.4981964"><ele>1268.0</ele><time>2026-04-10T09:50:51.645Z</time></trkpt><trkpt lat="42.2397935" lon="13.4980733"><ele>1268.0</ele><time>2026-04-10T09:50:52.645Z</time></trkpt><trkpt lat="42.2398994" lon="13.4979334"><ele>1268.0</ele><time>2026-04-10T09:50:53.64Z</time></trkpt><trkpt lat="42.2400091" lon="13.4977762"><ele>1268.75</ele><time>2026-04-10T09:50:54.639Z</time></trkpt><trkpt lat="42.2400932" lon="13.4976441"><ele>1269.5</ele><time>2026-04-10T09:50:55.642Z</time></trkpt><trkpt lat="42.2401515" lon="13.4974982"><ele>1270.25</ele><time>2026-04-10T09:50:56.648Z</time></trkpt><trkpt lat="42.240237" lon="13.4973735"><ele>1271.0</ele><time>2026-04-10T09:50:57.653Z</time></trkpt><trkpt lat="42.2403389" lon="13.4972592"><ele>1271.0</ele><time>2026-04-10T09:50:58.655Z</time></trkpt><trkpt lat="42.2404366" lon="13.4971408"><ele>1271.0</ele><time>2026-04-10T09:50:59.658Z</time></trkpt><trkpt lat="42.2405306" lon="13.4970612"><ele>1271.0</ele><time>2026-04-10T09:51:00.658Z</time></trkpt><trkpt lat="42.2406359" lon="13.4969752"><ele>1271.0</ele><time>2026-04-10T09:51:01.648Z</time></trkpt><trkpt lat="42.2407361" lon="13.4968818"><ele>1272.0</ele><time>2026-04-10T09:51:02.654Z</time></trkpt><trkpt lat="42.240841" lon="13.49679"><ele>1273.0</ele><time>2026-04-10T09:51:03.652Z</time></trkpt><trkpt lat="42.240943" lon="13.4967022"><ele>1274.0</ele><time>2026-04-10T09:51:04.643Z</time></trkpt><trkpt lat="42.241032" lon="13.4966239"><ele>1275.0</ele><time>2026-04-10T09:51:05.641Z</time></trkpt><trkpt lat="42.2410967" lon="13.4965696"><ele>1276.0</ele><time>2026-04-10T09:51:06.643Z</time></trkpt><trkpt lat="42.241191" lon="13.4965134"><ele>1276.0</ele><time>2026-04-10T09:51:08.643Z</time></trkpt><trkpt lat="42.2412469" lon="13.4964671"><ele>1276.0</ele><time>2026-04-10T09:51:11.654Z</time></trkpt><trkpt lat="42.241308" lon="13.4964154"><ele>1276.0</ele><time>2026-04-10T09:51:15.651Z</time></trkpt><trkpt lat="42.2414019" lon="13.4963418"><ele>1276.0</ele><time>2026-04-10T09:51:17.644Z</time></trkpt><trkpt lat="42.2414735" lon="13.4963117"><ele>1276.0</ele><time>2026-04-10T09:51:18.646Z</time></trkpt><trkpt lat="42.2415518" lon="13.4962901"><ele>1276.0</ele><time>2026-04-10T09:51:19.642Z</time></trkpt><trkpt lat="42.2416495" lon="13.4962627"><ele>1278.5</ele><time>2026-04-10T09:51:20.634Z</time></trkpt><trkpt lat="42.2417642" lon="13.4962479"><ele>1281.0</ele><time>2026-04-10T09:51:21.63Z</time></trkpt><trkpt lat="42.2418868" lon="13.4962483"><ele>1283.5</ele><time>2026-04-10T09:51:22.618Z</time></trkpt><trkpt lat="42.2420051" lon="13.4962383"><ele>1286.0</ele><time>2026-04-10T09:51:23.627Z</time></trkpt><trkpt lat="42.2421255" lon="13.4962272"><ele>1286.0</ele><time>2026-04-10T09:51:24.629Z</time></trkpt><trkpt lat="42.2422643" lon="13.4962069"><ele>1286.0</ele><time>2026-04-10T09:51:25.631Z</time></trkpt><trkpt lat="42.2424042" lon="13.4961816"><ele>1286.0</ele><time>2026-04-10T09:51:26.64Z</time></trkpt><trkpt lat="42.2425516" lon="13.4961407"><ele>1286.0</ele><time>2026-04-10T09:51:27.637Z</time></trkpt><trkpt lat="42.2426814" lon="13.4960963"><ele>1287.25</ele><time>2026-04-10T09:51:28.635Z</time></trkpt><trkpt lat="42.2427999" lon="13.4960641"><ele>1288.5</ele><time>2026-04-10T09:51:29.636Z</time></trkpt><trkpt lat="42.242912" lon="13.4960443"><ele>1289.75</ele><time>2026-04-10T09:51:30.635Z</time></trkpt><trkpt lat="42.2430309" lon="13.4960404"><ele>1291.0</ele><time>2026-04-10T09:51:31.641Z</time></trkpt><trkpt lat="42.2431456" lon="13.4960439"><ele>1294.0</ele><time>2026-04-10T09:51:32.623Z</time></trkpt><trkpt lat="42.2432605" lon="13.4960656"><ele>1297.0</ele><time>2026-04-10T09:51:33.624Z</time></trkpt><trkpt lat="42.2433742" lon="13.4960977"><ele>1300.0</ele><time>2026-04-10T09:51:34.63Z</time></trkpt><trkpt lat="42.2434869" lon="13.4961324"><ele>1303.0</ele><time>2026-04-10T09:51:35.62Z</time></trkpt><trkpt lat="42.2436059" lon="13.496173"><ele>1303.0</ele><time>2026-04-10T09:51:36.61Z</time></trkpt><trkpt lat="42.2437152" lon="13.4962036"><ele>1303.0</ele><time>2026-04-10T09:51:37.615Z</time></trkpt><trkpt lat="42.2438027" lon="13.4962118"><ele>1303.0</ele><time>2026-04-10T09:51:38.608Z</time></trkpt><trkpt lat="42.2438311" lon="13.4961229"><ele>1303.0</ele><time>2026-04-10T09:51:40.617Z</time></trkpt><trkpt lat="42.243757" lon="13.4960633"><ele>1303.0</ele><time>2026-04-10T09:51:42.629Z</time></trkpt><trkpt lat="42.2436938" lon="13.4960209"><ele>1303.0</ele><time>2026-04-10T09:51:48.64Z</time></trkpt><trkpt lat="42.2436574" lon="13.4959408"><ele>1303.0</ele><time>2026-04-10T09:51:50.64Z</time></trkpt><trkpt lat="42.2436295" lon="13.4958617"><ele>1303.0</ele><time>2026-04-10T09:51:51.64Z</time></trkpt><trkpt lat="42.2435971" lon="13.4957644"><ele>1303.0</ele><time>2026-04-10T09:51:52.639Z</time></trkpt><trkpt lat="42.2435448" lon="13.4956453"><ele>1303.0</ele><time>2026-04-10T09:51:53.642Z</time></trkpt><trkpt lat="42.2434811" lon="13.4955198"><ele>1303.0</ele><time>2026-04-10T09:51:54.646Z</time></trkpt><trkpt lat="42.2434315" lon="13.4954135"><ele>1303.0</ele><time>2026-04-10T09:51:55.648Z</time></trkpt><trkpt lat="42.2433834" lon="13.4953098"><ele>1303.0</ele><time>2026-04-10T09:51:56.64Z</time></trkpt><trkpt lat="42.2433943" lon="13.4952246"><ele>1303.0</ele><time>2026-04-10T09:52:08.663Z</time></trkpt><trkpt lat="42.2434794" lon="13.4953861"><ele>1303.0</ele><time>2026-04-10T09:52:11.648Z</time></trkpt><trkpt lat="42.2434943" lon="13.495575"><ele>1303.0</ele><time>2026-04-10T09:52:12.65Z</time></trkpt><trkpt lat="42.2434839" lon="13.4957655"><ele>1303.0</ele><time>2026-04-10T09:52:13.645Z</time></trkpt><trkpt lat="42.2434834" lon="13.495919"><ele>1303.0</ele><time>2026-04-10T09:52:14.633Z</time></trkpt><trkpt lat="42.2434882" lon="13.4960554"><ele>1303.0</ele><time>2026-04-10T09:52:15.633Z</time></trkpt><trkpt lat="42.2435005" lon="13.4961628"><ele>1303.0</ele><time>2026-04-10T09:52:16.624Z</time></trkpt><trkpt lat="42.2435332" lon="13.4962641"><ele>1303.0</ele><time>2026-04-10T09:52:17.637Z</time></trkpt><trkpt lat="42.2436372" lon="13.4962147"><ele>1303.0</ele><time>2026-04-10T09:52:20.634Z</time></trkpt><trkpt lat="42.2437046" lon="13.4961654"><ele>1303.0</ele><time>2026-04-10T09:52:21.625Z</time></trkpt><trkpt lat="42.2438234" lon="13.4961188"><ele>1303.0</ele><time>2026-04-10T09:52:23.637Z</time></trkpt><trkpt lat="42.2438816" lon="13.496085"><ele>1303.0</ele><time>2026-04-10T09:52:24.627Z</time></trkpt><trkpt lat="42.2439736" lon="13.4959527"><ele>1303.0</ele><time>2026-04-10T09:52:25.63Z</time></trkpt><trkpt lat="42.2440536" lon="13.4958327"><ele>1304.8000000000002</ele><time>2026-04-10T09:52:26.631Z</time></trkpt><trkpt lat="42.2441195" lon="13.4957223"><ele>1306.6</ele><time>2026-04-10T09:52:27.625Z</time></trkpt><trkpt lat="42.2441991" lon="13.4956348"><ele>1308.4</ele><time>2026-04-10T09:52:28.634Z</time></trkpt><trkpt lat="42.244261" lon="13.4955354"><ele>1310.1999999999998</ele><time>2026-04-10T09:52:29.634Z</time></trkpt><trkpt lat="42.2442952" lon="13.4954486"><ele>1312.0</ele><time>2026-04-10T09:52:30.636Z</time></trkpt><trkpt lat="42.2442695" lon="13.4953442"><ele>1312.0</ele><time>2026-04-10T09:52:31.634Z</time></trkpt><trkpt lat="42.2441757" lon="13.4952152"><ele>1312.0</ele><time>2026-04-10T09:52:32.632Z</time></trkpt><trkpt lat="42.2440996" lon="13.4950999"><ele>1312.0</ele><time>2026-04-10T09:52:33.647Z</time></trkpt><trkpt lat="42.2440273" lon="13.4949618"><ele>1312.0</ele><time>2026-04-10T09:52:34.628Z</time></trkpt><trkpt lat="42.2439897" lon="13.494833"><ele>1311.6666666666665</ele><time>2026-04-10T09:52:35.631Z</time></trkpt><trkpt lat="42.2439593" lon="13.494717"><ele>1311.3333333333333</ele><time>2026-04-10T09:52:36.635Z</time></trkpt><trkpt lat="42.243925" lon="13.4946135"><ele>1311.0</ele><time>2026-04-10T09:52:37.635Z</time></trkpt><trkpt lat="42.2438832" lon="13.4945117"><ele>1310.6666666666667</ele><time>2026-04-10T09:52:38.638Z</time></trkpt><trkpt lat="42.2438091" lon="13.4944408"><ele>1310.3333333333335</ele><time>2026-04-10T09:52:39.648Z</time></trkpt><trkpt lat="42.2437272" lon="13.4943803"><ele>1310.0</ele><time>2026-04-10T09:52:40.649Z</time></trkpt><trkpt lat="42.2436181" lon="13.4943174"><ele>1311.6666666666667</ele><time>2026-04-10T09:52:41.655Z</time></trkpt><trkpt lat="42.243536" lon="13.4942528"><ele>1313.3333333333335</ele><time>2026-04-10T09:52:42.648Z</time></trkpt><trkpt lat="42.2434664" lon="13.4941857"><ele>1315.0</ele><time>2026-04-10T09:52:43.651Z</time></trkpt><trkpt lat="42.2434123" lon="13.4941181"><ele>1316.6666666666667</ele><time>2026-04-10T09:52:44.649Z</time></trkpt><trkpt lat="42.2433507" lon="13.4940816"><ele>1318.3333333333333</ele><time>2026-04-10T09:52:45.647Z</time></trkpt><trkpt lat="42.2432555" lon="13.4940222"><ele>1320.0</ele><time>2026-04-10T09:52:47.652Z</time></trkpt><trkpt lat="42.243196" lon="13.4939693"><ele>1320.0</ele><time>2026-04-10T09:52:49.651Z</time></trkpt><trkpt lat="42.2431681" lon="13.4938847"><ele>1320.0</ele><time>2026-04-10T09:52:53.651Z</time></trkpt><trkpt lat="42.2430928" lon="13.4938273"><ele>1320.0</ele><time>2026-04-10T09:52:56.654Z</time></trkpt><trkpt lat="42.2429738" lon="13.4937757"><ele>1320.0</ele><time>2026-04-10T09:52:58.643Z</time></trkpt><trkpt lat="42.2429084" lon="13.4937463"><ele>1320.0</ele><time>2026-04-10T09:52:59.664Z</time></trkpt><trkpt lat="42.2428465" lon="13.4937022"><ele>1320.0</ele><time>2026-04-10T09:53:00.657Z</time></trkpt><trkpt lat="42.2427329" lon="13.4936111"><ele>1319.0</ele><time>2026-04-10T09:53:02.647Z</time></trkpt><trkpt lat="42.2426956" lon="13.4935307"><ele>1318.0</ele><time>2026-04-10T09:53:03.638Z</time></trkpt><trkpt lat="42.2426738" lon="13.4934062"><ele>1317.0</ele><time>2026-04-10T09:53:04.648Z</time></trkpt><trkpt lat="42.2426395" lon="13.4932653"><ele>1316.0</ele><time>2026-04-10T09:53:05.639Z</time></trkpt><trkpt lat="42.2425934" lon="13.4931359"><ele>1315.0</ele><time>2026-04-10T09:53:06.627Z</time></trkpt><trkpt lat="42.2425403" lon="13.4929774"><ele>1316.4</ele><time>2026-04-10T09:53:07.626Z</time></trkpt><trkpt lat="42.2424708" lon="13.4928581"><ele>1317.8</ele><time>2026-04-10T09:53:08.626Z</time></trkpt><trkpt lat="42.2424041" lon="13.492751"><ele>1319.1999999999998</ele><time>2026-04-10T09:53:09.627Z</time></trkpt><trkpt lat="42.2423458" lon="13.4926997"><ele>1320.6</ele><time>2026-04-10T09:53:10.622Z</time></trkpt><trkpt lat="42.2422716" lon="13.4926424"><ele>1322.0</ele><time>2026-04-10T09:53:11.629Z</time></trkpt><trkpt lat="42.2421836" lon="13.4926239"><ele>1322.0</ele><time>2026-04-10T09:53:12.632Z</time></trkpt><trkpt lat="42.2420654" lon="13.4926284"><ele>1322.0</ele><time>2026-04-10T09:53:13.635Z</time></trkpt><trkpt lat="42.2419504" lon="13.4926101"><ele>1322.0</ele><time>2026-04-10T09:53:14.648Z</time></trkpt><trkpt lat="42.241819" lon="13.492613"><ele>1322.0</ele><time>2026-04-10T09:53:15.643Z</time></trkpt><trkpt lat="42.2417098" lon="13.4925554"><ele>1322.0</ele><time>2026-04-10T09:53:16.641Z</time></trkpt><trkpt lat="42.2416014" lon="13.4925044"><ele>1322.0</ele><time>2026-04-10T09:53:17.637Z</time></trkpt><trkpt lat="42.2415079" lon="13.4924311"><ele>1322.0</ele><time>2026-04-10T09:53:18.636Z</time></trkpt><trkpt lat="42.2414298" lon="13.492335"><ele>1322.0</ele><time>2026-04-10T09:53:19.637Z</time></trkpt><trkpt lat="42.2413691" lon="13.4922571"><ele>1322.0</ele><time>2026-04-10T09:53:20.632Z</time></trkpt><trkpt lat="42.2413167" lon="13.4921945"><ele>1323.0</ele><time>2026-04-10T09:53:21.633Z</time></trkpt><trkpt lat="42.2412406" lon="13.4921169"><ele>1324.0</ele><time>2026-04-10T09:53:22.639Z</time></trkpt><trkpt lat="42.2411616" lon="13.4920365"><ele>1325.0</ele><time>2026-04-10T09:53:23.628Z</time></trkpt><trkpt lat="42.2410806" lon="13.49195"><ele>1326.0</ele><time>2026-04-10T09:53:24.63Z</time></trkpt><trkpt lat="42.2410096" lon="13.4918748"><ele>1327.0</ele><time>2026-04-10T09:53:25.63Z</time></trkpt><trkpt lat="42.2409539" lon="13.4917987"><ele>1329.6</ele><time>2026-04-10T09:53:26.632Z</time></trkpt><trkpt lat="42.2408984" lon="13.4917229"><ele>1332.1999999999998</ele><time>2026-04-10T09:53:27.631Z</time></trkpt><trkpt lat="42.2408604" lon="13.4916436"><ele>1334.8</ele><time>2026-04-10T09:53:28.618Z</time></trkpt><trkpt lat="42.2410067" lon="13.4915937"><ele>1337.4</ele><time>2026-04-10T09:53:33.63Z</time></trkpt><trkpt lat="42.2410996" lon="13.4915618"><ele>1340.0</ele><time>2026-04-10T09:53:34.632Z</time></trkpt><trkpt lat="42.2412033" lon="13.4915188"><ele>1340.0</ele><time>2026-04-10T09:53:35.636Z</time></trkpt><trkpt lat="42.241341" lon="13.4914276"><ele>1340.0</ele><time>2026-04-10T09:53:36.631Z</time></trkpt><trkpt lat="42.2415018" lon="13.4912536"><ele>1340.0</ele><time>2026-04-10T09:53:37.65Z</time></trkpt><trkpt lat="42.2416864" lon="13.4910873"><ele>1345.0</ele><time>2026-04-10T09:53:38.646Z</time></trkpt><trkpt lat="42.2418788" lon="13.4909267"><ele>1350.0</ele><time>2026-04-10T09:53:39.645Z</time></trkpt><trkpt lat="42.2421057" lon="13.4908038"><ele>1349.3333333333333</ele><time>2026-04-10T09:53:40.646Z</time></trkpt><trkpt lat="42.2423302" lon="13.4907624"><ele>1348.6666666666665</ele><time>2026-04-10T09:53:41.649Z</time></trkpt><trkpt lat="42.2425304" lon="13.4907388"><ele>1348.0</ele><time>2026-04-10T09:53:42.654Z</time></trkpt><trkpt lat="42.2426944" lon="13.4906714"><ele>1348.0</ele><time>2026-04-10T09:53:43.651Z</time></trkpt><trkpt lat="42.2428735" lon="13.4906184"><ele>1348.0</ele><time>2026-04-10T09:53:44.653Z</time></trkpt><trkpt lat="42.2430488" lon="13.4905642"><ele>1348.0</ele><time>2026-04-10T09:53:45.648Z</time></trkpt><trkpt lat="42.2431772" lon="13.490517"><ele>1348.5</ele><time>2026-04-10T09:53:46.646Z</time></trkpt><trkpt lat="42.2433646" lon="13.4904787"><ele>1349.0</ele><time>2026-04-10T09:53:47.655Z</time></trkpt><trkpt lat="42.2435135" lon="13.4904666"><ele>1349.5</ele><time>2026-04-10T09:53:48.648Z</time></trkpt><trkpt lat="42.2436207" lon="13.4904901"><ele>1350.0</ele><time>2026-04-10T09:53:49.65Z</time></trkpt><trkpt lat="42.2437583" lon="13.4905666"><ele>1350.0</ele><time>2026-04-10T09:53:50.649Z</time></trkpt><trkpt lat="42.2439229" lon="13.4906781"><ele>1350.0</ele><time>2026-04-10T09:53:51.652Z</time></trkpt><trkpt lat="42.2440781" lon="13.4907848"><ele>1350.0</ele><time>2026-04-10T09:53:52.653Z</time></trkpt><trkpt lat="42.2442139" lon="13.4909136"><ele>1350.0</ele><time>2026-04-10T09:53:53.656Z</time></trkpt><trkpt lat="42.2443213" lon="13.4910435"><ele>1350.0</ele><time>2026-04-10T09:53:54.655Z</time></trkpt><trkpt lat="42.2444281" lon="13.4911648"><ele>1350.0</ele><time>2026-04-10T09:53:55.659Z</time></trkpt><trkpt lat="42.2445204" lon="13.4912578"><ele>1350.0</ele><time>2026-04-10T09:53:56.645Z</time></trkpt><trkpt lat="42.2445935" lon="13.4913692"><ele>1350.0</ele><time>2026-04-10T09:53:57.65Z</time></trkpt><trkpt lat="42.2447084" lon="13.4913647"><ele>1350.0</ele><time>2026-04-10T09:53:58.649Z</time></trkpt><trkpt lat="42.2448046" lon="13.4913824"><ele>1350.0</ele><time>2026-04-10T09:53:59.664Z</time></trkpt><trkpt lat="42.2449601" lon="13.4913245"><ele>1350.0</ele><time>2026-04-10T09:54:00.651Z</time></trkpt><trkpt lat="42.2451144" lon="13.4912884"><ele>1352.0</ele><time>2026-04-10T09:54:01.657Z</time></trkpt><trkpt lat="42.2452576" lon="13.4912689"><ele>1354.0</ele><time>2026-04-10T09:54:02.655Z</time></trkpt><trkpt lat="42.2453911" lon="13.4912639"><ele>1356.0</ele><time>2026-04-10T09:54:03.664Z</time></trkpt><trkpt lat="42.2455086" lon="13.4912628"><ele>1358.0</ele><time>2026-04-10T09:54:04.666Z</time></trkpt><trkpt lat="42.2456411" lon="13.4912655"><ele>1359.5</ele><time>2026-04-10T09:54:05.67Z</time></trkpt><trkpt lat="42.2457701" lon="13.4912707"><ele>1361.0</ele><time>2026-04-10T09:54:06.673Z</time></trkpt><trkpt lat="42.2459009" lon="13.4912813"><ele>1362.5</ele><time>2026-04-10T09:54:07.678Z</time></trkpt><trkpt lat="42.2460169" lon="13.4913037"><ele>1364.0</ele><time>2026-04-10T09:54:08.671Z</time></trkpt><trkpt lat="42.2461319" lon="13.4913256"><ele>1364.0</ele><time>2026-04-10T09:54:09.68Z</time></trkpt><trkpt lat="42.2462453" lon="13.4913478"><ele>1364.0</ele><time>2026-04-10T09:54:10.671Z</time></trkpt><trkpt lat="42.2463595" lon="13.49137"><ele>1364.0</ele><time>2026-04-10T09:54:11.668Z</time></trkpt><trkpt lat="42.2464724" lon="13.4913772"><ele>1364.0</ele><time>2026-04-10T09:54:12.667Z</time></trkpt><trkpt lat="42.2465891" lon="13.4913754"><ele>1365.0</ele><time>2026-04-10T09:54:13.658Z</time></trkpt><trkpt lat="42.246705" lon="13.4913217"><ele>1366.0</ele><time>2026-04-10T09:54:14.658Z</time></trkpt><trkpt lat="42.2467966" lon="13.4912307"><ele>1367.0</ele><time>2026-04-10T09:54:15.656Z</time></trkpt><trkpt lat="42.2469041" lon="13.491146"><ele>1368.0</ele><time>2026-04-10T09:54:16.663Z</time></trkpt><trkpt lat="42.2470038" lon="13.4910575"><ele>1371.25</ele><time>2026-04-10T09:54:17.66Z</time></trkpt><trkpt lat="42.2471152" lon="13.4910039"><ele>1374.5</ele><time>2026-04-10T09:54:18.658Z</time></trkpt><trkpt lat="42.2472397" lon="13.4909656"><ele>1377.75</ele><time>2026-04-10T09:54:19.655Z</time></trkpt><trkpt lat="42.2473503" lon="13.4909319"><ele>1381.0</ele><time>2026-04-10T09:54:20.656Z</time></trkpt><trkpt lat="42.2474712" lon="13.4909627"><ele>1381.0</ele><time>2026-04-10T09:54:21.646Z</time></trkpt><trkpt lat="42.2475979" lon="13.4910134"><ele>1381.0</ele><time>2026-04-10T09:54:22.645Z</time></trkpt><trkpt lat="42.247707" lon="13.491064"><ele>1381.0</ele><time>2026-04-10T09:54:23.656Z</time></trkpt><trkpt lat="42.2478161" lon="13.491105"><ele>1381.0</ele><time>2026-04-10T09:54:24.656Z</time></trkpt><trkpt lat="42.2479195" lon="13.491126"><ele>1381.0</ele><time>2026-04-10T09:54:25.644Z</time></trkpt><trkpt lat="42.2480422" lon="13.4911112"><ele>1381.0</ele><time>2026-04-10T09:54:26.647Z</time></trkpt><trkpt lat="42.24817" lon="13.4910673"><ele>1381.0</ele><time>2026-04-10T09:54:27.647Z</time></trkpt><trkpt lat="42.248296" lon="13.491013"><ele>1381.0</ele><time>2026-04-10T09:54:28.641Z</time></trkpt><trkpt lat="42.2484239" lon="13.4909431"><ele>1381.0</ele><time>2026-04-10T09:54:29.653Z</time></trkpt><trkpt lat="42.2485607" lon="13.4908682"><ele>1381.0</ele><time>2026-04-10T09:54:30.653Z</time></trkpt><trkpt lat="42.2486855" lon="13.4907885"><ele>1381.0</ele><time>2026-04-10T09:54:31.652Z</time></trkpt><trkpt lat="42.2488327" lon="13.4907399"><ele>1381.0</ele><time>2026-04-10T09:54:32.649Z</time></trkpt><trkpt lat="42.2490019" lon="13.4907289"><ele>1382.5</ele><time>2026-04-10T09:54:33.649Z</time></trkpt><trkpt lat="42.2491507" lon="13.4907839"><ele>1384.0</ele><time>2026-04-10T09:54:34.64Z</time></trkpt><trkpt lat="42.2492886" lon="13.4908436"><ele>1385.5</ele><time>2026-04-10T09:54:35.632Z</time></trkpt><trkpt lat="42.2494022" lon="13.4909148"><ele>1387.0</ele><time>2026-04-10T09:54:36.628Z</time></trkpt><trkpt lat="42.249516" lon="13.4910016"><ele>1387.0</ele><time>2026-04-10T09:54:37.64Z</time></trkpt><trkpt lat="42.2496633" lon="13.4911142"><ele>1387.0</ele><time>2026-04-10T09:54:38.635Z</time></trkpt><trkpt lat="42.2497463" lon="13.4911663"><ele>1387.0</ele><time>2026-04-10T09:54:39.634Z</time></trkpt><trkpt lat="42.2498398" lon="13.4911003"><ele>1387.0</ele><time>2026-04-10T09:54:40.636Z</time></trkpt><trkpt lat="42.2499555" lon="13.4909839"><ele>1387.6666666666665</ele><time>2026-04-10T09:54:41.63Z</time></trkpt><trkpt lat="42.2500736" lon="13.4908065"><ele>1388.3333333333333</ele><time>2026-04-10T09:54:42.629Z</time></trkpt><trkpt lat="42.2501866" lon="13.4906525"><ele>1389.0</ele><time>2026-04-10T09:54:43.632Z</time></trkpt><trkpt lat="42.2503027" lon="13.4905161"><ele>1388.6</ele><time>2026-04-10T09:54:44.636Z</time></trkpt><trkpt lat="42.250392" lon="13.4904156"><ele>1388.2</ele><time>2026-04-10T09:54:45.637Z</time></trkpt><trkpt lat="42.2504916" lon="13.4903438"><ele>1387.8</ele><time>2026-04-10T09:54:46.641Z</time></trkpt><trkpt lat="42.2505935" lon="13.4903148"><ele>1387.3999999999999</ele><time>2026-04-10T09:54:47.642Z</time></trkpt><trkpt lat="42.2506844" lon="13.4903354"><ele>1387.0</ele><time>2026-04-10T09:54:48.654Z</time></trkpt><trkpt lat="42.2507937" lon="13.4904283"><ele>1387.0</ele><time>2026-04-10T09:54:49.638Z</time></trkpt><trkpt lat="42.2508809" lon="13.4906049"><ele>1387.0</ele><time>2026-04-10T09:54:50.653Z</time></trkpt><trkpt lat="42.2509836" lon="13.4907379"><ele>1387.0</ele><time>2026-04-10T09:54:51.649Z</time></trkpt><trkpt lat="42.2511032" lon="13.490955"><ele>1387.0</ele><time>2026-04-10T09:54:52.642Z</time></trkpt><trkpt lat="42.2512338" lon="13.4911301"><ele>1387.0</ele><time>2026-04-10T09:54:53.643Z</time></trkpt><trkpt lat="42.2513614" lon="13.4913666"><ele>1387.0</ele><time>2026-04-10T09:54:54.635Z</time></trkpt><trkpt lat="42.251513" lon="13.491603"><ele>1387.0</ele><time>2026-04-10T09:54:55.648Z</time></trkpt><trkpt lat="42.2516441" lon="13.4917925"><ele>1387.0</ele><time>2026-04-10T09:54:56.636Z</time></trkpt><trkpt lat="42.2517563" lon="13.4919593"><ele>1387.0</ele><time>2026-04-10T09:54:57.639Z</time></trkpt><trkpt lat="42.2518514" lon="13.4921508"><ele>1386.3333333333333</ele><time>2026-04-10T09:54:58.651Z</time></trkpt><trkpt lat="42.251973" lon="13.4923132"><ele>1385.6666666666667</ele><time>2026-04-10T09:54:59.647Z</time></trkpt><trkpt lat="42.2520993" lon="13.4924393"><ele>1385.0</ele><time>2026-04-10T09:55:00.644Z</time></trkpt><trkpt lat="42.2522474" lon="13.4924954"><ele>1382.5</ele><time>2026-04-10T09:55:01.641Z</time></trkpt><trkpt lat="42.2524006" lon="13.4925684"><ele>1380.0</ele><time>2026-04-10T09:55:02.644Z</time></trkpt><trkpt lat="42.2525285" lon="13.492602"><ele>1377.5</ele><time>2026-04-10T09:55:03.644Z</time></trkpt><trkpt lat="42.2526701" lon="13.4926365"><ele>1375.0</ele><time>2026-04-10T09:55:04.642Z</time></trkpt><trkpt lat="42.2528675" lon="13.4926271"><ele>1375.0</ele><time>2026-04-10T09:55:05.646Z</time></trkpt><trkpt lat="42.2530669" lon="13.4925283"><ele>1375.0</ele><time>2026-04-10T09:55:06.644Z</time></trkpt><trkpt lat="42.2532876" lon="13.492374"><ele>1373.0</ele><time>2026-04-10T09:55:07.652Z</time></trkpt><trkpt lat="42.2534824" lon="13.4922305"><ele>1371.0</ele><time>2026-04-10T09:55:08.657Z</time></trkpt><trkpt lat="42.2536724" lon="13.4920695"><ele>1369.0</ele><time>2026-04-10T09:55:09.643Z</time></trkpt><trkpt lat="42.2538367" lon="13.4919405"><ele>1368.0</ele><time>2026-04-10T09:55:10.644Z</time></trkpt><trkpt lat="42.2540102" lon="13.4917421"><ele>1367.0</ele><time>2026-04-10T09:55:11.648Z</time></trkpt><trkpt lat="42.2541867" lon="13.4915133"><ele>1367.0</ele><time>2026-04-10T09:55:12.636Z</time></trkpt><trkpt lat="42.2543563" lon="13.4913224"><ele>1367.0</ele><time>2026-04-10T09:55:13.643Z</time></trkpt><trkpt lat="42.254498" lon="13.4910889"><ele>1367.0</ele><time>2026-04-10T09:55:14.643Z</time></trkpt><trkpt lat="42.2546136" lon="13.4908553"><ele>1367.3333333333335</ele><time>2026-04-10T09:55:15.647Z</time></trkpt><trkpt lat="42.254759" lon="13.4906803"><ele>1367.6666666666667</ele><time>2026-04-10T09:55:16.647Z</time></trkpt><trkpt lat="42.2548645" lon="13.490515"><ele>1368.0</ele><time>2026-04-10T09:55:17.652Z</time></trkpt><trkpt lat="42.2549864" lon="13.4904584"><ele>1368.0</ele><time>2026-04-10T09:55:18.669Z</time></trkpt><trkpt lat="42.2551113" lon="13.4903947"><ele>1368.0</ele><time>2026-04-10T09:55:19.659Z</time></trkpt><trkpt lat="42.2552724" lon="13.4904397"><ele>1368.0</ele><time>2026-04-10T09:55:20.655Z</time></trkpt><trkpt lat="42.2554379" lon="13.4905294"><ele>1368.0</ele><time>2026-04-10T09:55:21.656Z</time></trkpt><trkpt lat="42.2555679" lon="13.4905736"><ele>1368.0</ele><time>2026-04-10T09:55:22.648Z</time></trkpt><trkpt lat="42.2557619" lon="13.490624"><ele>1368.0</ele><time>2026-04-10T09:55:23.655Z</time></trkpt><trkpt lat="42.2559594" lon="13.490723"><ele>1366.0</ele><time>2026-04-10T09:55:24.654Z</time></trkpt><trkpt lat="42.2561283" lon="13.4908046"><ele>1364.0</ele><time>2026-04-10T09:55:25.652Z</time></trkpt><trkpt lat="42.2562732" lon="13.4909205"><ele>1362.0</ele><time>2026-04-10T09:55:26.673Z</time></trkpt><trkpt lat="42.2564041" lon="13.4910528"><ele>1358.6666666666667</ele><time>2026-04-10T09:55:27.673Z</time></trkpt><trkpt lat="42.2565383" lon="13.4911865"><ele>1355.3333333333335</ele><time>2026-04-10T09:55:28.673Z</time></trkpt><trkpt lat="42.256694" lon="13.4913258"><ele>1352.0</ele><time>2026-04-10T09:55:29.683Z</time></trkpt><trkpt lat="42.256818" lon="13.491529"><ele>1352.0</ele><time>2026-04-10T09:55:30.677Z</time></trkpt><trkpt lat="42.2569542" lon="13.4916998"><ele>1352.0</ele><time>2026-04-10T09:55:31.676Z</time></trkpt><trkpt lat="42.2570137" lon="13.4918811"><ele>1352.0</ele><time>2026-04-10T09:55:32.67Z</time></trkpt><trkpt lat="42.2570571" lon="13.4920278"><ele>1352.0</ele><time>2026-04-10T09:55:33.669Z</time></trkpt><trkpt lat="42.2571145" lon="13.4921836"><ele>1352.0</ele><time>2026-04-10T09:55:34.667Z</time></trkpt><trkpt lat="42.2571523" lon="13.4923329"><ele>1352.0</ele><time>2026-04-10T09:55:35.667Z</time></trkpt><trkpt lat="42.2572288" lon="13.4922158"><ele>1352.0</ele><time>2026-04-10T09:55:37.676Z</time></trkpt><trkpt lat="42.2571927" lon="13.4920698"><ele>1352.0</ele><time>2026-04-10T09:55:38.668Z</time></trkpt><trkpt lat="42.2571245" lon="13.4919325"><ele>1352.0</ele><time>2026-04-10T09:55:39.655Z</time></trkpt><trkpt lat="42.2570999" lon="13.4918173"><ele>1352.0</ele><time>2026-04-10T09:55:40.64Z</time></trkpt><trkpt lat="42.2570762" lon="13.4917021"><ele>1352.0</ele><time>2026-04-10T09:55:41.652Z</time></trkpt><trkpt lat="42.2569942" lon="13.4915536"><ele>1352.0</ele><time>2026-04-10T09:55:42.643Z</time></trkpt><trkpt lat="42.2569128" lon="13.491449"><ele>1352.0</ele><time>2026-04-10T09:55:43.653Z</time></trkpt><trkpt lat="42.2568398" lon="13.491363"><ele>1352.0</ele><time>2026-04-10T09:55:44.648Z</time></trkpt><trkpt lat="42.2568006" lon="13.4912502"><ele>1352.0</ele><time>2026-04-10T09:55:45.65Z</time></trkpt><trkpt lat="42.2567828" lon="13.4911521"><ele>1352.0</ele><time>2026-04-10T09:55:46.656Z</time></trkpt><trkpt lat="42.256778" lon="13.491067"><ele>1352.0</ele><time>2026-04-10T09:55:47.646Z</time></trkpt><trkpt lat="42.2568557" lon="13.491184"><ele>1352.0</ele><time>2026-04-10T09:55:52.626Z</time></trkpt><trkpt lat="42.2569241" lon="13.4912672"><ele>1352.0</ele><time>2026-04-10T09:55:53.628Z</time></trkpt><trkpt lat="42.2570218" lon="13.4913841"><ele>1352.0</ele><time>2026-04-10T09:55:54.635Z</time></trkpt><trkpt lat="42.257162" lon="13.4915697"><ele>1352.0</ele><time>2026-04-10T09:55:55.65Z</time></trkpt><trkpt lat="42.257296" lon="13.4917073"><ele>1348.0</ele><time>2026-04-10T09:55:56.668Z</time></trkpt><trkpt lat="42.2573813" lon="13.491787"><ele>1344.0</ele><time>2026-04-10T09:55:57.673Z</time></trkpt><trkpt lat="42.2574635" lon="13.4918479"><ele>1340.0</ele><time>2026-04-10T09:55:58.681Z</time></trkpt><trkpt lat="42.257539" lon="13.4919016"><ele>1336.0</ele><time>2026-04-10T09:55:59.69Z</time></trkpt><trkpt lat="42.2576125" lon="13.4919572"><ele>1332.0</ele><time>2026-04-10T09:56:00.692Z</time></trkpt><trkpt lat="42.2576759" lon="13.4920096"><ele>1328.0</ele><time>2026-04-10T09:56:01.689Z</time></trkpt><trkpt lat="42.2577364" lon="13.4920577"><ele>1328.0</ele><time>2026-04-10T09:56:02.688Z</time></trkpt><trkpt lat="42.2578045" lon="13.4920958"><ele>1328.0</ele><time>2026-04-10T09:56:03.688Z</time></trkpt><trkpt lat="42.2578717" lon="13.4921282"><ele>1328.0</ele><time>2026-04-10T09:56:04.688Z</time></trkpt><trkpt lat="42.2579386" lon="13.492155"><ele>1328.0</ele><time>2026-04-10T09:56:05.68Z</time></trkpt><trkpt lat="42.2580119" lon="13.4921646"><ele>1328.0</ele><time>2026-04-10T09:56:06.68Z</time></trkpt><trkpt lat="42.2580889" lon="13.4921584"><ele>1328.0</ele><time>2026-04-10T09:56:07.684Z</time></trkpt><trkpt lat="42.2581533" lon="13.4921534"><ele>1328.0</ele><time>2026-04-10T09:56:08.678Z</time></trkpt><trkpt lat="42.2582428" lon="13.4921385"><ele>1328.0</ele><time>2026-04-10T09:56:10.687Z</time></trkpt><trkpt lat="42.2582991" lon="13.4920737"><ele>1328.0</ele><time>2026-04-10T09:56:14.7Z</time></trkpt><trkpt lat="42.2582236" lon="13.4920709"><ele>1328.0</ele><time>2026-04-10T09:56:18.692Z</time></trkpt><trkpt lat="42.2580587" lon="13.4920954"><ele>1328.0</ele><time>2026-04-10T09:56:20.68Z</time></trkpt><trkpt lat="42.2579764" lon="13.4920845"><ele>1328.0</ele><time>2026-04-10T09:56:21.685Z</time></trkpt><trkpt lat="42.2578991" lon="13.4920784"><ele>1328.0</ele><time>2026-04-10T09:56:22.684Z</time></trkpt><trkpt lat="42.2577736" lon="13.492021"><ele>1328.0</ele><time>2026-04-10T09:56:24.684Z</time></trkpt><trkpt lat="42.2577093" lon="13.4919858"><ele>1328.0</ele><time>2026-04-10T09:56:25.689Z</time></trkpt><trkpt lat="42.257637" lon="13.4919579"><ele>1328.0</ele><time>2026-04-10T09:56:26.69Z</time></trkpt><trkpt lat="42.2575708" lon="13.49193"><ele>1328.0</ele><time>2026-04-10T09:56:28.687Z</time></trkpt><trkpt lat="42.2575508" lon="13.4920414"><ele>1328.0</ele><time>2026-04-10T09:56:31.687Z</time></trkpt><trkpt lat="42.2575606" lon="13.4921329"><ele>1328.0</ele><time>2026-04-10T09:56:32.703Z</time></trkpt><trkpt lat="42.2575579" lon="13.4922797"><ele>1328.0</ele><time>2026-04-10T09:56:34.69Z</time></trkpt><trkpt lat="42.2575327" lon="13.4923943"><ele>1328.0</ele><time>2026-04-10T09:56:36.688Z</time></trkpt><trkpt lat="42.2574585" lon="13.4925234"><ele>1328.0</ele><time>2026-04-10T09:56:38.686Z</time></trkpt><trkpt lat="42.2574336" lon="13.4926032"><ele>1328.0</ele><time>2026-04-10T09:56:39.685Z</time></trkpt><trkpt lat="42.2574053" lon="13.492685"><ele>1328.0</ele><time>2026-04-10T09:56:40.68Z</time></trkpt><trkpt lat="42.257371" lon="13.4927694"><ele>1325.75</ele><time>2026-04-10T09:56:41.672Z</time></trkpt><trkpt lat="42.2573479" lon="13.4929251"><ele>1323.5</ele><time>2026-04-10T09:56:43.681Z</time></trkpt><trkpt lat="42.2573285" lon="13.4930635"><ele>1321.25</ele><time>2026-04-10T09:56:45.668Z</time></trkpt><trkpt lat="42.2572471" lon="13.4931921"><ele>1319.0</ele><time>2026-04-10T09:56:47.675Z</time></trkpt><trkpt lat="42.2571841" lon="13.4933456"><ele>1323.0</ele><time>2026-04-10T09:56:49.666Z</time></trkpt><trkpt lat="42.2571363" lon="13.4934306"><ele>1327.0</ele><time>2026-04-10T09:56:50.673Z</time></trkpt><trkpt lat="42.2570891" lon="13.4935293"><ele>1331.0</ele><time>2026-04-10T09:56:51.664Z</time></trkpt><trkpt lat="42.2570349" lon="13.4936268"><ele>1335.0</ele><time>2026-04-10T09:56:52.67Z</time></trkpt><trkpt lat="42.2569763" lon="13.4937417"><ele>1339.0</ele><time>2026-04-10T09:56:53.672Z</time></trkpt><trkpt lat="42.256915" lon="13.4938736"><ele>1339.0</ele><time>2026-04-10T09:56:54.665Z</time></trkpt><trkpt lat="42.2568664" lon="13.4939892"><ele>1339.0</ele><time>2026-04-10T09:56:55.669Z</time></trkpt><trkpt lat="42.2568126" lon="13.4941055"><ele>1339.0</ele><time>2026-04-10T09:56:56.663Z</time></trkpt><trkpt lat="42.2567496" lon="13.4941995"><ele>1339.0</ele><time>2026-04-10T09:56:57.663Z</time></trkpt><trkpt lat="42.2566888" lon="13.4943004"><ele>1339.0</ele><time>2026-04-10T09:56:58.657Z</time></trkpt><trkpt lat="42.256617" lon="13.4944024"><ele>1339.0</ele><time>2026-04-10T09:56:59.667Z</time></trkpt><trkpt lat="42.2565477" lon="13.4945286"><ele>1339.0</ele><time>2026-04-10T09:57:00.65Z</time></trkpt><trkpt lat="42.256521" lon="13.4946108"><ele>1339.0</ele><time>2026-04-10T09:57:01.655Z</time></trkpt><trkpt lat="42.2565057" lon="13.4947277"><ele>1339.0</ele><time>2026-04-10T09:57:02.643Z</time></trkpt><trkpt lat="42.2565444" lon="13.4948296"><ele>1339.0</ele><time>2026-04-10T09:57:03.638Z</time></trkpt><trkpt lat="42.2565755" lon="13.4949212"><ele>1339.0</ele><time>2026-04-10T09:57:04.639Z</time></trkpt><trkpt lat="42.2566174" lon="13.4950174"><ele>1336.8000000000002</ele><time>2026-04-10T09:57:05.653Z</time></trkpt><trkpt lat="42.2566073" lon="13.4951771"><ele>1334.6000000000001</ele><time>2026-04-10T09:57:07.662Z</time></trkpt><trkpt lat="42.2565853" lon="13.4953443"><ele>1332.4</ele><time>2026-04-10T09:57:09.662Z</time></trkpt><trkpt lat="42.2565626" lon="13.4954307"><ele>1330.2</ele><time>2026-04-10T09:57:10.664Z</time></trkpt><trkpt lat="42.2565259" lon="13.4955237"><ele>1328.0</ele><time>2026-04-10T09:57:11.65Z</time></trkpt><trkpt lat="42.2564807" lon="13.4956256"><ele>1332.2</ele><time>2026-04-10T09:57:12.642Z</time></trkpt><trkpt lat="42.2564499" lon="13.495727"><ele>1336.4</ele><time>2026-04-10T09:57:13.649Z</time></trkpt><trkpt lat="42.2563807" lon="13.4958452"><ele>1340.6000000000001</ele><time>2026-04-10T09:57:14.647Z</time></trkpt><trkpt lat="42.2562988" lon="13.495962"><ele>1344.8000000000002</ele><time>2026-04-10T09:57:15.646Z</time></trkpt><trkpt lat="42.2562335" lon="13.4960756"><ele>1349.0</ele><time>2026-04-10T09:57:16.644Z</time></trkpt><trkpt lat="42.2561657" lon="13.4962045"><ele>1345.8000000000002</ele><time>2026-04-10T09:57:17.652Z</time></trkpt><trkpt lat="42.256125" lon="13.496309"><ele>1342.6000000000001</ele><time>2026-04-10T09:57:18.649Z</time></trkpt><trkpt lat="42.2560765" lon="13.4964306"><ele>1339.4</ele><time>2026-04-10T09:57:19.655Z</time></trkpt><trkpt lat="42.2560434" lon="13.496556"><ele>1336.2</ele><time>2026-04-10T09:57:20.655Z</time></trkpt><trkpt lat="42.2560048" lon="13.4966882"><ele>1333.0</ele><time>2026-04-10T09:57:21.657Z</time></trkpt><trkpt lat="42.2559724" lon="13.4968097"><ele>1333.0</ele><time>2026-04-10T09:57:22.645Z</time></trkpt><trkpt lat="42.2559363" lon="13.4969395"><ele>1333.0</ele><time>2026-04-10T09:57:23.648Z</time></trkpt><trkpt lat="42.2559054" lon="13.4970574"><ele>1333.0</ele><time>2026-04-10T09:57:24.65Z</time></trkpt><trkpt lat="42.25587" lon="13.497159"><ele>1333.0</ele><time>2026-04-10T09:57:25.642Z</time></trkpt><trkpt lat="42.255807" lon="13.497245"><ele>1333.0</ele><time>2026-04-10T09:57:26.642Z</time></trkpt><trkpt lat="42.2557439" lon="13.4973257"><ele>1330.3333333333333</ele><time>2026-04-10T09:57:27.639Z</time></trkpt><trkpt lat="42.2556724" lon="13.4974039"><ele>1327.6666666666665</ele><time>2026-04-10T09:57:28.645Z</time></trkpt><trkpt lat="42.2556201" lon="13.4974967"><ele>1325.0</ele><time>2026-04-10T09:57:29.658Z</time></trkpt><trkpt lat="42.2555831" lon="13.4975998"><ele>1322.3333333333333</ele><time>2026-04-10T09:57:30.655Z</time></trkpt><trkpt lat="42.2555548" lon="13.4977171"><ele>1319.6666666666667</ele><time>2026-04-10T09:57:31.652Z</time></trkpt><trkpt lat="42.2555459" lon="13.4978018"><ele>1317.0</ele><time>2026-04-10T09:57:32.66Z</time></trkpt><trkpt lat="42.2555486" lon="13.497912"><ele>1320.1999999999998</ele><time>2026-04-10T09:57:33.655Z</time></trkpt><trkpt lat="42.2555535" lon="13.4980472"><ele>1323.4</ele><time>2026-04-10T09:57:34.662Z</time></trkpt><trkpt lat="42.2555351" lon="13.4981956"><ele>1326.6</ele><time>2026-04-10T09:57:35.658Z</time></trkpt><trkpt lat="42.2555177" lon="13.4983311"><ele>1329.8000000000002</ele><time>2026-04-10T09:57:36.657Z</time></trkpt><trkpt lat="42.2554979" lon="13.4984547"><ele>1333.0</ele><time>2026-04-10T09:57:37.659Z</time></trkpt><trkpt lat="42.255474" lon="13.4985706"><ele>1333.0</ele><time>2026-04-10T09:57:38.657Z</time></trkpt><trkpt lat="42.255445" lon="13.4986881"><ele>1333.0</ele><time>2026-04-10T09:57:39.656Z</time></trkpt><trkpt lat="42.2554153" lon="13.4988079"><ele>1333.0</ele><time>2026-04-10T09:57:40.652Z</time></trkpt><trkpt lat="42.2553974" lon="13.4989204"><ele>1333.0</ele><time>2026-04-10T09:57:41.65Z</time></trkpt><trkpt lat="42.2553744" lon="13.4990061"><ele>1333.0</ele><time>2026-04-10T09:57:42.655Z</time></trkpt><trkpt lat="42.2553441" lon="13.4990856"><ele>1333.0</ele><time>2026-04-10T09:57:43.655Z</time></trkpt><trkpt lat="42.2553124" lon="13.4991747"><ele>1330.8333333333333</ele><time>2026-04-10T09:57:44.66Z</time></trkpt><trkpt lat="42.2552761" lon="13.4992735"><ele>1328.6666666666665</ele><time>2026-04-10T09:57:45.656Z</time></trkpt><trkpt lat="42.2552313" lon="13.4993627"><ele>1326.5</ele><time>2026-04-10T09:57:46.655Z</time></trkpt><trkpt lat="42.2551968" lon="13.4994595"><ele>1324.3333333333333</ele><time>2026-04-10T09:57:47.666Z</time></trkpt><trkpt lat="42.2551588" lon="13.499544"><ele>1322.1666666666667</ele><time>2026-04-10T09:57:48.66Z</time></trkpt><trkpt lat="42.2551177" lon="13.4996454"><ele>1320.0</ele><time>2026-04-10T09:57:49.656Z</time></trkpt><trkpt lat="42.2550884" lon="13.4997505"><ele>1319.0</ele><time>2026-04-10T09:57:50.659Z</time></trkpt><trkpt lat="42.2550475" lon="13.4998611"><ele>1318.0</ele><time>2026-04-10T09:57:51.656Z</time></trkpt><trkpt lat="42.2550007" lon="13.499966"><ele>1317.0</ele><time>2026-04-10T09:57:52.66Z</time></trkpt><trkpt lat="42.2549511" lon="13.5000753"><ele>1316.0</ele><time>2026-04-10T09:57:53.654Z</time></trkpt><trkpt lat="42.2549147" lon="13.5001774"><ele>1315.0</ele><time>2026-04-10T09:57:54.647Z</time></trkpt><trkpt lat="42.2548671" lon="13.500274"><ele>1314.0</ele><time>2026-04-10T09:57:55.645Z</time></trkpt><trkpt lat="42.2548328" lon="13.5004032"><ele>1313.0</ele><time>2026-04-10T09:57:56.636Z</time></trkpt><trkpt lat="42.2548266" lon="13.500505"><ele>1312.0</ele><time>2026-04-10T09:57:57.643Z</time></trkpt><trkpt lat="42.2548673" lon="13.5006508"><ele>1311.0</ele><time>2026-04-10T09:57:59.665Z</time></trkpt><trkpt lat="42.2548937" lon="13.5007329"><ele>1310.0</ele><time>2026-04-10T09:58:00.668Z</time></trkpt><trkpt lat="42.2548886" lon="13.5008285"><ele>1309.0</ele><time>2026-04-10T09:58:01.661Z</time></trkpt><trkpt lat="42.2548746" lon="13.500926"><ele>1308.0</ele><time>2026-04-10T09:58:02.66Z</time></trkpt><trkpt lat="42.2548598" lon="13.5010399"><ele>1308.0</ele><time>2026-04-10T09:58:03.663Z</time></trkpt><trkpt lat="42.2548355" lon="13.501141"><ele>1308.0</ele><time>2026-04-10T09:58:04.664Z</time></trkpt><trkpt lat="42.2548184" lon="13.5012408"><ele>1308.0</ele><time>2026-04-10T09:58:05.666Z</time></trkpt><trkpt lat="42.2548092" lon="13.5013375"><ele>1308.0</ele><time>2026-04-10T09:58:06.666Z</time></trkpt><trkpt lat="42.2547926" lon="13.5014492"><ele>1308.0</ele><time>2026-04-10T09:58:07.663Z</time></trkpt><trkpt lat="42.2547729" lon="13.5015494"><ele>1308.0</ele><time>2026-04-10T09:58:08.663Z</time></trkpt><trkpt lat="42.2547376" lon="13.5016623"><ele>1308.0</ele><time>2026-04-10T09:58:09.665Z</time></trkpt><trkpt lat="42.2546949" lon="13.5017502"><ele>1308.0</ele><time>2026-04-10T09:58:10.666Z</time></trkpt><trkpt lat="42.2546542" lon="13.5018413"><ele>1308.0</ele><time>2026-04-10T09:58:11.667Z</time></trkpt><trkpt lat="42.254609" lon="13.5019365"><ele>1308.0</ele><time>2026-04-10T09:58:12.664Z</time></trkpt><trkpt lat="42.2545722" lon="13.5020205"><ele>1308.0</ele><time>2026-04-10T09:58:13.675Z</time></trkpt><trkpt lat="42.2545387" lon="13.5021151"><ele>1308.0</ele><time>2026-04-10T09:58:14.67Z</time></trkpt><trkpt lat="42.2545109" lon="13.5022007"><ele>1308.0</ele><time>2026-04-10T09:58:15.666Z</time></trkpt><trkpt lat="42.2544928" lon="13.5022929"><ele>1308.0</ele><time>2026-04-10T09:58:16.648Z</time></trkpt><trkpt lat="42.2544991" lon="13.5023879"><ele>1308.0</ele><time>2026-04-10T09:58:17.663Z</time></trkpt><trkpt lat="42.2545578" lon="13.5025208"><ele>1308.0</ele><time>2026-04-10T09:58:19.67Z</time></trkpt><trkpt lat="42.2546209" lon="13.5026774"><ele>1308.0</ele><time>2026-04-10T09:58:21.676Z</time></trkpt><trkpt lat="42.2546447" lon="13.502775"><ele>1308.0</ele><time>2026-04-10T09:58:22.669Z</time></trkpt><trkpt lat="42.2546505" lon="13.5029031"><ele>1308.0</ele><time>2026-04-10T09:58:23.667Z</time></trkpt><trkpt lat="42.2546435" lon="13.5030243"><ele>1308.0</ele><time>2026-04-10T09:58:24.675Z</time></trkpt><trkpt lat="42.2546395" lon="13.5031494"><ele>1308.0</ele><time>2026-04-10T09:58:25.673Z</time></trkpt><trkpt lat="42.2546382" lon="13.5032625"><ele>1308.0</ele><time>2026-04-10T09:58:26.677Z</time></trkpt><trkpt lat="42.2546434" lon="13.5033654"><ele>1308.0</ele><time>2026-04-10T09:58:27.672Z</time></trkpt><trkpt lat="42.2546393" lon="13.5034712"><ele>1305.8000000000002</ele><time>2026-04-10T09:58:28.679Z</time></trkpt><trkpt lat="42.2546208" lon="13.5035539"><ele>1303.6</ele><time>2026-04-10T09:58:29.684Z</time></trkpt><trkpt lat="42.2546064" lon="13.5036541"><ele>1301.4</ele><time>2026-04-10T09:58:30.681Z</time></trkpt><trkpt lat="42.254587" lon="13.50381"><ele>1299.1999999999998</ele><time>2026-04-10T09:58:32.675Z</time></trkpt><trkpt lat="42.254542" lon="13.503955"><ele>1297.0</ele><time>2026-04-10T09:58:34.675Z</time></trkpt><trkpt lat="42.2544988" lon="13.5040418"><ele>1294.8333333333333</ele><time>2026-04-10T09:58:35.669Z</time></trkpt><trkpt lat="42.2544693" lon="13.5041351"><ele>1292.6666666666665</ele><time>2026-04-10T09:58:36.662Z</time></trkpt><trkpt lat="42.2544464" lon="13.5042281"><ele>1290.5</ele><time>2026-04-10T09:58:37.664Z</time></trkpt><trkpt lat="42.2544526" lon="13.5043247"><ele>1288.3333333333333</ele><time>2026-04-10T09:58:38.667Z</time></trkpt><trkpt lat="42.2544714" lon="13.5044401"><ele>1286.1666666666667</ele><time>2026-04-10T09:58:39.679Z</time></trkpt><trkpt lat="42.2544836" lon="13.5045441"><ele>1284.0</ele><time>2026-04-10T09:58:40.668Z</time></trkpt><trkpt lat="42.2544871" lon="13.5046403"><ele>1282.8333333333333</ele><time>2026-04-10T09:58:41.668Z</time></trkpt><trkpt lat="42.2544763" lon="13.5047348"><ele>1281.6666666666667</ele><time>2026-04-10T09:58:42.668Z</time></trkpt><trkpt lat="42.254434" lon="13.5048271"><ele>1280.5</ele><time>2026-04-10T09:58:43.666Z</time></trkpt><trkpt lat="42.2543907" lon="13.5049257"><ele>1279.3333333333335</ele><time>2026-04-10T09:58:44.672Z</time></trkpt><trkpt lat="42.254354" lon="13.5050268"><ele>1278.1666666666667</ele><time>2026-04-10T09:58:45.665Z</time></trkpt><trkpt lat="42.2543249" lon="13.5051256"><ele>1277.0</ele><time>2026-04-10T09:58:46.674Z</time></trkpt><trkpt lat="42.2543058" lon="13.505219"><ele>1276.9999999999998</ele><time>2026-04-10T09:58:47.669Z</time></trkpt><trkpt lat="42.2542849" lon="13.5053083"><ele>1277.0</ele><time>2026-04-10T09:58:48.665Z</time></trkpt><trkpt lat="42.2542849" lon="13.5053989"><ele>1277.0</ele><time>2026-04-10T09:58:49.654Z</time></trkpt><trkpt lat="42.254298" lon="13.505494"><ele>1277.0</ele><time>2026-04-10T09:58:50.667Z</time></trkpt><trkpt lat="42.2543146" lon="13.5055981"><ele>1277.0</ele><time>2026-04-10T09:58:51.661Z</time></trkpt><trkpt lat="42.2543313" lon="13.505701"><ele>1276.9999999999998</ele><time>2026-04-10T09:58:52.668Z</time></trkpt><trkpt lat="42.2543432" lon="13.5058044"><ele>1277.0</ele><time>2026-04-10T09:58:53.674Z</time></trkpt><trkpt lat="42.2543586" lon="13.5059116"><ele>1274.6666666666667</ele><time>2026-04-10T09:58:54.671Z</time></trkpt><trkpt lat="42.2543675" lon="13.5059997"><ele>1272.3333333333335</ele><time>2026-04-10T09:58:55.682Z</time></trkpt><trkpt lat="42.2543805" lon="13.5061169"><ele>1270.0</ele><time>2026-04-10T09:58:56.673Z</time></trkpt><trkpt lat="42.2543863" lon="13.5062104"><ele>1267.6666666666667</ele><time>2026-04-10T09:58:57.68Z</time></trkpt><trkpt lat="42.2543899" lon="13.5063152"><ele>1265.3333333333333</ele><time>2026-04-10T09:58:58.672Z</time></trkpt><trkpt lat="42.2543882" lon="13.5064227"><ele>1263.0</ele><time>2026-04-10T09:58:59.678Z</time></trkpt><trkpt lat="42.2544134" lon="13.5065671"><ele>1261.8</ele><time>2026-04-10T09:59:01.667Z</time></trkpt><trkpt lat="42.2544856" lon="13.5066059"><ele>1260.6</ele><time>2026-04-10T09:59:03.67Z</time></trkpt><trkpt lat="42.2546011" lon="13.5066247"><ele>1259.4</ele><time>2026-04-10T09:59:05.668Z</time></trkpt><trkpt lat="42.25466" lon="13.5066967"><ele>1258.2</ele><time>2026-04-10T09:59:09.678Z</time></trkpt><trkpt lat="42.2546673" lon="13.5068098"><ele>1257.0</ele><time>2026-04-10T09:59:11.683Z</time></trkpt><trkpt lat="42.2546798" lon="13.5069735"><ele>1256.0</ele><time>2026-04-10T09:59:13.676Z</time></trkpt><trkpt lat="42.2546568" lon="13.5070966"><ele>1255.0</ele><time>2026-04-10T09:59:15.679Z</time></trkpt><trkpt lat="42.2545993" lon="13.5072076"><ele>1254.0</ele><time>2026-04-10T09:59:17.673Z</time></trkpt><trkpt lat="42.2545857" lon="13.5072913"><ele>1253.0</ele><time>2026-04-10T09:59:18.665Z</time></trkpt><trkpt lat="42.2545997" lon="13.507388"><ele>1252.0</ele><time>2026-04-10T09:59:19.662Z</time></trkpt><trkpt lat="42.2546062" lon="13.5074771"><ele>1251.0</ele><time>2026-04-10T09:59:20.666Z</time></trkpt><trkpt lat="42.2546036" lon="13.5076003"><ele>1251.0</ele><time>2026-04-10T09:59:22.666Z</time></trkpt><trkpt lat="42.2545459" lon="13.5076549"><ele>1251.0</ele><time>2026-04-10T09:59:24.667Z</time></trkpt><trkpt lat="42.2546147" lon="13.5077066"><ele>1251.0</ele><time>2026-04-10T09:59:28.682Z</time></trkpt><trkpt lat="42.2547331" lon="13.5076737"><ele>1251.0</ele><time>2026-04-10T09:59:30.689Z</time></trkpt><trkpt lat="42.2548509" lon="13.5076616"><ele>1251.0</ele><time>2026-04-10T09:59:32.679Z</time></trkpt><trkpt lat="42.254927" lon="13.5076655"><ele>1247.6</ele><time>2026-04-10T09:59:33.694Z</time></trkpt><trkpt lat="42.2549947" lon="13.5076729"><ele>1244.1999999999998</ele><time>2026-04-10T09:59:34.681Z</time></trkpt><trkpt lat="42.2551071" lon="13.5077013"><ele>1240.8000000000002</ele><time>2026-04-10T09:59:36.688Z</time></trkpt><trkpt lat="42.255218" lon="13.5077376"><ele>1237.4</ele><time>2026-04-10T09:59:38.685Z</time></trkpt><trkpt lat="42.2553315" lon="13.5078002"><ele>1234.0</ele><time>2026-04-10T09:59:40.69Z</time></trkpt><trkpt lat="42.2554234" lon="13.5078647"><ele>1233.6000000000001</ele><time>2026-04-10T09:59:42.69Z</time></trkpt><trkpt lat="42.2555322" lon="13.5079177"><ele>1233.2</ele><time>2026-04-10T09:59:44.689Z</time></trkpt><trkpt lat="42.2556261" lon="13.5079701"><ele>1232.8000000000002</ele><time>2026-04-10T09:59:46.692Z</time></trkpt><trkpt lat="42.2557293" lon="13.5080039"><ele>1232.4</ele><time>2026-04-10T09:59:48.689Z</time></trkpt><trkpt lat="42.2558333" lon="13.5080619"><ele>1232.0</ele><time>2026-04-10T09:59:50.683Z</time></trkpt><trkpt lat="42.2559608" lon="13.5081166"><ele>1232.0</ele><time>2026-04-10T09:59:52.685Z</time></trkpt><trkpt lat="42.2560349" lon="13.5081588"><ele>1232.0</ele><time>2026-04-10T09:59:53.681Z</time></trkpt><trkpt lat="42.2561154" lon="13.5082056"><ele>1232.0</ele><time>2026-04-10T09:59:54.673Z</time></trkpt><trkpt lat="42.2562236" lon="13.5082708"><ele>1232.0</ele><time>2026-04-10T09:59:55.68Z</time></trkpt><trkpt lat="42.2563199" lon="13.5083381"><ele>1232.0</ele><time>2026-04-10T09:59:56.683Z</time></trkpt><trkpt lat="42.2564294" lon="13.5084077"><ele>1231.5</ele><time>2026-04-10T09:59:57.674Z</time></trkpt><trkpt lat="42.2565312" lon="13.5084916"><ele>1231.0</ele><time>2026-04-10T09:59:58.672Z</time></trkpt><trkpt lat="42.2566376" lon="13.5085837"><ele>1230.5</ele><time>2026-04-10T09:59:59.685Z</time></trkpt><trkpt lat="42.25675" lon="13.508686"><ele>1230.0</ele><time>2026-04-10T10:00:00.674Z</time></trkpt><trkpt lat="42.2568652" lon="13.5087981"><ele>1230.0</ele><time>2026-04-10T10:00:01.677Z</time></trkpt><trkpt lat="42.2569752" lon="13.5088971"><ele>1230.0</ele><time>2026-04-10T10:00:02.67Z</time></trkpt><trkpt lat="42.2570812" lon="13.5089871"><ele>1230.0</ele><time>2026-04-10T10:00:03.67Z</time></trkpt><trkpt lat="42.2572224" lon="13.509099"><ele>1230.0</ele><time>2026-04-10T10:00:04.679Z</time></trkpt><trkpt lat="42.2573662" lon="13.5091832"><ele>1228.3333333333333</ele><time>2026-04-10T10:00:05.671Z</time></trkpt><trkpt lat="42.2575103" lon="13.5092971"><ele>1226.6666666666665</ele><time>2026-04-10T10:00:06.685Z</time></trkpt><trkpt lat="42.2576672" lon="13.5093942"><ele>1225.0</ele><time>2026-04-10T10:00:07.683Z</time></trkpt><trkpt lat="42.2578386" lon="13.509473"><ele>1225.0</ele><time>2026-04-10T10:00:08.685Z</time></trkpt><trkpt lat="42.2580168" lon="13.5095365"><ele>1225.0</ele><time>2026-04-10T10:00:09.679Z</time></trkpt><trkpt lat="42.2581748" lon="13.5095872"><ele>1225.0</ele><time>2026-04-10T10:00:10.682Z</time></trkpt><trkpt lat="42.2583674" lon="13.5096486"><ele>1225.0</ele><time>2026-04-10T10:00:11.699Z</time></trkpt><trkpt lat="42.2585616" lon="13.509714"><ele>1225.0</ele><time>2026-04-10T10:00:12.686Z</time></trkpt><trkpt lat="42.2587596" lon="13.5097967"><ele>1225.0</ele><time>2026-04-10T10:00:13.684Z</time></trkpt><trkpt lat="42.2589628" lon="13.5098616"><ele>1225.0</ele><time>2026-04-10T10:00:14.69Z</time></trkpt><trkpt lat="42.2591702" lon="13.509923"><ele>1225.0</ele><time>2026-04-10T10:00:15.692Z</time></trkpt><trkpt lat="42.2593843" lon="13.5099827"><ele>1225.0</ele><time>2026-04-10T10:00:16.681Z</time></trkpt><trkpt lat="42.2595652" lon="13.5100211"><ele>1225.0</ele><time>2026-04-10T10:00:17.693Z</time></trkpt><trkpt lat="42.2597276" lon="13.5100785"><ele>1225.0</ele><time>2026-04-10T10:00:18.672Z</time></trkpt><trkpt lat="42.2598623" lon="13.5101452"><ele>1225.0</ele><time>2026-04-10T10:00:19.684Z</time></trkpt><trkpt lat="42.2599979" lon="13.5101948"><ele>1225.0</ele><time>2026-04-10T10:00:20.677Z</time></trkpt><trkpt lat="42.2601306" lon="13.5102275"><ele>1225.0</ele><time>2026-04-10T10:00:21.682Z</time></trkpt><trkpt lat="42.2602399" lon="13.5102826"><ele>1225.0</ele><time>2026-04-10T10:00:22.681Z</time></trkpt><trkpt lat="42.2603605" lon="13.5102964"><ele>1225.0</ele><time>2026-04-10T10:00:23.681Z</time></trkpt><trkpt lat="42.2605088" lon="13.5103209"><ele>1223.75</ele><time>2026-04-10T10:00:24.688Z</time></trkpt><trkpt lat="42.2606469" lon="13.5103093"><ele>1222.5</ele><time>2026-04-10T10:00:25.683Z</time></trkpt><trkpt lat="42.2607815" lon="13.5102698"><ele>1221.25</ele><time>2026-04-10T10:00:26.692Z</time></trkpt><trkpt lat="42.2609054" lon="13.5102184"><ele>1220.0</ele><time>2026-04-10T10:00:27.682Z</time></trkpt><trkpt lat="42.2610654" lon="13.5101498"><ele>1220.0</ele><time>2026-04-10T10:00:28.679Z</time></trkpt><trkpt lat="42.26119" lon="13.5100948"><ele>1220.0</ele><time>2026-04-10T10:00:29.685Z</time></trkpt><trkpt lat="42.2613047" lon="13.5100291"><ele>1220.0</ele><time>2026-04-10T10:00:30.67Z</time></trkpt><trkpt lat="42.2614201" lon="13.5099279"><ele>1220.0</ele><time>2026-04-10T10:00:31.672Z</time></trkpt><trkpt lat="42.2614799" lon="13.5099931"><ele>1220.0</ele><time>2026-04-10T10:00:34.663Z</time></trkpt><trkpt lat="42.2614609" lon="13.5101217"><ele>1220.0</ele><time>2026-04-10T10:00:36.681Z</time></trkpt><trkpt lat="42.2613889" lon="13.5101963"><ele>1220.0</ele><time>2026-04-10T10:00:38.664Z</time></trkpt><trkpt lat="42.2613178" lon="13.5102437"><ele>1220.0</ele><time>2026-04-10T10:00:39.663Z</time></trkpt><trkpt lat="42.2612312" lon="13.5102998"><ele>1220.0</ele><time>2026-04-10T10:00:40.663Z</time></trkpt><trkpt lat="42.2611605" lon="13.5103753"><ele>1220.2</ele><time>2026-04-10T10:00:41.665Z</time></trkpt><trkpt lat="42.2610762" lon="13.5104815"><ele>1220.4</ele><time>2026-04-10T10:00:42.66Z</time></trkpt><trkpt lat="42.2610118" lon="13.5105883"><ele>1220.6</ele><time>2026-04-10T10:00:43.653Z</time></trkpt><trkpt lat="42.2609493" lon="13.5107022"><ele>1220.8</ele><time>2026-04-10T10:00:44.647Z</time></trkpt><trkpt lat="42.260901" lon="13.5108371"><ele>1221.0</ele><time>2026-04-10T10:00:45.646Z</time></trkpt><trkpt lat="42.2608436" lon="13.5109753"><ele>1221.0</ele><time>2026-04-10T10:00:46.636Z</time></trkpt><trkpt lat="42.2607808" lon="13.511109"><ele>1221.0</ele><time>2026-04-10T10:00:47.643Z</time></trkpt><trkpt lat="42.2607181" lon="13.5112485"><ele>1221.0</ele><time>2026-04-10T10:00:48.646Z</time></trkpt><trkpt lat="42.2606502" lon="13.5113891"><ele>1221.0</ele><time>2026-04-10T10:00:49.635Z</time></trkpt><trkpt lat="42.2605953" lon="13.5115113"><ele>1219.8</ele><time>2026-04-10T10:00:50.646Z</time></trkpt><trkpt lat="42.2605396" lon="13.5116218"><ele>1218.6</ele><time>2026-04-10T10:00:51.641Z</time></trkpt><trkpt lat="42.260486" lon="13.51173"><ele>1217.4</ele><time>2026-04-10T10:00:52.656Z</time></trkpt><trkpt lat="42.2604431" lon="13.5118585"><ele>1216.2</ele><time>2026-04-10T10:00:53.657Z</time></trkpt><trkpt lat="42.2604036" lon="13.5120065"><ele>1215.0</ele><time>2026-04-10T10:00:54.647Z</time></trkpt><trkpt lat="42.2603696" lon="13.5121754"><ele>1213.5</ele><time>2026-04-10T10:00:55.652Z</time></trkpt><trkpt lat="42.2603335" lon="13.5123264"><ele>1212.0</ele><time>2026-04-10T10:00:56.655Z</time></trkpt><trkpt lat="42.2602987" lon="13.5124894"><ele>1210.5</ele><time>2026-04-10T10:00:57.657Z</time></trkpt><trkpt lat="42.2602536" lon="13.5126335"><ele>1209.0</ele><time>2026-04-10T10:00:58.648Z</time></trkpt><trkpt lat="42.2602018" lon="13.5127982"><ele>1210.0</ele><time>2026-04-10T10:00:59.66Z</time></trkpt><trkpt lat="42.2601566" lon="13.5129403"><ele>1211.0</ele><time>2026-04-10T10:01:00.653Z</time></trkpt><trkpt lat="42.2601079" lon="13.5130648"><ele>1212.0</ele><time>2026-04-10T10:01:01.654Z</time></trkpt><trkpt lat="42.2600472" lon="13.5131915"><ele>1213.0</ele><time>2026-04-10T10:01:02.662Z</time></trkpt><trkpt lat="42.2599669" lon="13.5133179"><ele>1213.0</ele><time>2026-04-10T10:01:03.658Z</time></trkpt><trkpt lat="42.2598704" lon="13.5134353"><ele>1213.0</ele><time>2026-04-10T10:01:04.659Z</time></trkpt><trkpt lat="42.2597677" lon="13.5135305"><ele>1213.0</ele><time>2026-04-10T10:01:05.666Z</time></trkpt><trkpt lat="42.2596753" lon="13.5136698"><ele>1213.0</ele><time>2026-04-10T10:01:06.668Z</time></trkpt><trkpt lat="42.2595955" lon="13.513807"><ele>1211.2</ele><time>2026-04-10T10:01:07.657Z</time></trkpt><trkpt lat="42.2595184" lon="13.5139215"><ele>1209.4</ele><time>2026-04-10T10:01:08.66Z</time></trkpt><trkpt lat="42.2594441" lon="13.5140483"><ele>1207.6000000000001</ele><time>2026-04-10T10:01:09.654Z</time></trkpt><trkpt lat="42.2593728" lon="13.5141492"><ele>1205.8</ele><time>2026-04-10T10:01:10.654Z</time></trkpt><trkpt lat="42.2593027" lon="13.5142309"><ele>1204.0</ele><time>2026-04-10T10:01:11.656Z</time></trkpt><trkpt lat="42.2592363" lon="13.5143074"><ele>1204.0</ele><time>2026-04-10T10:01:12.659Z</time></trkpt><trkpt lat="42.2591589" lon="13.5143686"><ele>1204.0</ele><time>2026-04-10T10:01:13.665Z</time></trkpt><trkpt lat="42.2591005" lon="13.5144297"><ele>1204.0</ele><time>2026-04-10T10:01:14.659Z</time></trkpt><trkpt lat="42.2590507" lon="13.514514"><ele>1204.0</ele><time>2026-04-10T10:01:15.661Z</time></trkpt><trkpt lat="42.2590099" lon="13.5145958"><ele>1204.0</ele><time>2026-04-10T10:01:16.671Z</time></trkpt><trkpt lat="42.2589631" lon="13.5146636"><ele>1204.0</ele><time>2026-04-10T10:01:17.673Z</time></trkpt><trkpt lat="42.2589246" lon="13.5147526"><ele>1199.6000000000001</ele><time>2026-04-10T10:01:18.67Z</time></trkpt><trkpt lat="42.2588834" lon="13.5148581"><ele>1195.2</ele><time>2026-04-10T10:01:19.66Z</time></trkpt><trkpt lat="42.2588425" lon="13.5149681"><ele>1190.8000000000002</ele><time>2026-04-10T10:01:20.661Z</time></trkpt><trkpt lat="42.2588003" lon="13.5150921"><ele>1186.4</ele><time>2026-04-10T10:01:21.667Z</time></trkpt><trkpt lat="42.2587652" lon="13.5152292"><ele>1182.0</ele><time>2026-04-10T10:01:22.664Z</time></trkpt><trkpt lat="42.25875" lon="13.5153607"><ele>1181.8</ele><time>2026-04-10T10:01:23.665Z</time></trkpt><trkpt lat="42.2587328" lon="13.5154884"><ele>1181.6</ele><time>2026-04-10T10:01:24.66Z</time></trkpt><trkpt lat="42.2586972" lon="13.5155916"><ele>1181.3999999999999</ele><time>2026-04-10T10:01:25.67Z</time></trkpt><trkpt lat="42.2586505" lon="13.5157037"><ele>1181.2</ele><time>2026-04-10T10:01:26.668Z</time></trkpt><trkpt lat="42.2586019" lon="13.5158087"><ele>1181.0</ele><time>2026-04-10T10:01:27.675Z</time></trkpt><trkpt lat="42.258572" lon="13.5159397"><ele>1181.0</ele><time>2026-04-10T10:01:28.675Z</time></trkpt><trkpt lat="42.2585425" lon="13.5160547"><ele>1181.0</ele><time>2026-04-10T10:01:29.678Z</time></trkpt><trkpt lat="42.25849" lon="13.5161649"><ele>1181.0</ele><time>2026-04-10T10:01:30.677Z</time></trkpt><trkpt lat="42.2584332" lon="13.5162813"><ele>1181.0</ele><time>2026-04-10T10:01:31.673Z</time></trkpt><trkpt lat="42.2583831" lon="13.5163896"><ele>1181.0</ele><time>2026-04-10T10:01:32.674Z</time></trkpt><trkpt lat="42.2583274" lon="13.5165062"><ele>1181.6</ele><time>2026-04-10T10:01:33.679Z</time></trkpt><trkpt lat="42.2582734" lon="13.5166293"><ele>1182.1999999999998</ele><time>2026-04-10T10:01:34.677Z</time></trkpt><trkpt lat="42.2582256" lon="13.5167685"><ele>1182.8000000000002</ele><time>2026-04-10T10:01:35.673Z</time></trkpt><trkpt lat="42.2581806" lon="13.5169018"><ele>1183.4</ele><time>2026-04-10T10:01:36.669Z</time></trkpt><trkpt lat="42.2581351" lon="13.517029"><ele>1184.0</ele><time>2026-04-10T10:01:37.672Z</time></trkpt><trkpt lat="42.2580861" lon="13.5171491"><ele>1179.2</ele><time>2026-04-10T10:01:38.664Z</time></trkpt><trkpt lat="42.2580447" lon="13.5172752"><ele>1174.4</ele><time>2026-04-10T10:01:39.662Z</time></trkpt><trkpt lat="42.2580015" lon="13.5174036"><ele>1169.6</ele><time>2026-04-10T10:01:40.669Z</time></trkpt><trkpt lat="42.257965" lon="13.517528"><ele>1164.8</ele><time>2026-04-10T10:01:41.667Z</time></trkpt><trkpt lat="42.2579401" lon="13.5176231"><ele>1160.0</ele><time>2026-04-10T10:01:42.667Z</time></trkpt><trkpt lat="42.2579229" lon="13.5177277"><ele>1160.0</ele><time>2026-04-10T10:01:43.677Z</time></trkpt><trkpt lat="42.2579168" lon="13.5178266"><ele>1160.0</ele><time>2026-04-10T10:01:44.667Z</time></trkpt><trkpt lat="42.2579191" lon="13.5179464"><ele>1160.0</ele><time>2026-04-10T10:01:45.666Z</time></trkpt><trkpt lat="42.2579167" lon="13.5180556"><ele>1160.0</ele><time>2026-04-10T10:01:46.672Z</time></trkpt><trkpt lat="42.2579199" lon="13.5181767"><ele>1160.0</ele><time>2026-04-10T10:01:47.677Z</time></trkpt><trkpt lat="42.257933" lon="13.5183052"><ele>1160.0</ele><time>2026-04-10T10:01:48.678Z</time></trkpt><trkpt lat="42.2579441" lon="13.5184267"><ele>1160.5</ele><time>2026-04-10T10:01:49.676Z</time></trkpt><trkpt lat="42.2579707" lon="13.5185343"><ele>1161.0</ele><time>2026-04-10T10:01:50.657Z</time></trkpt><trkpt lat="42.2580137" lon="13.5186155"><ele>1161.5</ele><time>2026-04-10T10:01:51.669Z</time></trkpt><trkpt lat="42.2580609" lon="13.5186961"><ele>1162.0</ele><time>2026-04-10T10:01:52.678Z</time></trkpt><trkpt lat="42.2581123" lon="13.5187501"><ele>1162.5</ele><time>2026-04-10T10:01:53.675Z</time></trkpt><trkpt lat="42.2581606" lon="13.5188217"><ele>1163.0</ele><time>2026-04-10T10:01:54.673Z</time></trkpt><trkpt lat="42.2582048" lon="13.5189124"><ele>1163.0</ele><time>2026-04-10T10:01:55.674Z</time></trkpt><trkpt lat="42.2582406" lon="13.518991"><ele>1163.0</ele><time>2026-04-10T10:01:56.674Z</time></trkpt><trkpt lat="42.2582662" lon="13.5190699"><ele>1163.0</ele><time>2026-04-10T10:01:57.678Z</time></trkpt><trkpt lat="42.2581877" lon="13.519208"><ele>1163.0</ele><time>2026-04-10T10:01:59.679Z</time></trkpt><trkpt lat="42.2581206" lon="13.5192565"><ele>1163.0</ele><time>2026-04-10T10:02:00.662Z</time></trkpt><trkpt lat="42.258026" lon="13.519293"><ele>1163.0</ele><time>2026-04-10T10:02:02.657Z</time></trkpt><trkpt lat="42.2579478" lon="13.5193354"><ele>1161.0</ele><time>2026-04-10T10:02:19.674Z</time></trkpt><trkpt lat="42.2578731" lon="13.5194222"><ele>1159.0</ele><time>2026-04-10T10:02:21.664Z</time></trkpt><trkpt lat="42.2578336" lon="13.5195025"><ele>1157.0</ele><time>2026-04-10T10:02:22.674Z</time></trkpt><trkpt lat="42.2578108" lon="13.5196013"><ele>1155.0</ele><time>2026-04-10T10:02:23.669Z</time></trkpt><trkpt lat="42.2577696" lon="13.5197258"><ele>1153.0</ele><time>2026-04-10T10:02:24.664Z</time></trkpt><trkpt lat="42.2577299" lon="13.5198596"><ele>1153.0</ele><time>2026-04-10T10:02:25.667Z</time></trkpt><trkpt lat="42.257677" lon="13.519992"><ele>1153.0</ele><time>2026-04-10T10:02:26.663Z</time></trkpt><trkpt lat="42.2576203" lon="13.5201101"><ele>1153.0</ele><time>2026-04-10T10:02:27.669Z</time></trkpt><trkpt lat="42.2575609" lon="13.5202217"><ele>1153.0</ele><time>2026-04-10T10:02:28.663Z</time></trkpt><trkpt lat="42.2574936" lon="13.5203113"><ele>1153.0</ele><time>2026-04-10T10:02:29.672Z</time></trkpt><trkpt lat="42.2574278" lon="13.5203795"><ele>1153.0</ele><time>2026-04-10T10:02:30.662Z</time></trkpt><trkpt lat="42.2573587" lon="13.5204634"><ele>1153.0</ele><time>2026-04-10T10:02:31.664Z</time></trkpt><trkpt lat="42.2572985" lon="13.5205413"><ele>1153.0</ele><time>2026-04-10T10:02:32.674Z</time></trkpt><trkpt lat="42.2572367" lon="13.5206262"><ele>1153.0</ele><time>2026-04-10T10:02:33.671Z</time></trkpt><trkpt lat="42.2571846" lon="13.5207127"><ele>1153.0</ele><time>2026-04-10T10:02:34.669Z</time></trkpt><trkpt lat="42.2571343" lon="13.5208206"><ele>1153.0</ele><time>2026-04-10T10:02:35.671Z</time></trkpt><trkpt lat="42.2570979" lon="13.5209264"><ele>1150.0</ele><time>2026-04-10T10:02:36.67Z</time></trkpt><trkpt lat="42.2570764" lon="13.5210327"><ele>1147.0</ele><time>2026-04-10T10:02:37.679Z</time></trkpt><trkpt lat="42.2570586" lon="13.5211394"><ele>1144.0</ele><time>2026-04-10T10:02:38.68Z</time></trkpt><trkpt lat="42.2570523" lon="13.5212581"><ele>1141.0</ele><time>2026-04-10T10:02:40.672Z</time></trkpt><trkpt lat="42.2571228" lon="13.5213436"><ele>1138.0</ele><time>2026-04-10T10:02:42.672Z</time></trkpt><trkpt lat="42.2571957" lon="13.5214017"><ele>1135.0</ele><time>2026-04-10T10:02:44.672Z</time></trkpt><trkpt lat="42.2572263" lon="13.5215236"><ele>1134.2</ele><time>2026-04-10T10:02:46.68Z</time></trkpt><trkpt lat="42.2571781" lon="13.5216764"><ele>1133.4</ele><time>2026-04-10T10:02:48.668Z</time></trkpt><trkpt lat="42.2571425" lon="13.5217704"><ele>1132.6</ele><time>2026-04-10T10:02:49.671Z</time></trkpt><trkpt lat="42.2571074" lon="13.5218779"><ele>1131.8</ele><time>2026-04-10T10:02:50.669Z</time></trkpt><trkpt lat="42.2570799" lon="13.5219881"><ele>1131.0</ele><time>2026-04-10T10:02:51.662Z</time></trkpt><trkpt lat="42.2570547" lon="13.5220945"><ele>1129.6666666666667</ele><time>2026-04-10T10:02:52.659Z</time></trkpt><trkpt lat="42.2570308" lon="13.52219"><ele>1128.3333333333333</ele><time>2026-04-10T10:02:53.661Z</time></trkpt><trkpt lat="42.2570018" lon="13.5223027"><ele>1127.0</ele><time>2026-04-10T10:02:54.663Z</time></trkpt><trkpt lat="42.2569829" lon="13.5224063"><ele>1125.6666666666665</ele><time>2026-04-10T10:02:55.66Z</time></trkpt><trkpt lat="42.2569741" lon="13.5224907"><ele>1124.3333333333333</ele><time>2026-04-10T10:02:56.678Z</time></trkpt><trkpt lat="42.256969" lon="13.5225977"><ele>1123.0</ele><time>2026-04-10T10:02:57.664Z</time></trkpt><trkpt lat="42.2569642" lon="13.5227115"><ele>1123.0</ele><time>2026-04-10T10:02:58.67Z</time></trkpt><trkpt lat="42.2569543" lon="13.5228208"><ele>1123.0</ele><time>2026-04-10T10:02:59.671Z</time></trkpt><trkpt lat="42.2569453" lon="13.5229393"><ele>1123.0</ele><time>2026-04-10T10:03:00.675Z</time></trkpt><trkpt lat="42.256932" lon="13.5230659"><ele>1123.0</ele><time>2026-04-10T10:03:01.671Z</time></trkpt><trkpt lat="42.2569134" lon="13.5231756"><ele>1123.0</ele><time>2026-04-10T10:03:02.669Z</time></trkpt><trkpt lat="42.2568936" lon="13.5232763"><ele>1123.0</ele><time>2026-04-10T10:03:03.672Z</time></trkpt><trkpt lat="42.2568754" lon="13.523377"><ele>1121.8333333333333</ele><time>2026-04-10T10:03:04.671Z</time></trkpt><trkpt lat="42.2568672" lon="13.5234659"><ele>1120.6666666666665</ele><time>2026-04-10T10:03:05.669Z</time></trkpt><trkpt lat="42.256879" lon="13.5235585"><ele>1119.5</ele><time>2026-04-10T10:03:06.667Z</time></trkpt><trkpt lat="42.2568921" lon="13.5236633"><ele>1118.3333333333333</ele><time>2026-04-10T10:03:07.663Z</time></trkpt><trkpt lat="42.2568898" lon="13.5237875"><ele>1117.1666666666667</ele><time>2026-04-10T10:03:08.67Z</time></trkpt><trkpt lat="42.2568917" lon="13.5239131"><ele>1116.0</ele><time>2026-04-10T10:03:09.674Z</time></trkpt><trkpt lat="42.2569027" lon="13.5240356"><ele>1114.3333333333333</ele><time>2026-04-10T10:03:10.671Z</time></trkpt><trkpt lat="42.2569103" lon="13.5241614"><ele>1112.6666666666667</ele><time>2026-04-10T10:03:11.674Z</time></trkpt><trkpt lat="42.2569225" lon="13.5242794"><ele>1111.0</ele><time>2026-04-10T10:03:12.675Z</time></trkpt><trkpt lat="42.2569489" lon="13.5243926"><ele>1109.3333333333335</ele><time>2026-04-10T10:03:13.671Z</time></trkpt><trkpt lat="42.2569779" lon="13.5244933"><ele>1107.6666666666667</ele><time>2026-04-10T10:03:14.674Z</time></trkpt><trkpt lat="42.2570048" lon="13.5245856"><ele>1106.0</ele><time>2026-04-10T10:03:15.672Z</time></trkpt><trkpt lat="42.2570315" lon="13.5246826"><ele>1104.857142857143</ele><time>2026-04-10T10:03:16.673Z</time></trkpt><trkpt lat="42.2570514" lon="13.5247775"><ele>1103.7142857142858</ele><time>2026-04-10T10:03:17.681Z</time></trkpt><trkpt lat="42.2570686" lon="13.524882"><ele>1102.5714285714284</ele><time>2026-04-10T10:03:18.674Z</time></trkpt><trkpt lat="42.257078" lon="13.5249795"><ele>1101.4285714285716</ele><time>2026-04-10T10:03:19.679Z</time></trkpt><trkpt lat="42.2570925" lon="13.5250676"><ele>1100.2857142857142</ele><time>2026-04-10T10:03:20.68Z</time></trkpt><trkpt lat="42.2571142" lon="13.5251522"><ele>1099.142857142857</ele><time>2026-04-10T10:03:21.676Z</time></trkpt><trkpt lat="42.2571511" lon="13.5252256"><ele>1098.0</ele><time>2026-04-10T10:03:22.673Z</time></trkpt><trkpt lat="42.2571958" lon="13.5253138"><ele>1098.0</ele><time>2026-04-10T10:03:24.676Z</time></trkpt><trkpt lat="42.2572595" lon="13.5252959"><ele>1098.0</ele><time>2026-04-10T10:03:26.676Z</time></trkpt><trkpt lat="42.2573114" lon="13.5251933"><ele>1098.0</ele><time>2026-04-10T10:03:28.687Z</time></trkpt><trkpt lat="42.2573786" lon="13.5250752"><ele>1098.0</ele><time>2026-04-10T10:03:30.681Z</time></trkpt><trkpt lat="42.2574612" lon="13.5249947"><ele>1098.0</ele><time>2026-04-10T10:03:32.672Z</time></trkpt><trkpt lat="42.2575193" lon="13.5249291"><ele>1098.0</ele><time>2026-04-10T10:03:34.579Z</time></trkpt><trkpt lat="42.2575904" lon="13.5249159"><ele>1097.4</ele><time>2026-04-10T10:03:36.621Z</time></trkpt><trkpt lat="42.2576971" lon="13.5249116"><ele>1096.8</ele><time>2026-04-10T10:03:37.657Z</time></trkpt><trkpt lat="42.2577864" lon="13.5249"><ele>1096.2</ele><time>2026-04-10T10:03:38.656Z</time></trkpt><trkpt lat="42.2578506" lon="13.5248703"><ele>1095.6</ele><time>2026-04-10T10:03:39.657Z</time></trkpt><trkpt lat="42.2579364" lon="13.5247749"><ele>1095.0</ele><time>2026-04-10T10:03:41.65Z</time></trkpt><trkpt lat="42.2580352" lon="13.5246928"><ele>1095.0</ele><time>2026-04-10T10:03:43.645Z</time></trkpt><trkpt lat="42.2580894" lon="13.5246374"><ele>1095.0</ele><time>2026-04-10T10:03:44.646Z</time></trkpt><trkpt lat="42.2581368" lon="13.5245659"><ele>1095.0</ele><time>2026-04-10T10:03:45.65Z</time></trkpt><trkpt lat="42.2581905" lon="13.524486"><ele>1095.0</ele><time>2026-04-10T10:03:46.645Z</time></trkpt><trkpt lat="42.2582476" lon="13.5244305"><ele>1095.0</ele><time>2026-04-10T10:03:47.658Z</time></trkpt><trkpt lat="42.2583509" lon="13.524401"><ele>1095.0</ele><time>2026-04-10T10:03:49.654Z</time></trkpt><trkpt lat="42.258399" lon="13.5244733"><ele>1092.0</ele><time>2026-04-10T10:03:51.662Z</time></trkpt><trkpt lat="42.2584417" lon="13.5246096"><ele>1089.0</ele><time>2026-04-10T10:03:53.659Z</time></trkpt><trkpt lat="42.2584655" lon="13.5247676"><ele>1086.0</ele><time>2026-04-10T10:03:55.652Z</time></trkpt><trkpt lat="42.2585028" lon="13.5249162"><ele>1083.0</ele><time>2026-04-10T10:03:57.661Z</time></trkpt><trkpt lat="42.2585154" lon="13.5250138"><ele>1080.0</ele><time>2026-04-10T10:03:58.66Z</time></trkpt><trkpt lat="42.2585374" lon="13.5251159"><ele>1080.0</ele><time>2026-04-10T10:03:59.664Z</time></trkpt><trkpt lat="42.258546" lon="13.5252246"><ele>1080.0</ele><time>2026-04-10T10:04:00.662Z</time></trkpt><trkpt lat="42.2585559" lon="13.5253514"><ele>1080.0</ele><time>2026-04-10T10:04:01.669Z</time></trkpt><trkpt lat="42.2585752" lon="13.525479"><ele>1080.0</ele><time>2026-04-10T10:04:02.684Z</time></trkpt><trkpt lat="42.2585698" lon="13.5256179"><ele>1080.0</ele><time>2026-04-10T10:04:03.682Z</time></trkpt><trkpt lat="42.2585628" lon="13.5257388"><ele>1078.8333333333333</ele><time>2026-04-10T10:04:04.678Z</time></trkpt><trkpt lat="42.2585665" lon="13.5258524"><ele>1077.6666666666667</ele><time>2026-04-10T10:04:05.662Z</time></trkpt><trkpt lat="42.2585719" lon="13.5259646"><ele>1076.5</ele><time>2026-04-10T10:04:06.666Z</time></trkpt><trkpt lat="42.258601" lon="13.5260663"><ele>1075.3333333333335</ele><time>2026-04-10T10:04:07.657Z</time></trkpt><trkpt lat="42.2586289" lon="13.5261514"><ele>1074.1666666666667</ele><time>2026-04-10T10:04:08.656Z</time></trkpt><trkpt lat="42.2586659" lon="13.5262454"><ele>1073.0</ele><time>2026-04-10T10:04:09.662Z</time></trkpt><trkpt lat="42.2587376" lon="13.5263049"><ele>1070.1666666666667</ele><time>2026-04-10T10:04:10.658Z</time></trkpt><trkpt lat="42.2588083" lon="13.5263244"><ele>1067.3333333333335</ele><time>2026-04-10T10:04:11.665Z</time></trkpt><trkpt lat="42.2588692" lon="13.5263681"><ele>1064.5</ele><time>2026-04-10T10:04:12.658Z</time></trkpt><trkpt lat="42.2589741" lon="13.5264313"><ele>1061.6666666666667</ele><time>2026-04-10T10:04:14.669Z</time></trkpt><trkpt lat="42.2590627" lon="13.5264278"><ele>1058.8333333333333</ele><time>2026-04-10T10:04:15.668Z</time></trkpt><trkpt lat="42.259145" lon="13.5264003"><ele>1056.0</ele><time>2026-04-10T10:04:16.67Z</time></trkpt><trkpt lat="42.2592318" lon="13.5263482"><ele>1055.3999999999999</ele><time>2026-04-10T10:04:17.677Z</time></trkpt><trkpt lat="42.2593237" lon="13.5262603"><ele>1054.8</ele><time>2026-04-10T10:04:18.677Z</time></trkpt><trkpt lat="42.2594131" lon="13.5261668"><ele>1054.1999999999998</ele><time>2026-04-10T10:04:19.671Z</time></trkpt><trkpt lat="42.2594781" lon="13.5260662"><ele>1053.6</ele><time>2026-04-10T10:04:20.676Z</time></trkpt><trkpt lat="42.2595525" lon="13.526005"><ele>1053.0</ele><time>2026-04-10T10:04:21.676Z</time></trkpt><trkpt lat="42.2596085" lon="13.5259261"><ele>1051.0</ele><time>2026-04-10T10:04:22.668Z</time></trkpt><trkpt lat="42.2596575" lon="13.5258394"><ele>1049.0</ele><time>2026-04-10T10:04:23.662Z</time></trkpt><trkpt lat="42.2597258" lon="13.5257308"><ele>1047.0</ele><time>2026-04-10T10:04:24.661Z</time></trkpt><trkpt lat="42.2597681" lon="13.5256364"><ele>1045.0</ele><time>2026-04-10T10:04:25.658Z</time></trkpt><trkpt lat="42.2597945" lon="13.5255279"><ele>1043.0</ele><time>2026-04-10T10:04:26.653Z</time></trkpt><trkpt lat="42.2598025" lon="13.5254246"><ele>1041.0</ele><time>2026-04-10T10:04:27.654Z</time></trkpt><trkpt lat="42.2598125" lon="13.5253156"><ele>1041.0</ele><time>2026-04-10T10:04:28.641Z</time></trkpt><trkpt lat="42.2598105" lon="13.5252204"><ele>1041.0</ele><time>2026-04-10T10:04:29.646Z</time></trkpt><trkpt lat="42.2597981" lon="13.5251128"><ele>1041.0</ele><time>2026-04-10T10:04:30.64Z</time></trkpt><trkpt lat="42.2598042" lon="13.5249927"><ele>1041.0</ele><time>2026-04-10T10:04:31.643Z</time></trkpt><trkpt lat="42.2598055" lon="13.5248661"><ele>1041.0</ele><time>2026-04-10T10:04:32.639Z</time></trkpt><trkpt lat="42.2598026" lon="13.5247558"><ele>1041.0</ele><time>2026-04-10T10:04:33.629Z</time></trkpt><trkpt lat="42.2597995" lon="13.5246569"><ele>1043.857142857143</ele><time>2026-04-10T10:04:34.642Z</time></trkpt><trkpt lat="42.2598109" lon="13.5245609"><ele>1046.7142857142858</ele><time>2026-04-10T10:04:35.645Z</time></trkpt><trkpt lat="42.2598418" lon="13.5244816"><ele>1049.5714285714287</ele><time>2026-04-10T10:04:36.645Z</time></trkpt><trkpt lat="42.2598679" lon="13.5243856"><ele>1052.4285714285716</ele><time>2026-04-10T10:04:37.643Z</time></trkpt><trkpt lat="42.259875" lon="13.5243"><ele>1055.2857142857142</ele><time>2026-04-10T10:04:38.643Z</time></trkpt><trkpt lat="42.2599224" lon="13.5242312"><ele>1058.1428571428573</ele><time>2026-04-10T10:04:39.637Z</time></trkpt><trkpt lat="42.2599912" lon="13.5241686"><ele>1061.0</ele><time>2026-04-10T10:04:40.655Z</time></trkpt><trkpt lat="42.2600611" lon="13.5241338"><ele>1061.0</ele><time>2026-04-10T10:04:41.656Z</time></trkpt><trkpt lat="42.2601631" lon="13.5241026"><ele>1061.0</ele><time>2026-04-10T10:04:42.664Z</time></trkpt><trkpt lat="42.2602529" lon="13.5240637"><ele>1061.0</ele><time>2026-04-10T10:04:43.664Z</time></trkpt><trkpt lat="42.2603277" lon="13.5240252"><ele>1061.0</ele><time>2026-04-10T10:04:44.671Z</time></trkpt><trkpt lat="42.2604102" lon="13.5239911"><ele>1061.0</ele><time>2026-04-10T10:04:45.672Z</time></trkpt><trkpt lat="42.260481" lon="13.5239579"><ele>1061.0</ele><time>2026-04-10T10:04:46.669Z</time></trkpt><trkpt lat="42.2605411" lon="13.5239234"><ele>1061.0</ele><time>2026-04-10T10:04:47.668Z</time></trkpt><trkpt lat="42.260598" lon="13.5238819"><ele>1061.0</ele><time>2026-04-10T10:04:48.672Z</time></trkpt><trkpt lat="42.2607075" lon="13.5238119"><ele>1061.0</ele><time>2026-04-10T10:04:50.667Z</time></trkpt><trkpt lat="42.2607614" lon="13.5237513"><ele>1061.0</ele><time>2026-04-10T10:04:51.667Z</time></trkpt><trkpt lat="42.2608143" lon="13.5236739"><ele>1061.0</ele><time>2026-04-10T10:04:52.665Z</time></trkpt><trkpt lat="42.2608678" lon="13.523578"><ele>1061.0</ele><time>2026-04-10T10:04:53.667Z</time></trkpt><trkpt lat="42.2609335" lon="13.5234861"><ele>1059.8</ele><time>2026-04-10T10:04:54.662Z</time></trkpt><trkpt lat="42.2609995" lon="13.5233841"><ele>1058.6</ele><time>2026-04-10T10:04:55.663Z</time></trkpt><trkpt lat="42.2610571" lon="13.5232863"><ele>1057.4</ele><time>2026-04-10T10:04:56.663Z</time></trkpt><trkpt lat="42.2611197" lon="13.5231844"><ele>1056.2</ele><time>2026-04-10T10:04:57.661Z</time></trkpt><trkpt lat="42.2611866" lon="13.5231119"><ele>1055.0</ele><time>2026-04-10T10:04:58.664Z</time></trkpt><trkpt lat="42.2612617" lon="13.5230308"><ele>1055.0</ele><time>2026-04-10T10:04:59.66Z</time></trkpt><trkpt lat="42.2613302" lon="13.5230015"><ele>1055.0</ele><time>2026-04-10T10:05:00.67Z</time></trkpt><trkpt lat="42.2614103" lon="13.5229804"><ele>1055.0</ele><time>2026-04-10T10:05:01.668Z</time></trkpt><trkpt lat="42.261495" lon="13.5229682"><ele>1055.0</ele><time>2026-04-10T10:05:02.671Z</time></trkpt><trkpt lat="42.2615865" lon="13.5229575"><ele>1055.0</ele><time>2026-04-10T10:05:03.672Z</time></trkpt><trkpt lat="42.2616737" lon="13.5229529"><ele>1055.0</ele><time>2026-04-10T10:05:04.664Z</time></trkpt><trkpt lat="42.2617616" lon="13.52295"><ele>1050.6666666666667</ele><time>2026-04-10T10:05:05.672Z</time></trkpt><trkpt lat="42.2618528" lon="13.5229452"><ele>1046.3333333333335</ele><time>2026-04-10T10:05:06.666Z</time></trkpt><trkpt lat="42.2619494" lon="13.5229418"><ele>1042.0</ele><time>2026-04-10T10:05:07.668Z</time></trkpt><trkpt lat="42.2620452" lon="13.5229372"><ele>1037.6666666666667</ele><time>2026-04-10T10:05:08.673Z</time></trkpt><trkpt lat="42.2621258" lon="13.5229299"><ele>1033.3333333333333</ele><time>2026-04-10T10:05:09.673Z</time></trkpt><trkpt lat="42.2622045" lon="13.5229191"><ele>1029.0</ele><time>2026-04-10T10:05:10.671Z</time></trkpt><trkpt lat="42.2622894" lon="13.5229046"><ele>1030.5</ele><time>2026-04-10T10:05:11.671Z</time></trkpt><trkpt lat="42.2623697" lon="13.522879"><ele>1032.0</ele><time>2026-04-10T10:05:12.677Z</time></trkpt><trkpt lat="42.2624442" lon="13.5228652"><ele>1033.5</ele><time>2026-04-10T10:05:13.684Z</time></trkpt><trkpt lat="42.2625189" lon="13.5228663"><ele>1035.0</ele><time>2026-04-10T10:05:14.675Z</time></trkpt><trkpt lat="42.2625932" lon="13.5228718"><ele>1036.5</ele><time>2026-04-10T10:05:15.684Z</time></trkpt><trkpt lat="42.2626552" lon="13.5228453"><ele>1038.0</ele><time>2026-04-10T10:05:16.672Z</time></trkpt><trkpt lat="42.2627714" lon="13.5227354"><ele>1038.0</ele><time>2026-04-10T10:05:18.675Z</time></trkpt><trkpt lat="42.2628278" lon="13.5226512"><ele>1038.0</ele><time>2026-04-10T10:05:19.671Z</time></trkpt><trkpt lat="42.2628735" lon="13.5225493"><ele>1038.0</ele><time>2026-04-10T10:05:20.671Z</time></trkpt><trkpt lat="42.262917" lon="13.5224459"><ele>1038.0</ele><time>2026-04-10T10:05:21.671Z</time></trkpt><trkpt lat="42.2629542" lon="13.5223488"><ele>1038.0</ele><time>2026-04-10T10:05:22.667Z</time></trkpt><trkpt lat="42.2629933" lon="13.5222675"><ele>1038.0</ele><time>2026-04-10T10:05:23.661Z</time></trkpt><trkpt lat="42.2630265" lon="13.5221868"><ele>1038.0</ele><time>2026-04-10T10:05:24.655Z</time></trkpt><trkpt lat="42.2631042" lon="13.5220938"><ele>1038.0</ele><time>2026-04-10T10:05:26.665Z</time></trkpt><trkpt lat="42.263209" lon="13.5220253"><ele>1038.0</ele><time>2026-04-10T10:05:28.664Z</time></trkpt><trkpt lat="42.2633062" lon="13.5219416"><ele>1038.0</ele><time>2026-04-10T10:05:30.664Z</time></trkpt><trkpt lat="42.2633583" lon="13.5218935"><ele>1038.0</ele><time>2026-04-10T10:05:31.655Z</time></trkpt><trkpt lat="42.2634247" lon="13.5218073"><ele>1034.6</ele><time>2026-04-10T10:05:32.65Z</time></trkpt><trkpt lat="42.2634949" lon="13.5217024"><ele>1031.1999999999998</ele><time>2026-04-10T10:05:33.651Z</time></trkpt><trkpt lat="42.2635607" lon="13.5215959"><ele>1027.8</ele><time>2026-04-10T10:05:34.655Z</time></trkpt><trkpt lat="42.2636336" lon="13.5214925"><ele>1024.3999999999999</ele><time>2026-04-10T10:05:35.656Z</time></trkpt><trkpt lat="42.2637195" lon="13.521426"><ele>1021.0</ele><time>2026-04-10T10:05:36.663Z</time></trkpt><trkpt lat="42.263766" lon="13.5213667"><ele>1020.9999999999999</ele><time>2026-04-10T10:05:37.657Z</time></trkpt><trkpt lat="42.2638186" lon="13.5213077"><ele>1021.0</ele><time>2026-04-10T10:05:38.657Z</time></trkpt><trkpt lat="42.2638909" lon="13.5212092"><ele>1021.0</ele><time>2026-04-10T10:05:40.652Z</time></trkpt><trkpt lat="42.2639569" lon="13.5211883"><ele>1021.0</ele><time>2026-04-10T10:05:41.655Z</time></trkpt><trkpt lat="42.2640356" lon="13.5211549"><ele>1020.9999999999999</ele><time>2026-04-10T10:05:42.658Z</time></trkpt><trkpt lat="42.2640951" lon="13.5211037"><ele>1021.0</ele><time>2026-04-10T10:05:43.667Z</time></trkpt><trkpt lat="42.2641505" lon="13.5210341"><ele>1017.6666666666666</ele><time>2026-04-10T10:05:44.666Z</time></trkpt><trkpt lat="42.2642047" lon="13.5209463"><ele>1014.3333333333333</ele><time>2026-04-10T10:05:45.66Z</time></trkpt><trkpt lat="42.2642891" lon="13.5208494"><ele>1011.0</ele><time>2026-04-10T10:05:46.661Z</time></trkpt><trkpt lat="42.2643388" lon="13.5207581"><ele>1007.6666666666667</ele><time>2026-04-10T10:05:47.666Z</time></trkpt><trkpt lat="42.2643873" lon="13.5206898"><ele>1004.3333333333334</ele><time>2026-04-10T10:05:48.663Z</time></trkpt><trkpt lat="42.2644361" lon="13.5205948"><ele>1001.0</ele><time>2026-04-10T10:05:49.662Z</time></trkpt><trkpt lat="42.2644983" lon="13.5204968"><ele>1001.0000000000001</ele><time>2026-04-10T10:05:50.662Z</time></trkpt><trkpt lat="42.2645579" lon="13.5204062"><ele>1001.0</ele><time>2026-04-10T10:05:51.657Z</time></trkpt><trkpt lat="42.2646131" lon="13.5203227"><ele>1001.0</ele><time>2026-04-10T10:05:52.656Z</time></trkpt><trkpt lat="42.2646705" lon="13.5202635"><ele>1001.0</ele><time>2026-04-10T10:05:53.654Z</time></trkpt><trkpt lat="42.2647748" lon="13.5202043"><ele>1001.0000000000001</ele><time>2026-04-10T10:05:55.657Z</time></trkpt><trkpt lat="42.2648491" lon="13.5201904"><ele>1001.0</ele><time>2026-04-10T10:05:56.662Z</time></trkpt><trkpt lat="42.2649178" lon="13.5201682"><ele>998.3333333333334</ele><time>2026-04-10T10:05:57.662Z</time></trkpt><trkpt lat="42.2649786" lon="13.5201459"><ele>995.6666666666667</ele><time>2026-04-10T10:05:58.665Z</time></trkpt><trkpt lat="42.2650391" lon="13.5201135"><ele>993.0</ele><time>2026-04-10T10:05:59.667Z</time></trkpt><trkpt lat="42.2651126" lon="13.5200771"><ele>990.3333333333333</ele><time>2026-04-10T10:06:00.676Z</time></trkpt><trkpt lat="42.2652321" lon="13.5200413"><ele>987.6666666666666</ele><time>2026-04-10T10:06:02.677Z</time></trkpt><trkpt lat="42.2653285" lon="13.5199846"><ele>985.0</ele><time>2026-04-10T10:06:04.674Z</time></trkpt><trkpt lat="42.2654067" lon="13.5198651"><ele>985.0</ele><time>2026-04-10T10:06:06.675Z</time></trkpt><trkpt lat="42.2654769" lon="13.5197329"><ele>985.0</ele><time>2026-04-10T10:06:08.672Z</time></trkpt><trkpt lat="42.2655802" lon="13.5196347"><ele>985.0</ele><time>2026-04-10T10:06:10.668Z</time></trkpt><trkpt lat="42.265645" lon="13.5196092"><ele>985.0</ele><time>2026-04-10T10:06:11.677Z</time></trkpt><trkpt lat="42.2657135" lon="13.5195821"><ele>985.0</ele><time>2026-04-10T10:06:12.672Z</time></trkpt><trkpt lat="42.2657759" lon="13.519545"><ele>983.4999999999999</ele><time>2026-04-10T10:06:13.664Z</time></trkpt><trkpt lat="42.2658348" lon="13.5194986"><ele>982.0</ele><time>2026-04-10T10:06:14.683Z</time></trkpt><trkpt lat="42.2658981" lon="13.519372"><ele>980.5</ele><time>2026-04-10T10:06:16.671Z</time></trkpt><trkpt lat="42.2659288" lon="13.5192949"><ele>979.0</ele><time>2026-04-10T10:06:17.67Z</time></trkpt><trkpt lat="42.2659517" lon="13.5192141"><ele>977.4999999999999</ele><time>2026-04-10T10:06:18.665Z</time></trkpt><trkpt lat="42.2659837" lon="13.5191239"><ele>976.0</ele><time>2026-04-10T10:06:19.661Z</time></trkpt><trkpt lat="42.2660635" lon="13.5190241"><ele>975.9999999999999</ele><time>2026-04-10T10:06:21.668Z</time></trkpt><trkpt lat="42.2661683" lon="13.5189864"><ele>976.0</ele><time>2026-04-10T10:06:23.673Z</time></trkpt><trkpt lat="42.2662357" lon="13.5189858"><ele>976.0</ele><time>2026-04-10T10:06:24.677Z</time></trkpt><trkpt lat="42.2662982" lon="13.5189735"><ele>976.0</ele><time>2026-04-10T10:06:25.676Z</time></trkpt><trkpt lat="42.2663781" lon="13.5189714"><ele>975.9999999999999</ele><time>2026-04-10T10:06:26.678Z</time></trkpt><trkpt lat="42.2664766" lon="13.5189194"><ele>976.0</ele><time>2026-04-10T10:06:28.671Z</time></trkpt><trkpt lat="42.2665317" lon="13.5188765"><ele>974.1999999999999</ele><time>2026-04-10T10:06:29.668Z</time></trkpt><trkpt lat="42.2665861" lon="13.5188258"><ele>972.3999999999999</ele><time>2026-04-10T10:06:30.674Z</time></trkpt><trkpt lat="42.2666704" lon="13.5186757"><ele>970.6</ele><time>2026-04-10T10:06:32.665Z</time></trkpt><trkpt lat="42.2667232" lon="13.5185987"><ele>968.8</ele><time>2026-04-10T10:06:33.667Z</time></trkpt><trkpt lat="42.2667799" lon="13.5184985"><ele>967.0</ele><time>2026-04-10T10:06:34.667Z</time></trkpt><trkpt lat="42.2668413" lon="13.5183989"><ele>966.9999999999999</ele><time>2026-04-10T10:06:35.67Z</time></trkpt><trkpt lat="42.2669066" lon="13.5183203"><ele>967.0</ele><time>2026-04-10T10:06:36.668Z</time></trkpt><trkpt lat="42.2669728" lon="13.5182479"><ele>967.0</ele><time>2026-04-10T10:06:37.669Z</time></trkpt><trkpt lat="42.2670474" lon="13.5181883"><ele>967.0</ele><time>2026-04-10T10:06:38.663Z</time></trkpt><trkpt lat="42.267127" lon="13.5181363"><ele>966.9999999999999</ele><time>2026-04-10T10:06:39.665Z</time></trkpt><trkpt lat="42.2672119" lon="13.518099"><ele>967.0</ele><time>2026-04-10T10:06:40.671Z</time></trkpt><trkpt lat="42.2673021" lon="13.5180579"><ele>964.8333333333333</ele><time>2026-04-10T10:06:41.678Z</time></trkpt><trkpt lat="42.2673808" lon="13.5180191"><ele>962.6666666666666</ele><time>2026-04-10T10:06:42.677Z</time></trkpt><trkpt lat="42.2674636" lon="13.5179815"><ele>960.5</ele><time>2026-04-10T10:06:43.672Z</time></trkpt><trkpt lat="42.267544" lon="13.517951"><ele>958.3333333333333</ele><time>2026-04-10T10:06:44.669Z</time></trkpt><trkpt lat="42.2676228" lon="13.5179249"><ele>956.1666666666666</ele><time>2026-04-10T10:06:45.677Z</time></trkpt><trkpt lat="42.2676907" lon="13.5178964"><ele>954.0</ele><time>2026-04-10T10:06:46.671Z</time></trkpt><trkpt lat="42.2677546" lon="13.5178632"><ele>954.0</ele><time>2026-04-10T10:06:47.68Z</time></trkpt><trkpt lat="42.2678195" lon="13.5178235"><ele>954.0</ele><time>2026-04-10T10:06:48.678Z</time></trkpt><trkpt lat="42.2678815" lon="13.5177688"><ele>954.0</ele><time>2026-04-10T10:06:49.676Z</time></trkpt><trkpt lat="42.2679424" lon="13.5177061"><ele>954.0</ele><time>2026-04-10T10:06:50.672Z</time></trkpt><trkpt lat="42.2680129" lon="13.5176353"><ele>954.0</ele><time>2026-04-10T10:06:51.67Z</time></trkpt><trkpt lat="42.2680788" lon="13.517572"><ele>954.0</ele><time>2026-04-10T10:06:52.669Z</time></trkpt><trkpt lat="42.2681497" lon="13.5175397"><ele>949.4000000000001</ele><time>2026-04-10T10:06:53.667Z</time></trkpt><trkpt lat="42.2682144" lon="13.5175332"><ele>944.8000000000001</ele><time>2026-04-10T10:06:54.666Z</time></trkpt><trkpt lat="42.2682902" lon="13.5175998"><ele>940.1999999999999</ele><time>2026-04-10T10:06:56.675Z</time></trkpt><trkpt lat="42.2682526" lon="13.5177306"><ele>935.5999999999999</ele><time>2026-04-10T10:06:58.676Z</time></trkpt><trkpt lat="42.2681565" lon="13.5178499"><ele>931.0</ele><time>2026-04-10T10:07:00.677Z</time></trkpt><trkpt lat="42.2680921" lon="13.517921"><ele>931.0</ele><time>2026-04-10T10:07:01.67Z</time></trkpt><trkpt lat="42.2680138" lon="13.5180052"><ele>930.9999999999999</ele><time>2026-04-10T10:07:02.668Z</time></trkpt><trkpt lat="42.2679292" lon="13.518097"><ele>930.9999999999999</ele><time>2026-04-10T10:07:03.667Z</time></trkpt><trkpt lat="42.2678513" lon="13.5181891"><ele>931.0</ele><time>2026-04-10T10:07:04.655Z</time></trkpt><trkpt lat="42.2677841" lon="13.5182934"><ele>931.0</ele><time>2026-04-10T10:07:05.663Z</time></trkpt><trkpt lat="42.2677297" lon="13.5183938"><ele>931.0</ele><time>2026-04-10T10:07:06.654Z</time></trkpt><trkpt lat="42.2676768" lon="13.5185005"><ele>930.9999999999999</ele><time>2026-04-10T10:07:07.651Z</time></trkpt><trkpt lat="42.2676231" lon="13.5186038"><ele>930.9999999999999</ele><time>2026-04-10T10:07:08.649Z</time></trkpt><trkpt lat="42.2675669" lon="13.5187076"><ele>931.0</ele><time>2026-04-10T10:07:09.648Z</time></trkpt><trkpt lat="42.2675031" lon="13.5188073"><ele>931.0</ele><time>2026-04-10T10:07:10.652Z</time></trkpt><trkpt lat="42.2674348" lon="13.5189064"><ele>932.4999999999999</ele><time>2026-04-10T10:07:11.651Z</time></trkpt><trkpt lat="42.2673702" lon="13.5190073"><ele>934.0</ele><time>2026-04-10T10:07:12.653Z</time></trkpt><trkpt lat="42.2673214" lon="13.5190803"><ele>935.5</ele><time>2026-04-10T10:07:13.655Z</time></trkpt><trkpt lat="42.2672729" lon="13.5191677"><ele>937.0</ele><time>2026-04-10T10:07:14.644Z</time></trkpt><trkpt lat="42.2672398" lon="13.5192581"><ele>938.4999999999999</ele><time>2026-04-10T10:07:15.653Z</time></trkpt><trkpt lat="42.2672006" lon="13.5193927"><ele>940.0</ele><time>2026-04-10T10:07:17.664Z</time></trkpt><trkpt lat="42.2671376" lon="13.5195164"><ele>940.0</ele><time>2026-04-10T10:07:19.657Z</time></trkpt><trkpt lat="42.2670842" lon="13.5195658"><ele>940.0</ele><time>2026-04-10T10:07:20.657Z</time></trkpt><trkpt lat="42.2670313" lon="13.519644"><ele>940.0</ele><time>2026-04-10T10:07:21.655Z</time></trkpt><trkpt lat="42.2669785" lon="13.5197539"><ele>940.0</ele><time>2026-04-10T10:07:22.653Z</time></trkpt><trkpt lat="42.2669347" lon="13.5198794"><ele>940.0</ele><time>2026-04-10T10:07:23.65Z</time></trkpt><trkpt lat="42.2668964" lon="13.5200215"><ele>936.0</ele><time>2026-04-10T10:07:24.651Z</time></trkpt><trkpt lat="42.2668448" lon="13.5201518"><ele>932.0</ele><time>2026-04-10T10:07:25.656Z</time></trkpt><trkpt lat="42.2667978" lon="13.5202966"><ele>928.0</ele><time>2026-04-10T10:07:26.665Z</time></trkpt><trkpt lat="42.2667638" lon="13.5203802"><ele>924.0</ele><time>2026-04-10T10:07:27.664Z</time></trkpt><trkpt lat="42.2667351" lon="13.5204738"><ele>920.0</ele><time>2026-04-10T10:07:28.665Z</time></trkpt><trkpt lat="42.2667017" lon="13.5206315"><ele>917.4</ele><time>2026-04-10T10:07:30.666Z</time></trkpt><trkpt lat="42.2666734" lon="13.5207288"><ele>914.8</ele><time>2026-04-10T10:07:31.656Z</time></trkpt><trkpt lat="42.2666235" lon="13.5208643"><ele>912.2</ele><time>2026-04-10T10:07:33.655Z</time></trkpt><trkpt lat="42.2665617" lon="13.5210222"><ele>909.6</ele><time>2026-04-10T10:07:35.656Z</time></trkpt><trkpt lat="42.2665145" lon="13.5211608"><ele>907.0</ele><time>2026-04-10T10:07:37.664Z</time></trkpt><trkpt lat="42.2664816" lon="13.5212407"><ele>907.9999999999999</ele><time>2026-04-10T10:07:38.658Z</time></trkpt><trkpt lat="42.2664147" lon="13.5214066"><ele>909.0</ele><time>2026-04-10T10:07:40.662Z</time></trkpt><trkpt lat="42.266374" lon="13.5214966"><ele>910.0</ele><time>2026-04-10T10:07:41.662Z</time></trkpt><trkpt lat="42.2663315" lon="13.5215799"><ele>911.0</ele><time>2026-04-10T10:07:42.661Z</time></trkpt><trkpt lat="42.2662943" lon="13.5216488"><ele>911.9999999999999</ele><time>2026-04-10T10:07:43.663Z</time></trkpt><trkpt lat="42.2662526" lon="13.521733"><ele>913.0</ele><time>2026-04-10T10:07:44.663Z</time></trkpt><trkpt lat="42.2662072" lon="13.521815"><ele>912.9999999999999</ele><time>2026-04-10T10:07:45.664Z</time></trkpt><trkpt lat="42.2661428" lon="13.5218975"><ele>913.0</ele><time>2026-04-10T10:07:46.664Z</time></trkpt><trkpt lat="42.2660742" lon="13.5219583"><ele>913.0</ele><time>2026-04-10T10:07:47.674Z</time></trkpt><trkpt lat="42.2660165" lon="13.521999"><ele>913.0</ele><time>2026-04-10T10:07:48.668Z</time></trkpt><trkpt lat="42.2659564" lon="13.5220421"><ele>912.9999999999999</ele><time>2026-04-10T10:07:49.666Z</time></trkpt><trkpt lat="42.2658916" lon="13.5220864"><ele>913.0</ele><time>2026-04-10T10:07:50.665Z</time></trkpt><trkpt lat="42.2658213" lon="13.5221363"><ele>915.0</ele><time>2026-04-10T10:07:51.666Z</time></trkpt><trkpt lat="42.2657594" lon="13.5222101"><ele>917.0</ele><time>2026-04-10T10:07:52.666Z</time></trkpt><trkpt lat="42.2656965" lon="13.5222987"><ele>919.0</ele><time>2026-04-10T10:07:53.665Z</time></trkpt><trkpt lat="42.2656308" lon="13.5224144"><ele>921.0</ele><time>2026-04-10T10:07:54.66Z</time></trkpt><trkpt lat="42.2656146" lon="13.5225068"><ele>923.0</ele><time>2026-04-10T10:07:55.655Z</time></trkpt><trkpt lat="42.2655909" lon="13.5226365"><ele>923.0000000000001</ele><time>2026-04-10T10:07:56.658Z</time></trkpt><trkpt lat="42.2655741" lon="13.5227392"><ele>923.0</ele><time>2026-04-10T10:07:57.65Z</time></trkpt><trkpt lat="42.2656191" lon="13.5228277"><ele>923.0</ele><time>2026-04-10T10:07:58.653Z</time></trkpt><trkpt lat="42.2656678" lon="13.5228836"><ele>923.0</ele><time>2026-04-10T10:07:59.668Z</time></trkpt><trkpt lat="42.2658031" lon="13.5227867"><ele>923.0000000000001</ele><time>2026-04-10T10:08:01.664Z</time></trkpt><trkpt lat="42.2658583" lon="13.5227443"><ele>923.0</ele><time>2026-04-10T10:08:02.655Z</time></trkpt><trkpt lat="42.2659264" lon="13.5227119"><ele>918.6666666666667</ele><time>2026-04-10T10:08:03.664Z</time></trkpt><trkpt lat="42.2659911" lon="13.5226836"><ele>914.3333333333334</ele><time>2026-04-10T10:08:04.664Z</time></trkpt><trkpt lat="42.2660655" lon="13.5226405"><ele>910.0</ele><time>2026-04-10T10:08:05.667Z</time></trkpt><trkpt lat="42.26614" lon="13.5225974"><ele>905.6666666666667</ele><time>2026-04-10T10:08:06.667Z</time></trkpt><trkpt lat="42.266221" lon="13.5225624"><ele>901.3333333333334</ele><time>2026-04-10T10:08:07.684Z</time></trkpt><trkpt lat="42.2662843" lon="13.5225364"><ele>897.0</ele><time>2026-04-10T10:08:08.67Z</time></trkpt><trkpt lat="42.266384" lon="13.5224762"><ele>891.25</ele><time>2026-04-10T10:08:10.666Z</time></trkpt><trkpt lat="42.2664528" lon="13.5223694"><ele>885.5</ele><time>2026-04-10T10:09:27.67Z</time></trkpt><trkpt lat="42.2665204" lon="13.5223219"><ele>879.75</ele><time>2026-04-10T10:09:30.606Z</time></trkpt><trkpt lat="42.2667461" lon="13.5222276"><ele>874.0</ele><time>2026-04-10T10:09:33.674Z</time></trkpt><trkpt lat="42.2668505" lon="13.5221995"><ele>874.0</ele><time>2026-04-10T10:09:34.59Z</time></trkpt><trkpt lat="42.2670242" lon="13.5221213"><ele>874.0</ele><time>2026-04-10T10:09:35.491Z</time></trkpt><trkpt lat="42.2671869" lon="13.5220793"><ele>874.0</ele><time>2026-04-10T10:09:36.678Z</time></trkpt><trkpt lat="42.2672963" lon="13.5220637"><ele>872.0</ele><time>2026-04-10T10:09:37.679Z</time></trkpt><trkpt lat="42.2673948" lon="13.522076"><ele>870.0000000000001</ele><time>2026-04-10T10:09:39.682Z</time></trkpt><trkpt lat="42.2675099" lon="13.5221022"><ele>868.0000000000001</ele><time>2026-04-10T10:09:40.676Z</time></trkpt><trkpt lat="42.2676317" lon="13.522133"><ele>866.0</ele><time>2026-04-10T10:09:41.679Z</time></trkpt><trkpt lat="42.2677356" lon="13.522156"><ele>864.0</ele><time>2026-04-10T10:09:42.68Z</time></trkpt><trkpt lat="42.267854" lon="13.5221785"><ele>864.0</ele><time>2026-04-10T10:09:43.677Z</time></trkpt><trkpt lat="42.2679901" lon="13.5221759"><ele>864.0</ele><time>2026-04-10T10:09:44.677Z</time></trkpt><trkpt lat="42.2681042" lon="13.5221576"><ele>864.0</ele><time>2026-04-10T10:09:45.677Z</time></trkpt><trkpt lat="42.2682077" lon="13.5221217"><ele>864.0</ele><time>2026-04-10T10:09:46.678Z</time></trkpt><trkpt lat="42.2683131" lon="13.5220705"><ele>865.8000000000001</ele><time>2026-04-10T10:09:47.685Z</time></trkpt><trkpt lat="42.2684103" lon="13.5220222"><ele>867.6000000000001</ele><time>2026-04-10T10:09:48.674Z</time></trkpt><trkpt lat="42.2685041" lon="13.5219702"><ele>869.4</ele><time>2026-04-10T10:09:49.677Z</time></trkpt><trkpt lat="42.2685879" lon="13.5219161"><ele>871.2</ele><time>2026-04-10T10:09:50.67Z</time></trkpt><trkpt lat="42.2686681" lon="13.5218557"><ele>873.0</ele><time>2026-04-10T10:09:51.674Z</time></trkpt><trkpt lat="42.2687327" lon="13.5217942"><ele>873.0</ele><time>2026-04-10T10:09:52.672Z</time></trkpt><trkpt lat="42.2687945" lon="13.5217297"><ele>873.0</ele><time>2026-04-10T10:09:53.674Z</time></trkpt><trkpt lat="42.2688548" lon="13.5216788"><ele>873.0</ele><time>2026-04-10T10:09:54.668Z</time></trkpt><trkpt lat="42.2689163" lon="13.5216428"><ele>873.0</ele><time>2026-04-10T10:09:55.663Z</time></trkpt><trkpt lat="42.2690265" lon="13.5216641"><ele>873.0</ele><time>2026-04-10T10:09:57.664Z</time></trkpt><trkpt lat="42.2690881" lon="13.5217747"><ele>873.0</ele><time>2026-04-10T10:09:59.662Z</time></trkpt><trkpt lat="42.2691283" lon="13.5218872"><ele>870.3333333333334</ele><time>2026-04-10T10:10:01.652Z</time></trkpt><trkpt lat="42.269065" lon="13.521993"><ele>867.6666666666667</ele><time>2026-04-10T10:10:03.658Z</time></trkpt><trkpt lat="42.2689965" lon="13.5220424"><ele>865.0</ele><time>2026-04-10T10:10:04.637Z</time></trkpt><trkpt lat="42.2689233" lon="13.5220912"><ele>862.3333333333334</ele><time>2026-04-10T10:10:05.646Z</time></trkpt><trkpt lat="42.2688362" lon="13.5221541"><ele>859.6666666666667</ele><time>2026-04-10T10:10:06.651Z</time></trkpt><trkpt lat="42.2687529" lon="13.522202"><ele>857.0</ele><time>2026-04-10T10:10:07.637Z</time></trkpt><trkpt lat="42.2686709" lon="13.5222381"><ele>856.6</ele><time>2026-04-10T10:10:08.636Z</time></trkpt><trkpt lat="42.2685885" lon="13.5222739"><ele>856.2</ele><time>2026-04-10T10:10:09.633Z</time></trkpt><trkpt lat="42.2685073" lon="13.5223049"><ele>855.8</ele><time>2026-04-10T10:10:10.636Z</time></trkpt><trkpt lat="42.2684276" lon="13.5223347"><ele>855.4</ele><time>2026-04-10T10:10:11.637Z</time></trkpt><trkpt lat="42.268338" lon="13.5224022"><ele>855.0</ele><time>2026-04-10T10:10:12.641Z</time></trkpt><trkpt lat="42.2682248" lon="13.5225221"><ele>855.0</ele><time>2026-04-10T10:10:13.643Z</time></trkpt><trkpt lat="42.2681121" lon="13.5226345"><ele>855.0</ele><time>2026-04-10T10:10:14.648Z</time></trkpt><trkpt lat="42.2680208" lon="13.522714"><ele>855.0</ele><time>2026-04-10T10:10:15.645Z</time></trkpt><trkpt lat="42.2679344" lon="13.522776"><ele>855.0</ele><time>2026-04-10T10:10:16.639Z</time></trkpt><trkpt lat="42.2678431" lon="13.5228351"><ele>855.0</ele><time>2026-04-10T10:10:17.646Z</time></trkpt><trkpt lat="42.2677576" lon="13.5228831"><ele>854.0</ele><time>2026-04-10T10:10:18.643Z</time></trkpt><trkpt lat="42.2676692" lon="13.5229347"><ele>853.0</ele><time>2026-04-10T10:10:19.635Z</time></trkpt><trkpt lat="42.2675694" lon="13.5230041"><ele>852.0</ele><time>2026-04-10T10:10:20.637Z</time></trkpt><trkpt lat="42.2674645" lon="13.5230955"><ele>851.0</ele><time>2026-04-10T10:10:21.633Z</time></trkpt><trkpt lat="42.2673274" lon="13.5232404"><ele>850.0</ele><time>2026-04-10T10:10:22.656Z</time></trkpt><trkpt lat="42.2671944" lon="13.5233927"><ele>849.0</ele><time>2026-04-10T10:10:23.639Z</time></trkpt><trkpt lat="42.2670599" lon="13.5235633"><ele>848.0</ele><time>2026-04-10T10:10:24.65Z</time></trkpt><trkpt lat="42.2669332" lon="13.5237386"><ele>848.0</ele><time>2026-04-10T10:10:25.648Z</time></trkpt><trkpt lat="42.2668145" lon="13.5239036"><ele>848.0</ele><time>2026-04-10T10:10:26.648Z</time></trkpt><trkpt lat="42.2667058" lon="13.5240571"><ele>848.0</ele><time>2026-04-10T10:10:27.647Z</time></trkpt><trkpt lat="42.266606" lon="13.5241975"><ele>848.0</ele><time>2026-04-10T10:10:28.644Z</time></trkpt><trkpt lat="42.2665096" lon="13.5243288"><ele>848.0</ele><time>2026-04-10T10:10:29.644Z</time></trkpt><trkpt lat="42.2664181" lon="13.5244531"><ele>848.0</ele><time>2026-04-10T10:10:30.652Z</time></trkpt><trkpt lat="42.2663305" lon="13.5245702"><ele>848.0</ele><time>2026-04-10T10:10:31.65Z</time></trkpt><trkpt lat="42.2662431" lon="13.5246901"><ele>846.5</ele><time>2026-04-10T10:10:32.647Z</time></trkpt><trkpt lat="42.2661566" lon="13.5248051"><ele>845.0</ele><time>2026-04-10T10:10:33.659Z</time></trkpt><trkpt lat="42.2660676" lon="13.5249154"><ele>843.5</ele><time>2026-04-10T10:10:34.644Z</time></trkpt><trkpt lat="42.265974" lon="13.5250143"><ele>842.0</ele><time>2026-04-10T10:10:35.644Z</time></trkpt><trkpt lat="42.2658765" lon="13.5251234"><ele>842.0</ele><time>2026-04-10T10:10:36.649Z</time></trkpt><trkpt lat="42.2657813" lon="13.5252297"><ele>842.0</ele><time>2026-04-10T10:10:37.646Z</time></trkpt><trkpt lat="42.2656931" lon="13.5253411"><ele>842.0</ele><time>2026-04-10T10:10:38.654Z</time></trkpt><trkpt lat="42.2656151" lon="13.5254483"><ele>842.0</ele><time>2026-04-10T10:10:39.652Z</time></trkpt><trkpt lat="42.2655533" lon="13.5255537"><ele>843.2</ele><time>2026-04-10T10:10:40.652Z</time></trkpt><trkpt lat="42.2655068" lon="13.5256629"><ele>844.4000000000001</ele><time>2026-04-10T10:10:41.663Z</time></trkpt><trkpt lat="42.2654624" lon="13.5257755"><ele>845.5999999999999</ele><time>2026-04-10T10:10:42.655Z</time></trkpt><trkpt lat="42.2654177" lon="13.5258924"><ele>846.8</ele><time>2026-04-10T10:10:43.659Z</time></trkpt><trkpt lat="42.2653684" lon="13.5260132"><ele>848.0</ele><time>2026-04-10T10:10:44.659Z</time></trkpt><trkpt lat="42.2653052" lon="13.5261271"><ele>840.0</ele><time>2026-04-10T10:10:45.66Z</time></trkpt><trkpt lat="42.2652312" lon="13.526245"><ele>832.0</ele><time>2026-04-10T10:10:46.658Z</time></trkpt><trkpt lat="42.2651506" lon="13.5263688"><ele>824.0</ele><time>2026-04-10T10:10:47.667Z</time></trkpt><trkpt lat="42.2650563" lon="13.5265044"><ele>816.0</ele><time>2026-04-10T10:10:48.663Z</time></trkpt><trkpt lat="42.2649634" lon="13.526632"><ele>816.0</ele><time>2026-04-10T10:10:49.661Z</time></trkpt><trkpt lat="42.2648798" lon="13.526753"><ele>816.0</ele><time>2026-04-10T10:10:50.668Z</time></trkpt><trkpt lat="42.2648007" lon="13.526876"><ele>816.0</ele><time>2026-04-10T10:10:51.662Z</time></trkpt><trkpt lat="42.2647196" lon="13.5269986"><ele>816.0</ele><time>2026-04-10T10:10:52.664Z</time></trkpt><trkpt lat="42.2646411" lon="13.5271464"><ele>820.0</ele><time>2026-04-10T10:10:53.674Z</time></trkpt><trkpt lat="42.2645677" lon="13.5272923"><ele>824.0</ele><time>2026-04-10T10:10:54.665Z</time></trkpt><trkpt lat="42.2644989" lon="13.5274403"><ele>828.0</ele><time>2026-04-10T10:10:55.667Z</time></trkpt><trkpt lat="42.2644346" lon="13.5275869"><ele>832.0</ele><time>2026-04-10T10:10:56.671Z</time></trkpt><trkpt lat="42.2643696" lon="13.5277248"><ele>832.0</ele><time>2026-04-10T10:10:57.667Z</time></trkpt><trkpt lat="42.2643086" lon="13.5278593"><ele>832.0</ele><time>2026-04-10T10:10:58.669Z</time></trkpt><trkpt lat="42.2642593" lon="13.5279809"><ele>832.0</ele><time>2026-04-10T10:10:59.67Z</time></trkpt><trkpt lat="42.2642134" lon="13.5280964"><ele>832.0</ele><time>2026-04-10T10:11:00.67Z</time></trkpt><trkpt lat="42.264171" lon="13.5281959"><ele>832.0</ele><time>2026-04-10T10:11:01.671Z</time></trkpt><trkpt lat="42.2641261" lon="13.5282861"><ele>832.2</ele><time>2026-04-10T10:11:02.668Z</time></trkpt><trkpt lat="42.2640644" lon="13.5283821"><ele>832.4000000000001</ele><time>2026-04-10T10:11:03.674Z</time></trkpt><trkpt lat="42.2639845" lon="13.5284829"><ele>832.5999999999999</ele><time>2026-04-10T10:11:04.671Z</time></trkpt><trkpt lat="42.2638896" lon="13.5285792"><ele>832.8</ele><time>2026-04-10T10:11:05.668Z</time></trkpt><trkpt lat="42.2637837" lon="13.5286604"><ele>833.0</ele><time>2026-04-10T10:11:06.671Z</time></trkpt><trkpt lat="42.2636807" lon="13.528728"><ele>825.2</ele><time>2026-04-10T10:11:07.675Z</time></trkpt><trkpt lat="42.2635868" lon="13.5287948"><ele>817.4</ele><time>2026-04-10T10:11:08.683Z</time></trkpt><trkpt lat="42.2634961" lon="13.5288727"><ele>809.6</ele><time>2026-04-10T10:11:09.68Z</time></trkpt><trkpt lat="42.263412" lon="13.5289504"><ele>801.8000000000001</ele><time>2026-04-10T10:11:10.672Z</time></trkpt><trkpt lat="42.2633324" lon="13.5290227"><ele>794.0</ele><time>2026-04-10T10:11:11.677Z</time></trkpt><trkpt lat="42.2632571" lon="13.5290884"><ele>794.0000000000001</ele><time>2026-04-10T10:11:12.673Z</time></trkpt><trkpt lat="42.2631943" lon="13.529159"><ele>794.0</ele><time>2026-04-10T10:11:13.676Z</time></trkpt><trkpt lat="42.2631398" lon="13.5292301"><ele>794.0</ele><time>2026-04-10T10:11:14.673Z</time></trkpt><trkpt lat="42.2630869" lon="13.5292987"><ele>794.0</ele><time>2026-04-10T10:11:15.676Z</time></trkpt><trkpt lat="42.2630329" lon="13.529368"><ele>794.0000000000001</ele><time>2026-04-10T10:11:16.672Z</time></trkpt><trkpt lat="42.2629721" lon="13.5294345"><ele>794.0</ele><time>2026-04-10T10:11:17.682Z</time></trkpt><trkpt lat="42.262908" lon="13.529493"><ele>791.8000000000001</ele><time>2026-04-10T10:11:18.681Z</time></trkpt><trkpt lat="42.2628466" lon="13.5295488"><ele>789.6</ele><time>2026-04-10T10:11:19.675Z</time></trkpt><trkpt lat="42.2627897" lon="13.5295957"><ele>787.4</ele><time>2026-04-10T10:11:20.679Z</time></trkpt><trkpt lat="42.262705" lon="13.5297029"><ele>785.2</ele><time>2026-04-10T10:11:22.678Z</time></trkpt><trkpt lat="42.262595" lon="13.5297858"><ele>783.0</ele><time>2026-04-10T10:11:24.682Z</time></trkpt><trkpt lat="42.2625308" lon="13.5298247"><ele>783.0</ele><time>2026-04-10T10:11:25.679Z</time></trkpt><trkpt lat="42.2624581" lon="13.5298641"><ele>783.0</ele><time>2026-04-10T10:11:26.683Z</time></trkpt><trkpt lat="42.2623885" lon="13.5298942"><ele>783.0</ele><time>2026-04-10T10:11:27.674Z</time></trkpt><trkpt lat="42.2622958" lon="13.5299333"><ele>783.0</ele><time>2026-04-10T10:11:29.673Z</time></trkpt><trkpt lat="42.2622433" lon="13.5300151"><ele>783.0</ele><time>2026-04-10T10:11:32.679Z</time></trkpt><trkpt lat="42.2622274" lon="13.5301169"><ele>783.0</ele><time>2026-04-10T10:11:34.669Z</time></trkpt><trkpt lat="42.2621929" lon="13.5301906"><ele>782.0</ele><time>2026-04-10T10:11:35.673Z</time></trkpt><trkpt lat="42.2621408" lon="13.5302674"><ele>781.0</ele><time>2026-04-10T10:11:36.672Z</time></trkpt><trkpt lat="42.2620725" lon="13.5303376"><ele>780.0</ele><time>2026-04-10T10:11:37.675Z</time></trkpt><trkpt lat="42.2619892" lon="13.5304072"><ele>779.0</ele><time>2026-04-10T10:11:38.668Z</time></trkpt><trkpt lat="42.2618986" lon="13.5304698"><ele>778.0</ele><time>2026-04-10T10:11:39.659Z</time></trkpt><trkpt lat="42.2618103" lon="13.5305373"><ele>778.0</ele><time>2026-04-10T10:11:40.665Z</time></trkpt><trkpt lat="42.2617299" lon="13.5306166"><ele>778.0</ele><time>2026-04-10T10:11:41.667Z</time></trkpt><trkpt lat="42.2616606" lon="13.5307167"><ele>778.0</ele><time>2026-04-10T10:11:42.668Z</time></trkpt><trkpt lat="42.2615972" lon="13.5308169"><ele>778.0</ele><time>2026-04-10T10:11:43.665Z</time></trkpt><trkpt lat="42.261531" lon="13.5309172"><ele>778.0</ele><time>2026-04-10T10:11:44.666Z</time></trkpt><trkpt lat="42.2614571" lon="13.5310229"><ele>778.2</ele><time>2026-04-10T10:11:45.661Z</time></trkpt><trkpt lat="42.2613781" lon="13.5311405"><ele>778.4</ele><time>2026-04-10T10:11:46.665Z</time></trkpt><trkpt lat="42.2612984" lon="13.5312372"><ele>778.6</ele><time>2026-04-10T10:11:47.667Z</time></trkpt><trkpt lat="42.2612185" lon="13.5313313"><ele>778.8000000000001</ele><time>2026-04-10T10:11:48.665Z</time></trkpt><trkpt lat="42.2611456" lon="13.5314157"><ele>779.0</ele><time>2026-04-10T10:11:49.662Z</time></trkpt><trkpt lat="42.2610785" lon="13.5315045"><ele>779.0000000000001</ele><time>2026-04-10T10:11:50.666Z</time></trkpt><trkpt lat="42.2610186" lon="13.5315878"><ele>779.0</ele><time>2026-04-10T10:11:51.666Z</time></trkpt><trkpt lat="42.2609658" lon="13.5316768"><ele>779.0</ele><time>2026-04-10T10:11:52.663Z</time></trkpt><trkpt lat="42.2609107" lon="13.5317668"><ele>779.0</ele><time>2026-04-10T10:11:53.662Z</time></trkpt><trkpt lat="42.2608582" lon="13.5318533"><ele>779.0000000000001</ele><time>2026-04-10T10:11:54.671Z</time></trkpt><trkpt lat="42.2608054" lon="13.531928"><ele>779.0</ele><time>2026-04-10T10:11:55.675Z</time></trkpt><trkpt lat="42.2607514" lon="13.5319964"><ele>778.0000000000001</ele><time>2026-04-10T10:11:56.668Z</time></trkpt><trkpt lat="42.2607044" lon="13.5320624"><ele>777.0</ele><time>2026-04-10T10:11:57.672Z</time></trkpt><trkpt lat="42.2606311" lon="13.5322005"><ele>776.0</ele><time>2026-04-10T10:11:59.665Z</time></trkpt><trkpt lat="42.2605839" lon="13.5322747"><ele>775.0</ele><time>2026-04-10T10:12:00.669Z</time></trkpt><trkpt lat="42.2605294" lon="13.5323376"><ele>774.0000000000001</ele><time>2026-04-10T10:12:01.676Z</time></trkpt><trkpt lat="42.2604664" lon="13.5324139"><ele>773.0</ele><time>2026-04-10T10:12:02.675Z</time></trkpt><trkpt lat="42.2603934" lon="13.5325032"><ele>773.0</ele><time>2026-04-10T10:12:03.687Z</time></trkpt><trkpt lat="42.2603142" lon="13.5325964"><ele>773.0</ele><time>2026-04-10T10:12:04.678Z</time></trkpt><trkpt lat="42.2602343" lon="13.5326921"><ele>773.0</ele><time>2026-04-10T10:12:05.682Z</time></trkpt><trkpt lat="42.2601575" lon="13.5327796"><ele>773.0</ele><time>2026-04-10T10:12:06.682Z</time></trkpt><trkpt lat="42.2600889" lon="13.5328506"><ele>773.0</ele><time>2026-04-10T10:12:07.676Z</time></trkpt><trkpt lat="42.2600323" lon="13.5329211"><ele>770.0000000000001</ele><time>2026-04-10T10:12:08.675Z</time></trkpt><trkpt lat="42.2599773" lon="13.5329939"><ele>767.0</ele><time>2026-04-10T10:12:09.683Z</time></trkpt><trkpt lat="42.2599143" lon="13.5330633"><ele>764.0</ele><time>2026-04-10T10:12:10.674Z</time></trkpt><trkpt lat="42.2598461" lon="13.5331329"><ele>761.0</ele><time>2026-04-10T10:12:11.684Z</time></trkpt><trkpt lat="42.2597665" lon="13.5331822"><ele>758.0</ele><time>2026-04-10T10:12:12.674Z</time></trkpt><trkpt lat="42.2596853" lon="13.5332337"><ele>755.0</ele><time>2026-04-10T10:12:13.681Z</time></trkpt><trkpt lat="42.2596046" lon="13.5332766"><ele>755.0</ele><time>2026-04-10T10:12:14.672Z</time></trkpt><trkpt lat="42.2595337" lon="13.5333195"><ele>755.0</ele><time>2026-04-10T10:12:15.68Z</time></trkpt><trkpt lat="42.259463" lon="13.533366"><ele>755.0</ele><time>2026-04-10T10:12:16.684Z</time></trkpt><trkpt lat="42.2593866" lon="13.5334032"><ele>755.0</ele><time>2026-04-10T10:12:17.68Z</time></trkpt><trkpt lat="42.2593078" lon="13.5334467"><ele>755.0</ele><time>2026-04-10T10:12:18.688Z</time></trkpt><trkpt lat="42.2592326" lon="13.5334872"><ele>755.0</ele><time>2026-04-10T10:12:19.678Z</time></trkpt><trkpt lat="42.2591622" lon="13.5335302"><ele>755.0</ele><time>2026-04-10T10:12:20.68Z</time></trkpt><trkpt lat="42.2590959" lon="13.533563"><ele>755.0</ele><time>2026-04-10T10:12:21.687Z</time></trkpt><trkpt lat="42.2589891" lon="13.5336169"><ele>755.0</ele><time>2026-04-10T10:12:23.675Z</time></trkpt><trkpt lat="42.2589152" lon="13.5336607"><ele>755.0</ele><time>2026-04-10T10:12:25.67Z</time></trkpt><trkpt lat="42.2589894" lon="13.5337328"><ele>755.0</ele><time>2026-04-10T10:12:29.692Z</time></trkpt><trkpt lat="42.2590537" lon="13.5337255"><ele>755.0</ele><time>2026-04-10T10:12:30.692Z</time></trkpt><trkpt lat="42.2591313" lon="13.5337179"><ele>750.2</ele><time>2026-04-10T10:12:31.68Z</time></trkpt><trkpt lat="42.2592152" lon="13.5337223"><ele>745.4</ele><time>2026-04-10T10:12:32.671Z</time></trkpt><trkpt lat="42.2593186" lon="13.5337374"><ele>740.5999999999999</ele><time>2026-04-10T10:12:33.673Z</time></trkpt><trkpt lat="42.2594265" lon="13.5337612"><ele>735.8</ele><time>2026-04-10T10:12:34.669Z</time></trkpt><trkpt lat="42.2595371" lon="13.5337802"><ele>731.0</ele><time>2026-04-10T10:12:35.671Z</time></trkpt><trkpt lat="42.259647" lon="13.5337848"><ele>731.0</ele><time>2026-04-10T10:12:36.67Z</time></trkpt><trkpt lat="42.2597515" lon="13.5337544"><ele>731.0</ele><time>2026-04-10T10:12:37.677Z</time></trkpt><trkpt lat="42.2598527" lon="13.5336921"><ele>731.0</ele><time>2026-04-10T10:12:38.665Z</time></trkpt><trkpt lat="42.2599481" lon="13.5336249"><ele>731.0</ele><time>2026-04-10T10:12:39.669Z</time></trkpt><trkpt lat="42.2600466" lon="13.5335632"><ele>731.0</ele><time>2026-04-10T10:12:40.671Z</time></trkpt><trkpt lat="42.2601494" lon="13.5335027"><ele>734.1999999999999</ele><time>2026-04-10T10:12:41.669Z</time></trkpt><trkpt lat="42.2602429" lon="13.5334469"><ele>737.4</ele><time>2026-04-10T10:12:42.67Z</time></trkpt><trkpt lat="42.2603192" lon="13.5333848"><ele>740.6</ele><time>2026-04-10T10:12:43.664Z</time></trkpt><trkpt lat="42.2603792" lon="13.5333034"><ele>743.8</ele><time>2026-04-10T10:12:44.662Z</time></trkpt><trkpt lat="42.2604423" lon="13.533219"><ele>747.0</ele><time>2026-04-10T10:12:45.665Z</time></trkpt><trkpt lat="42.2605196" lon="13.5331261"><ele>747.0</ele><time>2026-04-10T10:12:46.675Z</time></trkpt><trkpt lat="42.2605856" lon="13.5330594"><ele>747.0</ele><time>2026-04-10T10:12:47.676Z</time></trkpt><trkpt lat="42.2606536" lon="13.533006"><ele>747.0</ele><time>2026-04-10T10:12:48.675Z</time></trkpt><trkpt lat="42.2607243" lon="13.5329662"><ele>747.0</ele><time>2026-04-10T10:12:49.667Z</time></trkpt><trkpt lat="42.2607996" lon="13.5329374"><ele>747.0</ele><time>2026-04-10T10:12:50.669Z</time></trkpt><trkpt lat="42.2608682" lon="13.5329105"><ele>747.0</ele><time>2026-04-10T10:12:51.664Z</time></trkpt><trkpt lat="42.2609409" lon="13.5328886"><ele>747.5</ele><time>2026-04-10T10:12:52.669Z</time></trkpt><trkpt lat="42.2610264" lon="13.5328756"><ele>748.0</ele><time>2026-04-10T10:12:53.668Z</time></trkpt><trkpt lat="42.2611178" lon="13.5328645"><ele>748.5</ele><time>2026-04-10T10:12:54.664Z</time></trkpt><trkpt lat="42.261202" lon="13.532838"><ele>749.0</ele><time>2026-04-10T10:12:55.665Z</time></trkpt><trkpt lat="42.2612722" lon="13.5327983"><ele>749.5</ele><time>2026-04-10T10:12:56.666Z</time></trkpt><trkpt lat="42.2613374" lon="13.5327514"><ele>750.0</ele><time>2026-04-10T10:12:57.671Z</time></trkpt><trkpt lat="42.261407" lon="13.5326909"><ele>744.3333333333334</ele><time>2026-04-10T10:12:58.657Z</time></trkpt><trkpt lat="42.2614759" lon="13.5326139"><ele>738.6666666666666</ele><time>2026-04-10T10:12:59.661Z</time></trkpt><trkpt lat="42.2615421" lon="13.5325387"><ele>733.0</ele><time>2026-04-10T10:13:00.661Z</time></trkpt><trkpt lat="42.261611" lon="13.5324744"><ele>727.3333333333333</ele><time>2026-04-10T10:13:01.662Z</time></trkpt><trkpt lat="42.261683" lon="13.5324447"><ele>721.6666666666666</ele><time>2026-04-10T10:13:02.658Z</time></trkpt><trkpt lat="42.2617654" lon="13.532416"><ele>716.0</ele><time>2026-04-10T10:13:03.667Z</time></trkpt><trkpt lat="42.26186" lon="13.5323705"><ele>716.0</ele><time>2026-04-10T10:13:04.662Z</time></trkpt><trkpt lat="42.261961" lon="13.5322977"><ele>716.0</ele><time>2026-04-10T10:13:05.66Z</time></trkpt><trkpt lat="42.2620596" lon="13.5321947"><ele>716.0</ele><time>2026-04-10T10:13:06.661Z</time></trkpt><trkpt lat="42.2621556" lon="13.5320799"><ele>716.0</ele><time>2026-04-10T10:13:07.656Z</time></trkpt><trkpt lat="42.2622489" lon="13.5319768"><ele>715.8</ele><time>2026-04-10T10:13:08.665Z</time></trkpt><trkpt lat="42.2623358" lon="13.5318938"><ele>715.5999999999999</ele><time>2026-04-10T10:13:09.656Z</time></trkpt><trkpt lat="42.2624252" lon="13.5318221"><ele>715.4</ele><time>2026-04-10T10:13:10.656Z</time></trkpt><trkpt lat="42.2625114" lon="13.53177"><ele>715.2</ele><time>2026-04-10T10:13:11.66Z</time></trkpt><trkpt lat="42.2626099" lon="13.5317159"><ele>715.0</ele><time>2026-04-10T10:13:12.654Z</time></trkpt><trkpt lat="42.26271" lon="13.5316509"><ele>715.0</ele><time>2026-04-10T10:13:13.665Z</time></trkpt><trkpt lat="42.2628112" lon="13.53158"><ele>715.0</ele><time>2026-04-10T10:13:14.663Z</time></trkpt><trkpt lat="42.2629097" lon="13.5315126"><ele>715.0</ele><time>2026-04-10T10:13:15.666Z</time></trkpt><trkpt lat="42.2630023" lon="13.5314435"><ele>715.0</ele><time>2026-04-10T10:13:16.665Z</time></trkpt><trkpt lat="42.2630899" lon="13.5313716"><ele>715.0</ele><time>2026-04-10T10:13:17.667Z</time></trkpt><trkpt lat="42.263169" lon="13.5313053"><ele>716.0</ele><time>2026-04-10T10:13:18.672Z</time></trkpt><trkpt lat="42.263252" lon="13.5312607"><ele>717.0</ele><time>2026-04-10T10:13:19.669Z</time></trkpt><trkpt lat="42.263336" lon="13.5312339"><ele>718.0</ele><time>2026-04-10T10:13:20.677Z</time></trkpt><trkpt lat="42.2634264" lon="13.5312222"><ele>719.0</ele><time>2026-04-10T10:13:21.676Z</time></trkpt><trkpt lat="42.2635228" lon="13.5312203"><ele>720.0</ele><time>2026-04-10T10:13:22.676Z</time></trkpt><trkpt lat="42.2636215" lon="13.5312166"><ele>720.0</ele><time>2026-04-10T10:13:23.674Z</time></trkpt><trkpt lat="42.2637263" lon="13.5312019"><ele>720.0</ele><time>2026-04-10T10:13:24.668Z</time></trkpt><trkpt lat="42.2638316" lon="13.5311689"><ele>720.0</ele><time>2026-04-10T10:13:25.67Z</time></trkpt><trkpt lat="42.2639301" lon="13.5311285"><ele>720.0</ele><time>2026-04-10T10:13:26.672Z</time></trkpt><trkpt lat="42.2640159" lon="13.5310939"><ele>720.0</ele><time>2026-04-10T10:13:27.673Z</time></trkpt><trkpt lat="42.2641087" lon="13.5310529"><ele>714.2</ele><time>2026-04-10T10:13:28.679Z</time></trkpt><trkpt lat="42.2641999" lon="13.5310008"><ele>708.4</ele><time>2026-04-10T10:13:29.679Z</time></trkpt><trkpt lat="42.2643006" lon="13.5309488"><ele>702.5999999999999</ele><time>2026-04-10T10:13:30.679Z</time></trkpt><trkpt lat="42.2643968" lon="13.5308917"><ele>696.8</ele><time>2026-04-10T10:13:31.681Z</time></trkpt><trkpt lat="42.2644974" lon="13.5308352"><ele>691.0</ele><time>2026-04-10T10:13:32.674Z</time></trkpt><trkpt lat="42.2645876" lon="13.5307632"><ele>690.9999999999999</ele><time>2026-04-10T10:13:33.668Z</time></trkpt><trkpt lat="42.2646668" lon="13.5306929"><ele>691.0</ele><time>2026-04-10T10:13:34.667Z</time></trkpt><trkpt lat="42.264726" lon="13.5306288"><ele>691.0</ele><time>2026-04-10T10:13:35.665Z</time></trkpt><trkpt lat="42.2647786" lon="13.5305705"><ele>691.0</ele><time>2026-04-10T10:13:36.666Z</time></trkpt><trkpt lat="42.2648487" lon="13.5305543"><ele>691.0</ele><time>2026-04-10T10:13:38.662Z</time></trkpt><trkpt lat="42.2648715" lon="13.5306371"><ele>690.9999999999999</ele><time>2026-04-10T10:13:40.67Z</time></trkpt><trkpt lat="42.2648285" lon="13.5307113"><ele>691.0</ele><time>2026-04-10T10:13:41.675Z</time></trkpt><trkpt lat="42.2647482" lon="13.5308055"><ele>691.0</ele><time>2026-04-10T10:13:42.675Z</time></trkpt><trkpt lat="42.2646524" lon="13.5308991"><ele>691.0</ele><time>2026-04-10T10:13:43.669Z</time></trkpt><trkpt lat="42.2645417" lon="13.5309805"><ele>691.0</ele><time>2026-04-10T10:13:44.668Z</time></trkpt><trkpt lat="42.264438" lon="13.5310571"><ele>691.0</ele><time>2026-04-10T10:13:45.663Z</time></trkpt><trkpt lat="42.264344" lon="13.5311452"><ele>684.5999999999999</ele><time>2026-04-10T10:13:46.665Z</time></trkpt><trkpt lat="42.2642633" lon="13.5312349"><ele>678.2</ele><time>2026-04-10T10:13:47.672Z</time></trkpt><trkpt lat="42.26418" lon="13.5313188"><ele>671.8</ele><time>2026-04-10T10:13:48.667Z</time></trkpt><trkpt lat="42.2641038" lon="13.5314234"><ele>665.4000000000001</ele><time>2026-04-10T10:13:49.672Z</time></trkpt><trkpt lat="42.264037" lon="13.5315194"><ele>659.0</ele><time>2026-04-10T10:13:50.671Z</time></trkpt><trkpt lat="42.2639727" lon="13.5316124"><ele>663.8000000000001</ele><time>2026-04-10T10:13:51.673Z</time></trkpt><trkpt lat="42.2639058" lon="13.5316975"><ele>668.6</ele><time>2026-04-10T10:13:52.672Z</time></trkpt><trkpt lat="42.2638367" lon="13.531778"><ele>673.4</ele><time>2026-04-10T10:13:53.668Z</time></trkpt><trkpt lat="42.2637665" lon="13.5318647"><ele>678.2</ele><time>2026-04-10T10:13:54.676Z</time></trkpt><trkpt lat="42.2636844" lon="13.531944"><ele>683.0</ele><time>2026-04-10T10:13:55.676Z</time></trkpt><trkpt lat="42.2636069" lon="13.5320104"><ele>677.8333333333333</ele><time>2026-04-10T10:13:56.67Z</time></trkpt><trkpt lat="42.2635388" lon="13.5320723"><ele>672.6666666666666</ele><time>2026-04-10T10:13:57.672Z</time></trkpt><trkpt lat="42.2634845" lon="13.5321233"><ele>667.5</ele><time>2026-04-10T10:13:58.675Z</time></trkpt><trkpt lat="42.2634175" lon="13.5322175"><ele>662.3333333333334</ele><time>2026-04-10T10:14:00.684Z</time></trkpt><trkpt lat="42.2634327" lon="13.5323048"><ele>657.1666666666667</ele><time>2026-04-10T10:14:02.666Z</time></trkpt><trkpt lat="42.2634939" lon="13.5323673"><ele>652.0</ele><time>2026-04-10T10:14:04.668Z</time></trkpt><trkpt lat="42.2636269" lon="13.5323275"><ele>652.0</ele><time>2026-04-10T10:14:06.668Z</time></trkpt><trkpt lat="42.263722" lon="13.5322642"><ele>652.0</ele><time>2026-04-10T10:14:07.662Z</time></trkpt><trkpt lat="42.2638258" lon="13.532186"><ele>652.0</ele><time>2026-04-10T10:14:08.648Z</time></trkpt><trkpt lat="42.2639345" lon="13.5321109"><ele>652.0</ele><time>2026-04-10T10:14:09.651Z</time></trkpt><trkpt lat="42.2640582" lon="13.532025"><ele>653.4000000000001</ele><time>2026-04-10T10:14:10.653Z</time></trkpt><trkpt lat="42.2641736" lon="13.5319716"><ele>654.8000000000001</ele><time>2026-04-10T10:14:11.647Z</time></trkpt><trkpt lat="42.2642815" lon="13.5319425"><ele>656.2</ele><time>2026-04-10T10:14:12.645Z</time></trkpt><trkpt lat="42.2643801" lon="13.5319241"><ele>657.6</ele><time>2026-04-10T10:14:13.645Z</time></trkpt><trkpt lat="42.264466" lon="13.5319097"><ele>659.0</ele><time>2026-04-10T10:14:14.645Z</time></trkpt><trkpt lat="42.2645597" lon="13.531871"><ele>659.0</ele><time>2026-04-10T10:14:15.654Z</time></trkpt><trkpt lat="42.264658" lon="13.5318355"><ele>659.0</ele><time>2026-04-10T10:14:16.658Z</time></trkpt><trkpt lat="42.2647647" lon="13.5318021"><ele>659.0</ele><time>2026-04-10T10:14:17.656Z</time></trkpt><trkpt lat="42.2648766" lon="13.5317694"><ele>659.0</ele><time>2026-04-10T10:14:18.662Z</time></trkpt><trkpt lat="42.2649672" lon="13.5317364"><ele>659.0</ele><time>2026-04-10T10:14:19.66Z</time></trkpt><trkpt lat="42.2650406" lon="13.531698"><ele>655.0</ele><time>2026-04-10T10:14:20.665Z</time></trkpt><trkpt lat="42.2651168" lon="13.5316597"><ele>651.0</ele><time>2026-04-10T10:14:21.661Z</time></trkpt><trkpt lat="42.2651846" lon="13.5316226"><ele>647.0</ele><time>2026-04-10T10:14:22.658Z</time></trkpt><trkpt lat="42.2652563" lon="13.5315923"><ele>643.0</ele><time>2026-04-10T10:14:23.654Z</time></trkpt><trkpt lat="42.2653349" lon="13.5315699"><ele>639.0</ele><time>2026-04-10T10:14:24.668Z</time></trkpt><trkpt lat="42.2654091" lon="13.5315611"><ele>635.0</ele><time>2026-04-10T10:14:25.662Z</time></trkpt><trkpt lat="42.2654845" lon="13.5315568"><ele>635.0</ele><time>2026-04-10T10:14:26.661Z</time></trkpt><trkpt lat="42.2655602" lon="13.5315437"><ele>635.0</ele><time>2026-04-10T10:14:27.668Z</time></trkpt><trkpt lat="42.2656391" lon="13.5315274"><ele>635.0</ele><time>2026-04-10T10:14:28.666Z</time></trkpt><trkpt lat="42.2657167" lon="13.5315087"><ele>635.0</ele><time>2026-04-10T10:14:29.668Z</time></trkpt><trkpt lat="42.2657946" lon="13.5314811"><ele>635.0</ele><time>2026-04-10T10:14:30.673Z</time></trkpt><trkpt lat="42.2658713" lon="13.5314547"><ele>635.0</ele><time>2026-04-10T10:14:31.676Z</time></trkpt><trkpt lat="42.2659449" lon="13.5314385"><ele>631.3333333333333</ele><time>2026-04-10T10:14:32.675Z</time></trkpt><trkpt lat="42.2660203" lon="13.531413"><ele>627.6666666666666</ele><time>2026-04-10T10:14:33.681Z</time></trkpt><trkpt lat="42.2660922" lon="13.5313813"><ele>624.0</ele><time>2026-04-10T10:14:34.676Z</time></trkpt><trkpt lat="42.2661811" lon="13.53135"><ele>620.3333333333334</ele><time>2026-04-10T10:14:35.679Z</time></trkpt><trkpt lat="42.2662666" lon="13.5313174"><ele>616.6666666666667</ele><time>2026-04-10T10:14:36.678Z</time></trkpt><trkpt lat="42.2663608" lon="13.5312866"><ele>613.0</ele><time>2026-04-10T10:14:37.682Z</time></trkpt><trkpt lat="42.2664492" lon="13.5312666"><ele>611.1666666666667</ele><time>2026-04-10T10:14:38.682Z</time></trkpt><trkpt lat="42.2665265" lon="13.5312624"><ele>609.3333333333334</ele><time>2026-04-10T10:14:39.682Z</time></trkpt><trkpt lat="42.2666012" lon="13.5312619"><ele>607.5</ele><time>2026-04-10T10:14:40.681Z</time></trkpt><trkpt lat="42.266671" lon="13.5312612"><ele>605.6666666666666</ele><time>2026-04-10T10:14:41.681Z</time></trkpt><trkpt lat="42.2667389" lon="13.5312565"><ele>603.8333333333333</ele><time>2026-04-10T10:14:42.683Z</time></trkpt><trkpt lat="42.266802" lon="13.5312518"><ele>602.0</ele><time>2026-04-10T10:14:43.681Z</time></trkpt><trkpt lat="42.266912" lon="13.531247"><ele>602.0</ele><time>2026-04-10T10:14:45.682Z</time></trkpt><trkpt lat="42.2669923" lon="13.5312632"><ele>602.0</ele><time>2026-04-10T10:14:47.694Z</time></trkpt><trkpt lat="42.2670655" lon="13.5312997"><ele>602.0</ele><time>2026-04-10T10:19:04.653Z</time></trkpt><trkpt lat="42.2671795" lon="13.5313547"><ele>602.0</ele><time>2026-04-10T10:19:06.655Z</time></trkpt><trkpt lat="42.2672792" lon="13.5314078"><ele>602.0</ele><time>2026-04-10T10:19:07.654Z</time></trkpt><trkpt lat="42.2673627" lon="13.5314491"><ele>601.8333333333333</ele><time>2026-04-10T10:19:08.658Z</time></trkpt><trkpt lat="42.2674374" lon="13.5314967"><ele>601.6666666666666</ele><time>2026-04-10T10:19:09.664Z</time></trkpt><trkpt lat="42.267501" lon="13.5315599"><ele>601.5</ele><time>2026-04-10T10:19:10.656Z</time></trkpt><trkpt lat="42.2675649" lon="13.5316201"><ele>601.3333333333334</ele><time>2026-04-10T10:19:11.658Z</time></trkpt><trkpt lat="42.2676215" lon="13.531685"><ele>601.1666666666667</ele><time>2026-04-10T10:19:12.654Z</time></trkpt><trkpt lat="42.2676754" lon="13.5317668"><ele>601.0</ele><time>2026-04-10T10:19:13.669Z</time></trkpt><trkpt lat="42.2677315" lon="13.5318313"><ele>601.0</ele><time>2026-04-10T10:19:14.657Z</time></trkpt><trkpt lat="42.267792" lon="13.5318872"><ele>601.0</ele><time>2026-04-10T10:19:15.663Z</time></trkpt><trkpt lat="42.2678593" lon="13.531934"><ele>601.0</ele><time>2026-04-10T10:19:16.661Z</time></trkpt><trkpt lat="42.2679215" lon="13.5319946"><ele>601.0</ele><time>2026-04-10T10:19:17.658Z</time></trkpt><trkpt lat="42.2679891" lon="13.532028"><ele>601.0</ele><time>2026-04-10T10:19:18.672Z</time></trkpt><trkpt lat="42.2680624" lon="13.532046"><ele>601.0</ele><time>2026-04-10T10:19:19.665Z</time></trkpt><trkpt lat="42.2681441" lon="13.5320668"><ele>598.0</ele><time>2026-04-10T10:19:20.664Z</time></trkpt><trkpt lat="42.26822" lon="13.532096"><ele>595.0</ele><time>2026-04-10T10:19:21.657Z</time></trkpt><trkpt lat="42.2682782" lon="13.5321335"><ele>592.0</ele><time>2026-04-10T10:19:22.655Z</time></trkpt><trkpt lat="42.2683471" lon="13.5321882"><ele>589.0</ele><time>2026-04-10T10:19:24.66Z</time></trkpt><trkpt lat="42.26842" lon="13.5322571"><ele>586.0</ele><time>2026-04-10T10:19:27.652Z</time></trkpt><trkpt lat="42.2684925" lon="13.5323533"><ele>583.0</ele><time>2026-04-10T10:19:29.644Z</time></trkpt><trkpt lat="42.268564" lon="13.5324628"><ele>583.0</ele><time>2026-04-10T10:19:30.646Z</time></trkpt><trkpt lat="42.2686887" lon="13.5326262"><ele>583.0</ele><time>2026-04-10T10:19:31.649Z</time></trkpt><trkpt lat="42.26881" lon="13.5327983"><ele>583.0</ele><time>2026-04-10T10:19:32.659Z</time></trkpt><trkpt lat="42.2689098" lon="13.532976"><ele>580.0</ele><time>2026-04-10T10:19:33.659Z</time></trkpt><trkpt lat="42.2689948" lon="13.5331763"><ele>577.0</ele><time>2026-04-10T10:19:34.661Z</time></trkpt><trkpt lat="42.2691148" lon="13.5333473"><ele>574.0</ele><time>2026-04-10T10:19:35.658Z</time></trkpt><trkpt lat="42.2692413" lon="13.5335091"><ele>574.0</ele><time>2026-04-10T10:19:36.658Z</time></trkpt><trkpt lat="42.2693724" lon="13.5336951"><ele>574.0</ele><time>2026-04-10T10:19:37.664Z</time></trkpt><trkpt lat="42.2694535" lon="13.5338753"><ele>574.0</ele><time>2026-04-10T10:19:38.673Z</time></trkpt><trkpt lat="42.269551" lon="13.5340717"><ele>573.6666666666667</ele><time>2026-04-10T10:19:39.668Z</time></trkpt><trkpt lat="42.2696002" lon="13.534277"><ele>573.3333333333334</ele><time>2026-04-10T10:19:40.661Z</time></trkpt><trkpt lat="42.2696821" lon="13.5344692"><ele>573.0</ele><time>2026-04-10T10:19:41.66Z</time></trkpt><trkpt lat="42.2697418" lon="13.5346468"><ele>573.6666666666666</ele><time>2026-04-10T10:19:42.666Z</time></trkpt><trkpt lat="42.269805" lon="13.5348666"><ele>574.3333333333333</ele><time>2026-04-10T10:19:43.666Z</time></trkpt><trkpt lat="42.2698442" lon="13.5350815"><ele>575.0</ele><time>2026-04-10T10:19:44.662Z</time></trkpt><trkpt lat="42.2698783" lon="13.535279"><ele>575.0</ele><time>2026-04-10T10:19:45.658Z</time></trkpt><trkpt lat="42.2698992" lon="13.5354631"><ele>575.0</ele><time>2026-04-10T10:19:46.675Z</time></trkpt><trkpt lat="42.2699007" lon="13.5356287"><ele>575.0</ele><time>2026-04-10T10:19:47.666Z</time></trkpt><trkpt lat="42.2699191" lon="13.5358319"><ele>575.0</ele><time>2026-04-10T10:19:48.665Z</time></trkpt><trkpt lat="42.2699292" lon="13.536019"><ele>575.0</ele><time>2026-04-10T10:19:49.672Z</time></trkpt><trkpt lat="42.2699504" lon="13.5361863"><ele>575.0</ele><time>2026-04-10T10:19:50.684Z</time></trkpt><trkpt lat="42.2699839" lon="13.5363645"><ele>575.0</ele><time>2026-04-10T10:19:51.662Z</time></trkpt><trkpt lat="42.2700212" lon="13.5365218"><ele>575.0</ele><time>2026-04-10T10:19:52.669Z</time></trkpt><trkpt lat="42.2700327" lon="13.5366905"><ele>576.5</ele><time>2026-04-10T10:19:53.666Z</time></trkpt><trkpt lat="42.2700272" lon="13.5368557"><ele>578.0</ele><time>2026-04-10T10:19:54.656Z</time></trkpt><trkpt lat="42.2700021" lon="13.537011"><ele>579.5</ele><time>2026-04-10T10:19:55.659Z</time></trkpt><trkpt lat="42.2699722" lon="13.5371557"><ele>581.0</ele><time>2026-04-10T10:19:56.647Z</time></trkpt><trkpt lat="42.2699463" lon="13.5372925"><ele>581.5</ele><time>2026-04-10T10:19:57.65Z</time></trkpt><trkpt lat="42.2699243" lon="13.5374049"><ele>582.0</ele><time>2026-04-10T10:19:58.644Z</time></trkpt><trkpt lat="42.2699042" lon="13.5375334"><ele>582.5</ele><time>2026-04-10T10:20:00.667Z</time></trkpt><trkpt lat="42.2700073" lon="13.5375952"><ele>583.0</ele><time>2026-04-10T10:20:03.663Z</time></trkpt><trkpt lat="42.270059" lon="13.5376442"><ele>583.5</ele><time>2026-04-10T10:20:05.667Z</time></trkpt><trkpt lat="42.2700969" lon="13.5377376"><ele>584.0</ele><time>2026-04-10T10:20:07.666Z</time></trkpt><trkpt lat="42.2701364" lon="13.5378308"><ele>583.5</ele><time>2026-04-10T10:20:09.669Z</time></trkpt><trkpt lat="42.270169" lon="13.5379076"><ele>583.0</ele><time>2026-04-10T10:20:11.687Z</time></trkpt><trkpt lat="42.2702327" lon="13.538001"><ele>582.5</ele><time>2026-04-10T10:20:14.67Z</time></trkpt><trkpt lat="42.2703083" lon="13.5381222"><ele>582.0</ele><time>2026-04-10T10:20:16.67Z</time></trkpt><trkpt lat="42.270354" lon="13.5381922"><ele>581.5</ele><time>2026-04-10T10:20:17.672Z</time></trkpt><trkpt lat="42.2704072" lon="13.5382857"><ele>581.0</ele><time>2026-04-10T10:20:18.671Z</time></trkpt><trkpt lat="42.2704748" lon="13.5383868"><ele>581.0</ele><time>2026-04-10T10:20:19.663Z</time></trkpt><trkpt lat="42.2705481" lon="13.5384723"><ele>581.0</ele><time>2026-04-10T10:20:20.658Z</time></trkpt><trkpt lat="42.2706357" lon="13.5385584"><ele>581.0</ele><time>2026-04-10T10:20:21.686Z</time></trkpt><trkpt lat="42.270722" lon="13.5386731"><ele>581.0</ele><time>2026-04-10T10:20:22.668Z</time></trkpt><trkpt lat="42.2708107" lon="13.53878"><ele>581.0</ele><time>2026-04-10T10:20:23.671Z</time></trkpt><trkpt lat="42.2708943" lon="13.5388681"><ele>579.8</ele><time>2026-04-10T10:20:24.666Z</time></trkpt><trkpt lat="42.2709743" lon="13.5389651"><ele>578.6</ele><time>2026-04-10T10:20:25.67Z</time></trkpt><trkpt lat="42.2710718" lon="13.5390606"><ele>577.4</ele><time>2026-04-10T10:20:26.667Z</time></trkpt><trkpt lat="42.27116" lon="13.5391543"><ele>576.2</ele><time>2026-04-10T10:20:27.669Z</time></trkpt><trkpt lat="42.2712462" lon="13.5392165"><ele>575.0</ele><time>2026-04-10T10:20:28.683Z</time></trkpt><trkpt lat="42.2713503" lon="13.5392644"><ele>573.0</ele><time>2026-04-10T10:20:29.675Z</time></trkpt><trkpt lat="42.2714522" lon="13.5393094"><ele>571.0</ele><time>2026-04-10T10:20:30.675Z</time></trkpt><trkpt lat="42.2715532" lon="13.5393149"><ele>569.0</ele><time>2026-04-10T10:20:31.682Z</time></trkpt><trkpt lat="42.2716795" lon="13.5392666"><ele>567.0</ele><time>2026-04-10T10:20:32.665Z</time></trkpt><trkpt lat="42.2718" lon="13.5392222"><ele>567.0</ele><time>2026-04-10T10:20:33.67Z</time></trkpt><trkpt lat="42.2719034" lon="13.5391356"><ele>567.0</ele><time>2026-04-10T10:20:34.674Z</time></trkpt><trkpt lat="42.2720162" lon="13.539026"><ele>567.0</ele><time>2026-04-10T10:20:35.671Z</time></trkpt><trkpt lat="42.2721352" lon="13.5389057"><ele>567.0</ele><time>2026-04-10T10:20:36.667Z</time></trkpt><trkpt lat="42.2722517" lon="13.5387738"><ele>568.3333333333334</ele><time>2026-04-10T10:20:37.665Z</time></trkpt><trkpt lat="42.2723824" lon="13.5386604"><ele>569.6666666666667</ele><time>2026-04-10T10:20:38.662Z</time></trkpt><trkpt lat="42.2725415" lon="13.53854"><ele>571.0</ele><time>2026-04-10T10:20:39.667Z</time></trkpt><trkpt lat="42.2726443" lon="13.5383969"><ele>571.0</ele><time>2026-04-10T10:20:40.671Z</time></trkpt><trkpt lat="42.272797" lon="13.5383093"><ele>571.0</ele><time>2026-04-10T10:20:41.684Z</time></trkpt><trkpt lat="42.2729179" lon="13.5382144"><ele>571.0</ele><time>2026-04-10T10:20:42.674Z</time></trkpt><trkpt lat="42.2730728" lon="13.5380946"><ele>569.25</ele><time>2026-04-10T10:20:43.673Z</time></trkpt><trkpt lat="42.2732106" lon="13.5379607"><ele>567.5</ele><time>2026-04-10T10:20:44.68Z</time></trkpt><trkpt lat="42.273334" lon="13.5378626"><ele>565.75</ele><time>2026-04-10T10:20:45.677Z</time></trkpt><trkpt lat="42.2734372" lon="13.5377975"><ele>564.0</ele><time>2026-04-10T10:20:46.675Z</time></trkpt><trkpt lat="42.2735234" lon="13.5376869"><ele>564.0</ele><time>2026-04-10T10:20:47.68Z</time></trkpt><trkpt lat="42.2736168" lon="13.5375954"><ele>564.0</ele><time>2026-04-10T10:20:48.677Z</time></trkpt><trkpt lat="42.2737162" lon="13.5375151"><ele>564.0</ele><time>2026-04-10T10:20:49.672Z</time></trkpt><trkpt lat="42.2738733" lon="13.5374884"><ele>564.0</ele><time>2026-04-10T10:20:50.673Z</time></trkpt><trkpt lat="42.2739982" lon="13.5375068"><ele>563.5</ele><time>2026-04-10T10:20:51.684Z</time></trkpt><trkpt lat="42.274122" lon="13.5375387"><ele>563.0</ele><time>2026-04-10T10:20:52.676Z</time></trkpt><trkpt lat="42.2742441" lon="13.5376406"><ele>562.5</ele><time>2026-04-10T10:20:53.674Z</time></trkpt><trkpt lat="42.2743767" lon="13.5377506"><ele>562.0</ele><time>2026-04-10T10:20:54.671Z</time></trkpt><trkpt lat="42.2745115" lon="13.5379383"><ele>562.0</ele><time>2026-04-10T10:20:55.68Z</time></trkpt><trkpt lat="42.2746665" lon="13.5381387"><ele>562.0</ele><time>2026-04-10T10:20:56.678Z</time></trkpt><trkpt lat="42.274822" lon="13.5383162"><ele>562.0</ele><time>2026-04-10T10:20:57.681Z</time></trkpt><trkpt lat="42.2749858" lon="13.5385058"><ele>562.0</ele><time>2026-04-10T10:20:58.678Z</time></trkpt><trkpt lat="42.2751313" lon="13.5387005"><ele>562.0</ele><time>2026-04-10T10:20:59.677Z</time></trkpt><trkpt lat="42.2752602" lon="13.5389073"><ele>562.0</ele><time>2026-04-10T10:21:00.682Z</time></trkpt><trkpt lat="42.2754067" lon="13.5390687"><ele>562.0</ele><time>2026-04-10T10:21:01.687Z</time></trkpt><trkpt lat="42.2755291" lon="13.5391926"><ele>562.0</ele><time>2026-04-10T10:21:02.672Z</time></trkpt><trkpt lat="42.2756563" lon="13.5393303"><ele>562.0</ele><time>2026-04-10T10:21:03.672Z</time></trkpt><trkpt lat="42.2757661" lon="13.5394186"><ele>562.0</ele><time>2026-04-10T10:21:04.67Z</time></trkpt><trkpt lat="42.2758662" lon="13.5395095"><ele>562.2</ele><time>2026-04-10T10:21:05.664Z</time></trkpt><trkpt lat="42.2759159" lon="13.5395722"><ele>562.4000000000001</ele><time>2026-04-10T10:21:06.672Z</time></trkpt><trkpt lat="42.2760049" lon="13.5396714"><ele>562.5999999999999</ele><time>2026-04-10T10:21:07.673Z</time></trkpt><trkpt lat="42.2760917" lon="13.5397417"><ele>562.8</ele><time>2026-04-10T10:21:08.682Z</time></trkpt><trkpt lat="42.2761816" lon="13.5398241"><ele>563.0</ele><time>2026-04-10T10:21:09.681Z</time></trkpt><trkpt lat="42.276249" lon="13.5398864"><ele>563.0</ele><time>2026-04-10T10:21:10.681Z</time></trkpt><trkpt lat="42.2763326" lon="13.5399493"><ele>563.0</ele><time>2026-04-10T10:21:11.695Z</time></trkpt><trkpt lat="42.2764333" lon="13.5400125"><ele>563.0</ele><time>2026-04-10T10:21:12.681Z</time></trkpt><trkpt lat="42.2765441" lon="13.540074"><ele>563.0</ele><time>2026-04-10T10:21:13.696Z</time></trkpt><trkpt lat="42.276653" lon="13.5401389"><ele>563.0</ele><time>2026-04-10T10:21:14.691Z</time></trkpt><trkpt lat="42.2767577" lon="13.5402091"><ele>563.5</ele><time>2026-04-10T10:21:15.688Z</time></trkpt><trkpt lat="42.2768656" lon="13.5402895"><ele>564.0</ele><time>2026-04-10T10:21:16.691Z</time></trkpt><trkpt lat="42.2769835" lon="13.5403709"><ele>564.5</ele><time>2026-04-10T10:21:17.683Z</time></trkpt><trkpt lat="42.2770997" lon="13.5404387"><ele>565.0</ele><time>2026-04-10T10:21:18.678Z</time></trkpt><trkpt lat="42.2772418" lon="13.5404951"><ele>566.0</ele><time>2026-04-10T10:21:19.68Z</time></trkpt><trkpt lat="42.2774063" lon="13.5404983"><ele>567.0</ele><time>2026-04-10T10:21:20.671Z</time></trkpt><trkpt lat="42.2775515" lon="13.5404681"><ele>568.0</ele><time>2026-04-10T10:21:21.692Z</time></trkpt><trkpt lat="42.2777283" lon="13.5404284"><ele>568.0</ele><time>2026-04-10T10:21:22.69Z</time></trkpt><trkpt lat="42.2778908" lon="13.5403827"><ele>568.0</ele><time>2026-04-10T10:21:23.694Z</time></trkpt><trkpt lat="42.2780005" lon="13.5403932"><ele>568.0</ele><time>2026-04-10T10:21:24.691Z</time></trkpt><trkpt lat="42.2783228" lon="13.5404071"><ele>568.6666666666667</ele><time>2026-04-10T10:21:26.681Z</time></trkpt><trkpt lat="42.2784777" lon="13.5404416"><ele>569.3333333333334</ele><time>2026-04-10T10:21:27.677Z</time></trkpt><trkpt lat="42.2786598" lon="13.5405203"><ele>570.0</ele><time>2026-04-10T10:21:28.678Z</time></trkpt><trkpt lat="42.2787974" lon="13.5406355"><ele>570.0</ele><time>2026-04-10T10:21:29.683Z</time></trkpt><trkpt lat="42.2789071" lon="13.5407817"><ele>570.0</ele><time>2026-04-10T10:21:30.68Z</time></trkpt><trkpt lat="42.2790543" lon="13.5409325"><ele>570.0</ele><time>2026-04-10T10:21:31.692Z</time></trkpt><trkpt lat="42.2791819" lon="13.5410846"><ele>573.3333333333334</ele><time>2026-04-10T10:21:32.668Z</time></trkpt><trkpt lat="42.2793198" lon="13.5412918"><ele>576.6666666666667</ele><time>2026-04-10T10:21:33.671Z</time></trkpt><trkpt lat="42.2794412" lon="13.5415018"><ele>580.0</ele><time>2026-04-10T10:21:34.659Z</time></trkpt><trkpt lat="42.2795584" lon="13.5417167"><ele>580.0</ele><time>2026-04-10T10:21:35.656Z</time></trkpt><trkpt lat="42.2796701" lon="13.5419672"><ele>580.0</ele><time>2026-04-10T10:21:36.665Z</time></trkpt><trkpt lat="42.2797896" lon="13.5421936"><ele>580.0</ele><time>2026-04-10T10:21:37.664Z</time></trkpt><trkpt lat="42.279905" lon="13.5424387"><ele>580.0</ele><time>2026-04-10T10:21:38.672Z</time></trkpt><trkpt lat="42.2800233" lon="13.5426848"><ele>580.0</ele><time>2026-04-10T10:21:39.676Z</time></trkpt><trkpt lat="42.2801546" lon="13.5429479"><ele>582.3333333333334</ele><time>2026-04-10T10:21:40.675Z</time></trkpt><trkpt lat="42.2802761" lon="13.5431887"><ele>584.6666666666666</ele><time>2026-04-10T10:21:41.686Z</time></trkpt><trkpt lat="42.2804028" lon="13.543448"><ele>587.0</ele><time>2026-04-10T10:21:42.675Z</time></trkpt><trkpt lat="42.2805293" lon="13.5436723"><ele>585.6666666666666</ele><time>2026-04-10T10:21:43.674Z</time></trkpt><trkpt lat="42.2806574" lon="13.5439216"><ele>584.3333333333334</ele><time>2026-04-10T10:21:44.676Z</time></trkpt><trkpt lat="42.2807374" lon="13.5441801"><ele>583.0</ele><time>2026-04-10T10:21:45.671Z</time></trkpt><trkpt lat="42.2808434" lon="13.5444398"><ele>583.0</ele><time>2026-04-10T10:21:46.683Z</time></trkpt><trkpt lat="42.280989" lon="13.5446712"><ele>583.0</ele><time>2026-04-10T10:21:47.689Z</time></trkpt><trkpt lat="42.2811351" lon="13.5448927"><ele>583.0</ele><time>2026-04-10T10:21:48.759Z</time></trkpt><trkpt lat="42.2812908" lon="13.5451026"><ele>583.0</ele><time>2026-04-10T10:21:49.773Z</time></trkpt><trkpt lat="42.2814493" lon="13.5453065"><ele>583.0</ele><time>2026-04-10T10:21:50.773Z</time></trkpt><trkpt lat="42.2816068" lon="13.5455022"><ele>583.0</ele><time>2026-04-10T10:21:51.783Z</time></trkpt><trkpt lat="42.2817624" lon="13.5456975"><ele>583.0</ele><time>2026-04-10T10:21:52.772Z</time></trkpt><trkpt lat="42.2819169" lon="13.5458925"><ele>583.0</ele><time>2026-04-10T10:21:53.778Z</time></trkpt><trkpt lat="42.2820697" lon="13.5460896"><ele>583.0</ele><time>2026-04-10T10:21:54.784Z</time></trkpt><trkpt lat="42.2822205" lon="13.5462823"><ele>583.3333333333334</ele><time>2026-04-10T10:21:55.774Z</time></trkpt><trkpt lat="42.2823732" lon="13.5464773"><ele>583.6666666666666</ele><time>2026-04-10T10:21:56.773Z</time></trkpt><trkpt lat="42.2825338" lon="13.5466603"><ele>584.0</ele><time>2026-04-10T10:21:57.766Z</time></trkpt><trkpt lat="42.2826655" lon="13.5468962"><ele>585.0</ele><time>2026-04-10T10:21:58.764Z</time></trkpt><trkpt lat="42.2827944" lon="13.547146"><ele>586.0</ele><time>2026-04-10T10:21:59.767Z</time></trkpt><trkpt lat="42.2829054" lon="13.5474068"><ele>587.0</ele><time>2026-04-10T10:22:00.754Z</time></trkpt><trkpt lat="42.2830192" lon="13.5476724"><ele>588.5</ele><time>2026-04-10T10:22:01.764Z</time></trkpt><trkpt lat="42.2831312" lon="13.5479464"><ele>590.0</ele><time>2026-04-10T10:22:02.758Z</time></trkpt><trkpt lat="42.2832417" lon="13.548224"><ele>590.0</ele><time>2026-04-10T10:22:03.754Z</time></trkpt><trkpt lat="42.2833508" lon="13.548497"><ele>590.0</ele><time>2026-04-10T10:22:04.773Z</time></trkpt><trkpt lat="42.283459" lon="13.5487676"><ele>589.6666666666666</ele><time>2026-04-10T10:22:05.772Z</time></trkpt><trkpt lat="42.2835642" lon="13.5490269"><ele>589.3333333333334</ele><time>2026-04-10T10:22:06.77Z</time></trkpt><trkpt lat="42.2836739" lon="13.5492772"><ele>589.0</ele><time>2026-04-10T10:22:07.769Z</time></trkpt><trkpt lat="42.2838012" lon="13.5495058"><ele>591.6666666666667</ele><time>2026-04-10T10:22:08.761Z</time></trkpt><trkpt lat="42.2839599" lon="13.5496976"><ele>594.3333333333334</ele><time>2026-04-10T10:22:09.758Z</time></trkpt><trkpt lat="42.2841473" lon="13.5498668"><ele>597.0</ele><time>2026-04-10T10:22:10.737Z</time></trkpt><trkpt lat="42.2842957" lon="13.5501079"><ele>597.0</ele><time>2026-04-10T10:22:11.643Z</time></trkpt><trkpt lat="42.2845312" lon="13.5502694"><ele>597.0</ele><time>2026-04-10T10:22:12.649Z</time></trkpt><trkpt lat="42.2847776" lon="13.5504024"><ele>598.0</ele><time>2026-04-10T10:22:13.64Z</time></trkpt><trkpt lat="42.2849918" lon="13.5505722"><ele>599.0</ele><time>2026-04-10T10:22:14.659Z</time></trkpt><trkpt lat="42.2851984" lon="13.550719"><ele>599.0</ele><time>2026-04-10T10:22:15.668Z</time></trkpt><trkpt lat="42.2853464" lon="13.5508864"><ele>599.0</ele><time>2026-04-10T10:22:16.666Z</time></trkpt><trkpt lat="42.2854962" lon="13.5510866"><ele>599.0</ele><time>2026-04-10T10:22:17.661Z</time></trkpt><trkpt lat="42.2855878" lon="13.5513176"><ele>601.3333333333333</ele><time>2026-04-10T10:22:18.658Z</time></trkpt><trkpt lat="42.2856732" lon="13.5515553"><ele>603.6666666666666</ele><time>2026-04-10T10:22:19.664Z</time></trkpt><trkpt lat="42.2857914" lon="13.5518389"><ele>606.0</ele><time>2026-04-10T10:22:20.651Z</time></trkpt><trkpt lat="42.2858198" lon="13.5521643"><ele>606.0</ele><time>2026-04-10T10:22:21.666Z</time></trkpt><trkpt lat="42.2858818" lon="13.5524432"><ele>606.0</ele><time>2026-04-10T10:22:22.673Z</time></trkpt><trkpt lat="42.2859482" lon="13.552696"><ele>606.0</ele><time>2026-04-10T10:22:23.664Z</time></trkpt><trkpt lat="42.2860755" lon="13.5529097"><ele>606.0</ele><time>2026-04-10T10:22:24.657Z</time></trkpt><trkpt lat="42.2862377" lon="13.5530703"><ele>606.0</ele><time>2026-04-10T10:22:25.667Z</time></trkpt><trkpt lat="42.2864267" lon="13.5532414"><ele>606.0</ele><time>2026-04-10T10:22:26.664Z</time></trkpt><trkpt lat="42.2865924" lon="13.553383"><ele>608.0</ele><time>2026-04-10T10:22:27.662Z</time></trkpt><trkpt lat="42.2867443" lon="13.5535414"><ele>610.0</ele><time>2026-04-10T10:22:28.656Z</time></trkpt><trkpt lat="42.2868663" lon="13.5536619"><ele>612.0</ele><time>2026-04-10T10:22:29.65Z</time></trkpt><trkpt lat="42.2869507" lon="13.5537389"><ele>614.0</ele><time>2026-04-10T10:22:30.649Z</time></trkpt><trkpt lat="42.2870095" lon="13.5537909"><ele>614.0</ele><time>2026-04-10T10:22:31.648Z</time></trkpt><trkpt lat="42.2871109" lon="13.5538099"><ele>614.0</ele><time>2026-04-10T10:22:33.646Z</time></trkpt><trkpt lat="42.2871996" lon="13.5536544"><ele>614.0</ele><time>2026-04-10T10:22:35.644Z</time></trkpt><trkpt lat="42.2872914" lon="13.5535407"><ele>614.0</ele><time>2026-04-10T10:22:36.65Z</time></trkpt><trkpt lat="42.2873812" lon="13.5534176"><ele>614.5</ele><time>2026-04-10T10:22:37.647Z</time></trkpt><trkpt lat="42.2874765" lon="13.5532719"><ele>615.0</ele><time>2026-04-10T10:22:38.647Z</time></trkpt><trkpt lat="42.2875752" lon="13.5531331"><ele>615.5</ele><time>2026-04-10T10:22:39.645Z</time></trkpt><trkpt lat="42.2876753" lon="13.5529931"><ele>616.0</ele><time>2026-04-10T10:22:40.648Z</time></trkpt><trkpt lat="42.2877694" lon="13.5528652"><ele>616.0</ele><time>2026-04-10T10:22:41.645Z</time></trkpt><trkpt lat="42.2878583" lon="13.5527523"><ele>616.0</ele><time>2026-04-10T10:22:42.65Z</time></trkpt><trkpt lat="42.2879452" lon="13.5526363"><ele>616.0</ele><time>2026-04-10T10:22:43.648Z</time></trkpt><trkpt lat="42.2880267" lon="13.5524957"><ele>616.0</ele><time>2026-04-10T10:22:44.646Z</time></trkpt><trkpt lat="42.2881204" lon="13.5523636"><ele>616.3333333333334</ele><time>2026-04-10T10:22:45.655Z</time></trkpt><trkpt lat="42.288216" lon="13.5522197"><ele>616.6666666666666</ele><time>2026-04-10T10:22:46.649Z</time></trkpt><trkpt lat="42.2883168" lon="13.5520735"><ele>617.0</ele><time>2026-04-10T10:22:47.65Z</time></trkpt><trkpt lat="42.2884306" lon="13.5519194"><ele>616.25</ele><time>2026-04-10T10:22:48.649Z</time></trkpt><trkpt lat="42.2885262" lon="13.5517997"><ele>615.5</ele><time>2026-04-10T10:22:49.649Z</time></trkpt><trkpt lat="42.2886114" lon="13.5516697"><ele>614.75</ele><time>2026-04-10T10:22:50.652Z</time></trkpt><trkpt lat="42.2886992" lon="13.5515357"><ele>614.0</ele><time>2026-04-10T10:22:51.652Z</time></trkpt><trkpt lat="42.2887759" lon="13.5514003"><ele>614.0</ele><time>2026-04-10T10:22:52.66Z</time></trkpt><trkpt lat="42.2888439" lon="13.5512685"><ele>614.0</ele><time>2026-04-10T10:22:53.655Z</time></trkpt><trkpt lat="42.288913" lon="13.551112"><ele>614.0</ele><time>2026-04-10T10:22:54.66Z</time></trkpt><trkpt lat="42.2889801" lon="13.5509592"><ele>614.0</ele><time>2026-04-10T10:22:55.663Z</time></trkpt><trkpt lat="42.2890409" lon="13.5508141"><ele>613.3333333333333</ele><time>2026-04-10T10:22:56.665Z</time></trkpt><trkpt lat="42.2890905" lon="13.550693"><ele>612.6666666666666</ele><time>2026-04-10T10:22:57.665Z</time></trkpt><trkpt lat="42.289138" lon="13.5505807"><ele>612.0</ele><time>2026-04-10T10:22:58.665Z</time></trkpt><trkpt lat="42.2891871" lon="13.5504844"><ele>611.3333333333334</ele><time>2026-04-10T10:22:59.667Z</time></trkpt><trkpt lat="42.2892256" lon="13.5503896"><ele>610.6666666666667</ele><time>2026-04-10T10:23:00.668Z</time></trkpt><trkpt lat="42.2892478" lon="13.550298"><ele>610.0</ele><time>2026-04-10T10:23:01.664Z</time></trkpt><trkpt lat="42.2892296" lon="13.5501404"><ele>609.3333333333334</ele><time>2026-04-10T10:23:03.645Z</time></trkpt><trkpt lat="42.2891266" lon="13.5500532"><ele>608.6666666666667</ele><time>2026-04-10T10:23:05.64Z</time></trkpt><trkpt lat="42.2890395" lon="13.550041"><ele>608.0</ele><time>2026-04-10T10:23:07.664Z</time></trkpt><trkpt lat="42.2889855" lon="13.5499699"><ele>607.3333333333334</ele><time>2026-04-10T10:23:11.682Z</time></trkpt><trkpt lat="42.2890537" lon="13.5499684"><ele>606.6666666666666</ele><time>2026-04-10T11:09:19.696Z</time></trkpt><trkpt lat="42.2889812" lon="13.5500433"><ele>606.0</ele><time>2026-04-10T11:09:29.691Z</time></trkpt><trkpt lat="42.2890067" lon="13.5501469"><ele>606.0</ele><time>2026-04-10T11:09:33.699Z</time></trkpt><trkpt lat="42.2890853" lon="13.5501872"><ele>606.0</ele><time>2026-04-10T11:09:59.681Z</time></trkpt><trkpt lat="42.2891719" lon="13.55028"><ele>606.0</ele><time>2026-04-10T11:10:01.676Z</time></trkpt><trkpt lat="42.2892075" lon="13.5503563"><ele>606.0</ele><time>2026-04-10T11:10:02.685Z</time></trkpt><trkpt lat="42.2891846" lon="13.5505335"><ele>606.0</ele><time>2026-04-10T11:10:04.679Z</time></trkpt><trkpt lat="42.2891336" lon="13.5506251"><ele>606.6666666666666</ele><time>2026-04-10T11:10:05.685Z</time></trkpt><trkpt lat="42.2890889" lon="13.5507045"><ele>607.3333333333334</ele><time>2026-04-10T11:10:06.682Z</time></trkpt><trkpt lat="42.2890391" lon="13.5508005"><ele>608.0</ele><time>2026-04-10T11:10:07.682Z</time></trkpt><trkpt lat="42.2890009" lon="13.5508839"><ele>608.6666666666667</ele><time>2026-04-10T11:10:08.679Z</time></trkpt><trkpt lat="42.2889671" lon="13.5509775"><ele>609.3333333333334</ele><time>2026-04-10T11:10:09.685Z</time></trkpt><trkpt lat="42.288933" lon="13.5510779"><ele>610.0</ele><time>2026-04-10T11:10:10.682Z</time></trkpt><trkpt lat="42.2888951" lon="13.5511763"><ele>610.6666666666667</ele><time>2026-04-10T11:10:11.682Z</time></trkpt><trkpt lat="42.2888518" lon="13.5512696"><ele>611.3333333333334</ele><time>2026-04-10T11:10:12.68Z</time></trkpt><trkpt lat="42.2888067" lon="13.5513567"><ele>612.0</ele><time>2026-04-10T11:10:13.683Z</time></trkpt><trkpt lat="42.2887529" lon="13.5514601"><ele>612.6666666666666</ele><time>2026-04-10T11:10:14.684Z</time></trkpt><trkpt lat="42.2886966" lon="13.551558"><ele>613.3333333333333</ele><time>2026-04-10T11:10:15.686Z</time></trkpt><trkpt lat="42.2886325" lon="13.5516416"><ele>614.0</ele><time>2026-04-10T11:10:16.678Z</time></trkpt><trkpt lat="42.2885764" lon="13.5517258"><ele>614.0</ele><time>2026-04-10T11:10:17.684Z</time></trkpt><trkpt lat="42.2885304" lon="13.5518256"><ele>614.0</ele><time>2026-04-10T11:10:18.678Z</time></trkpt><trkpt lat="42.2885081" lon="13.5519203"><ele>614.0</ele><time>2026-04-10T11:10:19.682Z</time></trkpt><trkpt lat="42.2884826" lon="13.5521217"><ele>614.0</ele><time>2026-04-10T11:10:21.67Z</time></trkpt><trkpt lat="42.2884736" lon="13.5522245"><ele>614.0</ele><time>2026-04-10T11:10:22.662Z</time></trkpt><trkpt lat="42.2884745" lon="13.5523348"><ele>614.4285714285713</ele><time>2026-04-10T11:10:23.659Z</time></trkpt><trkpt lat="42.2884777" lon="13.5524329"><ele>614.8571428571429</ele><time>2026-04-10T11:10:24.66Z</time></trkpt><trkpt lat="42.2884923" lon="13.5525253"><ele>615.2857142857142</ele><time>2026-04-10T11:10:25.649Z</time></trkpt><trkpt lat="42.2885164" lon="13.5526092"><ele>615.7142857142857</ele><time>2026-04-10T11:10:26.645Z</time></trkpt><trkpt lat="42.2885478" lon="13.5526944"><ele>616.1428571428571</ele><time>2026-04-10T11:10:27.637Z</time></trkpt><trkpt lat="42.2885871" lon="13.5527778"><ele>616.5714285714286</ele><time>2026-04-10T11:10:28.638Z</time></trkpt><trkpt lat="42.2886435" lon="13.5528555"><ele>617.0</ele><time>2026-04-10T11:10:29.638Z</time></trkpt><trkpt lat="42.2886864" lon="13.552922"><ele>617.5</ele><time>2026-04-10T11:10:30.636Z</time></trkpt><trkpt lat="42.2887401" lon="13.552979"><ele>618.0</ele><time>2026-04-10T11:10:32.639Z</time></trkpt><trkpt lat="42.288762" lon="13.5528882"><ele>618.5</ele><time>2026-04-10T11:10:40.671Z</time></trkpt><trkpt lat="42.288826" lon="13.5530148"><ele>619.0</ele><time>2026-04-10T11:10:49.661Z</time></trkpt><trkpt lat="42.2888828" lon="13.5531087"><ele>619.5</ele><time>2026-04-10T11:10:50.661Z</time></trkpt><trkpt lat="42.2889356" lon="13.5531955"><ele>620.0</ele><time>2026-04-10T11:10:51.667Z</time></trkpt><trkpt lat="42.2889957" lon="13.5532795"><ele>620.0</ele><time>2026-04-10T11:10:52.67Z</time></trkpt><trkpt lat="42.2890426" lon="13.5533711"><ele>620.0</ele><time>2026-04-10T11:10:53.674Z</time></trkpt><trkpt lat="42.2890982" lon="13.5534703"><ele>620.0</ele><time>2026-04-10T11:10:54.668Z</time></trkpt><trkpt lat="42.2891575" lon="13.5535852"><ele>620.0</ele><time>2026-04-10T11:10:55.67Z</time></trkpt><trkpt lat="42.2892115" lon="13.5537082"><ele>620.0</ele><time>2026-04-10T11:10:56.675Z</time></trkpt><trkpt lat="42.2892596" lon="13.5538394"><ele>621.0</ele><time>2026-04-10T11:10:57.675Z</time></trkpt><trkpt lat="42.2892904" lon="13.5539651"><ele>622.0</ele><time>2026-04-10T11:10:58.674Z</time></trkpt><trkpt lat="42.2893172" lon="13.5541"><ele>623.0</ele><time>2026-04-10T11:10:59.673Z</time></trkpt><trkpt lat="42.2893309" lon="13.554244"><ele>624.0</ele><time>2026-04-10T11:11:00.671Z</time></trkpt><trkpt lat="42.2893212" lon="13.5543896"><ele>625.0</ele><time>2026-04-10T11:11:01.676Z</time></trkpt><trkpt lat="42.2893195" lon="13.5545375"><ele>626.2</ele><time>2026-04-10T11:11:02.666Z</time></trkpt><trkpt lat="42.2893242" lon="13.5546868"><ele>627.4</ele><time>2026-04-10T11:11:03.668Z</time></trkpt><trkpt lat="42.2893273" lon="13.5548383"><ele>628.6</ele><time>2026-04-10T11:11:04.664Z</time></trkpt><trkpt lat="42.2893407" lon="13.5549848"><ele>629.8</ele><time>2026-04-10T11:11:05.658Z</time></trkpt><trkpt lat="42.2893412" lon="13.5551298"><ele>631.0</ele><time>2026-04-10T11:11:06.675Z</time></trkpt><trkpt lat="42.2893405" lon="13.5552811"><ele>633.3333333333334</ele><time>2026-04-10T11:11:07.673Z</time></trkpt><trkpt lat="42.2893529" lon="13.5554564"><ele>635.6666666666666</ele><time>2026-04-10T11:11:08.667Z</time></trkpt><trkpt lat="42.2893608" lon="13.5556542"><ele>638.0</ele><time>2026-04-10T11:11:09.666Z</time></trkpt><trkpt lat="42.2893614" lon="13.5559012"><ele>638.0</ele><time>2026-04-10T11:11:10.669Z</time></trkpt><trkpt lat="42.2893442" lon="13.5561554"><ele>638.0</ele><time>2026-04-10T11:11:11.668Z</time></trkpt><trkpt lat="42.2893496" lon="13.5563476"><ele>638.0</ele><time>2026-04-10T11:11:12.666Z</time></trkpt><trkpt lat="42.2893493" lon="13.5565175"><ele>639.25</ele><time>2026-04-10T11:11:13.659Z</time></trkpt><trkpt lat="42.2893215" lon="13.5566622"><ele>640.5</ele><time>2026-04-10T11:11:14.66Z</time></trkpt><trkpt lat="42.2892405" lon="13.5567847"><ele>641.75</ele><time>2026-04-10T11:11:15.654Z</time></trkpt><trkpt lat="42.2891249" lon="13.5568714"><ele>643.0</ele><time>2026-04-10T11:11:16.65Z</time></trkpt><trkpt lat="42.289034" lon="13.5569446"><ele>643.0</ele><time>2026-04-10T11:11:17.649Z</time></trkpt><trkpt lat="42.2888528" lon="13.5568682"><ele>643.0</ele><time>2026-04-10T11:11:18.651Z</time></trkpt><trkpt lat="42.288711" lon="13.5568248"><ele>643.0</ele><time>2026-04-10T11:11:19.664Z</time></trkpt><trkpt lat="42.2885887" lon="13.5567641"><ele>643.0</ele><time>2026-04-10T11:11:20.64Z</time></trkpt><trkpt lat="42.2884884" lon="13.5567524"><ele>643.0</ele><time>2026-04-10T11:11:21.634Z</time></trkpt><trkpt lat="42.2884044" lon="13.5567576"><ele>643.0</ele><time>2026-04-10T11:11:22.641Z</time></trkpt><trkpt lat="42.2883396" lon="13.5567635"><ele>643.0</ele><time>2026-04-10T11:11:23.627Z</time></trkpt><trkpt lat="42.2883871" lon="13.5568892"><ele>643.0</ele><time>2026-04-10T11:11:27.626Z</time></trkpt><trkpt lat="42.2884595" lon="13.5569529"><ele>643.0</ele><time>2026-04-10T11:11:28.632Z</time></trkpt><trkpt lat="42.2885235" lon="13.5570682"><ele>644.75</ele><time>2026-04-10T11:11:29.63Z</time></trkpt><trkpt lat="42.2886121" lon="13.5571759"><ele>646.5</ele><time>2026-04-10T11:11:30.632Z</time></trkpt><trkpt lat="42.2887209" lon="13.5573172"><ele>648.25</ele><time>2026-04-10T11:11:31.641Z</time></trkpt><trkpt lat="42.2888061" lon="13.5574387"><ele>650.0</ele><time>2026-04-10T11:11:32.64Z</time></trkpt><trkpt lat="42.2888777" lon="13.5575443"><ele>650.3333333333333</ele><time>2026-04-10T11:11:33.64Z</time></trkpt><trkpt lat="42.2889489" lon="13.5576379"><ele>650.6666666666666</ele><time>2026-04-10T11:11:34.638Z</time></trkpt><trkpt lat="42.2890025" lon="13.557704"><ele>651.0</ele><time>2026-04-10T11:11:35.637Z</time></trkpt><trkpt lat="42.2890814" lon="13.5577862"><ele>651.3333333333334</ele><time>2026-04-10T11:11:37.643Z</time></trkpt><trkpt lat="42.2891581" lon="13.557773"><ele>651.6666666666667</ele><time>2026-04-10T11:11:39.629Z</time></trkpt><trkpt lat="42.2892363" lon="13.5577496"><ele>652.0</ele><time>2026-04-10T11:11:40.637Z</time></trkpt><trkpt lat="42.2893136" lon="13.5576734"><ele>652.0</ele><time>2026-04-10T11:11:41.633Z</time></trkpt><trkpt lat="42.2893804" lon="13.5576063"><ele>652.0</ele><time>2026-04-10T11:11:42.631Z</time></trkpt><trkpt lat="42.2894692" lon="13.5575439"><ele>652.0</ele><time>2026-04-10T11:11:43.627Z</time></trkpt><trkpt lat="42.2895584" lon="13.5574831"><ele>652.0</ele><time>2026-04-10T11:11:44.632Z</time></trkpt><trkpt lat="42.2896569" lon="13.5574568"><ele>652.0</ele><time>2026-04-10T11:11:45.644Z</time></trkpt><trkpt lat="42.289761" lon="13.5574959"><ele>653.8</ele><time>2026-04-10T11:11:46.64Z</time></trkpt><trkpt lat="42.2898577" lon="13.5575675"><ele>655.6</ele><time>2026-04-10T11:11:47.644Z</time></trkpt><trkpt lat="42.2899346" lon="13.5576995"><ele>657.4</ele><time>2026-04-10T11:11:48.627Z</time></trkpt><trkpt lat="42.2899924" lon="13.5578169"><ele>659.1999999999999</ele><time>2026-04-10T11:11:49.627Z</time></trkpt><trkpt lat="42.2900367" lon="13.5579012"><ele>661.0</ele><time>2026-04-10T11:11:50.62Z</time></trkpt><trkpt lat="42.2900809" lon="13.5579619"><ele>662.1999999999999</ele><time>2026-04-10T11:11:51.622Z</time></trkpt><trkpt lat="42.2901229" lon="13.5581181"><ele>663.4</ele><time>2026-04-10T11:11:53.621Z</time></trkpt><trkpt lat="42.2900609" lon="13.5582294"><ele>664.6</ele><time>2026-04-10T11:11:54.621Z</time></trkpt><trkpt lat="42.2900031" lon="13.558324"><ele>665.8</ele><time>2026-04-10T11:11:55.631Z</time></trkpt><trkpt lat="42.2898997" lon="13.5584118"><ele>667.0</ele><time>2026-04-10T11:11:56.644Z</time></trkpt><trkpt lat="42.2898631" lon="13.5584843"><ele>667.0</ele><time>2026-04-10T11:11:58.642Z</time></trkpt><trkpt lat="42.2899231" lon="13.5584156"><ele>667.0</ele><time>2026-04-10T11:12:00.651Z</time></trkpt><trkpt lat="42.2899821" lon="13.5583305"><ele>667.0</ele><time>2026-04-10T11:12:01.656Z</time></trkpt><trkpt lat="42.2900633" lon="13.5582678"><ele>667.0</ele><time>2026-04-10T11:12:02.651Z</time></trkpt><trkpt lat="42.2901388" lon="13.5582332"><ele>667.0</ele><time>2026-04-10T11:12:03.653Z</time></trkpt><trkpt lat="42.2902142" lon="13.5582117"><ele>667.0</ele><time>2026-04-10T11:12:04.649Z</time></trkpt><trkpt lat="42.2903016" lon="13.5582128"><ele>667.0</ele><time>2026-04-10T11:12:05.646Z</time></trkpt><trkpt lat="42.2903943" lon="13.5582021"><ele>667.0</ele><time>2026-04-10T11:12:06.653Z</time></trkpt><trkpt lat="42.2904912" lon="13.5581869"><ele>667.0</ele><time>2026-04-10T11:12:07.657Z</time></trkpt><trkpt lat="42.290597" lon="13.5581716"><ele>667.0</ele><time>2026-04-10T11:12:08.655Z</time></trkpt><trkpt lat="42.2907123" lon="13.5581621"><ele>667.0</ele><time>2026-04-10T11:12:09.655Z</time></trkpt><trkpt lat="42.290809" lon="13.5581482"><ele>667.8333333333334</ele><time>2026-04-10T11:12:10.657Z</time></trkpt><trkpt lat="42.2908982" lon="13.5581196"><ele>668.6666666666667</ele><time>2026-04-10T11:12:11.644Z</time></trkpt><trkpt lat="42.2909675" lon="13.5580883"><ele>669.5</ele><time>2026-04-10T11:12:12.648Z</time></trkpt><trkpt lat="42.2910146" lon="13.5580215"><ele>670.3333333333334</ele><time>2026-04-10T11:12:13.642Z</time></trkpt><trkpt lat="42.2909767" lon="13.5578683"><ele>671.1666666666666</ele><time>2026-04-10T11:12:15.644Z</time></trkpt><trkpt lat="42.2909256" lon="13.5577779"><ele>672.0</ele><time>2026-04-10T11:12:16.641Z</time></trkpt><trkpt lat="42.2908734" lon="13.5576587"><ele>672.0</ele><time>2026-04-10T11:12:17.656Z</time></trkpt><trkpt lat="42.2908181" lon="13.557544"><ele>672.0</ele><time>2026-04-10T11:12:18.651Z</time></trkpt><trkpt lat="42.2907626" lon="13.5574243"><ele>672.0</ele><time>2026-04-10T11:12:19.645Z</time></trkpt><trkpt lat="42.2907106" lon="13.5572995"><ele>672.0</ele><time>2026-04-10T11:12:20.658Z</time></trkpt><trkpt lat="42.2906782" lon="13.557189"><ele>672.0</ele><time>2026-04-10T11:12:21.657Z</time></trkpt><trkpt lat="42.2906559" lon="13.5570693"><ele>671.2</ele><time>2026-04-10T11:12:22.649Z</time></trkpt><trkpt lat="42.2906433" lon="13.5569297"><ele>670.4000000000001</ele><time>2026-04-10T11:12:23.657Z</time></trkpt><trkpt lat="42.290637" lon="13.5567773"><ele>669.5999999999999</ele><time>2026-04-10T11:12:24.66Z</time></trkpt><trkpt lat="42.2906361" lon="13.5566364"><ele>668.8</ele><time>2026-04-10T11:12:25.66Z</time></trkpt><trkpt lat="42.2906247" lon="13.5565036"><ele>668.0</ele><time>2026-04-10T11:12:26.663Z</time></trkpt><trkpt lat="42.2906346" lon="13.5563714"><ele>668.0</ele><time>2026-04-10T11:12:27.66Z</time></trkpt><trkpt lat="42.2906662" lon="13.5562318"><ele>668.0</ele><time>2026-04-10T11:12:28.666Z</time></trkpt><trkpt lat="42.2907093" lon="13.5561022"><ele>668.0</ele><time>2026-04-10T11:12:29.668Z</time></trkpt><trkpt lat="42.2907488" lon="13.5559702"><ele>668.0</ele><time>2026-04-10T11:12:30.672Z</time></trkpt><trkpt lat="42.2907882" lon="13.5558553"><ele>668.0</ele><time>2026-04-10T11:12:31.672Z</time></trkpt><trkpt lat="42.2908137" lon="13.5557401"><ele>667.1666666666666</ele><time>2026-04-10T11:12:32.67Z</time></trkpt><trkpt lat="42.2908451" lon="13.5556275"><ele>666.3333333333333</ele><time>2026-04-10T11:12:33.667Z</time></trkpt><trkpt lat="42.2908725" lon="13.5555246"><ele>665.5</ele><time>2026-04-10T11:12:34.658Z</time></trkpt><trkpt lat="42.2909028" lon="13.5554283"><ele>664.6666666666666</ele><time>2026-04-10T11:12:35.667Z</time></trkpt><trkpt lat="42.2909243" lon="13.5553322"><ele>663.8333333333334</ele><time>2026-04-10T11:12:36.663Z</time></trkpt><trkpt lat="42.2909341" lon="13.5552479"><ele>663.0</ele><time>2026-04-10T11:12:37.661Z</time></trkpt><trkpt lat="42.290942" lon="13.555151"><ele>662.0</ele><time>2026-04-10T11:12:38.663Z</time></trkpt><trkpt lat="42.2909351" lon="13.5550595"><ele>661.0</ele><time>2026-04-10T11:12:39.654Z</time></trkpt><trkpt lat="42.2909315" lon="13.5549724"><ele>660.0</ele><time>2026-04-10T11:12:40.644Z</time></trkpt><trkpt lat="42.2909295" lon="13.5548164"><ele>659.0</ele><time>2026-04-10T11:12:42.644Z</time></trkpt><trkpt lat="42.2909504" lon="13.5546659"><ele>658.0</ele><time>2026-04-10T11:12:44.641Z</time></trkpt><trkpt lat="42.2909594" lon="13.5545781"><ele>657.0</ele><time>2026-04-10T11:12:45.645Z</time></trkpt><trkpt lat="42.2909633" lon="13.5544769"><ele>654.8</ele><time>2026-04-10T11:12:46.641Z</time></trkpt><trkpt lat="42.290971" lon="13.554385"><ele>652.6</ele><time>2026-04-10T11:12:47.643Z</time></trkpt><trkpt lat="42.2909925" lon="13.554231"><ele>650.4</ele><time>2026-04-10T11:12:49.642Z</time></trkpt><trkpt lat="42.2910317" lon="13.5540886"><ele>648.1999999999999</ele><time>2026-04-10T11:12:51.64Z</time></trkpt><trkpt lat="42.2911175" lon="13.5539848"><ele>646.0</ele><time>2026-04-10T11:12:53.631Z</time></trkpt><trkpt lat="42.2911785" lon="13.5538715"><ele>646.0</ele><time>2026-04-10T11:12:55.641Z</time></trkpt><trkpt lat="42.2912371" lon="13.5538324"><ele>646.0</ele><time>2026-04-10T11:12:57.658Z</time></trkpt><trkpt lat="42.2913186" lon="13.5538645"><ele>646.0</ele><time>2026-04-10T11:12:59.66Z</time></trkpt><trkpt lat="42.2914171" lon="13.5539577"><ele>646.0</ele><time>2026-04-10T11:13:01.655Z</time></trkpt><trkpt lat="42.2914993" lon="13.554015"><ele>646.0</ele><time>2026-04-10T11:13:02.637Z</time></trkpt><trkpt lat="42.2915729" lon="13.5540855"><ele>646.75</ele><time>2026-04-10T11:13:03.652Z</time></trkpt><trkpt lat="42.29165" lon="13.5541621"><ele>647.5</ele><time>2026-04-10T11:13:04.648Z</time></trkpt><trkpt lat="42.2917552" lon="13.5542545"><ele>648.25</ele><time>2026-04-10T11:13:05.643Z</time></trkpt><trkpt lat="42.2918688" lon="13.5543488"><ele>649.0</ele><time>2026-04-10T11:13:06.655Z</time></trkpt><trkpt lat="42.2919935" lon="13.5544382"><ele>649.0</ele><time>2026-04-10T11:13:07.657Z</time></trkpt><trkpt lat="42.2921052" lon="13.5545341"><ele>649.0</ele><time>2026-04-10T11:13:08.659Z</time></trkpt><trkpt lat="42.2922102" lon="13.5546169"><ele>649.0</ele><time>2026-04-10T11:13:09.656Z</time></trkpt><trkpt lat="42.2923062" lon="13.5546918"><ele>649.0</ele><time>2026-04-10T11:13:10.647Z</time></trkpt><trkpt lat="42.292384" lon="13.5547478"><ele>650.6666666666667</ele><time>2026-04-10T11:13:11.647Z</time></trkpt><trkpt lat="42.2924464" lon="13.5547975"><ele>652.3333333333334</ele><time>2026-04-10T11:13:12.652Z</time></trkpt><trkpt lat="42.2924825" lon="13.5549305"><ele>654.0</ele><time>2026-04-10T11:13:14.656Z</time></trkpt><trkpt lat="42.2924431" lon="13.5550163"><ele>655.6666666666666</ele><time>2026-04-10T11:13:15.644Z</time></trkpt><trkpt lat="42.2923946" lon="13.5550909"><ele>657.3333333333333</ele><time>2026-04-10T11:13:16.64Z</time></trkpt><trkpt lat="42.292346" lon="13.5551537"><ele>659.0</ele><time>2026-04-10T11:13:17.656Z</time></trkpt><trkpt lat="42.2923591" lon="13.5553042"><ele>659.0</ele><time>2026-04-10T11:13:19.646Z</time></trkpt><trkpt lat="42.292415" lon="13.555357"><ele>659.0</ele><time>2026-04-10T11:13:20.646Z</time></trkpt><trkpt lat="42.2925031" lon="13.5554163"><ele>659.0</ele><time>2026-04-10T11:13:21.643Z</time></trkpt><trkpt lat="42.2926177" lon="13.5554589"><ele>659.0</ele><time>2026-04-10T11:13:22.646Z</time></trkpt><trkpt lat="42.2927416" lon="13.5555362"><ele>659.0</ele><time>2026-04-10T11:13:23.642Z</time></trkpt><trkpt lat="42.2928654" lon="13.5556174"><ele>660.75</ele><time>2026-04-10T11:13:24.647Z</time></trkpt><trkpt lat="42.2929838" lon="13.5557095"><ele>662.5</ele><time>2026-04-10T11:13:25.645Z</time></trkpt><trkpt lat="42.2930959" lon="13.5557866"><ele>664.25</ele><time>2026-04-10T11:13:26.647Z</time></trkpt><trkpt lat="42.2932123" lon="13.5558607"><ele>666.0</ele><time>2026-04-10T11:13:27.643Z</time></trkpt><trkpt lat="42.2932877" lon="13.5559069"><ele>666.0</ele><time>2026-04-10T11:13:28.628Z</time></trkpt><trkpt lat="42.293349" lon="13.5558564"><ele>666.0</ele><time>2026-04-10T11:13:32.649Z</time></trkpt><trkpt lat="42.2933738" lon="13.5557293"><ele>666.0</ele><time>2026-04-10T11:13:34.649Z</time></trkpt><trkpt lat="42.2933962" lon="13.5556166"><ele>666.0</ele><time>2026-04-10T11:13:35.643Z</time></trkpt><trkpt lat="42.2934278" lon="13.5554795"><ele>666.0</ele><time>2026-04-10T11:13:36.643Z</time></trkpt><trkpt lat="42.2934687" lon="13.555325"><ele>666.0</ele><time>2026-04-10T11:13:37.648Z</time></trkpt><trkpt lat="42.2935068" lon="13.5551625"><ele>666.0</ele><time>2026-04-10T11:13:38.647Z</time></trkpt><trkpt lat="42.2935322" lon="13.5549966"><ele>666.0</ele><time>2026-04-10T11:13:39.645Z</time></trkpt><trkpt lat="42.293535" lon="13.554809"><ele>666.0</ele><time>2026-04-10T11:13:40.644Z</time></trkpt><trkpt lat="42.2935021" lon="13.5546016"><ele>663.6666666666666</ele><time>2026-04-10T11:13:41.645Z</time></trkpt><trkpt lat="42.293457" lon="13.5543759"><ele>661.3333333333333</ele><time>2026-04-10T11:13:42.649Z</time></trkpt><trkpt lat="42.2933951" lon="13.5541197"><ele>659.0</ele><time>2026-04-10T11:13:43.654Z</time></trkpt><trkpt lat="42.2933656" lon="13.5538975"><ele>657.0</ele><time>2026-04-10T11:13:44.654Z</time></trkpt><trkpt lat="42.2933534" lon="13.5536871"><ele>655.0</ele><time>2026-04-10T11:13:45.66Z</time></trkpt><trkpt lat="42.2933502" lon="13.5534739"><ele>653.0</ele><time>2026-04-10T11:13:46.665Z</time></trkpt><trkpt lat="42.2933822" lon="13.5532648"><ele>653.0</ele><time>2026-04-10T11:13:47.663Z</time></trkpt><trkpt lat="42.2933998" lon="13.5530383"><ele>653.0</ele><time>2026-04-10T11:13:48.667Z</time></trkpt><trkpt lat="42.2934307" lon="13.5528011"><ele>653.0</ele><time>2026-04-10T11:13:49.668Z</time></trkpt><trkpt lat="42.293483" lon="13.5525817"><ele>651.5</ele><time>2026-04-10T11:13:50.661Z</time></trkpt><trkpt lat="42.293537" lon="13.5524153"><ele>650.0</ele><time>2026-04-10T11:13:51.648Z</time></trkpt><trkpt lat="42.2936461" lon="13.5522702"><ele>648.5</ele><time>2026-04-10T11:13:52.657Z</time></trkpt><trkpt lat="42.2937172" lon="13.5521807"><ele>647.0</ele><time>2026-04-10T11:13:53.651Z</time></trkpt><trkpt lat="42.2937784" lon="13.5520646"><ele>647.5</ele><time>2026-04-10T11:13:55.663Z</time></trkpt><trkpt lat="42.2938097" lon="13.551986"><ele>648.0</ele><time>2026-04-10T11:13:56.661Z</time></trkpt><trkpt lat="42.2938008" lon="13.5518766"><ele>648.5</ele><time>2026-04-10T11:13:57.667Z</time></trkpt><trkpt lat="42.2938241" lon="13.5517526"><ele>649.0</ele><time>2026-04-10T11:13:58.663Z</time></trkpt><trkpt lat="42.2938504" lon="13.5516277"><ele>649.5</ele><time>2026-04-10T11:13:59.666Z</time></trkpt><trkpt lat="42.2938998" lon="13.5515346"><ele>650.0</ele><time>2026-04-10T11:14:00.666Z</time></trkpt><trkpt lat="42.2939615" lon="13.5514431"><ele>650.0</ele><time>2026-04-10T11:14:01.672Z</time></trkpt><trkpt lat="42.2940194" lon="13.5513596"><ele>650.0</ele><time>2026-04-10T11:14:02.669Z</time></trkpt><trkpt lat="42.2940759" lon="13.5512841"><ele>650.0</ele><time>2026-04-10T11:14:03.669Z</time></trkpt><trkpt lat="42.2941271" lon="13.5512133"><ele>650.0</ele><time>2026-04-10T11:14:04.666Z</time></trkpt><trkpt lat="42.2941911" lon="13.5511169"><ele>650.0</ele><time>2026-04-10T11:14:06.671Z</time></trkpt><trkpt lat="42.2942842" lon="13.5510767"><ele>650.0</ele><time>2026-04-10T11:14:11.671Z</time></trkpt><trkpt lat="42.2943757" lon="13.550965"><ele>650.0</ele><time>2026-04-10T11:14:13.667Z</time></trkpt><trkpt lat="42.2944646" lon="13.5508814"><ele>650.0</ele><time>2026-04-10T11:14:14.662Z</time></trkpt><trkpt lat="42.2945725" lon="13.5507789"><ele>650.0</ele><time>2026-04-10T11:14:15.663Z</time></trkpt><trkpt lat="42.2946805" lon="13.5506912"><ele>650.0</ele><time>2026-04-10T11:14:16.664Z</time></trkpt><trkpt lat="42.2948041" lon="13.550593"><ele>650.0</ele><time>2026-04-10T11:14:17.674Z</time></trkpt><trkpt lat="42.294913" lon="13.5505218"><ele>650.0</ele><time>2026-04-10T11:14:18.666Z</time></trkpt><trkpt lat="42.2950183" lon="13.5504467"><ele>650.0</ele><time>2026-04-10T11:14:19.665Z</time></trkpt><trkpt lat="42.2951189" lon="13.5503644"><ele>650.0</ele><time>2026-04-10T11:14:20.664Z</time></trkpt><trkpt lat="42.2952097" lon="13.5502789"><ele>648.5</ele><time>2026-04-10T11:14:21.653Z</time></trkpt><trkpt lat="42.2952867" lon="13.5501912"><ele>647.0</ele><time>2026-04-10T11:14:22.655Z</time></trkpt><trkpt lat="42.2953497" lon="13.5500801"><ele>645.5</ele><time>2026-04-10T11:14:23.64Z</time></trkpt><trkpt lat="42.2954015" lon="13.5499285"><ele>644.0</ele><time>2026-04-10T11:14:24.646Z</time></trkpt><trkpt lat="42.2954417" lon="13.5497603"><ele>642.6666666666666</ele><time>2026-04-10T11:14:25.64Z</time></trkpt><trkpt lat="42.2954737" lon="13.5495262"><ele>641.3333333333334</ele><time>2026-04-10T11:14:26.636Z</time></trkpt><trkpt lat="42.2954994" lon="13.5492632"><ele>640.0</ele><time>2026-04-10T11:14:27.636Z</time></trkpt><trkpt lat="42.2955231" lon="13.5489945"><ele>639.3333333333334</ele><time>2026-04-10T11:14:28.648Z</time></trkpt><trkpt lat="42.2955491" lon="13.5487088"><ele>638.6666666666666</ele><time>2026-04-10T11:14:29.654Z</time></trkpt><trkpt lat="42.2955738" lon="13.5484608"><ele>638.0</ele><time>2026-04-10T11:14:30.652Z</time></trkpt><trkpt lat="42.2956179" lon="13.5482528"><ele>638.0</ele><time>2026-04-10T11:14:31.657Z</time></trkpt><trkpt lat="42.2956582" lon="13.5480982"><ele>638.0</ele><time>2026-04-10T11:14:32.653Z</time></trkpt><trkpt lat="42.2957067" lon="13.54794"><ele>638.0</ele><time>2026-04-10T11:14:33.657Z</time></trkpt><trkpt lat="42.2957585" lon="13.5478058"><ele>638.0</ele><time>2026-04-10T11:14:34.651Z</time></trkpt><trkpt lat="42.2957865" lon="13.54766"><ele>637.0</ele><time>2026-04-10T11:14:35.657Z</time></trkpt><trkpt lat="42.2958246" lon="13.5475217"><ele>636.0</ele><time>2026-04-10T11:14:36.658Z</time></trkpt><trkpt lat="42.2958688" lon="13.5474039"><ele>635.0</ele><time>2026-04-10T11:14:37.657Z</time></trkpt><trkpt lat="42.295934" lon="13.5472657"><ele>634.0</ele><time>2026-04-10T11:14:38.65Z</time></trkpt><trkpt lat="42.2960059" lon="13.5471458"><ele>633.0</ele><time>2026-04-10T11:14:39.649Z</time></trkpt><trkpt lat="42.2960633" lon="13.5470284"><ele>631.6</ele><time>2026-04-10T11:14:40.651Z</time></trkpt><trkpt lat="42.2961009" lon="13.5469043"><ele>630.1999999999999</ele><time>2026-04-10T11:14:41.644Z</time></trkpt><trkpt lat="42.2961248" lon="13.5467692"><ele>628.8</ele><time>2026-04-10T11:14:42.654Z</time></trkpt><trkpt lat="42.296147" lon="13.5466305"><ele>627.4</ele><time>2026-04-10T11:14:43.653Z</time></trkpt><trkpt lat="42.2961722" lon="13.5465051"><ele>626.0</ele><time>2026-04-10T11:14:44.652Z</time></trkpt><trkpt lat="42.2962049" lon="13.5463891"><ele>626.0</ele><time>2026-04-10T11:14:45.662Z</time></trkpt><trkpt lat="42.2962434" lon="13.5462663"><ele>626.0</ele><time>2026-04-10T11:14:46.663Z</time></trkpt><trkpt lat="42.2962789" lon="13.546151"><ele>626.0</ele><time>2026-04-10T11:14:47.661Z</time></trkpt><trkpt lat="42.2963102" lon="13.5460474"><ele>626.0</ele><time>2026-04-10T11:14:48.657Z</time></trkpt><trkpt lat="42.296347" lon="13.5459518"><ele>626.0</ele><time>2026-04-10T11:14:49.655Z</time></trkpt><trkpt lat="42.2963894" lon="13.5458643"><ele>626.0</ele><time>2026-04-10T11:14:50.653Z</time></trkpt><trkpt lat="42.2964547" lon="13.5457813"><ele>625.5</ele><time>2026-04-10T11:14:51.647Z</time></trkpt><trkpt lat="42.2965486" lon="13.5457117"><ele>625.0</ele><time>2026-04-10T11:14:52.654Z</time></trkpt><trkpt lat="42.2966644" lon="13.5456578"><ele>624.5</ele><time>2026-04-10T11:14:53.648Z</time></trkpt><trkpt lat="42.2967852" lon="13.5456112"><ele>624.0</ele><time>2026-04-10T11:14:54.65Z</time></trkpt><trkpt lat="42.2969007" lon="13.5455709"><ele>624.0</ele><time>2026-04-10T11:14:55.652Z</time></trkpt><trkpt lat="42.2970129" lon="13.5455234"><ele>624.0</ele><time>2026-04-10T11:14:56.649Z</time></trkpt><trkpt lat="42.2971061" lon="13.5454573"><ele>624.0</ele><time>2026-04-10T11:14:57.646Z</time></trkpt><trkpt lat="42.2971915" lon="13.5453744"><ele>624.0</ele><time>2026-04-10T11:14:58.644Z</time></trkpt><trkpt lat="42.2972515" lon="13.5452629"><ele>624.0</ele><time>2026-04-10T11:14:59.644Z</time></trkpt><trkpt lat="42.2973082" lon="13.5451424"><ele>625.0</ele><time>2026-04-10T11:15:00.64Z</time></trkpt><trkpt lat="42.2973579" lon="13.5450039"><ele>626.0</ele><time>2026-04-10T11:15:01.642Z</time></trkpt><trkpt lat="42.2973887" lon="13.5448554"><ele>627.0</ele><time>2026-04-10T11:15:02.644Z</time></trkpt><trkpt lat="42.297396" lon="13.5447039"><ele>628.0</ele><time>2026-04-10T11:15:03.644Z</time></trkpt><trkpt lat="42.297398" lon="13.5445485"><ele>625.25</ele><time>2026-04-10T11:15:04.646Z</time></trkpt><trkpt lat="42.2974089" lon="13.544389"><ele>622.5</ele><time>2026-04-10T11:15:05.647Z</time></trkpt><trkpt lat="42.2974357" lon="13.5442302"><ele>619.75</ele><time>2026-04-10T11:15:06.651Z</time></trkpt><trkpt lat="42.297478" lon="13.5440705"><ele>617.0</ele><time>2026-04-10T11:15:07.657Z</time></trkpt><trkpt lat="42.2975283" lon="13.543909"><ele>617.0</ele><time>2026-04-10T11:15:08.66Z</time></trkpt><trkpt lat="42.2975778" lon="13.5437555"><ele>617.0</ele><time>2026-04-10T11:15:09.655Z</time></trkpt><trkpt lat="42.2976262" lon="13.5436051"><ele>617.0</ele><time>2026-04-10T11:15:10.656Z</time></trkpt><trkpt lat="42.2976648" lon="13.5434537"><ele>617.0</ele><time>2026-04-10T11:15:11.657Z</time></trkpt><trkpt lat="42.2976927" lon="13.5433104"><ele>615.8000000000001</ele><time>2026-04-10T11:15:12.657Z</time></trkpt><trkpt lat="42.2977214" lon="13.5431741"><ele>614.6</ele><time>2026-04-10T11:15:13.661Z</time></trkpt><trkpt lat="42.2977493" lon="13.5430505"><ele>613.4000000000001</ele><time>2026-04-10T11:15:14.664Z</time></trkpt><trkpt lat="42.2977863" lon="13.5429346"><ele>612.2</ele><time>2026-04-10T11:15:15.659Z</time></trkpt><trkpt lat="42.2978187" lon="13.5428318"><ele>611.0</ele><time>2026-04-10T11:15:16.662Z</time></trkpt><trkpt lat="42.2978539" lon="13.5427265"><ele>611.0</ele><time>2026-04-10T11:15:17.66Z</time></trkpt><trkpt lat="42.2979001" lon="13.5426095"><ele>611.0</ele><time>2026-04-10T11:15:18.661Z</time></trkpt><trkpt lat="42.2979555" lon="13.5424999"><ele>611.0</ele><time>2026-04-10T11:15:19.656Z</time></trkpt><trkpt lat="42.2980162" lon="13.5423868"><ele>611.0</ele><time>2026-04-10T11:15:20.654Z</time></trkpt><trkpt lat="42.2980812" lon="13.5422737"><ele>611.0</ele><time>2026-04-10T11:15:21.657Z</time></trkpt><trkpt lat="42.2981537" lon="13.5421691"><ele>610.4</ele><time>2026-04-10T11:15:22.656Z</time></trkpt><trkpt lat="42.2982006" lon="13.5420577"><ele>609.8</ele><time>2026-04-10T11:15:23.654Z</time></trkpt><trkpt lat="42.2982474" lon="13.541934"><ele>609.1999999999999</ele><time>2026-04-10T11:15:24.659Z</time></trkpt><trkpt lat="42.298299" lon="13.5418085"><ele>608.6</ele><time>2026-04-10T11:15:25.657Z</time></trkpt><trkpt lat="42.2983477" lon="13.5416786"><ele>608.0</ele><time>2026-04-10T11:15:26.662Z</time></trkpt><trkpt lat="42.2983844" lon="13.5415517"><ele>607.0</ele><time>2026-04-10T11:15:27.659Z</time></trkpt><trkpt lat="42.2984242" lon="13.5414172"><ele>606.0</ele><time>2026-04-10T11:15:28.659Z</time></trkpt><trkpt lat="42.2984695" lon="13.5412815"><ele>605.0</ele><time>2026-04-10T11:15:29.656Z</time></trkpt><trkpt lat="42.2985245" lon="13.5411557"><ele>604.0</ele><time>2026-04-10T11:15:30.662Z</time></trkpt><trkpt lat="42.2985923" lon="13.5410345"><ele>603.0</ele><time>2026-04-10T11:15:31.664Z</time></trkpt><trkpt lat="42.298661" lon="13.5409343"><ele>602.8333333333334</ele><time>2026-04-10T11:15:32.661Z</time></trkpt><trkpt lat="42.2987286" lon="13.54084"><ele>602.6666666666666</ele><time>2026-04-10T11:15:33.658Z</time></trkpt><trkpt lat="42.2987887" lon="13.5407707"><ele>602.5</ele><time>2026-04-10T11:15:34.65Z</time></trkpt><trkpt lat="42.2988394" lon="13.5407155"><ele>602.3333333333333</ele><time>2026-04-10T11:15:35.653Z</time></trkpt><trkpt lat="42.2988929" lon="13.5406687"><ele>602.1666666666666</ele><time>2026-04-10T11:15:36.654Z</time></trkpt><trkpt lat="42.2989729" lon="13.5405656"><ele>602.0</ele><time>2026-04-10T11:15:38.654Z</time></trkpt><trkpt lat="42.2990291" lon="13.5404529"><ele>602.0</ele><time>2026-04-10T11:15:40.649Z</time></trkpt><trkpt lat="42.2990531" lon="13.540358"><ele>602.0</ele><time>2026-04-10T11:15:42.646Z</time></trkpt><trkpt lat="42.2990556" lon="13.5402714"><ele>602.0</ele><time>2026-04-10T11:15:43.633Z</time></trkpt><trkpt lat="42.2990319" lon="13.5401649"><ele>602.0</ele><time>2026-04-10T11:15:44.631Z</time></trkpt><trkpt lat="42.2990107" lon="13.540032"><ele>602.0</ele><time>2026-04-10T11:15:45.627Z</time></trkpt><trkpt lat="42.2989817" lon="13.5398903"><ele>602.0</ele><time>2026-04-10T11:15:46.636Z</time></trkpt><trkpt lat="42.298945" lon="13.5397447"><ele>602.4</ele><time>2026-04-10T11:15:47.636Z</time></trkpt><trkpt lat="42.298903" lon="13.5396066"><ele>602.8000000000001</ele><time>2026-04-10T11:15:48.645Z</time></trkpt><trkpt lat="42.2988741" lon="13.5394814"><ele>603.2</ele><time>2026-04-10T11:15:49.645Z</time></trkpt><trkpt lat="42.2988496" lon="13.5393621"><ele>603.6</ele><time>2026-04-10T11:15:50.643Z</time></trkpt><trkpt lat="42.2988246" lon="13.5392528"><ele>604.0</ele><time>2026-04-10T11:15:51.643Z</time></trkpt><trkpt lat="42.2987916" lon="13.539156"><ele>602.8333333333334</ele><time>2026-04-10T11:15:52.647Z</time></trkpt><trkpt lat="42.2987484" lon="13.539069"><ele>601.6666666666667</ele><time>2026-04-10T11:15:53.642Z</time></trkpt><trkpt lat="42.2987163" lon="13.5389656"><ele>600.5</ele><time>2026-04-10T11:15:54.639Z</time></trkpt><trkpt lat="42.2986905" lon="13.53887"><ele>599.3333333333334</ele><time>2026-04-10T11:15:55.64Z</time></trkpt><trkpt lat="42.2986615" lon="13.5387507"><ele>598.1666666666666</ele><time>2026-04-10T11:15:57.653Z</time></trkpt><trkpt lat="42.2987343" lon="13.5386902"><ele>597.0</ele><time>2026-04-10T11:16:00.645Z</time></trkpt><trkpt lat="42.2988013" lon="13.5386467"><ele>596.6</ele><time>2026-04-10T11:16:01.657Z</time></trkpt><trkpt lat="42.2989001" lon="13.5386124"><ele>596.2</ele><time>2026-04-10T11:16:02.648Z</time></trkpt><trkpt lat="42.2990002" lon="13.5385724"><ele>595.8</ele><time>2026-04-10T11:16:03.647Z</time></trkpt><trkpt lat="42.2991019" lon="13.5385304"><ele>595.4</ele><time>2026-04-10T11:16:04.659Z</time></trkpt><trkpt lat="42.2992127" lon="13.5384642"><ele>595.0</ele><time>2026-04-10T11:16:05.649Z</time></trkpt><trkpt lat="42.2993167" lon="13.5383891"><ele>595.0</ele><time>2026-04-10T11:16:06.651Z</time></trkpt><trkpt lat="42.2994391" lon="13.5382779"><ele>595.0</ele><time>2026-04-10T11:16:07.647Z</time></trkpt><trkpt lat="42.2995526" lon="13.5381625"><ele>595.0</ele><time>2026-04-10T11:16:08.652Z</time></trkpt><trkpt lat="42.2996502" lon="13.5380715"><ele>595.0</ele><time>2026-04-10T11:16:09.653Z</time></trkpt><trkpt lat="42.2997543" lon="13.5379927"><ele>596.2</ele><time>2026-04-10T11:16:10.649Z</time></trkpt><trkpt lat="42.2998634" lon="13.5379581"><ele>597.4</ele><time>2026-04-10T11:16:11.651Z</time></trkpt><trkpt lat="42.2999707" lon="13.5379115"><ele>598.6</ele><time>2026-04-10T11:16:12.649Z</time></trkpt><trkpt lat="42.3000469" lon="13.5378632"><ele>599.8</ele><time>2026-04-10T11:16:13.647Z</time></trkpt><trkpt lat="42.3001247" lon="13.5378305"><ele>601.0</ele><time>2026-04-10T11:16:14.657Z</time></trkpt><trkpt lat="42.3001909" lon="13.5378334"><ele>601.0</ele><time>2026-04-10T11:16:15.661Z</time></trkpt><trkpt lat="42.3002544" lon="13.5378669"><ele>601.0</ele><time>2026-04-10T11:16:16.644Z</time></trkpt><trkpt lat="42.3003218" lon="13.5378971"><ele>601.0</ele><time>2026-04-10T11:16:17.645Z</time></trkpt><trkpt lat="42.3003964" lon="13.5379244"><ele>601.0</ele><time>2026-04-10T11:16:18.643Z</time></trkpt><trkpt lat="42.300494" lon="13.5379512"><ele>601.0</ele><time>2026-04-10T11:16:19.643Z</time></trkpt><trkpt lat="42.3006018" lon="13.5379746"><ele>601.0</ele><time>2026-04-10T11:16:20.641Z</time></trkpt><trkpt lat="42.3007128" lon="13.5379876"><ele>602.6</ele><time>2026-04-10T11:16:21.646Z</time></trkpt><trkpt lat="42.3008227" lon="13.5379886"><ele>604.2</ele><time>2026-04-10T11:16:22.652Z</time></trkpt><trkpt lat="42.3009279" lon="13.5380203"><ele>605.8</ele><time>2026-04-10T11:16:23.65Z</time></trkpt><trkpt lat="42.3010137" lon="13.5380853"><ele>607.4</ele><time>2026-04-10T11:16:24.649Z</time></trkpt><trkpt lat="42.3011104" lon="13.5381383"><ele>609.0</ele><time>2026-04-10T11:16:25.643Z</time></trkpt><trkpt lat="42.301208" lon="13.5381579"><ele>609.0</ele><time>2026-04-10T11:16:26.64Z</time></trkpt><trkpt lat="42.3013257" lon="13.538174"><ele>609.0</ele><time>2026-04-10T11:16:27.655Z</time></trkpt><trkpt lat="42.3014539" lon="13.5381726"><ele>609.0</ele><time>2026-04-10T11:16:28.653Z</time></trkpt><trkpt lat="42.301588" lon="13.5381683"><ele>609.0</ele><time>2026-04-10T11:16:29.663Z</time></trkpt><trkpt lat="42.3017237" lon="13.5381603"><ele>610.5</ele><time>2026-04-10T11:16:30.654Z</time></trkpt><trkpt lat="42.3018631" lon="13.5381371"><ele>612.0</ele><time>2026-04-10T11:16:31.645Z</time></trkpt><trkpt lat="42.3020048" lon="13.5381067"><ele>613.5</ele><time>2026-04-10T11:16:32.648Z</time></trkpt><trkpt lat="42.3021284" lon="13.5380427"><ele>615.0</ele><time>2026-04-10T11:16:33.64Z</time></trkpt><trkpt lat="42.302272" lon="13.5379632"><ele>615.0</ele><time>2026-04-10T11:16:34.639Z</time></trkpt><trkpt lat="42.3023478" lon="13.537942"><ele>615.0</ele><time>2026-04-10T11:16:35.639Z</time></trkpt><trkpt lat="42.3023608" lon="13.5377683"><ele>615.0</ele><time>2026-04-10T11:16:37.64Z</time></trkpt><trkpt lat="42.3024241" lon="13.5376969"><ele>615.0</ele><time>2026-04-10T11:16:39.643Z</time></trkpt><trkpt lat="42.3025081" lon="13.5377462"><ele>615.0</ele><time>2026-04-10T11:16:42.632Z</time></trkpt><trkpt lat="42.3025586" lon="13.5378287"><ele>615.8333333333334</ele><time>2026-04-10T11:16:43.638Z</time></trkpt><trkpt lat="42.3026049" lon="13.5379024"><ele>616.6666666666666</ele><time>2026-04-10T11:16:44.644Z</time></trkpt><trkpt lat="42.3026538" lon="13.5379575"><ele>617.5</ele><time>2026-04-10T11:16:45.639Z</time></trkpt><trkpt lat="42.3027087" lon="13.538005"><ele>618.3333333333333</ele><time>2026-04-10T11:16:46.639Z</time></trkpt><trkpt lat="42.3027815" lon="13.5380118"><ele>619.1666666666666</ele><time>2026-04-10T11:16:47.63Z</time></trkpt><trkpt lat="42.3028428" lon="13.5379767"><ele>620.0</ele><time>2026-04-10T11:16:48.644Z</time></trkpt><trkpt lat="42.3029299" lon="13.5378863"><ele>619.0</ele><time>2026-04-10T11:16:49.638Z</time></trkpt><trkpt lat="42.3030115" lon="13.5377479"><ele>618.0</ele><time>2026-04-10T11:16:51.644Z</time></trkpt><trkpt lat="42.3030165" lon="13.5376313"><ele>617.0</ele><time>2026-04-10T11:16:52.641Z</time></trkpt><trkpt lat="42.3030023" lon="13.5375212"><ele>616.0</ele><time>2026-04-10T11:16:53.645Z</time></trkpt><trkpt lat="42.3029531" lon="13.5374127"><ele>615.0</ele><time>2026-04-10T11:16:54.638Z</time></trkpt><trkpt lat="42.3028954" lon="13.5373063"><ele>615.0</ele><time>2026-04-10T11:16:55.641Z</time></trkpt><trkpt lat="42.3028303" lon="13.5372044"><ele>615.0</ele><time>2026-04-10T11:16:56.647Z</time></trkpt><trkpt lat="42.302769" lon="13.5371052"><ele>615.0</ele><time>2026-04-10T11:16:57.648Z</time></trkpt><trkpt lat="42.3027222" lon="13.5370195"><ele>615.0</ele><time>2026-04-10T11:16:58.649Z</time></trkpt><trkpt lat="42.3026763" lon="13.536945"><ele>615.0</ele><time>2026-04-10T11:16:59.645Z</time></trkpt><trkpt lat="42.3026503" lon="13.5368317"><ele>615.0</ele><time>2026-04-10T11:17:01.652Z</time></trkpt><trkpt lat="42.3027103" lon="13.536791"><ele>616.2</ele><time>2026-04-10T11:17:03.658Z</time></trkpt><trkpt lat="42.3027951" lon="13.53682"><ele>617.4</ele><time>2026-04-10T11:17:05.666Z</time></trkpt><trkpt lat="42.3028766" lon="13.5369246"><ele>618.6</ele><time>2026-04-10T11:17:07.677Z</time></trkpt><trkpt lat="42.302926" lon="13.5369817"><ele>619.8</ele><time>2026-04-10T11:17:08.669Z</time></trkpt><trkpt lat="42.3029779" lon="13.5370408"><ele>621.0</ele><time>2026-04-10T11:17:09.662Z</time></trkpt><trkpt lat="42.3030998" lon="13.5371017"><ele>621.4</ele><time>2026-04-10T11:17:11.661Z</time></trkpt><trkpt lat="42.3031834" lon="13.5371364"><ele>621.8</ele><time>2026-04-10T11:17:12.66Z</time></trkpt><trkpt lat="42.3032735" lon="13.5371651"><ele>622.1999999999999</ele><time>2026-04-10T11:17:13.658Z</time></trkpt><trkpt lat="42.303378" lon="13.5371861"><ele>622.6</ele><time>2026-04-10T11:17:14.66Z</time></trkpt><trkpt lat="42.303501" lon="13.5372123"><ele>623.0</ele><time>2026-04-10T11:17:15.664Z</time></trkpt><trkpt lat="42.3036266" lon="13.5372387"><ele>623.0</ele><time>2026-04-10T11:17:16.661Z</time></trkpt><trkpt lat="42.3037346" lon="13.5372398"><ele>623.0</ele><time>2026-04-10T11:17:17.657Z</time></trkpt><trkpt lat="42.3038372" lon="13.5372421"><ele>623.0</ele><time>2026-04-10T11:17:18.658Z</time></trkpt><trkpt lat="42.303946" lon="13.5372573"><ele>623.0</ele><time>2026-04-10T11:17:19.658Z</time></trkpt><trkpt lat="42.304044" lon="13.5372621"><ele>623.0</ele><time>2026-04-10T11:17:20.649Z</time></trkpt><trkpt lat="42.3041649" lon="13.5372202"><ele>626.25</ele><time>2026-04-10T11:17:21.651Z</time></trkpt><trkpt lat="42.3042825" lon="13.5371714"><ele>629.5</ele><time>2026-04-10T11:17:22.659Z</time></trkpt><trkpt lat="42.3044134" lon="13.5371283"><ele>632.75</ele><time>2026-04-10T11:17:23.656Z</time></trkpt><trkpt lat="42.3045582" lon="13.5370987"><ele>636.0</ele><time>2026-04-10T11:17:24.656Z</time></trkpt><trkpt lat="42.3047442" lon="13.5370652"><ele>635.25</ele><time>2026-04-10T11:17:25.662Z</time></trkpt><trkpt lat="42.3048852" lon="13.5370251"><ele>634.5</ele><time>2026-04-10T11:17:26.664Z</time></trkpt><trkpt lat="42.305031" lon="13.5369741"><ele>633.75</ele><time>2026-04-10T11:17:27.669Z</time></trkpt><trkpt lat="42.3051677" lon="13.5369789"><ele>633.0</ele><time>2026-04-10T11:17:28.663Z</time></trkpt><trkpt lat="42.3052746" lon="13.5369577"><ele>633.0</ele><time>2026-04-10T11:17:29.672Z</time></trkpt><trkpt lat="42.305377" lon="13.5369502"><ele>633.0</ele><time>2026-04-10T11:17:30.664Z</time></trkpt><trkpt lat="42.3054695" lon="13.5369136"><ele>633.0</ele><time>2026-04-10T11:17:31.661Z</time></trkpt><trkpt lat="42.3055498" lon="13.5368977"><ele>633.0</ele><time>2026-04-10T11:17:32.663Z</time></trkpt><trkpt lat="42.3056489" lon="13.5369057"><ele>633.0</ele><time>2026-04-10T11:17:33.662Z</time></trkpt><trkpt lat="42.3057341" lon="13.5369526"><ele>634.0</ele><time>2026-04-10T11:17:34.666Z</time></trkpt><trkpt lat="42.3058044" lon="13.5370211"><ele>635.0</ele><time>2026-04-10T11:17:35.67Z</time></trkpt><trkpt lat="42.305896" lon="13.5370627"><ele>636.0</ele><time>2026-04-10T11:17:36.66Z</time></trkpt><trkpt lat="42.3059824" lon="13.5370963"><ele>637.0</ele><time>2026-04-10T11:17:37.651Z</time></trkpt><trkpt lat="42.3060608" lon="13.5371002"><ele>638.0</ele><time>2026-04-10T11:17:38.657Z</time></trkpt><trkpt lat="42.3061294" lon="13.5370874"><ele>639.0</ele><time>2026-04-10T11:17:39.652Z</time></trkpt><trkpt lat="42.3062009" lon="13.5370282"><ele>639.0</ele><time>2026-04-10T11:17:41.647Z</time></trkpt><trkpt lat="42.3063017" lon="13.5369916"><ele>639.0</ele><time>2026-04-10T11:17:44.664Z</time></trkpt><trkpt lat="42.3062296" lon="13.5369619"><ele>639.0</ele><time>2026-04-10T11:17:59.674Z</time></trkpt><trkpt lat="42.3061482" lon="13.5369995"><ele>639.0</ele><time>2026-04-10T11:18:01.679Z</time></trkpt><trkpt lat="42.3060784" lon="13.5370287"><ele>639.0</ele><time>2026-04-10T11:18:02.661Z</time></trkpt><trkpt lat="42.3060074" lon="13.5370595"><ele>639.0</ele><time>2026-04-10T11:18:03.664Z</time></trkpt><trkpt lat="42.3059467" lon="13.5370903"><ele>639.6</ele><time>2026-04-10T11:18:04.655Z</time></trkpt><trkpt lat="42.305851" lon="13.5372043"><ele>640.2</ele><time>2026-04-10T11:18:06.647Z</time></trkpt><trkpt lat="42.3058095" lon="13.5373093"><ele>640.8000000000001</ele><time>2026-04-10T11:18:07.655Z</time></trkpt><trkpt lat="42.3057673" lon="13.5374331"><ele>641.4</ele><time>2026-04-10T11:18:08.656Z</time></trkpt><trkpt lat="42.3057275" lon="13.5375551"><ele>642.0</ele><time>2026-04-10T11:18:09.657Z</time></trkpt><trkpt lat="42.305699" lon="13.5376959"><ele>642.0</ele><time>2026-04-10T11:18:10.66Z</time></trkpt><trkpt lat="42.3056664" lon="13.5378292"><ele>642.0</ele><time>2026-04-10T11:18:11.659Z</time></trkpt><trkpt lat="42.3056263" lon="13.5379749"><ele>642.0</ele><time>2026-04-10T11:18:12.664Z</time></trkpt><trkpt lat="42.3055934" lon="13.538102"><ele>642.0</ele><time>2026-04-10T11:18:13.662Z</time></trkpt><trkpt lat="42.3055687" lon="13.5382224"><ele>642.0</ele><time>2026-04-10T11:18:14.656Z</time></trkpt><trkpt lat="42.3055491" lon="13.5383538"><ele>642.6</ele><time>2026-04-10T11:18:15.654Z</time></trkpt><trkpt lat="42.3055541" lon="13.538461"><ele>643.2</ele><time>2026-04-10T11:18:16.654Z</time></trkpt><trkpt lat="42.3055826" lon="13.5385811"><ele>643.8</ele><time>2026-04-10T11:18:17.656Z</time></trkpt><trkpt lat="42.3056537" lon="13.538696"><ele>644.4</ele><time>2026-04-10T11:18:18.655Z</time></trkpt><trkpt lat="42.3057434" lon="13.5388022"><ele>645.0</ele><time>2026-04-10T11:18:19.656Z</time></trkpt><trkpt lat="42.305836" lon="13.5388946"><ele>646.2</ele><time>2026-04-10T11:18:20.653Z</time></trkpt><trkpt lat="42.3059233" lon="13.5389951"><ele>647.4</ele><time>2026-04-10T11:18:21.66Z</time></trkpt><trkpt lat="42.3060027" lon="13.5390989"><ele>648.5999999999999</ele><time>2026-04-10T11:18:22.666Z</time></trkpt><trkpt lat="42.3060722" lon="13.5392073"><ele>649.8</ele><time>2026-04-10T11:18:23.658Z</time></trkpt><trkpt lat="42.3061372" lon="13.5392967"><ele>651.0</ele><time>2026-04-10T11:18:24.659Z</time></trkpt><trkpt lat="42.3062098" lon="13.5393726"><ele>651.0</ele><time>2026-04-10T11:18:25.655Z</time></trkpt><trkpt lat="42.3062879" lon="13.5394111"><ele>651.0</ele><time>2026-04-10T11:18:26.657Z</time></trkpt><trkpt lat="42.3063953" lon="13.5393771"><ele>651.0</ele><time>2026-04-10T11:18:27.665Z</time></trkpt><trkpt lat="42.3065066" lon="13.5393165"><ele>651.0</ele><time>2026-04-10T11:18:28.665Z</time></trkpt><trkpt lat="42.3065993" lon="13.5392486"><ele>651.0</ele><time>2026-04-10T11:18:29.666Z</time></trkpt><trkpt lat="42.3066931" lon="13.5391973"><ele>652.4</ele><time>2026-04-10T11:18:30.656Z</time></trkpt><trkpt lat="42.3067799" lon="13.5391755"><ele>653.8</ele><time>2026-04-10T11:18:31.66Z</time></trkpt><trkpt lat="42.3068665" lon="13.539183"><ele>655.1999999999999</ele><time>2026-04-10T11:18:32.639Z</time></trkpt><trkpt lat="42.3069626" lon="13.5392201"><ele>656.5999999999999</ele><time>2026-04-10T11:18:33.64Z</time></trkpt><trkpt lat="42.3070611" lon="13.5392796"><ele>658.0</ele><time>2026-04-10T11:18:34.642Z</time></trkpt><trkpt lat="42.3071484" lon="13.5393604"><ele>658.0</ele><time>2026-04-10T11:18:35.641Z</time></trkpt><trkpt lat="42.3072404" lon="13.5394389"><ele>658.0</ele><time>2026-04-10T11:18:36.651Z</time></trkpt><trkpt lat="42.3073264" lon="13.5395096"><ele>658.0</ele><time>2026-04-10T11:18:37.651Z</time></trkpt><trkpt lat="42.3074295" lon="13.5395611"><ele>658.0</ele><time>2026-04-10T11:18:38.651Z</time></trkpt><trkpt lat="42.3075232" lon="13.5395913"><ele>658.0</ele><time>2026-04-10T11:18:39.648Z</time></trkpt><trkpt lat="42.3076223" lon="13.5396061"><ele>658.0</ele><time>2026-04-10T11:18:40.651Z</time></trkpt><trkpt lat="42.3077261" lon="13.539592"><ele>658.0</ele><time>2026-04-10T11:18:41.65Z</time></trkpt><trkpt lat="42.3078347" lon="13.5395563"><ele>658.0</ele><time>2026-04-10T11:18:42.658Z</time></trkpt><trkpt lat="42.3079396" lon="13.5394955"><ele>658.0</ele><time>2026-04-10T11:18:43.646Z</time></trkpt><trkpt lat="42.3080527" lon="13.539434"><ele>659.75</ele><time>2026-04-10T11:18:44.657Z</time></trkpt><trkpt lat="42.3081689" lon="13.5393984"><ele>661.5</ele><time>2026-04-10T11:18:45.653Z</time></trkpt><trkpt lat="42.3082763" lon="13.539364"><ele>663.25</ele><time>2026-04-10T11:18:46.652Z</time></trkpt><trkpt lat="42.3083924" lon="13.5393243"><ele>665.0</ele><time>2026-04-10T11:18:47.653Z</time></trkpt><trkpt lat="42.3085074" lon="13.5393121"><ele>665.0</ele><time>2026-04-10T11:18:48.654Z</time></trkpt><trkpt lat="42.3086296" lon="13.5393214"><ele>665.0</ele><time>2026-04-10T11:18:49.649Z</time></trkpt><trkpt lat="42.3087672" lon="13.5393578"><ele>665.0</ele><time>2026-04-10T11:18:50.649Z</time></trkpt><trkpt lat="42.3089029" lon="13.5393992"><ele>665.0</ele><time>2026-04-10T11:18:51.649Z</time></trkpt><trkpt lat="42.3090474" lon="13.5394291"><ele>666.25</ele><time>2026-04-10T11:18:52.643Z</time></trkpt><trkpt lat="42.3091738" lon="13.5394394"><ele>667.5</ele><time>2026-04-10T11:18:53.641Z</time></trkpt><trkpt lat="42.3093389" lon="13.5394379"><ele>668.75</ele><time>2026-04-10T11:18:54.644Z</time></trkpt><trkpt lat="42.3094746" lon="13.5394721"><ele>670.0</ele><time>2026-04-10T11:18:55.644Z</time></trkpt><trkpt lat="42.3095956" lon="13.5394835"><ele>670.0</ele><time>2026-04-10T11:18:56.642Z</time></trkpt><trkpt lat="42.3096959" lon="13.5394722"><ele>670.0</ele><time>2026-04-10T11:18:57.645Z</time></trkpt><trkpt lat="42.3098235" lon="13.5394066"><ele>670.0</ele><time>2026-04-10T11:18:58.639Z</time></trkpt><trkpt lat="42.30993" lon="13.5393476"><ele>670.0</ele><time>2026-04-10T11:18:59.648Z</time></trkpt><trkpt lat="42.3100337" lon="13.5393006"><ele>670.6</ele><time>2026-04-10T11:19:00.645Z</time></trkpt><trkpt lat="42.31014" lon="13.5392785"><ele>671.2</ele><time>2026-04-10T11:19:01.641Z</time></trkpt><trkpt lat="42.310235" lon="13.5392922"><ele>671.8</ele><time>2026-04-10T11:19:02.653Z</time></trkpt><trkpt lat="42.3103229" lon="13.5392948"><ele>672.4</ele><time>2026-04-10T11:19:03.647Z</time></trkpt><trkpt lat="42.3104161" lon="13.5393206"><ele>673.0</ele><time>2026-04-10T11:19:04.641Z</time></trkpt><trkpt lat="42.3105323" lon="13.5393445"><ele>673.5</ele><time>2026-04-10T11:19:05.647Z</time></trkpt><trkpt lat="42.3106571" lon="13.5393386"><ele>674.0</ele><time>2026-04-10T11:19:06.654Z</time></trkpt><trkpt lat="42.3107737" lon="13.539321"><ele>674.5</ele><time>2026-04-10T11:19:07.655Z</time></trkpt><trkpt lat="42.310887" lon="13.5393018"><ele>675.0</ele><time>2026-04-10T11:19:08.643Z</time></trkpt><trkpt lat="42.310987" lon="13.5392424"><ele>675.0</ele><time>2026-04-10T11:19:09.642Z</time></trkpt><trkpt lat="42.3110804" lon="13.5391606"><ele>675.0</ele><time>2026-04-10T11:19:10.646Z</time></trkpt><trkpt lat="42.311163" lon="13.5390602"><ele>675.0</ele><time>2026-04-10T11:19:11.641Z</time></trkpt><trkpt lat="42.3112435" lon="13.5389706"><ele>675.0</ele><time>2026-04-10T11:19:12.644Z</time></trkpt><trkpt lat="42.3112981" lon="13.5388967"><ele>675.0</ele><time>2026-04-10T11:19:13.648Z</time></trkpt><trkpt lat="42.3113351" lon="13.5387729"><ele>676.6</ele><time>2026-04-10T11:19:16.637Z</time></trkpt><trkpt lat="42.3113307" lon="13.5386824"><ele>678.2</ele><time>2026-04-10T11:19:17.638Z</time></trkpt><trkpt lat="42.3113343" lon="13.5385605"><ele>679.8</ele><time>2026-04-10T11:19:18.639Z</time></trkpt><trkpt lat="42.3113314" lon="13.5384195"><ele>681.4</ele><time>2026-04-10T11:19:19.644Z</time></trkpt><trkpt lat="42.3113487" lon="13.5382662"><ele>683.0</ele><time>2026-04-10T11:19:20.646Z</time></trkpt><trkpt lat="42.3113851" lon="13.5381145"><ele>683.0</ele><time>2026-04-10T11:19:21.646Z</time></trkpt><trkpt lat="42.3114044" lon="13.5379725"><ele>683.0</ele><time>2026-04-10T11:19:22.651Z</time></trkpt><trkpt lat="42.3114113" lon="13.5378434"><ele>683.0</ele><time>2026-04-10T11:19:23.649Z</time></trkpt><trkpt lat="42.3114101" lon="13.537708"><ele>683.0</ele><time>2026-04-10T11:19:24.649Z</time></trkpt><trkpt lat="42.3113838" lon="13.5375926"><ele>683.0</ele><time>2026-04-10T11:19:25.636Z</time></trkpt><trkpt lat="42.3113482" lon="13.5375019"><ele>683.1666666666666</ele><time>2026-04-10T11:19:26.638Z</time></trkpt><trkpt lat="42.3113256" lon="13.5373966"><ele>683.3333333333333</ele><time>2026-04-10T11:19:27.645Z</time></trkpt><trkpt lat="42.3113158" lon="13.5372986"><ele>683.5</ele><time>2026-04-10T11:19:28.644Z</time></trkpt><trkpt lat="42.3113295" lon="13.5371777"><ele>683.6666666666666</ele><time>2026-04-10T11:19:29.65Z</time></trkpt><trkpt lat="42.3113469" lon="13.5370776"><ele>683.8333333333334</ele><time>2026-04-10T11:19:30.646Z</time></trkpt><trkpt lat="42.3113674" lon="13.5369611"><ele>684.0</ele><time>2026-04-10T11:19:31.657Z</time></trkpt><trkpt lat="42.3113806" lon="13.5368469"><ele>684.0</ele><time>2026-04-10T11:19:32.65Z</time></trkpt><trkpt lat="42.3113831" lon="13.5367352"><ele>684.0</ele><time>2026-04-10T11:19:33.647Z</time></trkpt><trkpt lat="42.3113876" lon="13.536646"><ele>684.0</ele><time>2026-04-10T11:19:34.647Z</time></trkpt><trkpt lat="42.3114193" lon="13.5365073"><ele>684.0</ele><time>2026-04-10T11:19:36.647Z</time></trkpt><trkpt lat="42.3114493" lon="13.5364258"><ele>684.0</ele><time>2026-04-10T11:19:37.644Z</time></trkpt><trkpt lat="42.3114963" lon="13.5363334"><ele>684.0</ele><time>2026-04-10T11:19:38.638Z</time></trkpt><trkpt lat="42.3115168" lon="13.5362066"><ele>683.0</ele><time>2026-04-10T11:19:39.639Z</time></trkpt><trkpt lat="42.3115422" lon="13.5360831"><ele>682.0</ele><time>2026-04-10T11:19:40.64Z</time></trkpt><trkpt lat="42.3115617" lon="13.5359493"><ele>681.0</ele><time>2026-04-10T11:19:41.642Z</time></trkpt><trkpt lat="42.3115753" lon="13.5358299"><ele>680.0</ele><time>2026-04-10T11:19:42.639Z</time></trkpt><trkpt lat="42.3115792" lon="13.5357268"><ele>679.0</ele><time>2026-04-10T11:19:43.644Z</time></trkpt><trkpt lat="42.3115761" lon="13.5356304"><ele>678.0</ele><time>2026-04-10T11:19:44.649Z</time></trkpt><trkpt lat="42.3115597" lon="13.5355259"><ele>678.0</ele><time>2026-04-10T11:19:45.647Z</time></trkpt><trkpt lat="42.3115433" lon="13.5354227"><ele>678.0</ele><time>2026-04-10T11:19:46.653Z</time></trkpt><trkpt lat="42.311562" lon="13.5353164"><ele>678.0</ele><time>2026-04-10T11:19:47.649Z</time></trkpt><trkpt lat="42.3115923" lon="13.5352102"><ele>678.0</ele><time>2026-04-10T11:19:48.655Z</time></trkpt><trkpt lat="42.3116146" lon="13.5350862"><ele>678.0</ele><time>2026-04-10T11:19:49.658Z</time></trkpt><trkpt lat="42.3116438" lon="13.5349749"><ele>678.0</ele><time>2026-04-10T11:19:50.653Z</time></trkpt><trkpt lat="42.3116814" lon="13.5348886"><ele>677.6666666666666</ele><time>2026-04-10T11:19:51.652Z</time></trkpt><trkpt lat="42.311752" lon="13.5347959"><ele>677.3333333333334</ele><time>2026-04-10T11:19:53.651Z</time></trkpt><trkpt lat="42.3118273" lon="13.5347995"><ele>677.0</ele><time>2026-04-10T11:19:55.652Z</time></trkpt><trkpt lat="42.3118794" lon="13.5348533"><ele>676.6666666666667</ele><time>2026-04-10T11:19:56.645Z</time></trkpt><trkpt lat="42.31194" lon="13.5349351"><ele>676.3333333333334</ele><time>2026-04-10T11:19:57.654Z</time></trkpt><trkpt lat="42.3120237" lon="13.5350263"><ele>676.0</ele><time>2026-04-10T11:19:58.639Z</time></trkpt><trkpt lat="42.3121174" lon="13.5351078"><ele>675.6666666666667</ele><time>2026-04-10T11:19:59.643Z</time></trkpt><trkpt lat="42.3122427" lon="13.535215"><ele>675.3333333333334</ele><time>2026-04-10T11:20:00.637Z</time></trkpt><trkpt lat="42.3123986" lon="13.5353164"><ele>675.0</ele><time>2026-04-10T11:20:01.634Z</time></trkpt><trkpt lat="42.3125537" lon="13.5354068"><ele>675.0</ele><time>2026-04-10T11:20:02.639Z</time></trkpt><trkpt lat="42.3127313" lon="13.5354912"><ele>675.0</ele><time>2026-04-10T11:20:03.639Z</time></trkpt><trkpt lat="42.3129001" lon="13.5355991"><ele>675.0</ele><time>2026-04-10T11:20:04.646Z</time></trkpt><trkpt lat="42.3130365" lon="13.5356633"><ele>677.0</ele><time>2026-04-10T11:20:05.64Z</time></trkpt><trkpt lat="42.3131756" lon="13.5357077"><ele>679.0</ele><time>2026-04-10T11:20:06.635Z</time></trkpt><trkpt lat="42.3133353" lon="13.5357951"><ele>681.0</ele><time>2026-04-10T11:20:07.632Z</time></trkpt><trkpt lat="42.3134976" lon="13.5358427"><ele>681.0</ele><time>2026-04-10T11:20:08.634Z</time></trkpt><trkpt lat="42.3136223" lon="13.5358552"><ele>681.0</ele><time>2026-04-10T11:20:09.638Z</time></trkpt><trkpt lat="42.3137567" lon="13.5358631"><ele>681.0</ele><time>2026-04-10T11:20:10.639Z</time></trkpt><trkpt lat="42.3138382" lon="13.535906"><ele>681.0</ele><time>2026-04-10T11:20:11.649Z</time></trkpt><trkpt lat="42.3139278" lon="13.5359501"><ele>681.0</ele><time>2026-04-10T11:20:12.642Z</time></trkpt><trkpt lat="42.3140807" lon="13.5360672"><ele>681.75</ele><time>2026-04-10T11:20:13.649Z</time></trkpt><trkpt lat="42.3141796" lon="13.5361112"><ele>682.5</ele><time>2026-04-10T11:20:14.649Z</time></trkpt><trkpt lat="42.3142944" lon="13.5361791"><ele>683.25</ele><time>2026-04-10T11:20:15.655Z</time></trkpt><trkpt lat="42.3144305" lon="13.5362517"><ele>684.0</ele><time>2026-04-10T11:20:16.654Z</time></trkpt><trkpt lat="42.314577" lon="13.5363539"><ele>685.0</ele><time>2026-04-10T11:20:17.65Z</time></trkpt><trkpt lat="42.3147264" lon="13.5364216"><ele>686.0</ele><time>2026-04-10T11:20:18.651Z</time></trkpt><trkpt lat="42.3148558" lon="13.5364886"><ele>687.0</ele><time>2026-04-10T11:20:19.656Z</time></trkpt><trkpt lat="42.3149559" lon="13.5365661"><ele>688.0</ele><time>2026-04-10T11:20:20.652Z</time></trkpt><trkpt lat="42.3150564" lon="13.5366485"><ele>688.75</ele><time>2026-04-10T11:20:21.65Z</time></trkpt><trkpt lat="42.3151807" lon="13.5366809"><ele>689.5</ele><time>2026-04-10T11:20:22.652Z</time></trkpt><trkpt lat="42.3153056" lon="13.536746"><ele>690.25</ele><time>2026-04-10T11:20:23.654Z</time></trkpt><trkpt lat="42.315423" lon="13.5368123"><ele>691.0</ele><time>2026-04-10T11:20:24.649Z</time></trkpt><trkpt lat="42.3155337" lon="13.5368288"><ele>690.5</ele><time>2026-04-10T11:20:25.648Z</time></trkpt><trkpt lat="42.3156407" lon="13.5368143"><ele>690.0</ele><time>2026-04-10T11:20:26.642Z</time></trkpt><trkpt lat="42.3157983" lon="13.5368514"><ele>689.5</ele><time>2026-04-10T11:20:27.651Z</time></trkpt><trkpt lat="42.3159525" lon="13.5368745"><ele>689.0</ele><time>2026-04-10T11:20:28.647Z</time></trkpt><trkpt lat="42.3160851" lon="13.5368953"><ele>689.0</ele><time>2026-04-10T11:20:29.653Z</time></trkpt><trkpt lat="42.316216" lon="13.5369418"><ele>689.0</ele><time>2026-04-10T11:20:30.648Z</time></trkpt><trkpt lat="42.3163273" lon="13.5369681"><ele>689.0</ele><time>2026-04-10T11:20:31.645Z</time></trkpt><trkpt lat="42.3164372" lon="13.5369784"><ele>689.0</ele><time>2026-04-10T11:20:32.65Z</time></trkpt><trkpt lat="42.3165796" lon="13.5370175"><ele>690.5</ele><time>2026-04-10T11:20:33.651Z</time></trkpt><trkpt lat="42.3167248" lon="13.5370643"><ele>692.0</ele><time>2026-04-10T11:20:34.65Z</time></trkpt><trkpt lat="42.3168601" lon="13.5371469"><ele>693.5</ele><time>2026-04-10T11:20:35.664Z</time></trkpt><trkpt lat="42.3169875" lon="13.5372353"><ele>695.0</ele><time>2026-04-10T11:20:36.654Z</time></trkpt><trkpt lat="42.3171008" lon="13.5373204"><ele>695.0</ele><time>2026-04-10T11:20:37.648Z</time></trkpt><trkpt lat="42.3172109" lon="13.5374344"><ele>695.0</ele><time>2026-04-10T11:20:38.654Z</time></trkpt><trkpt lat="42.3173221" lon="13.5375299"><ele>695.0</ele><time>2026-04-10T11:20:39.653Z</time></trkpt><trkpt lat="42.3174466" lon="13.5376075"><ele>695.0</ele><time>2026-04-10T11:20:40.65Z</time></trkpt><trkpt lat="42.3175664" lon="13.5376848"><ele>696.6666666666666</ele><time>2026-04-10T11:20:41.645Z</time></trkpt><trkpt lat="42.317729" lon="13.5377517"><ele>698.3333333333334</ele><time>2026-04-10T11:20:42.651Z</time></trkpt><trkpt lat="42.3178558" lon="13.5378243"><ele>700.0</ele><time>2026-04-10T11:20:43.653Z</time></trkpt><trkpt lat="42.3179939" lon="13.5379228"><ele>703.0</ele><time>2026-04-10T11:20:44.652Z</time></trkpt><trkpt lat="42.3181172" lon="13.5380205"><ele>706.0</ele><time>2026-04-10T11:20:45.649Z</time></trkpt><trkpt lat="42.3182632" lon="13.5381198"><ele>709.0</ele><time>2026-04-10T11:20:46.652Z</time></trkpt><trkpt lat="42.3183882" lon="13.53822"><ele>709.0</ele><time>2026-04-10T11:20:47.651Z</time></trkpt><trkpt lat="42.3184769" lon="13.5382793"><ele>709.0</ele><time>2026-04-10T11:20:48.649Z</time></trkpt><trkpt lat="42.3185697" lon="13.538364"><ele>709.0</ele><time>2026-04-10T11:20:49.648Z</time></trkpt><trkpt lat="42.3186857" lon="13.5384431"><ele>709.0</ele><time>2026-04-10T11:20:50.649Z</time></trkpt><trkpt lat="42.3187496" lon="13.5385329"><ele>709.0</ele><time>2026-04-10T11:20:51.643Z</time></trkpt><trkpt lat="42.3188192" lon="13.538624"><ele>709.6666666666667</ele><time>2026-04-10T11:20:52.636Z</time></trkpt><trkpt lat="42.3188877" lon="13.5387264"><ele>710.3333333333334</ele><time>2026-04-10T11:20:53.64Z</time></trkpt><trkpt lat="42.3189196" lon="13.538811"><ele>711.0</ele><time>2026-04-10T11:20:54.641Z</time></trkpt><trkpt lat="42.3189665" lon="13.5388804"><ele>711.6666666666666</ele><time>2026-04-10T11:20:55.647Z</time></trkpt><trkpt lat="42.3190074" lon="13.5389466"><ele>712.3333333333333</ele><time>2026-04-10T11:20:56.642Z</time></trkpt><trkpt lat="42.3190317" lon="13.5390721"><ele>713.0</ele><time>2026-04-10T11:20:58.644Z</time></trkpt><trkpt lat="42.3190552" lon="13.5389631"><ele>713.8</ele><time>2026-04-10T11:21:04.666Z</time></trkpt><trkpt lat="42.3190929" lon="13.5388682"><ele>714.5999999999999</ele><time>2026-04-10T11:21:10.654Z</time></trkpt><trkpt lat="42.3191404" lon="13.5387967"><ele>715.4000000000001</ele><time>2026-04-10T11:21:11.65Z</time></trkpt><trkpt lat="42.3192137" lon="13.5387026"><ele>716.2</ele><time>2026-04-10T11:21:12.646Z</time></trkpt><trkpt lat="42.3193107" lon="13.5386023"><ele>717.0</ele><time>2026-04-10T11:21:13.642Z</time></trkpt><trkpt lat="42.3194226" lon="13.5385102"><ele>717.5</ele><time>2026-04-10T11:21:14.648Z</time></trkpt><trkpt lat="42.3195523" lon="13.5384137"><ele>718.0</ele><time>2026-04-10T11:21:15.655Z</time></trkpt><trkpt lat="42.3196741" lon="13.5383223"><ele>718.5</ele><time>2026-04-10T11:21:16.655Z</time></trkpt><trkpt lat="42.3197982" lon="13.5382342"><ele>719.0</ele><time>2026-04-10T11:21:17.654Z</time></trkpt><trkpt lat="42.3199218" lon="13.5381405"><ele>719.0</ele><time>2026-04-10T11:21:18.657Z</time></trkpt><trkpt lat="42.3200567" lon="13.538025"><ele>719.0</ele><time>2026-04-10T11:21:19.655Z</time></trkpt><trkpt lat="42.3201841" lon="13.5379161"><ele>719.0</ele><time>2026-04-10T11:21:20.655Z</time></trkpt><trkpt lat="42.3203324" lon="13.5378148"><ele>719.0</ele><time>2026-04-10T11:21:21.656Z</time></trkpt><trkpt lat="42.3204917" lon="13.5377244"><ele>719.0</ele><time>2026-04-10T11:21:22.66Z</time></trkpt><trkpt lat="42.3206594" lon="13.5376382"><ele>719.0</ele><time>2026-04-10T11:21:23.657Z</time></trkpt><trkpt lat="42.3208228" lon="13.5375298"><ele>721.3333333333333</ele><time>2026-04-10T11:21:24.654Z</time></trkpt><trkpt lat="42.3209775" lon="13.5374144"><ele>723.6666666666666</ele><time>2026-04-10T11:21:25.65Z</time></trkpt><trkpt lat="42.3210931" lon="13.5372523"><ele>726.0</ele><time>2026-04-10T11:21:26.653Z</time></trkpt><trkpt lat="42.3211922" lon="13.5371038"><ele>724.75</ele><time>2026-04-10T11:21:27.653Z</time></trkpt><trkpt lat="42.3213016" lon="13.5369654"><ele>723.5</ele><time>2026-04-10T11:21:28.648Z</time></trkpt><trkpt lat="42.3214135" lon="13.5368427"><ele>722.25</ele><time>2026-04-10T11:21:29.655Z</time></trkpt><trkpt lat="42.3215268" lon="13.5367261"><ele>721.0</ele><time>2026-04-10T11:21:30.649Z</time></trkpt><trkpt lat="42.3216325" lon="13.5366063"><ele>723.25</ele><time>2026-04-10T11:21:31.658Z</time></trkpt><trkpt lat="42.3217328" lon="13.5364887"><ele>725.5</ele><time>2026-04-10T11:21:32.654Z</time></trkpt><trkpt lat="42.3218278" lon="13.5363753"><ele>727.75</ele><time>2026-04-10T11:21:33.658Z</time></trkpt><trkpt lat="42.321934" lon="13.5362517"><ele>730.0</ele><time>2026-04-10T11:21:34.656Z</time></trkpt><trkpt lat="42.3220167" lon="13.5361145"><ele>730.0</ele><time>2026-04-10T11:21:35.661Z</time></trkpt><trkpt lat="42.3221194" lon="13.5360274"><ele>730.0</ele><time>2026-04-10T11:21:36.662Z</time></trkpt><trkpt lat="42.3222159" lon="13.5359851"><ele>730.0</ele><time>2026-04-10T11:21:37.651Z</time></trkpt><trkpt lat="42.3223165" lon="13.5359448"><ele>730.0</ele><time>2026-04-10T11:21:38.651Z</time></trkpt><trkpt lat="42.3223881" lon="13.5359628"><ele>730.0</ele><time>2026-04-10T11:21:39.644Z</time></trkpt><trkpt lat="42.3224532" lon="13.5360079"><ele>731.3333333333334</ele><time>2026-04-10T11:21:40.649Z</time></trkpt><trkpt lat="42.3224506" lon="13.5361195"><ele>732.6666666666667</ele><time>2026-04-10T11:21:41.642Z</time></trkpt><trkpt lat="42.3224358" lon="13.5362855"><ele>734.0</ele><time>2026-04-10T11:21:43.658Z</time></trkpt><trkpt lat="42.3224074" lon="13.5363832"><ele>735.3333333333334</ele><time>2026-04-10T11:21:45.648Z</time></trkpt><trkpt lat="42.3224873" lon="13.5363938"><ele>736.6666666666666</ele><time>2026-04-10T11:21:48.649Z</time></trkpt><trkpt lat="42.3225345" lon="13.5363271"><ele>738.0</ele><time>2026-04-10T11:21:49.641Z</time></trkpt><trkpt lat="42.3225298" lon="13.5362221"><ele>738.0</ele><time>2026-04-10T11:21:50.632Z</time></trkpt><trkpt lat="42.3225258" lon="13.5361021"><ele>738.0</ele><time>2026-04-10T11:21:51.63Z</time></trkpt><trkpt lat="42.3225251" lon="13.5359937"><ele>738.0</ele><time>2026-04-10T11:21:52.636Z</time></trkpt><trkpt lat="42.3225172" lon="13.5359048"><ele>738.0</ele><time>2026-04-10T11:21:53.636Z</time></trkpt><trkpt lat="42.3225116" lon="13.5358109"><ele>738.0</ele><time>2026-04-10T11:21:54.639Z</time></trkpt><trkpt lat="42.3225338" lon="13.5357125"><ele>738.0</ele><time>2026-04-10T11:21:56.669Z</time></trkpt><trkpt lat="42.3225979" lon="13.5357011"><ele>738.0</ele><time>2026-04-10T11:22:01.659Z</time></trkpt><trkpt lat="42.322704" lon="13.5356978"><ele>738.0</ele><time>2026-04-10T11:22:03.667Z</time></trkpt><trkpt lat="42.3227876" lon="13.5357632"><ele>738.0</ele><time>2026-04-10T11:22:05.668Z</time></trkpt><trkpt lat="42.3227054" lon="13.5357652"><ele>738.0</ele><time>2026-04-10T11:22:08.656Z</time></trkpt><trkpt lat="42.3226732" lon="13.535674"><ele>738.0</ele><time>2026-04-10T11:22:09.648Z</time></trkpt><trkpt lat="42.3226494" lon="13.5355721"><ele>738.0</ele><time>2026-04-10T11:22:10.645Z</time></trkpt><trkpt lat="42.3226267" lon="13.535433"><ele>738.0</ele><time>2026-04-10T11:22:11.644Z</time></trkpt><trkpt lat="42.3226256" lon="13.5352852"><ele>737.0</ele><time>2026-04-10T11:22:12.636Z</time></trkpt><trkpt lat="42.3226524" lon="13.5351039"><ele>736.0</ele><time>2026-04-10T11:22:13.646Z</time></trkpt><trkpt lat="42.3226998" lon="13.5349066"><ele>735.0</ele><time>2026-04-10T11:22:14.631Z</time></trkpt><trkpt lat="42.3227487" lon="13.5347125"><ele>734.0</ele><time>2026-04-10T11:22:15.636Z</time></trkpt><trkpt lat="42.3228026" lon="13.5344914"><ele>731.3333333333333</ele><time>2026-04-10T11:22:16.645Z</time></trkpt><trkpt lat="42.3228685" lon="13.5342615"><ele>728.6666666666666</ele><time>2026-04-10T11:22:17.649Z</time></trkpt><trkpt lat="42.3229311" lon="13.5340354"><ele>726.0</ele><time>2026-04-10T11:22:18.653Z</time></trkpt><trkpt lat="42.3230077" lon="13.5338145"><ele>728.3333333333334</ele><time>2026-04-10T11:22:19.651Z</time></trkpt><trkpt lat="42.3230975" lon="13.5335938"><ele>730.6666666666667</ele><time>2026-04-10T11:22:20.646Z</time></trkpt><trkpt lat="42.3232016" lon="13.5333647"><ele>733.0</ele><time>2026-04-10T11:22:21.649Z</time></trkpt><trkpt lat="42.3233095" lon="13.5331409"><ele>729.6666666666667</ele><time>2026-04-10T11:22:22.651Z</time></trkpt><trkpt lat="42.3234192" lon="13.5328778"><ele>726.3333333333334</ele><time>2026-04-10T11:22:23.652Z</time></trkpt><trkpt lat="42.3235285" lon="13.5326304"><ele>723.0</ele><time>2026-04-10T11:22:24.651Z</time></trkpt><trkpt lat="42.3236237" lon="13.5323539"><ele>723.0</ele><time>2026-04-10T11:22:25.649Z</time></trkpt><trkpt lat="42.3237085" lon="13.5321138"><ele>723.0</ele><time>2026-04-10T11:22:26.649Z</time></trkpt><trkpt lat="42.3237955" lon="13.5318951"><ele>723.0</ele><time>2026-04-10T11:22:27.65Z</time></trkpt><trkpt lat="42.323896" lon="13.5316694"><ele>721.6666666666666</ele><time>2026-04-10T11:22:28.648Z</time></trkpt><trkpt lat="42.3239842" lon="13.5314535"><ele>720.3333333333333</ele><time>2026-04-10T11:22:29.656Z</time></trkpt><trkpt lat="42.3240535" lon="13.5312147"><ele>719.0</ele><time>2026-04-10T11:22:30.65Z</time></trkpt><trkpt lat="42.3241393" lon="13.5309888"><ele>717.0</ele><time>2026-04-10T11:22:31.669Z</time></trkpt><trkpt lat="42.3242243" lon="13.5307299"><ele>715.0</ele><time>2026-04-10T11:22:32.653Z</time></trkpt><trkpt lat="42.3243164" lon="13.5304807"><ele>713.0</ele><time>2026-04-10T11:22:33.664Z</time></trkpt><trkpt lat="42.3243978" lon="13.53021"><ele>710.6666666666666</ele><time>2026-04-10T11:22:34.657Z</time></trkpt><trkpt lat="42.3244714" lon="13.5299556"><ele>708.3333333333334</ele><time>2026-04-10T11:22:35.656Z</time></trkpt><trkpt lat="42.3245043" lon="13.5296575"><ele>706.0</ele><time>2026-04-10T11:22:36.661Z</time></trkpt><trkpt lat="42.3245174" lon="13.5293689"><ele>705.0</ele><time>2026-04-10T11:22:37.656Z</time></trkpt><trkpt lat="42.3245182" lon="13.529095"><ele>704.0</ele><time>2026-04-10T11:22:38.659Z</time></trkpt><trkpt lat="42.3244953" lon="13.5287971"><ele>703.0</ele><time>2026-04-10T11:22:39.655Z</time></trkpt><trkpt lat="42.3244564" lon="13.5285455"><ele>702.3333333333334</ele><time>2026-04-10T11:22:40.657Z</time></trkpt><trkpt lat="42.3244307" lon="13.5282824"><ele>701.6666666666666</ele><time>2026-04-10T11:22:41.66Z</time></trkpt><trkpt lat="42.3244088" lon="13.5280077"><ele>701.0</ele><time>2026-04-10T11:22:42.661Z</time></trkpt><trkpt lat="42.3243798" lon="13.5277485"><ele>699.3333333333333</ele><time>2026-04-10T11:22:43.737Z</time></trkpt><trkpt lat="42.32435" lon="13.5274946"><ele>697.6666666666666</ele><time>2026-04-10T11:22:44.735Z</time></trkpt><trkpt lat="42.3243283" lon="13.5272519"><ele>696.0</ele><time>2026-04-10T11:22:45.652Z</time></trkpt><trkpt lat="42.3242901" lon="13.5270091"><ele>695.3333333333334</ele><time>2026-04-10T11:22:46.652Z</time></trkpt><trkpt lat="42.3242711" lon="13.5267693"><ele>694.6666666666667</ele><time>2026-04-10T11:22:47.656Z</time></trkpt><trkpt lat="42.3242377" lon="13.5265328"><ele>694.0</ele><time>2026-04-10T11:22:48.654Z</time></trkpt><trkpt lat="42.324201" lon="13.5262996"><ele>693.3333333333334</ele><time>2026-04-10T11:22:49.653Z</time></trkpt><trkpt lat="42.3241558" lon="13.5260769"><ele>692.6666666666666</ele><time>2026-04-10T11:22:50.657Z</time></trkpt><trkpt lat="42.3241181" lon="13.5258597"><ele>692.0</ele><time>2026-04-10T11:22:51.66Z</time></trkpt><trkpt lat="42.3240905" lon="13.525651"><ele>692.0</ele><time>2026-04-10T11:22:52.662Z</time></trkpt><trkpt lat="42.3240536" lon="13.5254568"><ele>692.0</ele><time>2026-04-10T11:22:53.663Z</time></trkpt><trkpt lat="42.3240189" lon="13.5252565"><ele>692.0</ele><time>2026-04-10T11:22:54.662Z</time></trkpt><trkpt lat="42.3239832" lon="13.5250623"><ele>692.0</ele><time>2026-04-10T11:22:55.659Z</time></trkpt><trkpt lat="42.3239446" lon="13.5248558"><ele>690.6666666666666</ele><time>2026-04-10T11:22:56.657Z</time></trkpt><trkpt lat="42.3239186" lon="13.5246619"><ele>689.3333333333334</ele><time>2026-04-10T11:22:57.657Z</time></trkpt><trkpt lat="42.3238842" lon="13.5244645"><ele>688.0</ele><time>2026-04-10T11:22:58.659Z</time></trkpt><trkpt lat="42.3238481" lon="13.5242588"><ele>685.8</ele><time>2026-04-10T11:22:59.662Z</time></trkpt><trkpt lat="42.3238163" lon="13.5240661"><ele>683.5999999999999</ele><time>2026-04-10T11:23:00.663Z</time></trkpt><trkpt lat="42.3237899" lon="13.5239015"><ele>681.4000000000001</ele><time>2026-04-10T11:23:01.663Z</time></trkpt><trkpt lat="42.3237786" lon="13.5237776"><ele>679.2</ele><time>2026-04-10T11:23:02.662Z</time></trkpt><trkpt lat="42.3237793" lon="13.5236639"><ele>677.0</ele><time>2026-04-10T11:23:03.64Z</time></trkpt><trkpt lat="42.3238307" lon="13.5235741"><ele>677.75</ele><time>2026-04-10T11:23:04.639Z</time></trkpt><trkpt lat="42.3239068" lon="13.5234864"><ele>678.5</ele><time>2026-04-10T11:23:05.636Z</time></trkpt><trkpt lat="42.3240126" lon="13.5234065"><ele>679.25</ele><time>2026-04-10T11:23:06.636Z</time></trkpt><trkpt lat="42.3241086" lon="13.52333"><ele>680.0</ele><time>2026-04-10T11:23:07.651Z</time></trkpt><trkpt lat="42.3242261" lon="13.5232729"><ele>680.0</ele><time>2026-04-10T11:23:08.649Z</time></trkpt><trkpt lat="42.3243642" lon="13.5232317"><ele>680.0</ele><time>2026-04-10T11:23:09.652Z</time></trkpt><trkpt lat="42.3245006" lon="13.5231884"><ele>680.0</ele><time>2026-04-10T11:23:10.65Z</time></trkpt><trkpt lat="42.3246312" lon="13.5231224"><ele>680.0</ele><time>2026-04-10T11:23:11.649Z</time></trkpt><trkpt lat="42.3247935" lon="13.5230525"><ele>681.3333333333333</ele><time>2026-04-10T11:23:12.653Z</time></trkpt><trkpt lat="42.3249817" lon="13.5229546"><ele>682.6666666666666</ele><time>2026-04-10T11:23:13.65Z</time></trkpt><trkpt lat="42.3251801" lon="13.5229019"><ele>684.0</ele><time>2026-04-10T11:23:14.656Z</time></trkpt><trkpt lat="42.3253541" lon="13.5228438"><ele>684.0</ele><time>2026-04-10T11:23:15.654Z</time></trkpt><trkpt lat="42.3255267" lon="13.5227787"><ele>684.0</ele><time>2026-04-10T11:23:16.653Z</time></trkpt><trkpt lat="42.3256878" lon="13.5227027"><ele>684.0</ele><time>2026-04-10T11:23:17.652Z</time></trkpt><trkpt lat="42.3258525" lon="13.5226295"><ele>686.3333333333334</ele><time>2026-04-10T11:23:18.654Z</time></trkpt><trkpt lat="42.3260231" lon="13.5225655"><ele>688.6666666666667</ele><time>2026-04-10T11:23:19.653Z</time></trkpt><trkpt lat="42.3261629" lon="13.5224792"><ele>691.0</ele><time>2026-04-10T11:23:20.651Z</time></trkpt><trkpt lat="42.3262997" lon="13.5223795"><ele>691.8</ele><time>2026-04-10T11:23:21.647Z</time></trkpt><trkpt lat="42.3264134" lon="13.5222625"><ele>692.5999999999999</ele><time>2026-04-10T11:23:22.643Z</time></trkpt><trkpt lat="42.3265057" lon="13.522154"><ele>693.4</ele><time>2026-04-10T11:23:23.645Z</time></trkpt><trkpt lat="42.3265721" lon="13.5220568"><ele>694.2</ele><time>2026-04-10T11:23:24.645Z</time></trkpt><trkpt lat="42.3266229" lon="13.5219792"><ele>695.0</ele><time>2026-04-10T11:23:25.654Z</time></trkpt><trkpt lat="42.3266573" lon="13.5218777"><ele>695.0</ele><time>2026-04-10T11:23:26.656Z</time></trkpt><trkpt lat="42.3266839" lon="13.5217984"><ele>695.0</ele><time>2026-04-10T11:23:27.647Z</time></trkpt><trkpt lat="42.326637" lon="13.5217195"><ele>695.0</ele><time>2026-04-10T11:23:29.651Z</time></trkpt><trkpt lat="42.3265535" lon="13.5216798"><ele>695.0</ele><time>2026-04-10T11:23:30.643Z</time></trkpt><trkpt lat="42.3264682" lon="13.5216625"><ele>695.0</ele><time>2026-04-10T11:23:31.653Z</time></trkpt><trkpt lat="42.3263772" lon="13.5216294"><ele>695.0</ele><time>2026-04-10T11:23:32.638Z</time></trkpt><trkpt lat="42.3262819" lon="13.52158"><ele>693.8333333333333</ele><time>2026-04-10T11:23:33.642Z</time></trkpt><trkpt lat="42.3262147" lon="13.5215407"><ele>692.6666666666666</ele><time>2026-04-10T11:23:34.636Z</time></trkpt><trkpt lat="42.3261209" lon="13.5214493"><ele>691.5</ele><time>2026-04-10T11:23:36.641Z</time></trkpt><trkpt lat="42.3260846" lon="13.5213713"><ele>690.3333333333334</ele><time>2026-04-10T11:23:37.639Z</time></trkpt><trkpt lat="42.3260527" lon="13.5212858"><ele>689.1666666666667</ele><time>2026-04-10T11:23:38.656Z</time></trkpt><trkpt lat="42.3260467" lon="13.5211683"><ele>688.0</ele><time>2026-04-10T11:23:39.652Z</time></trkpt><trkpt lat="42.3260338" lon="13.521011"><ele>687.2</ele><time>2026-04-10T11:23:40.661Z</time></trkpt><trkpt lat="42.3260157" lon="13.5208616"><ele>686.4</ele><time>2026-04-10T11:23:41.654Z</time></trkpt><trkpt lat="42.3259888" lon="13.5207238"><ele>685.6</ele><time>2026-04-10T11:23:42.658Z</time></trkpt><trkpt lat="42.325947" lon="13.5206005"><ele>684.8000000000001</ele><time>2026-04-10T11:23:43.649Z</time></trkpt><trkpt lat="42.3258904" lon="13.5204932"><ele>684.0</ele><time>2026-04-10T11:23:44.646Z</time></trkpt><trkpt lat="42.3258165" lon="13.5204032"><ele>683.8333333333334</ele><time>2026-04-10T11:23:45.656Z</time></trkpt><trkpt lat="42.3257597" lon="13.5203078"><ele>683.6666666666666</ele><time>2026-04-10T11:23:46.656Z</time></trkpt><trkpt lat="42.3257074" lon="13.5202248"><ele>683.5</ele><time>2026-04-10T11:23:47.661Z</time></trkpt><trkpt lat="42.3256583" lon="13.520145"><ele>683.3333333333333</ele><time>2026-04-10T11:23:48.66Z</time></trkpt><trkpt lat="42.3256122" lon="13.5200501"><ele>683.1666666666666</ele><time>2026-04-10T11:23:49.659Z</time></trkpt><trkpt lat="42.3255666" lon="13.5199499"><ele>683.0</ele><time>2026-04-10T11:23:50.66Z</time></trkpt><trkpt lat="42.3255226" lon="13.5198416"><ele>681.4</ele><time>2026-04-10T11:23:51.66Z</time></trkpt><trkpt lat="42.3254749" lon="13.5197301"><ele>679.8</ele><time>2026-04-10T11:23:52.661Z</time></trkpt><trkpt lat="42.3254208" lon="13.5196189"><ele>678.2</ele><time>2026-04-10T11:23:53.655Z</time></trkpt><trkpt lat="42.3253429" lon="13.5195092"><ele>676.6</ele><time>2026-04-10T11:23:54.649Z</time></trkpt><trkpt lat="42.3252464" lon="13.5194006"><ele>675.0</ele><time>2026-04-10T11:23:55.655Z</time></trkpt><trkpt lat="42.3251496" lon="13.5192897"><ele>674.0</ele><time>2026-04-10T11:23:56.656Z</time></trkpt><trkpt lat="42.3250621" lon="13.5191704"><ele>673.0</ele><time>2026-04-10T11:23:57.657Z</time></trkpt><trkpt lat="42.3249704" lon="13.5190383"><ele>672.0</ele><time>2026-04-10T11:23:58.654Z</time></trkpt><trkpt lat="42.3248741" lon="13.5189104"><ele>671.0</ele><time>2026-04-10T11:23:59.659Z</time></trkpt><trkpt lat="42.3247848" lon="13.5187953"><ele>669.0</ele><time>2026-04-10T11:24:00.661Z</time></trkpt><trkpt lat="42.324711" lon="13.5186892"><ele>667.0</ele><time>2026-04-10T11:24:01.658Z</time></trkpt><trkpt lat="42.3246391" lon="13.5185824"><ele>665.0</ele><time>2026-04-10T11:24:02.657Z</time></trkpt><trkpt lat="42.3245618" lon="13.5184858"><ele>663.0</ele><time>2026-04-10T11:24:03.662Z</time></trkpt><trkpt lat="42.3244802" lon="13.5183983"><ele>661.0</ele><time>2026-04-10T11:24:04.659Z</time></trkpt><trkpt lat="42.324394" lon="13.5183063"><ele>661.0</ele><time>2026-04-10T11:24:05.66Z</time></trkpt><trkpt lat="42.3243132" lon="13.5182052"><ele>661.0</ele><time>2026-04-10T11:24:06.659Z</time></trkpt><trkpt lat="42.3242358" lon="13.5180973"><ele>661.0</ele><time>2026-04-10T11:24:07.658Z</time></trkpt><trkpt lat="42.3241627" lon="13.5179959"><ele>661.0</ele><time>2026-04-10T11:24:08.661Z</time></trkpt><trkpt lat="42.3240925" lon="13.5179021"><ele>661.0</ele><time>2026-04-10T11:24:09.663Z</time></trkpt><trkpt lat="42.3240263" lon="13.5178196"><ele>660.1666666666667</ele><time>2026-04-10T11:24:10.659Z</time></trkpt><trkpt lat="42.3239719" lon="13.5177616"><ele>659.3333333333334</ele><time>2026-04-10T11:24:11.663Z</time></trkpt><trkpt lat="42.3239152" lon="13.5177062"><ele>658.5</ele><time>2026-04-10T11:24:13.652Z</time></trkpt><trkpt lat="42.3238895" lon="13.5175984"><ele>657.6666666666666</ele><time>2026-04-10T11:24:15.65Z</time></trkpt><trkpt lat="42.3238937" lon="13.5175025"><ele>656.8333333333333</ele><time>2026-04-10T11:24:16.638Z</time></trkpt><trkpt lat="42.3239057" lon="13.5173691"><ele>656.0</ele><time>2026-04-10T11:24:17.651Z</time></trkpt><trkpt lat="42.3239362" lon="13.5171734"><ele>654.3333333333333</ele><time>2026-04-10T11:24:18.64Z</time></trkpt><trkpt lat="42.3239645" lon="13.5169449"><ele>652.6666666666666</ele><time>2026-04-10T11:24:19.645Z</time></trkpt><trkpt lat="42.3239855" lon="13.5167069"><ele>651.0</ele><time>2026-04-10T11:24:20.652Z</time></trkpt><trkpt lat="42.3240117" lon="13.5164651"><ele>650.0</ele><time>2026-04-10T11:24:21.652Z</time></trkpt><trkpt lat="42.3240537" lon="13.5161942"><ele>649.0</ele><time>2026-04-10T11:24:22.659Z</time></trkpt><trkpt lat="42.3241002" lon="13.515907"><ele>648.0</ele><time>2026-04-10T11:24:23.662Z</time></trkpt><trkpt lat="42.3241398" lon="13.5156325"><ele>647.3333333333334</ele><time>2026-04-10T11:24:24.663Z</time></trkpt><trkpt lat="42.3241808" lon="13.5153609"><ele>646.6666666666667</ele><time>2026-04-10T11:24:25.664Z</time></trkpt><trkpt lat="42.3241933" lon="13.5150847"><ele>646.0</ele><time>2026-04-10T11:24:26.66Z</time></trkpt><trkpt lat="42.3242251" lon="13.5148135"><ele>646.0</ele><time>2026-04-10T11:24:27.667Z</time></trkpt><trkpt lat="42.3242408" lon="13.5145844"><ele>646.0</ele><time>2026-04-10T11:24:28.651Z</time></trkpt><trkpt lat="42.3242542" lon="13.5143185"><ele>646.0</ele><time>2026-04-10T11:24:29.658Z</time></trkpt><trkpt lat="42.3242868" lon="13.5140338"><ele>644.6666666666667</ele><time>2026-04-10T11:24:30.651Z</time></trkpt><trkpt lat="42.3243155" lon="13.5137522"><ele>643.3333333333334</ele><time>2026-04-10T11:24:31.653Z</time></trkpt><trkpt lat="42.3243311" lon="13.5134536"><ele>642.0</ele><time>2026-04-10T11:24:32.647Z</time></trkpt><trkpt lat="42.3243427" lon="13.5131519"><ele>640.6666666666666</ele><time>2026-04-10T11:24:33.65Z</time></trkpt><trkpt lat="42.3243581" lon="13.5128377"><ele>639.3333333333333</ele><time>2026-04-10T11:24:34.651Z</time></trkpt><trkpt lat="42.3243818" lon="13.5125495"><ele>638.0</ele><time>2026-04-10T11:24:35.646Z</time></trkpt><trkpt lat="42.3244096" lon="13.5122603"><ele>637.6666666666666</ele><time>2026-04-10T11:24:36.646Z</time></trkpt><trkpt lat="42.3244381" lon="13.5120047"><ele>637.3333333333334</ele><time>2026-04-10T11:24:37.646Z</time></trkpt><trkpt lat="42.3244565" lon="13.5117494"><ele>637.0</ele><time>2026-04-10T11:24:38.645Z</time></trkpt><trkpt lat="42.3244861" lon="13.5115002"><ele>637.0</ele><time>2026-04-10T11:24:39.649Z</time></trkpt><trkpt lat="42.3245103" lon="13.5112869"><ele>637.0</ele><time>2026-04-10T11:24:40.644Z</time></trkpt><trkpt lat="42.3245428" lon="13.5110851"><ele>637.0</ele><time>2026-04-10T11:24:41.641Z</time></trkpt><trkpt lat="42.3245541" lon="13.5108967"><ele>636.2</ele><time>2026-04-10T11:24:42.648Z</time></trkpt><trkpt lat="42.3245632" lon="13.5107316"><ele>635.4000000000001</ele><time>2026-04-10T11:24:43.641Z</time></trkpt><trkpt lat="42.3245836" lon="13.5105834"><ele>634.5999999999999</ele><time>2026-04-10T11:24:44.642Z</time></trkpt><trkpt lat="42.3245882" lon="13.5104394"><ele>633.8</ele><time>2026-04-10T11:24:45.635Z</time></trkpt><trkpt lat="42.3245777" lon="13.5103337"><ele>633.0</ele><time>2026-04-10T11:24:46.639Z</time></trkpt><trkpt lat="42.3245867" lon="13.5102258"><ele>632.25</ele><time>2026-04-10T11:24:47.638Z</time></trkpt><trkpt lat="42.3246478" lon="13.5101051"><ele>631.5</ele><time>2026-04-10T11:24:49.652Z</time></trkpt><trkpt lat="42.3247748" lon="13.5101226"><ele>630.75</ele><time>2026-04-10T11:24:51.636Z</time></trkpt><trkpt lat="42.3248609" lon="13.5102185"><ele>630.0</ele><time>2026-04-10T11:24:52.643Z</time></trkpt><trkpt lat="42.324945" lon="13.5103275"><ele>632.5</ele><time>2026-04-10T11:24:53.65Z</time></trkpt><trkpt lat="42.325027" lon="13.5104432"><ele>635.0</ele><time>2026-04-10T11:24:54.642Z</time></trkpt><trkpt lat="42.3251502" lon="13.5105398"><ele>637.5</ele><time>2026-04-10T11:24:55.64Z</time></trkpt><trkpt lat="42.3252842" lon="13.5106271"><ele>640.0</ele><time>2026-04-10T11:24:56.64Z</time></trkpt><trkpt lat="42.3254071" lon="13.5107011"><ele>640.0</ele><time>2026-04-10T11:24:57.645Z</time></trkpt><trkpt lat="42.3255296" lon="13.5107733"><ele>640.0</ele><time>2026-04-10T11:24:58.641Z</time></trkpt><trkpt lat="42.3256606" lon="13.5108816"><ele>640.0</ele><time>2026-04-10T11:24:59.651Z</time></trkpt><trkpt lat="42.3257921" lon="13.5110104"><ele>640.0</ele><time>2026-04-10T11:25:00.653Z</time></trkpt><trkpt lat="42.3259076" lon="13.5111291"><ele>641.5</ele><time>2026-04-10T11:25:01.655Z</time></trkpt><trkpt lat="42.3259877" lon="13.5112198"><ele>643.0</ele><time>2026-04-10T11:25:02.652Z</time></trkpt><trkpt lat="42.3261107" lon="13.5113221"><ele>644.5</ele><time>2026-04-10T11:25:03.653Z</time></trkpt><trkpt lat="42.3262232" lon="13.5114125"><ele>646.0</ele><time>2026-04-10T11:25:04.654Z</time></trkpt><trkpt lat="42.3263429" lon="13.511508"><ele>648.0</ele><time>2026-04-10T11:25:05.652Z</time></trkpt><trkpt lat="42.3264799" lon="13.5115699"><ele>650.0</ele><time>2026-04-10T11:25:06.646Z</time></trkpt><trkpt lat="42.3266363" lon="13.5116152"><ele>652.0</ele><time>2026-04-10T11:25:07.648Z</time></trkpt><trkpt lat="42.326768" lon="13.5116486"><ele>654.0</ele><time>2026-04-10T11:25:08.652Z</time></trkpt><trkpt lat="42.3269101" lon="13.5116772"><ele>654.0</ele><time>2026-04-10T11:25:09.652Z</time></trkpt><trkpt lat="42.3270445" lon="13.5117044"><ele>654.0</ele><time>2026-04-10T11:25:10.658Z</time></trkpt><trkpt lat="42.3272006" lon="13.5117449"><ele>654.0</ele><time>2026-04-10T11:25:11.657Z</time></trkpt><trkpt lat="42.3273639" lon="13.5117893"><ele>655.0</ele><time>2026-04-10T11:25:12.657Z</time></trkpt><trkpt lat="42.3274955" lon="13.5118004"><ele>656.0</ele><time>2026-04-10T11:25:13.668Z</time></trkpt><trkpt lat="42.3275994" lon="13.5117889"><ele>657.0</ele><time>2026-04-10T11:25:14.662Z</time></trkpt><trkpt lat="42.3276892" lon="13.5118311"><ele>658.0</ele><time>2026-04-10T11:25:15.652Z</time></trkpt><trkpt lat="42.3277772" lon="13.5119225"><ele>659.0</ele><time>2026-04-10T11:25:16.661Z</time></trkpt><trkpt lat="42.3278607" lon="13.5120425"><ele>659.6</ele><time>2026-04-10T11:25:17.656Z</time></trkpt><trkpt lat="42.3279416" lon="13.5121582"><ele>660.2</ele><time>2026-04-10T11:25:18.666Z</time></trkpt><trkpt lat="42.3280438" lon="13.5122408"><ele>660.8000000000001</ele><time>2026-04-10T11:25:19.651Z</time></trkpt><trkpt lat="42.3281399" lon="13.5122862"><ele>661.4000000000001</ele><time>2026-04-10T11:25:20.657Z</time></trkpt><trkpt lat="42.3282361" lon="13.5123491"><ele>662.0</ele><time>2026-04-10T11:25:21.656Z</time></trkpt><trkpt lat="42.3283254" lon="13.5124285"><ele>663.1666666666666</ele><time>2026-04-10T11:25:22.652Z</time></trkpt><trkpt lat="42.3283877" lon="13.512515"><ele>664.3333333333333</ele><time>2026-04-10T11:25:23.65Z</time></trkpt><trkpt lat="42.3284302" lon="13.512583"><ele>665.5</ele><time>2026-04-10T11:25:24.651Z</time></trkpt><trkpt lat="42.3284572" lon="13.5126838"><ele>666.6666666666666</ele><time>2026-04-10T11:25:26.655Z</time></trkpt><trkpt lat="42.3284928" lon="13.512799"><ele>667.8333333333334</ele><time>2026-04-10T11:25:29.675Z</time></trkpt><trkpt lat="42.3285115" lon="13.5128914"><ele>669.0</ele><time>2026-04-10T11:25:30.663Z</time></trkpt><trkpt lat="42.3285257" lon="13.5129794"><ele>669.6</ele><time>2026-04-10T11:25:31.661Z</time></trkpt><trkpt lat="42.3285439" lon="13.513081"><ele>670.2</ele><time>2026-04-10T11:25:32.654Z</time></trkpt><trkpt lat="42.3285497" lon="13.5131969"><ele>670.8000000000001</ele><time>2026-04-10T11:25:33.655Z</time></trkpt><trkpt lat="42.3285669" lon="13.5133321"><ele>671.4000000000001</ele><time>2026-04-10T11:25:34.651Z</time></trkpt><trkpt lat="42.3286086" lon="13.5135042"><ele>672.0</ele><time>2026-04-10T11:25:35.654Z</time></trkpt><trkpt lat="42.3286501" lon="13.5136731"><ele>672.25</ele><time>2026-04-10T11:25:36.656Z</time></trkpt><trkpt lat="42.3286846" lon="13.513845"><ele>672.5</ele><time>2026-04-10T11:25:37.649Z</time></trkpt><trkpt lat="42.3287261" lon="13.514027"><ele>672.75</ele><time>2026-04-10T11:25:38.65Z</time></trkpt><trkpt lat="42.3287803" lon="13.5142086"><ele>673.0</ele><time>2026-04-10T11:25:39.645Z</time></trkpt><trkpt lat="42.3288149" lon="13.5143636"><ele>673.0</ele><time>2026-04-10T11:25:40.642Z</time></trkpt><trkpt lat="42.3288671" lon="13.514503"><ele>673.0</ele><time>2026-04-10T11:25:41.643Z</time></trkpt><trkpt lat="42.3289087" lon="13.5145979"><ele>673.0</ele><time>2026-04-10T11:25:42.643Z</time></trkpt><trkpt lat="42.3289547" lon="13.5146686"><ele>673.0</ele><time>2026-04-10T11:25:43.655Z</time></trkpt><trkpt lat="42.3289935" lon="13.5147483"><ele>673.0</ele><time>2026-04-10T11:25:44.648Z</time></trkpt><trkpt lat="42.3290449" lon="13.5148369"><ele>673.0</ele><time>2026-04-10T11:25:45.651Z</time></trkpt><trkpt lat="42.3290929" lon="13.5149433"><ele>675.25</ele><time>2026-04-10T11:25:47.646Z</time></trkpt><trkpt lat="42.3290605" lon="13.5150534"><ele>677.5</ele><time>2026-04-10T11:26:00.64Z</time></trkpt><trkpt lat="42.3290839" lon="13.5152321"><ele>679.75</ele><time>2026-04-10T11:26:02.641Z</time></trkpt><trkpt lat="42.3291155" lon="13.5153904"><ele>682.0</ele><time>2026-04-10T11:26:03.642Z</time></trkpt><trkpt lat="42.3291304" lon="13.5155384"><ele>682.6</ele><time>2026-04-10T11:26:04.647Z</time></trkpt><trkpt lat="42.3291413" lon="13.5156766"><ele>683.2</ele><time>2026-04-10T11:26:05.644Z</time></trkpt><trkpt lat="42.3291564" lon="13.5158218"><ele>683.8</ele><time>2026-04-10T11:26:06.641Z</time></trkpt><trkpt lat="42.3291844" lon="13.515972"><ele>684.4</ele><time>2026-04-10T11:26:07.642Z</time></trkpt><trkpt lat="42.3292466" lon="13.5161091"><ele>685.0</ele><time>2026-04-10T11:26:08.643Z</time></trkpt><trkpt lat="42.329329" lon="13.5162293"><ele>685.75</ele><time>2026-04-10T11:26:09.639Z</time></trkpt><trkpt lat="42.3294123" lon="13.516333"><ele>686.5</ele><time>2026-04-10T11:26:10.641Z</time></trkpt><trkpt lat="42.3295128" lon="13.5164355"><ele>687.25</ele><time>2026-04-10T11:26:11.643Z</time></trkpt><trkpt lat="42.3296305" lon="13.5165408"><ele>688.0</ele><time>2026-04-10T11:26:12.642Z</time></trkpt><trkpt lat="42.329741" lon="13.5166579"><ele>689.75</ele><time>2026-04-10T11:26:13.633Z</time></trkpt><trkpt lat="42.3298586" lon="13.5167935"><ele>691.5</ele><time>2026-04-10T11:26:14.631Z</time></trkpt><trkpt lat="42.3299284" lon="13.5169361"><ele>693.25</ele><time>2026-04-10T11:26:15.636Z</time></trkpt><trkpt lat="42.3300065" lon="13.5170803"><ele>695.0</ele><time>2026-04-10T11:26:16.635Z</time></trkpt><trkpt lat="42.3300637" lon="13.5172011"><ele>696.2</ele><time>2026-04-10T11:26:17.636Z</time></trkpt><trkpt lat="42.3301266" lon="13.5172738"><ele>697.4</ele><time>2026-04-10T11:26:18.634Z</time></trkpt><trkpt lat="42.3302169" lon="13.5174029"><ele>698.5999999999999</ele><time>2026-04-10T11:26:20.633Z</time></trkpt><trkpt lat="42.3302875" lon="13.5174622"><ele>699.8</ele><time>2026-04-10T11:26:22.636Z</time></trkpt><trkpt lat="42.3302861" lon="13.5173405"><ele>701.0</ele><time>2026-04-10T11:26:28.648Z</time></trkpt><trkpt lat="42.3303704" lon="13.5172007"><ele>701.0</ele><time>2026-04-10T11:26:30.638Z</time></trkpt><trkpt lat="42.3304497" lon="13.5171021"><ele>701.0</ele><time>2026-04-10T11:26:31.63Z</time></trkpt><trkpt lat="42.3305509" lon="13.5170205"><ele>701.0</ele><time>2026-04-10T11:26:32.624Z</time></trkpt><trkpt lat="42.3306677" lon="13.5169295"><ele>701.0</ele><time>2026-04-10T11:26:33.628Z</time></trkpt><trkpt lat="42.3307883" lon="13.5168596"><ele>701.3333333333333</ele><time>2026-04-10T11:26:34.638Z</time></trkpt><trkpt lat="42.3309185" lon="13.5167823"><ele>701.6666666666666</ele><time>2026-04-10T11:26:35.636Z</time></trkpt><trkpt lat="42.3310675" lon="13.5166662"><ele>702.0</ele><time>2026-04-10T11:26:36.64Z</time></trkpt><trkpt lat="42.3311778" lon="13.5165525"><ele>702.0</ele><time>2026-04-10T11:26:37.636Z</time></trkpt><trkpt lat="42.3313018" lon="13.5164358"><ele>702.0</ele><time>2026-04-10T11:26:38.647Z</time></trkpt><trkpt lat="42.3314115" lon="13.5162896"><ele>702.0</ele><time>2026-04-10T11:26:39.648Z</time></trkpt><trkpt lat="42.3315141" lon="13.5161165"><ele>703.0</ele><time>2026-04-10T11:26:40.648Z</time></trkpt><trkpt lat="42.3316116" lon="13.5159654"><ele>704.0</ele><time>2026-04-10T11:26:41.648Z</time></trkpt><trkpt lat="42.3316961" lon="13.5157769"><ele>705.0</ele><time>2026-04-10T11:26:42.644Z</time></trkpt><trkpt lat="42.3317498" lon="13.5155818"><ele>705.0</ele><time>2026-04-10T11:26:43.646Z</time></trkpt><trkpt lat="42.3318109" lon="13.5154219"><ele>705.0</ele><time>2026-04-10T11:26:44.645Z</time></trkpt><trkpt lat="42.331862" lon="13.5152429"><ele>705.0</ele><time>2026-04-10T11:26:45.648Z</time></trkpt><trkpt lat="42.3319238" lon="13.5150984"><ele>705.0</ele><time>2026-04-10T11:26:46.637Z</time></trkpt><trkpt lat="42.3320147" lon="13.5150141"><ele>704.25</ele><time>2026-04-10T11:26:47.639Z</time></trkpt><trkpt lat="42.3321196" lon="13.5148725"><ele>703.5</ele><time>2026-04-10T11:26:48.64Z</time></trkpt><trkpt lat="42.3322337" lon="13.5147468"><ele>702.75</ele><time>2026-04-10T11:26:49.635Z</time></trkpt><trkpt lat="42.3323483" lon="13.5146505"><ele>702.0</ele><time>2026-04-10T11:26:50.642Z</time></trkpt><trkpt lat="42.3324664" lon="13.5145862"><ele>704.0</ele><time>2026-04-10T11:26:51.651Z</time></trkpt><trkpt lat="42.3325738" lon="13.5144977"><ele>706.0</ele><time>2026-04-10T11:26:52.653Z</time></trkpt><trkpt lat="42.3326867" lon="13.5144236"><ele>708.0</ele><time>2026-04-10T11:26:53.649Z</time></trkpt><trkpt lat="42.3328032" lon="13.514282"><ele>710.0</ele><time>2026-04-10T11:26:54.654Z</time></trkpt><trkpt lat="42.3328978" lon="13.5141948"><ele>710.0</ele><time>2026-04-10T11:26:55.651Z</time></trkpt><trkpt lat="42.3329786" lon="13.514104"><ele>710.0</ele><time>2026-04-10T11:26:56.639Z</time></trkpt><trkpt lat="42.3329768" lon="13.5139716"><ele>710.0</ele><time>2026-04-10T11:26:57.645Z</time></trkpt><trkpt lat="42.3329812" lon="13.5138162"><ele>710.0</ele><time>2026-04-10T11:26:58.638Z</time></trkpt><trkpt lat="42.3329732" lon="13.5136744"><ele>710.0</ele><time>2026-04-10T11:26:59.647Z</time></trkpt><trkpt lat="42.3329707" lon="13.5135531"><ele>709.25</ele><time>2026-04-10T11:27:00.641Z</time></trkpt><trkpt lat="42.3329735" lon="13.5134287"><ele>708.5</ele><time>2026-04-10T11:27:01.641Z</time></trkpt><trkpt lat="42.3329973" lon="13.5133131"><ele>707.75</ele><time>2026-04-10T11:27:02.638Z</time></trkpt><trkpt lat="42.3330635" lon="13.5130521"><ele>707.0</ele><time>2026-04-10T11:27:04.648Z</time></trkpt><trkpt lat="42.333107" lon="13.5129138"><ele>708.25</ele><time>2026-04-10T11:27:05.648Z</time></trkpt><trkpt lat="42.333155" lon="13.5127694"><ele>709.5</ele><time>2026-04-10T11:27:06.647Z</time></trkpt><trkpt lat="42.3332064" lon="13.512619"><ele>710.75</ele><time>2026-04-10T11:27:07.645Z</time></trkpt><trkpt lat="42.3332702" lon="13.5124826"><ele>712.0</ele><time>2026-04-10T11:27:08.647Z</time></trkpt><trkpt lat="42.3333435" lon="13.5123695"><ele>712.0</ele><time>2026-04-10T11:27:09.639Z</time></trkpt><trkpt lat="42.3334323" lon="13.5122696"><ele>712.0</ele><time>2026-04-10T11:27:10.632Z</time></trkpt><trkpt lat="42.3335302" lon="13.5121693"><ele>712.0</ele><time>2026-04-10T11:27:11.635Z</time></trkpt><trkpt lat="42.3336402" lon="13.5121025"><ele>712.0</ele><time>2026-04-10T11:27:12.637Z</time></trkpt><trkpt lat="42.3337531" lon="13.5120494"><ele>712.5</ele><time>2026-04-10T11:27:13.638Z</time></trkpt><trkpt lat="42.3338779" lon="13.5119946"><ele>713.0</ele><time>2026-04-10T11:27:14.645Z</time></trkpt><trkpt lat="42.3340182" lon="13.51192"><ele>713.5</ele><time>2026-04-10T11:27:15.633Z</time></trkpt><trkpt lat="42.3341344" lon="13.5117968"><ele>714.0</ele><time>2026-04-10T11:27:16.632Z</time></trkpt><trkpt lat="42.3342615" lon="13.5116318"><ele>715.3333333333334</ele><time>2026-04-10T11:27:17.63Z</time></trkpt><trkpt lat="42.3343766" lon="13.5114734"><ele>716.6666666666667</ele><time>2026-04-10T11:27:18.632Z</time></trkpt><trkpt lat="42.3344607" lon="13.5112767"><ele>718.0</ele><time>2026-04-10T11:27:19.639Z</time></trkpt><trkpt lat="42.3345599" lon="13.511132"><ele>718.0</ele><time>2026-04-10T11:27:20.64Z</time></trkpt><trkpt lat="42.3346478" lon="13.5109718"><ele>718.0</ele><time>2026-04-10T11:27:21.641Z</time></trkpt><trkpt lat="42.3347528" lon="13.5108068"><ele>718.0</ele><time>2026-04-10T11:27:22.648Z</time></trkpt><trkpt lat="42.3348821" lon="13.5106233"><ele>719.6666666666667</ele><time>2026-04-10T11:27:23.643Z</time></trkpt><trkpt lat="42.3350318" lon="13.5104616"><ele>721.3333333333334</ele><time>2026-04-10T11:27:24.644Z</time></trkpt><trkpt lat="42.3351869" lon="13.5102973"><ele>723.0</ele><time>2026-04-10T11:27:25.644Z</time></trkpt><trkpt lat="42.3353245" lon="13.5101125"><ele>723.0</ele><time>2026-04-10T11:27:26.643Z</time></trkpt><trkpt lat="42.3354454" lon="13.5099539"><ele>723.0</ele><time>2026-04-10T11:27:27.64Z</time></trkpt><trkpt lat="42.3355532" lon="13.5098127"><ele>723.0</ele><time>2026-04-10T11:27:28.646Z</time></trkpt><trkpt lat="42.3356372" lon="13.5096726"><ele>724.0</ele><time>2026-04-10T11:27:29.636Z</time></trkpt><trkpt lat="42.3356715" lon="13.5095556"><ele>725.0</ele><time>2026-04-10T11:27:30.631Z</time></trkpt><trkpt lat="42.3357002" lon="13.5093188"><ele>726.0</ele><time>2026-04-10T11:27:32.639Z</time></trkpt><trkpt lat="42.3356857" lon="13.5091534"><ele>727.0</ele><time>2026-04-10T11:27:33.639Z</time></trkpt><trkpt lat="42.3356994" lon="13.5090047"><ele>727.0</ele><time>2026-04-10T11:27:34.64Z</time></trkpt><trkpt lat="42.3357231" lon="13.5088556"><ele>727.0</ele><time>2026-04-10T11:27:35.638Z</time></trkpt><trkpt lat="42.3357617" lon="13.508729"><ele>727.0</ele><time>2026-04-10T11:27:36.64Z</time></trkpt><trkpt lat="42.3358224" lon="13.5086238"><ele>727.0</ele><time>2026-04-10T11:27:37.646Z</time></trkpt><trkpt lat="42.3358939" lon="13.5085114"><ele>727.0</ele><time>2026-04-10T11:27:38.646Z</time></trkpt><trkpt lat="42.3359942" lon="13.5083997"><ele>725.75</ele><time>2026-04-10T11:27:39.642Z</time></trkpt><trkpt lat="42.3361058" lon="13.5082962"><ele>724.5</ele><time>2026-04-10T11:27:40.647Z</time></trkpt><trkpt lat="42.3362352" lon="13.5082021"><ele>723.25</ele><time>2026-04-10T11:27:41.641Z</time></trkpt><trkpt lat="42.3363724" lon="13.5081207"><ele>722.0</ele><time>2026-04-10T11:27:42.653Z</time></trkpt><trkpt lat="42.3365016" lon="13.5080178"><ele>720.75</ele><time>2026-04-10T11:27:43.649Z</time></trkpt><trkpt lat="42.3366192" lon="13.5079097"><ele>719.5</ele><time>2026-04-10T11:27:44.648Z</time></trkpt><trkpt lat="42.3367368" lon="13.5077936"><ele>718.25</ele><time>2026-04-10T11:27:45.646Z</time></trkpt><trkpt lat="42.3368407" lon="13.5076993"><ele>717.0</ele><time>2026-04-10T11:27:46.649Z</time></trkpt><trkpt lat="42.3369225" lon="13.5076093"><ele>717.0</ele><time>2026-04-10T11:27:47.649Z</time></trkpt><trkpt lat="42.3370067" lon="13.5075124"><ele>717.0</ele><time>2026-04-10T11:27:48.644Z</time></trkpt><trkpt lat="42.3370754" lon="13.5074297"><ele>717.0</ele><time>2026-04-10T11:27:49.652Z</time></trkpt><trkpt lat="42.337139" lon="13.5073414"><ele>717.0</ele><time>2026-04-10T11:27:50.649Z</time></trkpt><trkpt lat="42.3372055" lon="13.5072435"><ele>717.0</ele><time>2026-04-10T11:27:51.653Z</time></trkpt><trkpt lat="42.337257" lon="13.5071623"><ele>716.6666666666666</ele><time>2026-04-10T11:27:52.652Z</time></trkpt><trkpt lat="42.3373091" lon="13.5070716"><ele>716.3333333333334</ele><time>2026-04-10T11:27:53.649Z</time></trkpt><trkpt lat="42.3373514" lon="13.5069703"><ele>716.0</ele><time>2026-04-10T11:27:54.649Z</time></trkpt><trkpt lat="42.3373957" lon="13.5068842"><ele>715.6666666666667</ele><time>2026-04-10T11:27:55.647Z</time></trkpt><trkpt lat="42.337444" lon="13.5067975"><ele>715.3333333333334</ele><time>2026-04-10T11:27:56.653Z</time></trkpt><trkpt lat="42.337508" lon="13.5067164"><ele>715.0</ele><time>2026-04-10T11:27:57.64Z</time></trkpt><trkpt lat="42.33759" lon="13.5066354"><ele>715.0</ele><time>2026-04-10T11:27:58.645Z</time></trkpt><trkpt lat="42.3376851" lon="13.5065805"><ele>715.0</ele><time>2026-04-10T11:27:59.647Z</time></trkpt><trkpt lat="42.3377885" lon="13.5065342"><ele>715.0</ele><time>2026-04-10T11:28:00.651Z</time></trkpt><trkpt lat="42.3378892" lon="13.5064756"><ele>715.0</ele><time>2026-04-10T11:28:01.638Z</time></trkpt><trkpt lat="42.3379941" lon="13.5064109"><ele>715.0</ele><time>2026-04-10T11:28:02.638Z</time></trkpt><trkpt lat="42.3380795" lon="13.5063175"><ele>714.75</ele><time>2026-04-10T11:28:03.637Z</time></trkpt><trkpt lat="42.3381426" lon="13.506188"><ele>714.5</ele><time>2026-04-10T11:28:04.637Z</time></trkpt><trkpt lat="42.3382063" lon="13.5060392"><ele>714.25</ele><time>2026-04-10T11:28:05.629Z</time></trkpt><trkpt lat="42.3382738" lon="13.5058933"><ele>714.0</ele><time>2026-04-10T11:28:06.625Z</time></trkpt><trkpt lat="42.3383573" lon="13.5057282"><ele>714.0</ele><time>2026-04-10T11:28:07.63Z</time></trkpt><trkpt lat="42.3384654" lon="13.5055772"><ele>714.0</ele><time>2026-04-10T11:28:08.623Z</time></trkpt><trkpt lat="42.3385972" lon="13.5053786"><ele>714.0</ele><time>2026-04-10T11:28:09.634Z</time></trkpt><trkpt lat="42.3386749" lon="13.5051869"><ele>714.25</ele><time>2026-04-10T11:28:10.625Z</time></trkpt><trkpt lat="42.3387578" lon="13.5049868"><ele>714.5</ele><time>2026-04-10T11:28:11.636Z</time></trkpt><trkpt lat="42.3388229" lon="13.5048114"><ele>714.75</ele><time>2026-04-10T11:28:12.641Z</time></trkpt><trkpt lat="42.338881" lon="13.5046469"><ele>715.0</ele><time>2026-04-10T11:28:13.649Z</time></trkpt><trkpt lat="42.3389342" lon="13.5044989"><ele>715.0</ele><time>2026-04-10T11:28:14.651Z</time></trkpt><trkpt lat="42.3390158" lon="13.5043242"><ele>715.0</ele><time>2026-04-10T11:28:15.636Z</time></trkpt><trkpt lat="42.3391069" lon="13.5041798"><ele>715.0</ele><time>2026-04-10T11:28:16.647Z</time></trkpt><trkpt lat="42.3392148" lon="13.5040794"><ele>715.0</ele><time>2026-04-10T11:28:17.646Z</time></trkpt><trkpt lat="42.3393195" lon="13.5039487"><ele>715.0</ele><time>2026-04-10T11:28:18.647Z</time></trkpt><trkpt lat="42.3394063" lon="13.5038473"><ele>715.0</ele><time>2026-04-10T11:28:19.642Z</time></trkpt><trkpt lat="42.3394567" lon="13.5037385"><ele>715.0</ele><time>2026-04-10T11:28:20.634Z</time></trkpt><trkpt lat="42.3394441" lon="13.5036486"><ele>715.0</ele><time>2026-04-10T11:28:21.637Z</time></trkpt><trkpt lat="42.3395134" lon="13.5035538"><ele>715.0</ele><time>2026-04-10T11:28:24.642Z</time></trkpt><trkpt lat="42.3396489" lon="13.5034115"><ele>714.1666666666667</ele><time>2026-04-10T11:28:27.642Z</time></trkpt><trkpt lat="42.3396908" lon="13.5033424"><ele>713.3333333333334</ele><time>2026-04-10T11:28:29.654Z</time></trkpt><trkpt lat="42.3396256" lon="13.5033291"><ele>712.5</ele><time>2026-04-10T11:28:33.656Z</time></trkpt><trkpt lat="42.339603" lon="13.5034268"><ele>711.6666666666666</ele><time>2026-04-10T11:28:36.66Z</time></trkpt><trkpt lat="42.3395642" lon="13.503526"><ele>710.8333333333333</ele><time>2026-04-10T11:28:43.651Z</time></trkpt><trkpt lat="42.3394695" lon="13.5036586"><ele>710.0</ele><time>2026-04-10T11:28:45.66Z</time></trkpt><trkpt lat="42.339406" lon="13.5037353"><ele>711.0</ele><time>2026-04-10T11:28:46.646Z</time></trkpt><trkpt lat="42.3393285" lon="13.503818"><ele>712.0</ele><time>2026-04-10T11:28:47.64Z</time></trkpt><trkpt lat="42.3392733" lon="13.5039317"><ele>713.0</ele><time>2026-04-10T11:28:48.648Z</time></trkpt><trkpt lat="42.3392289" lon="13.5040662"><ele>714.0</ele><time>2026-04-10T11:28:49.651Z</time></trkpt><trkpt lat="42.3391746" lon="13.5042064"><ele>715.0</ele><time>2026-04-10T11:28:50.642Z</time></trkpt><trkpt lat="42.3390878" lon="13.5043255"><ele>715.0</ele><time>2026-04-10T11:28:51.644Z</time></trkpt><trkpt lat="42.3389907" lon="13.5044459"><ele>715.0</ele><time>2026-04-10T11:28:52.651Z</time></trkpt><trkpt lat="42.3388978" lon="13.5045762"><ele>715.0</ele><time>2026-04-10T11:28:53.655Z</time></trkpt><trkpt lat="42.3388272" lon="13.5047398"><ele>715.0</ele><time>2026-04-10T11:28:54.647Z</time></trkpt><trkpt lat="42.3387643" lon="13.5048878"><ele>714.0</ele><time>2026-04-10T11:28:55.635Z</time></trkpt><trkpt lat="42.3387074" lon="13.5050291"><ele>713.0</ele><time>2026-04-10T11:28:56.64Z</time></trkpt><trkpt lat="42.3386656" lon="13.5051528"><ele>712.0</ele><time>2026-04-10T11:28:57.64Z</time></trkpt><trkpt lat="42.3386311" lon="13.505269"><ele>711.0</ele><time>2026-04-10T11:28:58.634Z</time></trkpt><trkpt lat="42.3386811" lon="13.5053277"><ele>710.0</ele><time>2026-04-10T11:29:01.627Z</time></trkpt><trkpt lat="42.3387858" lon="13.5052796"><ele>710.0</ele><time>2026-04-10T11:29:03.658Z</time></trkpt><trkpt lat="42.3388666" lon="13.5052785"><ele>710.0</ele><time>2026-04-10T11:29:04.655Z</time></trkpt><trkpt lat="42.3389569" lon="13.5053138"><ele>710.0</ele><time>2026-04-10T11:29:05.651Z</time></trkpt><trkpt lat="42.3390429" lon="13.5053747"><ele>710.0</ele><time>2026-04-10T11:29:06.646Z</time></trkpt><trkpt lat="42.3391229" lon="13.5054462"><ele>710.0</ele><time>2026-04-10T11:29:07.648Z</time></trkpt><trkpt lat="42.3392053" lon="13.5055117"><ele>712.4</ele><time>2026-04-10T11:29:08.646Z</time></trkpt><trkpt lat="42.3392746" lon="13.505588"><ele>714.8</ele><time>2026-04-10T11:29:09.642Z</time></trkpt><trkpt lat="42.3393288" lon="13.505674"><ele>717.2</ele><time>2026-04-10T11:29:10.643Z</time></trkpt><trkpt lat="42.3393792" lon="13.5057379"><ele>719.6</ele><time>2026-04-10T11:29:11.637Z</time></trkpt><trkpt lat="42.3394869" lon="13.5057841"><ele>722.0</ele><time>2026-04-10T11:29:13.636Z</time></trkpt><trkpt lat="42.339576" lon="13.5057363"><ele>722.0</ele><time>2026-04-10T11:29:14.637Z</time></trkpt><trkpt lat="42.339666" lon="13.5056713"><ele>722.0</ele><time>2026-04-10T11:29:15.627Z</time></trkpt><trkpt lat="42.3397645" lon="13.5055903"><ele>722.0</ele><time>2026-04-10T11:29:16.627Z</time></trkpt><trkpt lat="42.3398452" lon="13.5055114"><ele>722.0</ele><time>2026-04-10T11:29:17.632Z</time></trkpt><trkpt lat="42.3399074" lon="13.5054556"><ele>722.0</ele><time>2026-04-10T11:29:18.624Z</time></trkpt><trkpt lat="42.3399613" lon="13.5054053"><ele>725.4000000000001</ele><time>2026-04-10T11:29:19.622Z</time></trkpt><trkpt lat="42.3400552" lon="13.5055212"><ele>728.8000000000001</ele><time>2026-04-10T11:29:21.629Z</time></trkpt><trkpt lat="42.3400678" lon="13.5056356"><ele>732.2</ele><time>2026-04-10T11:29:22.625Z</time></trkpt><trkpt lat="42.3400761" lon="13.5057444"><ele>735.6</ele><time>2026-04-10T11:29:23.618Z</time></trkpt><trkpt lat="42.3400748" lon="13.5058584"><ele>739.0</ele><time>2026-04-10T11:29:24.616Z</time></trkpt><trkpt lat="42.3400791" lon="13.5059675"><ele>739.0</ele><time>2026-04-10T11:29:25.619Z</time></trkpt><trkpt lat="42.3400903" lon="13.5060733"><ele>739.0</ele><time>2026-04-10T11:29:26.626Z</time></trkpt><trkpt lat="42.3401344" lon="13.5061393"><ele>739.0</ele><time>2026-04-10T11:29:27.632Z</time></trkpt><trkpt lat="42.3401809" lon="13.5062045"><ele>739.0</ele><time>2026-04-10T11:29:28.629Z</time></trkpt><trkpt lat="42.3402009" lon="13.5062936"><ele>739.0</ele><time>2026-04-10T11:29:29.634Z</time></trkpt><trkpt lat="42.3402164" lon="13.5064078"><ele>739.0</ele><time>2026-04-10T11:29:30.634Z</time></trkpt><trkpt lat="42.3402303" lon="13.5065281"><ele>741.2</ele><time>2026-04-10T11:29:31.64Z</time></trkpt><trkpt lat="42.3402359" lon="13.5066507"><ele>743.4000000000001</ele><time>2026-04-10T11:29:32.624Z</time></trkpt><trkpt lat="42.3402273" lon="13.5067753"><ele>745.6</ele><time>2026-04-10T11:29:33.629Z</time></trkpt><trkpt lat="42.3402076" lon="13.5069033"><ele>747.8</ele><time>2026-04-10T11:29:34.627Z</time></trkpt><trkpt lat="42.3401662" lon="13.5070298"><ele>750.0</ele><time>2026-04-10T11:29:35.616Z</time></trkpt><trkpt lat="42.3400841" lon="13.507168"><ele>751.8</ele><time>2026-04-10T11:29:36.621Z</time></trkpt><trkpt lat="42.3400265" lon="13.507279"><ele>753.6</ele><time>2026-04-10T11:29:37.617Z</time></trkpt><trkpt lat="42.3399686" lon="13.507411"><ele>755.4000000000001</ele><time>2026-04-10T11:29:38.617Z</time></trkpt><trkpt lat="42.3399006" lon="13.5075025"><ele>757.2</ele><time>2026-04-10T11:29:39.615Z</time></trkpt><trkpt lat="42.3398346" lon="13.5075931"><ele>759.0</ele><time>2026-04-10T11:29:41.616Z</time></trkpt><trkpt lat="42.3398978" lon="13.5076534"><ele>759.0</ele><time>2026-04-10T11:29:43.602Z</time></trkpt><trkpt lat="42.3399873" lon="13.5076806"><ele>759.0</ele><time>2026-04-10T11:29:45.604Z</time></trkpt><trkpt lat="42.3400682" lon="13.5077172"><ele>759.0</ele><time>2026-04-10T11:29:46.613Z</time></trkpt><trkpt lat="42.3401361" lon="13.507838"><ele>759.0</ele><time>2026-04-10T11:29:48.61Z</time></trkpt><trkpt lat="42.3401881" lon="13.5079033"><ele>759.0</ele><time>2026-04-10T11:29:49.609Z</time></trkpt><trkpt lat="42.3402439" lon="13.5079996"><ele>760.2</ele><time>2026-04-10T11:29:50.622Z</time></trkpt><trkpt lat="42.3402876" lon="13.508112"><ele>761.4000000000001</ele><time>2026-04-10T11:29:51.63Z</time></trkpt><trkpt lat="42.340326" lon="13.5082373"><ele>762.6</ele><time>2026-04-10T11:29:52.618Z</time></trkpt><trkpt lat="42.340364" lon="13.5083633"><ele>763.8</ele><time>2026-04-10T11:29:53.616Z</time></trkpt><trkpt lat="42.3404053" lon="13.508461"><ele>765.0</ele><time>2026-04-10T11:29:54.61Z</time></trkpt><trkpt lat="42.3405434" lon="13.5084896"><ele>770.5</ele><time>2026-04-10T11:29:56.618Z</time></trkpt><trkpt lat="42.3406587" lon="13.5085042"><ele>776.0</ele><time>2026-04-10T11:29:57.609Z</time></trkpt><trkpt lat="42.3407619" lon="13.5084309"><ele>781.5</ele><time>2026-04-10T11:29:58.603Z</time></trkpt><trkpt lat="42.3408952" lon="13.5084036"><ele>787.0</ele><time>2026-04-10T11:29:59.609Z</time></trkpt><trkpt lat="42.3410339" lon="13.5083671"><ele>787.0</ele><time>2026-04-10T11:30:00.61Z</time></trkpt><trkpt lat="42.3411393" lon="13.5083094"><ele>787.0</ele><time>2026-04-10T11:30:01.606Z</time></trkpt><trkpt lat="42.3412482" lon="13.5082853"><ele>787.0</ele><time>2026-04-10T11:30:02.602Z</time></trkpt><trkpt lat="42.341325" lon="13.5082579"><ele>787.0</ele><time>2026-04-10T11:30:03.608Z</time></trkpt><trkpt lat="42.3414014" lon="13.5082357"><ele>787.0</ele><time>2026-04-10T11:30:04.605Z</time></trkpt><trkpt lat="42.3414843" lon="13.5082291"><ele>789.8333333333333</ele><time>2026-04-10T11:30:05.6Z</time></trkpt><trkpt lat="42.3415859" lon="13.5082109"><ele>792.6666666666666</ele><time>2026-04-10T11:30:06.618Z</time></trkpt><trkpt lat="42.341674" lon="13.5081978"><ele>795.5</ele><time>2026-04-10T11:30:07.604Z</time></trkpt><trkpt lat="42.3417626" lon="13.5082052"><ele>798.3333333333333</ele><time>2026-04-10T11:30:08.608Z</time></trkpt><trkpt lat="42.3418404" lon="13.5081936"><ele>801.1666666666666</ele><time>2026-04-10T11:30:09.614Z</time></trkpt><trkpt lat="42.3419162" lon="13.5081834"><ele>804.0</ele><time>2026-04-10T11:30:10.609Z</time></trkpt><trkpt lat="42.3419925" lon="13.508182"><ele>804.0</ele><time>2026-04-10T11:30:11.607Z</time></trkpt><trkpt lat="42.342056" lon="13.5081832"><ele>804.0</ele><time>2026-04-10T11:30:12.607Z</time></trkpt><trkpt lat="42.3421293" lon="13.5082867"><ele>804.0</ele><time>2026-04-10T11:30:14.609Z</time></trkpt><trkpt lat="42.3421054" lon="13.5084001"><ele>804.0</ele><time>2026-04-10T11:30:15.613Z</time></trkpt><trkpt lat="42.3420106" lon="13.5085375"><ele>804.0</ele><time>2026-04-10T11:30:16.611Z</time></trkpt><trkpt lat="42.3419432" lon="13.5087056"><ele>807.2</ele><time>2026-04-10T11:30:17.61Z</time></trkpt><trkpt lat="42.3418916" lon="13.5088328"><ele>810.4000000000001</ele><time>2026-04-10T11:30:18.613Z</time></trkpt><trkpt lat="42.3418252" lon="13.5089544"><ele>813.6</ele><time>2026-04-10T11:30:19.61Z</time></trkpt><trkpt lat="42.341729" lon="13.5090502"><ele>816.8</ele><time>2026-04-10T11:30:20.609Z</time></trkpt><trkpt lat="42.3416657" lon="13.5091174"><ele>820.0</ele><time>2026-04-10T11:30:21.617Z</time></trkpt><trkpt lat="42.3415988" lon="13.5092022"><ele>820.0</ele><time>2026-04-10T11:30:22.616Z</time></trkpt><trkpt lat="42.3414875" lon="13.5092842"><ele>820.0</ele><time>2026-04-10T11:30:23.62Z</time></trkpt><trkpt lat="42.3414598" lon="13.5093829"><ele>820.0</ele><time>2026-04-10T11:30:25.63Z</time></trkpt><trkpt lat="42.3415477" lon="13.5094512"><ele>820.0</ele><time>2026-04-10T11:30:27.626Z</time></trkpt><trkpt lat="42.3416272" lon="13.5094769"><ele>820.0</ele><time>2026-04-10T11:30:29.643Z</time></trkpt><trkpt lat="42.3416978" lon="13.5094931"><ele>820.0</ele><time>2026-04-10T11:30:31.639Z</time></trkpt><trkpt lat="42.3417574" lon="13.5095519"><ele>820.0</ele><time>2026-04-10T11:30:33.633Z</time></trkpt><trkpt lat="42.3418376" lon="13.5096319"><ele>820.0</ele><time>2026-04-10T11:30:35.632Z</time></trkpt><trkpt lat="42.3418874" lon="13.5096851"><ele>820.0</ele><time>2026-04-10T11:30:36.626Z</time></trkpt><trkpt lat="42.3419379" lon="13.5097513"><ele>820.0</ele><time>2026-04-10T11:30:37.621Z</time></trkpt><trkpt lat="42.3419954" lon="13.5098109"><ele>820.0</ele><time>2026-04-10T11:30:38.619Z</time></trkpt><trkpt lat="42.3420425" lon="13.5098753"><ele>820.0</ele><time>2026-04-10T11:30:39.622Z</time></trkpt><trkpt lat="42.3420825" lon="13.5099642"><ele>822.1666666666666</ele><time>2026-04-10T11:30:40.617Z</time></trkpt><trkpt lat="42.3421029" lon="13.5100997"><ele>824.3333333333333</ele><time>2026-04-10T11:30:42.618Z</time></trkpt><trkpt lat="42.3420401" lon="13.5101658"><ele>826.5</ele><time>2026-04-10T11:30:44.621Z</time></trkpt><trkpt lat="42.3419792" lon="13.5101438"><ele>828.6666666666667</ele><time>2026-04-10T11:45:30.64Z</time></trkpt><trkpt lat="42.3419285" lon="13.5102874"><ele>830.8333333333334</ele><time>2026-04-10T11:45:33.639Z</time></trkpt><trkpt lat="42.3419057" lon="13.5103957"><ele>833.0</ele><time>2026-04-10T11:45:34.636Z</time></trkpt><trkpt lat="42.3418782" lon="13.5105136"><ele>835.8</ele><time>2026-04-10T11:45:35.628Z</time></trkpt><trkpt lat="42.3418445" lon="13.5106291"><ele>838.5999999999999</ele><time>2026-04-10T11:45:36.62Z</time></trkpt><trkpt lat="42.3417916" lon="13.5107356"><ele>841.4000000000001</ele><time>2026-04-10T11:45:37.612Z</time></trkpt><trkpt lat="42.3417505" lon="13.5108721"><ele>844.2</ele><time>2026-04-10T11:45:38.616Z</time></trkpt><trkpt lat="42.3417151" lon="13.5109871"><ele>847.0</ele><time>2026-04-10T11:45:39.622Z</time></trkpt><trkpt lat="42.3416789" lon="13.5111314"><ele>849.0</ele><time>2026-04-10T11:45:40.624Z</time></trkpt><trkpt lat="42.3416686" lon="13.5112768"><ele>851.0</ele><time>2026-04-10T11:45:41.627Z</time></trkpt><trkpt lat="42.3416563" lon="13.5113993"><ele>853.0</ele><time>2026-04-10T11:45:42.625Z</time></trkpt><trkpt lat="42.3416355" lon="13.5115099"><ele>855.0</ele><time>2026-04-10T11:45:43.627Z</time></trkpt><trkpt lat="42.3417276" lon="13.5114832"><ele>857.0</ele><time>2026-04-10T11:45:44.633Z</time></trkpt><trkpt lat="42.3418185" lon="13.5114896"><ele>857.0000000000001</ele><time>2026-04-10T11:45:45.635Z</time></trkpt><trkpt lat="42.3418993" lon="13.5114741"><ele>857.0</ele><time>2026-04-10T11:45:46.639Z</time></trkpt><trkpt lat="42.3419767" lon="13.5114417"><ele>857.0</ele><time>2026-04-10T11:45:47.641Z</time></trkpt><trkpt lat="42.3420619" lon="13.5114368"><ele>857.0</ele><time>2026-04-10T11:45:48.641Z</time></trkpt><trkpt lat="42.3421266" lon="13.5114301"><ele>857.0000000000001</ele><time>2026-04-10T11:45:49.628Z</time></trkpt><trkpt lat="42.3421831" lon="13.5115674"><ele>857.0</ele><time>2026-04-10T11:45:51.638Z</time></trkpt><trkpt lat="42.3422453" lon="13.5116555"><ele>860.0</ele><time>2026-04-10T11:45:52.64Z</time></trkpt><trkpt lat="42.3423332" lon="13.5117273"><ele>863.0</ele><time>2026-04-10T11:45:54.631Z</time></trkpt><trkpt lat="42.3423635" lon="13.5116063"><ele>866.0</ele><time>2026-04-10T11:46:14.666Z</time></trkpt><trkpt lat="42.3424034" lon="13.5115389"><ele>869.0</ele><time>2026-04-10T11:46:15.662Z</time></trkpt><trkpt lat="42.3424548" lon="13.5114356"><ele>872.0</ele><time>2026-04-10T11:46:16.659Z</time></trkpt><trkpt lat="42.3425148" lon="13.5113196"><ele>869.8</ele><time>2026-04-10T11:46:17.66Z</time></trkpt><trkpt lat="42.342585" lon="13.5112069"><ele>867.6</ele><time>2026-04-10T11:46:18.663Z</time></trkpt><trkpt lat="42.3426589" lon="13.511086"><ele>865.3999999999999</ele><time>2026-04-10T11:46:19.661Z</time></trkpt><trkpt lat="42.3427351" lon="13.5109684"><ele>863.1999999999999</ele><time>2026-04-10T11:46:20.662Z</time></trkpt><trkpt lat="42.3428082" lon="13.510861"><ele>861.0</ele><time>2026-04-10T11:46:21.656Z</time></trkpt><trkpt lat="42.3428794" lon="13.5107619"><ele>861.0</ele><time>2026-04-10T11:46:22.652Z</time></trkpt><trkpt lat="42.342947" lon="13.5106781"><ele>861.0</ele><time>2026-04-10T11:46:23.65Z</time></trkpt><trkpt lat="42.3430215" lon="13.5106081"><ele>861.0</ele><time>2026-04-10T11:46:24.644Z</time></trkpt><trkpt lat="42.3430832" lon="13.5105234"><ele>861.0</ele><time>2026-04-10T11:46:25.639Z</time></trkpt><trkpt lat="42.3431382" lon="13.5104275"><ele>861.0</ele><time>2026-04-10T11:46:26.643Z</time></trkpt><trkpt lat="42.343194" lon="13.5103475"><ele>861.0</ele><time>2026-04-10T11:46:27.635Z</time></trkpt><trkpt lat="42.3432454" lon="13.5102483"><ele>861.3333333333334</ele><time>2026-04-10T11:46:28.631Z</time></trkpt><trkpt lat="42.3433014" lon="13.5101653"><ele>861.6666666666667</ele><time>2026-04-10T11:46:29.64Z</time></trkpt><trkpt lat="42.3433625" lon="13.5100993"><ele>862.0</ele><time>2026-04-10T11:46:30.633Z</time></trkpt><trkpt lat="42.3434235" lon="13.5100199"><ele>862.3333333333334</ele><time>2026-04-10T11:46:31.641Z</time></trkpt><trkpt lat="42.3434885" lon="13.5099301"><ele>862.6666666666667</ele><time>2026-04-10T11:46:32.633Z</time></trkpt><trkpt lat="42.3435603" lon="13.5098356"><ele>863.0</ele><time>2026-04-10T11:46:33.633Z</time></trkpt><trkpt lat="42.3436287" lon="13.5097317"><ele>863.0</ele><time>2026-04-10T11:46:34.637Z</time></trkpt><trkpt lat="42.3437009" lon="13.5096207"><ele>863.0</ele><time>2026-04-10T11:46:35.634Z</time></trkpt><trkpt lat="42.3437895" lon="13.5095017"><ele>863.0</ele><time>2026-04-10T11:46:36.628Z</time></trkpt><trkpt lat="42.3438841" lon="13.5093805"><ele>863.0</ele><time>2026-04-10T11:46:37.629Z</time></trkpt><trkpt lat="42.3439742" lon="13.5092541"><ele>862.25</ele><time>2026-04-10T11:46:38.63Z</time></trkpt><trkpt lat="42.344061" lon="13.5091132"><ele>861.5</ele><time>2026-04-10T11:46:39.625Z</time></trkpt><trkpt lat="42.3441607" lon="13.5089747"><ele>860.75</ele><time>2026-04-10T11:46:40.632Z</time></trkpt><trkpt lat="42.3442624" lon="13.5088345"><ele>860.0</ele><time>2026-04-10T11:46:41.634Z</time></trkpt><trkpt lat="42.344375" lon="13.5086833"><ele>860.0</ele><time>2026-04-10T11:46:42.634Z</time></trkpt><trkpt lat="42.3444584" lon="13.5085663"><ele>860.0</ele><time>2026-04-10T11:46:43.639Z</time></trkpt><trkpt lat="42.3445146" lon="13.5084679"><ele>860.0</ele><time>2026-04-10T11:46:44.637Z</time></trkpt><trkpt lat="42.3445863" lon="13.5083923"><ele>860.0</ele><time>2026-04-10T11:46:45.647Z</time></trkpt><trkpt lat="42.344651" lon="13.5083157"><ele>860.0</ele><time>2026-04-10T11:46:46.642Z</time></trkpt><trkpt lat="42.3447061" lon="13.5082404"><ele>861.5000000000001</ele><time>2026-04-10T11:46:47.647Z</time></trkpt><trkpt lat="42.3447596" lon="13.5081268"><ele>863.0</ele><time>2026-04-10T11:46:48.645Z</time></trkpt><trkpt lat="42.3448143" lon="13.5080415"><ele>864.5</ele><time>2026-04-10T11:46:49.641Z</time></trkpt><trkpt lat="42.3448759" lon="13.5079863"><ele>866.0</ele><time>2026-04-10T11:46:50.647Z</time></trkpt><trkpt lat="42.3449615" lon="13.5079828"><ele>867.5000000000001</ele><time>2026-04-10T11:46:52.648Z</time></trkpt><trkpt lat="42.3450298" lon="13.5080633"><ele>869.0</ele><time>2026-04-10T11:46:54.642Z</time></trkpt><trkpt lat="42.3450739" lon="13.508225"><ele>869.0000000000001</ele><time>2026-04-10T11:46:56.659Z</time></trkpt><trkpt lat="42.3450776" lon="13.5083283"><ele>869.0</ele><time>2026-04-10T11:46:57.654Z</time></trkpt><trkpt lat="42.3450781" lon="13.5084459"><ele>869.0</ele><time>2026-04-10T11:46:58.648Z</time></trkpt><trkpt lat="42.3450706" lon="13.5085698"><ele>869.0</ele><time>2026-04-10T11:46:59.647Z</time></trkpt><trkpt lat="42.3450517" lon="13.5086823"><ele>869.0000000000001</ele><time>2026-04-10T11:47:00.635Z</time></trkpt><trkpt lat="42.3450229" lon="13.5087903"><ele>869.0</ele><time>2026-04-10T11:47:01.632Z</time></trkpt><trkpt lat="42.3450058" lon="13.5088841"><ele>870.8333333333334</ele><time>2026-04-10T11:47:02.625Z</time></trkpt><trkpt lat="42.3449942" lon="13.5089728"><ele>872.6666666666667</ele><time>2026-04-10T11:47:03.621Z</time></trkpt><trkpt lat="42.3450383" lon="13.5091015"><ele>874.5</ele><time>2026-04-10T11:47:05.615Z</time></trkpt><trkpt lat="42.345118" lon="13.5092043"><ele>876.3333333333333</ele><time>2026-04-10T11:47:07.609Z</time></trkpt><trkpt lat="42.3451822" lon="13.5092786"><ele>878.1666666666666</ele><time>2026-04-10T11:47:08.622Z</time></trkpt><trkpt lat="42.3452487" lon="13.5093379"><ele>880.0</ele><time>2026-04-10T11:47:09.619Z</time></trkpt><trkpt lat="42.3453184" lon="13.5094116"><ele>879.9999999999999</ele><time>2026-04-10T11:47:10.615Z</time></trkpt><trkpt lat="42.3453829" lon="13.5094423"><ele>880.0</ele><time>2026-04-10T11:47:11.615Z</time></trkpt><trkpt lat="42.3454593" lon="13.5094905"><ele>880.0</ele><time>2026-04-10T11:47:12.613Z</time></trkpt><trkpt lat="42.3455086" lon="13.509557"><ele>880.0</ele><time>2026-04-10T11:47:13.617Z</time></trkpt><trkpt lat="42.3455616" lon="13.5096528"><ele>879.9999999999999</ele><time>2026-04-10T11:47:14.619Z</time></trkpt><trkpt lat="42.3456033" lon="13.5097454"><ele>880.0</ele><time>2026-04-10T11:47:15.623Z</time></trkpt><trkpt lat="42.345649" lon="13.5098466"><ele>883.0</ele><time>2026-04-10T11:47:16.624Z</time></trkpt><trkpt lat="42.3456949" lon="13.5099515"><ele>886.0</ele><time>2026-04-10T11:47:17.613Z</time></trkpt><trkpt lat="42.3457516" lon="13.5100333"><ele>889.0</ele><time>2026-04-10T11:47:18.612Z</time></trkpt><trkpt lat="42.3458235" lon="13.5101278"><ele>892.0</ele><time>2026-04-10T11:47:19.613Z</time></trkpt><trkpt lat="42.3459052" lon="13.5102077"><ele>895.0</ele><time>2026-04-10T11:47:20.612Z</time></trkpt><trkpt lat="42.3459724" lon="13.5102743"><ele>895.0</ele><time>2026-04-10T11:47:21.62Z</time></trkpt><trkpt lat="42.3460259" lon="13.5103466"><ele>895.0</ele><time>2026-04-10T11:47:22.621Z</time></trkpt><trkpt lat="42.3460936" lon="13.5104177"><ele>895.0</ele><time>2026-04-10T11:47:23.627Z</time></trkpt><trkpt lat="42.3461763" lon="13.5104801"><ele>895.0</ele><time>2026-04-10T11:47:24.629Z</time></trkpt><trkpt lat="42.3462644" lon="13.5103499"><ele>895.0</ele><time>2026-04-10T11:47:26.642Z</time></trkpt><trkpt lat="42.346377" lon="13.5103063"><ele>897.2</ele><time>2026-04-10T11:47:27.64Z</time></trkpt><trkpt lat="42.3464845" lon="13.5102685"><ele>899.4</ele><time>2026-04-10T11:47:28.637Z</time></trkpt><trkpt lat="42.3465787" lon="13.5101868"><ele>901.5999999999999</ele><time>2026-04-10T11:47:29.637Z</time></trkpt><trkpt lat="42.3466577" lon="13.5101214"><ele>903.8</ele><time>2026-04-10T11:47:30.64Z</time></trkpt><trkpt lat="42.3467326" lon="13.5100533"><ele>906.0</ele><time>2026-04-10T11:47:31.645Z</time></trkpt><trkpt lat="42.3467896" lon="13.5099695"><ele>906.0</ele><time>2026-04-10T11:47:32.639Z</time></trkpt><trkpt lat="42.3468547" lon="13.5098961"><ele>906.0</ele><time>2026-04-10T11:47:33.64Z</time></trkpt><trkpt lat="42.3469164" lon="13.5098249"><ele>906.0</ele><time>2026-04-10T11:47:34.655Z</time></trkpt><trkpt lat="42.3469802" lon="13.5097682"><ele>906.0</ele><time>2026-04-10T11:47:35.649Z</time></trkpt><trkpt lat="42.3470582" lon="13.5097205"><ele>906.0</ele><time>2026-04-10T11:47:36.654Z</time></trkpt><trkpt lat="42.3471386" lon="13.5096777"><ele>906.0</ele><time>2026-04-10T11:47:37.656Z</time></trkpt><trkpt lat="42.3472159" lon="13.5096433"><ele>906.0</ele><time>2026-04-10T11:47:38.648Z</time></trkpt><trkpt lat="42.347301" lon="13.5096122"><ele>905.9999999999999</ele><time>2026-04-10T11:47:39.653Z</time></trkpt><trkpt lat="42.3473873" lon="13.5095684"><ele>905.9999999999999</ele><time>2026-04-10T11:47:40.655Z</time></trkpt><trkpt lat="42.3474817" lon="13.5095303"><ele>906.0</ele><time>2026-04-10T11:47:41.647Z</time></trkpt><trkpt lat="42.3475751" lon="13.5094787"><ele>906.0</ele><time>2026-04-10T11:47:42.646Z</time></trkpt><trkpt lat="42.3476301" lon="13.50941"><ele>905.9999999999999</ele><time>2026-04-10T11:47:43.649Z</time></trkpt><trkpt lat="42.3476869" lon="13.5093277"><ele>906.0</ele><time>2026-04-10T11:47:44.649Z</time></trkpt><trkpt lat="42.3477474" lon="13.5092497"><ele>905.9999999999999</ele><time>2026-04-10T11:47:45.643Z</time></trkpt><trkpt lat="42.34779" lon="13.5091729"><ele>905.9999999999999</ele><time>2026-04-10T11:47:46.639Z</time></trkpt><trkpt lat="42.3478338" lon="13.5091097"><ele>906.0</ele><time>2026-04-10T11:47:47.631Z</time></trkpt><trkpt lat="42.3478967" lon="13.5090516"><ele>905.9999999999999</ele><time>2026-04-10T11:47:49.641Z</time></trkpt><trkpt lat="42.3479457" lon="13.5091091"><ele>905.9999999999999</ele><time>2026-04-10T11:47:50.641Z</time></trkpt><trkpt lat="42.3480026" lon="13.5091973"><ele>905.5</ele><time>2026-04-10T11:47:51.635Z</time></trkpt><trkpt lat="42.3480621" lon="13.5092814"><ele>905.0</ele><time>2026-04-10T11:47:52.646Z</time></trkpt><trkpt lat="42.3481273" lon="13.5093505"><ele>904.5</ele><time>2026-04-10T11:47:53.628Z</time></trkpt><trkpt lat="42.3481594" lon="13.5094384"><ele>904.0</ele><time>2026-04-10T11:47:54.629Z</time></trkpt><trkpt lat="42.3481869" lon="13.5095165"><ele>903.5</ele><time>2026-04-10T11:47:55.632Z</time></trkpt><trkpt lat="42.3482531" lon="13.5095936"><ele>903.0</ele><time>2026-04-10T11:47:58.624Z</time></trkpt><trkpt lat="42.3482855" lon="13.5097009"><ele>905.6666666666666</ele><time>2026-04-10T11:48:00.627Z</time></trkpt><trkpt lat="42.3482749" lon="13.5098066"><ele>908.3333333333333</ele><time>2026-04-10T11:48:01.636Z</time></trkpt><trkpt lat="42.3482558" lon="13.5099279"><ele>911.0</ele><time>2026-04-10T11:48:02.627Z</time></trkpt><trkpt lat="42.348247" lon="13.5100515"><ele>913.6666666666666</ele><time>2026-04-10T11:48:03.626Z</time></trkpt><trkpt lat="42.3482294" lon="13.5101784"><ele>916.3333333333333</ele><time>2026-04-10T11:48:04.636Z</time></trkpt><trkpt lat="42.3482349" lon="13.5102773"><ele>919.0</ele><time>2026-04-10T11:48:05.629Z</time></trkpt><trkpt lat="42.3482202" lon="13.5103708"><ele>920.7142857142857</ele><time>2026-04-10T11:48:06.633Z</time></trkpt><trkpt lat="42.3482159" lon="13.5104636"><ele>922.4285714285713</ele><time>2026-04-10T11:48:07.637Z</time></trkpt><trkpt lat="42.3482187" lon="13.5105635"><ele>924.1428571428571</ele><time>2026-04-10T11:48:08.635Z</time></trkpt><trkpt lat="42.3482468" lon="13.5106992"><ele>925.8571428571429</ele><time>2026-04-10T11:48:10.628Z</time></trkpt><trkpt lat="42.3482421" lon="13.5107868"><ele>927.5714285714286</ele><time>2026-04-10T11:48:12.631Z</time></trkpt><trkpt lat="42.3482082" lon="13.5107129"><ele>929.2857142857142</ele><time>2026-04-10T11:48:17.646Z</time></trkpt><trkpt lat="42.3481487" lon="13.5106605"><ele>931.0</ele><time>2026-04-10T11:48:49.658Z</time></trkpt><trkpt lat="42.348224" lon="13.5106963"><ele>931.0</ele><time>2026-04-10T11:48:56.653Z</time></trkpt><trkpt lat="42.3482879" lon="13.5106251"><ele>930.9999999999999</ele><time>2026-04-10T11:48:58.631Z</time></trkpt><trkpt lat="42.3482902" lon="13.5105085"><ele>930.9999999999999</ele><time>2026-04-10T11:48:59.636Z</time></trkpt><trkpt lat="42.3483095" lon="13.5103843"><ele>931.0</ele><time>2026-04-10T11:49:00.629Z</time></trkpt><trkpt lat="42.3483014" lon="13.5102506"><ele>931.0</ele><time>2026-04-10T11:49:01.629Z</time></trkpt><trkpt lat="42.3483023" lon="13.5101301"><ele>928.0</ele><time>2026-04-10T11:49:02.627Z</time></trkpt><trkpt lat="42.3482687" lon="13.5099845"><ele>925.0</ele><time>2026-04-10T11:49:04.625Z</time></trkpt><trkpt lat="42.3482625" lon="13.5098206"><ele>922.0</ele><time>2026-04-10T11:49:06.631Z</time></trkpt><trkpt lat="42.3482518" lon="13.5096536"><ele>919.0</ele><time>2026-04-10T11:49:08.628Z</time></trkpt><trkpt lat="42.3482482" lon="13.5095233"><ele>915.8000000000001</ele><time>2026-04-10T11:49:10.62Z</time></trkpt><trkpt lat="42.3482173" lon="13.5094236"><ele>912.6000000000001</ele><time>2026-04-10T11:49:11.643Z</time></trkpt><trkpt lat="42.34816" lon="13.5093745"><ele>909.4</ele><time>2026-04-10T11:49:12.638Z</time></trkpt><trkpt lat="42.3480894" lon="13.5093353"><ele>906.2</ele><time>2026-04-10T11:49:14.647Z</time></trkpt><trkpt lat="42.3482007" lon="13.5093344"><ele>903.0</ele><time>2026-04-10T11:49:20.642Z</time></trkpt><trkpt lat="42.3483136" lon="13.5093589"><ele>903.0</ele><time>2026-04-10T11:49:22.635Z</time></trkpt><trkpt lat="42.3484387" lon="13.5093871"><ele>903.0</ele><time>2026-04-10T11:49:24.628Z</time></trkpt><trkpt lat="42.3485434" lon="13.5094463"><ele>903.0</ele><time>2026-04-10T11:49:25.622Z</time></trkpt><trkpt lat="42.3486411" lon="13.5094836"><ele>903.0</ele><time>2026-04-10T11:49:26.622Z</time></trkpt><trkpt lat="42.3487405" lon="13.509538"><ele>903.0</ele><time>2026-04-10T11:49:27.621Z</time></trkpt><trkpt lat="42.3488357" lon="13.5096072"><ele>906.75</ele><time>2026-04-10T11:49:28.618Z</time></trkpt><trkpt lat="42.3489635" lon="13.5097055"><ele>910.5</ele><time>2026-04-10T11:49:29.638Z</time></trkpt><trkpt lat="42.3490671" lon="13.5097763"><ele>914.25</ele><time>2026-04-10T11:49:30.631Z</time></trkpt><trkpt lat="42.3491818" lon="13.5098715"><ele>918.0</ele><time>2026-04-10T11:49:31.632Z</time></trkpt><trkpt lat="42.3493223" lon="13.5099358"><ele>918.0</ele><time>2026-04-10T11:49:32.625Z</time></trkpt><trkpt lat="42.3494388" lon="13.5099785"><ele>918.0</ele><time>2026-04-10T11:49:33.618Z</time></trkpt><trkpt lat="42.3495521" lon="13.5099722"><ele>918.0</ele><time>2026-04-10T11:49:34.62Z</time></trkpt><trkpt lat="42.3496302" lon="13.5099416"><ele>918.0</ele><time>2026-04-10T11:49:35.612Z</time></trkpt><trkpt lat="42.3496822" lon="13.5098502"><ele>918.0</ele><time>2026-04-10T11:49:37.61Z</time></trkpt><trkpt lat="42.3496652" lon="13.5097542"><ele>918.0</ele><time>2026-04-10T11:49:38.609Z</time></trkpt><trkpt lat="42.3496347" lon="13.5096203"><ele>918.0</ele><time>2026-04-10T11:49:39.62Z</time></trkpt><trkpt lat="42.349554" lon="13.5093994"><ele>918.0</ele><time>2026-04-10T11:49:40.621Z</time></trkpt><trkpt lat="42.3494645" lon="13.5091819"><ele>916.75</ele><time>2026-04-10T11:49:41.628Z</time></trkpt><trkpt lat="42.3494096" lon="13.5089511"><ele>915.5</ele><time>2026-04-10T11:49:42.63Z</time></trkpt><trkpt lat="42.349379" lon="13.5087655"><ele>914.25</ele><time>2026-04-10T11:49:43.624Z</time></trkpt><trkpt lat="42.349395" lon="13.5086604"><ele>913.0</ele><time>2026-04-10T11:49:44.628Z</time></trkpt><trkpt lat="42.3494187" lon="13.5085751"><ele>911.8</ele><time>2026-04-10T11:49:45.627Z</time></trkpt><trkpt lat="42.3495182" lon="13.5084708"><ele>910.5999999999999</ele><time>2026-04-10T11:49:47.625Z</time></trkpt><trkpt lat="42.349582" lon="13.5084322"><ele>909.4000000000001</ele><time>2026-04-10T11:49:48.622Z</time></trkpt><trkpt lat="42.3496615" lon="13.5084025"><ele>908.2</ele><time>2026-04-10T11:49:49.629Z</time></trkpt><trkpt lat="42.3497542" lon="13.5083928"><ele>907.0</ele><time>2026-04-10T11:49:50.618Z</time></trkpt><trkpt lat="42.3498462" lon="13.5083805"><ele>910.8</ele><time>2026-04-10T11:49:51.622Z</time></trkpt><trkpt lat="42.3499511" lon="13.5083778"><ele>914.6</ele><time>2026-04-10T11:49:52.628Z</time></trkpt><trkpt lat="42.3500735" lon="13.5083758"><ele>918.3999999999999</ele><time>2026-04-10T11:49:53.637Z</time></trkpt><trkpt lat="42.3501719" lon="13.5083542"><ele>922.1999999999999</ele><time>2026-04-10T11:49:54.634Z</time></trkpt><trkpt lat="42.3502927" lon="13.5083475"><ele>926.0</ele><time>2026-04-10T11:49:55.64Z</time></trkpt><trkpt lat="42.350406" lon="13.5083465"><ele>926.0</ele><time>2026-04-10T11:49:56.638Z</time></trkpt><trkpt lat="42.3505094" lon="13.508346"><ele>925.9999999999999</ele><time>2026-04-10T11:49:57.635Z</time></trkpt><trkpt lat="42.3506143" lon="13.5083393"><ele>925.9999999999999</ele><time>2026-04-10T11:49:58.629Z</time></trkpt><trkpt lat="42.350739" lon="13.5083285"><ele>926.0</ele><time>2026-04-10T11:49:59.633Z</time></trkpt><trkpt lat="42.3508317" lon="13.508275"><ele>926.0</ele><time>2026-04-10T11:50:00.63Z</time></trkpt><trkpt lat="42.3509181" lon="13.5082328"><ele>926.0</ele><time>2026-04-10T11:50:01.641Z</time></trkpt><trkpt lat="42.3509488" lon="13.5081445"><ele>925.9999999999999</ele><time>2026-04-10T11:50:02.641Z</time></trkpt><trkpt lat="42.3509959" lon="13.5080709"><ele>926.0</ele><time>2026-04-10T11:50:03.641Z</time></trkpt><trkpt lat="42.3510478" lon="13.5080226"><ele>926.0</ele><time>2026-04-10T11:50:04.64Z</time></trkpt><trkpt lat="42.3511114" lon="13.5079857"><ele>925.9999999999999</ele><time>2026-04-10T11:50:05.646Z</time></trkpt><trkpt lat="42.3511785" lon="13.5079462"><ele>926.0</ele><time>2026-04-10T11:50:06.643Z</time></trkpt><trkpt lat="42.3512593" lon="13.5079026"><ele>926.0</ele><time>2026-04-10T11:50:07.648Z</time></trkpt><trkpt lat="42.3513411" lon="13.5078627"><ele>926.6666666666667</ele><time>2026-04-10T11:50:08.644Z</time></trkpt><trkpt lat="42.3514209" lon="13.5078283"><ele>927.3333333333334</ele><time>2026-04-10T11:50:09.639Z</time></trkpt><trkpt lat="42.3514992" lon="13.5077975"><ele>928.0</ele><time>2026-04-10T11:50:10.646Z</time></trkpt><trkpt lat="42.3515811" lon="13.5077644"><ele>928.6666666666667</ele><time>2026-04-10T11:50:11.641Z</time></trkpt><trkpt lat="42.3516615" lon="13.5077267"><ele>929.3333333333334</ele><time>2026-04-10T11:50:12.64Z</time></trkpt><trkpt lat="42.3517171" lon="13.507686"><ele>930.0</ele><time>2026-04-10T11:50:13.643Z</time></trkpt><trkpt lat="42.3517815" lon="13.5076575"><ele>930.0</ele><time>2026-04-10T11:50:14.646Z</time></trkpt><trkpt lat="42.3518976" lon="13.5076397"><ele>930.0</ele><time>2026-04-10T11:50:16.64Z</time></trkpt><trkpt lat="42.3520289" lon="13.5076438"><ele>930.0</ele><time>2026-04-10T11:50:18.632Z</time></trkpt><trkpt lat="42.352126" lon="13.5076858"><ele>930.0</ele><time>2026-04-10T11:50:19.633Z</time></trkpt><trkpt lat="42.3522127" lon="13.5077376"><ele>930.0</ele><time>2026-04-10T11:50:20.635Z</time></trkpt><trkpt lat="42.3522898" lon="13.5077959"><ele>929.3333333333334</ele><time>2026-04-10T11:50:21.63Z</time></trkpt><trkpt lat="42.3523552" lon="13.5078481"><ele>928.6666666666667</ele><time>2026-04-10T11:50:22.627Z</time></trkpt><trkpt lat="42.3524133" lon="13.507903"><ele>928.0</ele><time>2026-04-10T11:50:23.624Z</time></trkpt><trkpt lat="42.3524732" lon="13.5079472"><ele>927.3333333333334</ele><time>2026-04-10T11:50:24.627Z</time></trkpt><trkpt lat="42.3525402" lon="13.507981"><ele>926.6666666666667</ele><time>2026-04-10T11:50:25.627Z</time></trkpt><trkpt lat="42.3526315" lon="13.5079574"><ele>926.0</ele><time>2026-04-10T11:50:26.631Z</time></trkpt><trkpt lat="42.3527231" lon="13.5079324"><ele>926.0</ele><time>2026-04-10T11:50:27.623Z</time></trkpt><trkpt lat="42.3528272" lon="13.507871"><ele>926.0</ele><time>2026-04-10T11:50:28.625Z</time></trkpt><trkpt lat="42.352935" lon="13.5078276"><ele>926.0</ele><time>2026-04-10T11:50:29.631Z</time></trkpt><trkpt lat="42.3530575" lon="13.5077914"><ele>926.0</ele><time>2026-04-10T11:50:30.621Z</time></trkpt><trkpt lat="42.3531578" lon="13.5077799"><ele>925.3333333333334</ele><time>2026-04-10T11:50:31.625Z</time></trkpt><trkpt lat="42.3532396" lon="13.5077919"><ele>924.6666666666667</ele><time>2026-04-10T11:50:32.622Z</time></trkpt><trkpt lat="42.3533112" lon="13.5078133"><ele>924.0</ele><time>2026-04-10T11:50:33.628Z</time></trkpt><trkpt lat="42.3533835" lon="13.5078477"><ele>923.3333333333333</ele><time>2026-04-10T11:50:34.63Z</time></trkpt><trkpt lat="42.3534558" lon="13.5078998"><ele>922.6666666666666</ele><time>2026-04-10T11:50:35.629Z</time></trkpt><trkpt lat="42.3535342" lon="13.5079545"><ele>922.0</ele><time>2026-04-10T11:50:36.631Z</time></trkpt><trkpt lat="42.3536087" lon="13.508022"><ele>922.8</ele><time>2026-04-10T11:50:37.626Z</time></trkpt><trkpt lat="42.3536793" lon="13.5080913"><ele>923.6</ele><time>2026-04-10T11:50:38.629Z</time></trkpt><trkpt lat="42.353743" lon="13.5081671"><ele>924.3999999999999</ele><time>2026-04-10T11:50:39.639Z</time></trkpt><trkpt lat="42.3538163" lon="13.5082512"><ele>925.1999999999999</ele><time>2026-04-10T11:50:40.639Z</time></trkpt><trkpt lat="42.3538917" lon="13.5083358"><ele>926.0</ele><time>2026-04-10T11:50:41.645Z</time></trkpt><trkpt lat="42.3539587" lon="13.5084215"><ele>926.0</ele><time>2026-04-10T11:50:42.64Z</time></trkpt><trkpt lat="42.3540322" lon="13.5084974"><ele>925.9999999999999</ele><time>2026-04-10T11:50:43.637Z</time></trkpt><trkpt lat="42.35411" lon="13.5085681"><ele>925.9999999999999</ele><time>2026-04-10T11:50:44.645Z</time></trkpt><trkpt lat="42.3541981" lon="13.5086212"><ele>926.0</ele><time>2026-04-10T11:50:45.639Z</time></trkpt><trkpt lat="42.3542854" lon="13.508665"><ele>926.0</ele><time>2026-04-10T11:50:46.644Z</time></trkpt><trkpt lat="42.3543714" lon="13.5087009"><ele>926.0000000000001</ele><time>2026-04-10T11:50:47.645Z</time></trkpt><trkpt lat="42.3544509" lon="13.5087372"><ele>926.0</ele><time>2026-04-10T11:50:48.644Z</time></trkpt><trkpt lat="42.3545299" lon="13.5087749"><ele>926.0</ele><time>2026-04-10T11:50:49.644Z</time></trkpt><trkpt lat="42.354605" lon="13.508825"><ele>926.0</ele><time>2026-04-10T11:50:50.643Z</time></trkpt><trkpt lat="42.3546692" lon="13.5088935"><ele>926.0000000000001</ele><time>2026-04-10T11:50:51.65Z</time></trkpt><trkpt lat="42.3547329" lon="13.5089707"><ele>926.0</ele><time>2026-04-10T11:50:52.65Z</time></trkpt><trkpt lat="42.3547966" lon="13.5090529"><ele>929.0000000000001</ele><time>2026-04-10T11:50:53.648Z</time></trkpt><trkpt lat="42.3548636" lon="13.5091362"><ele>932.0</ele><time>2026-04-10T11:50:54.644Z</time></trkpt><trkpt lat="42.3549259" lon="13.509201"><ele>935.0</ele><time>2026-04-10T11:50:55.644Z</time></trkpt><trkpt lat="42.3549863" lon="13.509266"><ele>938.0</ele><time>2026-04-10T11:50:56.65Z</time></trkpt><trkpt lat="42.355044" lon="13.5093408"><ele>941.0000000000001</ele><time>2026-04-10T11:50:57.651Z</time></trkpt><trkpt lat="42.3550894" lon="13.5094351"><ele>944.0</ele><time>2026-04-10T11:50:58.639Z</time></trkpt><trkpt lat="42.3551256" lon="13.5095419"><ele>944.8000000000001</ele><time>2026-04-10T11:50:59.65Z</time></trkpt><trkpt lat="42.3551525" lon="13.5096681"><ele>945.6000000000001</ele><time>2026-04-10T11:51:00.648Z</time></trkpt><trkpt lat="42.3551811" lon="13.5098004"><ele>946.4</ele><time>2026-04-10T11:51:01.649Z</time></trkpt><trkpt lat="42.355226" lon="13.5099383"><ele>947.2</ele><time>2026-04-10T11:51:02.643Z</time></trkpt><trkpt lat="42.3553003" lon="13.5100704"><ele>948.0</ele><time>2026-04-10T11:51:03.649Z</time></trkpt><trkpt lat="42.3553772" lon="13.5101917"><ele>948.0</ele><time>2026-04-10T11:51:04.647Z</time></trkpt><trkpt lat="42.3554594" lon="13.5103172"><ele>948.0</ele><time>2026-04-10T11:51:05.649Z</time></trkpt><trkpt lat="42.3555315" lon="13.5104356"><ele>948.0</ele><time>2026-04-10T11:51:06.654Z</time></trkpt><trkpt lat="42.355602" lon="13.5105474"><ele>948.0</ele><time>2026-04-10T11:51:07.657Z</time></trkpt><trkpt lat="42.3556718" lon="13.5106565"><ele>949.2</ele><time>2026-04-10T11:51:08.653Z</time></trkpt><trkpt lat="42.3557317" lon="13.5107757"><ele>950.4</ele><time>2026-04-10T11:51:09.658Z</time></trkpt><trkpt lat="42.3557849" lon="13.5109031"><ele>951.6000000000001</ele><time>2026-04-10T11:51:10.653Z</time></trkpt><trkpt lat="42.3558386" lon="13.5110249"><ele>952.8000000000001</ele><time>2026-04-10T11:51:11.644Z</time></trkpt><trkpt lat="42.3559053" lon="13.5111339"><ele>954.0</ele><time>2026-04-10T11:51:12.647Z</time></trkpt><trkpt lat="42.3559802" lon="13.5112233"><ele>954.75</ele><time>2026-04-10T11:51:13.649Z</time></trkpt><trkpt lat="42.3560805" lon="13.5112843"><ele>955.5</ele><time>2026-04-10T11:51:14.645Z</time></trkpt><trkpt lat="42.3561914" lon="13.5112998"><ele>956.25</ele><time>2026-04-10T11:51:15.643Z</time></trkpt><trkpt lat="42.3563063" lon="13.5113206"><ele>957.0</ele><time>2026-04-10T11:51:16.639Z</time></trkpt><trkpt lat="42.3564392" lon="13.5113239"><ele>957.25</ele><time>2026-04-10T11:51:17.632Z</time></trkpt><trkpt lat="42.3565639" lon="13.5113697"><ele>957.5</ele><time>2026-04-10T11:51:18.636Z</time></trkpt><trkpt lat="42.3566829" lon="13.5114518"><ele>957.75</ele><time>2026-04-10T11:51:19.637Z</time></trkpt><trkpt lat="42.3568047" lon="13.511527"><ele>958.0</ele><time>2026-04-10T11:51:20.631Z</time></trkpt><trkpt lat="42.3569106" lon="13.5116095"><ele>958.0</ele><time>2026-04-10T11:51:21.625Z</time></trkpt><trkpt lat="42.3570048" lon="13.5116997"><ele>958.0</ele><time>2026-04-10T11:51:22.626Z</time></trkpt><trkpt lat="42.3570842" lon="13.5117811"><ele>958.0</ele><time>2026-04-10T11:51:23.629Z</time></trkpt><trkpt lat="42.3571751" lon="13.5116651"><ele>958.0</ele><time>2026-04-10T11:51:25.635Z</time></trkpt><trkpt lat="42.3572416" lon="13.5115808"><ele>958.0</ele><time>2026-04-10T11:51:26.634Z</time></trkpt><trkpt lat="42.3573128" lon="13.5114681"><ele>959.5999999999999</ele><time>2026-04-10T11:51:27.635Z</time></trkpt><trkpt lat="42.3573808" lon="13.5113503"><ele>961.1999999999999</ele><time>2026-04-10T11:51:28.649Z</time></trkpt><trkpt lat="42.357462" lon="13.5112812"><ele>962.8</ele><time>2026-04-10T11:51:29.651Z</time></trkpt><trkpt lat="42.3575423" lon="13.5112228"><ele>964.4</ele><time>2026-04-10T11:51:30.648Z</time></trkpt><trkpt lat="42.3576156" lon="13.5111676"><ele>966.0</ele><time>2026-04-10T11:51:31.647Z</time></trkpt><trkpt lat="42.3576791" lon="13.5111313"><ele>966.0</ele><time>2026-04-10T11:51:32.636Z</time></trkpt><trkpt lat="42.3577605" lon="13.5110363"><ele>965.9999999999999</ele><time>2026-04-10T11:51:34.647Z</time></trkpt><trkpt lat="42.3577661" lon="13.5109021"><ele>965.9999999999999</ele><time>2026-04-10T11:51:36.635Z</time></trkpt><trkpt lat="42.3577257" lon="13.5108289"><ele>966.0</ele><time>2026-04-10T11:51:37.641Z</time></trkpt><trkpt lat="42.3576763" lon="13.5107515"><ele>966.0</ele><time>2026-04-10T11:51:38.642Z</time></trkpt><trkpt lat="42.3575993" lon="13.5106574"><ele>966.0</ele><time>2026-04-10T11:51:40.636Z</time></trkpt><trkpt lat="42.3575974" lon="13.5105348"><ele>966.0</ele><time>2026-04-10T11:51:42.632Z</time></trkpt><trkpt lat="42.3576617" lon="13.5104828"><ele>966.0</ele><time>2026-04-10T11:51:44.634Z</time></trkpt><trkpt lat="42.3577298" lon="13.5104972"><ele>966.0</ele><time>2026-04-10T11:51:45.633Z</time></trkpt><trkpt lat="42.3577935" lon="13.5104874"><ele>966.0</ele><time>2026-04-10T11:51:46.643Z</time></trkpt><trkpt lat="42.3578596" lon="13.5104682"><ele>966.0</ele><time>2026-04-10T11:51:47.636Z</time></trkpt><trkpt lat="42.3579293" lon="13.5104527"><ele>966.0</ele><time>2026-04-10T11:51:48.633Z</time></trkpt><trkpt lat="42.3580022" lon="13.5103929"><ele>965.6666666666666</ele><time>2026-04-10T11:51:49.629Z</time></trkpt><trkpt lat="42.3580517" lon="13.510292"><ele>965.3333333333333</ele><time>2026-04-10T11:51:50.617Z</time></trkpt><trkpt lat="42.3580645" lon="13.5101826"><ele>965.0</ele><time>2026-04-10T11:51:51.614Z</time></trkpt><trkpt lat="42.3580747" lon="13.510078"><ele>964.6666666666666</ele><time>2026-04-10T11:51:52.619Z</time></trkpt><trkpt lat="42.3580662" lon="13.509956"><ele>964.3333333333333</ele><time>2026-04-10T11:51:53.626Z</time></trkpt><trkpt lat="42.3580372" lon="13.5098338"><ele>964.0</ele><time>2026-04-10T11:51:54.619Z</time></trkpt><trkpt lat="42.3579836" lon="13.509687"><ele>961.25</ele><time>2026-04-10T11:51:55.619Z</time></trkpt><trkpt lat="42.3579148" lon="13.5095473"><ele>958.5</ele><time>2026-04-10T11:51:56.634Z</time></trkpt><trkpt lat="42.3578329" lon="13.5094093"><ele>955.75</ele><time>2026-04-10T11:51:57.63Z</time></trkpt><trkpt lat="42.3577429" lon="13.509274"><ele>953.0</ele><time>2026-04-10T11:51:58.632Z</time></trkpt><trkpt lat="42.3576517" lon="13.5091546"><ele>953.0</ele><time>2026-04-10T11:51:59.64Z</time></trkpt><trkpt lat="42.3575655" lon="13.5090419"><ele>953.0</ele><time>2026-04-10T11:52:00.635Z</time></trkpt><trkpt lat="42.357478" lon="13.5089461"><ele>953.0</ele><time>2026-04-10T11:52:01.642Z</time></trkpt><trkpt lat="42.3573719" lon="13.5088938"><ele>953.0</ele><time>2026-04-10T11:52:02.635Z</time></trkpt><trkpt lat="42.3572685" lon="13.508879"><ele>953.0</ele><time>2026-04-10T11:52:03.644Z</time></trkpt><trkpt lat="42.3571806" lon="13.5088913"><ele>955.4</ele><time>2026-04-10T11:52:04.639Z</time></trkpt><trkpt lat="42.3570878" lon="13.5088915"><ele>957.8</ele><time>2026-04-10T11:52:05.636Z</time></trkpt><trkpt lat="42.3569927" lon="13.5088968"><ele>960.2</ele><time>2026-04-10T11:52:06.636Z</time></trkpt><trkpt lat="42.3569076" lon="13.508906"><ele>962.6</ele><time>2026-04-10T11:52:07.627Z</time></trkpt><trkpt lat="42.3568109" lon="13.5088733"><ele>965.0</ele><time>2026-04-10T11:52:08.63Z</time></trkpt><trkpt lat="42.3567259" lon="13.5087851"><ele>961.25</ele><time>2026-04-10T11:52:09.632Z</time></trkpt><trkpt lat="42.3566618" lon="13.5086654"><ele>957.5</ele><time>2026-04-10T11:52:10.635Z</time></trkpt><trkpt lat="42.3566154" lon="13.5085217"><ele>953.75</ele><time>2026-04-10T11:52:11.636Z</time></trkpt><trkpt lat="42.3565789" lon="13.5083692"><ele>950.0</ele><time>2026-04-10T11:52:12.635Z</time></trkpt><trkpt lat="42.3565391" lon="13.5082192"><ele>950.0</ele><time>2026-04-10T11:52:13.634Z</time></trkpt><trkpt lat="42.3564997" lon="13.5080616"><ele>950.0</ele><time>2026-04-10T11:52:14.636Z</time></trkpt><trkpt lat="42.3564498" lon="13.5078964"><ele>950.0</ele><time>2026-04-10T11:52:15.633Z</time></trkpt><trkpt lat="42.3563977" lon="13.5077336"><ele>950.0</ele><time>2026-04-10T11:52:16.629Z</time></trkpt><trkpt lat="42.3563358" lon="13.5075698"><ele>951.0</ele><time>2026-04-10T11:52:17.63Z</time></trkpt><trkpt lat="42.3562686" lon="13.507406"><ele>952.0</ele><time>2026-04-10T11:52:18.636Z</time></trkpt><trkpt lat="42.3561924" lon="13.5072554"><ele>953.0</ele><time>2026-04-10T11:52:19.643Z</time></trkpt><trkpt lat="42.3561106" lon="13.5071133"><ele>954.0</ele><time>2026-04-10T11:52:20.641Z</time></trkpt><trkpt lat="42.3560227" lon="13.5069717"><ele>947.3333333333333</ele><time>2026-04-10T11:52:21.644Z</time></trkpt><trkpt lat="42.3559317" lon="13.5068215"><ele>940.6666666666666</ele><time>2026-04-10T11:52:22.647Z</time></trkpt><trkpt lat="42.3558271" lon="13.5066726"><ele>934.0</ele><time>2026-04-10T11:52:23.645Z</time></trkpt><trkpt lat="42.3557305" lon="13.5065099"><ele>934.0</ele><time>2026-04-10T11:52:24.647Z</time></trkpt><trkpt lat="42.3556558" lon="13.5063642"><ele>934.0</ele><time>2026-04-10T11:52:25.644Z</time></trkpt><trkpt lat="42.355586" lon="13.5061937"><ele>934.0</ele><time>2026-04-10T11:52:26.647Z</time></trkpt><trkpt lat="42.3555049" lon="13.5060244"><ele>934.0</ele><time>2026-04-10T11:52:27.649Z</time></trkpt><trkpt lat="42.3554169" lon="13.5058784"><ele>931.6666666666666</ele><time>2026-04-10T11:52:28.65Z</time></trkpt><trkpt lat="42.3553203" lon="13.505699"><ele>929.3333333333333</ele><time>2026-04-10T11:52:29.653Z</time></trkpt><trkpt lat="42.3552234" lon="13.5055208"><ele>927.0</ele><time>2026-04-10T11:52:30.657Z</time></trkpt><trkpt lat="42.3551492" lon="13.505356"><ele>925.25</ele><time>2026-04-10T11:52:31.653Z</time></trkpt><trkpt lat="42.3550908" lon="13.5051911"><ele>923.5</ele><time>2026-04-10T11:52:32.653Z</time></trkpt><trkpt lat="42.3550329" lon="13.5050284"><ele>921.75</ele><time>2026-04-10T11:52:33.654Z</time></trkpt><trkpt lat="42.35499" lon="13.5048269"><ele>920.0</ele><time>2026-04-10T11:52:34.651Z</time></trkpt><trkpt lat="42.3549708" lon="13.5046395"><ele>916.6666666666667</ele><time>2026-04-10T11:52:35.644Z</time></trkpt><trkpt lat="42.354984" lon="13.5044442"><ele>913.3333333333333</ele><time>2026-04-10T11:52:36.65Z</time></trkpt><trkpt lat="42.3549492" lon="13.5042283"><ele>910.0</ele><time>2026-04-10T11:52:37.645Z</time></trkpt><trkpt lat="42.3549126" lon="13.5040253"><ele>910.0</ele><time>2026-04-10T11:52:38.645Z</time></trkpt><trkpt lat="42.3548723" lon="13.5038619"><ele>910.0</ele><time>2026-04-10T11:52:39.642Z</time></trkpt><trkpt lat="42.3548123" lon="13.503741"><ele>910.0</ele><time>2026-04-10T11:52:40.638Z</time></trkpt><trkpt lat="42.3547355" lon="13.5036109"><ele>910.0</ele><time>2026-04-10T11:52:41.64Z</time></trkpt><trkpt lat="42.3546643" lon="13.5034864"><ele>909.4285714285714</ele><time>2026-04-10T11:52:42.631Z</time></trkpt><trkpt lat="42.3546419" lon="13.503393"><ele>908.8571428571429</ele><time>2026-04-10T11:52:43.638Z</time></trkpt><trkpt lat="42.3546596" lon="13.5033075"><ele>908.2857142857142</ele><time>2026-04-10T11:52:44.635Z</time></trkpt><trkpt lat="42.3547101" lon="13.5032503"><ele>907.7142857142857</ele><time>2026-04-10T11:52:45.634Z</time></trkpt><trkpt lat="42.3547849" lon="13.5032415"><ele>907.1428571428571</ele><time>2026-04-10T11:52:46.625Z</time></trkpt><trkpt lat="42.3548608" lon="13.5032464"><ele>906.5714285714284</ele><time>2026-04-10T11:52:47.623Z</time></trkpt><trkpt lat="42.3549272" lon="13.5033115"><ele>905.9999999999999</ele><time>2026-04-10T11:52:48.629Z</time></trkpt><trkpt lat="42.3549763" lon="13.5034463"><ele>906.0</ele><time>2026-04-10T11:52:49.624Z</time></trkpt><trkpt lat="42.3550352" lon="13.5036372"><ele>906.0</ele><time>2026-04-10T11:52:50.624Z</time></trkpt><trkpt lat="42.3551029" lon="13.5038709"><ele>906.0</ele><time>2026-04-10T11:52:51.624Z</time></trkpt><trkpt lat="42.3551741" lon="13.5041294"><ele>907.3333333333333</ele><time>2026-04-10T11:52:52.631Z</time></trkpt><trkpt lat="42.3552188" lon="13.5043809"><ele>908.6666666666666</ele><time>2026-04-10T11:52:53.64Z</time></trkpt><trkpt lat="42.3552634" lon="13.5045736"><ele>910.0</ele><time>2026-04-10T11:52:54.641Z</time></trkpt><trkpt lat="42.3553171" lon="13.5047996"><ele>913.3333333333333</ele><time>2026-04-10T11:52:55.641Z</time></trkpt><trkpt lat="42.3553949" lon="13.5050541"><ele>916.6666666666667</ele><time>2026-04-10T11:52:56.639Z</time></trkpt><trkpt lat="42.3554788" lon="13.5052286"><ele>920.0</ele><time>2026-04-10T11:52:57.639Z</time></trkpt><trkpt lat="42.3556246" lon="13.5053907"><ele>917.0</ele><time>2026-04-10T11:52:58.645Z</time></trkpt><trkpt lat="42.3557534" lon="13.5055321"><ele>914.0</ele><time>2026-04-10T11:52:59.642Z</time></trkpt><trkpt lat="42.3558731" lon="13.5056468"><ele>911.0</ele><time>2026-04-10T11:53:00.638Z</time></trkpt><trkpt lat="42.35601" lon="13.5057594"><ele>911.0</ele><time>2026-04-10T11:53:01.637Z</time></trkpt><trkpt lat="42.3561708" lon="13.505776"><ele>911.0</ele><time>2026-04-10T11:53:02.62Z</time></trkpt><trkpt lat="42.3563107" lon="13.5057872"><ele>911.0</ele><time>2026-04-10T11:53:03.63Z</time></trkpt><trkpt lat="42.3564631" lon="13.505827"><ele>910.6666666666667</ele><time>2026-04-10T11:53:04.635Z</time></trkpt><trkpt lat="42.3566139" lon="13.5057292"><ele>910.3333333333333</ele><time>2026-04-10T11:53:05.638Z</time></trkpt><trkpt lat="42.3567225" lon="13.5055473"><ele>910.0</ele><time>2026-04-10T11:53:06.628Z</time></trkpt><trkpt lat="42.3567838" lon="13.5054045"><ele>907.0</ele><time>2026-04-10T11:53:07.637Z</time></trkpt><trkpt lat="42.3568492" lon="13.505208"><ele>904.0</ele><time>2026-04-10T11:53:08.634Z</time></trkpt><trkpt lat="42.356816" lon="13.5050194"><ele>901.0</ele><time>2026-04-10T11:53:09.639Z</time></trkpt><trkpt lat="42.3568213" lon="13.5048303"><ele>898.0</ele><time>2026-04-10T11:53:10.636Z</time></trkpt><trkpt lat="42.3568799" lon="13.5046698"><ele>892.0</ele><time>2026-04-10T11:53:11.636Z</time></trkpt><trkpt lat="42.3569761" lon="13.5045548"><ele>886.0</ele><time>2026-04-10T11:53:12.636Z</time></trkpt><trkpt lat="42.3571082" lon="13.5044616"><ele>880.0</ele><time>2026-04-10T11:53:13.632Z</time></trkpt><trkpt lat="42.3572836" lon="13.5044339"><ele>878.6666666666666</ele><time>2026-04-10T11:53:14.637Z</time></trkpt><trkpt lat="42.3574532" lon="13.504412"><ele>877.3333333333333</ele><time>2026-04-10T11:53:15.641Z</time></trkpt><trkpt lat="42.3575761" lon="13.5044172"><ele>876.0</ele><time>2026-04-10T11:53:16.646Z</time></trkpt><trkpt lat="42.3577537" lon="13.5044775"><ele>876.0</ele><time>2026-04-10T11:53:17.632Z</time></trkpt><trkpt lat="42.3579106" lon="13.5046255"><ele>876.0</ele><time>2026-04-10T11:53:18.641Z</time></trkpt><trkpt lat="42.358035" lon="13.5047468"><ele>876.0</ele><time>2026-04-10T11:53:19.648Z</time></trkpt><trkpt lat="42.3581993" lon="13.5048987"><ele>876.0</ele><time>2026-04-10T11:53:20.65Z</time></trkpt><trkpt lat="42.3583419" lon="13.5050773"><ele>876.0</ele><time>2026-04-10T11:53:21.65Z</time></trkpt><trkpt lat="42.358484" lon="13.5052554"><ele>876.0</ele><time>2026-04-10T11:53:22.645Z</time></trkpt><trkpt lat="42.3585971" lon="13.5054741"><ele>881.0</ele><time>2026-04-10T11:53:23.641Z</time></trkpt><trkpt lat="42.3586655" lon="13.5056633"><ele>886.0</ele><time>2026-04-10T11:53:24.645Z</time></trkpt><trkpt lat="42.3587316" lon="13.5058556"><ele>891.0</ele><time>2026-04-10T11:53:25.641Z</time></trkpt><trkpt lat="42.3588166" lon="13.5060175"><ele>887.6666666666667</ele><time>2026-04-10T11:53:26.642Z</time></trkpt><trkpt lat="42.3589079" lon="13.5062304"><ele>884.3333333333334</ele><time>2026-04-10T11:53:27.637Z</time></trkpt><trkpt lat="42.3590324" lon="13.5063814"><ele>881.0</ele><time>2026-04-10T11:53:28.639Z</time></trkpt><trkpt lat="42.3591262" lon="13.5064887"><ele>881.0</ele><time>2026-04-10T11:53:29.634Z</time></trkpt><trkpt lat="42.3592494" lon="13.5065681"><ele>881.0</ele><time>2026-04-10T11:53:30.629Z</time></trkpt><trkpt lat="42.359403" lon="13.5065763"><ele>881.0</ele><time>2026-04-10T11:53:31.627Z</time></trkpt><trkpt lat="42.3594662" lon="13.5064754"><ele>881.0</ele><time>2026-04-10T11:53:32.624Z</time></trkpt><trkpt lat="42.3595531" lon="13.5062421"><ele>880.0</ele><time>2026-04-10T11:53:33.617Z</time></trkpt><trkpt lat="42.3595383" lon="13.5060272"><ele>879.0</ele><time>2026-04-10T11:53:34.622Z</time></trkpt><trkpt lat="42.3594437" lon="13.5058075"><ele>878.0</ele><time>2026-04-10T11:53:35.622Z</time></trkpt><trkpt lat="42.3593518" lon="13.5056474"><ele>878.0</ele><time>2026-04-10T11:53:36.616Z</time></trkpt><trkpt lat="42.3592656" lon="13.5054653"><ele>878.0</ele><time>2026-04-10T11:53:37.631Z</time></trkpt><trkpt lat="42.3592037" lon="13.505293"><ele>878.0</ele><time>2026-04-10T11:53:38.642Z</time></trkpt><trkpt lat="42.3591497" lon="13.5051328"><ele>878.0</ele><time>2026-04-10T11:53:39.639Z</time></trkpt><trkpt lat="42.3590908" lon="13.5049768"><ele>878.0</ele><time>2026-04-10T11:53:40.641Z</time></trkpt><trkpt lat="42.3590299" lon="13.504815"><ele>878.0</ele><time>2026-04-10T11:53:41.64Z</time></trkpt><trkpt lat="42.3589659" lon="13.5046547"><ele>878.0</ele><time>2026-04-10T11:53:42.641Z</time></trkpt><trkpt lat="42.3589013" lon="13.5044973"><ele>878.0</ele><time>2026-04-10T11:53:43.641Z</time></trkpt><trkpt lat="42.3588314" lon="13.5043229"><ele>875.25</ele><time>2026-04-10T11:53:44.646Z</time></trkpt><trkpt lat="42.3587691" lon="13.5041769"><ele>872.5</ele><time>2026-04-10T11:53:45.648Z</time></trkpt><trkpt lat="42.3587032" lon="13.504016"><ele>869.75</ele><time>2026-04-10T11:53:46.651Z</time></trkpt><trkpt lat="42.3586508" lon="13.503856"><ele>867.0</ele><time>2026-04-10T11:53:47.65Z</time></trkpt><trkpt lat="42.3585977" lon="13.5037146"><ele>866.0</ele><time>2026-04-10T11:53:48.653Z</time></trkpt><trkpt lat="42.358533" lon="13.5035768"><ele>865.0</ele><time>2026-04-10T11:53:49.65Z</time></trkpt><trkpt lat="42.3584559" lon="13.5034241"><ele>864.0</ele><time>2026-04-10T11:53:50.652Z</time></trkpt><trkpt lat="42.3583687" lon="13.5032714"><ele>863.0</ele><time>2026-04-10T11:53:51.649Z</time></trkpt><trkpt lat="42.3582649" lon="13.503134"><ele>863.0</ele><time>2026-04-10T11:53:52.659Z</time></trkpt><trkpt lat="42.3581602" lon="13.5030081"><ele>863.0</ele><time>2026-04-10T11:53:53.658Z</time></trkpt><trkpt lat="42.3580567" lon="13.5028468"><ele>863.0</ele><time>2026-04-10T11:53:54.652Z</time></trkpt><trkpt lat="42.3579956" lon="13.5026599"><ele>863.0</ele><time>2026-04-10T11:53:55.642Z</time></trkpt><trkpt lat="42.357944" lon="13.5024738"><ele>859.3333333333334</ele><time>2026-04-10T11:53:56.649Z</time></trkpt><trkpt lat="42.3579035" lon="13.5022729"><ele>855.6666666666667</ele><time>2026-04-10T11:53:57.651Z</time></trkpt><trkpt lat="42.3578502" lon="13.5020708"><ele>852.0</ele><time>2026-04-10T11:53:58.647Z</time></trkpt><trkpt lat="42.3578101" lon="13.5018509"><ele>851.0</ele><time>2026-04-10T11:53:59.648Z</time></trkpt><trkpt lat="42.357776" lon="13.5016336"><ele>850.0</ele><time>2026-04-10T11:54:00.648Z</time></trkpt><trkpt lat="42.3577697" lon="13.5014248"><ele>849.0</ele><time>2026-04-10T11:54:01.649Z</time></trkpt><trkpt lat="42.3577385" lon="13.5012131"><ele>846.0</ele><time>2026-04-10T11:54:02.647Z</time></trkpt><trkpt lat="42.3577485" lon="13.5009772"><ele>843.0</ele><time>2026-04-10T11:54:03.641Z</time></trkpt><trkpt lat="42.3577668" lon="13.5007774"><ele>840.0</ele><time>2026-04-10T11:54:04.64Z</time></trkpt><trkpt lat="42.3578116" lon="13.5005551"><ele>839.6666666666667</ele><time>2026-04-10T11:54:05.644Z</time></trkpt><trkpt lat="42.3578967" lon="13.5003957"><ele>839.3333333333334</ele><time>2026-04-10T11:54:06.64Z</time></trkpt><trkpt lat="42.357979" lon="13.5002172"><ele>839.0</ele><time>2026-04-10T11:54:07.64Z</time></trkpt><trkpt lat="42.3581077" lon="13.500076"><ele>839.0</ele><time>2026-04-10T11:54:08.644Z</time></trkpt><trkpt lat="42.3582648" lon="13.4999245"><ele>839.0</ele><time>2026-04-10T11:54:09.649Z</time></trkpt><trkpt lat="42.3583963" lon="13.4997847"><ele>839.0</ele><time>2026-04-10T11:54:10.655Z</time></trkpt><trkpt lat="42.3585155" lon="13.4996541"><ele>837.0</ele><time>2026-04-10T11:54:11.653Z</time></trkpt><trkpt lat="42.3586381" lon="13.499554"><ele>835.0</ele><time>2026-04-10T11:54:12.655Z</time></trkpt><trkpt lat="42.3587535" lon="13.4994502"><ele>833.0</ele><time>2026-04-10T11:54:13.654Z</time></trkpt><trkpt lat="42.3588704" lon="13.4993381"><ele>831.0</ele><time>2026-04-10T11:54:14.671Z</time></trkpt><trkpt lat="42.3589476" lon="13.4991961"><ele>830.25</ele><time>2026-04-10T11:54:15.66Z</time></trkpt><trkpt lat="42.3590004" lon="13.4990561"><ele>829.5</ele><time>2026-04-10T11:54:16.653Z</time></trkpt><trkpt lat="42.3590109" lon="13.4988699"><ele>828.75</ele><time>2026-04-10T11:54:17.652Z</time></trkpt><trkpt lat="42.3590165" lon="13.498674"><ele>828.0</ele><time>2026-04-10T11:54:18.642Z</time></trkpt><trkpt lat="42.3590362" lon="13.4984848"><ele>827.25</ele><time>2026-04-10T11:54:19.648Z</time></trkpt><trkpt lat="42.359039" lon="13.4982835"><ele>826.5</ele><time>2026-04-10T11:54:20.647Z</time></trkpt><trkpt lat="42.3590611" lon="13.4980892"><ele>825.75</ele><time>2026-04-10T11:54:21.641Z</time></trkpt><trkpt lat="42.359081" lon="13.4978864"><ele>825.0</ele><time>2026-04-10T11:54:22.641Z</time></trkpt><trkpt lat="42.3591251" lon="13.4976874"><ele>824.6666666666667</ele><time>2026-04-10T11:54:23.651Z</time></trkpt><trkpt lat="42.3592037" lon="13.4974978"><ele>824.3333333333334</ele><time>2026-04-10T11:54:24.656Z</time></trkpt><trkpt lat="42.3592728" lon="13.497292"><ele>824.0</ele><time>2026-04-10T11:54:25.658Z</time></trkpt><trkpt lat="42.3593474" lon="13.4970853"><ele>824.0</ele><time>2026-04-10T11:54:26.657Z</time></trkpt><trkpt lat="42.3594311" lon="13.4969197"><ele>824.0</ele><time>2026-04-10T11:54:27.653Z</time></trkpt><trkpt lat="42.3595166" lon="13.4967712"><ele>824.0</ele><time>2026-04-10T11:54:28.661Z</time></trkpt><trkpt lat="42.3596375" lon="13.4966415"><ele>824.0</ele><time>2026-04-10T11:54:29.658Z</time></trkpt><trkpt lat="42.3597653" lon="13.4965516"><ele>824.5</ele><time>2026-04-10T11:54:30.66Z</time></trkpt><trkpt lat="42.359848" lon="13.4964228"><ele>825.0</ele><time>2026-04-10T11:54:31.657Z</time></trkpt><trkpt lat="42.3599248" lon="13.4962946"><ele>825.5</ele><time>2026-04-10T11:54:32.64Z</time></trkpt><trkpt lat="42.3599423" lon="13.4961198"><ele>826.0</ele><time>2026-04-10T11:54:33.644Z</time></trkpt><trkpt lat="42.3599648" lon="13.4959536"><ele>826.0</ele><time>2026-04-10T11:54:34.64Z</time></trkpt><trkpt lat="42.3599523" lon="13.4957163"><ele>826.0</ele><time>2026-04-10T11:54:35.641Z</time></trkpt><trkpt lat="42.3599686" lon="13.4954635"><ele>826.0</ele><time>2026-04-10T11:54:36.642Z</time></trkpt><trkpt lat="42.3599991" lon="13.4952305"><ele>825.0</ele><time>2026-04-10T11:54:37.645Z</time></trkpt><trkpt lat="42.3599803" lon="13.4949918"><ele>824.0</ele><time>2026-04-10T11:54:38.65Z</time></trkpt><trkpt lat="42.3599784" lon="13.4947601"><ele>823.0</ele><time>2026-04-10T11:54:39.649Z</time></trkpt><trkpt lat="42.359971" lon="13.4945415"><ele>822.3333333333333</ele><time>2026-04-10T11:54:40.65Z</time></trkpt><trkpt lat="42.3599258" lon="13.4943265"><ele>821.6666666666667</ele><time>2026-04-10T11:54:41.649Z</time></trkpt><trkpt lat="42.3598566" lon="13.4941106"><ele>821.0</ele><time>2026-04-10T11:54:42.651Z</time></trkpt><trkpt lat="42.3598034" lon="13.4939537"><ele>821.0</ele><time>2026-04-10T11:54:43.649Z</time></trkpt><trkpt lat="42.3597704" lon="13.4938297"><ele>821.0</ele><time>2026-04-10T11:54:44.644Z</time></trkpt><trkpt lat="42.3596827" lon="13.4936347"><ele>821.0</ele><time>2026-04-10T11:54:45.643Z</time></trkpt><trkpt lat="42.3595526" lon="13.4934781"><ele>821.0</ele><time>2026-04-10T11:54:46.64Z</time></trkpt><trkpt lat="42.3594338" lon="13.4933591"><ele>818.25</ele><time>2026-04-10T11:54:47.644Z</time></trkpt><trkpt lat="42.3593123" lon="13.4932647"><ele>815.5</ele><time>2026-04-10T11:54:48.642Z</time></trkpt><trkpt lat="42.3591972" lon="13.4931636"><ele>812.75</ele><time>2026-04-10T11:54:49.641Z</time></trkpt><trkpt lat="42.359098" lon="13.493035"><ele>810.0</ele><time>2026-04-10T11:54:50.636Z</time></trkpt><trkpt lat="42.3590503" lon="13.4928588"><ele>810.0</ele><time>2026-04-10T11:54:51.636Z</time></trkpt><trkpt lat="42.3589991" lon="13.4927049"><ele>810.0</ele><time>2026-04-10T11:54:52.649Z</time></trkpt><trkpt lat="42.358959" lon="13.4925229"><ele>810.0</ele><time>2026-04-10T11:54:53.651Z</time></trkpt><trkpt lat="42.358913" lon="13.4923495"><ele>810.0</ele><time>2026-04-10T11:54:54.637Z</time></trkpt><trkpt lat="42.3588366" lon="13.4922431"><ele>806.0</ele><time>2026-04-10T11:54:55.637Z</time></trkpt><trkpt lat="42.3587717" lon="13.4921193"><ele>802.0</ele><time>2026-04-10T11:54:56.644Z</time></trkpt><trkpt lat="42.3586784" lon="13.4920388"><ele>798.0</ele><time>2026-04-10T11:54:57.636Z</time></trkpt><trkpt lat="42.3585073" lon="13.49205"><ele>794.0</ele><time>2026-04-10T11:54:58.638Z</time></trkpt><trkpt lat="42.3583399" lon="13.4920272"><ele>794.0</ele><time>2026-04-10T11:54:59.644Z</time></trkpt><trkpt lat="42.3582441" lon="13.491867"><ele>794.0</ele><time>2026-04-10T11:55:00.641Z</time></trkpt><trkpt lat="42.3581617" lon="13.4917131"><ele>794.0</ele><time>2026-04-10T11:55:01.642Z</time></trkpt><trkpt lat="42.3580985" lon="13.491523"><ele>794.0</ele><time>2026-04-10T11:55:02.643Z</time></trkpt><trkpt lat="42.3580198" lon="13.4913319"><ele>785.6666666666667</ele><time>2026-04-10T11:55:03.636Z</time></trkpt><trkpt lat="42.3579739" lon="13.4911283"><ele>777.3333333333333</ele><time>2026-04-10T11:55:04.644Z</time></trkpt><trkpt lat="42.3579381" lon="13.4909074"><ele>769.0</ele><time>2026-04-10T11:55:05.651Z</time></trkpt><trkpt lat="42.3579146" lon="13.4906869"><ele>769.0</ele><time>2026-04-10T11:55:06.649Z</time></trkpt><trkpt lat="42.3578851" lon="13.4904694"><ele>769.0</ele><time>2026-04-10T11:55:07.66Z</time></trkpt><trkpt lat="42.3578312" lon="13.4902678"><ele>769.0</ele><time>2026-04-10T11:55:08.659Z</time></trkpt><trkpt lat="42.3577803" lon="13.4900754"><ele>769.5</ele><time>2026-04-10T11:55:09.649Z</time></trkpt><trkpt lat="42.357753" lon="13.4898984"><ele>770.0</ele><time>2026-04-10T11:55:10.647Z</time></trkpt><trkpt lat="42.3577238" lon="13.4897401"><ele>770.5</ele><time>2026-04-10T11:55:11.656Z</time></trkpt><trkpt lat="42.3576936" lon="13.4895762"><ele>771.0</ele><time>2026-04-10T11:55:12.657Z</time></trkpt><trkpt lat="42.3576681" lon="13.4894606"><ele>771.0</ele><time>2026-04-10T11:55:13.658Z</time></trkpt><trkpt lat="42.3575851" lon="13.4893454"><ele>771.0</ele><time>2026-04-10T11:55:14.655Z</time></trkpt><trkpt lat="42.357486" lon="13.4892705"><ele>771.0</ele><time>2026-04-10T11:55:15.649Z</time></trkpt><trkpt lat="42.3573826" lon="13.4892255"><ele>771.0</ele><time>2026-04-10T11:55:16.649Z</time></trkpt><trkpt lat="42.35727" lon="13.4891756"><ele>771.0</ele><time>2026-04-10T11:55:17.647Z</time></trkpt><trkpt lat="42.3571551" lon="13.4891569"><ele>771.0</ele><time>2026-04-10T11:55:18.64Z</time></trkpt><trkpt lat="42.3570908" lon="13.4891432"><ele>771.0</ele><time>2026-04-10T11:55:19.651Z</time></trkpt><trkpt lat="42.3570093" lon="13.4891831"><ele>771.0</ele><time>2026-04-10T11:55:21.644Z</time></trkpt><trkpt lat="42.3570661" lon="13.4890804"><ele>771.0</ele><time>2026-04-10T11:55:25.673Z</time></trkpt><trkpt lat="42.357127" lon="13.489016"><ele>771.0</ele><time>2026-04-10T11:55:27.669Z</time></trkpt><trkpt lat="42.3572337" lon="13.4888945"><ele>771.0</ele><time>2026-04-10T11:55:29.662Z</time></trkpt><trkpt lat="42.3572894" lon="13.4888064"><ele>771.0</ele><time>2026-04-10T11:55:30.647Z</time></trkpt><trkpt lat="42.3573323" lon="13.4887018"><ele>771.0</ele><time>2026-04-10T11:55:31.644Z</time></trkpt><trkpt lat="42.3573737" lon="13.4885659"><ele>771.0</ele><time>2026-04-10T11:55:32.641Z</time></trkpt><trkpt lat="42.3573812" lon="13.4884264"><ele>771.0</ele><time>2026-04-10T11:55:33.639Z</time></trkpt><trkpt lat="42.3573628" lon="13.4882636"><ele>770.3333333333334</ele><time>2026-04-10T11:55:34.648Z</time></trkpt><trkpt lat="42.3573603" lon="13.4881432"><ele>769.6666666666666</ele><time>2026-04-10T11:55:35.65Z</time></trkpt><trkpt lat="42.3573592" lon="13.488038"><ele>769.0</ele><time>2026-04-10T11:55:36.639Z</time></trkpt><trkpt lat="42.3573596" lon="13.4879445"><ele>768.3333333333333</ele><time>2026-04-10T11:55:37.638Z</time></trkpt><trkpt lat="42.3573849" lon="13.4877797"><ele>767.6666666666666</ele><time>2026-04-10T11:55:39.643Z</time></trkpt><trkpt lat="42.3574085" lon="13.4876945"><ele>767.0</ele><time>2026-04-10T11:55:40.644Z</time></trkpt><trkpt lat="42.3574285" lon="13.4876015"><ele>765.8571428571429</ele><time>2026-04-10T11:55:41.644Z</time></trkpt><trkpt lat="42.357451" lon="13.487502"><ele>764.7142857142858</ele><time>2026-04-10T11:55:42.648Z</time></trkpt><trkpt lat="42.3574813" lon="13.4874121"><ele>763.5714285714286</ele><time>2026-04-10T11:55:43.641Z</time></trkpt><trkpt lat="42.3575178" lon="13.4873255"><ele>762.4285714285714</ele><time>2026-04-10T11:55:44.639Z</time></trkpt><trkpt lat="42.3575687" lon="13.4872492"><ele>761.2857142857142</ele><time>2026-04-10T11:55:45.641Z</time></trkpt><trkpt lat="42.3576248" lon="13.4871889"><ele>760.1428571428571</ele><time>2026-04-10T11:55:46.645Z</time></trkpt><trkpt lat="42.3576855" lon="13.4871325"><ele>759.0</ele><time>2026-04-10T11:55:47.643Z</time></trkpt><trkpt lat="42.3577432" lon="13.4870871"><ele>759.0</ele><time>2026-04-10T11:55:48.644Z</time></trkpt><trkpt lat="42.3578065" lon="13.4870503"><ele>759.0</ele><time>2026-04-10T11:55:49.637Z</time></trkpt><trkpt lat="42.3578779" lon="13.487047"><ele>759.0</ele><time>2026-04-10T11:55:51.628Z</time></trkpt><trkpt lat="42.3579445" lon="13.4871122"><ele>759.0</ele><time>2026-04-10T11:56:01.65Z</time></trkpt><trkpt lat="42.358022" lon="13.4871806"><ele>759.0</ele><time>2026-04-10T11:56:03.632Z</time></trkpt><trkpt lat="42.3580528" lon="13.4872685"><ele>759.0</ele><time>2026-04-10T11:56:12.658Z</time></trkpt><trkpt lat="42.3580731" lon="13.4873524"><ele>759.0</ele><time>2026-04-10T11:56:15.665Z</time></trkpt><trkpt lat="42.3580665" lon="13.4872652"><ele>759.0</ele><time>2026-04-10T11:56:19.656Z</time></trkpt><trkpt lat="42.3580125" lon="13.4872083"><ele>759.0</ele><time>2026-04-10T11:56:21.657Z</time></trkpt><trkpt lat="42.3579496" lon="13.4871904"><ele>759.0</ele><time>2026-04-10T11:56:23.659Z</time></trkpt><trkpt lat="42.3578867" lon="13.4871574"><ele>759.0</ele><time>2026-04-10T11:56:25.654Z</time></trkpt><trkpt lat="42.3578267" lon="13.4871298"><ele>759.0</ele><time>2026-04-10T11:56:28.656Z</time></trkpt><trkpt lat="42.3578397" lon="13.4870213"><ele>759.0</ele><time>2026-04-10T11:56:43.65Z</time></trkpt><trkpt lat="42.3578615" lon="13.4869374"><ele>757.8333333333334</ele><time>2026-04-10T11:56:44.654Z</time></trkpt><trkpt lat="42.3578879" lon="13.4868493"><ele>756.6666666666666</ele><time>2026-04-10T11:56:45.661Z</time></trkpt><trkpt lat="42.3579194" lon="13.4867327"><ele>755.5</ele><time>2026-04-10T11:56:46.651Z</time></trkpt><trkpt lat="42.3579442" lon="13.4866338"><ele>754.3333333333333</ele><time>2026-04-10T11:56:47.649Z</time></trkpt><trkpt lat="42.3579608" lon="13.4865417"><ele>753.1666666666666</ele><time>2026-04-10T11:56:48.641Z</time></trkpt><trkpt lat="42.3579794" lon="13.4864568"><ele>752.0</ele><time>2026-04-10T11:56:49.631Z</time></trkpt><trkpt lat="42.3579873" lon="13.4863487"><ele>752.0</ele><time>2026-04-10T11:56:50.637Z</time></trkpt><trkpt lat="42.3579428" lon="13.4862777"><ele>752.0</ele><time>2026-04-10T11:56:51.644Z</time></trkpt><trkpt lat="42.3578528" lon="13.486193"><ele>752.0</ele><time>2026-04-10T11:56:53.651Z</time></trkpt><trkpt lat="42.3577988" lon="13.486142"><ele>752.0</ele><time>2026-04-10T12:00:49.649Z</time></trkpt><trkpt lat="42.3577527" lon="13.4860148"><ele>752.0</ele><time>2026-04-10T12:00:51.641Z</time></trkpt><trkpt lat="42.3577217" lon="13.4858888"><ele>752.0</ele><time>2026-04-10T12:00:52.64Z</time></trkpt><trkpt lat="42.3576975" lon="13.4857414"><ele>753.25</ele><time>2026-04-10T12:00:53.623Z</time></trkpt><trkpt lat="42.3576991" lon="13.4855961"><ele>754.5</ele><time>2026-04-10T12:00:54.621Z</time></trkpt><trkpt lat="42.3577091" lon="13.4854508"><ele>755.75</ele><time>2026-04-10T12:00:55.62Z</time></trkpt><trkpt lat="42.357729" lon="13.4852709"><ele>757.0</ele><time>2026-04-10T12:00:56.624Z</time></trkpt><trkpt lat="42.3577465" lon="13.4850537"><ele>758.0</ele><time>2026-04-10T12:00:57.628Z</time></trkpt><trkpt lat="42.3577571" lon="13.4848261"><ele>759.0</ele><time>2026-04-10T12:00:58.635Z</time></trkpt><trkpt lat="42.3577667" lon="13.4846034"><ele>760.0</ele><time>2026-04-10T12:00:59.637Z</time></trkpt><trkpt lat="42.357756" lon="13.4844087"><ele>758.5</ele><time>2026-04-10T12:01:00.64Z</time></trkpt><trkpt lat="42.3577715" lon="13.484234"><ele>757.0</ele><time>2026-04-10T12:01:01.642Z</time></trkpt><trkpt lat="42.3577656" lon="13.4840682"><ele>755.5</ele><time>2026-04-10T12:01:02.632Z</time></trkpt><trkpt lat="42.3577262" lon="13.4839279"><ele>754.0</ele><time>2026-04-10T12:01:03.623Z</time></trkpt><trkpt lat="42.3576887" lon="13.4838173"><ele>753.2</ele><time>2026-04-10T12:01:04.631Z</time></trkpt><trkpt lat="42.3576579" lon="13.4836969"><ele>752.4000000000001</ele><time>2026-04-10T12:01:05.63Z</time></trkpt><trkpt lat="42.3576463" lon="13.4836049"><ele>751.6</ele><time>2026-04-10T12:01:06.631Z</time></trkpt><trkpt lat="42.3576335" lon="13.4835094"><ele>750.8</ele><time>2026-04-10T12:01:07.634Z</time></trkpt><trkpt lat="42.35762" lon="13.4833557"><ele>750.0</ele><time>2026-04-10T12:01:08.628Z</time></trkpt><trkpt lat="42.3576076" lon="13.4831879"><ele>750.0</ele><time>2026-04-10T12:01:09.631Z</time></trkpt><trkpt lat="42.357599" lon="13.4830135"><ele>750.0</ele><time>2026-04-10T12:01:10.622Z</time></trkpt><trkpt lat="42.3575882" lon="13.4828537"><ele>750.0</ele><time>2026-04-10T12:01:11.624Z</time></trkpt><trkpt lat="42.3575681" lon="13.4826945"><ele>750.0</ele><time>2026-04-10T12:01:12.623Z</time></trkpt><trkpt lat="42.3575511" lon="13.4825565"><ele>748.6</ele><time>2026-04-10T12:01:13.619Z</time></trkpt><trkpt lat="42.3575513" lon="13.4824593"><ele>747.2</ele><time>2026-04-10T12:01:14.612Z</time></trkpt><trkpt lat="42.3575516" lon="13.4823474"><ele>745.8</ele><time>2026-04-10T12:01:16.622Z</time></trkpt><trkpt lat="42.3575451" lon="13.4822316"><ele>744.4</ele><time>2026-04-10T12:02:01.641Z</time></trkpt><trkpt lat="42.3575886" lon="13.4820108"><ele>743.0</ele><time>2026-04-10T12:02:03.631Z</time></trkpt><trkpt lat="42.3576296" lon="13.4818658"><ele>740.5</ele><time>2026-04-10T12:02:04.633Z</time></trkpt><trkpt lat="42.3576641" lon="13.4816859"><ele>738.0</ele><time>2026-04-10T12:02:05.631Z</time></trkpt><trkpt lat="42.3576824" lon="13.481517"><ele>735.5</ele><time>2026-04-10T12:02:06.629Z</time></trkpt><trkpt lat="42.3576942" lon="13.4813568"><ele>733.0</ele><time>2026-04-10T12:02:07.622Z</time></trkpt><trkpt lat="42.357719" lon="13.4812248"><ele>731.3333333333334</ele><time>2026-04-10T12:02:08.628Z</time></trkpt><trkpt lat="42.3577329" lon="13.4811"><ele>729.6666666666667</ele><time>2026-04-10T12:02:09.625Z</time></trkpt><trkpt lat="42.3577281" lon="13.480985"><ele>728.0</ele><time>2026-04-10T12:02:10.625Z</time></trkpt><trkpt lat="42.3577067" lon="13.4808879"><ele>726.3333333333334</ele><time>2026-04-10T12:02:11.626Z</time></trkpt><trkpt lat="42.3576897" lon="13.4807778"><ele>724.6666666666666</ele><time>2026-04-10T12:02:12.628Z</time></trkpt><trkpt lat="42.3576789" lon="13.4806575"><ele>723.0</ele><time>2026-04-10T12:02:13.619Z</time></trkpt><trkpt lat="42.3576986" lon="13.4805367"><ele>721.4</ele><time>2026-04-10T12:02:14.627Z</time></trkpt><trkpt lat="42.3577365" lon="13.4803886"><ele>719.8</ele><time>2026-04-10T12:02:15.628Z</time></trkpt><trkpt lat="42.3577562" lon="13.4802546"><ele>718.2</ele><time>2026-04-10T12:02:16.63Z</time></trkpt><trkpt lat="42.3577794" lon="13.4801247"><ele>716.6</ele><time>2026-04-10T12:02:17.623Z</time></trkpt><trkpt lat="42.3577718" lon="13.4799963"><ele>715.0</ele><time>2026-04-10T12:02:18.623Z</time></trkpt><trkpt lat="42.3577536" lon="13.4798584"><ele>715.0</ele><time>2026-04-10T12:02:19.63Z</time></trkpt><trkpt lat="42.3577393" lon="13.4797129"><ele>715.0</ele><time>2026-04-10T12:02:20.637Z</time></trkpt><trkpt lat="42.3577185" lon="13.4795492"><ele>715.0</ele><time>2026-04-10T12:02:21.633Z</time></trkpt><trkpt lat="42.3576946" lon="13.4793967"><ele>715.0</ele><time>2026-04-10T12:02:22.64Z</time></trkpt><trkpt lat="42.3576717" lon="13.4792536"><ele>713.2</ele><time>2026-04-10T12:02:23.63Z</time></trkpt><trkpt lat="42.3576503" lon="13.4791142"><ele>711.4</ele><time>2026-04-10T12:02:24.633Z</time></trkpt><trkpt lat="42.3576404" lon="13.4789812"><ele>709.5999999999999</ele><time>2026-04-10T12:02:25.634Z</time></trkpt><trkpt lat="42.3576265" lon="13.4788494"><ele>707.8</ele><time>2026-04-10T12:02:26.636Z</time></trkpt><trkpt lat="42.3576062" lon="13.4787225"><ele>706.0</ele><time>2026-04-10T12:02:27.635Z</time></trkpt><trkpt lat="42.3575878" lon="13.4785989"><ele>704.1999999999999</ele><time>2026-04-10T12:02:28.637Z</time></trkpt><trkpt lat="42.3575633" lon="13.47847"><ele>702.4</ele><time>2026-04-10T12:02:29.634Z</time></trkpt><trkpt lat="42.3575361" lon="13.4783521"><ele>700.6</ele><time>2026-04-10T12:02:30.633Z</time></trkpt><trkpt lat="42.3575121" lon="13.4782429"><ele>698.8</ele><time>2026-04-10T12:02:31.636Z</time></trkpt><trkpt lat="42.3574772" lon="13.4781281"><ele>697.0</ele><time>2026-04-10T12:02:32.633Z</time></trkpt><trkpt lat="42.3574411" lon="13.47801"><ele>695.4000000000001</ele><time>2026-04-10T12:02:33.642Z</time></trkpt><trkpt lat="42.3574036" lon="13.4778726"><ele>693.8000000000001</ele><time>2026-04-10T12:02:34.643Z</time></trkpt><trkpt lat="42.3573789" lon="13.4777399"><ele>692.2</ele><time>2026-04-10T12:02:35.638Z</time></trkpt><trkpt lat="42.3573562" lon="13.4776038"><ele>690.6</ele><time>2026-04-10T12:02:36.637Z</time></trkpt><trkpt lat="42.3573377" lon="13.4774721"><ele>689.0</ele><time>2026-04-10T12:02:37.637Z</time></trkpt><trkpt lat="42.3573227" lon="13.477338"><ele>689.0</ele><time>2026-04-10T12:02:38.637Z</time></trkpt><trkpt lat="42.3573088" lon="13.4772084"><ele>689.0</ele><time>2026-04-10T12:02:39.637Z</time></trkpt><trkpt lat="42.3572941" lon="13.4770806"><ele>689.0</ele><time>2026-04-10T12:02:40.635Z</time></trkpt><trkpt lat="42.357287" lon="13.4769475"><ele>689.0</ele><time>2026-04-10T12:02:41.636Z</time></trkpt><trkpt lat="42.357279" lon="13.4768109"><ele>689.0</ele><time>2026-04-10T12:02:42.636Z</time></trkpt><trkpt lat="42.357274" lon="13.4766862"><ele>687.8000000000001</ele><time>2026-04-10T12:02:43.636Z</time></trkpt><trkpt lat="42.3572671" lon="13.47657"><ele>686.6</ele><time>2026-04-10T12:02:44.64Z</time></trkpt><trkpt lat="42.3572552" lon="13.4764462"><ele>685.4</ele><time>2026-04-10T12:02:45.634Z</time></trkpt><trkpt lat="42.3572511" lon="13.4763276"><ele>684.2</ele><time>2026-04-10T12:02:46.642Z</time></trkpt><trkpt lat="42.3572522" lon="13.476191"><ele>683.0</ele><time>2026-04-10T12:02:47.637Z</time></trkpt><trkpt lat="42.3572592" lon="13.4760458"><ele>681.5999999999999</ele><time>2026-04-10T12:02:48.639Z</time></trkpt><trkpt lat="42.3572815" lon="13.4759136"><ele>680.1999999999999</ele><time>2026-04-10T12:02:49.64Z</time></trkpt><trkpt lat="42.3572856" lon="13.4757893"><ele>678.8</ele><time>2026-04-10T12:02:50.641Z</time></trkpt><trkpt lat="42.3572644" lon="13.4756693"><ele>677.4</ele><time>2026-04-10T12:02:51.638Z</time></trkpt><trkpt lat="42.3572346" lon="13.4755456"><ele>676.0</ele><time>2026-04-10T12:02:52.644Z</time></trkpt><trkpt lat="42.3571981" lon="13.4754209"><ele>673.8</ele><time>2026-04-10T12:02:53.635Z</time></trkpt><trkpt lat="42.3571621" lon="13.4752938"><ele>671.5999999999999</ele><time>2026-04-10T12:02:54.635Z</time></trkpt><trkpt lat="42.3571308" lon="13.4751729"><ele>669.4</ele><time>2026-04-10T12:02:55.632Z</time></trkpt><trkpt lat="42.3571003" lon="13.4750451"><ele>667.2</ele><time>2026-04-10T12:02:56.635Z</time></trkpt><trkpt lat="42.3570682" lon="13.4749169"><ele>665.0</ele><time>2026-04-10T12:02:57.637Z</time></trkpt><trkpt lat="42.3570492" lon="13.4747881"><ele>665.0</ele><time>2026-04-10T12:02:58.64Z</time></trkpt><trkpt lat="42.3570035" lon="13.4746555"><ele>665.0</ele><time>2026-04-10T12:02:59.636Z</time></trkpt><trkpt lat="42.3569526" lon="13.4745082"><ele>665.0</ele><time>2026-04-10T12:03:00.641Z</time></trkpt><trkpt lat="42.3568872" lon="13.474354"><ele>665.0</ele><time>2026-04-10T12:03:01.648Z</time></trkpt><trkpt lat="42.3568276" lon="13.4742072"><ele>663.2</ele><time>2026-04-10T12:03:02.653Z</time></trkpt><trkpt lat="42.3567782" lon="13.4740665"><ele>661.4</ele><time>2026-04-10T12:03:03.654Z</time></trkpt><trkpt lat="42.3567255" lon="13.4739323"><ele>659.5999999999999</ele><time>2026-04-10T12:03:04.651Z</time></trkpt><trkpt lat="42.3566795" lon="13.4738072"><ele>657.8</ele><time>2026-04-10T12:03:05.65Z</time></trkpt><trkpt lat="42.356639" lon="13.4737083"><ele>656.0</ele><time>2026-04-10T12:03:06.658Z</time></trkpt><trkpt lat="42.3565977" lon="13.4736078"><ele>655.5</ele><time>2026-04-10T12:03:07.65Z</time></trkpt><trkpt lat="42.3565661" lon="13.4735121"><ele>655.0</ele><time>2026-04-10T12:03:08.657Z</time></trkpt><trkpt lat="42.3565478" lon="13.4734298"><ele>654.5</ele><time>2026-04-10T12:03:09.652Z</time></trkpt><trkpt lat="42.3565637" lon="13.473262"><ele>654.0</ele><time>2026-04-10T12:03:11.64Z</time></trkpt><trkpt lat="42.3566024" lon="13.4731635"><ele>653.5</ele><time>2026-04-10T12:03:12.641Z</time></trkpt><trkpt lat="42.3566533" lon="13.4730732"><ele>653.0</ele><time>2026-04-10T12:03:13.648Z</time></trkpt><trkpt lat="42.3567116" lon="13.4729714"><ele>652.5999999999999</ele><time>2026-04-10T12:03:14.652Z</time></trkpt><trkpt lat="42.3567768" lon="13.472873"><ele>652.1999999999999</ele><time>2026-04-10T12:03:15.648Z</time></trkpt><trkpt lat="42.3568453" lon="13.4727551"><ele>651.8</ele><time>2026-04-10T12:03:16.655Z</time></trkpt><trkpt lat="42.3569152" lon="13.4726419"><ele>651.4</ele><time>2026-04-10T12:03:17.644Z</time></trkpt><trkpt lat="42.3569841" lon="13.472535"><ele>651.0</ele><time>2026-04-10T12:03:18.648Z</time></trkpt><trkpt lat="42.3570511" lon="13.4724374"><ele>651.0</ele><time>2026-04-10T12:03:19.651Z</time></trkpt><trkpt lat="42.357109" lon="13.4723442"><ele>651.0</ele><time>2026-04-10T12:03:20.648Z</time></trkpt><trkpt lat="42.3571618" lon="13.4722393"><ele>651.0</ele><time>2026-04-10T12:03:21.651Z</time></trkpt><trkpt lat="42.3572279" lon="13.4721314"><ele>651.0</ele><time>2026-04-10T12:03:22.648Z</time></trkpt><trkpt lat="42.3572966" lon="13.4720246"><ele>651.0</ele><time>2026-04-10T12:03:23.649Z</time></trkpt><trkpt lat="42.3573667" lon="13.4719149"><ele>651.8</ele><time>2026-04-10T12:03:24.645Z</time></trkpt><trkpt lat="42.3574309" lon="13.4717989"><ele>652.5999999999999</ele><time>2026-04-10T12:03:25.633Z</time></trkpt><trkpt lat="42.3574947" lon="13.4716734"><ele>653.4</ele><time>2026-04-10T12:03:26.633Z</time></trkpt><trkpt lat="42.3575573" lon="13.4715497"><ele>654.2</ele><time>2026-04-10T12:03:27.633Z</time></trkpt><trkpt lat="42.3576234" lon="13.4714478"><ele>655.0</ele><time>2026-04-10T12:03:28.627Z</time></trkpt><trkpt lat="42.3577129" lon="13.4713809"><ele>655.0</ele><time>2026-04-10T12:03:29.624Z</time></trkpt><trkpt lat="42.3577803" lon="13.4712926"><ele>655.0</ele><time>2026-04-10T12:03:30.633Z</time></trkpt><trkpt lat="42.3578529" lon="13.471231"><ele>655.0</ele><time>2026-04-10T12:03:31.631Z</time></trkpt><trkpt lat="42.3579254" lon="13.4711519"><ele>655.0</ele><time>2026-04-10T12:03:32.619Z</time></trkpt><trkpt lat="42.357996" lon="13.4710774"><ele>655.0</ele><time>2026-04-10T12:03:33.616Z</time></trkpt><trkpt lat="42.3580472" lon="13.4709433"><ele>655.0</ele><time>2026-04-10T12:03:35.608Z</time></trkpt><trkpt lat="42.3579763" lon="13.470932"><ele>655.0</ele><time>2026-04-10T12:03:50.634Z</time></trkpt><trkpt lat="42.3578995" lon="13.4708262"><ele>655.0</ele><time>2026-04-10T12:03:53.625Z</time></trkpt><trkpt lat="42.3578013" lon="13.4707855"><ele>655.0</ele><time>2026-04-10T12:03:54.625Z</time></trkpt><trkpt lat="42.3576751" lon="13.4707326"><ele>655.0</ele><time>2026-04-10T12:03:55.618Z</time></trkpt><trkpt lat="42.3575082" lon="13.4706792"><ele>655.0</ele><time>2026-04-10T12:03:56.625Z</time></trkpt><trkpt lat="42.3573368" lon="13.4706203"><ele>655.0</ele><time>2026-04-10T12:03:57.627Z</time></trkpt><trkpt lat="42.3571722" lon="13.4705828"><ele>655.0</ele><time>2026-04-10T12:03:58.636Z</time></trkpt><trkpt lat="42.3570237" lon="13.4705683"><ele>654.25</ele><time>2026-04-10T12:03:59.641Z</time></trkpt><trkpt lat="42.356881" lon="13.4705619"><ele>653.5</ele><time>2026-04-10T12:04:00.633Z</time></trkpt><trkpt lat="42.3567471" lon="13.4705751"><ele>652.75</ele><time>2026-04-10T12:04:01.638Z</time></trkpt><trkpt lat="42.3566303" lon="13.4705845"><ele>652.0</ele><time>2026-04-10T12:04:02.633Z</time></trkpt><trkpt lat="42.3565249" lon="13.4706032"><ele>652.0</ele><time>2026-04-10T12:04:03.637Z</time></trkpt><trkpt lat="42.3564113" lon="13.4706521"><ele>652.0</ele><time>2026-04-10T12:04:04.639Z</time></trkpt><trkpt lat="42.3563014" lon="13.4707006"><ele>652.0</ele><time>2026-04-10T12:04:05.641Z</time></trkpt><trkpt lat="42.3561907" lon="13.4707514"><ele>652.0</ele><time>2026-04-10T12:04:06.637Z</time></trkpt><trkpt lat="42.3560714" lon="13.4707746"><ele>651.75</ele><time>2026-04-10T12:04:07.628Z</time></trkpt><trkpt lat="42.3559348" lon="13.4707717"><ele>651.5</ele><time>2026-04-10T12:04:08.631Z</time></trkpt><trkpt lat="42.3558037" lon="13.4707067"><ele>651.25</ele><time>2026-04-10T12:04:09.632Z</time></trkpt><trkpt lat="42.3556803" lon="13.4705955"><ele>651.0</ele><time>2026-04-10T12:04:10.63Z</time></trkpt><trkpt lat="42.3555751" lon="13.4704062"><ele>650.0</ele><time>2026-04-10T12:04:11.636Z</time></trkpt><trkpt lat="42.3554631" lon="13.4702185"><ele>649.0</ele><time>2026-04-10T12:04:12.63Z</time></trkpt><trkpt lat="42.3553557" lon="13.4700695"><ele>648.0</ele><time>2026-04-10T12:04:13.632Z</time></trkpt><trkpt lat="42.3552339" lon="13.4699247"><ele>648.0</ele><time>2026-04-10T12:04:14.629Z</time></trkpt><trkpt lat="42.3550799" lon="13.4697832"><ele>648.0</ele><time>2026-04-10T12:04:15.634Z</time></trkpt><trkpt lat="42.3549359" lon="13.4696432"><ele>648.0</ele><time>2026-04-10T12:04:16.63Z</time></trkpt><trkpt lat="42.3547954" lon="13.469514"><ele>646.6666666666666</ele><time>2026-04-10T12:04:17.63Z</time></trkpt><trkpt lat="42.3546325" lon="13.4694142"><ele>645.3333333333333</ele><time>2026-04-10T12:04:18.633Z</time></trkpt><trkpt lat="42.3544557" lon="13.4693142"><ele>644.0</ele><time>2026-04-10T12:04:19.635Z</time></trkpt><trkpt lat="42.3542981" lon="13.4692085"><ele>644.0</ele><time>2026-04-10T12:04:20.636Z</time></trkpt><trkpt lat="42.3541676" lon="13.469048"><ele>644.0</ele><time>2026-04-10T12:04:21.641Z</time></trkpt><trkpt lat="42.3540169" lon="13.4689017"><ele>644.0</ele><time>2026-04-10T12:04:22.644Z</time></trkpt><trkpt lat="42.3538747" lon="13.4687511"><ele>643.0</ele><time>2026-04-10T12:04:23.649Z</time></trkpt><trkpt lat="42.353725" lon="13.4686191"><ele>642.0</ele><time>2026-04-10T12:04:24.643Z</time></trkpt><trkpt lat="42.3535639" lon="13.4684946"><ele>641.0</ele><time>2026-04-10T12:04:25.644Z</time></trkpt><trkpt lat="42.3534147" lon="13.4683966"><ele>641.0</ele><time>2026-04-10T12:04:26.645Z</time></trkpt><trkpt lat="42.3532734" lon="13.4682656"><ele>641.0</ele><time>2026-04-10T12:04:27.645Z</time></trkpt><trkpt lat="42.3531158" lon="13.4681471"><ele>641.0</ele><time>2026-04-10T12:04:28.653Z</time></trkpt><trkpt lat="42.352952" lon="13.4680258"><ele>639.0</ele><time>2026-04-10T12:04:29.645Z</time></trkpt><trkpt lat="42.3527999" lon="13.4679157"><ele>637.0</ele><time>2026-04-10T12:04:30.651Z</time></trkpt><trkpt lat="42.3526301" lon="13.4678302"><ele>635.0</ele><time>2026-04-10T12:04:31.651Z</time></trkpt><trkpt lat="42.3524663" lon="13.4677138"><ele>635.0</ele><time>2026-04-10T12:04:32.643Z</time></trkpt><trkpt lat="42.3523222" lon="13.467605"><ele>635.0</ele><time>2026-04-10T12:04:33.644Z</time></trkpt><trkpt lat="42.352188" lon="13.4675141"><ele>635.0</ele><time>2026-04-10T12:04:34.644Z</time></trkpt><trkpt lat="42.3520601" lon="13.467428"><ele>634.8</ele><time>2026-04-10T12:04:35.644Z</time></trkpt><trkpt lat="42.3519428" lon="13.4673483"><ele>634.6</ele><time>2026-04-10T12:04:36.645Z</time></trkpt><trkpt lat="42.351856" lon="13.4672856"><ele>634.4</ele><time>2026-04-10T12:04:37.638Z</time></trkpt><trkpt lat="42.3517872" lon="13.4671925"><ele>634.2</ele><time>2026-04-10T12:04:38.633Z</time></trkpt><trkpt lat="42.3517359" lon="13.4671204"><ele>634.0</ele><time>2026-04-10T12:04:39.635Z</time></trkpt><trkpt lat="42.351691" lon="13.4670487"><ele>633.8</ele><time>2026-04-10T12:04:40.636Z</time></trkpt><trkpt lat="42.3516288" lon="13.4669098"><ele>633.5999999999999</ele><time>2026-04-10T12:04:42.645Z</time></trkpt><trkpt lat="42.3515824" lon="13.4667982"><ele>633.4</ele><time>2026-04-10T12:04:44.641Z</time></trkpt><trkpt lat="42.351506" lon="13.4667824"><ele>633.1999999999999</ele><time>2026-04-10T12:04:47.638Z</time></trkpt><trkpt lat="42.3514412" lon="13.4667508"><ele>633.0</ele><time>2026-04-10T12:12:55.628Z</time></trkpt><trkpt lat="42.3513545" lon="13.4667787"><ele>633.0</ele><time>2026-04-10T12:12:57.637Z</time></trkpt><trkpt lat="42.3512788" lon="13.4668676"><ele>633.0</ele><time>2026-04-10T12:12:59.638Z</time></trkpt><trkpt lat="42.3512838" lon="13.466972"><ele>633.0</ele><time>2026-04-10T12:13:01.635Z</time></trkpt><trkpt lat="42.3513413" lon="13.4670348"><ele>633.0</ele><time>2026-04-10T12:13:02.631Z</time></trkpt><trkpt lat="42.3514098" lon="13.4670785"><ele>633.0</ele><time>2026-04-10T12:13:03.639Z</time></trkpt><trkpt lat="42.3514901" lon="13.467126"><ele>633.0</ele><time>2026-04-10T12:13:04.642Z</time></trkpt><trkpt lat="42.3515695" lon="13.4671789"><ele>633.25</ele><time>2026-04-10T12:13:05.625Z</time></trkpt><trkpt lat="42.3516502" lon="13.467236"><ele>633.5</ele><time>2026-04-10T12:13:06.632Z</time></trkpt><trkpt lat="42.3517593" lon="13.4673065"><ele>633.75</ele><time>2026-04-10T12:13:07.63Z</time></trkpt><trkpt lat="42.3518654" lon="13.4673818"><ele>634.0</ele><time>2026-04-10T12:13:08.63Z</time></trkpt><trkpt lat="42.3519858" lon="13.467458"><ele>634.0</ele><time>2026-04-10T12:13:09.636Z</time></trkpt><trkpt lat="42.3521083" lon="13.4675354"><ele>634.0</ele><time>2026-04-10T12:13:10.641Z</time></trkpt><trkpt lat="42.3522166" lon="13.4675915"><ele>634.0</ele><time>2026-04-10T12:13:11.632Z</time></trkpt><trkpt lat="42.3523143" lon="13.467658"><ele>634.0</ele><time>2026-04-10T12:13:12.631Z</time></trkpt><trkpt lat="42.352421" lon="13.4677254"><ele>634.25</ele><time>2026-04-10T12:13:13.631Z</time></trkpt><trkpt lat="42.3525265" lon="13.4677943"><ele>634.5</ele><time>2026-04-10T12:13:14.627Z</time></trkpt><trkpt lat="42.3526384" lon="13.4678648"><ele>634.75</ele><time>2026-04-10T12:13:15.632Z</time></trkpt><trkpt lat="42.3527552" lon="13.4679437"><ele>635.0</ele><time>2026-04-10T12:13:16.645Z</time></trkpt><trkpt lat="42.3528812" lon="13.4680221"><ele>635.5</ele><time>2026-04-10T12:13:17.646Z</time></trkpt><trkpt lat="42.3530083" lon="13.4681119"><ele>636.0</ele><time>2026-04-10T12:13:18.645Z</time></trkpt><trkpt lat="42.3531322" lon="13.468198"><ele>636.5</ele><time>2026-04-10T12:13:19.648Z</time></trkpt><trkpt lat="42.3532513" lon="13.4682863"><ele>637.0</ele><time>2026-04-10T12:13:20.659Z</time></trkpt><trkpt lat="42.353361" lon="13.4683816"><ele>638.0</ele><time>2026-04-10T12:13:21.656Z</time></trkpt><trkpt lat="42.3534751" lon="13.468491"><ele>639.0</ele><time>2026-04-10T12:13:22.652Z</time></trkpt><trkpt lat="42.3535838" lon="13.4685956"><ele>640.0</ele><time>2026-04-10T12:13:23.652Z</time></trkpt><trkpt lat="42.353698" lon="13.468717"><ele>641.0</ele><time>2026-04-10T12:13:24.651Z</time></trkpt><trkpt lat="42.3538272" lon="13.4688202"><ele>642.0</ele><time>2026-04-10T12:13:25.652Z</time></trkpt><trkpt lat="42.3539547" lon="13.4689327"><ele>643.0</ele><time>2026-04-10T12:13:26.65Z</time></trkpt><trkpt lat="42.3540879" lon="13.4690418"><ele>644.0</ele><time>2026-04-10T12:13:27.648Z</time></trkpt><trkpt lat="42.3542186" lon="13.4691648"><ele>644.0</ele><time>2026-04-10T12:13:28.645Z</time></trkpt><trkpt lat="42.3543362" lon="13.4692951"><ele>644.0</ele><time>2026-04-10T12:13:29.644Z</time></trkpt><trkpt lat="42.3544562" lon="13.4694127"><ele>644.0</ele><time>2026-04-10T12:13:30.676Z</time></trkpt><trkpt lat="42.3545934" lon="13.4695243"><ele>645.3333333333333</ele><time>2026-04-10T12:13:31.652Z</time></trkpt><trkpt lat="42.3547735" lon="13.4696226"><ele>646.6666666666666</ele><time>2026-04-10T12:13:32.647Z</time></trkpt><trkpt lat="42.3549308" lon="13.4697174"><ele>648.0</ele><time>2026-04-10T12:13:33.64Z</time></trkpt><trkpt lat="42.3550669" lon="13.4698283"><ele>648.0</ele><time>2026-04-10T12:13:34.644Z</time></trkpt><trkpt lat="42.3551977" lon="13.4699383"><ele>648.0</ele><time>2026-04-10T12:13:35.644Z</time></trkpt><trkpt lat="42.3553061" lon="13.4700531"><ele>648.0</ele><time>2026-04-10T12:13:36.644Z</time></trkpt><trkpt lat="42.3554128" lon="13.4701903"><ele>648.0</ele><time>2026-04-10T12:13:37.642Z</time></trkpt><trkpt lat="42.3555093" lon="13.4703375"><ele>648.75</ele><time>2026-04-10T12:13:38.639Z</time></trkpt><trkpt lat="42.3556036" lon="13.4704446"><ele>649.5</ele><time>2026-04-10T12:13:39.658Z</time></trkpt><trkpt lat="42.3557115" lon="13.4705476"><ele>650.25</ele><time>2026-04-10T12:13:40.653Z</time></trkpt><trkpt lat="42.3558228" lon="13.4706653"><ele>651.0</ele><time>2026-04-10T12:13:41.647Z</time></trkpt><trkpt lat="42.3559194" lon="13.4707607"><ele>651.0</ele><time>2026-04-10T12:13:42.641Z</time></trkpt><trkpt lat="42.3560366" lon="13.4708246"><ele>651.0</ele><time>2026-04-10T12:13:43.641Z</time></trkpt><trkpt lat="42.3561506" lon="13.4708837"><ele>651.0</ele><time>2026-04-10T12:13:44.64Z</time></trkpt><trkpt lat="42.3562567" lon="13.4709099"><ele>651.0</ele><time>2026-04-10T12:13:45.648Z</time></trkpt><trkpt lat="42.3563926" lon="13.4708626"><ele>651.3333333333334</ele><time>2026-04-10T12:13:46.652Z</time></trkpt><trkpt lat="42.3565379" lon="13.4707973"><ele>651.6666666666667</ele><time>2026-04-10T12:13:47.647Z</time></trkpt><trkpt lat="42.3566669" lon="13.4707258"><ele>652.0</ele><time>2026-04-10T12:13:48.648Z</time></trkpt><trkpt lat="42.3568072" lon="13.4706288"><ele>652.0</ele><time>2026-04-10T12:13:49.648Z</time></trkpt><trkpt lat="42.3569451" lon="13.4706191"><ele>652.0</ele><time>2026-04-10T12:13:50.659Z</time></trkpt><trkpt lat="42.3570836" lon="13.4706713"><ele>652.0</ele><time>2026-04-10T12:13:51.654Z</time></trkpt><trkpt lat="42.3572336" lon="13.4707107"><ele>652.0</ele><time>2026-04-10T12:13:52.655Z</time></trkpt><trkpt lat="42.357385" lon="13.4707716"><ele>652.75</ele><time>2026-04-10T12:13:53.647Z</time></trkpt><trkpt lat="42.3575065" lon="13.4708296"><ele>653.5</ele><time>2026-04-10T12:13:54.647Z</time></trkpt><trkpt lat="42.3576175" lon="13.4709064"><ele>654.25</ele><time>2026-04-10T12:13:55.651Z</time></trkpt><trkpt lat="42.3577416" lon="13.4709689"><ele>655.0</ele><time>2026-04-10T12:13:56.65Z</time></trkpt><trkpt lat="42.3578564" lon="13.4710129"><ele>655.0</ele><time>2026-04-10T12:13:57.651Z</time></trkpt><trkpt lat="42.3579729" lon="13.4710533"><ele>655.0</ele><time>2026-04-10T12:13:58.653Z</time></trkpt><trkpt lat="42.3580839" lon="13.4711112"><ele>655.0</ele><time>2026-04-10T12:13:59.646Z</time></trkpt><trkpt lat="42.3581805" lon="13.471161"><ele>655.0</ele><time>2026-04-10T12:14:00.652Z</time></trkpt><trkpt lat="42.3582815" lon="13.4711785"><ele>655.0</ele><time>2026-04-10T12:14:01.648Z</time></trkpt><trkpt lat="42.3583767" lon="13.4712161"><ele>655.3333333333334</ele><time>2026-04-10T12:14:02.649Z</time></trkpt><trkpt lat="42.3584601" lon="13.4712256"><ele>655.6666666666667</ele><time>2026-04-10T12:14:03.644Z</time></trkpt><trkpt lat="42.3585462" lon="13.4712199"><ele>656.0</ele><time>2026-04-10T12:14:04.636Z</time></trkpt><trkpt lat="42.3586254" lon="13.4711933"><ele>656.3333333333334</ele><time>2026-04-10T12:14:05.642Z</time></trkpt><trkpt lat="42.3586996" lon="13.4711664"><ele>656.6666666666666</ele><time>2026-04-10T12:14:06.643Z</time></trkpt><trkpt lat="42.3587705" lon="13.4711329"><ele>657.0</ele><time>2026-04-10T12:14:07.645Z</time></trkpt><trkpt lat="42.358836" lon="13.4711162"><ele>657.3333333333334</ele><time>2026-04-10T12:14:08.645Z</time></trkpt><trkpt lat="42.3588994" lon="13.4711031"><ele>657.6666666666666</ele><time>2026-04-10T12:14:09.646Z</time></trkpt><trkpt lat="42.3589672" lon="13.471108"><ele>658.0</ele><time>2026-04-10T12:14:10.654Z</time></trkpt><trkpt lat="42.3590338" lon="13.4711165"><ele>658.3333333333333</ele><time>2026-04-10T12:14:11.644Z</time></trkpt><trkpt lat="42.3591044" lon="13.4711557"><ele>658.6666666666666</ele><time>2026-04-10T12:14:12.638Z</time></trkpt><trkpt lat="42.359186" lon="13.4711958"><ele>659.0</ele><time>2026-04-10T12:14:13.635Z</time></trkpt><trkpt lat="42.3592705" lon="13.4712324"><ele>659.0</ele><time>2026-04-10T12:14:14.639Z</time></trkpt><trkpt lat="42.3593452" lon="13.4712488"><ele>659.0</ele><time>2026-04-10T12:14:15.642Z</time></trkpt><trkpt lat="42.3594294" lon="13.4712434"><ele>659.0</ele><time>2026-04-10T12:14:16.642Z</time></trkpt><trkpt lat="42.3595034" lon="13.4712111"><ele>659.0</ele><time>2026-04-10T12:14:17.638Z</time></trkpt><trkpt lat="42.3596135" lon="13.4711674"><ele>659.0</ele><time>2026-04-10T12:14:19.64Z</time></trkpt><trkpt lat="42.3596318" lon="13.4710775"><ele>659.0</ele><time>2026-04-10T12:14:28.649Z</time></trkpt><trkpt lat="42.3596518" lon="13.4709901"><ele>659.4000000000001</ele><time>2026-04-10T12:14:30.651Z</time></trkpt><trkpt lat="42.3597136" lon="13.4708507"><ele>659.8</ele><time>2026-04-10T12:14:32.63Z</time></trkpt><trkpt lat="42.3597636" lon="13.4707287"><ele>660.2</ele><time>2026-04-10T12:14:33.63Z</time></trkpt><trkpt lat="42.3598345" lon="13.4705965"><ele>660.5999999999999</ele><time>2026-04-10T12:14:34.63Z</time></trkpt><trkpt lat="42.3599012" lon="13.4705004"><ele>661.0</ele><time>2026-04-10T12:14:35.631Z</time></trkpt><trkpt lat="42.3599731" lon="13.4704337"><ele>661.4</ele><time>2026-04-10T12:14:36.634Z</time></trkpt><trkpt lat="42.3600864" lon="13.4704995"><ele>661.8</ele><time>2026-04-10T12:14:38.617Z</time></trkpt><trkpt lat="42.360143" lon="13.4705979"><ele>662.1999999999999</ele><time>2026-04-10T12:14:39.626Z</time></trkpt><trkpt lat="42.3602161" lon="13.4707039"><ele>662.5999999999999</ele><time>2026-04-10T12:14:40.644Z</time></trkpt><trkpt lat="42.3602819" lon="13.4707993"><ele>663.0</ele><time>2026-04-10T12:14:41.635Z</time></trkpt><trkpt lat="42.3603539" lon="13.4708833"><ele>663.0</ele><time>2026-04-10T12:14:42.635Z</time></trkpt><trkpt lat="42.3604289" lon="13.4709557"><ele>663.0</ele><time>2026-04-10T12:14:43.639Z</time></trkpt><trkpt lat="42.3604914" lon="13.4710289"><ele>663.0</ele><time>2026-04-10T12:14:44.638Z</time></trkpt><trkpt lat="42.3605531" lon="13.4710865"><ele>663.0</ele><time>2026-04-10T12:14:45.636Z</time></trkpt><trkpt lat="42.3606373" lon="13.471164"><ele>663.0</ele><time>2026-04-10T12:14:47.63Z</time></trkpt><trkpt lat="42.3607061" lon="13.4711972"><ele>663.0</ele><time>2026-04-10T12:14:49.624Z</time></trkpt><trkpt lat="42.3606912" lon="13.4710739"><ele>663.6666666666666</ele><time>2026-04-10T12:14:52.646Z</time></trkpt><trkpt lat="42.3606767" lon="13.4709535"><ele>664.3333333333334</ele><time>2026-04-10T12:14:55.643Z</time></trkpt><trkpt lat="42.3606804" lon="13.4708493"><ele>665.0</ele><time>2026-04-10T12:14:59.634Z</time></trkpt><trkpt lat="42.3607123" lon="13.4707553"><ele>665.6666666666667</ele><time>2026-04-10T12:15:00.647Z</time></trkpt><trkpt lat="42.3607619" lon="13.4706024"><ele>666.3333333333334</ele><time>2026-04-10T12:15:02.626Z</time></trkpt><trkpt lat="42.3608043" lon="13.4705139"><ele>667.0</ele><time>2026-04-10T12:15:03.622Z</time></trkpt><trkpt lat="42.3608338" lon="13.4704362"><ele>667.0</ele><time>2026-04-10T12:15:04.624Z</time></trkpt><trkpt lat="42.3608853" lon="13.4703189"><ele>667.0</ele><time>2026-04-10T12:15:06.616Z</time></trkpt><trkpt lat="42.360926" lon="13.4701575"><ele>667.0</ele><time>2026-04-10T12:15:08.605Z</time></trkpt><trkpt lat="42.3609516" lon="13.4700418"><ele>667.0</ele><time>2026-04-10T12:15:09.609Z</time></trkpt><trkpt lat="42.3609931" lon="13.4699165"><ele>667.0</ele><time>2026-04-10T12:15:10.611Z</time></trkpt><trkpt lat="42.3610474" lon="13.4698149"><ele>667.0</ele><time>2026-04-10T12:15:11.608Z</time></trkpt><trkpt lat="42.3610916" lon="13.469719"><ele>667.0</ele><time>2026-04-10T12:15:12.611Z</time></trkpt><trkpt lat="42.3611412" lon="13.4696373"><ele>667.0</ele><time>2026-04-10T12:15:13.629Z</time></trkpt><trkpt lat="42.3611968" lon="13.4695538"><ele>667.0</ele><time>2026-04-10T12:15:14.625Z</time></trkpt><trkpt lat="42.3612531" lon="13.4694594"><ele>667.0</ele><time>2026-04-10T12:15:15.626Z</time></trkpt><trkpt lat="42.3613096" lon="13.4693663"><ele>667.0</ele><time>2026-04-10T12:15:16.631Z</time></trkpt><trkpt lat="42.3613762" lon="13.4692889"><ele>667.0</ele><time>2026-04-10T12:15:17.631Z</time></trkpt><trkpt lat="42.3614382" lon="13.4691993"><ele>667.0</ele><time>2026-04-10T12:15:18.633Z</time></trkpt><trkpt lat="42.3614979" lon="13.4691086"><ele>667.0</ele><time>2026-04-10T12:15:19.63Z</time></trkpt><trkpt lat="42.3615576" lon="13.4690302"><ele>667.0</ele><time>2026-04-10T12:15:20.63Z</time></trkpt><trkpt lat="42.3616063" lon="13.4689653"><ele>667.0</ele><time>2026-04-10T12:15:21.636Z</time></trkpt><trkpt lat="42.3616735" lon="13.4688748"><ele>667.0</ele><time>2026-04-10T12:15:23.627Z</time></trkpt><trkpt lat="42.3617111" lon="13.4687965"><ele>666.2</ele><time>2026-04-10T12:15:30.638Z</time></trkpt><trkpt lat="42.3617605" lon="13.4687038"><ele>665.4000000000001</ele><time>2026-04-10T12:15:32.632Z</time></trkpt><trkpt lat="42.361829" lon="13.4686303"><ele>664.5999999999999</ele><time>2026-04-10T12:15:33.629Z</time></trkpt><trkpt lat="42.361889" lon="13.4685691"><ele>663.8</ele><time>2026-04-10T12:15:34.63Z</time></trkpt><trkpt lat="42.3619779" lon="13.4684946"><ele>663.0</ele><time>2026-04-10T12:15:36.633Z</time></trkpt><trkpt lat="42.3620987" lon="13.4684332"><ele>663.0</ele><time>2026-04-10T12:15:38.629Z</time></trkpt><trkpt lat="42.3621834" lon="13.4683989"><ele>663.0</ele><time>2026-04-10T12:15:39.618Z</time></trkpt><trkpt lat="42.362287" lon="13.4683387"><ele>663.0</ele><time>2026-04-10T12:15:40.613Z</time></trkpt><trkpt lat="42.3624078" lon="13.4682572"><ele>663.0</ele><time>2026-04-10T12:15:41.628Z</time></trkpt><trkpt lat="42.3625304" lon="13.4681847"><ele>663.3333333333334</ele><time>2026-04-10T12:15:42.63Z</time></trkpt><trkpt lat="42.3626644" lon="13.4680963"><ele>663.6666666666667</ele><time>2026-04-10T12:15:43.631Z</time></trkpt><trkpt lat="42.3627816" lon="13.4679527"><ele>664.0</ele><time>2026-04-10T12:15:44.626Z</time></trkpt><trkpt lat="42.3629075" lon="13.4677943"><ele>664.0</ele><time>2026-04-10T12:15:45.625Z</time></trkpt><trkpt lat="42.3630085" lon="13.4676492"><ele>664.0</ele><time>2026-04-10T12:15:46.624Z</time></trkpt><trkpt lat="42.3631233" lon="13.4675152"><ele>664.0</ele><time>2026-04-10T12:15:47.626Z</time></trkpt><trkpt lat="42.3632154" lon="13.4673622"><ele>664.0</ele><time>2026-04-10T12:15:48.625Z</time></trkpt><trkpt lat="42.3632855" lon="13.4672258"><ele>664.3333333333334</ele><time>2026-04-10T12:15:49.632Z</time></trkpt><trkpt lat="42.3633277" lon="13.4671285"><ele>664.6666666666667</ele><time>2026-04-10T12:15:50.625Z</time></trkpt><trkpt lat="42.3633452" lon="13.4670351"><ele>665.0</ele><time>2026-04-10T12:15:51.622Z</time></trkpt><trkpt lat="42.3633786" lon="13.4669458"><ele>665.3333333333334</ele><time>2026-04-10T12:15:52.619Z</time></trkpt><trkpt lat="42.3634592" lon="13.4668653"><ele>665.6666666666666</ele><time>2026-04-10T12:15:53.619Z</time></trkpt><trkpt lat="42.3635375" lon="13.4668908"><ele>666.0</ele><time>2026-04-10T12:15:54.623Z</time></trkpt><trkpt lat="42.3635872" lon="13.4669549"><ele>666.0</ele><time>2026-04-10T12:15:55.632Z</time></trkpt><trkpt lat="42.36364" lon="13.4670608"><ele>666.0</ele><time>2026-04-10T12:15:56.617Z</time></trkpt><trkpt lat="42.3637009" lon="13.4671654"><ele>666.0</ele><time>2026-04-10T12:15:57.62Z</time></trkpt><trkpt lat="42.3637716" lon="13.4672534"><ele>666.0</ele><time>2026-04-10T12:15:58.617Z</time></trkpt><trkpt lat="42.3638435" lon="13.4673371"><ele>666.0</ele><time>2026-04-10T12:15:59.617Z</time></trkpt><trkpt lat="42.3639377" lon="13.4674359"><ele>667.25</ele><time>2026-04-10T12:16:00.616Z</time></trkpt><trkpt lat="42.3640301" lon="13.4675422"><ele>668.5</ele><time>2026-04-10T12:16:01.625Z</time></trkpt><trkpt lat="42.3641266" lon="13.4676622"><ele>669.75</ele><time>2026-04-10T12:16:02.62Z</time></trkpt><trkpt lat="42.3642217" lon="13.4677743"><ele>671.0</ele><time>2026-04-10T12:16:03.626Z</time></trkpt><trkpt lat="42.3643208" lon="13.4678938"><ele>673.0</ele><time>2026-04-10T12:16:04.624Z</time></trkpt><trkpt lat="42.3644188" lon="13.4680057"><ele>675.0</ele><time>2026-04-10T12:16:05.629Z</time></trkpt><trkpt lat="42.3645168" lon="13.4681247"><ele>677.0</ele><time>2026-04-10T12:16:06.625Z</time></trkpt><trkpt lat="42.3646033" lon="13.4682329"><ele>679.0</ele><time>2026-04-10T12:16:07.626Z</time></trkpt><trkpt lat="42.3646785" lon="13.4683278"><ele>681.8000000000001</ele><time>2026-04-10T12:16:08.62Z</time></trkpt><trkpt lat="42.3647597" lon="13.4684011"><ele>684.6</ele><time>2026-04-10T12:16:09.621Z</time></trkpt><trkpt lat="42.364861" lon="13.4684278"><ele>687.4</ele><time>2026-04-10T12:16:10.624Z</time></trkpt><trkpt lat="42.3649562" lon="13.4684333"><ele>690.2</ele><time>2026-04-10T12:16:11.623Z</time></trkpt><trkpt lat="42.3650566" lon="13.4683914"><ele>693.0</ele><time>2026-04-10T12:16:12.617Z</time></trkpt><trkpt lat="42.3651529" lon="13.4683153"><ele>693.0</ele><time>2026-04-10T12:16:13.617Z</time></trkpt><trkpt lat="42.3652385" lon="13.4682269"><ele>693.0</ele><time>2026-04-10T12:16:14.609Z</time></trkpt><trkpt lat="42.3653109" lon="13.4681375"><ele>693.0</ele><time>2026-04-10T12:16:15.602Z</time></trkpt><trkpt lat="42.3653677" lon="13.4680975"><ele>693.0</ele><time>2026-04-10T12:16:16.614Z</time></trkpt><trkpt lat="42.3654176" lon="13.4680438"><ele>693.0</ele><time>2026-04-10T12:16:17.629Z</time></trkpt><trkpt lat="42.3654782" lon="13.4680725"><ele>693.0</ele><time>2026-04-10T12:16:18.622Z</time></trkpt><trkpt lat="42.3655508" lon="13.4681233"><ele>694.4</ele><time>2026-04-10T12:16:19.632Z</time></trkpt><trkpt lat="42.3656141" lon="13.4681821"><ele>695.8</ele><time>2026-04-10T12:16:20.626Z</time></trkpt><trkpt lat="42.3656872" lon="13.4682439"><ele>697.2</ele><time>2026-04-10T12:16:21.626Z</time></trkpt><trkpt lat="42.365765" lon="13.4683139"><ele>698.6</ele><time>2026-04-10T12:16:22.627Z</time></trkpt><trkpt lat="42.3658756" lon="13.4683877"><ele>700.0</ele><time>2026-04-10T12:16:23.623Z</time></trkpt><trkpt lat="42.3660019" lon="13.4684631"><ele>700.0</ele><time>2026-04-10T12:16:24.628Z</time></trkpt><trkpt lat="42.366122" lon="13.4685465"><ele>700.0</ele><time>2026-04-10T12:16:25.628Z</time></trkpt><trkpt lat="42.3662372" lon="13.4686163"><ele>700.0</ele><time>2026-04-10T12:16:26.623Z</time></trkpt><trkpt lat="42.366352" lon="13.4686952"><ele>700.0</ele><time>2026-04-10T12:16:27.637Z</time></trkpt><trkpt lat="42.3664422" lon="13.4687365"><ele>701.25</ele><time>2026-04-10T12:16:28.619Z</time></trkpt><trkpt lat="42.3665537" lon="13.468751"><ele>702.5</ele><time>2026-04-10T12:16:29.621Z</time></trkpt><trkpt lat="42.3666672" lon="13.4687802"><ele>703.75</ele><time>2026-04-10T12:16:30.628Z</time></trkpt><trkpt lat="42.3668118" lon="13.4688585"><ele>705.0</ele><time>2026-04-10T12:16:31.634Z</time></trkpt><trkpt lat="42.3669417" lon="13.4689324"><ele>707.0</ele><time>2026-04-10T12:16:32.624Z</time></trkpt><trkpt lat="42.3670529" lon="13.4690212"><ele>709.0</ele><time>2026-04-10T12:16:33.63Z</time></trkpt><trkpt lat="42.3671325" lon="13.4691034"><ele>711.0</ele><time>2026-04-10T12:16:34.632Z</time></trkpt><trkpt lat="42.367213" lon="13.4691846"><ele>713.0</ele><time>2026-04-10T12:16:35.632Z</time></trkpt><trkpt lat="42.367288" lon="13.4692749"><ele>715.0</ele><time>2026-04-10T12:16:36.63Z</time></trkpt><trkpt lat="42.3673604" lon="13.4693673"><ele>715.0</ele><time>2026-04-10T12:16:37.628Z</time></trkpt><trkpt lat="42.3674246" lon="13.469437"><ele>715.0</ele><time>2026-04-10T12:16:38.627Z</time></trkpt><trkpt lat="42.3674857" lon="13.4694887"><ele>715.0</ele><time>2026-04-10T12:16:39.621Z</time></trkpt><trkpt lat="42.3675535" lon="13.4695078"><ele>715.0</ele><time>2026-04-10T12:16:40.618Z</time></trkpt><trkpt lat="42.3676777" lon="13.4694559"><ele>715.0</ele><time>2026-04-10T12:16:42.617Z</time></trkpt><trkpt lat="42.3677561" lon="13.4693348"><ele>715.0</ele><time>2026-04-10T12:16:43.614Z</time></trkpt><trkpt lat="42.3678486" lon="13.4692332"><ele>715.0</ele><time>2026-04-10T12:16:44.611Z</time></trkpt><trkpt lat="42.3679481" lon="13.4691414"><ele>715.0</ele><time>2026-04-10T12:16:45.615Z</time></trkpt><trkpt lat="42.368069" lon="13.4690845"><ele>715.0</ele><time>2026-04-10T12:16:46.619Z</time></trkpt><trkpt lat="42.3681961" lon="13.4690421"><ele>717.25</ele><time>2026-04-10T12:16:47.62Z</time></trkpt><trkpt lat="42.3683247" lon="13.4690041"><ele>719.5</ele><time>2026-04-10T12:16:48.622Z</time></trkpt><trkpt lat="42.368433" lon="13.4689862"><ele>721.75</ele><time>2026-04-10T12:16:49.624Z</time></trkpt><trkpt lat="42.3685367" lon="13.468993"><ele>724.0</ele><time>2026-04-10T12:16:50.622Z</time></trkpt><trkpt lat="42.3686449" lon="13.4690112"><ele>724.0</ele><time>2026-04-10T12:16:51.622Z</time></trkpt><trkpt lat="42.3687617" lon="13.4690448"><ele>724.0</ele><time>2026-04-10T12:16:52.632Z</time></trkpt><trkpt lat="42.3688916" lon="13.4691069"><ele>724.0</ele><time>2026-04-10T12:16:53.632Z</time></trkpt><trkpt lat="42.3690143" lon="13.4691687"><ele>724.0</ele><time>2026-04-10T12:16:54.629Z</time></trkpt><trkpt lat="42.3691338" lon="13.469243"><ele>725.25</ele><time>2026-04-10T12:16:55.63Z</time></trkpt><trkpt lat="42.3692406" lon="13.4692963"><ele>726.5</ele><time>2026-04-10T12:16:56.629Z</time></trkpt><trkpt lat="42.3693526" lon="13.4693371"><ele>727.75</ele><time>2026-04-10T12:16:57.637Z</time></trkpt><trkpt lat="42.3694643" lon="13.4693712"><ele>729.0</ele><time>2026-04-10T12:16:58.631Z</time></trkpt><trkpt lat="42.3695776" lon="13.4694007"><ele>729.0</ele><time>2026-04-10T12:16:59.628Z</time></trkpt><trkpt lat="42.3696884" lon="13.4694183"><ele>729.0</ele><time>2026-04-10T12:17:00.637Z</time></trkpt><trkpt lat="42.3697889" lon="13.4694393"><ele>729.0</ele><time>2026-04-10T12:17:01.638Z</time></trkpt><trkpt lat="42.3698908" lon="13.4694771"><ele>729.0</ele><time>2026-04-10T12:17:02.623Z</time></trkpt><trkpt lat="42.3699986" lon="13.4695074"><ele>729.0</ele><time>2026-04-10T12:17:03.626Z</time></trkpt><trkpt lat="42.3701219" lon="13.4695144"><ele>730.5</ele><time>2026-04-10T12:17:04.624Z</time></trkpt><trkpt lat="42.3702505" lon="13.469467"><ele>732.0</ele><time>2026-04-10T12:17:05.627Z</time></trkpt><trkpt lat="42.3703766" lon="13.4694095"><ele>733.5</ele><time>2026-04-10T12:17:06.617Z</time></trkpt><trkpt lat="42.3704984" lon="13.4693431"><ele>735.0</ele><time>2026-04-10T12:17:07.622Z</time></trkpt><trkpt lat="42.3706211" lon="13.469288"><ele>735.75</ele><time>2026-04-10T12:17:08.622Z</time></trkpt><trkpt lat="42.3707405" lon="13.46925"><ele>736.5</ele><time>2026-04-10T12:17:09.624Z</time></trkpt><trkpt lat="42.3708769" lon="13.4692252"><ele>737.25</ele><time>2026-04-10T12:17:10.623Z</time></trkpt><trkpt lat="42.3710133" lon="13.4692031"><ele>738.0</ele><time>2026-04-10T12:17:11.615Z</time></trkpt><trkpt lat="42.3711353" lon="13.4691713"><ele>738.0</ele><time>2026-04-10T12:17:12.622Z</time></trkpt><trkpt lat="42.3712253" lon="13.469118"><ele>738.0</ele><time>2026-04-10T12:17:13.612Z</time></trkpt><trkpt lat="42.3713401" lon="13.4690815"><ele>738.0</ele><time>2026-04-10T12:17:14.616Z</time></trkpt><trkpt lat="42.3713972" lon="13.4689943"><ele>738.0</ele><time>2026-04-10T12:17:15.615Z</time></trkpt><trkpt lat="42.3714446" lon="13.4688704"><ele>738.0</ele><time>2026-04-10T12:17:16.609Z</time></trkpt><trkpt lat="42.3714681" lon="13.4687694"><ele>738.6666666666666</ele><time>2026-04-10T12:17:17.613Z</time></trkpt><trkpt lat="42.3714969" lon="13.4686886"><ele>739.3333333333334</ele><time>2026-04-10T12:17:18.619Z</time></trkpt><trkpt lat="42.3715534" lon="13.4686089"><ele>740.0</ele><time>2026-04-10T12:17:19.62Z</time></trkpt><trkpt lat="42.3716194" lon="13.4685494"><ele>740.6666666666667</ele><time>2026-04-10T12:17:20.614Z</time></trkpt><trkpt lat="42.3716911" lon="13.4684607"><ele>741.3333333333334</ele><time>2026-04-10T12:17:21.625Z</time></trkpt><trkpt lat="42.3717651" lon="13.4683927"><ele>742.0</ele><time>2026-04-10T12:17:22.633Z</time></trkpt><trkpt lat="42.3718451" lon="13.4683354"><ele>742.0</ele><time>2026-04-10T12:17:23.625Z</time></trkpt><trkpt lat="42.3719513" lon="13.4682969"><ele>742.0</ele><time>2026-04-10T12:17:24.618Z</time></trkpt><trkpt lat="42.3720719" lon="13.4682757"><ele>742.0</ele><time>2026-04-10T12:17:25.639Z</time></trkpt><trkpt lat="42.3721975" lon="13.4682475"><ele>742.0</ele><time>2026-04-10T12:17:26.637Z</time></trkpt><trkpt lat="42.3723212" lon="13.4682198"><ele>745.5</ele><time>2026-04-10T12:17:27.633Z</time></trkpt><trkpt lat="42.3724351" lon="13.4681775"><ele>749.0</ele><time>2026-04-10T12:17:28.633Z</time></trkpt><trkpt lat="42.3725401" lon="13.4681173"><ele>752.5</ele><time>2026-04-10T12:17:29.627Z</time></trkpt><trkpt lat="42.372647" lon="13.4680394"><ele>756.0</ele><time>2026-04-10T12:17:30.623Z</time></trkpt><trkpt lat="42.3727346" lon="13.4679499"><ele>754.75</ele><time>2026-04-10T12:17:31.629Z</time></trkpt><trkpt lat="42.3728293" lon="13.4678535"><ele>753.5</ele><time>2026-04-10T12:17:32.62Z</time></trkpt><trkpt lat="42.3729186" lon="13.4677771"><ele>752.25</ele><time>2026-04-10T12:17:33.616Z</time></trkpt><trkpt lat="42.373018" lon="13.467727"><ele>751.0</ele><time>2026-04-10T12:17:34.625Z</time></trkpt><trkpt lat="42.3731426" lon="13.4677268"><ele>751.0</ele><time>2026-04-10T12:17:35.622Z</time></trkpt><trkpt lat="42.3732595" lon="13.4677231"><ele>751.0</ele><time>2026-04-10T12:17:36.628Z</time></trkpt><trkpt lat="42.3733642" lon="13.4677007"><ele>751.0</ele><time>2026-04-10T12:17:37.612Z</time></trkpt><trkpt lat="42.3734772" lon="13.4676631"><ele>751.0</ele><time>2026-04-10T12:17:38.617Z</time></trkpt><trkpt lat="42.373571" lon="13.4675941"><ele>751.0</ele><time>2026-04-10T12:17:39.619Z</time></trkpt><trkpt lat="42.373661" lon="13.4675178"><ele>751.0</ele><time>2026-04-10T12:17:40.627Z</time></trkpt><trkpt lat="42.3737531" lon="13.4674343"><ele>751.0</ele><time>2026-04-10T12:17:41.624Z</time></trkpt><trkpt lat="42.3738533" lon="13.4673844"><ele>751.0</ele><time>2026-04-10T12:17:42.62Z</time></trkpt><trkpt lat="42.3739365" lon="13.4673476"><ele>751.0</ele><time>2026-04-10T12:17:43.62Z</time></trkpt><trkpt lat="42.3740126" lon="13.4673297"><ele>751.0</ele><time>2026-04-10T12:17:44.618Z</time></trkpt><trkpt lat="42.3740869" lon="13.4673489"><ele>753.0</ele><time>2026-04-10T12:17:45.612Z</time></trkpt><trkpt lat="42.3741658" lon="13.4674002"><ele>755.0</ele><time>2026-04-10T12:17:46.611Z</time></trkpt><trkpt lat="42.3742606" lon="13.4675081"><ele>757.0</ele><time>2026-04-10T12:17:47.612Z</time></trkpt><trkpt lat="42.3743473" lon="13.4676175"><ele>759.0</ele><time>2026-04-10T12:17:48.612Z</time></trkpt><trkpt lat="42.3744538" lon="13.4677207"><ele>759.0</ele><time>2026-04-10T12:17:49.613Z</time></trkpt><trkpt lat="42.3745723" lon="13.4678056"><ele>759.0</ele><time>2026-04-10T12:17:50.617Z</time></trkpt><trkpt lat="42.3746632" lon="13.4678895"><ele>759.0</ele><time>2026-04-10T12:17:51.611Z</time></trkpt><trkpt lat="42.3747414" lon="13.4679727"><ele>759.0</ele><time>2026-04-10T12:17:52.62Z</time></trkpt><trkpt lat="42.3747928" lon="13.4680564"><ele>759.0</ele><time>2026-04-10T12:17:53.619Z</time></trkpt><trkpt lat="42.3748074" lon="13.4681607"><ele>762.2</ele><time>2026-04-10T12:17:54.617Z</time></trkpt><trkpt lat="42.3748113" lon="13.4682467"><ele>765.4000000000001</ele><time>2026-04-10T12:17:55.614Z</time></trkpt><trkpt lat="42.3747633" lon="13.468396"><ele>768.6</ele><time>2026-04-10T12:17:57.603Z</time></trkpt><trkpt lat="42.3746699" lon="13.4684417"><ele>771.8</ele><time>2026-04-10T12:17:58.609Z</time></trkpt><trkpt lat="42.3745528" lon="13.4684754"><ele>775.0</ele><time>2026-04-10T12:17:59.609Z</time></trkpt><trkpt lat="42.3744381" lon="13.4685076"><ele>775.0</ele><time>2026-04-10T12:18:00.594Z</time></trkpt><trkpt lat="42.374314" lon="13.4685226"><ele>775.0</ele><time>2026-04-10T12:18:01.61Z</time></trkpt><trkpt lat="42.3740827" lon="13.4684884"><ele>775.0</ele><time>2026-04-10T12:18:02.613Z</time></trkpt><trkpt lat="42.3738604" lon="13.4684655"><ele>772.3333333333333</ele><time>2026-04-10T12:18:03.613Z</time></trkpt><trkpt lat="42.3736756" lon="13.4684635"><ele>769.6666666666666</ele><time>2026-04-10T12:18:04.623Z</time></trkpt><trkpt lat="42.3735375" lon="13.4685002"><ele>767.0</ele><time>2026-04-10T12:18:05.624Z</time></trkpt><trkpt lat="42.3734103" lon="13.4685717"><ele>767.0</ele><time>2026-04-10T12:18:06.628Z</time></trkpt><trkpt lat="42.3732881" lon="13.4686577"><ele>767.0</ele><time>2026-04-10T12:18:07.62Z</time></trkpt><trkpt lat="42.3731668" lon="13.4687483"><ele>767.0</ele><time>2026-04-10T12:18:08.619Z</time></trkpt><trkpt lat="42.3730447" lon="13.4688244"><ele>767.0</ele><time>2026-04-10T12:18:09.62Z</time></trkpt><trkpt lat="42.3729201" lon="13.4688982"><ele>768.5</ele><time>2026-04-10T12:18:10.614Z</time></trkpt><trkpt lat="42.372787" lon="13.4689716"><ele>770.0</ele><time>2026-04-10T12:18:11.608Z</time></trkpt><trkpt lat="42.3726681" lon="13.4690731"><ele>771.5</ele><time>2026-04-10T12:18:12.607Z</time></trkpt><trkpt lat="42.3725538" lon="13.4691802"><ele>773.0</ele><time>2026-04-10T12:18:13.604Z</time></trkpt><trkpt lat="42.3724413" lon="13.4692927"><ele>773.0</ele><time>2026-04-10T12:18:14.606Z</time></trkpt><trkpt lat="42.3723371" lon="13.4694617"><ele>773.0</ele><time>2026-04-10T12:18:15.604Z</time></trkpt><trkpt lat="42.3722373" lon="13.4695909"><ele>773.0</ele><time>2026-04-10T12:18:16.598Z</time></trkpt><trkpt lat="42.3721759" lon="13.4697191"><ele>773.0</ele><time>2026-04-10T12:18:17.597Z</time></trkpt><trkpt lat="42.3721083" lon="13.4698175"><ele>771.2</ele><time>2026-04-10T12:18:18.596Z</time></trkpt><trkpt lat="42.3720307" lon="13.4699091"><ele>769.4</ele><time>2026-04-10T12:18:19.594Z</time></trkpt><trkpt lat="42.3719875" lon="13.470037"><ele>767.6</ele><time>2026-04-10T12:18:20.59Z</time></trkpt><trkpt lat="42.3720062" lon="13.470145"><ele>765.8000000000001</ele><time>2026-04-10T12:18:21.603Z</time></trkpt><trkpt lat="42.3720805" lon="13.4702953"><ele>764.0</ele><time>2026-04-10T12:18:22.613Z</time></trkpt><trkpt lat="42.3721379" lon="13.4704748"><ele>768.75</ele><time>2026-04-10T12:18:23.615Z</time></trkpt><trkpt lat="42.3721791" lon="13.4706254"><ele>773.5</ele><time>2026-04-10T12:18:24.622Z</time></trkpt><trkpt lat="42.3722073" lon="13.4707865"><ele>778.25</ele><time>2026-04-10T12:18:25.618Z</time></trkpt><trkpt lat="42.3722385" lon="13.4709447"><ele>783.0</ele><time>2026-04-10T12:18:26.612Z</time></trkpt><trkpt lat="42.3722686" lon="13.4710911"><ele>785.8333333333334</ele><time>2026-04-10T12:18:27.621Z</time></trkpt><trkpt lat="42.3723058" lon="13.4712083"><ele>788.6666666666667</ele><time>2026-04-10T12:18:28.613Z</time></trkpt><trkpt lat="42.372312" lon="13.4713249"><ele>791.5</ele><time>2026-04-10T12:18:29.615Z</time></trkpt><trkpt lat="42.372293" lon="13.4714382"><ele>794.3333333333334</ele><time>2026-04-10T12:18:30.629Z</time></trkpt><trkpt lat="42.372265" lon="13.4715421"><ele>797.1666666666667</ele><time>2026-04-10T12:18:31.619Z</time></trkpt><trkpt lat="42.3721874" lon="13.4715362"><ele>800.0</ele><time>2026-04-10T12:18:32.609Z</time></trkpt><trkpt lat="42.3721272" lon="13.4715073"><ele>801.25</ele><time>2026-04-10T12:18:33.609Z</time></trkpt><trkpt lat="42.372045" lon="13.4714259"><ele>802.5</ele><time>2026-04-10T12:18:34.613Z</time></trkpt><trkpt lat="42.3719379" lon="13.4713146"><ele>803.75</ele><time>2026-04-10T12:18:35.614Z</time></trkpt><trkpt lat="42.3718206" lon="13.4712351"><ele>805.0</ele><time>2026-04-10T12:18:36.615Z</time></trkpt><trkpt lat="42.371712" lon="13.4712048"><ele>804.9999999999999</ele><time>2026-04-10T12:18:37.611Z</time></trkpt><trkpt lat="42.3716372" lon="13.4712397"><ele>805.0</ele><time>2026-04-10T12:18:38.61Z</time></trkpt><trkpt lat="42.3715661" lon="13.4712888"><ele>805.0</ele><time>2026-04-10T12:18:39.606Z</time></trkpt><trkpt lat="42.371532" lon="13.4713729"><ele>805.0</ele><time>2026-04-10T12:18:40.602Z</time></trkpt><trkpt lat="42.3715066" lon="13.4715075"><ele>804.9999999999999</ele><time>2026-04-10T12:18:41.604Z</time></trkpt><trkpt lat="42.3714809" lon="13.4716312"><ele>805.0</ele><time>2026-04-10T12:18:42.606Z</time></trkpt><trkpt lat="42.3714594" lon="13.4717281"><ele>805.0</ele><time>2026-04-10T12:18:43.614Z</time></trkpt><trkpt lat="42.3714351" lon="13.4718142"><ele>805.0</ele><time>2026-04-10T12:18:44.616Z</time></trkpt><trkpt lat="42.3713301" lon="13.4718676"><ele>805.0</ele><time>2026-04-10T12:18:46.608Z</time></trkpt><trkpt lat="42.3711992" lon="13.471843"><ele>805.0</ele><time>2026-04-10T12:18:48.611Z</time></trkpt><trkpt lat="42.371119" lon="13.4717902"><ele>805.0</ele><time>2026-04-10T12:18:49.616Z</time></trkpt><trkpt lat="42.3710321" lon="13.471691"><ele>804.8</ele><time>2026-04-10T12:18:50.622Z</time></trkpt><trkpt lat="42.3709297" lon="13.4716139"><ele>804.6</ele><time>2026-04-10T12:18:51.634Z</time></trkpt><trkpt lat="42.3708233" lon="13.4715387"><ele>804.4000000000001</ele><time>2026-04-10T12:18:52.626Z</time></trkpt><trkpt lat="42.3707245" lon="13.4715334"><ele>804.2</ele><time>2026-04-10T12:18:53.625Z</time></trkpt><trkpt lat="42.3706166" lon="13.4715528"><ele>804.0</ele><time>2026-04-10T12:18:54.624Z</time></trkpt><trkpt lat="42.370499" lon="13.471588"><ele>802.75</ele><time>2026-04-10T12:18:55.629Z</time></trkpt><trkpt lat="42.3703802" lon="13.471642"><ele>801.5</ele><time>2026-04-10T12:18:56.619Z</time></trkpt><trkpt lat="42.3702529" lon="13.4717159"><ele>800.25</ele><time>2026-04-10T12:18:57.621Z</time></trkpt><trkpt lat="42.3701246" lon="13.4717878"><ele>799.0</ele><time>2026-04-10T12:18:58.619Z</time></trkpt><trkpt lat="42.3699736" lon="13.471892"><ele>799.0</ele><time>2026-04-10T12:18:59.619Z</time></trkpt><trkpt lat="42.3698375" lon="13.472034"><ele>799.0</ele><time>2026-04-10T12:19:00.616Z</time></trkpt><trkpt lat="42.3697" lon="13.4721794"><ele>799.0</ele><time>2026-04-10T12:19:01.625Z</time></trkpt><trkpt lat="42.3695897" lon="13.4722715"><ele>800.6</ele><time>2026-04-10T12:19:02.61Z</time></trkpt><trkpt lat="42.3694931" lon="13.4723296"><ele>802.2</ele><time>2026-04-10T12:19:03.608Z</time></trkpt><trkpt lat="42.3694093" lon="13.4723847"><ele>803.8000000000001</ele><time>2026-04-10T12:19:04.612Z</time></trkpt><trkpt lat="42.3693378" lon="13.4724644"><ele>805.4000000000001</ele><time>2026-04-10T12:19:05.612Z</time></trkpt><trkpt lat="42.3693298" lon="13.4726538"><ele>807.0</ele><time>2026-04-10T12:19:06.615Z</time></trkpt><trkpt lat="42.3692969" lon="13.4728643"><ele>809.25</ele><time>2026-04-10T12:19:07.615Z</time></trkpt><trkpt lat="42.3692606" lon="13.4730755"><ele>811.5</ele><time>2026-04-10T12:19:08.609Z</time></trkpt><trkpt lat="42.3693033" lon="13.473239"><ele>813.75</ele><time>2026-04-10T12:19:09.613Z</time></trkpt><trkpt lat="42.3693511" lon="13.4734157"><ele>816.0</ele><time>2026-04-10T12:19:10.609Z</time></trkpt><trkpt lat="42.3693762" lon="13.4735841"><ele>818.25</ele><time>2026-04-10T12:19:11.611Z</time></trkpt><trkpt lat="42.3694191" lon="13.4737741"><ele>820.5</ele><time>2026-04-10T12:19:12.607Z</time></trkpt><trkpt lat="42.3694386" lon="13.4739259"><ele>822.75</ele><time>2026-04-10T12:19:13.611Z</time></trkpt><trkpt lat="42.3694372" lon="13.4740784"><ele>825.0</ele><time>2026-04-10T12:19:14.611Z</time></trkpt><trkpt lat="42.3693775" lon="13.4742059"><ele>825.0</ele><time>2026-04-10T12:19:15.605Z</time></trkpt><trkpt lat="42.3693125" lon="13.4743363"><ele>825.0</ele><time>2026-04-10T12:19:16.607Z</time></trkpt><trkpt lat="42.3692556" lon="13.4744584"><ele>825.0</ele><time>2026-04-10T12:19:17.606Z</time></trkpt><trkpt lat="42.369219" lon="13.4745729"><ele>825.0</ele><time>2026-04-10T12:19:18.607Z</time></trkpt><trkpt lat="42.3692484" lon="13.4747111"><ele>825.0</ele><time>2026-04-10T12:19:20.62Z</time></trkpt><trkpt lat="42.3692918" lon="13.4747771"><ele>825.0</ele><time>2026-04-10T12:19:22.619Z</time></trkpt><trkpt lat="42.3694341" lon="13.4747287"><ele>825.0</ele><time>2026-04-10T12:19:25.623Z</time></trkpt><trkpt lat="42.3694828" lon="13.4746743"><ele>825.0</ele><time>2026-04-10T12:19:26.623Z</time></trkpt><trkpt lat="42.3695561" lon="13.4746"><ele>825.0</ele><time>2026-04-10T12:19:27.625Z</time></trkpt><trkpt lat="42.3696443" lon="13.4745338"><ele>825.0</ele><time>2026-04-10T12:19:28.629Z</time></trkpt><trkpt lat="42.3697618" lon="13.4744732"><ele>827.5</ele><time>2026-04-10T12:19:29.625Z</time></trkpt><trkpt lat="42.3698868" lon="13.4744353"><ele>830.0</ele><time>2026-04-10T12:19:30.637Z</time></trkpt><trkpt lat="42.3700186" lon="13.4744238"><ele>832.5</ele><time>2026-04-10T12:19:31.638Z</time></trkpt><trkpt lat="42.3701603" lon="13.4744273"><ele>835.0</ele><time>2026-04-10T12:19:32.634Z</time></trkpt><trkpt lat="42.3703071" lon="13.4744165"><ele>835.0</ele><time>2026-04-10T12:19:33.632Z</time></trkpt><trkpt lat="42.3704684" lon="13.4744024"><ele>835.0</ele><time>2026-04-10T12:19:34.632Z</time></trkpt><trkpt lat="42.3706368" lon="13.4743718"><ele>835.0</ele><time>2026-04-10T12:19:35.63Z</time></trkpt><trkpt lat="42.3708" lon="13.4743289"><ele>836.6666666666666</ele><time>2026-04-10T12:19:36.635Z</time></trkpt><trkpt lat="42.3709648" lon="13.4743018"><ele>838.3333333333333</ele><time>2026-04-10T12:19:37.631Z</time></trkpt><trkpt lat="42.3711497" lon="13.4742646"><ele>840.0</ele><time>2026-04-10T12:19:38.635Z</time></trkpt><trkpt lat="42.3712905" lon="13.4742342"><ele>842.5</ele><time>2026-04-10T12:19:39.629Z</time></trkpt><trkpt lat="42.3714092" lon="13.474175"><ele>845.0</ele><time>2026-04-10T12:19:40.632Z</time></trkpt><trkpt lat="42.3715227" lon="13.4741398"><ele>847.5</ele><time>2026-04-10T12:19:41.628Z</time></trkpt><trkpt lat="42.3716646" lon="13.4741027"><ele>850.0</ele><time>2026-04-10T12:19:42.623Z</time></trkpt><trkpt lat="42.3718012" lon="13.4741029"><ele>850.0</ele><time>2026-04-10T12:19:43.62Z</time></trkpt><trkpt lat="42.3719563" lon="13.4741377"><ele>850.0</ele><time>2026-04-10T12:19:44.624Z</time></trkpt><trkpt lat="42.3721339" lon="13.4742248"><ele>850.0</ele><time>2026-04-10T12:19:45.626Z</time></trkpt><trkpt lat="42.3722478" lon="13.4742796"><ele>850.75</ele><time>2026-04-10T12:19:46.625Z</time></trkpt><trkpt lat="42.372357" lon="13.4743368"><ele>851.5</ele><time>2026-04-10T12:19:47.624Z</time></trkpt><trkpt lat="42.3724771" lon="13.4743579"><ele>852.25</ele><time>2026-04-10T12:19:48.628Z</time></trkpt><trkpt lat="42.3726172" lon="13.4743988"><ele>853.0</ele><time>2026-04-10T12:19:49.639Z</time></trkpt><trkpt lat="42.3727469" lon="13.4744348"><ele>853.0</ele><time>2026-04-10T12:19:50.635Z</time></trkpt><trkpt lat="42.3728607" lon="13.4744724"><ele>853.0</ele><time>2026-04-10T12:19:51.634Z</time></trkpt><trkpt lat="42.3729293" lon="13.4745396"><ele>853.0</ele><time>2026-04-10T12:19:52.633Z</time></trkpt><trkpt lat="42.3730455" lon="13.474597"><ele>853.0</ele><time>2026-04-10T12:19:53.632Z</time></trkpt><trkpt lat="42.3731391" lon="13.4746627"><ele>853.0</ele><time>2026-04-10T12:19:54.633Z</time></trkpt><trkpt lat="42.3732264" lon="13.4747589"><ele>856.0</ele><time>2026-04-10T12:19:55.629Z</time></trkpt><trkpt lat="42.3733314" lon="13.4748766"><ele>859.0</ele><time>2026-04-10T12:19:56.633Z</time></trkpt><trkpt lat="42.3734593" lon="13.4749819"><ele>862.0</ele><time>2026-04-10T12:19:57.633Z</time></trkpt><trkpt lat="42.3735891" lon="13.4750793"><ele>865.0</ele><time>2026-04-10T12:19:58.632Z</time></trkpt><trkpt lat="42.3737123" lon="13.4751765"><ele>865.0</ele><time>2026-04-10T12:19:59.63Z</time></trkpt><trkpt lat="42.3738257" lon="13.4752346"><ele>865.0</ele><time>2026-04-10T12:20:00.634Z</time></trkpt><trkpt lat="42.3739329" lon="13.4752614"><ele>865.0</ele><time>2026-04-10T12:20:01.641Z</time></trkpt><trkpt lat="42.3740393" lon="13.4752903"><ele>865.0</ele><time>2026-04-10T12:20:02.634Z</time></trkpt><trkpt lat="42.3741657" lon="13.4753229"><ele>866.5</ele><time>2026-04-10T12:20:03.64Z</time></trkpt><trkpt lat="42.3742651" lon="13.4753598"><ele>868.0</ele><time>2026-04-10T12:20:04.629Z</time></trkpt><trkpt lat="42.3743792" lon="13.4753858"><ele>869.5</ele><time>2026-04-10T12:20:05.627Z</time></trkpt><trkpt lat="42.3745053" lon="13.475399"><ele>871.0</ele><time>2026-04-10T12:20:06.627Z</time></trkpt><trkpt lat="42.3746337" lon="13.475401"><ele>872.75</ele><time>2026-04-10T12:20:07.625Z</time></trkpt><trkpt lat="42.3747641" lon="13.4753949"><ele>874.5</ele><time>2026-04-10T12:20:08.625Z</time></trkpt><trkpt lat="42.3748971" lon="13.4753896"><ele>876.25</ele><time>2026-04-10T12:20:09.627Z</time></trkpt><trkpt lat="42.3750282" lon="13.4753731"><ele>878.0</ele><time>2026-04-10T12:20:10.619Z</time></trkpt><trkpt lat="42.375168" lon="13.4753235"><ele>878.0</ele><time>2026-04-10T12:20:11.626Z</time></trkpt><trkpt lat="42.3753131" lon="13.4752545"><ele>878.0</ele><time>2026-04-10T12:20:12.609Z</time></trkpt><trkpt lat="42.3754518" lon="13.475173"><ele>878.0</ele><time>2026-04-10T12:20:13.614Z</time></trkpt><trkpt lat="42.3755895" lon="13.4750666"><ele>881.25</ele><time>2026-04-10T12:20:14.616Z</time></trkpt><trkpt lat="42.3757205" lon="13.4749707"><ele>884.5</ele><time>2026-04-10T12:20:15.61Z</time></trkpt><trkpt lat="42.375849" lon="13.4748757"><ele>887.75</ele><time>2026-04-10T12:20:16.615Z</time></trkpt><trkpt lat="42.3759636" lon="13.4747917"><ele>891.0</ele><time>2026-04-10T12:20:17.618Z</time></trkpt><trkpt lat="42.376068" lon="13.4746908"><ele>891.0</ele><time>2026-04-10T12:20:18.623Z</time></trkpt><trkpt lat="42.3761706" lon="13.4746101"><ele>890.9999999999999</ele><time>2026-04-10T12:20:19.616Z</time></trkpt><trkpt lat="42.3762641" lon="13.4745363"><ele>890.9999999999999</ele><time>2026-04-10T12:20:20.626Z</time></trkpt><trkpt lat="42.3763647" lon="13.4744883"><ele>891.0</ele><time>2026-04-10T12:20:21.621Z</time></trkpt><trkpt lat="42.3764792" lon="13.4744707"><ele>891.0</ele><time>2026-04-10T12:20:22.62Z</time></trkpt><trkpt lat="42.3766039" lon="13.47447"><ele>892.25</ele><time>2026-04-10T12:20:23.617Z</time></trkpt><trkpt lat="42.3767396" lon="13.4745206"><ele>893.5</ele><time>2026-04-10T12:20:24.614Z</time></trkpt><trkpt lat="42.3768754" lon="13.4745598"><ele>894.75</ele><time>2026-04-10T12:20:25.619Z</time></trkpt><trkpt lat="42.3770154" lon="13.4745813"><ele>896.0</ele><time>2026-04-10T12:20:26.617Z</time></trkpt><trkpt lat="42.3771478" lon="13.4745862"><ele>899.75</ele><time>2026-04-10T12:20:27.615Z</time></trkpt><trkpt lat="42.3772801" lon="13.4745893"><ele>903.5</ele><time>2026-04-10T12:20:28.615Z</time></trkpt><trkpt lat="42.3774061" lon="13.4745933"><ele>907.25</ele><time>2026-04-10T12:20:29.612Z</time></trkpt><trkpt lat="42.3775452" lon="13.4745857"><ele>911.0</ele><time>2026-04-10T12:20:30.618Z</time></trkpt><trkpt lat="42.3776802" lon="13.4745736"><ele>911.0</ele><time>2026-04-10T12:20:31.626Z</time></trkpt><trkpt lat="42.3778176" lon="13.4745648"><ele>911.0</ele><time>2026-04-10T12:20:32.614Z</time></trkpt><trkpt lat="42.3779597" lon="13.4745624"><ele>911.0</ele><time>2026-04-10T12:20:33.616Z</time></trkpt><trkpt lat="42.3780991" lon="13.4745546"><ele>911.0</ele><time>2026-04-10T12:20:34.621Z</time></trkpt><trkpt lat="42.3782482" lon="13.4745529"><ele>912.75</ele><time>2026-04-10T12:20:35.611Z</time></trkpt><trkpt lat="42.3784047" lon="13.4745472"><ele>914.5</ele><time>2026-04-10T12:20:36.609Z</time></trkpt><trkpt lat="42.3785519" lon="13.4745641"><ele>916.25</ele><time>2026-04-10T12:20:37.616Z</time></trkpt><trkpt lat="42.3786781" lon="13.4745879"><ele>918.0</ele><time>2026-04-10T12:20:38.622Z</time></trkpt><trkpt lat="42.3787705" lon="13.4746361"><ele>918.0</ele><time>2026-04-10T12:20:39.622Z</time></trkpt><trkpt lat="42.378846" lon="13.474716"><ele>918.0</ele><time>2026-04-10T12:20:40.627Z</time></trkpt><trkpt lat="42.3789213" lon="13.4747714"><ele>918.0</ele><time>2026-04-10T12:20:41.621Z</time></trkpt><trkpt lat="42.3790087" lon="13.4747922"><ele>918.0</ele><time>2026-04-10T12:20:42.624Z</time></trkpt><trkpt lat="42.3791108" lon="13.4747809"><ele>918.0</ele><time>2026-04-10T12:20:43.626Z</time></trkpt><trkpt lat="42.3792315" lon="13.4747403"><ele>918.25</ele><time>2026-04-10T12:20:44.613Z</time></trkpt><trkpt lat="42.3793646" lon="13.4746832"><ele>918.5</ele><time>2026-04-10T12:20:45.624Z</time></trkpt><trkpt lat="42.3795104" lon="13.4746185"><ele>918.75</ele><time>2026-04-10T12:20:46.624Z</time></trkpt><trkpt lat="42.3796538" lon="13.474544"><ele>919.0</ele><time>2026-04-10T12:20:47.628Z</time></trkpt><trkpt lat="42.3797801" lon="13.4744752"><ele>919.4000000000001</ele><time>2026-04-10T12:20:48.633Z</time></trkpt><trkpt lat="42.3798866" lon="13.4744083"><ele>919.8000000000001</ele><time>2026-04-10T12:20:49.627Z</time></trkpt><trkpt lat="42.3799853" lon="13.4743521"><ele>920.1999999999999</ele><time>2026-04-10T12:20:50.629Z</time></trkpt><trkpt lat="42.3800674" lon="13.4742909"><ele>920.5999999999999</ele><time>2026-04-10T12:20:51.625Z</time></trkpt><trkpt lat="42.3801262" lon="13.4742019"><ele>921.0</ele><time>2026-04-10T12:20:52.632Z</time></trkpt><trkpt lat="42.380183" lon="13.474074"><ele>921.0</ele><time>2026-04-10T12:20:53.623Z</time></trkpt><trkpt lat="42.380286" lon="13.4739117"><ele>921.0</ele><time>2026-04-10T12:20:54.623Z</time></trkpt><trkpt lat="42.3804151" lon="13.4737632"><ele>921.0</ele><time>2026-04-10T12:20:55.617Z</time></trkpt><trkpt lat="42.3805341" lon="13.4736122"><ele>919.3333333333333</ele><time>2026-04-10T12:20:56.616Z</time></trkpt><trkpt lat="42.3806559" lon="13.4734792"><ele>917.6666666666666</ele><time>2026-04-10T12:20:57.623Z</time></trkpt><trkpt lat="42.3807668" lon="13.4733339"><ele>916.0</ele><time>2026-04-10T12:20:58.632Z</time></trkpt><trkpt lat="42.380861" lon="13.4731959"><ele>916.0</ele><time>2026-04-10T12:20:59.629Z</time></trkpt><trkpt lat="42.3809574" lon="13.4730591"><ele>916.0</ele><time>2026-04-10T12:21:00.629Z</time></trkpt><trkpt lat="42.3810636" lon="13.4729185"><ele>916.0</ele><time>2026-04-10T12:21:01.632Z</time></trkpt><trkpt lat="42.3811725" lon="13.4727586"><ele>916.0</ele><time>2026-04-10T12:21:02.624Z</time></trkpt><trkpt lat="42.3812663" lon="13.4725913"><ele>913.5</ele><time>2026-04-10T12:21:03.625Z</time></trkpt><trkpt lat="42.3813494" lon="13.4724635"><ele>911.0</ele><time>2026-04-10T12:21:04.626Z</time></trkpt><trkpt lat="42.38143" lon="13.472338"><ele>908.5</ele><time>2026-04-10T12:21:05.631Z</time></trkpt><trkpt lat="42.3814973" lon="13.4722225"><ele>906.0</ele><time>2026-04-10T12:21:06.625Z</time></trkpt><trkpt lat="42.3815676" lon="13.4721076"><ele>908.0</ele><time>2026-04-10T12:21:07.622Z</time></trkpt><trkpt lat="42.3816382" lon="13.4719883"><ele>910.0</ele><time>2026-04-10T12:21:08.612Z</time></trkpt><trkpt lat="42.3817021" lon="13.4718631"><ele>912.0</ele><time>2026-04-10T12:21:09.606Z</time></trkpt><trkpt lat="42.3817641" lon="13.4717271"><ele>914.0</ele><time>2026-04-10T12:21:10.605Z</time></trkpt><trkpt lat="42.3818154" lon="13.4715721"><ele>914.0</ele><time>2026-04-10T12:21:11.603Z</time></trkpt><trkpt lat="42.3818714" lon="13.4714133"><ele>914.0</ele><time>2026-04-10T12:21:12.605Z</time></trkpt><trkpt lat="42.381923" lon="13.4712376"><ele>914.0</ele><time>2026-04-10T12:21:13.604Z</time></trkpt><trkpt lat="42.3819638" lon="13.4710594"><ele>914.0</ele><time>2026-04-10T12:21:14.605Z</time></trkpt><trkpt lat="42.3819829" lon="13.4708789"><ele>915.5</ele><time>2026-04-10T12:21:15.611Z</time></trkpt><trkpt lat="42.3819983" lon="13.4707113"><ele>917.0</ele><time>2026-04-10T12:21:16.607Z</time></trkpt><trkpt lat="42.3820163" lon="13.4705423"><ele>918.5</ele><time>2026-04-10T12:21:17.61Z</time></trkpt><trkpt lat="42.3820497" lon="13.4703919"><ele>920.0</ele><time>2026-04-10T12:21:18.607Z</time></trkpt><trkpt lat="42.3820702" lon="13.4702562"><ele>921.2</ele><time>2026-04-10T12:21:19.62Z</time></trkpt><trkpt lat="42.3820928" lon="13.4701293"><ele>922.4</ele><time>2026-04-10T12:21:20.614Z</time></trkpt><trkpt lat="42.3821312" lon="13.4700134"><ele>923.5999999999999</ele><time>2026-04-10T12:21:21.615Z</time></trkpt><trkpt lat="42.3821695" lon="13.4698824"><ele>924.8</ele><time>2026-04-10T12:21:22.62Z</time></trkpt><trkpt lat="42.3822142" lon="13.4697355"><ele>926.0</ele><time>2026-04-10T12:21:23.622Z</time></trkpt><trkpt lat="42.3822684" lon="13.4695838"><ele>923.0</ele><time>2026-04-10T12:21:24.618Z</time></trkpt><trkpt lat="42.3823235" lon="13.4694375"><ele>919.9999999999999</ele><time>2026-04-10T12:21:25.608Z</time></trkpt><trkpt lat="42.3823729" lon="13.4692984"><ele>916.9999999999999</ele><time>2026-04-10T12:21:26.614Z</time></trkpt><trkpt lat="42.3824236" lon="13.4691769"><ele>914.0</ele><time>2026-04-10T12:21:27.618Z</time></trkpt><trkpt lat="42.3824826" lon="13.4690639"><ele>911.0</ele><time>2026-04-10T12:21:28.615Z</time></trkpt><trkpt lat="42.3825485" lon="13.4689566"><ele>911.0</ele><time>2026-04-10T12:21:29.616Z</time></trkpt><trkpt lat="42.3826336" lon="13.4688485"><ele>911.0</ele><time>2026-04-10T12:21:30.613Z</time></trkpt><trkpt lat="42.3827213" lon="13.4687399"><ele>911.0</ele><time>2026-04-10T12:21:31.621Z</time></trkpt><trkpt lat="42.3828089" lon="13.4686268"><ele>911.0</ele><time>2026-04-10T12:21:32.619Z</time></trkpt><trkpt lat="42.3828971" lon="13.4685082"><ele>912.75</ele><time>2026-04-10T12:21:33.617Z</time></trkpt><trkpt lat="42.3829785" lon="13.4683833"><ele>914.5</ele><time>2026-04-10T12:21:34.62Z</time></trkpt><trkpt lat="42.3830659" lon="13.468265"><ele>916.25</ele><time>2026-04-10T12:21:35.617Z</time></trkpt><trkpt lat="42.3831539" lon="13.4681637"><ele>918.0</ele><time>2026-04-10T12:21:36.625Z</time></trkpt><trkpt lat="42.3832419" lon="13.4680668"><ele>915.4</ele><time>2026-04-10T12:21:37.631Z</time></trkpt><trkpt lat="42.3833306" lon="13.4679697"><ele>912.8</ele><time>2026-04-10T12:21:38.631Z</time></trkpt><trkpt lat="42.3834131" lon="13.4678735"><ele>910.2</ele><time>2026-04-10T12:21:39.631Z</time></trkpt><trkpt lat="42.3834769" lon="13.467766"><ele>907.6</ele><time>2026-04-10T12:21:40.631Z</time></trkpt><trkpt lat="42.3835348" lon="13.4676642"><ele>905.0</ele><time>2026-04-10T12:21:41.625Z</time></trkpt><trkpt lat="42.3835896" lon="13.4675756"><ele>905.0000000000001</ele><time>2026-04-10T12:21:42.627Z</time></trkpt><trkpt lat="42.383669" lon="13.46751"><ele>905.0</ele><time>2026-04-10T12:21:43.63Z</time></trkpt><trkpt lat="42.3837538" lon="13.4674513"><ele>905.0</ele><time>2026-04-10T12:21:44.638Z</time></trkpt><trkpt lat="42.3838339" lon="13.4673933"><ele>905.0</ele><time>2026-04-10T12:21:45.64Z</time></trkpt><trkpt lat="42.3838918" lon="13.4673352"><ele>905.0000000000001</ele><time>2026-04-10T12:21:46.633Z</time></trkpt><trkpt lat="42.3839396" lon="13.467264"><ele>905.0</ele><time>2026-04-10T12:21:47.634Z</time></trkpt><trkpt lat="42.3839851" lon="13.4671876"><ele>902.0</ele><time>2026-04-10T12:21:48.63Z</time></trkpt><trkpt lat="42.384009" lon="13.4670839"><ele>899.0</ele><time>2026-04-10T12:21:49.624Z</time></trkpt><trkpt lat="42.3840245" lon="13.4669696"><ele>896.0</ele><time>2026-04-10T12:21:50.617Z</time></trkpt><trkpt lat="42.3840354" lon="13.4668373"><ele>893.0</ele><time>2026-04-10T12:21:51.62Z</time></trkpt><trkpt lat="42.384045" lon="13.4666738"><ele>890.0</ele><time>2026-04-10T12:21:52.623Z</time></trkpt><trkpt lat="42.3840634" lon="13.4665168"><ele>890.0</ele><time>2026-04-10T12:21:53.617Z</time></trkpt><trkpt lat="42.3840873" lon="13.4663479"><ele>890.0</ele><time>2026-04-10T12:21:54.615Z</time></trkpt><trkpt lat="42.3841247" lon="13.4662012"><ele>890.0</ele><time>2026-04-10T12:21:55.612Z</time></trkpt><trkpt lat="42.3841741" lon="13.4660655"><ele>890.0</ele><time>2026-04-10T12:21:56.616Z</time></trkpt><trkpt lat="42.3842415" lon="13.4659515"><ele>890.8</ele><time>2026-04-10T12:21:57.62Z</time></trkpt><trkpt lat="42.3843269" lon="13.4658597"><ele>891.6</ele><time>2026-04-10T12:21:58.613Z</time></trkpt><trkpt lat="42.3844027" lon="13.4657739"><ele>892.4000000000001</ele><time>2026-04-10T12:21:59.612Z</time></trkpt><trkpt lat="42.3844723" lon="13.4656796"><ele>893.2</ele><time>2026-04-10T12:22:00.615Z</time></trkpt><trkpt lat="42.3845291" lon="13.4655781"><ele>894.0</ele><time>2026-04-10T12:22:01.617Z</time></trkpt><trkpt lat="42.384576" lon="13.4654704"><ele>895.3333333333334</ele><time>2026-04-10T12:22:02.608Z</time></trkpt><trkpt lat="42.3846058" lon="13.4653802"><ele>896.6666666666667</ele><time>2026-04-10T12:22:03.613Z</time></trkpt><trkpt lat="42.3846386" lon="13.4653029"><ele>898.0</ele><time>2026-04-10T12:22:04.609Z</time></trkpt><trkpt lat="42.3847049" lon="13.465236"><ele>899.3333333333334</ele><time>2026-04-10T12:22:06.615Z</time></trkpt><trkpt lat="42.3847652" lon="13.4653762"><ele>900.6666666666667</ele><time>2026-04-10T12:22:08.606Z</time></trkpt><trkpt lat="42.384779" lon="13.4654917"><ele>902.0</ele><time>2026-04-10T12:22:09.607Z</time></trkpt><trkpt lat="42.3847737" lon="13.4656335"><ele>900.0</ele><time>2026-04-10T12:22:10.61Z</time></trkpt><trkpt lat="42.3847552" lon="13.465788"><ele>898.0</ele><time>2026-04-10T12:22:11.609Z</time></trkpt><trkpt lat="42.3847243" lon="13.4659776"><ele>896.0</ele><time>2026-04-10T12:22:12.614Z</time></trkpt><trkpt lat="42.3846748" lon="13.4661929"><ele>894.0</ele><time>2026-04-10T12:22:13.613Z</time></trkpt><trkpt lat="42.3846321" lon="13.466388"><ele>893.2</ele><time>2026-04-10T12:22:14.611Z</time></trkpt><trkpt lat="42.3845952" lon="13.4665586"><ele>892.4000000000001</ele><time>2026-04-10T12:22:15.605Z</time></trkpt><trkpt lat="42.3845696" lon="13.4667239"><ele>891.6</ele><time>2026-04-10T12:22:16.617Z</time></trkpt><trkpt lat="42.3845601" lon="13.4668682"><ele>890.8</ele><time>2026-04-10T12:22:17.611Z</time></trkpt><trkpt lat="42.3845778" lon="13.4669694"><ele>890.0</ele><time>2026-04-10T12:22:18.631Z</time></trkpt><trkpt lat="42.3847742" lon="13.4669662"><ele>885.5</ele><time>2026-04-10T12:22:20.64Z</time></trkpt><trkpt lat="42.3849034" lon="13.4669231"><ele>881.0</ele><time>2026-04-10T12:22:21.63Z</time></trkpt><trkpt lat="42.3850533" lon="13.4668791"><ele>876.5</ele><time>2026-04-10T12:22:22.631Z</time></trkpt><trkpt lat="42.3851834" lon="13.4668597"><ele>872.0</ele><time>2026-04-10T12:22:23.636Z</time></trkpt><trkpt lat="42.385293" lon="13.4668438"><ele>872.0000000000001</ele><time>2026-04-10T12:22:24.629Z</time></trkpt><trkpt lat="42.3853742" lon="13.4668274"><ele>872.0</ele><time>2026-04-10T12:22:25.624Z</time></trkpt><trkpt lat="42.3854541" lon="13.4668096"><ele>872.0</ele><time>2026-04-10T12:22:26.621Z</time></trkpt><trkpt lat="42.3855319" lon="13.4667629"><ele>872.0</ele><time>2026-04-10T12:22:28.627Z</time></trkpt><trkpt lat="42.3855211" lon="13.4666071"><ele>872.0000000000001</ele><time>2026-04-10T12:22:30.627Z</time></trkpt><trkpt lat="42.3854926" lon="13.4665165"><ele>872.0</ele><time>2026-04-10T12:22:31.631Z</time></trkpt><trkpt lat="42.3854752" lon="13.4664207"><ele>872.3333333333334</ele><time>2026-04-10T12:22:32.63Z</time></trkpt><trkpt lat="42.3854671" lon="13.4662579"><ele>872.6666666666667</ele><time>2026-04-10T12:22:34.634Z</time></trkpt><trkpt lat="42.3854639" lon="13.4661618"><ele>873.0</ele><time>2026-04-10T12:22:37.643Z</time></trkpt><trkpt lat="42.3854885" lon="13.4660757"><ele>873.3333333333333</ele><time>2026-04-10T12:23:41.626Z</time></trkpt><trkpt lat="42.3854935" lon="13.4659776"><ele>873.6666666666666</ele><time>2026-04-10T12:23:42.624Z</time></trkpt><trkpt lat="42.3854943" lon="13.4658654"><ele>874.0</ele><time>2026-04-10T12:23:43.609Z</time></trkpt><trkpt lat="42.3854802" lon="13.4657197"><ele>874.0</ele><time>2026-04-10T12:23:44.607Z</time></trkpt><trkpt lat="42.3854551" lon="13.4655359"><ele>874.0</ele><time>2026-04-10T12:23:45.606Z</time></trkpt><trkpt lat="42.3854433" lon="13.4653441"><ele>874.0</ele><time>2026-04-10T12:23:46.608Z</time></trkpt><trkpt lat="42.3854584" lon="13.4651549"><ele>874.0</ele><time>2026-04-10T12:23:47.606Z</time></trkpt><trkpt lat="42.3854856" lon="13.464982"><ele>873.0</ele><time>2026-04-10T12:23:48.607Z</time></trkpt><trkpt lat="42.3855615" lon="13.4647606"><ele>872.0</ele><time>2026-04-10T12:23:49.607Z</time></trkpt><trkpt lat="42.3856332" lon="13.4645203"><ele>871.0</ele><time>2026-04-10T12:23:50.608Z</time></trkpt><trkpt lat="42.3857386" lon="13.464239"><ele>871.0</ele><time>2026-04-10T12:23:51.614Z</time></trkpt><trkpt lat="42.3858524" lon="13.4639687"><ele>871.0</ele><time>2026-04-10T12:23:52.622Z</time></trkpt><trkpt lat="42.3859244" lon="13.4637318"><ele>871.0</ele><time>2026-04-10T12:23:53.615Z</time></trkpt><trkpt lat="42.3860144" lon="13.4635041"><ele>870.6666666666666</ele><time>2026-04-10T12:23:54.617Z</time></trkpt><trkpt lat="42.3860569" lon="13.4632646"><ele>870.3333333333333</ele><time>2026-04-10T12:23:55.613Z</time></trkpt><trkpt lat="42.3860428" lon="13.4630506"><ele>870.0</ele><time>2026-04-10T12:23:56.615Z</time></trkpt><trkpt lat="42.3860149" lon="13.4628828"><ele>867.8</ele><time>2026-04-10T12:23:57.614Z</time></trkpt><trkpt lat="42.3859588" lon="13.4627478"><ele>865.6</ele><time>2026-04-10T12:23:58.61Z</time></trkpt><trkpt lat="42.3859289" lon="13.4626171"><ele>863.4000000000001</ele><time>2026-04-10T12:23:59.603Z</time></trkpt><trkpt lat="42.3859189" lon="13.4625093"><ele>861.2</ele><time>2026-04-10T12:24:00.612Z</time></trkpt><trkpt lat="42.3859988" lon="13.4624393"><ele>859.0</ele><time>2026-04-10T12:24:01.604Z</time></trkpt><trkpt lat="42.3861257" lon="13.4624684"><ele>859.0</ele><time>2026-04-10T12:24:02.604Z</time></trkpt><trkpt lat="42.3862872" lon="13.4624932"><ele>859.0</ele><time>2026-04-10T12:24:03.604Z</time></trkpt><trkpt lat="42.3864803" lon="13.4625231"><ele>859.0</ele><time>2026-04-10T12:24:04.619Z</time></trkpt><trkpt lat="42.3866631" lon="13.4626147"><ele>861.25</ele><time>2026-04-10T12:24:05.625Z</time></trkpt><trkpt lat="42.3867832" lon="13.4626941"><ele>863.5</ele><time>2026-04-10T12:24:06.622Z</time></trkpt><trkpt lat="42.386882" lon="13.4628242"><ele>865.75</ele><time>2026-04-10T12:24:07.629Z</time></trkpt><trkpt lat="42.3869399" lon="13.4629771"><ele>868.0</ele><time>2026-04-10T12:24:08.622Z</time></trkpt><trkpt lat="42.3869753" lon="13.4631209"><ele>868.6666666666666</ele><time>2026-04-10T12:24:09.62Z</time></trkpt><trkpt lat="42.3870135" lon="13.4632387"><ele>869.3333333333333</ele><time>2026-04-10T12:24:10.63Z</time></trkpt><trkpt lat="42.3870802" lon="13.46333"><ele>870.0</ele><time>2026-04-10T12:24:11.627Z</time></trkpt><trkpt lat="42.3871396" lon="13.4632989"><ele>870.6666666666667</ele><time>2026-04-10T12:24:14.612Z</time></trkpt><trkpt lat="42.3872015" lon="13.4632437"><ele>871.3333333333334</ele><time>2026-04-10T12:24:16.585Z</time></trkpt><trkpt lat="42.3872721" lon="13.4631907"><ele>872.0</ele><time>2026-04-10T12:24:18.538Z</time></trkpt><trkpt lat="42.3873072" lon="13.4630979"><ele>874.5</ele><time>2026-04-10T12:24:20.583Z</time></trkpt><trkpt lat="42.3873058" lon="13.4629658"><ele>877.0</ele><time>2026-04-10T12:24:21.603Z</time></trkpt><trkpt lat="42.3873175" lon="13.4627423"><ele>879.5</ele><time>2026-04-10T12:24:22.612Z</time></trkpt><trkpt lat="42.3873289" lon="13.4624979"><ele>882.0</ele><time>2026-04-10T12:24:23.61Z</time></trkpt><trkpt lat="42.3873564" lon="13.4622558"><ele>880.5</ele><time>2026-04-10T12:24:24.614Z</time></trkpt><trkpt lat="42.3874146" lon="13.4620106"><ele>879.0</ele><time>2026-04-10T12:24:25.625Z</time></trkpt><trkpt lat="42.3875252" lon="13.4616665"><ele>879.0</ele><time>2026-04-10T12:24:26.626Z</time></trkpt><trkpt lat="42.3875775" lon="13.4613598"><ele>879.0</ele><time>2026-04-10T12:24:27.63Z</time></trkpt><trkpt lat="42.3876449" lon="13.461108"><ele>879.0</ele><time>2026-04-10T12:24:28.625Z</time></trkpt><trkpt lat="42.3877231" lon="13.4608569"><ele>878.6666666666667</ele><time>2026-04-10T12:24:29.625Z</time></trkpt><trkpt lat="42.3877832" lon="13.4606433"><ele>878.3333333333334</ele><time>2026-04-10T12:24:30.624Z</time></trkpt><trkpt lat="42.3878473" lon="13.4604372"><ele>878.0</ele><time>2026-04-10T12:24:31.628Z</time></trkpt><trkpt lat="42.387878" lon="13.4602394"><ele>878.5</ele><time>2026-04-10T12:24:32.628Z</time></trkpt><trkpt lat="42.3878748" lon="13.4600608"><ele>879.0</ele><time>2026-04-10T12:24:33.632Z</time></trkpt><trkpt lat="42.3878524" lon="13.4598539"><ele>879.5</ele><time>2026-04-10T12:24:34.638Z</time></trkpt><trkpt lat="42.3878139" lon="13.4596522"><ele>880.0</ele><time>2026-04-10T12:24:35.629Z</time></trkpt><trkpt lat="42.3877459" lon="13.459454"><ele>880.0</ele><time>2026-04-10T12:24:36.627Z</time></trkpt><trkpt lat="42.3876582" lon="13.4592707"><ele>880.0</ele><time>2026-04-10T12:24:37.627Z</time></trkpt><trkpt lat="42.3875895" lon="13.4591234"><ele>880.0</ele><time>2026-04-10T12:24:38.631Z</time></trkpt><trkpt lat="42.3875436" lon="13.4590154"><ele>880.0</ele><time>2026-04-10T12:24:39.623Z</time></trkpt><trkpt lat="42.3874981" lon="13.4588751"><ele>879.5</ele><time>2026-04-10T12:24:40.621Z</time></trkpt><trkpt lat="42.387523" lon="13.4587171"><ele>879.0</ele><time>2026-04-10T12:24:41.624Z</time></trkpt><trkpt lat="42.3875948" lon="13.4585631"><ele>878.5</ele><time>2026-04-10T12:24:42.612Z</time></trkpt><trkpt lat="42.3876721" lon="13.4584088"><ele>878.0</ele><time>2026-04-10T12:24:43.616Z</time></trkpt><trkpt lat="42.3877854" lon="13.4582585"><ele>878.0</ele><time>2026-04-10T12:24:44.619Z</time></trkpt><trkpt lat="42.3878878" lon="13.4581141"><ele>878.0</ele><time>2026-04-10T12:24:45.62Z</time></trkpt><trkpt lat="42.3879932" lon="13.4579817"><ele>878.0</ele><time>2026-04-10T12:24:46.62Z</time></trkpt><trkpt lat="42.388102" lon="13.4578627"><ele>878.0</ele><time>2026-04-10T12:24:47.626Z</time></trkpt><trkpt lat="42.3882128" lon="13.4577245"><ele>883.0</ele><time>2026-04-10T12:24:48.628Z</time></trkpt><trkpt lat="42.3883186" lon="13.457627"><ele>888.0</ele><time>2026-04-10T12:24:49.626Z</time></trkpt><trkpt lat="42.3884367" lon="13.4574753"><ele>893.0</ele><time>2026-04-10T12:24:50.626Z</time></trkpt><trkpt lat="42.3885346" lon="13.4573008"><ele>893.25</ele><time>2026-04-10T12:24:51.624Z</time></trkpt><trkpt lat="42.3886092" lon="13.4571188"><ele>893.5</ele><time>2026-04-10T12:24:52.627Z</time></trkpt><trkpt lat="42.3886277" lon="13.4569504"><ele>893.75</ele><time>2026-04-10T12:24:53.625Z</time></trkpt><trkpt lat="42.3886709" lon="13.4567635"><ele>894.0</ele><time>2026-04-10T12:24:54.629Z</time></trkpt><trkpt lat="42.3887299" lon="13.4566145"><ele>894.0</ele><time>2026-04-10T12:24:55.631Z</time></trkpt><trkpt lat="42.3888217" lon="13.4564556"><ele>894.0</ele><time>2026-04-10T12:24:56.638Z</time></trkpt><trkpt lat="42.3889137" lon="13.4563025"><ele>894.0</ele><time>2026-04-10T12:24:57.633Z</time></trkpt><trkpt lat="42.3890098" lon="13.4561699"><ele>894.0</ele><time>2026-04-10T12:24:58.634Z</time></trkpt><trkpt lat="42.389131" lon="13.4560034"><ele>898.3333333333333</ele><time>2026-04-10T12:24:59.629Z</time></trkpt><trkpt lat="42.3892386" lon="13.4558748"><ele>902.6666666666666</ele><time>2026-04-10T12:25:00.638Z</time></trkpt><trkpt lat="42.3893511" lon="13.4557444"><ele>907.0</ele><time>2026-04-10T12:25:01.645Z</time></trkpt><trkpt lat="42.3895001" lon="13.4556161"><ele>907.0</ele><time>2026-04-10T12:25:02.643Z</time></trkpt><trkpt lat="42.3896625" lon="13.4555195"><ele>907.0</ele><time>2026-04-10T12:25:03.64Z</time></trkpt><trkpt lat="42.3898169" lon="13.4554247"><ele>907.0</ele><time>2026-04-10T12:25:04.643Z</time></trkpt><trkpt lat="42.3899832" lon="13.4553052"><ele>910.6666666666666</ele><time>2026-04-10T12:25:05.637Z</time></trkpt><trkpt lat="42.3901499" lon="13.455212"><ele>914.3333333333333</ele><time>2026-04-10T12:25:06.639Z</time></trkpt><trkpt lat="42.3903341" lon="13.4551598"><ele>918.0</ele><time>2026-04-10T12:25:07.636Z</time></trkpt><trkpt lat="42.3905492" lon="13.4550907"><ele>921.6666666666667</ele><time>2026-04-10T12:25:08.63Z</time></trkpt><trkpt lat="42.3907537" lon="13.455028"><ele>925.3333333333334</ele><time>2026-04-10T12:25:09.614Z</time></trkpt><trkpt lat="42.3909092" lon="13.4549933"><ele>929.0</ele><time>2026-04-10T12:25:10.613Z</time></trkpt><trkpt lat="42.3910649" lon="13.454879"><ele>929.0</ele><time>2026-04-10T12:25:11.621Z</time></trkpt><trkpt lat="42.3912241" lon="13.4548173"><ele>929.0</ele><time>2026-04-10T12:25:12.619Z</time></trkpt><trkpt lat="42.3913923" lon="13.454723"><ele>929.0</ele><time>2026-04-10T12:25:13.626Z</time></trkpt><trkpt lat="42.3915655" lon="13.4546694"><ele>933.3333333333334</ele><time>2026-04-10T12:25:14.629Z</time></trkpt><trkpt lat="42.3917552" lon="13.454658"><ele>937.6666666666667</ele><time>2026-04-10T12:25:15.629Z</time></trkpt><trkpt lat="42.3919657" lon="13.4546377"><ele>942.0</ele><time>2026-04-10T12:25:16.624Z</time></trkpt><trkpt lat="42.3920903" lon="13.4545859"><ele>943.75</ele><time>2026-04-10T12:25:17.618Z</time></trkpt><trkpt lat="42.3922119" lon="13.4545512"><ele>945.5</ele><time>2026-04-10T12:25:18.621Z</time></trkpt><trkpt lat="42.3923514" lon="13.4545549"><ele>947.25</ele><time>2026-04-10T12:25:19.615Z</time></trkpt><trkpt lat="42.3924969" lon="13.4545629"><ele>949.0</ele><time>2026-04-10T12:25:20.615Z</time></trkpt><trkpt lat="42.3926336" lon="13.454556"><ele>949.0</ele><time>2026-04-10T12:25:21.62Z</time></trkpt><trkpt lat="42.3927857" lon="13.4544808"><ele>949.0</ele><time>2026-04-10T12:25:22.614Z</time></trkpt><trkpt lat="42.392926" lon="13.454375"><ele>949.0</ele><time>2026-04-10T12:25:23.606Z</time></trkpt><trkpt lat="42.3930709" lon="13.4542752"><ele>949.75</ele><time>2026-04-10T12:25:24.606Z</time></trkpt><trkpt lat="42.3931373" lon="13.4541234"><ele>950.5</ele><time>2026-04-10T12:25:25.605Z</time></trkpt><trkpt lat="42.3931628" lon="13.4539428"><ele>951.25</ele><time>2026-04-10T12:25:26.606Z</time></trkpt><trkpt lat="42.3931624" lon="13.4537719"><ele>952.0</ele><time>2026-04-10T12:25:27.606Z</time></trkpt><trkpt lat="42.3931854" lon="13.4535902"><ele>953.3333333333333</ele><time>2026-04-10T12:25:28.609Z</time></trkpt><trkpt lat="42.3932451" lon="13.4533844"><ele>954.6666666666667</ele><time>2026-04-10T12:25:29.618Z</time></trkpt><trkpt lat="42.3933174" lon="13.4531593"><ele>956.0</ele><time>2026-04-10T12:25:30.621Z</time></trkpt><trkpt lat="42.3934153" lon="13.4530067"><ele>956.75</ele><time>2026-04-10T12:25:31.634Z</time></trkpt><trkpt lat="42.3934932" lon="13.4528509"><ele>957.5</ele><time>2026-04-10T12:25:32.62Z</time></trkpt><trkpt lat="42.3935616" lon="13.452667"><ele>958.25</ele><time>2026-04-10T12:25:33.62Z</time></trkpt><trkpt lat="42.3936242" lon="13.4525062"><ele>959.0</ele><time>2026-04-10T12:25:34.616Z</time></trkpt><trkpt lat="42.3936907" lon="13.4523121"><ele>959.0</ele><time>2026-04-10T12:25:35.623Z</time></trkpt><trkpt lat="42.3937226" lon="13.4521461"><ele>959.0</ele><time>2026-04-10T12:25:36.623Z</time></trkpt><trkpt lat="42.3937769" lon="13.4519352"><ele>959.0</ele><time>2026-04-10T12:25:37.62Z</time></trkpt><trkpt lat="42.3937942" lon="13.4517534"><ele>959.0</ele><time>2026-04-10T12:25:38.622Z</time></trkpt><trkpt lat="42.3938066" lon="13.4515603"><ele>959.75</ele><time>2026-04-10T12:25:39.617Z</time></trkpt><trkpt lat="42.393794" lon="13.4513853"><ele>960.5</ele><time>2026-04-10T12:25:40.624Z</time></trkpt><trkpt lat="42.393805" lon="13.451211"><ele>961.25</ele><time>2026-04-10T12:25:41.63Z</time></trkpt><trkpt lat="42.393834" lon="13.4510124"><ele>962.0</ele><time>2026-04-10T12:25:42.624Z</time></trkpt><trkpt lat="42.3938668" lon="13.4508296"><ele>963.5</ele><time>2026-04-10T12:25:43.634Z</time></trkpt><trkpt lat="42.3939151" lon="13.4506323"><ele>965.0</ele><time>2026-04-10T12:25:44.632Z</time></trkpt><trkpt lat="42.3939801" lon="13.450471"><ele>966.5</ele><time>2026-04-10T12:25:45.626Z</time></trkpt><trkpt lat="42.3940773" lon="13.450323"><ele>968.0</ele><time>2026-04-10T12:25:46.63Z</time></trkpt><trkpt lat="42.394197" lon="13.4501923"><ele>968.0</ele><time>2026-04-10T12:25:47.621Z</time></trkpt><trkpt lat="42.394318" lon="13.450074"><ele>968.0</ele><time>2026-04-10T12:25:48.628Z</time></trkpt><trkpt lat="42.3944425" lon="13.4500123"><ele>968.0</ele><time>2026-04-10T12:25:49.627Z</time></trkpt><trkpt lat="42.3945779" lon="13.4499651"><ele>968.0</ele><time>2026-04-10T12:25:50.623Z</time></trkpt><trkpt lat="42.3947205" lon="13.4498769"><ele>970.3333333333334</ele><time>2026-04-10T12:25:51.628Z</time></trkpt><trkpt lat="42.3948719" lon="13.4498493"><ele>972.6666666666667</ele><time>2026-04-10T12:25:52.637Z</time></trkpt><trkpt lat="42.3950453" lon="13.4497969"><ele>975.0</ele><time>2026-04-10T12:25:53.637Z</time></trkpt><trkpt lat="42.395183" lon="13.4497151"><ele>975.0</ele><time>2026-04-10T12:25:54.634Z</time></trkpt><trkpt lat="42.3952909" lon="13.4496407"><ele>975.0</ele><time>2026-04-10T12:25:55.633Z</time></trkpt><trkpt lat="42.3953867" lon="13.4496161"><ele>975.0</ele><time>2026-04-10T12:25:56.63Z</time></trkpt><trkpt lat="42.3954519" lon="13.4496286"><ele>975.0</ele><time>2026-04-10T12:25:57.633Z</time></trkpt><trkpt lat="42.3955349" lon="13.4496969"><ele>975.0</ele><time>2026-04-10T12:25:58.632Z</time></trkpt><trkpt lat="42.3956349" lon="13.4497697"><ele>977.8</ele><time>2026-04-10T12:25:59.635Z</time></trkpt><trkpt lat="42.3957147" lon="13.4498621"><ele>980.6</ele><time>2026-04-10T12:26:00.641Z</time></trkpt><trkpt lat="42.3957911" lon="13.4499452"><ele>983.4000000000001</ele><time>2026-04-10T12:26:01.64Z</time></trkpt><trkpt lat="42.3958598" lon="13.4500524"><ele>986.2</ele><time>2026-04-10T12:26:02.637Z</time></trkpt><trkpt lat="42.3959083" lon="13.4501748"><ele>989.0</ele><time>2026-04-10T12:26:03.63Z</time></trkpt><trkpt lat="42.3959343" lon="13.4502967"><ele>989.0</ele><time>2026-04-10T12:26:04.632Z</time></trkpt><trkpt lat="42.3959326" lon="13.4504264"><ele>989.0000000000001</ele><time>2026-04-10T12:26:05.617Z</time></trkpt><trkpt lat="42.3959237" lon="13.4505557"><ele>989.0000000000001</ele><time>2026-04-10T12:26:06.621Z</time></trkpt><trkpt lat="42.3959299" lon="13.4507118"><ele>989.0</ele><time>2026-04-10T12:26:07.636Z</time></trkpt><trkpt lat="42.3959317" lon="13.4508579"><ele>989.0</ele><time>2026-04-10T12:26:08.635Z</time></trkpt><trkpt lat="42.3959356" lon="13.4509885"><ele>989.6666666666667</ele><time>2026-04-10T12:26:09.633Z</time></trkpt><trkpt lat="42.3959283" lon="13.4511147"><ele>990.3333333333334</ele><time>2026-04-10T12:26:10.632Z</time></trkpt><trkpt lat="42.3959194" lon="13.4512165"><ele>991.0</ele><time>2026-04-10T12:26:11.623Z</time></trkpt><trkpt lat="42.3959092" lon="13.4513158"><ele>991.6666666666667</ele><time>2026-04-10T12:26:13.633Z</time></trkpt><trkpt lat="42.3959989" lon="13.45127"><ele>992.3333333333334</ele><time>2026-04-10T12:26:23.631Z</time></trkpt><trkpt lat="42.3960912" lon="13.4512168"><ele>993.0</ele><time>2026-04-10T12:26:25.622Z</time></trkpt><trkpt lat="42.3961318" lon="13.451094"><ele>993.0</ele><time>2026-04-10T12:26:26.625Z</time></trkpt><trkpt lat="42.3961766" lon="13.4509525"><ele>993.0</ele><time>2026-04-10T12:26:27.63Z</time></trkpt><trkpt lat="42.3961973" lon="13.4507656"><ele>993.0</ele><time>2026-04-10T12:26:28.61Z</time></trkpt><trkpt lat="42.396194" lon="13.4505398"><ele>993.0</ele><time>2026-04-10T12:26:29.637Z</time></trkpt><trkpt lat="42.3961824" lon="13.4502985"><ele>991.0</ele><time>2026-04-10T12:26:30.611Z</time></trkpt><trkpt lat="42.3961717" lon="13.4499845"><ele>989.0</ele><time>2026-04-10T12:26:31.631Z</time></trkpt><trkpt lat="42.396156" lon="13.449642"><ele>988.0</ele><time>2026-04-10T12:26:32.622Z</time></trkpt><trkpt lat="42.3961617" lon="13.4492867"><ele>987.0</ele><time>2026-04-10T12:26:33.641Z</time></trkpt><trkpt lat="42.3961862" lon="13.4489739"><ele>986.3333333333333</ele><time>2026-04-10T12:26:34.639Z</time></trkpt><trkpt lat="42.3962115" lon="13.4487"><ele>985.6666666666666</ele><time>2026-04-10T12:26:35.635Z</time></trkpt><trkpt lat="42.3962159" lon="13.4484592"><ele>985.0</ele><time>2026-04-10T12:26:36.643Z</time></trkpt><trkpt lat="42.3961954" lon="13.4482037"><ele>985.3333333333333</ele><time>2026-04-10T12:26:37.649Z</time></trkpt><trkpt lat="42.3961575" lon="13.4479306"><ele>985.6666666666667</ele><time>2026-04-10T12:26:38.637Z</time></trkpt><trkpt lat="42.3961173" lon="13.4476877"><ele>986.0</ele><time>2026-04-10T12:26:39.637Z</time></trkpt><trkpt lat="42.3960435" lon="13.4474355"><ele>986.0</ele><time>2026-04-10T12:26:40.637Z</time></trkpt><trkpt lat="42.3959479" lon="13.447156"><ele>986.0</ele><time>2026-04-10T12:26:41.641Z</time></trkpt><trkpt lat="42.395874" lon="13.4469007"><ele>986.0</ele><time>2026-04-10T12:26:42.645Z</time></trkpt><trkpt lat="42.3958001" lon="13.4466316"><ele>987.0</ele><time>2026-04-10T12:26:43.717Z</time></trkpt><trkpt lat="42.3957199" lon="13.4463776"><ele>988.0</ele><time>2026-04-10T12:26:44.717Z</time></trkpt><trkpt lat="42.3956324" lon="13.4461234"><ele>989.0</ele><time>2026-04-10T12:26:45.723Z</time></trkpt><trkpt lat="42.3955493" lon="13.4458761"><ele>988.6666666666667</ele><time>2026-04-10T12:26:46.718Z</time></trkpt><trkpt lat="42.3954784" lon="13.4456299"><ele>988.3333333333333</ele><time>2026-04-10T12:26:47.72Z</time></trkpt><trkpt lat="42.3954296" lon="13.4453879"><ele>988.0</ele><time>2026-04-10T12:26:48.714Z</time></trkpt><trkpt lat="42.3954079" lon="13.4451398"><ele>988.0</ele><time>2026-04-10T12:26:49.705Z</time></trkpt><trkpt lat="42.3954164" lon="13.4448871"><ele>988.0</ele><time>2026-04-10T12:26:50.696Z</time></trkpt><trkpt lat="42.3954433" lon="13.4446484"><ele>988.0</ele><time>2026-04-10T12:26:51.699Z</time></trkpt><trkpt lat="42.3955237" lon="13.4444126"><ele>991.0</ele><time>2026-04-10T12:26:52.607Z</time></trkpt><trkpt lat="42.3956035" lon="13.4442234"><ele>994.0</ele><time>2026-04-10T12:26:53.604Z</time></trkpt><trkpt lat="42.3956901" lon="13.4440216"><ele>997.0</ele><time>2026-04-10T12:26:54.623Z</time></trkpt><trkpt lat="42.3957684" lon="13.4438148"><ele>996.0</ele><time>2026-04-10T12:26:55.611Z</time></trkpt><trkpt lat="42.3957658" lon="13.4435796"><ele>995.0</ele><time>2026-04-10T12:26:56.611Z</time></trkpt><trkpt lat="42.3956905" lon="13.443358"><ele>994.0</ele><time>2026-04-10T12:26:57.604Z</time></trkpt><trkpt lat="42.395648" lon="13.4431672"><ele>995.3333333333333</ele><time>2026-04-10T12:26:58.615Z</time></trkpt><trkpt lat="42.3956093" lon="13.4428954"><ele>996.6666666666667</ele><time>2026-04-10T12:26:59.615Z</time></trkpt><trkpt lat="42.395659" lon="13.4426155"><ele>998.0</ele><time>2026-04-10T12:27:00.61Z</time></trkpt><trkpt lat="42.3956684" lon="13.4423248"><ele>998.3333333333334</ele><time>2026-04-10T12:27:01.625Z</time></trkpt><trkpt lat="42.395675" lon="13.4420473"><ele>998.6666666666667</ele><time>2026-04-10T12:27:02.623Z</time></trkpt><trkpt lat="42.395677" lon="13.4417784"><ele>999.0</ele><time>2026-04-10T12:27:03.62Z</time></trkpt><trkpt lat="42.3957228" lon="13.4415726"><ele>999.0</ele><time>2026-04-10T12:27:04.625Z</time></trkpt><trkpt lat="42.3957776" lon="13.4413842"><ele>999.0</ele><time>2026-04-10T12:27:05.615Z</time></trkpt><trkpt lat="42.3958545" lon="13.4412396"><ele>999.0</ele><time>2026-04-10T12:27:06.621Z</time></trkpt><trkpt lat="42.3959944" lon="13.4410899"><ele>998.3333333333333</ele><time>2026-04-10T12:27:07.622Z</time></trkpt><trkpt lat="42.396141" lon="13.4409373"><ele>997.6666666666666</ele><time>2026-04-10T12:27:08.624Z</time></trkpt><trkpt lat="42.3963002" lon="13.4407903"><ele>997.0</ele><time>2026-04-10T12:27:09.623Z</time></trkpt><trkpt lat="42.3964524" lon="13.4406672"><ele>997.0</ele><time>2026-04-10T12:27:10.62Z</time></trkpt><trkpt lat="42.3966172" lon="13.4405682"><ele>997.0</ele><time>2026-04-10T12:27:11.622Z</time></trkpt><trkpt lat="42.3967729" lon="13.4404524"><ele>997.0</ele><time>2026-04-10T12:27:12.624Z</time></trkpt><trkpt lat="42.3969331" lon="13.4403175"><ele>995.6666666666666</ele><time>2026-04-10T12:27:13.635Z</time></trkpt><trkpt lat="42.3970978" lon="13.4401641"><ele>994.3333333333333</ele><time>2026-04-10T12:27:14.631Z</time></trkpt><trkpt lat="42.3972411" lon="13.4400073"><ele>993.0</ele><time>2026-04-10T12:27:15.62Z</time></trkpt><trkpt lat="42.397379" lon="13.4398197"><ele>991.3333333333333</ele><time>2026-04-10T12:27:16.633Z</time></trkpt><trkpt lat="42.3975186" lon="13.4396306"><ele>989.6666666666666</ele><time>2026-04-10T12:27:17.625Z</time></trkpt><trkpt lat="42.3976586" lon="13.4394415"><ele>988.0</ele><time>2026-04-10T12:27:18.626Z</time></trkpt><trkpt lat="42.3977833" lon="13.439227"><ele>988.0</ele><time>2026-04-10T12:27:19.631Z</time></trkpt><trkpt lat="42.3979064" lon="13.4389999"><ele>988.0</ele><time>2026-04-10T12:27:20.62Z</time></trkpt><trkpt lat="42.3980024" lon="13.4387686"><ele>988.0</ele><time>2026-04-10T12:27:21.624Z</time></trkpt><trkpt lat="42.3980612" lon="13.4384944"><ele>990.3333333333333</ele><time>2026-04-10T12:27:22.615Z</time></trkpt><trkpt lat="42.398081" lon="13.4381854"><ele>992.6666666666667</ele><time>2026-04-10T12:27:23.619Z</time></trkpt><trkpt lat="42.3981037" lon="13.4379131"><ele>995.0</ele><time>2026-04-10T12:27:24.628Z</time></trkpt><trkpt lat="42.3981526" lon="13.4376434"><ele>995.0</ele><time>2026-04-10T12:27:25.623Z</time></trkpt><trkpt lat="42.3982057" lon="13.4373778"><ele>995.0</ele><time>2026-04-10T12:27:26.628Z</time></trkpt><trkpt lat="42.3982646" lon="13.43712"><ele>995.0</ele><time>2026-04-10T12:27:27.632Z</time></trkpt><trkpt lat="42.3983257" lon="13.4368695"><ele>995.6666666666667</ele><time>2026-04-10T12:27:28.63Z</time></trkpt><trkpt lat="42.3983629" lon="13.4366281"><ele>996.3333333333333</ele><time>2026-04-10T12:27:29.636Z</time></trkpt><trkpt lat="42.3984247" lon="13.4363818"><ele>997.0</ele><time>2026-04-10T12:27:30.623Z</time></trkpt><trkpt lat="42.3984" lon="13.4361007"><ele>998.6666666666666</ele><time>2026-04-10T12:27:31.63Z</time></trkpt><trkpt lat="42.3982861" lon="13.4358736"><ele>1000.3333333333333</ele><time>2026-04-10T12:27:32.628Z</time></trkpt><trkpt lat="42.3981722" lon="13.4356819"><ele>1002.0</ele><time>2026-04-10T12:27:33.631Z</time></trkpt><trkpt lat="42.3980411" lon="13.435489"><ele>1004.6666666666667</ele><time>2026-04-10T12:27:34.638Z</time></trkpt><trkpt lat="42.397929" lon="13.435292"><ele>1007.3333333333334</ele><time>2026-04-10T12:27:35.636Z</time></trkpt><trkpt lat="42.3978078" lon="13.4350873"><ele>1010.0</ele><time>2026-04-10T12:27:36.637Z</time></trkpt><trkpt lat="42.3977022" lon="13.4348982"><ele>1010.0</ele><time>2026-04-10T12:27:37.639Z</time></trkpt><trkpt lat="42.3976105" lon="13.4346761"><ele>1010.0</ele><time>2026-04-10T12:27:38.627Z</time></trkpt><trkpt lat="42.397601" lon="13.4344581"><ele>1010.0</ele><time>2026-04-10T12:27:39.625Z</time></trkpt><trkpt lat="42.3976324" lon="13.4342415"><ele>1010.3333333333334</ele><time>2026-04-10T12:27:40.632Z</time></trkpt><trkpt lat="42.3977104" lon="13.4340384"><ele>1010.6666666666667</ele><time>2026-04-10T12:27:41.622Z</time></trkpt><trkpt lat="42.3977819" lon="13.433814"><ele>1011.0</ele><time>2026-04-10T12:27:42.632Z</time></trkpt><trkpt lat="42.3978513" lon="13.4335871"><ele>1011.0</ele><time>2026-04-10T12:27:43.621Z</time></trkpt><trkpt lat="42.397922" lon="13.4333601"><ele>1011.0</ele><time>2026-04-10T12:27:44.618Z</time></trkpt><trkpt lat="42.397976" lon="13.4331254"><ele>1011.0</ele><time>2026-04-10T12:27:45.629Z</time></trkpt><trkpt lat="42.39806" lon="13.4328998"><ele>1015.6666666666667</ele><time>2026-04-10T12:27:46.629Z</time></trkpt><trkpt lat="42.3981556" lon="13.4326959"><ele>1020.3333333333334</ele><time>2026-04-10T12:27:47.63Z</time></trkpt><trkpt lat="42.3982475" lon="13.4324929"><ele>1025.0</ele><time>2026-04-10T12:27:48.632Z</time></trkpt><trkpt lat="42.3983374" lon="13.4323015"><ele>1024.3333333333335</ele><time>2026-04-10T12:27:49.636Z</time></trkpt><trkpt lat="42.3984146" lon="13.4320978"><ele>1023.6666666666667</ele><time>2026-04-10T12:27:50.63Z</time></trkpt><trkpt lat="42.3985021" lon="13.4318955"><ele>1023.0</ele><time>2026-04-10T12:27:51.636Z</time></trkpt><trkpt lat="42.3985616" lon="13.4316844"><ele>1023.0</ele><time>2026-04-10T12:27:52.63Z</time></trkpt><trkpt lat="42.3985832" lon="13.431442"><ele>1023.0</ele><time>2026-04-10T12:27:53.627Z</time></trkpt><trkpt lat="42.3985591" lon="13.4311929"><ele>1023.0</ele><time>2026-04-10T12:27:54.635Z</time></trkpt><trkpt lat="42.398527" lon="13.4309594"><ele>1023.3333333333333</ele><time>2026-04-10T12:27:55.633Z</time></trkpt><trkpt lat="42.3984372" lon="13.4307144"><ele>1023.6666666666666</ele><time>2026-04-10T12:27:56.639Z</time></trkpt><trkpt lat="42.3983613" lon="13.4305042"><ele>1024.0</ele><time>2026-04-10T12:27:57.637Z</time></trkpt><trkpt lat="42.3983032" lon="13.4302871"><ele>1025.3333333333333</ele><time>2026-04-10T12:27:58.635Z</time></trkpt><trkpt lat="42.3982722" lon="13.4301004"><ele>1026.6666666666667</ele><time>2026-04-10T12:27:59.64Z</time></trkpt><trkpt lat="42.3982248" lon="13.4298891"><ele>1028.0</ele><time>2026-04-10T12:28:00.642Z</time></trkpt><trkpt lat="42.3982444" lon="13.4296443"><ele>1027.3333333333335</ele><time>2026-04-10T12:28:01.638Z</time></trkpt><trkpt lat="42.3983037" lon="13.4293982"><ele>1026.6666666666667</ele><time>2026-04-10T12:28:02.634Z</time></trkpt><trkpt lat="42.3984033" lon="13.4291786"><ele>1026.0</ele><time>2026-04-10T12:28:03.638Z</time></trkpt><trkpt lat="42.3985016" lon="13.428941"><ele>1025.6666666666667</ele><time>2026-04-10T12:28:04.64Z</time></trkpt><trkpt lat="42.3985775" lon="13.4287467"><ele>1025.3333333333335</ele><time>2026-04-10T12:28:05.628Z</time></trkpt><trkpt lat="42.3986515" lon="13.428541"><ele>1025.0</ele><time>2026-04-10T12:28:06.628Z</time></trkpt><trkpt lat="42.3986822" lon="13.4282662"><ele>1025.0</ele><time>2026-04-10T12:28:07.634Z</time></trkpt><trkpt lat="42.3987177" lon="13.4279891"><ele>1025.0</ele><time>2026-04-10T12:28:08.62Z</time></trkpt><trkpt lat="42.398696" lon="13.4277404"><ele>1025.0</ele><time>2026-04-10T12:28:09.629Z</time></trkpt><trkpt lat="42.3986627" lon="13.4274853"><ele>1026.0</ele><time>2026-04-10T12:28:10.631Z</time></trkpt><trkpt lat="42.3986286" lon="13.4272521"><ele>1027.0</ele><time>2026-04-10T12:28:11.64Z</time></trkpt><trkpt lat="42.3986288" lon="13.4269889"><ele>1028.0</ele><time>2026-04-10T12:28:12.635Z</time></trkpt><trkpt lat="42.3986583" lon="13.4267467"><ele>1027.6666666666667</ele><time>2026-04-10T12:28:13.632Z</time></trkpt><trkpt lat="42.3986858" lon="13.4264692"><ele>1027.3333333333333</ele><time>2026-04-10T12:28:14.64Z</time></trkpt><trkpt lat="42.3987199" lon="13.4261839"><ele>1027.0</ele><time>2026-04-10T12:28:15.641Z</time></trkpt><trkpt lat="42.3987615" lon="13.4259148"><ele>1027.0</ele><time>2026-04-10T12:28:16.636Z</time></trkpt><trkpt lat="42.3988101" lon="13.4256729"><ele>1027.0</ele><time>2026-04-10T12:28:17.633Z</time></trkpt><trkpt lat="42.3988551" lon="13.4254193"><ele>1027.0</ele><time>2026-04-10T12:28:18.642Z</time></trkpt><trkpt lat="42.3988939" lon="13.4251403"><ele>1030.6666666666665</ele><time>2026-04-10T12:28:19.634Z</time></trkpt><trkpt lat="42.3989297" lon="13.4248944"><ele>1034.3333333333333</ele><time>2026-04-10T12:28:20.642Z</time></trkpt><trkpt lat="42.3989414" lon="13.4246531"><ele>1038.0</ele><time>2026-04-10T12:28:21.638Z</time></trkpt><trkpt lat="42.3989586" lon="13.4244109"><ele>1038.0</ele><time>2026-04-10T12:28:22.64Z</time></trkpt><trkpt lat="42.3989888" lon="13.4241652"><ele>1038.0</ele><time>2026-04-10T12:28:23.643Z</time></trkpt><trkpt lat="42.3990388" lon="13.4239312"><ele>1038.0</ele><time>2026-04-10T12:28:24.634Z</time></trkpt><trkpt lat="42.3991096" lon="13.42373"><ele>1036.3333333333333</ele><time>2026-04-10T12:28:25.64Z</time></trkpt><trkpt lat="42.3992093" lon="13.423507"><ele>1034.6666666666665</ele><time>2026-04-10T12:28:26.634Z</time></trkpt><trkpt lat="42.3993013" lon="13.423261"><ele>1033.0</ele><time>2026-04-10T12:28:27.636Z</time></trkpt><trkpt lat="42.3993838" lon="13.4230109"><ele>1032.6666666666665</ele><time>2026-04-10T12:28:28.642Z</time></trkpt><trkpt lat="42.3994688" lon="13.4227731"><ele>1032.3333333333333</ele><time>2026-04-10T12:28:29.635Z</time></trkpt><trkpt lat="42.3995627" lon="13.4225108"><ele>1032.0</ele><time>2026-04-10T12:28:30.64Z</time></trkpt><trkpt lat="42.3996857" lon="13.4222504"><ele>1035.3333333333333</ele><time>2026-04-10T12:28:31.636Z</time></trkpt><trkpt lat="42.3997619" lon="13.4219647"><ele>1038.6666666666665</ele><time>2026-04-10T12:28:32.63Z</time></trkpt><trkpt lat="42.3998381" lon="13.4217393"><ele>1042.0</ele><time>2026-04-10T12:28:33.63Z</time></trkpt><trkpt lat="42.3999102" lon="13.421462"><ele>1042.6666666666665</ele><time>2026-04-10T12:28:34.642Z</time></trkpt><trkpt lat="42.3999849" lon="13.4212237"><ele>1043.3333333333333</ele><time>2026-04-10T12:28:35.635Z</time></trkpt><trkpt lat="42.4000615" lon="13.4209596"><ele>1044.0</ele><time>2026-04-10T12:28:36.635Z</time></trkpt><trkpt lat="42.4001371" lon="13.4206939"><ele>1045.3333333333333</ele><time>2026-04-10T12:28:37.637Z</time></trkpt><trkpt lat="42.4002039" lon="13.4204241"><ele>1046.6666666666665</ele><time>2026-04-10T12:28:38.634Z</time></trkpt><trkpt lat="42.400273" lon="13.4201644"><ele>1048.0</ele><time>2026-04-10T12:28:39.634Z</time></trkpt><trkpt lat="42.4003393" lon="13.4198818"><ele>1050.6666666666665</ele><time>2026-04-10T12:28:40.632Z</time></trkpt><trkpt lat="42.4003968" lon="13.4196151"><ele>1053.3333333333333</ele><time>2026-04-10T12:28:41.635Z</time></trkpt><trkpt lat="42.4004516" lon="13.4193879"><ele>1056.0</ele><time>2026-04-10T12:28:42.634Z</time></trkpt><trkpt lat="42.4005045" lon="13.4191045"><ele>1057.6666666666667</ele><time>2026-04-10T12:28:43.63Z</time></trkpt><trkpt lat="42.400564" lon="13.4188213"><ele>1059.3333333333335</ele><time>2026-04-10T12:28:44.633Z</time></trkpt><trkpt lat="42.4006258" lon="13.4185575"><ele>1061.0</ele><time>2026-04-10T12:28:45.636Z</time></trkpt><trkpt lat="42.4006895" lon="13.4182721"><ele>1062.6666666666667</ele><time>2026-04-10T12:28:46.639Z</time></trkpt><trkpt lat="42.400761" lon="13.4179811"><ele>1064.3333333333333</ele><time>2026-04-10T12:28:47.641Z</time></trkpt><trkpt lat="42.4008296" lon="13.4177206"><ele>1066.0</ele><time>2026-04-10T12:28:48.637Z</time></trkpt><trkpt lat="42.4008801" lon="13.4174646"><ele>1066.0</ele><time>2026-04-10T12:28:49.64Z</time></trkpt><trkpt lat="42.4009362" lon="13.4171779"><ele>1066.0</ele><time>2026-04-10T12:28:50.64Z</time></trkpt><trkpt lat="42.4010151" lon="13.4169247"><ele>1066.0</ele><time>2026-04-10T12:28:51.648Z</time></trkpt><trkpt lat="42.4010916" lon="13.4166678"><ele>1067.3333333333333</ele><time>2026-04-10T12:28:52.65Z</time></trkpt><trkpt lat="42.4011619" lon="13.4164251"><ele>1068.6666666666667</ele><time>2026-04-10T12:28:53.644Z</time></trkpt><trkpt lat="42.4012398" lon="13.4162131"><ele>1070.0</ele><time>2026-04-10T12:28:54.645Z</time></trkpt><trkpt lat="42.4012782" lon="13.4160024"><ele>1071.5</ele><time>2026-04-10T12:28:55.632Z</time></trkpt><trkpt lat="42.4013113" lon="13.4158421"><ele>1073.0</ele><time>2026-04-10T12:28:56.631Z</time></trkpt><trkpt lat="42.4013121" lon="13.4156868"><ele>1074.5</ele><time>2026-04-10T12:28:57.629Z</time></trkpt><trkpt lat="42.4012451" lon="13.4155591"><ele>1076.0</ele><time>2026-04-10T12:28:58.638Z</time></trkpt><trkpt lat="42.4011575" lon="13.4154229"><ele>1078.25</ele><time>2026-04-10T12:28:59.634Z</time></trkpt><trkpt lat="42.4010132" lon="13.4153831"><ele>1080.5</ele><time>2026-04-10T12:29:00.637Z</time></trkpt><trkpt lat="42.4008851" lon="13.4153218"><ele>1082.75</ele><time>2026-04-10T12:29:01.647Z</time></trkpt><trkpt lat="42.4007813" lon="13.4152646"><ele>1085.0</ele><time>2026-04-10T12:29:02.641Z</time></trkpt><trkpt lat="42.400694" lon="13.4151816"><ele>1085.0</ele><time>2026-04-10T12:29:04.633Z</time></trkpt><trkpt lat="42.4007666" lon="13.4150838"><ele>1085.0</ele><time>2026-04-10T12:29:07.627Z</time></trkpt><trkpt lat="42.4008618" lon="13.4149733"><ele>1085.0</ele><time>2026-04-10T12:29:09.627Z</time></trkpt><trkpt lat="42.4009547" lon="13.4148961"><ele>1085.0</ele><time>2026-04-10T12:29:10.627Z</time></trkpt><trkpt lat="42.4010599" lon="13.4148114"><ele>1085.0</ele><time>2026-04-10T12:29:11.657Z</time></trkpt><trkpt lat="42.4011566" lon="13.4147094"><ele>1085.0</ele><time>2026-04-10T12:29:12.649Z</time></trkpt><trkpt lat="42.4012446" lon="13.4145798"><ele>1085.0</ele><time>2026-04-10T12:29:13.643Z</time></trkpt><trkpt lat="42.401308" lon="13.4144373"><ele>1085.0</ele><time>2026-04-10T12:29:14.634Z</time></trkpt><trkpt lat="42.401341" lon="13.414263"><ele>1089.75</ele><time>2026-04-10T12:29:15.633Z</time></trkpt><trkpt lat="42.4013644" lon="13.4140747"><ele>1094.5</ele><time>2026-04-10T12:29:16.636Z</time></trkpt><trkpt lat="42.4013839" lon="13.4138902"><ele>1099.25</ele><time>2026-04-10T12:29:17.635Z</time></trkpt><trkpt lat="42.401395" lon="13.4137116"><ele>1104.0</ele><time>2026-04-10T12:29:18.637Z</time></trkpt><trkpt lat="42.4013856" lon="13.4135733"><ele>1104.2</ele><time>2026-04-10T12:29:19.642Z</time></trkpt><trkpt lat="42.4013649" lon="13.4134529"><ele>1104.4</ele><time>2026-04-10T12:29:20.654Z</time></trkpt><trkpt lat="42.4013313" lon="13.4133324"><ele>1104.6</ele><time>2026-04-10T12:29:21.652Z</time></trkpt><trkpt lat="42.4012974" lon="13.4132057"><ele>1104.8</ele><time>2026-04-10T12:29:22.656Z</time></trkpt><trkpt lat="42.4012674" lon="13.4130811"><ele>1105.0</ele><time>2026-04-10T12:29:23.652Z</time></trkpt><trkpt lat="42.4012349" lon="13.4129699"><ele>1105.2</ele><time>2026-04-10T12:29:24.644Z</time></trkpt><trkpt lat="42.4012123" lon="13.4128758"><ele>1105.4</ele><time>2026-04-10T12:29:25.648Z</time></trkpt><trkpt lat="42.4012095" lon="13.4126997"><ele>1105.6</ele><time>2026-04-10T12:29:27.65Z</time></trkpt><trkpt lat="42.4012331" lon="13.4125897"><ele>1105.8</ele><time>2026-04-10T12:29:28.648Z</time></trkpt><trkpt lat="42.4012662" lon="13.4124898"><ele>1106.0</ele><time>2026-04-10T12:29:29.643Z</time></trkpt><trkpt lat="42.4013228" lon="13.4123797"><ele>1105.6</ele><time>2026-04-10T12:29:30.647Z</time></trkpt><trkpt lat="42.4013708" lon="13.412267"><ele>1105.1999999999998</ele><time>2026-04-10T12:29:31.65Z</time></trkpt><trkpt lat="42.4014229" lon="13.4121631"><ele>1104.8000000000002</ele><time>2026-04-10T12:29:32.638Z</time></trkpt><trkpt lat="42.4014794" lon="13.4120544"><ele>1104.4</ele><time>2026-04-10T12:29:33.64Z</time></trkpt><trkpt lat="42.4015422" lon="13.4119377"><ele>1104.0</ele><time>2026-04-10T12:29:34.64Z</time></trkpt><trkpt lat="42.4016155" lon="13.4118446"><ele>1104.0</ele><time>2026-04-10T12:29:35.638Z</time></trkpt><trkpt lat="42.4017046" lon="13.4117374"><ele>1104.0</ele><time>2026-04-10T12:29:36.632Z</time></trkpt><trkpt lat="42.4018104" lon="13.411647"><ele>1104.0</ele><time>2026-04-10T12:29:37.638Z</time></trkpt><trkpt lat="42.4019285" lon="13.4115841"><ele>1104.0</ele><time>2026-04-10T12:29:38.635Z</time></trkpt><trkpt lat="42.402049" lon="13.411516"><ele>1105.0</ele><time>2026-04-10T12:29:39.637Z</time></trkpt><trkpt lat="42.4021772" lon="13.4114426"><ele>1106.0</ele><time>2026-04-10T12:29:40.636Z</time></trkpt><trkpt lat="42.4022919" lon="13.4113797"><ele>1107.0</ele><time>2026-04-10T12:29:41.639Z</time></trkpt><trkpt lat="42.402395" lon="13.4113181"><ele>1108.0</ele><time>2026-04-10T12:29:42.635Z</time></trkpt><trkpt lat="42.4024981" lon="13.4112624"><ele>1108.0</ele><time>2026-04-10T12:29:43.637Z</time></trkpt><trkpt lat="42.4025944" lon="13.4112095"><ele>1108.0</ele><time>2026-04-10T12:29:44.637Z</time></trkpt><trkpt lat="42.4026881" lon="13.4111364"><ele>1108.0</ele><time>2026-04-10T12:29:45.632Z</time></trkpt><trkpt lat="42.4027686" lon="13.4110373"><ele>1108.0</ele><time>2026-04-10T12:29:46.626Z</time></trkpt><trkpt lat="42.4028486" lon="13.4109019"><ele>1108.0</ele><time>2026-04-10T12:29:47.623Z</time></trkpt><trkpt lat="42.402894" lon="13.4107209"><ele>1108.0</ele><time>2026-04-10T12:29:48.622Z</time></trkpt><trkpt lat="42.4029157" lon="13.4105369"><ele>1108.0</ele><time>2026-04-10T12:29:49.624Z</time></trkpt><trkpt lat="42.4029392" lon="13.4103744"><ele>1108.0</ele><time>2026-04-10T12:29:50.625Z</time></trkpt><trkpt lat="42.4029714" lon="13.4102314"><ele>1108.0</ele><time>2026-04-10T12:29:51.636Z</time></trkpt><trkpt lat="42.4030328" lon="13.4100818"><ele>1110.25</ele><time>2026-04-10T12:29:52.635Z</time></trkpt><trkpt lat="42.4031358" lon="13.4099531"><ele>1112.5</ele><time>2026-04-10T12:29:53.631Z</time></trkpt><trkpt lat="42.4032594" lon="13.4098709"><ele>1114.75</ele><time>2026-04-10T12:29:54.641Z</time></trkpt><trkpt lat="42.4033798" lon="13.4097993"><ele>1117.0</ele><time>2026-04-10T12:29:55.641Z</time></trkpt><trkpt lat="42.4035036" lon="13.4097217"><ele>1116.0</ele><time>2026-04-10T12:29:56.646Z</time></trkpt><trkpt lat="42.4036233" lon="13.4096537"><ele>1115.0</ele><time>2026-04-10T12:29:57.644Z</time></trkpt><trkpt lat="42.4037553" lon="13.4095972"><ele>1114.0</ele><time>2026-04-10T12:29:58.639Z</time></trkpt><trkpt lat="42.4038833" lon="13.4095328"><ele>1113.0</ele><time>2026-04-10T12:29:59.638Z</time></trkpt><trkpt lat="42.4040084" lon="13.4094725"><ele>1116.75</ele><time>2026-04-10T12:30:00.634Z</time></trkpt><trkpt lat="42.4041257" lon="13.4094055"><ele>1120.5</ele><time>2026-04-10T12:30:01.637Z</time></trkpt><trkpt lat="42.4042293" lon="13.4093253"><ele>1124.25</ele><time>2026-04-10T12:30:02.628Z</time></trkpt><trkpt lat="42.4043294" lon="13.4092106"><ele>1128.0</ele><time>2026-04-10T12:30:03.635Z</time></trkpt><trkpt lat="42.4044216" lon="13.4090889"><ele>1128.0</ele><time>2026-04-10T12:30:04.627Z</time></trkpt><trkpt lat="42.4045031" lon="13.4089448"><ele>1128.0</ele><time>2026-04-10T12:30:05.622Z</time></trkpt><trkpt lat="42.4045746" lon="13.4087934"><ele>1128.0</ele><time>2026-04-10T12:30:06.623Z</time></trkpt><trkpt lat="42.4046247" lon="13.4086508"><ele>1128.0</ele><time>2026-04-10T12:30:07.608Z</time></trkpt><trkpt lat="42.4046633" lon="13.4085069"><ele>1130.5</ele><time>2026-04-10T12:30:08.613Z</time></trkpt><trkpt lat="42.4046935" lon="13.4083826"><ele>1133.0</ele><time>2026-04-10T12:30:09.619Z</time></trkpt><trkpt lat="42.4047011" lon="13.4082741"><ele>1135.5</ele><time>2026-04-10T12:30:10.621Z</time></trkpt><trkpt lat="42.4046998" lon="13.408164"><ele>1138.0</ele><time>2026-04-10T12:30:11.618Z</time></trkpt><trkpt lat="42.4047351" lon="13.4080236"><ele>1140.5</ele><time>2026-04-10T12:30:13.611Z</time></trkpt><trkpt lat="42.4047956" lon="13.4079665"><ele>1143.0</ele><time>2026-04-10T12:30:14.611Z</time></trkpt><trkpt lat="42.404909" lon="13.4078747"><ele>1143.3333333333333</ele><time>2026-04-10T12:30:16.619Z</time></trkpt><trkpt lat="42.4049709" lon="13.4078152"><ele>1143.6666666666667</ele><time>2026-04-10T12:30:17.614Z</time></trkpt><trkpt lat="42.4050141" lon="13.4077294"><ele>1144.0</ele><time>2026-04-10T12:30:18.613Z</time></trkpt><trkpt lat="42.4050566" lon="13.4076277"><ele>1144.3333333333335</ele><time>2026-04-10T12:30:19.601Z</time></trkpt><trkpt lat="42.4050971" lon="13.4075184"><ele>1144.6666666666667</ele><time>2026-04-10T12:30:20.599Z</time></trkpt><trkpt lat="42.405114" lon="13.4073683"><ele>1145.0</ele><time>2026-04-10T12:30:21.607Z</time></trkpt><trkpt lat="42.4051169" lon="13.4072414"><ele>1147.75</ele><time>2026-04-10T12:30:22.613Z</time></trkpt><trkpt lat="42.4050481" lon="13.4071332"><ele>1150.5</ele><time>2026-04-10T12:30:23.608Z</time></trkpt><trkpt lat="42.4049746" lon="13.4070333"><ele>1153.25</ele><time>2026-04-10T12:30:24.602Z</time></trkpt><trkpt lat="42.4048785" lon="13.4069254"><ele>1156.0</ele><time>2026-04-10T12:30:25.605Z</time></trkpt><trkpt lat="42.4047752" lon="13.4068287"><ele>1156.0</ele><time>2026-04-10T12:30:26.615Z</time></trkpt><trkpt lat="42.4047214" lon="13.4067263"><ele>1156.0</ele><time>2026-04-10T12:30:27.619Z</time></trkpt><trkpt lat="42.4047136" lon="13.4066309"><ele>1156.0</ele><time>2026-04-10T12:30:28.611Z</time></trkpt><trkpt lat="42.4046966" lon="13.4065375"><ele>1156.0</ele><time>2026-04-10T12:30:29.609Z</time></trkpt><trkpt lat="42.4047202" lon="13.4064227"><ele>1156.0</ele><time>2026-04-10T12:30:30.615Z</time></trkpt><trkpt lat="42.4047615" lon="13.4063195"><ele>1156.0</ele><time>2026-04-10T12:30:31.618Z</time></trkpt><trkpt lat="42.4048295" lon="13.4062418"><ele>1155.3999999999999</ele><time>2026-04-10T12:30:32.617Z</time></trkpt><trkpt lat="42.4049218" lon="13.4061848"><ele>1154.8</ele><time>2026-04-10T12:30:33.623Z</time></trkpt><trkpt lat="42.4050134" lon="13.4061575"><ele>1154.1999999999998</ele><time>2026-04-10T12:30:34.608Z</time></trkpt><trkpt lat="42.4051077" lon="13.4061543"><ele>1153.6</ele><time>2026-04-10T12:30:35.615Z</time></trkpt><trkpt lat="42.4051972" lon="13.4061885"><ele>1153.0</ele><time>2026-04-10T12:30:36.615Z</time></trkpt><trkpt lat="42.405291" lon="13.4062461"><ele>1153.75</ele><time>2026-04-10T12:30:37.616Z</time></trkpt><trkpt lat="42.4053816" lon="13.4063365"><ele>1154.5</ele><time>2026-04-10T12:30:38.611Z</time></trkpt><trkpt lat="42.4054818" lon="13.4064293"><ele>1155.25</ele><time>2026-04-10T12:30:39.615Z</time></trkpt><trkpt lat="42.4055733" lon="13.4065295"><ele>1156.0</ele><time>2026-04-10T12:30:40.617Z</time></trkpt><trkpt lat="42.4056576" lon="13.406613"><ele>1158.8</ele><time>2026-04-10T12:30:41.619Z</time></trkpt><trkpt lat="42.4057389" lon="13.4066757"><ele>1161.6</ele><time>2026-04-10T12:30:42.612Z</time></trkpt><trkpt lat="42.405831" lon="13.4067016"><ele>1164.4</ele><time>2026-04-10T12:30:43.616Z</time></trkpt><trkpt lat="42.4059275" lon="13.4066907"><ele>1167.2</ele><time>2026-04-10T12:30:44.608Z</time></trkpt><trkpt lat="42.4060431" lon="13.4066603"><ele>1170.0</ele><time>2026-04-10T12:30:45.61Z</time></trkpt><trkpt lat="42.4061505" lon="13.4066127"><ele>1170.0</ele><time>2026-04-10T12:30:46.616Z</time></trkpt><trkpt lat="42.4062301" lon="13.4065123"><ele>1170.0</ele><time>2026-04-10T12:30:47.62Z</time></trkpt><trkpt lat="42.4062966" lon="13.406359"><ele>1170.0</ele><time>2026-04-10T12:30:48.612Z</time></trkpt><trkpt lat="42.4063636" lon="13.4062022"><ele>1170.0</ele><time>2026-04-10T12:30:49.612Z</time></trkpt><trkpt lat="42.4064456" lon="13.406044"><ele>1173.5</ele><time>2026-04-10T12:30:50.615Z</time></trkpt><trkpt lat="42.4065152" lon="13.4059075"><ele>1177.0</ele><time>2026-04-10T12:30:51.618Z</time></trkpt><trkpt lat="42.4066058" lon="13.4057951"><ele>1180.5</ele><time>2026-04-10T12:30:52.628Z</time></trkpt><trkpt lat="42.4066899" lon="13.4056849"><ele>1184.0</ele><time>2026-04-10T12:30:53.623Z</time></trkpt><trkpt lat="42.4067652" lon="13.4055818"><ele>1184.4</ele><time>2026-04-10T12:30:54.617Z</time></trkpt><trkpt lat="42.4068265" lon="13.4054756"><ele>1184.8000000000002</ele><time>2026-04-10T12:30:55.616Z</time></trkpt><trkpt lat="42.4068675" lon="13.4053492"><ele>1185.1999999999998</ele><time>2026-04-10T12:30:56.626Z</time></trkpt><trkpt lat="42.4068901" lon="13.4052095"><ele>1185.6</ele><time>2026-04-10T12:30:57.624Z</time></trkpt><trkpt lat="42.4068888" lon="13.4050547"><ele>1186.0</ele><time>2026-04-10T12:30:58.623Z</time></trkpt><trkpt lat="42.406842" lon="13.4049102"><ele>1186.0</ele><time>2026-04-10T12:30:59.619Z</time></trkpt><trkpt lat="42.4067585" lon="13.4047691"><ele>1186.0</ele><time>2026-04-10T12:31:00.617Z</time></trkpt><trkpt lat="42.4066607" lon="13.4046361"><ele>1186.0</ele><time>2026-04-10T12:31:01.618Z</time></trkpt><trkpt lat="42.406568" lon="13.4045168"><ele>1186.0</ele><time>2026-04-10T12:31:02.613Z</time></trkpt><trkpt lat="42.4065026" lon="13.4043865"><ele>1188.0</ele><time>2026-04-10T12:31:03.607Z</time></trkpt><trkpt lat="42.4064557" lon="13.4042692"><ele>1190.0</ele><time>2026-04-10T12:31:04.607Z</time></trkpt><trkpt lat="42.4064401" lon="13.4041364"><ele>1192.0</ele><time>2026-04-10T12:31:05.611Z</time></trkpt><trkpt lat="42.406461" lon="13.4040039"><ele>1194.0</ele><time>2026-04-10T12:31:06.616Z</time></trkpt><trkpt lat="42.4064953" lon="13.40386"><ele>1196.0</ele><time>2026-04-10T12:31:07.613Z</time></trkpt><trkpt lat="42.4065388" lon="13.4037138"><ele>1196.2</ele><time>2026-04-10T12:31:08.613Z</time></trkpt><trkpt lat="42.406591" lon="13.4035716"><ele>1196.3999999999999</ele><time>2026-04-10T12:31:09.623Z</time></trkpt><trkpt lat="42.40664" lon="13.4034417"><ele>1196.6</ele><time>2026-04-10T12:31:10.622Z</time></trkpt><trkpt lat="42.4066796" lon="13.403318"><ele>1196.8</ele><time>2026-04-10T12:31:11.627Z</time></trkpt><trkpt lat="42.4067143" lon="13.4031954"><ele>1197.0</ele><time>2026-04-10T12:31:12.624Z</time></trkpt><trkpt lat="42.4067507" lon="13.4030758"><ele>1195.75</ele><time>2026-04-10T12:31:13.624Z</time></trkpt><trkpt lat="42.4068096" lon="13.4029512"><ele>1194.5</ele><time>2026-04-10T12:31:14.628Z</time></trkpt><trkpt lat="42.4068926" lon="13.4028337"><ele>1193.25</ele><time>2026-04-10T12:31:15.634Z</time></trkpt><trkpt lat="42.4069907" lon="13.402743"><ele>1192.0</ele><time>2026-04-10T12:31:16.628Z</time></trkpt><trkpt lat="42.4070923" lon="13.4026752"><ele>1194.75</ele><time>2026-04-10T12:31:17.63Z</time></trkpt><trkpt lat="42.407213" lon="13.402627"><ele>1197.5</ele><time>2026-04-10T12:31:18.627Z</time></trkpt><trkpt lat="42.4073416" lon="13.4025847"><ele>1200.25</ele><time>2026-04-10T12:31:19.632Z</time></trkpt><trkpt lat="42.4074754" lon="13.4025545"><ele>1203.0</ele><time>2026-04-10T12:31:20.632Z</time></trkpt><trkpt lat="42.4076096" lon="13.4025079"><ele>1203.0</ele><time>2026-04-10T12:31:21.634Z</time></trkpt><trkpt lat="42.4077342" lon="13.4024409"><ele>1203.0</ele><time>2026-04-10T12:31:22.623Z</time></trkpt><trkpt lat="42.4078372" lon="13.4023402"><ele>1203.0</ele><time>2026-04-10T12:31:23.628Z</time></trkpt><trkpt lat="42.4079345" lon="13.402249"><ele>1203.0</ele><time>2026-04-10T12:31:24.631Z</time></trkpt><trkpt lat="42.4080242" lon="13.4021776"><ele>1203.6</ele><time>2026-04-10T12:31:25.625Z</time></trkpt><trkpt lat="42.4081128" lon="13.4021222"><ele>1204.1999999999998</ele><time>2026-04-10T12:31:26.626Z</time></trkpt><trkpt lat="42.4082094" lon="13.4020874"><ele>1204.8</ele><time>2026-04-10T12:31:27.63Z</time></trkpt><trkpt lat="42.4083178" lon="13.4020759"><ele>1205.3999999999999</ele><time>2026-04-10T12:31:28.629Z</time></trkpt><trkpt lat="42.4084285" lon="13.402071"><ele>1206.0</ele><time>2026-04-10T12:31:29.626Z</time></trkpt><trkpt lat="42.4085425" lon="13.4020825"><ele>1206.0</ele><time>2026-04-10T12:31:30.635Z</time></trkpt><trkpt lat="42.4086679" lon="13.4020879"><ele>1206.0</ele><time>2026-04-10T12:31:31.637Z</time></trkpt><trkpt lat="42.4087943" lon="13.402086"><ele>1206.0</ele><time>2026-04-10T12:31:32.633Z</time></trkpt><trkpt lat="42.4089168" lon="13.4020733"><ele>1206.0</ele><time>2026-04-10T12:31:33.632Z</time></trkpt><trkpt lat="42.4090338" lon="13.4020534"><ele>1206.2</ele><time>2026-04-10T12:31:34.633Z</time></trkpt><trkpt lat="42.4091414" lon="13.4020244"><ele>1206.3999999999999</ele><time>2026-04-10T12:31:35.628Z</time></trkpt><trkpt lat="42.409238" lon="13.401974"><ele>1206.6</ele><time>2026-04-10T12:31:36.628Z</time></trkpt><trkpt lat="42.4093356" lon="13.4019176"><ele>1206.8</ele><time>2026-04-10T12:31:37.619Z</time></trkpt><trkpt lat="42.4094126" lon="13.4018418"><ele>1207.0</ele><time>2026-04-10T12:31:38.623Z</time></trkpt><trkpt lat="42.4094859" lon="13.401749"><ele>1207.0</ele><time>2026-04-10T12:31:39.628Z</time></trkpt><trkpt lat="42.4095498" lon="13.401652"><ele>1207.0</ele><time>2026-04-10T12:31:40.622Z</time></trkpt><trkpt lat="42.4095908" lon="13.4015666"><ele>1207.0</ele><time>2026-04-10T12:31:41.626Z</time></trkpt><trkpt lat="42.4096156" lon="13.401478"><ele>1207.0</ele><time>2026-04-10T12:31:42.622Z</time></trkpt><trkpt lat="42.4096222" lon="13.4013764"><ele>1207.0</ele><time>2026-04-10T12:31:43.614Z</time></trkpt><trkpt lat="42.409615" lon="13.4012599"><ele>1207.0</ele><time>2026-04-10T12:31:44.624Z</time></trkpt><trkpt lat="42.4095972" lon="13.4011365"><ele>1205.6666666666665</ele><time>2026-04-10T12:31:45.632Z</time></trkpt><trkpt lat="42.4095844" lon="13.4010252"><ele>1204.3333333333333</ele><time>2026-04-10T12:31:46.629Z</time></trkpt><trkpt lat="42.4095716" lon="13.4009091"><ele>1203.0</ele><time>2026-04-10T12:31:47.627Z</time></trkpt><trkpt lat="42.4095553" lon="13.4007871"><ele>1201.6666666666667</ele><time>2026-04-10T12:31:48.628Z</time></trkpt><trkpt lat="42.4095448" lon="13.4006626"><ele>1200.3333333333335</ele><time>2026-04-10T12:31:49.634Z</time></trkpt><trkpt lat="42.4095252" lon="13.400546"><ele>1199.0</ele><time>2026-04-10T12:31:50.622Z</time></trkpt><trkpt lat="42.4094982" lon="13.4004136"><ele>1197.5</ele><time>2026-04-10T12:31:51.626Z</time></trkpt><trkpt lat="42.4094381" lon="13.4002548"><ele>1196.0</ele><time>2026-04-10T12:31:52.634Z</time></trkpt><trkpt lat="42.4093821" lon="13.4000888"><ele>1194.5</ele><time>2026-04-10T12:31:53.625Z</time></trkpt><trkpt lat="42.409326" lon="13.3999184"><ele>1193.0</ele><time>2026-04-10T12:31:54.63Z</time></trkpt><trkpt lat="42.4092807" lon="13.3997484"><ele>1192.75</ele><time>2026-04-10T12:31:55.626Z</time></trkpt><trkpt lat="42.4092452" lon="13.3995803"><ele>1192.5</ele><time>2026-04-10T12:31:56.621Z</time></trkpt><trkpt lat="42.4092205" lon="13.3994213"><ele>1192.25</ele><time>2026-04-10T12:31:57.622Z</time></trkpt><trkpt lat="42.4092056" lon="13.3992569"><ele>1192.0</ele><time>2026-04-10T12:31:58.624Z</time></trkpt><trkpt lat="42.4092031" lon="13.3990677"><ele>1192.0</ele><time>2026-04-10T12:31:59.624Z</time></trkpt><trkpt lat="42.4092199" lon="13.3988716"><ele>1192.0</ele><time>2026-04-10T12:32:00.625Z</time></trkpt><trkpt lat="42.4092311" lon="13.3986615"><ele>1192.0</ele><time>2026-04-10T12:32:01.627Z</time></trkpt><trkpt lat="42.4092452" lon="13.3984639"><ele>1192.0</ele><time>2026-04-10T12:32:02.619Z</time></trkpt><trkpt lat="42.4092532" lon="13.3982929"><ele>1193.0</ele><time>2026-04-10T12:32:03.619Z</time></trkpt><trkpt lat="42.4092367" lon="13.3981489"><ele>1194.0</ele><time>2026-04-10T12:32:04.619Z</time></trkpt><trkpt lat="42.4091959" lon="13.3980272"><ele>1195.0</ele><time>2026-04-10T12:32:05.618Z</time></trkpt><trkpt lat="42.409124" lon="13.3979029"><ele>1196.0</ele><time>2026-04-10T12:32:06.619Z</time></trkpt><trkpt lat="42.4090906" lon="13.3977992"><ele>1197.0</ele><time>2026-04-10T12:32:07.611Z</time></trkpt><trkpt lat="42.4090907" lon="13.3976994"><ele>1197.7142857142858</ele><time>2026-04-10T12:32:08.613Z</time></trkpt><trkpt lat="42.4090908" lon="13.3976065"><ele>1198.4285714285716</ele><time>2026-04-10T12:32:09.612Z</time></trkpt><trkpt lat="42.4090998" lon="13.3975164"><ele>1199.142857142857</ele><time>2026-04-10T12:32:10.613Z</time></trkpt><trkpt lat="42.4091001" lon="13.3974202"><ele>1199.857142857143</ele><time>2026-04-10T12:32:11.61Z</time></trkpt><trkpt lat="42.4090876" lon="13.3973269"><ele>1200.5714285714287</ele><time>2026-04-10T12:32:12.61Z</time></trkpt><trkpt lat="42.4090535" lon="13.3972312"><ele>1201.2857142857142</ele><time>2026-04-10T12:32:13.603Z</time></trkpt><trkpt lat="42.409007" lon="13.3971267"><ele>1202.0</ele><time>2026-04-10T12:32:14.609Z</time></trkpt><trkpt lat="42.4089625" lon="13.3970114"><ele>1202.2</ele><time>2026-04-10T12:32:15.616Z</time></trkpt><trkpt lat="42.4089274" lon="13.3968884"><ele>1202.4</ele><time>2026-04-10T12:32:16.608Z</time></trkpt><trkpt lat="42.4089115" lon="13.3967514"><ele>1202.6</ele><time>2026-04-10T12:32:17.602Z</time></trkpt><trkpt lat="42.4089361" lon="13.3966102"><ele>1202.8</ele><time>2026-04-10T12:32:18.613Z</time></trkpt><trkpt lat="42.4089858" lon="13.396468"><ele>1203.0</ele><time>2026-04-10T12:32:19.601Z</time></trkpt><trkpt lat="42.4090559" lon="13.396318"><ele>1201.75</ele><time>2026-04-10T12:32:20.598Z</time></trkpt><trkpt lat="42.409125" lon="13.3961735"><ele>1200.5</ele><time>2026-04-10T12:32:21.599Z</time></trkpt><trkpt lat="42.4092023" lon="13.3960385"><ele>1199.25</ele><time>2026-04-10T12:32:22.601Z</time></trkpt><trkpt lat="42.4093095" lon="13.395911"><ele>1198.0</ele><time>2026-04-10T12:32:23.596Z</time></trkpt><trkpt lat="42.4094064" lon="13.3957952"><ele>1198.0</ele><time>2026-04-10T12:32:24.594Z</time></trkpt><trkpt lat="42.4094949" lon="13.3957118"><ele>1198.0</ele><time>2026-04-10T12:32:25.594Z</time></trkpt><trkpt lat="42.4095635" lon="13.3956439"><ele>1198.0</ele><time>2026-04-10T12:32:26.61Z</time></trkpt><trkpt lat="42.4096308" lon="13.3955955"><ele>1198.0</ele><time>2026-04-10T12:32:27.609Z</time></trkpt><trkpt lat="42.4097013" lon="13.3955522"><ele>1198.0</ele><time>2026-04-10T12:32:28.6Z</time></trkpt><trkpt lat="42.4097803" lon="13.3955639"><ele>1198.0</ele><time>2026-04-10T12:32:29.598Z</time></trkpt><trkpt lat="42.4098616" lon="13.3956153"><ele>1197.0</ele><time>2026-04-10T12:32:30.601Z</time></trkpt><trkpt lat="42.4099408" lon="13.3956929"><ele>1196.0</ele><time>2026-04-10T12:32:31.61Z</time></trkpt><trkpt lat="42.4100137" lon="13.3958198"><ele>1195.0</ele><time>2026-04-10T12:32:32.609Z</time></trkpt><trkpt lat="42.4100865" lon="13.3959439"><ele>1194.0</ele><time>2026-04-10T12:32:33.606Z</time></trkpt><trkpt lat="42.4101525" lon="13.3960559"><ele>1193.0</ele><time>2026-04-10T12:32:34.613Z</time></trkpt><trkpt lat="42.410209" lon="13.396144"><ele>1193.0</ele><time>2026-04-10T12:32:35.612Z</time></trkpt><trkpt lat="42.4102936" lon="13.3960666"><ele>1193.0</ele><time>2026-04-10T12:32:38.614Z</time></trkpt><trkpt lat="42.4103248" lon="13.395932"><ele>1193.0</ele><time>2026-04-10T12:32:39.612Z</time></trkpt><trkpt lat="42.410365" lon="13.395784"><ele>1193.0</ele><time>2026-04-10T12:32:40.608Z</time></trkpt><trkpt lat="42.4104129" lon="13.3956197"><ele>1191.6666666666667</ele><time>2026-04-10T12:32:41.604Z</time></trkpt><trkpt lat="42.4104738" lon="13.3954413"><ele>1190.3333333333333</ele><time>2026-04-10T12:32:42.605Z</time></trkpt><trkpt lat="42.4105478" lon="13.3952355"><ele>1189.0</ele><time>2026-04-10T12:32:43.608Z</time></trkpt><trkpt lat="42.4106301" lon="13.3950276"><ele>1184.3333333333333</ele><time>2026-04-10T12:32:44.608Z</time></trkpt><trkpt lat="42.4107176" lon="13.3948505"><ele>1179.6666666666667</ele><time>2026-04-10T12:32:45.608Z</time></trkpt><trkpt lat="42.4108212" lon="13.3946763"><ele>1175.0</ele><time>2026-04-10T12:32:46.61Z</time></trkpt><trkpt lat="42.4109335" lon="13.3944923"><ele>1173.3333333333335</ele><time>2026-04-10T12:32:47.616Z</time></trkpt><trkpt lat="42.4110504" lon="13.3942761"><ele>1171.6666666666667</ele><time>2026-04-10T12:32:48.615Z</time></trkpt><trkpt lat="42.4111756" lon="13.3940476"><ele>1170.0</ele><time>2026-04-10T12:32:49.622Z</time></trkpt><trkpt lat="42.4112887" lon="13.3937922"><ele>1173.6666666666667</ele><time>2026-04-10T12:32:50.621Z</time></trkpt><trkpt lat="42.4113851" lon="13.3935375"><ele>1177.3333333333335</ele><time>2026-04-10T12:32:51.621Z</time></trkpt><trkpt lat="42.4114724" lon="13.3932696"><ele>1181.0</ele><time>2026-04-10T12:32:52.625Z</time></trkpt><trkpt lat="42.4115333" lon="13.3930271"><ele>1180.0</ele><time>2026-04-10T12:32:53.621Z</time></trkpt><trkpt lat="42.4115864" lon="13.392786"><ele>1179.0</ele><time>2026-04-10T12:32:54.62Z</time></trkpt><trkpt lat="42.4116194" lon="13.3925776"><ele>1178.0</ele><time>2026-04-10T12:32:55.62Z</time></trkpt><trkpt lat="42.411641" lon="13.3923748"><ele>1178.0</ele><time>2026-04-10T12:32:56.621Z</time></trkpt><trkpt lat="42.4116541" lon="13.3922385"><ele>1178.0</ele><time>2026-04-10T12:32:57.618Z</time></trkpt><trkpt lat="42.4116588" lon="13.3921391"><ele>1178.0</ele><time>2026-04-10T12:32:58.622Z</time></trkpt><trkpt lat="42.4116814" lon="13.3920105"><ele>1178.0</ele><time>2026-04-10T12:32:59.62Z</time></trkpt><trkpt lat="42.4117009" lon="13.3918453"><ele>1178.0</ele><time>2026-04-10T12:33:00.622Z</time></trkpt><trkpt lat="42.4117289" lon="13.3916864"><ele>1177.0</ele><time>2026-04-10T12:33:01.63Z</time></trkpt><trkpt lat="42.4117565" lon="13.3915163"><ele>1176.0</ele><time>2026-04-10T12:33:02.624Z</time></trkpt><trkpt lat="42.4117859" lon="13.3913392"><ele>1175.0</ele><time>2026-04-10T12:33:03.624Z</time></trkpt><trkpt lat="42.4118063" lon="13.3911715"><ele>1174.0</ele><time>2026-04-10T12:33:04.622Z</time></trkpt><trkpt lat="42.4118214" lon="13.3910005"><ele>1171.75</ele><time>2026-04-10T12:33:05.624Z</time></trkpt><trkpt lat="42.4118442" lon="13.3908241"><ele>1169.5</ele><time>2026-04-10T12:33:06.624Z</time></trkpt><trkpt lat="42.4118598" lon="13.3906638"><ele>1167.25</ele><time>2026-04-10T12:33:07.621Z</time></trkpt><trkpt lat="42.4118737" lon="13.3905168"><ele>1165.0</ele><time>2026-04-10T12:33:08.62Z</time></trkpt><trkpt lat="42.4118806" lon="13.3903828"><ele>1164.6</ele><time>2026-04-10T12:33:09.621Z</time></trkpt><trkpt lat="42.411876" lon="13.3902582"><ele>1164.2</ele><time>2026-04-10T12:33:10.61Z</time></trkpt><trkpt lat="42.4118547" lon="13.3901476"><ele>1163.8</ele><time>2026-04-10T12:33:11.611Z</time></trkpt><trkpt lat="42.4118191" lon="13.3900345"><ele>1163.4</ele><time>2026-04-10T12:33:12.61Z</time></trkpt><trkpt lat="42.4117721" lon="13.3899136"><ele>1163.0</ele><time>2026-04-10T12:33:13.617Z</time></trkpt><trkpt lat="42.4117251" lon="13.3898073"><ele>1163.0</ele><time>2026-04-10T12:33:14.621Z</time></trkpt><trkpt lat="42.4116926" lon="13.3897111"><ele>1163.0</ele><time>2026-04-10T12:33:15.614Z</time></trkpt><trkpt lat="42.4116746" lon="13.3896273"><ele>1163.0</ele><time>2026-04-10T12:33:16.613Z</time></trkpt><trkpt lat="42.4116915" lon="13.3895038"><ele>1163.0</ele><time>2026-04-10T12:33:18.613Z</time></trkpt><trkpt lat="42.4117851" lon="13.3895101"><ele>1163.0</ele><time>2026-04-10T12:33:20.624Z</time></trkpt><trkpt lat="42.4118704" lon="13.3896161"><ele>1163.0</ele><time>2026-04-10T12:33:22.634Z</time></trkpt><trkpt lat="42.4119269" lon="13.3896979"><ele>1163.0</ele><time>2026-04-10T12:33:24.629Z</time></trkpt><trkpt lat="42.4119673" lon="13.3897658"><ele>1163.0</ele><time>2026-04-10T12:33:37.614Z</time></trkpt><trkpt lat="42.4120304" lon="13.3899195"><ele>1163.0</ele><time>2026-04-10T12:33:40.621Z</time></trkpt><trkpt lat="42.4120882" lon="13.3900377"><ele>1163.0</ele><time>2026-04-10T12:33:41.613Z</time></trkpt><trkpt lat="42.4121655" lon="13.3902078"><ele>1163.0</ele><time>2026-04-10T12:33:42.61Z</time></trkpt><trkpt lat="42.4122364" lon="13.3903707"><ele>1160.75</ele><time>2026-04-10T12:33:43.608Z</time></trkpt><trkpt lat="42.4123074" lon="13.390522"><ele>1158.5</ele><time>2026-04-10T12:33:44.609Z</time></trkpt><trkpt lat="42.4123925" lon="13.3906626"><ele>1156.25</ele><time>2026-04-10T12:33:45.608Z</time></trkpt><trkpt lat="42.4124853" lon="13.3907864"><ele>1154.0</ele><time>2026-04-10T12:33:46.604Z</time></trkpt><trkpt lat="42.4125684" lon="13.3909186"><ele>1154.0</ele><time>2026-04-10T12:33:47.606Z</time></trkpt><trkpt lat="42.4126472" lon="13.3910373"><ele>1154.0</ele><time>2026-04-10T12:33:48.61Z</time></trkpt><trkpt lat="42.4127265" lon="13.3911606"><ele>1154.0</ele><time>2026-04-10T12:33:49.612Z</time></trkpt><trkpt lat="42.412781" lon="13.3912999"><ele>1154.0</ele><time>2026-04-10T12:33:50.61Z</time></trkpt><trkpt lat="42.4128402" lon="13.3914493"><ele>1156.25</ele><time>2026-04-10T12:33:51.609Z</time></trkpt><trkpt lat="42.4128961" lon="13.3915994"><ele>1158.5</ele><time>2026-04-10T12:33:52.616Z</time></trkpt><trkpt lat="42.4129407" lon="13.3917522"><ele>1160.75</ele><time>2026-04-10T12:33:53.607Z</time></trkpt><trkpt lat="42.4129927" lon="13.391913"><ele>1163.0</ele><time>2026-04-10T12:33:54.605Z</time></trkpt><trkpt lat="42.4130359" lon="13.3920712"><ele>1159.4</ele><time>2026-04-10T12:33:55.603Z</time></trkpt><trkpt lat="42.4130676" lon="13.3922281"><ele>1155.8</ele><time>2026-04-10T12:33:56.605Z</time></trkpt><trkpt lat="42.4130754" lon="13.3923381"><ele>1152.2</ele><time>2026-04-10T12:33:57.609Z</time></trkpt><trkpt lat="42.4131042" lon="13.3924237"><ele>1148.6</ele><time>2026-04-10T12:33:58.609Z</time></trkpt><trkpt lat="42.4131799" lon="13.3924878"><ele>1145.0</ele><time>2026-04-10T12:33:59.611Z</time></trkpt><trkpt lat="42.4132671" lon="13.3925441"><ele>1145.0</ele><time>2026-04-10T12:34:00.609Z</time></trkpt><trkpt lat="42.4133582" lon="13.3926186"><ele>1145.0</ele><time>2026-04-10T12:34:01.623Z</time></trkpt><trkpt lat="42.4134616" lon="13.3926864"><ele>1145.0</ele><time>2026-04-10T12:34:02.616Z</time></trkpt><trkpt lat="42.4135561" lon="13.3927747"><ele>1145.0</ele><time>2026-04-10T12:34:03.613Z</time></trkpt><trkpt lat="42.413634" lon="13.3928691"><ele>1145.0</ele><time>2026-04-10T12:34:04.605Z</time></trkpt><trkpt lat="42.4137047" lon="13.3929805"><ele>1147.25</ele><time>2026-04-10T12:34:05.606Z</time></trkpt><trkpt lat="42.4137682" lon="13.3931203"><ele>1149.5</ele><time>2026-04-10T12:34:06.612Z</time></trkpt><trkpt lat="42.413798" lon="13.3932963"><ele>1151.75</ele><time>2026-04-10T12:34:07.604Z</time></trkpt><trkpt lat="42.4138186" lon="13.3934813"><ele>1154.0</ele><time>2026-04-10T12:34:08.613Z</time></trkpt><trkpt lat="42.4138408" lon="13.393682"><ele>1147.25</ele><time>2026-04-10T12:34:09.604Z</time></trkpt><trkpt lat="42.413863" lon="13.3938726"><ele>1140.5</ele><time>2026-04-10T12:34:10.607Z</time></trkpt><trkpt lat="42.4138899" lon="13.3940573"><ele>1133.75</ele><time>2026-04-10T12:34:11.609Z</time></trkpt><trkpt lat="42.4139365" lon="13.3941969"><ele>1127.0</ele><time>2026-04-10T12:34:12.612Z</time></trkpt><trkpt lat="42.413974" lon="13.394332"><ele>1127.0</ele><time>2026-04-10T12:34:13.615Z</time></trkpt><trkpt lat="42.4140079" lon="13.3944711"><ele>1127.0</ele><time>2026-04-10T12:34:14.611Z</time></trkpt><trkpt lat="42.414028" lon="13.3946144"><ele>1127.0</ele><time>2026-04-10T12:34:15.612Z</time></trkpt><trkpt lat="42.4140374" lon="13.3947491"><ele>1127.0</ele><time>2026-04-10T12:34:16.605Z</time></trkpt><trkpt lat="42.4140093" lon="13.3948998"><ele>1127.0</ele><time>2026-04-10T12:34:17.608Z</time></trkpt><trkpt lat="42.413971" lon="13.3950555"><ele>1127.5</ele><time>2026-04-10T12:34:18.605Z</time></trkpt><trkpt lat="42.4139301" lon="13.3952348"><ele>1128.0</ele><time>2026-04-10T12:34:19.611Z</time></trkpt><trkpt lat="42.4139086" lon="13.3954013"><ele>1128.5</ele><time>2026-04-10T12:34:20.607Z</time></trkpt><trkpt lat="42.4138781" lon="13.3955706"><ele>1129.0</ele><time>2026-04-10T12:34:21.617Z</time></trkpt><trkpt lat="42.413869" lon="13.3957118"><ele>1129.0</ele><time>2026-04-10T12:34:22.615Z</time></trkpt><trkpt lat="42.4138411" lon="13.3958291"><ele>1129.0</ele><time>2026-04-10T12:34:23.618Z</time></trkpt><trkpt lat="42.413777" lon="13.3959362"><ele>1129.0</ele><time>2026-04-10T12:34:24.612Z</time></trkpt><trkpt lat="42.4137074" lon="13.3960428"><ele>1129.0</ele><time>2026-04-10T12:34:25.62Z</time></trkpt><trkpt lat="42.4136266" lon="13.3961441"><ele>1129.0</ele><time>2026-04-10T12:34:26.618Z</time></trkpt><trkpt lat="42.4135654" lon="13.396263"><ele>1130.3333333333333</ele><time>2026-04-10T12:34:27.62Z</time></trkpt><trkpt lat="42.4135049" lon="13.3964016"><ele>1131.6666666666665</ele><time>2026-04-10T12:34:28.613Z</time></trkpt><trkpt lat="42.4134875" lon="13.3965181"><ele>1133.0</ele><time>2026-04-10T12:34:29.617Z</time></trkpt><trkpt lat="42.413488" lon="13.3966035"><ele>1134.3333333333333</ele><time>2026-04-10T12:34:30.615Z</time></trkpt><trkpt lat="42.413563" lon="13.3966657"><ele>1135.6666666666667</ele><time>2026-04-10T12:34:32.607Z</time></trkpt><trkpt lat="42.4136305" lon="13.396651"><ele>1137.0</ele><time>2026-04-10T12:34:33.609Z</time></trkpt><trkpt lat="42.4136975" lon="13.3966211"><ele>1137.0</ele><time>2026-04-10T12:34:34.607Z</time></trkpt><trkpt lat="42.413761" lon="13.3965464"><ele>1137.0</ele><time>2026-04-10T12:34:35.614Z</time></trkpt><trkpt lat="42.4138384" lon="13.3964355"><ele>1137.0</ele><time>2026-04-10T12:34:36.613Z</time></trkpt><trkpt lat="42.4139106" lon="13.3962919"><ele>1137.0</ele><time>2026-04-10T12:34:37.618Z</time></trkpt><trkpt lat="42.4139779" lon="13.3961376"><ele>1135.0</ele><time>2026-04-10T12:34:38.612Z</time></trkpt><trkpt lat="42.4140435" lon="13.395978"><ele>1133.0</ele><time>2026-04-10T12:34:39.609Z</time></trkpt><trkpt lat="42.4141021" lon="13.3958218"><ele>1131.0</ele><time>2026-04-10T12:34:40.605Z</time></trkpt><trkpt lat="42.4141285" lon="13.3956912"><ele>1129.0</ele><time>2026-04-10T12:34:41.613Z</time></trkpt><trkpt lat="42.4141428" lon="13.395565"><ele>1129.2</ele><time>2026-04-10T12:34:42.618Z</time></trkpt><trkpt lat="42.4141609" lon="13.3954436"><ele>1129.4</ele><time>2026-04-10T12:34:43.622Z</time></trkpt><trkpt lat="42.4141844" lon="13.3953229"><ele>1129.6</ele><time>2026-04-10T12:34:44.624Z</time></trkpt><trkpt lat="42.4141754" lon="13.3952312"><ele>1129.8</ele><time>2026-04-10T12:34:45.623Z</time></trkpt><trkpt lat="42.4141939" lon="13.3951221"><ele>1130.0</ele><time>2026-04-10T12:34:46.625Z</time></trkpt><trkpt lat="42.4142745" lon="13.3949938"><ele>1130.0</ele><time>2026-04-10T12:34:48.614Z</time></trkpt><trkpt lat="42.4143718" lon="13.3949976"><ele>1130.0</ele><time>2026-04-10T12:34:49.617Z</time></trkpt><trkpt lat="42.4144727" lon="13.3950322"><ele>1130.0</ele><time>2026-04-10T12:34:50.615Z</time></trkpt><trkpt lat="42.4145975" lon="13.3950754"><ele>1130.0</ele><time>2026-04-10T12:34:51.618Z</time></trkpt><trkpt lat="42.4147092" lon="13.3951281"><ele>1130.0</ele><time>2026-04-10T12:34:52.627Z</time></trkpt><trkpt lat="42.4148356" lon="13.3951768"><ele>1131.0</ele><time>2026-04-10T12:34:53.624Z</time></trkpt><trkpt lat="42.4149486" lon="13.3952188"><ele>1132.0</ele><time>2026-04-10T12:34:54.626Z</time></trkpt><trkpt lat="42.4150557" lon="13.3952137"><ele>1133.0</ele><time>2026-04-10T12:34:55.623Z</time></trkpt><trkpt lat="42.4151771" lon="13.3951833"><ele>1134.0</ele><time>2026-04-10T12:34:56.628Z</time></trkpt><trkpt lat="42.4152838" lon="13.3951218"><ele>1134.0</ele><time>2026-04-10T12:34:57.627Z</time></trkpt><trkpt lat="42.4153827" lon="13.3950433"><ele>1134.0</ele><time>2026-04-10T12:34:58.633Z</time></trkpt><trkpt lat="42.4154841" lon="13.3949499"><ele>1134.0</ele><time>2026-04-10T12:34:59.624Z</time></trkpt><trkpt lat="42.4155927" lon="13.394864"><ele>1134.0</ele><time>2026-04-10T12:35:00.629Z</time></trkpt><trkpt lat="42.4157008" lon="13.3948105"><ele>1135.0</ele><time>2026-04-10T12:35:01.638Z</time></trkpt><trkpt lat="42.4158191" lon="13.3947564"><ele>1136.0</ele><time>2026-04-10T12:35:02.629Z</time></trkpt><trkpt lat="42.4159381" lon="13.3946924"><ele>1137.0</ele><time>2026-04-10T12:35:03.633Z</time></trkpt><trkpt lat="42.4160653" lon="13.3946669"><ele>1138.0</ele><time>2026-04-10T12:35:04.635Z</time></trkpt><trkpt lat="42.4161932" lon="13.3946315"><ele>1138.75</ele><time>2026-04-10T12:35:05.636Z</time></trkpt><trkpt lat="42.4163102" lon="13.3945961"><ele>1139.5</ele><time>2026-04-10T12:35:06.625Z</time></trkpt><trkpt lat="42.416415" lon="13.394538"><ele>1140.25</ele><time>2026-04-10T12:35:07.616Z</time></trkpt><trkpt lat="42.4165114" lon="13.3944563"><ele>1141.0</ele><time>2026-04-10T12:35:08.615Z</time></trkpt><trkpt lat="42.4165919" lon="13.3943677"><ele>1141.0</ele><time>2026-04-10T12:35:09.627Z</time></trkpt><trkpt lat="42.4166664" lon="13.3942769"><ele>1141.0</ele><time>2026-04-10T12:35:10.621Z</time></trkpt><trkpt lat="42.4167322" lon="13.3941908"><ele>1141.0</ele><time>2026-04-10T12:35:11.61Z</time></trkpt><trkpt lat="42.4167714" lon="13.3941046"><ele>1141.0</ele><time>2026-04-10T12:35:12.619Z</time></trkpt><trkpt lat="42.4167926" lon="13.3940023"><ele>1141.0</ele><time>2026-04-10T12:35:13.609Z</time></trkpt><trkpt lat="42.4167564" lon="13.3939054"><ele>1141.0</ele><time>2026-04-10T12:35:14.618Z</time></trkpt><trkpt lat="42.4166908" lon="13.3937859"><ele>1141.75</ele><time>2026-04-10T12:35:15.621Z</time></trkpt><trkpt lat="42.416573" lon="13.393721"><ele>1142.5</ele><time>2026-04-10T12:35:16.615Z</time></trkpt><trkpt lat="42.4164252" lon="13.3937059"><ele>1143.25</ele><time>2026-04-10T12:35:17.618Z</time></trkpt><trkpt lat="42.416261" lon="13.3937419"><ele>1144.0</ele><time>2026-04-10T12:35:18.619Z</time></trkpt><trkpt lat="42.4161069" lon="13.3937521"><ele>1144.0</ele><time>2026-04-10T12:35:19.62Z</time></trkpt><trkpt lat="42.4159993" lon="13.3937236"><ele>1144.0</ele><time>2026-04-10T12:35:20.623Z</time></trkpt><trkpt lat="42.4159049" lon="13.3936774"><ele>1144.0</ele><time>2026-04-10T12:35:21.615Z</time></trkpt><trkpt lat="42.4158262" lon="13.3936228"><ele>1144.0</ele><time>2026-04-10T12:35:22.616Z</time></trkpt><trkpt lat="42.4157842" lon="13.3935118"><ele>1144.0</ele><time>2026-04-10T12:35:23.616Z</time></trkpt><trkpt lat="42.415755" lon="13.3933989"><ele>1144.0</ele><time>2026-04-10T12:35:24.605Z</time></trkpt><trkpt lat="42.4157761" lon="13.3932836"><ele>1144.0</ele><time>2026-04-10T12:35:25.611Z</time></trkpt><trkpt lat="42.4158232" lon="13.3931645"><ele>1144.0</ele><time>2026-04-10T12:35:26.602Z</time></trkpt><trkpt lat="42.4158937" lon="13.3930355"><ele>1144.0</ele><time>2026-04-10T12:35:27.612Z</time></trkpt><trkpt lat="42.4159972" lon="13.3929016"><ele>1144.0</ele><time>2026-04-10T12:35:28.607Z</time></trkpt><trkpt lat="42.4161088" lon="13.3927738"><ele>1144.3333333333333</ele><time>2026-04-10T12:35:29.603Z</time></trkpt><trkpt lat="42.4162386" lon="13.3926578"><ele>1144.6666666666667</ele><time>2026-04-10T12:35:30.608Z</time></trkpt><trkpt lat="42.4163834" lon="13.3925522"><ele>1145.0</ele><time>2026-04-10T12:35:31.616Z</time></trkpt><trkpt lat="42.4165147" lon="13.3924723"><ele>1146.25</ele><time>2026-04-10T12:35:32.617Z</time></trkpt><trkpt lat="42.4166334" lon="13.3924181"><ele>1147.5</ele><time>2026-04-10T12:35:33.615Z</time></trkpt><trkpt lat="42.4167545" lon="13.3923878"><ele>1148.75</ele><time>2026-04-10T12:35:34.618Z</time></trkpt><trkpt lat="42.4169029" lon="13.3923643"><ele>1150.0</ele><time>2026-04-10T12:35:35.613Z</time></trkpt><trkpt lat="42.4170758" lon="13.3923297"><ele>1150.3333333333333</ele><time>2026-04-10T12:35:36.616Z</time></trkpt><trkpt lat="42.4172965" lon="13.3922911"><ele>1150.6666666666667</ele><time>2026-04-10T12:35:37.621Z</time></trkpt><trkpt lat="42.4174926" lon="13.3922568"><ele>1151.0</ele><time>2026-04-10T12:35:38.625Z</time></trkpt><trkpt lat="42.4176642" lon="13.392229"><ele>1151.0</ele><time>2026-04-10T12:35:39.633Z</time></trkpt><trkpt lat="42.4178155" lon="13.3922083"><ele>1151.0</ele><time>2026-04-10T12:35:40.626Z</time></trkpt><trkpt lat="42.4179542" lon="13.3921993"><ele>1151.0</ele><time>2026-04-10T12:35:41.627Z</time></trkpt><trkpt lat="42.418114" lon="13.3921825"><ele>1152.3333333333335</ele><time>2026-04-10T12:35:42.626Z</time></trkpt><trkpt lat="42.4182822" lon="13.3921967"><ele>1153.6666666666667</ele><time>2026-04-10T12:35:43.628Z</time></trkpt><trkpt lat="42.4184479" lon="13.3922408"><ele>1155.0</ele><time>2026-04-10T12:35:44.627Z</time></trkpt><trkpt lat="42.4186214" lon="13.3922846"><ele>1155.0</ele><time>2026-04-10T12:35:45.624Z</time></trkpt><trkpt lat="42.4188086" lon="13.392331"><ele>1155.0</ele><time>2026-04-10T12:35:46.622Z</time></trkpt><trkpt lat="42.4189478" lon="13.3923885"><ele>1155.0</ele><time>2026-04-10T12:35:47.622Z</time></trkpt><trkpt lat="42.4191075" lon="13.3924186"><ele>1156.75</ele><time>2026-04-10T12:35:48.62Z</time></trkpt><trkpt lat="42.4192467" lon="13.3924751"><ele>1158.5</ele><time>2026-04-10T12:35:49.623Z</time></trkpt><trkpt lat="42.4193515" lon="13.392503"><ele>1160.25</ele><time>2026-04-10T12:35:50.62Z</time></trkpt><trkpt lat="42.4194603" lon="13.3925597"><ele>1162.0</ele><time>2026-04-10T12:35:51.614Z</time></trkpt><trkpt lat="42.4195608" lon="13.3926092"><ele>1164.0</ele><time>2026-04-10T12:35:52.615Z</time></trkpt><trkpt lat="42.4196867" lon="13.3926415"><ele>1166.0</ele><time>2026-04-10T12:35:53.617Z</time></trkpt><trkpt lat="42.4198175" lon="13.3926763"><ele>1168.0</ele><time>2026-04-10T12:35:54.616Z</time></trkpt><trkpt lat="42.419922" lon="13.3926691"><ele>1170.0</ele><time>2026-04-10T12:35:55.612Z</time></trkpt><trkpt lat="42.4200331" lon="13.3926748"><ele>1170.0</ele><time>2026-04-10T12:35:56.615Z</time></trkpt><trkpt lat="42.4201262" lon="13.3926416"><ele>1170.0</ele><time>2026-04-10T12:35:57.614Z</time></trkpt><trkpt lat="42.4202214" lon="13.3925889"><ele>1170.0</ele><time>2026-04-10T12:35:58.612Z</time></trkpt><trkpt lat="42.4203167" lon="13.392513"><ele>1170.0</ele><time>2026-04-10T12:35:59.617Z</time></trkpt><trkpt lat="42.4203621" lon="13.3924029"><ele>1170.0</ele><time>2026-04-10T12:36:00.61Z</time></trkpt><trkpt lat="42.4203832" lon="13.3923067"><ele>1170.0</ele><time>2026-04-10T12:36:01.623Z</time></trkpt><trkpt lat="42.4203865" lon="13.3921974"><ele>1170.0</ele><time>2026-04-10T12:36:02.614Z</time></trkpt><trkpt lat="42.4203787" lon="13.3920922"><ele>1170.0</ele><time>2026-04-10T12:36:03.617Z</time></trkpt><trkpt lat="42.4203111" lon="13.392057"><ele>1170.0</ele><time>2026-04-10T12:36:40.647Z</time></trkpt><trkpt lat="42.4202475" lon="13.3920264"><ele>1170.0</ele><time>2026-04-10T12:41:35.649Z</time></trkpt><trkpt lat="42.4202609" lon="13.391833"><ele>1170.0</ele><time>2026-04-10T12:45:53.655Z</time></trkpt><trkpt lat="42.4202714" lon="13.3916964"><ele>1169.4</ele><time>2026-04-10T12:45:55.637Z</time></trkpt><trkpt lat="42.4202949" lon="13.3915794"><ele>1168.8</ele><time>2026-04-10T12:45:57.629Z</time></trkpt><trkpt lat="42.4203536" lon="13.3914811"><ele>1168.2</ele><time>2026-04-10T12:45:59.639Z</time></trkpt><trkpt lat="42.4203767" lon="13.3913523"><ele>1167.6</ele><time>2026-04-10T12:46:01.644Z</time></trkpt><trkpt lat="42.4203799" lon="13.3911875"><ele>1167.0</ele><time>2026-04-10T12:46:03.64Z</time></trkpt><trkpt lat="42.420378" lon="13.3910792"><ele>1166.6</ele><time>2026-04-10T12:46:04.645Z</time></trkpt><trkpt lat="42.4203686" lon="13.3909626"><ele>1166.2</ele><time>2026-04-10T12:46:05.632Z</time></trkpt><trkpt lat="42.4203482" lon="13.3908369"><ele>1165.8</ele><time>2026-04-10T12:46:06.634Z</time></trkpt><trkpt lat="42.4202977" lon="13.3906904"><ele>1165.4</ele><time>2026-04-10T12:46:07.635Z</time></trkpt><trkpt lat="42.4202407" lon="13.3905926"><ele>1165.0</ele><time>2026-04-10T12:46:08.643Z</time></trkpt><trkpt lat="42.42019" lon="13.3904754"><ele>1165.0</ele><time>2026-04-10T12:46:09.635Z</time></trkpt><trkpt lat="42.4201662" lon="13.3903484"><ele>1165.0</ele><time>2026-04-10T12:46:10.635Z</time></trkpt><trkpt lat="42.4201516" lon="13.3902016"><ele>1165.0</ele><time>2026-04-10T12:46:11.639Z</time></trkpt><trkpt lat="42.4201546" lon="13.3900522"><ele>1165.0</ele><time>2026-04-10T12:46:12.643Z</time></trkpt><trkpt lat="42.4201693" lon="13.3899008"><ele>1165.0</ele><time>2026-04-10T12:46:13.643Z</time></trkpt><trkpt lat="42.4201908" lon="13.3897492"><ele>1166.4</ele><time>2026-04-10T12:46:14.641Z</time></trkpt><trkpt lat="42.4202239" lon="13.3896008"><ele>1167.8</ele><time>2026-04-10T12:46:15.643Z</time></trkpt><trkpt lat="42.4202504" lon="13.3894549"><ele>1169.2</ele><time>2026-04-10T12:46:16.634Z</time></trkpt><trkpt lat="42.4202458" lon="13.3893189"><ele>1170.6</ele><time>2026-04-10T12:46:17.636Z</time></trkpt><trkpt lat="42.420201" lon="13.3891644"><ele>1172.0</ele><time>2026-04-10T12:46:18.626Z</time></trkpt><trkpt lat="42.4201217" lon="13.3890126"><ele>1172.0</ele><time>2026-04-10T12:46:19.631Z</time></trkpt><trkpt lat="42.4200308" lon="13.3888483"><ele>1172.0</ele><time>2026-04-10T12:46:20.636Z</time></trkpt><trkpt lat="42.4199394" lon="13.3886893"><ele>1172.0</ele><time>2026-04-10T12:46:21.638Z</time></trkpt><trkpt lat="42.4198543" lon="13.388514"><ele>1173.25</ele><time>2026-04-10T12:46:22.643Z</time></trkpt><trkpt lat="42.4197894" lon="13.3883584"><ele>1174.5</ele><time>2026-04-10T12:46:23.636Z</time></trkpt><trkpt lat="42.4197294" lon="13.388231"><ele>1175.75</ele><time>2026-04-10T12:46:24.638Z</time></trkpt><trkpt lat="42.4196858" lon="13.3880814"><ele>1177.0</ele><time>2026-04-10T12:46:25.64Z</time></trkpt><trkpt lat="42.4195964" lon="13.3879492"><ele>1177.0</ele><time>2026-04-10T12:46:26.627Z</time></trkpt><trkpt lat="42.4195107" lon="13.3878534"><ele>1177.0</ele><time>2026-04-10T12:46:27.635Z</time></trkpt><trkpt lat="42.419419" lon="13.3877877"><ele>1177.0</ele><time>2026-04-10T12:46:28.639Z</time></trkpt><trkpt lat="42.419317" lon="13.3877008"><ele>1177.0</ele><time>2026-04-10T12:46:29.634Z</time></trkpt><trkpt lat="42.4192232" lon="13.3876609"><ele>1177.0</ele><time>2026-04-10T12:46:30.636Z</time></trkpt><trkpt lat="42.419141" lon="13.3876576"><ele>1177.0</ele><time>2026-04-10T12:46:31.64Z</time></trkpt><trkpt lat="42.4190668" lon="13.3876309"><ele>1177.0</ele><time>2026-04-10T12:46:32.633Z</time></trkpt><trkpt lat="42.4189957" lon="13.3875677"><ele>1177.0</ele><time>2026-04-10T12:46:33.63Z</time></trkpt><trkpt lat="42.4189442" lon="13.3874856"><ele>1177.0</ele><time>2026-04-10T12:46:34.634Z</time></trkpt><trkpt lat="42.4189268" lon="13.3873656"><ele>1177.0</ele><time>2026-04-10T12:46:35.638Z</time></trkpt><trkpt lat="42.4189502" lon="13.3871999"><ele>1177.5</ele><time>2026-04-10T12:46:36.626Z</time></trkpt><trkpt lat="42.4189878" lon="13.3870371"><ele>1178.0</ele><time>2026-04-10T12:46:37.637Z</time></trkpt><trkpt lat="42.4190424" lon="13.3868814"><ele>1178.5</ele><time>2026-04-10T12:46:38.629Z</time></trkpt><trkpt lat="42.4190897" lon="13.3867417"><ele>1179.0</ele><time>2026-04-10T12:46:39.628Z</time></trkpt><trkpt lat="42.4191384" lon="13.3866074"><ele>1179.0</ele><time>2026-04-10T12:46:40.629Z</time></trkpt><trkpt lat="42.4191987" lon="13.3864851"><ele>1179.0</ele><time>2026-04-10T12:46:41.626Z</time></trkpt><trkpt lat="42.4192715" lon="13.3863682"><ele>1179.0</ele><time>2026-04-10T12:46:42.624Z</time></trkpt><trkpt lat="42.4193679" lon="13.3862679"><ele>1179.0</ele><time>2026-04-10T12:46:43.629Z</time></trkpt><trkpt lat="42.4194736" lon="13.3861507"><ele>1179.5</ele><time>2026-04-10T12:46:44.627Z</time></trkpt><trkpt lat="42.419559" lon="13.386026"><ele>1180.0</ele><time>2026-04-10T12:46:45.626Z</time></trkpt><trkpt lat="42.4196299" lon="13.3858965"><ele>1180.5</ele><time>2026-04-10T12:46:46.63Z</time></trkpt><trkpt lat="42.4196948" lon="13.3857625"><ele>1181.0</ele><time>2026-04-10T12:46:47.628Z</time></trkpt><trkpt lat="42.4197336" lon="13.3856253"><ele>1179.3999999999999</ele><time>2026-04-10T12:46:48.63Z</time></trkpt><trkpt lat="42.4197612" lon="13.3854829"><ele>1177.8</ele><time>2026-04-10T12:46:49.626Z</time></trkpt><trkpt lat="42.4197704" lon="13.3853493"><ele>1176.1999999999998</ele><time>2026-04-10T12:46:50.629Z</time></trkpt><trkpt lat="42.4197525" lon="13.3852025"><ele>1174.6</ele><time>2026-04-10T12:46:51.625Z</time></trkpt><trkpt lat="42.4197096" lon="13.3850882"><ele>1173.0</ele><time>2026-04-10T12:46:52.628Z</time></trkpt><trkpt lat="42.4196635" lon="13.384978"><ele>1171.2</ele><time>2026-04-10T12:46:53.628Z</time></trkpt><trkpt lat="42.41963" lon="13.3848491"><ele>1169.4</ele><time>2026-04-10T12:46:54.631Z</time></trkpt><trkpt lat="42.419612" lon="13.3846986"><ele>1167.6000000000001</ele><time>2026-04-10T12:46:55.633Z</time></trkpt><trkpt lat="42.4196151" lon="13.3845498"><ele>1165.8</ele><time>2026-04-10T12:46:56.635Z</time></trkpt><trkpt lat="42.419612" lon="13.3844094"><ele>1164.0</ele><time>2026-04-10T12:46:57.635Z</time></trkpt><trkpt lat="42.4196079" lon="13.3842888"><ele>1162.2</ele><time>2026-04-10T12:46:58.633Z</time></trkpt><trkpt lat="42.4196077" lon="13.3841964"><ele>1160.4</ele><time>2026-04-10T12:46:59.636Z</time></trkpt><trkpt lat="42.4196136" lon="13.3841066"><ele>1158.6</ele><time>2026-04-10T12:47:00.644Z</time></trkpt><trkpt lat="42.4196468" lon="13.3839027"><ele>1156.8</ele><time>2026-04-10T12:47:02.642Z</time></trkpt><trkpt lat="42.4196591" lon="13.3837759"><ele>1155.0</ele><time>2026-04-10T12:47:03.64Z</time></trkpt><trkpt lat="42.4196756" lon="13.3836287"><ele>1155.0</ele><time>2026-04-10T12:47:04.637Z</time></trkpt><trkpt lat="42.4196996" lon="13.3834842"><ele>1155.0</ele><time>2026-04-10T12:47:05.64Z</time></trkpt><trkpt lat="42.4197387" lon="13.3833523"><ele>1155.0</ele><time>2026-04-10T12:47:06.636Z</time></trkpt><trkpt lat="42.4198009" lon="13.3832175"><ele>1155.0</ele><time>2026-04-10T12:47:07.639Z</time></trkpt><trkpt lat="42.4198757" lon="13.3830599"><ele>1151.75</ele><time>2026-04-10T12:47:08.639Z</time></trkpt><trkpt lat="42.4199441" lon="13.3828958"><ele>1148.5</ele><time>2026-04-10T12:47:09.641Z</time></trkpt><trkpt lat="42.4200067" lon="13.3827301"><ele>1145.25</ele><time>2026-04-10T12:47:10.641Z</time></trkpt><trkpt lat="42.4200604" lon="13.3825658"><ele>1142.0</ele><time>2026-04-10T12:47:11.64Z</time></trkpt><trkpt lat="42.4201175" lon="13.3824076"><ele>1142.0</ele><time>2026-04-10T12:47:12.643Z</time></trkpt><trkpt lat="42.4201644" lon="13.382234"><ele>1142.0</ele><time>2026-04-10T12:47:13.641Z</time></trkpt><trkpt lat="42.420218" lon="13.3820881"><ele>1142.0</ele><time>2026-04-10T12:47:14.641Z</time></trkpt><trkpt lat="42.4203017" lon="13.3819547"><ele>1142.0</ele><time>2026-04-10T12:47:15.637Z</time></trkpt><trkpt lat="42.4203891" lon="13.3818318"><ele>1140.75</ele><time>2026-04-10T12:47:16.639Z</time></trkpt><trkpt lat="42.4204799" lon="13.3817022"><ele>1139.5</ele><time>2026-04-10T12:47:17.641Z</time></trkpt><trkpt lat="42.420538" lon="13.3815485"><ele>1138.25</ele><time>2026-04-10T12:47:18.637Z</time></trkpt><trkpt lat="42.4206039" lon="13.3814048"><ele>1137.0</ele><time>2026-04-10T12:47:19.631Z</time></trkpt><trkpt lat="42.4206573" lon="13.3812245"><ele>1137.0</ele><time>2026-04-10T12:47:20.636Z</time></trkpt><trkpt lat="42.4207067" lon="13.381051"><ele>1137.0</ele><time>2026-04-10T12:47:21.638Z</time></trkpt><trkpt lat="42.4207403" lon="13.3808764"><ele>1137.0</ele><time>2026-04-10T12:47:22.642Z</time></trkpt><trkpt lat="42.4207907" lon="13.3806926"><ele>1137.0</ele><time>2026-04-10T12:47:23.636Z</time></trkpt><trkpt lat="42.4208325" lon="13.3805413"><ele>1133.25</ele><time>2026-04-10T12:47:24.642Z</time></trkpt><trkpt lat="42.4208866" lon="13.3804137"><ele>1129.5</ele><time>2026-04-10T12:47:25.634Z</time></trkpt><trkpt lat="42.4209622" lon="13.3802888"><ele>1125.75</ele><time>2026-04-10T12:47:26.635Z</time></trkpt><trkpt lat="42.4210323" lon="13.3801566"><ele>1122.0</ele><time>2026-04-10T12:47:27.635Z</time></trkpt><trkpt lat="42.4211049" lon="13.3800239"><ele>1122.0</ele><time>2026-04-10T12:47:28.637Z</time></trkpt><trkpt lat="42.4211794" lon="13.3799056"><ele>1122.0</ele><time>2026-04-10T12:47:29.634Z</time></trkpt><trkpt lat="42.4212631" lon="13.3798184"><ele>1122.0</ele><time>2026-04-10T12:47:30.633Z</time></trkpt><trkpt lat="42.4213496" lon="13.3797613"><ele>1122.0</ele><time>2026-04-10T12:47:31.643Z</time></trkpt><trkpt lat="42.4214235" lon="13.3797313"><ele>1122.0</ele><time>2026-04-10T12:47:32.631Z</time></trkpt><trkpt lat="42.421516" lon="13.3796794"><ele>1122.0</ele><time>2026-04-10T12:47:34.625Z</time></trkpt><trkpt lat="42.4214861" lon="13.3795649"><ele>1122.0</ele><time>2026-04-10T12:47:37.638Z</time></trkpt><trkpt lat="42.4213589" lon="13.3795458"><ele>1122.0</ele><time>2026-04-10T12:47:39.65Z</time></trkpt><trkpt lat="42.4212857" lon="13.3795752"><ele>1122.0</ele><time>2026-04-10T12:47:40.634Z</time></trkpt><trkpt lat="42.421194" lon="13.3796259"><ele>1122.0</ele><time>2026-04-10T12:47:41.631Z</time></trkpt><trkpt lat="42.4210943" lon="13.3797001"><ele>1122.0</ele><time>2026-04-10T12:47:42.634Z</time></trkpt><trkpt lat="42.4209858" lon="13.3797763"><ele>1122.0</ele><time>2026-04-10T12:47:43.634Z</time></trkpt><trkpt lat="42.4208773" lon="13.379859"><ele>1122.0</ele><time>2026-04-10T12:47:44.635Z</time></trkpt><trkpt lat="42.4207777" lon="13.3799327"><ele>1122.0</ele><time>2026-04-10T12:47:45.638Z</time></trkpt><trkpt lat="42.4206846" lon="13.3800129"><ele>1122.0</ele><time>2026-04-10T12:47:46.639Z</time></trkpt><trkpt lat="42.4206001" lon="13.3801022"><ele>1122.0</ele><time>2026-04-10T12:47:47.637Z</time></trkpt><trkpt lat="42.420533" lon="13.380187"><ele>1122.0</ele><time>2026-04-10T12:47:48.634Z</time></trkpt><trkpt lat="42.4204839" lon="13.3802737"><ele>1122.0</ele><time>2026-04-10T12:47:49.628Z</time></trkpt><trkpt lat="42.4204422" lon="13.3803399"><ele>1122.0</ele><time>2026-04-10T12:47:50.637Z</time></trkpt><trkpt lat="42.420375" lon="13.3804374"><ele>1122.0</ele><time>2026-04-10T12:47:52.633Z</time></trkpt><trkpt lat="42.4203118" lon="13.3804065"><ele>1122.0</ele><time>2026-04-10T12:47:54.635Z</time></trkpt><trkpt lat="42.4203208" lon="13.3802469"><ele>1122.0</ele><time>2026-04-10T12:47:56.637Z</time></trkpt><trkpt lat="42.4203635" lon="13.3801407"><ele>1122.0</ele><time>2026-04-10T12:47:57.629Z</time></trkpt><trkpt lat="42.4204323" lon="13.3800133"><ele>1122.0</ele><time>2026-04-10T12:47:58.632Z</time></trkpt><trkpt lat="42.4205017" lon="13.3798875"><ele>1122.0</ele><time>2026-04-10T12:47:59.629Z</time></trkpt><trkpt lat="42.4205451" lon="13.3797741"><ele>1117.8</ele><time>2026-04-10T12:48:00.627Z</time></trkpt><trkpt lat="42.4205945" lon="13.3796449"><ele>1113.6</ele><time>2026-04-10T12:48:01.636Z</time></trkpt><trkpt lat="42.4206406" lon="13.3795125"><ele>1109.3999999999999</ele><time>2026-04-10T12:48:02.627Z</time></trkpt><trkpt lat="42.4206877" lon="13.3793679"><ele>1105.2</ele><time>2026-04-10T12:48:03.627Z</time></trkpt><trkpt lat="42.4207389" lon="13.3792411"><ele>1101.0</ele><time>2026-04-10T12:48:04.626Z</time></trkpt><trkpt lat="42.4207919" lon="13.3791266"><ele>1101.0</ele><time>2026-04-10T12:48:05.632Z</time></trkpt><trkpt lat="42.420855" lon="13.3790129"><ele>1101.0</ele><time>2026-04-10T12:48:06.63Z</time></trkpt><trkpt lat="42.4209195" lon="13.3789071"><ele>1101.0</ele><time>2026-04-10T12:48:07.634Z</time></trkpt><trkpt lat="42.420984" lon="13.3788152"><ele>1101.0</ele><time>2026-04-10T12:48:08.634Z</time></trkpt><trkpt lat="42.421047" lon="13.3787425"><ele>1101.0</ele><time>2026-04-10T12:48:09.631Z</time></trkpt><trkpt lat="42.421114" lon="13.3786853"><ele>1098.1666666666667</ele><time>2026-04-10T12:48:10.626Z</time></trkpt><trkpt lat="42.4212123" lon="13.3786319"><ele>1095.3333333333333</ele><time>2026-04-10T12:48:12.627Z</time></trkpt><trkpt lat="42.4211948" lon="13.3785487"><ele>1092.5</ele><time>2026-04-10T12:48:15.626Z</time></trkpt><trkpt lat="42.4211256" lon="13.3785378"><ele>1089.6666666666665</ele><time>2026-04-10T12:48:17.634Z</time></trkpt><trkpt lat="42.4210447" lon="13.3785591"><ele>1086.8333333333333</ele><time>2026-04-10T12:48:18.626Z</time></trkpt><trkpt lat="42.4209495" lon="13.3786086"><ele>1084.0</ele><time>2026-04-10T12:48:19.627Z</time></trkpt><trkpt lat="42.4208358" lon="13.3786915"><ele>1084.0</ele><time>2026-04-10T12:48:20.621Z</time></trkpt><trkpt lat="42.4207228" lon="13.378789"><ele>1084.0</ele><time>2026-04-10T12:48:21.621Z</time></trkpt><trkpt lat="42.420621" lon="13.3789042"><ele>1084.0</ele><time>2026-04-10T12:48:22.627Z</time></trkpt><trkpt lat="42.4205209" lon="13.3790159"><ele>1084.0</ele><time>2026-04-10T12:48:23.622Z</time></trkpt><trkpt lat="42.4204264" lon="13.3791198"><ele>1081.4</ele><time>2026-04-10T12:48:24.623Z</time></trkpt><trkpt lat="42.4203472" lon="13.379223"><ele>1078.8000000000002</ele><time>2026-04-10T12:48:25.626Z</time></trkpt><trkpt lat="42.4202807" lon="13.3793173"><ele>1076.1999999999998</ele><time>2026-04-10T12:48:26.621Z</time></trkpt><trkpt lat="42.4202137" lon="13.3794085"><ele>1073.6</ele><time>2026-04-10T12:48:27.622Z</time></trkpt><trkpt lat="42.4201428" lon="13.3794985"><ele>1071.0</ele><time>2026-04-10T12:48:28.623Z</time></trkpt><trkpt lat="42.4200886" lon="13.3795963"><ele>1071.0</ele><time>2026-04-10T12:48:29.622Z</time></trkpt><trkpt lat="42.4200487" lon="13.3796939"><ele>1071.0</ele><time>2026-04-10T12:48:30.622Z</time></trkpt><trkpt lat="42.420014" lon="13.379788"><ele>1071.0</ele><time>2026-04-10T12:48:31.62Z</time></trkpt><trkpt lat="42.4199408" lon="13.3798872"><ele>1071.0</ele><time>2026-04-10T12:48:33.615Z</time></trkpt><trkpt lat="42.4198747" lon="13.3798228"><ele>1071.0</ele><time>2026-04-10T12:48:35.626Z</time></trkpt><trkpt lat="42.4198738" lon="13.3796528"><ele>1071.0</ele><time>2026-04-10T12:48:37.624Z</time></trkpt><trkpt lat="42.419919" lon="13.3795579"><ele>1071.0</ele><time>2026-04-10T12:48:38.617Z</time></trkpt><trkpt lat="42.4199713" lon="13.3794566"><ele>1071.0</ele><time>2026-04-10T12:48:39.617Z</time></trkpt><trkpt lat="42.4200061" lon="13.3793563"><ele>1071.0</ele><time>2026-04-10T12:48:40.623Z</time></trkpt><trkpt lat="42.4200292" lon="13.379257"><ele>1071.0</ele><time>2026-04-10T12:48:41.618Z</time></trkpt><trkpt lat="42.4200487" lon="13.379164"><ele>1071.0</ele><time>2026-04-10T12:48:42.624Z</time></trkpt><trkpt lat="42.4200497" lon="13.3790706"><ele>1071.0</ele><time>2026-04-10T12:48:43.623Z</time></trkpt><trkpt lat="42.4200467" lon="13.3789543"><ele>1071.0</ele><time>2026-04-10T12:48:44.625Z</time></trkpt><trkpt lat="42.4200424" lon="13.3788286"><ele>1071.0</ele><time>2026-04-10T12:48:45.623Z</time></trkpt><trkpt lat="42.420033" lon="13.3786856"><ele>1071.0</ele><time>2026-04-10T12:48:46.624Z</time></trkpt><trkpt lat="42.4200312" lon="13.378551"><ele>1071.0</ele><time>2026-04-10T12:48:47.625Z</time></trkpt><trkpt lat="42.4200289" lon="13.3784107"><ele>1068.6</ele><time>2026-04-10T12:48:48.624Z</time></trkpt><trkpt lat="42.4200284" lon="13.3782666"><ele>1066.1999999999998</ele><time>2026-04-10T12:48:49.626Z</time></trkpt><trkpt lat="42.4200387" lon="13.3781205"><ele>1063.8000000000002</ele><time>2026-04-10T12:48:50.627Z</time></trkpt><trkpt lat="42.420069" lon="13.3779845"><ele>1061.4</ele><time>2026-04-10T12:48:51.625Z</time></trkpt><trkpt lat="42.4200982" lon="13.3778534"><ele>1059.0</ele><time>2026-04-10T12:48:52.632Z</time></trkpt><trkpt lat="42.4201421" lon="13.3777362"><ele>1055.6000000000001</ele><time>2026-04-10T12:48:53.619Z</time></trkpt><trkpt lat="42.4202009" lon="13.3775996"><ele>1052.2</ele><time>2026-04-10T12:48:54.625Z</time></trkpt><trkpt lat="42.4202702" lon="13.3774662"><ele>1048.8000000000002</ele><time>2026-04-10T12:48:55.622Z</time></trkpt><trkpt lat="42.4203365" lon="13.3773457"><ele>1045.4</ele><time>2026-04-10T12:48:56.623Z</time></trkpt><trkpt lat="42.4203984" lon="13.377238"><ele>1042.0</ele><time>2026-04-10T12:48:57.62Z</time></trkpt><trkpt lat="42.4204634" lon="13.3771414"><ele>1040.2</ele><time>2026-04-10T12:48:58.619Z</time></trkpt><trkpt lat="42.4205489" lon="13.377077"><ele>1038.4</ele><time>2026-04-10T12:48:59.621Z</time></trkpt><trkpt lat="42.4206536" lon="13.3770347"><ele>1036.6</ele><time>2026-04-10T12:49:00.623Z</time></trkpt><trkpt lat="42.4207636" lon="13.3769923"><ele>1034.8</ele><time>2026-04-10T12:49:01.628Z</time></trkpt><trkpt lat="42.4208672" lon="13.3769713"><ele>1033.0</ele><time>2026-04-10T12:49:02.621Z</time></trkpt><trkpt lat="42.4209602" lon="13.3769735"><ele>1033.0</ele><time>2026-04-10T12:49:03.623Z</time></trkpt><trkpt lat="42.4210407" lon="13.3769763"><ele>1033.0</ele><time>2026-04-10T12:49:04.62Z</time></trkpt><trkpt lat="42.421134" lon="13.3769536"><ele>1033.0</ele><time>2026-04-10T12:49:06.622Z</time></trkpt><trkpt lat="42.4211385" lon="13.3768513"><ele>1033.0</ele><time>2026-04-10T12:49:08.625Z</time></trkpt><trkpt lat="42.4210579" lon="13.3767749"><ele>1033.0</ele><time>2026-04-10T12:49:10.62Z</time></trkpt><trkpt lat="42.420909" lon="13.3767618"><ele>1033.0</ele><time>2026-04-10T12:49:12.618Z</time></trkpt><trkpt lat="42.4208006" lon="13.3767871"><ele>1033.0</ele><time>2026-04-10T12:49:13.614Z</time></trkpt><trkpt lat="42.4206779" lon="13.3768083"><ele>1033.0</ele><time>2026-04-10T12:49:14.621Z</time></trkpt><trkpt lat="42.4205355" lon="13.3768643"><ele>1033.0</ele><time>2026-04-10T12:49:15.637Z</time></trkpt><trkpt lat="42.4204013" lon="13.3769002"><ele>1029.5</ele><time>2026-04-10T12:49:16.633Z</time></trkpt><trkpt lat="42.4202835" lon="13.3769309"><ele>1026.0</ele><time>2026-04-10T12:49:17.634Z</time></trkpt><trkpt lat="42.4201735" lon="13.3769624"><ele>1022.5</ele><time>2026-04-10T12:49:18.63Z</time></trkpt><trkpt lat="42.4200724" lon="13.3770158"><ele>1019.0</ele><time>2026-04-10T12:49:19.628Z</time></trkpt><trkpt lat="42.4199754" lon="13.3771039"><ele>1015.5</ele><time>2026-04-10T12:49:20.626Z</time></trkpt><trkpt lat="42.4198748" lon="13.3772408"><ele>1012.0</ele><time>2026-04-10T12:49:21.622Z</time></trkpt><trkpt lat="42.4197729" lon="13.3773687"><ele>1008.5</ele><time>2026-04-10T12:49:22.63Z</time></trkpt><trkpt lat="42.4196696" lon="13.3775087"><ele>1005.0</ele><time>2026-04-10T12:49:23.626Z</time></trkpt><trkpt lat="42.4195976" lon="13.3776454"><ele>1005.0</ele><time>2026-04-10T12:49:24.623Z</time></trkpt><trkpt lat="42.4195484" lon="13.3777579"><ele>1005.0</ele><time>2026-04-10T12:49:25.62Z</time></trkpt><trkpt lat="42.4195266" lon="13.3778728"><ele>1005.0</ele><time>2026-04-10T12:49:26.627Z</time></trkpt><trkpt lat="42.4194745" lon="13.3779738"><ele>1005.0</ele><time>2026-04-10T12:49:29.629Z</time></trkpt><trkpt lat="42.4193945" lon="13.3779044"><ele>1005.0</ele><time>2026-04-10T12:49:32.634Z</time></trkpt><trkpt lat="42.4194091" lon="13.3777743"><ele>1005.0</ele><time>2026-04-10T12:49:34.645Z</time></trkpt><trkpt lat="42.4194481" lon="13.3776607"><ele>1005.0</ele><time>2026-04-10T12:49:35.627Z</time></trkpt><trkpt lat="42.4194916" lon="13.3775146"><ele>1005.0</ele><time>2026-04-10T12:49:36.628Z</time></trkpt><trkpt lat="42.4195393" lon="13.3773405"><ele>1005.0</ele><time>2026-04-10T12:49:37.634Z</time></trkpt><trkpt lat="42.4195899" lon="13.3771763"><ele>1008.5</ele><time>2026-04-10T12:49:38.634Z</time></trkpt><trkpt lat="42.4196429" lon="13.3770125"><ele>1012.0</ele><time>2026-04-10T12:49:39.635Z</time></trkpt><trkpt lat="42.4196963" lon="13.3768635"><ele>1015.5</ele><time>2026-04-10T12:49:40.633Z</time></trkpt><trkpt lat="42.4197584" lon="13.376706"><ele>1019.0</ele><time>2026-04-10T12:49:41.637Z</time></trkpt><trkpt lat="42.4198297" lon="13.3765854"><ele>1019.0</ele><time>2026-04-10T12:49:42.635Z</time></trkpt><trkpt lat="42.4198996" lon="13.3764764"><ele>1019.0</ele><time>2026-04-10T12:49:43.639Z</time></trkpt><trkpt lat="42.4199814" lon="13.3763644"><ele>1019.0</ele><time>2026-04-10T12:49:44.635Z</time></trkpt><trkpt lat="42.420075" lon="13.3762746"><ele>1019.0</ele><time>2026-04-10T12:49:45.637Z</time></trkpt><trkpt lat="42.4201736" lon="13.3761981"><ele>1016.6</ele><time>2026-04-10T12:49:46.636Z</time></trkpt><trkpt lat="42.4202665" lon="13.3761304"><ele>1014.2</ele><time>2026-04-10T12:49:47.636Z</time></trkpt><trkpt lat="42.4203465" lon="13.3760549"><ele>1011.8000000000001</ele><time>2026-04-10T12:49:48.637Z</time></trkpt><trkpt lat="42.4204153" lon="13.3759674"><ele>1009.4000000000001</ele><time>2026-04-10T12:49:49.638Z</time></trkpt><trkpt lat="42.4204793" lon="13.3758677"><ele>1007.0</ele><time>2026-04-10T12:49:50.637Z</time></trkpt><trkpt lat="42.4205472" lon="13.3757632"><ele>1007.0</ele><time>2026-04-10T12:49:51.636Z</time></trkpt><trkpt lat="42.4206254" lon="13.3756608"><ele>1007.0</ele><time>2026-04-10T12:49:52.638Z</time></trkpt><trkpt lat="42.42071" lon="13.3755773"><ele>1007.0</ele><time>2026-04-10T12:49:53.633Z</time></trkpt><trkpt lat="42.4207997" lon="13.3755221"><ele>1007.0</ele><time>2026-04-10T12:49:54.634Z</time></trkpt><trkpt lat="42.4208957" lon="13.3754897"><ele>1007.0</ele><time>2026-04-10T12:49:55.64Z</time></trkpt><trkpt lat="42.4209851" lon="13.3754793"><ele>1002.1666666666667</ele><time>2026-04-10T12:49:56.63Z</time></trkpt><trkpt lat="42.4210634" lon="13.3755014"><ele>997.3333333333334</ele><time>2026-04-10T12:49:57.63Z</time></trkpt><trkpt lat="42.4211282" lon="13.3755021"><ele>992.5</ele><time>2026-04-10T12:49:58.627Z</time></trkpt><trkpt lat="42.4210957" lon="13.3753893"><ele>987.6666666666667</ele><time>2026-04-10T12:50:02.638Z</time></trkpt><trkpt lat="42.4209599" lon="13.3753223"><ele>982.8333333333334</ele><time>2026-04-10T12:50:04.635Z</time></trkpt><trkpt lat="42.42089" lon="13.3753137"><ele>978.0</ele><time>2026-04-10T12:50:05.635Z</time></trkpt><trkpt lat="42.4207876" lon="13.3753342"><ele>978.0</ele><time>2026-04-10T12:50:06.627Z</time></trkpt><trkpt lat="42.4206712" lon="13.3753688"><ele>978.0</ele><time>2026-04-10T12:50:07.628Z</time></trkpt><trkpt lat="42.4205481" lon="13.375401"><ele>978.0</ele><time>2026-04-10T12:50:08.629Z</time></trkpt><trkpt lat="42.4204407" lon="13.3754596"><ele>978.0</ele><time>2026-04-10T12:50:09.632Z</time></trkpt><trkpt lat="42.4203353" lon="13.3755326"><ele>981.0</ele><time>2026-04-10T12:50:10.632Z</time></trkpt><trkpt lat="42.4202347" lon="13.3756076"><ele>984.0</ele><time>2026-04-10T12:50:11.629Z</time></trkpt><trkpt lat="42.4201362" lon="13.3756819"><ele>987.0</ele><time>2026-04-10T12:50:12.626Z</time></trkpt><trkpt lat="42.4200486" lon="13.3757412"><ele>990.0</ele><time>2026-04-10T12:50:13.628Z</time></trkpt><trkpt lat="42.4199638" lon="13.3757606"><ele>993.0</ele><time>2026-04-10T12:50:14.627Z</time></trkpt><trkpt lat="42.419876" lon="13.3757877"><ele>993.0</ele><time>2026-04-10T12:50:15.628Z</time></trkpt><trkpt lat="42.4197852" lon="13.3757964"><ele>993.0</ele><time>2026-04-10T12:50:16.628Z</time></trkpt><trkpt lat="42.4196893" lon="13.3758152"><ele>993.0</ele><time>2026-04-10T12:50:17.634Z</time></trkpt><trkpt lat="42.4195979" lon="13.3758481"><ele>993.0</ele><time>2026-04-10T12:50:18.63Z</time></trkpt><trkpt lat="42.4195094" lon="13.3758905"><ele>993.0</ele><time>2026-04-10T12:50:19.635Z</time></trkpt><trkpt lat="42.4194319" lon="13.3759436"><ele>987.5999999999999</ele><time>2026-04-10T12:50:20.633Z</time></trkpt><trkpt lat="42.4193698" lon="13.376019"><ele>982.1999999999999</ele><time>2026-04-10T12:50:21.629Z</time></trkpt><trkpt lat="42.4193245" lon="13.3760919"><ele>976.8</ele><time>2026-04-10T12:50:22.624Z</time></trkpt><trkpt lat="42.4192549" lon="13.3761691"><ele>971.4</ele><time>2026-04-10T12:50:24.618Z</time></trkpt><trkpt lat="42.4192319" lon="13.3760385"><ele>966.0</ele><time>2026-04-10T12:50:27.639Z</time></trkpt><trkpt lat="42.4193033" lon="13.375889"><ele>966.0</ele><time>2026-04-10T12:50:29.64Z</time></trkpt><trkpt lat="42.4193699" lon="13.3757857"><ele>966.0</ele><time>2026-04-10T12:50:30.633Z</time></trkpt><trkpt lat="42.4194626" lon="13.3756671"><ele>966.0</ele><time>2026-04-10T12:50:31.639Z</time></trkpt><trkpt lat="42.419561" lon="13.3755647"><ele>966.0</ele><time>2026-04-10T12:50:32.627Z</time></trkpt><trkpt lat="42.4196543" lon="13.3754701"><ele>964.8</ele><time>2026-04-10T12:50:33.626Z</time></trkpt><trkpt lat="42.4197509" lon="13.3754029"><ele>963.5999999999999</ele><time>2026-04-10T12:50:34.629Z</time></trkpt><trkpt lat="42.4198376" lon="13.3753493"><ele>962.4</ele><time>2026-04-10T12:50:35.632Z</time></trkpt><trkpt lat="42.4199191" lon="13.3753109"><ele>961.2</ele><time>2026-04-10T12:50:36.631Z</time></trkpt><trkpt lat="42.4199971" lon="13.3752536"><ele>960.0</ele><time>2026-04-10T12:50:37.626Z</time></trkpt><trkpt lat="42.420059" lon="13.375186"><ele>960.0</ele><time>2026-04-10T12:50:38.629Z</time></trkpt><trkpt lat="42.4201126" lon="13.3750978"><ele>960.0</ele><time>2026-04-10T12:50:39.631Z</time></trkpt><trkpt lat="42.4201587" lon="13.3750045"><ele>960.0</ele><time>2026-04-10T12:50:40.631Z</time></trkpt><trkpt lat="42.4202181" lon="13.3748834"><ele>960.0</ele><time>2026-04-10T12:50:41.63Z</time></trkpt><trkpt lat="42.42028" lon="13.3747743"><ele>960.0</ele><time>2026-04-10T12:50:42.633Z</time></trkpt><trkpt lat="42.4203627" lon="13.3746725"><ele>958.0</ele><time>2026-04-10T12:50:43.627Z</time></trkpt><trkpt lat="42.420452" lon="13.3745939"><ele>956.0</ele><time>2026-04-10T12:50:44.636Z</time></trkpt><trkpt lat="42.4205372" lon="13.3745233"><ele>954.0</ele><time>2026-04-10T12:50:45.636Z</time></trkpt><trkpt lat="42.4206198" lon="13.3744501"><ele>952.0</ele><time>2026-04-10T12:50:46.637Z</time></trkpt><trkpt lat="42.4207064" lon="13.3743919"><ele>950.0</ele><time>2026-04-10T12:50:47.633Z</time></trkpt><trkpt lat="42.420786" lon="13.3743587"><ele>950.0</ele><time>2026-04-10T12:50:48.629Z</time></trkpt><trkpt lat="42.4208571" lon="13.3743491"><ele>950.0</ele><time>2026-04-10T12:50:49.63Z</time></trkpt><trkpt lat="42.4209276" lon="13.3743439"><ele>950.0</ele><time>2026-04-10T12:50:50.635Z</time></trkpt><trkpt lat="42.421019" lon="13.3743021"><ele>950.0</ele><time>2026-04-10T12:50:52.628Z</time></trkpt><trkpt lat="42.421013" lon="13.3741751"><ele>950.0</ele><time>2026-04-10T12:50:55.64Z</time></trkpt><trkpt lat="42.4208816" lon="13.374115"><ele>950.0</ele><time>2026-04-10T12:50:57.639Z</time></trkpt><trkpt lat="42.4207968" lon="13.3741024"><ele>950.0</ele><time>2026-04-10T12:50:58.629Z</time></trkpt><trkpt lat="42.4206881" lon="13.3741016"><ele>950.0</ele><time>2026-04-10T12:50:59.629Z</time></trkpt><trkpt lat="42.4205628" lon="13.3741297"><ele>950.0</ele><time>2026-04-10T12:51:00.632Z</time></trkpt><trkpt lat="42.4204108" lon="13.3741916"><ele>945.0</ele><time>2026-04-10T12:51:01.637Z</time></trkpt><trkpt lat="42.4202672" lon="13.3742536"><ele>940.0</ele><time>2026-04-10T12:51:02.628Z</time></trkpt><trkpt lat="42.4201449" lon="13.3743114"><ele>935.0</ele><time>2026-04-10T12:51:03.627Z</time></trkpt><trkpt lat="42.4200263" lon="13.3743701"><ele>930.0</ele><time>2026-04-10T12:51:04.63Z</time></trkpt><trkpt lat="42.4199315" lon="13.3744355"><ele>930.0</ele><time>2026-04-10T12:51:05.624Z</time></trkpt><trkpt lat="42.4198505" lon="13.3745066"><ele>930.0</ele><time>2026-04-10T12:51:06.617Z</time></trkpt><trkpt lat="42.4197826" lon="13.374584"><ele>930.0</ele><time>2026-04-10T12:51:07.62Z</time></trkpt><trkpt lat="42.4197256" lon="13.3746463"><ele>930.0</ele><time>2026-04-10T12:51:08.629Z</time></trkpt><trkpt lat="42.4196665" lon="13.3746996"><ele>930.0</ele><time>2026-04-10T12:51:09.622Z</time></trkpt><trkpt lat="42.4196044" lon="13.3747411"><ele>930.0</ele><time>2026-04-10T12:51:10.627Z</time></trkpt><trkpt lat="42.4194952" lon="13.3747771"><ele>930.6</ele><time>2026-04-10T12:51:12.623Z</time></trkpt><trkpt lat="42.4194091" lon="13.3748527"><ele>931.2</ele><time>2026-04-10T12:51:14.617Z</time></trkpt><trkpt lat="42.419349" lon="13.3747684"><ele>931.8</ele><time>2026-04-10T12:51:17.634Z</time></trkpt><trkpt lat="42.4193994" lon="13.374649"><ele>932.4</ele><time>2026-04-10T12:51:19.634Z</time></trkpt><trkpt lat="42.4194586" lon="13.3745815"><ele>933.0</ele><time>2026-04-10T12:51:20.624Z</time></trkpt><trkpt lat="42.4195417" lon="13.374507"><ele>932.4</ele><time>2026-04-10T12:51:21.626Z</time></trkpt><trkpt lat="42.4196281" lon="13.3744553"><ele>931.8</ele><time>2026-04-10T12:51:22.637Z</time></trkpt><trkpt lat="42.4197101" lon="13.3743832"><ele>931.2</ele><time>2026-04-10T12:51:23.626Z</time></trkpt><trkpt lat="42.4197713" lon="13.3743003"><ele>930.6</ele><time>2026-04-10T12:51:24.627Z</time></trkpt><trkpt lat="42.4198281" lon="13.3742101"><ele>930.0</ele><time>2026-04-10T12:51:25.628Z</time></trkpt><trkpt lat="42.4198917" lon="13.3741036"><ele>930.0</ele><time>2026-04-10T12:51:26.627Z</time></trkpt><trkpt lat="42.4199491" lon="13.3740003"><ele>930.0</ele><time>2026-04-10T12:51:27.632Z</time></trkpt><trkpt lat="42.4200059" lon="13.3739279"><ele>930.0</ele><time>2026-04-10T12:51:28.633Z</time></trkpt><trkpt lat="42.4200773" lon="13.3738531"><ele>930.0</ele><time>2026-04-10T12:51:29.622Z</time></trkpt><trkpt lat="42.4201511" lon="13.3738089"><ele>930.0</ele><time>2026-04-10T12:51:30.632Z</time></trkpt><trkpt lat="42.420231" lon="13.373776"><ele>930.0</ele><time>2026-04-10T12:51:31.639Z</time></trkpt><trkpt lat="42.4202975" lon="13.3737586"><ele>925.5</ele><time>2026-04-10T12:51:32.626Z</time></trkpt><trkpt lat="42.4203328" lon="13.3736813"><ele>921.0</ele><time>2026-04-10T12:51:34.638Z</time></trkpt><trkpt lat="42.4202637" lon="13.3736283"><ele>916.5</ele><time>2026-04-10T12:51:36.628Z</time></trkpt><trkpt lat="42.420144" lon="13.3736501"><ele>912.0</ele><time>2026-04-10T12:51:38.622Z</time></trkpt><trkpt lat="42.4200715" lon="13.3737068"><ele>907.5</ele><time>2026-04-10T12:51:39.621Z</time></trkpt><trkpt lat="42.419997" lon="13.3737791"><ele>903.0</ele><time>2026-04-10T12:51:41.531Z</time></trkpt><trkpt lat="42.4199204" lon="13.3737884"><ele>903.0</ele><time>2026-04-10T12:51:42.551Z</time></trkpt><trkpt lat="42.4197455" lon="13.3739204"><ele>903.0</ele><time>2026-04-10T12:51:43.621Z</time></trkpt><trkpt lat="42.4195555" lon="13.3741127"><ele>903.0</ele><time>2026-04-10T12:51:44.632Z</time></trkpt><trkpt lat="42.4194168" lon="13.3742455"><ele>903.0</ele><time>2026-04-10T12:51:45.632Z</time></trkpt><trkpt lat="42.4192908" lon="13.3743504"><ele>903.0</ele><time>2026-04-10T12:51:46.632Z</time></trkpt><trkpt lat="42.4191754" lon="13.3744364"><ele>903.0</ele><time>2026-04-10T12:51:47.631Z</time></trkpt><trkpt lat="42.4190646" lon="13.3745311"><ele>903.0</ele><time>2026-04-10T12:51:48.632Z</time></trkpt><trkpt lat="42.4189578" lon="13.3746324"><ele>903.0</ele><time>2026-04-10T12:51:49.632Z</time></trkpt><trkpt lat="42.4188469" lon="13.3747431"><ele>903.0</ele><time>2026-04-10T12:51:50.634Z</time></trkpt><trkpt lat="42.4187353" lon="13.3748453"><ele>903.0</ele><time>2026-04-10T12:51:51.63Z</time></trkpt><trkpt lat="42.4186312" lon="13.374948"><ele>903.0</ele><time>2026-04-10T12:51:52.631Z</time></trkpt><trkpt lat="42.4185324" lon="13.3750387"><ele>903.0</ele><time>2026-04-10T12:51:53.633Z</time></trkpt><trkpt lat="42.4184433" lon="13.3751144"><ele>903.0</ele><time>2026-04-10T12:51:54.627Z</time></trkpt><trkpt lat="42.4183564" lon="13.3752119"><ele>903.0</ele><time>2026-04-10T12:51:55.632Z</time></trkpt><trkpt lat="42.418285" lon="13.3753147"><ele>903.0</ele><time>2026-04-10T12:51:56.628Z</time></trkpt><trkpt lat="42.4182194" lon="13.3754358"><ele>903.0</ele><time>2026-04-10T12:51:57.622Z</time></trkpt><trkpt lat="42.418147" lon="13.3755779"><ele>903.25</ele><time>2026-04-10T12:51:58.625Z</time></trkpt><trkpt lat="42.4180701" lon="13.3757209"><ele>903.5</ele><time>2026-04-10T12:51:59.629Z</time></trkpt><trkpt lat="42.4179934" lon="13.37585"><ele>903.75</ele><time>2026-04-10T12:52:00.627Z</time></trkpt><trkpt lat="42.4179129" lon="13.3759759"><ele>904.0</ele><time>2026-04-10T12:52:01.632Z</time></trkpt><trkpt lat="42.4178387" lon="13.3760865"><ele>904.0</ele><time>2026-04-10T12:52:02.626Z</time></trkpt><trkpt lat="42.4177803" lon="13.3761757"><ele>904.0</ele><time>2026-04-10T12:52:03.622Z</time></trkpt><trkpt lat="42.417731" lon="13.3762446"><ele>904.0</ele><time>2026-04-10T12:52:04.621Z</time></trkpt><trkpt lat="42.4176758" lon="13.3762932"><ele>904.0</ele><time>2026-04-10T12:52:05.622Z</time></trkpt><trkpt lat="42.417606" lon="13.3763068"><ele>904.0</ele><time>2026-04-10T12:52:06.621Z</time></trkpt><trkpt lat="42.4175476" lon="13.3762721"><ele>904.0</ele><time>2026-04-10T12:52:07.62Z</time></trkpt><trkpt lat="42.4175119" lon="13.3761845"><ele>904.0</ele><time>2026-04-10T12:52:08.619Z</time></trkpt><trkpt lat="42.4175043" lon="13.3760666"><ele>904.0</ele><time>2026-04-10T12:52:09.617Z</time></trkpt><trkpt lat="42.417504" lon="13.375943"><ele>904.0000000000001</ele><time>2026-04-10T12:52:10.621Z</time></trkpt><trkpt lat="42.4175277" lon="13.3758153"><ele>904.0000000000001</ele><time>2026-04-10T12:52:11.622Z</time></trkpt><trkpt lat="42.4175708" lon="13.375687"><ele>904.0</ele><time>2026-04-10T12:52:12.628Z</time></trkpt><trkpt lat="42.4176419" lon="13.375556"><ele>904.0</ele><time>2026-04-10T12:52:13.62Z</time></trkpt><trkpt lat="42.4177256" lon="13.3754036"><ele>904.25</ele><time>2026-04-10T12:52:14.624Z</time></trkpt><trkpt lat="42.417806" lon="13.3752467"><ele>904.5</ele><time>2026-04-10T12:52:15.626Z</time></trkpt><trkpt lat="42.4178768" lon="13.3750963"><ele>904.75</ele><time>2026-04-10T12:52:16.619Z</time></trkpt><trkpt lat="42.4179427" lon="13.3749488"><ele>905.0</ele><time>2026-04-10T12:52:17.624Z</time></trkpt><trkpt lat="42.4179963" lon="13.374798"><ele>901.0</ele><time>2026-04-10T12:52:18.62Z</time></trkpt><trkpt lat="42.4180441" lon="13.3746462"><ele>897.0</ele><time>2026-04-10T12:52:19.621Z</time></trkpt><trkpt lat="42.4180812" lon="13.3744846"><ele>893.0</ele><time>2026-04-10T12:52:20.62Z</time></trkpt><trkpt lat="42.4181192" lon="13.3743299"><ele>889.0</ele><time>2026-04-10T12:52:21.622Z</time></trkpt><trkpt lat="42.4181618" lon="13.3741805"><ele>889.0</ele><time>2026-04-10T12:52:22.624Z</time></trkpt><trkpt lat="42.41822" lon="13.374047"><ele>889.0000000000001</ele><time>2026-04-10T12:52:23.624Z</time></trkpt><trkpt lat="42.4182882" lon="13.3739354"><ele>889.0000000000001</ele><time>2026-04-10T12:52:24.618Z</time></trkpt><trkpt lat="42.4183728" lon="13.3738472"><ele>889.0</ele><time>2026-04-10T12:52:25.616Z</time></trkpt><trkpt lat="42.4184598" lon="13.3737768"><ele>889.0</ele><time>2026-04-10T12:52:26.62Z</time></trkpt><trkpt lat="42.4185476" lon="13.373714"><ele>888.6</ele><time>2026-04-10T12:52:27.627Z</time></trkpt><trkpt lat="42.4186145" lon="13.3736575"><ele>888.2</ele><time>2026-04-10T12:52:28.621Z</time></trkpt><trkpt lat="42.4186696" lon="13.3735748"><ele>887.8000000000001</ele><time>2026-04-10T12:52:29.618Z</time></trkpt><trkpt lat="42.4187169" lon="13.3734525"><ele>887.4000000000001</ele><time>2026-04-10T12:52:30.628Z</time></trkpt><trkpt lat="42.4187646" lon="13.3732903"><ele>887.0</ele><time>2026-04-10T12:52:31.632Z</time></trkpt><trkpt lat="42.418819" lon="13.373124"><ele>884.0</ele><time>2026-04-10T12:52:32.623Z</time></trkpt><trkpt lat="42.4188742" lon="13.3729698"><ele>881.0</ele><time>2026-04-10T12:52:33.625Z</time></trkpt><trkpt lat="42.4189276" lon="13.3728219"><ele>878.0</ele><time>2026-04-10T12:52:34.624Z</time></trkpt><trkpt lat="42.4189842" lon="13.372675"><ele>875.0</ele><time>2026-04-10T12:52:35.621Z</time></trkpt><trkpt lat="42.4190359" lon="13.3725321"><ele>875.0</ele><time>2026-04-10T12:52:36.624Z</time></trkpt><trkpt lat="42.4190812" lon="13.3723761"><ele>875.0</ele><time>2026-04-10T12:52:37.626Z</time></trkpt><trkpt lat="42.4191053" lon="13.3722018"><ele>875.0</ele><time>2026-04-10T12:52:38.628Z</time></trkpt><trkpt lat="42.4191249" lon="13.3720188"><ele>875.0</ele><time>2026-04-10T12:52:39.629Z</time></trkpt><trkpt lat="42.4191421" lon="13.3718443"><ele>872.5</ele><time>2026-04-10T12:52:40.63Z</time></trkpt><trkpt lat="42.4191611" lon="13.3716679"><ele>870.0</ele><time>2026-04-10T12:52:41.629Z</time></trkpt><trkpt lat="42.4191901" lon="13.3715032"><ele>867.5</ele><time>2026-04-10T12:52:42.623Z</time></trkpt><trkpt lat="42.4192334" lon="13.3713545"><ele>865.0</ele><time>2026-04-10T12:52:43.636Z</time></trkpt><trkpt lat="42.4192778" lon="13.3712143"><ele>864.8333333333333</ele><time>2026-04-10T12:52:44.628Z</time></trkpt><trkpt lat="42.419305" lon="13.3710785"><ele>864.6666666666666</ele><time>2026-04-10T12:52:45.631Z</time></trkpt><trkpt lat="42.4193307" lon="13.3709402"><ele>864.5</ele><time>2026-04-10T12:52:46.631Z</time></trkpt><trkpt lat="42.4193614" lon="13.370834"><ele>864.3333333333333</ele><time>2026-04-10T12:52:47.626Z</time></trkpt><trkpt lat="42.4194073" lon="13.3707552"><ele>864.1666666666666</ele><time>2026-04-10T12:52:48.631Z</time></trkpt><trkpt lat="42.4194752" lon="13.3707076"><ele>864.0</ele><time>2026-04-10T12:52:49.623Z</time></trkpt><trkpt lat="42.4195479" lon="13.3706846"><ele>864.0</ele><time>2026-04-10T12:52:50.627Z</time></trkpt><trkpt lat="42.419612" lon="13.3706735"><ele>864.0000000000001</ele><time>2026-04-10T12:52:51.632Z</time></trkpt><trkpt lat="42.4196901" lon="13.3706277"><ele>864.0000000000001</ele><time>2026-04-10T12:52:53.638Z</time></trkpt><trkpt lat="42.4197072" lon="13.3705339"><ele>864.0</ele><time>2026-04-10T12:53:57.642Z</time></trkpt><trkpt lat="42.4197452" lon="13.3703608"><ele>864.0</ele><time>2026-04-10T12:54:00.631Z</time></trkpt><trkpt lat="42.4197684" lon="13.3702166"><ele>863.0</ele><time>2026-04-10T12:54:01.636Z</time></trkpt><trkpt lat="42.4197867" lon="13.3699967"><ele>862.0</ele><time>2026-04-10T12:54:02.626Z</time></trkpt><trkpt lat="42.4198095" lon="13.3697562"><ele>861.0</ele><time>2026-04-10T12:54:03.634Z</time></trkpt><trkpt lat="42.4198473" lon="13.369511"><ele>860.6666666666667</ele><time>2026-04-10T12:54:04.637Z</time></trkpt><trkpt lat="42.4198944" lon="13.3692849"><ele>860.3333333333334</ele><time>2026-04-10T12:54:05.632Z</time></trkpt><trkpt lat="42.4199377" lon="13.3690674"><ele>860.0</ele><time>2026-04-10T12:54:06.622Z</time></trkpt><trkpt lat="42.4199588" lon="13.368829"><ele>860.0</ele><time>2026-04-10T12:54:07.627Z</time></trkpt><trkpt lat="42.4199475" lon="13.3685922"><ele>860.0</ele><time>2026-04-10T12:54:08.631Z</time></trkpt><trkpt lat="42.4199257" lon="13.3683838"><ele>860.0</ele><time>2026-04-10T12:54:09.635Z</time></trkpt><trkpt lat="42.4198967" lon="13.3681536"><ele>861.0</ele><time>2026-04-10T12:54:10.627Z</time></trkpt><trkpt lat="42.4198663" lon="13.3679504"><ele>862.0</ele><time>2026-04-10T12:54:11.625Z</time></trkpt><trkpt lat="42.4198499" lon="13.367774"><ele>863.0</ele><time>2026-04-10T12:54:12.633Z</time></trkpt><trkpt lat="42.4198237" lon="13.367616"><ele>864.0</ele><time>2026-04-10T12:54:13.633Z</time></trkpt><trkpt lat="42.4197774" lon="13.3674782"><ele>864.0</ele><time>2026-04-10T12:54:14.631Z</time></trkpt><trkpt lat="42.419725" lon="13.3673153"><ele>864.0</ele><time>2026-04-10T12:54:15.631Z</time></trkpt><trkpt lat="42.4196547" lon="13.3671262"><ele>864.0</ele><time>2026-04-10T12:54:16.634Z</time></trkpt><trkpt lat="42.4195965" lon="13.3669303"><ele>864.0</ele><time>2026-04-10T12:54:17.635Z</time></trkpt><trkpt lat="42.4195545" lon="13.3667412"><ele>854.5</ele><time>2026-04-10T12:54:18.637Z</time></trkpt><trkpt lat="42.4194594" lon="13.366364"><ele>845.0</ele><time>2026-04-10T12:54:20.635Z</time></trkpt><trkpt lat="42.4193961" lon="13.3661587"><ele>845.0</ele><time>2026-04-10T12:54:21.633Z</time></trkpt><trkpt lat="42.4193367" lon="13.3659354"><ele>845.0</ele><time>2026-04-10T12:54:22.635Z</time></trkpt><trkpt lat="42.4192724" lon="13.3657609"><ele>845.0</ele><time>2026-04-10T12:54:23.634Z</time></trkpt><trkpt lat="42.4192107" lon="13.3655763"><ele>845.75</ele><time>2026-04-10T12:54:24.629Z</time></trkpt><trkpt lat="42.4191365" lon="13.3654205"><ele>846.5</ele><time>2026-04-10T12:54:25.634Z</time></trkpt><trkpt lat="42.4190566" lon="13.3652623"><ele>847.25</ele><time>2026-04-10T12:54:26.628Z</time></trkpt><trkpt lat="42.4189676" lon="13.3651396"><ele>848.0</ele><time>2026-04-10T12:54:27.632Z</time></trkpt><trkpt lat="42.4188858" lon="13.3650305"><ele>848.0</ele><time>2026-04-10T12:54:28.635Z</time></trkpt><trkpt lat="42.4188189" lon="13.3649231"><ele>848.0</ele><time>2026-04-10T12:54:29.63Z</time></trkpt><trkpt lat="42.4187563" lon="13.3647977"><ele>848.0</ele><time>2026-04-10T12:54:30.629Z</time></trkpt><trkpt lat="42.4187206" lon="13.364663"><ele>848.0</ele><time>2026-04-10T12:54:31.633Z</time></trkpt><trkpt lat="42.4186981" lon="13.364518"><ele>848.0</ele><time>2026-04-10T12:54:32.633Z</time></trkpt><trkpt lat="42.4186814" lon="13.364372"><ele>844.75</ele><time>2026-04-10T12:54:33.632Z</time></trkpt><trkpt lat="42.4186777" lon="13.3642159"><ele>841.5</ele><time>2026-04-10T12:54:34.633Z</time></trkpt><trkpt lat="42.4186928" lon="13.3640317"><ele>838.25</ele><time>2026-04-10T12:54:35.631Z</time></trkpt><trkpt lat="42.4187074" lon="13.3638309"><ele>835.0</ele><time>2026-04-10T12:54:36.635Z</time></trkpt><trkpt lat="42.4187237" lon="13.363631"><ele>835.0</ele><time>2026-04-10T12:54:37.643Z</time></trkpt><trkpt lat="42.4187408" lon="13.3634133"><ele>835.0</ele><time>2026-04-10T12:54:38.642Z</time></trkpt><trkpt lat="42.4187566" lon="13.3631828"><ele>835.0</ele><time>2026-04-10T12:54:39.638Z</time></trkpt><trkpt lat="42.4187637" lon="13.3629515"><ele>836.25</ele><time>2026-04-10T12:54:40.642Z</time></trkpt><trkpt lat="42.4187595" lon="13.3627467"><ele>837.5</ele><time>2026-04-10T12:54:41.643Z</time></trkpt><trkpt lat="42.4187478" lon="13.3625449"><ele>838.75</ele><time>2026-04-10T12:54:42.644Z</time></trkpt><trkpt lat="42.4187308" lon="13.3623464"><ele>840.0</ele><time>2026-04-10T12:54:43.639Z</time></trkpt><trkpt lat="42.4186979" lon="13.3621346"><ele>840.6666666666667</ele><time>2026-04-10T12:54:44.64Z</time></trkpt><trkpt lat="42.4186508" lon="13.3619096"><ele>841.3333333333334</ele><time>2026-04-10T12:54:45.641Z</time></trkpt><trkpt lat="42.4186125" lon="13.3616523"><ele>842.0</ele><time>2026-04-10T12:54:46.646Z</time></trkpt><trkpt lat="42.4185048" lon="13.3612311"><ele>844.25</ele><time>2026-04-10T12:54:48.628Z</time></trkpt><trkpt lat="42.4184509" lon="13.3610659"><ele>846.5</ele><time>2026-04-10T12:54:49.63Z</time></trkpt><trkpt lat="42.4184065" lon="13.3608965"><ele>848.75</ele><time>2026-04-10T12:54:50.626Z</time></trkpt><trkpt lat="42.4183829" lon="13.3606864"><ele>851.0</ele><time>2026-04-10T12:54:51.634Z</time></trkpt><trkpt lat="42.4183687" lon="13.3604911"><ele>852.0</ele><time>2026-04-10T12:54:52.634Z</time></trkpt><trkpt lat="42.4183423" lon="13.3602778"><ele>853.0</ele><time>2026-04-10T12:54:53.635Z</time></trkpt><trkpt lat="42.4183173" lon="13.3600631"><ele>854.0</ele><time>2026-04-10T12:54:54.641Z</time></trkpt><trkpt lat="42.4182763" lon="13.3598599"><ele>855.3333333333334</ele><time>2026-04-10T12:54:55.638Z</time></trkpt><trkpt lat="42.4182401" lon="13.3596975"><ele>856.6666666666667</ele><time>2026-04-10T12:54:56.638Z</time></trkpt><trkpt lat="42.4181366" lon="13.3593531"><ele>858.0</ele><time>2026-04-10T12:54:58.639Z</time></trkpt><trkpt lat="42.4180776" lon="13.3591619"><ele>858.0</ele><time>2026-04-10T12:54:59.634Z</time></trkpt><trkpt lat="42.4180367" lon="13.3589645"><ele>858.0</ele><time>2026-04-10T12:55:00.629Z</time></trkpt><trkpt lat="42.418014" lon="13.3587908"><ele>858.0</ele><time>2026-04-10T12:55:01.633Z</time></trkpt><trkpt lat="42.4179973" lon="13.3586136"><ele>858.0</ele><time>2026-04-10T12:55:02.628Z</time></trkpt><trkpt lat="42.4179657" lon="13.3584474"><ele>856.75</ele><time>2026-04-10T12:55:03.628Z</time></trkpt><trkpt lat="42.417901" lon="13.3582742"><ele>855.5</ele><time>2026-04-10T12:55:04.625Z</time></trkpt><trkpt lat="42.4178143" lon="13.3580993"><ele>854.25</ele><time>2026-04-10T12:55:05.621Z</time></trkpt><trkpt lat="42.4177295" lon="13.3579398"><ele>853.0</ele><time>2026-04-10T12:55:06.625Z</time></trkpt><trkpt lat="42.4176531" lon="13.357797"><ele>853.0</ele><time>2026-04-10T12:55:07.621Z</time></trkpt><trkpt lat="42.4176024" lon="13.3576676"><ele>853.0</ele><time>2026-04-10T12:55:08.62Z</time></trkpt><trkpt lat="42.4175722" lon="13.3575496"><ele>853.0</ele><time>2026-04-10T12:55:09.63Z</time></trkpt><trkpt lat="42.4175394" lon="13.3574162"><ele>853.0</ele><time>2026-04-10T12:55:10.628Z</time></trkpt><trkpt lat="42.4175149" lon="13.3572519"><ele>853.0</ele><time>2026-04-10T12:55:11.632Z</time></trkpt><trkpt lat="42.417488" lon="13.3570597"><ele>853.3333333333333</ele><time>2026-04-10T12:55:12.63Z</time></trkpt><trkpt lat="42.4174648" lon="13.3568417"><ele>853.6666666666667</ele><time>2026-04-10T12:55:13.634Z</time></trkpt><trkpt lat="42.4174247" lon="13.3566399"><ele>854.0</ele><time>2026-04-10T12:55:14.631Z</time></trkpt><trkpt lat="42.41739" lon="13.3564439"><ele>855.0</ele><time>2026-04-10T12:55:15.629Z</time></trkpt><trkpt lat="42.4173674" lon="13.3562381"><ele>856.0</ele><time>2026-04-10T12:55:16.635Z</time></trkpt><trkpt lat="42.4173546" lon="13.3560507"><ele>857.0</ele><time>2026-04-10T12:55:17.643Z</time></trkpt><trkpt lat="42.4173372" lon="13.3558808"><ele>858.0</ele><time>2026-04-10T12:55:18.635Z</time></trkpt><trkpt lat="42.4173381" lon="13.3556984"><ele>859.25</ele><time>2026-04-10T12:55:19.632Z</time></trkpt><trkpt lat="42.4173368" lon="13.3555281"><ele>860.5</ele><time>2026-04-10T12:55:20.633Z</time></trkpt><trkpt lat="42.417356" lon="13.355358"><ele>861.75</ele><time>2026-04-10T12:55:21.638Z</time></trkpt><trkpt lat="42.4173647" lon="13.3551945"><ele>863.0</ele><time>2026-04-10T12:55:22.638Z</time></trkpt><trkpt lat="42.4173706" lon="13.3550246"><ele>863.0</ele><time>2026-04-10T12:55:23.628Z</time></trkpt><trkpt lat="42.4173608" lon="13.3548546"><ele>863.0</ele><time>2026-04-10T12:55:24.633Z</time></trkpt><trkpt lat="42.4173317" lon="13.3546932"><ele>863.0</ele><time>2026-04-10T12:55:25.631Z</time></trkpt><trkpt lat="42.417287" lon="13.3545542"><ele>863.0</ele><time>2026-04-10T12:55:26.627Z</time></trkpt><trkpt lat="42.4172176" lon="13.3544082"><ele>858.0</ele><time>2026-04-10T12:55:27.638Z</time></trkpt><trkpt lat="42.417135" lon="13.3542352"><ele>853.0</ele><time>2026-04-10T12:55:28.647Z</time></trkpt><trkpt lat="42.4170504" lon="13.3540503"><ele>848.0</ele><time>2026-04-10T12:55:29.645Z</time></trkpt><trkpt lat="42.4169717" lon="13.3538799"><ele>851.0</ele><time>2026-04-10T12:55:30.645Z</time></trkpt><trkpt lat="42.4169142" lon="13.3536936"><ele>854.0</ele><time>2026-04-10T12:55:31.652Z</time></trkpt><trkpt lat="42.4168589" lon="13.3535152"><ele>857.0</ele><time>2026-04-10T12:55:32.646Z</time></trkpt><trkpt lat="42.4168171" lon="13.3531501"><ele>860.6666666666667</ele><time>2026-04-10T12:55:34.645Z</time></trkpt><trkpt lat="42.4168157" lon="13.3529793"><ele>864.3333333333333</ele><time>2026-04-10T12:55:35.646Z</time></trkpt><trkpt lat="42.4167931" lon="13.3526914"><ele>868.0</ele><time>2026-04-10T12:55:37.631Z</time></trkpt><trkpt lat="42.416804" lon="13.3524874"><ele>868.0</ele><time>2026-04-10T12:55:40.64Z</time></trkpt><trkpt lat="42.4167952" lon="13.352328"><ele>868.0</ele><time>2026-04-10T12:55:42.631Z</time></trkpt><trkpt lat="42.4167831" lon="13.3521977"><ele>868.0</ele><time>2026-04-10T12:55:43.64Z</time></trkpt><trkpt lat="42.4167614" lon="13.3520561"><ele>868.0</ele><time>2026-04-10T12:55:44.637Z</time></trkpt><trkpt lat="42.4167394" lon="13.3519085"><ele>868.0</ele><time>2026-04-10T12:55:45.642Z</time></trkpt><trkpt lat="42.4167243" lon="13.3517615"><ele>868.25</ele><time>2026-04-10T12:55:46.64Z</time></trkpt><trkpt lat="42.4166998" lon="13.3516044"><ele>868.5</ele><time>2026-04-10T12:55:47.645Z</time></trkpt><trkpt lat="42.4166751" lon="13.3514446"><ele>868.75</ele><time>2026-04-10T12:55:48.641Z</time></trkpt><trkpt lat="42.4166574" lon="13.3512726"><ele>869.0</ele><time>2026-04-10T12:55:49.634Z</time></trkpt><trkpt lat="42.4166689" lon="13.3510865"><ele>867.5</ele><time>2026-04-10T12:55:50.643Z</time></trkpt><trkpt lat="42.4167012" lon="13.3508984"><ele>866.0</ele><time>2026-04-10T12:55:51.641Z</time></trkpt><trkpt lat="42.4167378" lon="13.3507152"><ele>864.5</ele><time>2026-04-10T12:55:52.642Z</time></trkpt><trkpt lat="42.4167892" lon="13.3505245"><ele>863.0</ele><time>2026-04-10T12:55:53.644Z</time></trkpt><trkpt lat="42.4168491" lon="13.3503151"><ele>858.3333333333334</ele><time>2026-04-10T12:55:54.642Z</time></trkpt><trkpt lat="42.4169132" lon="13.350091"><ele>853.6666666666667</ele><time>2026-04-10T12:55:55.642Z</time></trkpt><trkpt lat="42.4169809" lon="13.3498777"><ele>849.0</ele><time>2026-04-10T12:55:56.637Z</time></trkpt><trkpt lat="42.4170535" lon="13.3496675"><ele>847.0</ele><time>2026-04-10T12:55:57.639Z</time></trkpt><trkpt lat="42.4171242" lon="13.3494765"><ele>845.0</ele><time>2026-04-10T12:55:58.641Z</time></trkpt><trkpt lat="42.4171676" lon="13.3492743"><ele>843.0</ele><time>2026-04-10T12:55:59.632Z</time></trkpt><trkpt lat="42.4171839" lon="13.3490815"><ele>843.0</ele><time>2026-04-10T12:56:00.626Z</time></trkpt><trkpt lat="42.4171461" lon="13.3488838"><ele>843.0</ele><time>2026-04-10T12:56:01.637Z</time></trkpt><trkpt lat="42.4170496" lon="13.3486993"><ele>843.0</ele><time>2026-04-10T12:56:02.626Z</time></trkpt><trkpt lat="42.4169572" lon="13.3485207"><ele>843.6666666666667</ele><time>2026-04-10T12:56:03.632Z</time></trkpt><trkpt lat="42.4168823" lon="13.3483367"><ele>844.3333333333334</ele><time>2026-04-10T12:56:04.632Z</time></trkpt><trkpt lat="42.4167854" lon="13.3481301"><ele>845.0</ele><time>2026-04-10T12:56:05.626Z</time></trkpt><trkpt lat="42.4167319" lon="13.3479512"><ele>845.0</ele><time>2026-04-10T12:56:06.624Z</time></trkpt><trkpt lat="42.4167064" lon="13.3477292"><ele>845.0</ele><time>2026-04-10T12:56:07.637Z</time></trkpt><trkpt lat="42.4167317" lon="13.3475243"><ele>845.0</ele><time>2026-04-10T12:56:08.633Z</time></trkpt><trkpt lat="42.4167844" lon="13.3473082"><ele>841.6666666666667</ele><time>2026-04-10T12:56:09.626Z</time></trkpt><trkpt lat="42.4168524" lon="13.347074"><ele>838.3333333333333</ele><time>2026-04-10T12:56:10.626Z</time></trkpt><trkpt lat="42.4169319" lon="13.346886"><ele>835.0</ele><time>2026-04-10T12:56:11.636Z</time></trkpt><trkpt lat="42.4170122" lon="13.3467337"><ele>835.0</ele><time>2026-04-10T12:56:12.633Z</time></trkpt><trkpt lat="42.4170701" lon="13.3466013"><ele>835.0</ele><time>2026-04-10T12:56:13.63Z</time></trkpt><trkpt lat="42.4170832" lon="13.3464107"><ele>835.0</ele><time>2026-04-10T12:56:14.627Z</time></trkpt><trkpt lat="42.4170315" lon="13.3462091"><ele>835.0</ele><time>2026-04-10T12:56:15.633Z</time></trkpt><trkpt lat="42.4169614" lon="13.3460232"><ele>835.0</ele><time>2026-04-10T12:56:16.619Z</time></trkpt><trkpt lat="42.4169" lon="13.3458658"><ele>835.0</ele><time>2026-04-10T12:56:17.63Z</time></trkpt><trkpt lat="42.416841" lon="13.3456715"><ele>835.0</ele><time>2026-04-10T12:56:18.618Z</time></trkpt><trkpt lat="42.4168366" lon="13.34548"><ele>835.0</ele><time>2026-04-10T12:56:19.618Z</time></trkpt><trkpt lat="42.4168657" lon="13.3452591"><ele>834.0</ele><time>2026-04-10T12:56:20.62Z</time></trkpt><trkpt lat="42.4169205" lon="13.3450742"><ele>833.0</ele><time>2026-04-10T12:56:21.639Z</time></trkpt><trkpt lat="42.4170101" lon="13.3448943"><ele>832.0</ele><time>2026-04-10T12:56:22.634Z</time></trkpt><trkpt lat="42.4171096" lon="13.344712"><ele>831.75</ele><time>2026-04-10T12:56:23.635Z</time></trkpt><trkpt lat="42.4171784" lon="13.344527"><ele>831.5</ele><time>2026-04-10T12:56:24.632Z</time></trkpt><trkpt lat="42.4171582" lon="13.3443363"><ele>831.25</ele><time>2026-04-10T12:56:25.635Z</time></trkpt><trkpt lat="42.4171375" lon="13.3441788"><ele>831.0</ele><time>2026-04-10T12:56:26.645Z</time></trkpt><trkpt lat="42.4170106" lon="13.3440154"><ele>831.0</ele><time>2026-04-10T12:56:27.63Z</time></trkpt><trkpt lat="42.4169363" lon="13.3438832"><ele>831.0</ele><time>2026-04-10T12:56:28.645Z</time></trkpt><trkpt lat="42.416867" lon="13.3437294"><ele>831.0</ele><time>2026-04-10T12:56:29.642Z</time></trkpt><trkpt lat="42.4168208" lon="13.3435516"><ele>831.0</ele><time>2026-04-10T12:56:30.639Z</time></trkpt><trkpt lat="42.4168046" lon="13.3433451"><ele>831.3333333333333</ele><time>2026-04-10T12:56:31.652Z</time></trkpt><trkpt lat="42.4168173" lon="13.3431193"><ele>831.6666666666666</ele><time>2026-04-10T12:56:32.638Z</time></trkpt><trkpt lat="42.4168285" lon="13.3429181"><ele>832.0</ele><time>2026-04-10T12:56:33.642Z</time></trkpt><trkpt lat="42.4168572" lon="13.3427198"><ele>831.0</ele><time>2026-04-10T12:56:34.642Z</time></trkpt><trkpt lat="42.4168997" lon="13.3425351"><ele>830.0</ele><time>2026-04-10T12:56:35.645Z</time></trkpt><trkpt lat="42.4169393" lon="13.3423659"><ele>829.0</ele><time>2026-04-10T12:56:36.645Z</time></trkpt><trkpt lat="42.4169715" lon="13.3422137"><ele>828.0</ele><time>2026-04-10T12:56:37.648Z</time></trkpt><trkpt lat="42.4170069" lon="13.3420705"><ele>828.0</ele><time>2026-04-10T12:56:38.643Z</time></trkpt><trkpt lat="42.4170258" lon="13.3419177"><ele>828.0</ele><time>2026-04-10T12:56:39.642Z</time></trkpt><trkpt lat="42.4170086" lon="13.3417813"><ele>828.0</ele><time>2026-04-10T12:56:40.644Z</time></trkpt><trkpt lat="42.4169886" lon="13.3416601"><ele>828.0</ele><time>2026-04-10T12:56:41.643Z</time></trkpt><trkpt lat="42.4169511" lon="13.3415518"><ele>828.0</ele><time>2026-04-10T12:56:43.639Z</time></trkpt><trkpt lat="42.4168998" lon="13.3414957"><ele>828.0</ele><time>2026-04-10T12:56:49.646Z</time></trkpt><trkpt lat="42.4168493" lon="13.3414335"><ele>828.0</ele><time>2026-04-10T12:56:51.641Z</time></trkpt><trkpt lat="42.4167279" lon="13.3413055"><ele>828.0</ele><time>2026-04-10T12:56:53.636Z</time></trkpt><trkpt lat="42.4166251" lon="13.341198"><ele>828.0</ele><time>2026-04-10T12:56:54.651Z</time></trkpt><trkpt lat="42.4164983" lon="13.3410934"><ele>826.3333333333333</ele><time>2026-04-10T12:56:55.632Z</time></trkpt><trkpt lat="42.4163456" lon="13.3409937"><ele>824.6666666666666</ele><time>2026-04-10T12:56:56.641Z</time></trkpt><trkpt lat="42.4161879" lon="13.3409058"><ele>823.0</ele><time>2026-04-10T12:56:57.645Z</time></trkpt><trkpt lat="42.415981" lon="13.3407832"><ele>823.0</ele><time>2026-04-10T12:56:58.656Z</time></trkpt><trkpt lat="42.4158185" lon="13.3406444"><ele>823.0</ele><time>2026-04-10T12:56:59.642Z</time></trkpt><trkpt lat="42.4156818" lon="13.3405023"><ele>823.0</ele><time>2026-04-10T12:57:00.643Z</time></trkpt><trkpt lat="42.4155427" lon="13.3403457"><ele>821.0</ele><time>2026-04-10T12:57:01.654Z</time></trkpt><trkpt lat="42.4154019" lon="13.3401862"><ele>819.0</ele><time>2026-04-10T12:57:02.645Z</time></trkpt><trkpt lat="42.4152504" lon="13.3400329"><ele>817.0</ele><time>2026-04-10T12:57:03.639Z</time></trkpt><trkpt lat="42.415074" lon="13.3398965"><ele>817.0</ele><time>2026-04-10T12:57:04.642Z</time></trkpt><trkpt lat="42.4148961" lon="13.3397891"><ele>817.0</ele><time>2026-04-10T12:57:05.638Z</time></trkpt><trkpt lat="42.4147327" lon="13.3397053"><ele>817.0</ele><time>2026-04-10T12:57:06.634Z</time></trkpt><trkpt lat="42.4145636" lon="13.3396593"><ele>817.3333333333333</ele><time>2026-04-10T12:57:07.638Z</time></trkpt><trkpt lat="42.4143925" lon="13.3396212"><ele>817.6666666666667</ele><time>2026-04-10T12:57:08.644Z</time></trkpt><trkpt lat="42.4142249" lon="13.3395538"><ele>818.0</ele><time>2026-04-10T12:57:09.638Z</time></trkpt><trkpt lat="42.4140734" lon="13.3394251"><ele>818.0</ele><time>2026-04-10T12:57:10.633Z</time></trkpt><trkpt lat="42.4139644" lon="13.3392472"><ele>818.0</ele><time>2026-04-10T12:57:11.634Z</time></trkpt><trkpt lat="42.4138735" lon="13.3390611"><ele>818.0</ele><time>2026-04-10T12:57:12.635Z</time></trkpt><trkpt lat="42.4137928" lon="13.3388428"><ele>811.6666666666667</ele><time>2026-04-10T12:57:13.644Z</time></trkpt><trkpt lat="42.4137222" lon="13.3386061"><ele>805.3333333333333</ele><time>2026-04-10T12:57:14.649Z</time></trkpt><trkpt lat="42.4136573" lon="13.3383475"><ele>799.0</ele><time>2026-04-10T12:57:15.649Z</time></trkpt><trkpt lat="42.4136104" lon="13.3381062"><ele>800.3333333333333</ele><time>2026-04-10T12:57:16.653Z</time></trkpt><trkpt lat="42.4135318" lon="13.3378822"><ele>801.6666666666667</ele><time>2026-04-10T12:57:17.645Z</time></trkpt><trkpt lat="42.4134413" lon="13.3376541"><ele>803.0</ele><time>2026-04-10T12:57:18.641Z</time></trkpt><trkpt lat="42.4133635" lon="13.337413"><ele>805.6666666666667</ele><time>2026-04-10T12:57:19.635Z</time></trkpt><trkpt lat="42.4132639" lon="13.3371986"><ele>808.3333333333333</ele><time>2026-04-10T12:57:20.639Z</time></trkpt><trkpt lat="42.4131238" lon="13.3370062"><ele>811.0</ele><time>2026-04-10T12:57:21.639Z</time></trkpt><trkpt lat="42.4129754" lon="13.3368706"><ele>805.6666666666666</ele><time>2026-04-10T12:57:22.635Z</time></trkpt><trkpt lat="42.4128116" lon="13.3367515"><ele>800.3333333333333</ele><time>2026-04-10T12:57:23.637Z</time></trkpt><trkpt lat="42.4126514" lon="13.3366698"><ele>795.0</ele><time>2026-04-10T12:57:24.637Z</time></trkpt><trkpt lat="42.4125254" lon="13.3365832"><ele>795.0</ele><time>2026-04-10T12:57:25.634Z</time></trkpt><trkpt lat="42.4124281" lon="13.3364852"><ele>795.0</ele><time>2026-04-10T12:57:26.634Z</time></trkpt><trkpt lat="42.4123944" lon="13.3363008"><ele>795.0</ele><time>2026-04-10T12:57:27.625Z</time></trkpt><trkpt lat="42.4124005" lon="13.3361053"><ele>795.0</ele><time>2026-04-10T12:57:28.626Z</time></trkpt><trkpt lat="42.4124282" lon="13.3358828"><ele>796.0</ele><time>2026-04-10T12:57:29.634Z</time></trkpt><trkpt lat="42.4124461" lon="13.3356644"><ele>797.0</ele><time>2026-04-10T12:57:30.636Z</time></trkpt><trkpt lat="42.4124698" lon="13.3354159"><ele>798.0</ele><time>2026-04-10T12:57:31.639Z</time></trkpt><trkpt lat="42.4124516" lon="13.3351757"><ele>798.0</ele><time>2026-04-10T12:57:32.625Z</time></trkpt><trkpt lat="42.4124331" lon="13.3349602"><ele>798.0</ele><time>2026-04-10T12:57:33.626Z</time></trkpt><trkpt lat="42.4124113" lon="13.3347121"><ele>798.0</ele><time>2026-04-10T12:57:34.637Z</time></trkpt><trkpt lat="42.4123697" lon="13.3344693"><ele>798.0</ele><time>2026-04-10T12:57:35.628Z</time></trkpt><trkpt lat="42.4123221" lon="13.3342402"><ele>798.0</ele><time>2026-04-10T12:57:36.635Z</time></trkpt><trkpt lat="42.4122948" lon="13.33404"><ele>798.0</ele><time>2026-04-10T12:57:37.629Z</time></trkpt><trkpt lat="42.4122995" lon="13.3338372"><ele>794.0</ele><time>2026-04-10T12:57:38.643Z</time></trkpt><trkpt lat="42.412351" lon="13.333631"><ele>790.0</ele><time>2026-04-10T12:57:39.649Z</time></trkpt><trkpt lat="42.4124407" lon="13.3334267"><ele>786.0</ele><time>2026-04-10T12:57:40.64Z</time></trkpt><trkpt lat="42.4125392" lon="13.3332058"><ele>780.0</ele><time>2026-04-10T12:57:41.645Z</time></trkpt><trkpt lat="42.4126548" lon="13.3330169"><ele>774.0</ele><time>2026-04-10T12:57:42.649Z</time></trkpt><trkpt lat="42.4127593" lon="13.3328221"><ele>768.0</ele><time>2026-04-10T12:57:43.718Z</time></trkpt><trkpt lat="42.4128696" lon="13.3326289"><ele>768.0</ele><time>2026-04-10T12:57:44.715Z</time></trkpt><trkpt lat="42.4129862" lon="13.3324341"><ele>768.0</ele><time>2026-04-10T12:57:45.717Z</time></trkpt><trkpt lat="42.4131106" lon="13.3322474"><ele>768.0</ele><time>2026-04-10T12:57:46.72Z</time></trkpt><trkpt lat="42.4132482" lon="13.3320828"><ele>770.3333333333333</ele><time>2026-04-10T12:57:47.715Z</time></trkpt><trkpt lat="42.4133902" lon="13.3319324"><ele>772.6666666666666</ele><time>2026-04-10T12:57:48.724Z</time></trkpt><trkpt lat="42.4135306" lon="13.3317787"><ele>775.0</ele><time>2026-04-10T12:57:49.706Z</time></trkpt><trkpt lat="42.4136639" lon="13.3316052"><ele>775.0</ele><time>2026-04-10T12:57:50.698Z</time></trkpt><trkpt lat="42.4137788" lon="13.3314045"><ele>775.0</ele><time>2026-04-10T12:57:51.7Z</time></trkpt><trkpt lat="42.4138844" lon="13.3311816"><ele>775.0</ele><time>2026-04-10T12:57:52.708Z</time></trkpt><trkpt lat="42.413992" lon="13.330957"><ele>776.3333333333333</ele><time>2026-04-10T12:57:53.717Z</time></trkpt><trkpt lat="42.4141135" lon="13.3307426"><ele>777.6666666666667</ele><time>2026-04-10T12:57:54.718Z</time></trkpt><trkpt lat="42.4142298" lon="13.3305259"><ele>779.0</ele><time>2026-04-10T12:57:55.717Z</time></trkpt><trkpt lat="42.4143354" lon="13.3303086"><ele>774.0</ele><time>2026-04-10T12:57:56.723Z</time></trkpt><trkpt lat="42.4144362" lon="13.3300962"><ele>769.0</ele><time>2026-04-10T12:57:57.719Z</time></trkpt><trkpt lat="42.414531" lon="13.3298869"><ele>764.0</ele><time>2026-04-10T12:57:58.718Z</time></trkpt><trkpt lat="42.4146091" lon="13.3296703"><ele>770.0</ele><time>2026-04-10T12:57:59.711Z</time></trkpt><trkpt lat="42.4146754" lon="13.3294466"><ele>776.0</ele><time>2026-04-10T12:58:00.717Z</time></trkpt><trkpt lat="42.4147321" lon="13.3292199"><ele>782.0</ele><time>2026-04-10T12:58:01.711Z</time></trkpt><trkpt lat="42.4147868" lon="13.3289811"><ele>777.6666666666667</ele><time>2026-04-10T12:58:02.701Z</time></trkpt><trkpt lat="42.4148396" lon="13.3287354"><ele>773.3333333333333</ele><time>2026-04-10T12:58:03.702Z</time></trkpt><trkpt lat="42.4148905" lon="13.3284901"><ele>769.0</ele><time>2026-04-10T12:58:04.707Z</time></trkpt><trkpt lat="42.4149349" lon="13.3282496"><ele>766.3333333333333</ele><time>2026-04-10T12:58:05.715Z</time></trkpt><trkpt lat="42.4149664" lon="13.3280017"><ele>763.6666666666666</ele><time>2026-04-10T12:58:06.714Z</time></trkpt><trkpt lat="42.4149727" lon="13.3277593"><ele>761.0</ele><time>2026-04-10T12:58:07.716Z</time></trkpt><trkpt lat="42.4149467" lon="13.3275072"><ele>761.0</ele><time>2026-04-10T12:58:08.695Z</time></trkpt><trkpt lat="42.4148979" lon="13.3272451"><ele>761.0</ele><time>2026-04-10T12:58:09.708Z</time></trkpt><trkpt lat="42.4148442" lon="13.326986"><ele>761.0</ele><time>2026-04-10T12:58:10.715Z</time></trkpt><trkpt lat="42.4147745" lon="13.3267315"><ele>761.0</ele><time>2026-04-10T12:58:11.714Z</time></trkpt><trkpt lat="42.4146819" lon="13.3264912"><ele>761.0</ele><time>2026-04-10T12:58:12.721Z</time></trkpt><trkpt lat="42.4145384" lon="13.3263005"><ele>761.0</ele><time>2026-04-10T12:58:13.649Z</time></trkpt><trkpt lat="42.4143629" lon="13.3261312"><ele>761.0</ele><time>2026-04-10T12:58:14.644Z</time></trkpt><trkpt lat="42.4142016" lon="13.3259937"><ele>761.0</ele><time>2026-04-10T12:58:15.642Z</time></trkpt><trkpt lat="42.4140202" lon="13.325859"><ele>761.0</ele><time>2026-04-10T12:58:16.641Z</time></trkpt><trkpt lat="42.4138393" lon="13.3257587"><ele>760.0</ele><time>2026-04-10T12:58:17.642Z</time></trkpt><trkpt lat="42.4136557" lon="13.3256827"><ele>759.0</ele><time>2026-04-10T12:58:18.634Z</time></trkpt><trkpt lat="42.413526" lon="13.3255607"><ele>758.0</ele><time>2026-04-10T12:58:19.641Z</time></trkpt><trkpt lat="42.4133789" lon="13.3254228"><ele>758.0</ele><time>2026-04-10T12:58:20.641Z</time></trkpt><trkpt lat="42.4132469" lon="13.3252763"><ele>758.0</ele><time>2026-04-10T12:58:21.632Z</time></trkpt><trkpt lat="42.4131465" lon="13.3250945"><ele>758.0</ele><time>2026-04-10T12:58:22.644Z</time></trkpt><trkpt lat="42.4130666" lon="13.3248659"><ele>759.6666666666666</ele><time>2026-04-10T12:58:23.639Z</time></trkpt><trkpt lat="42.4130345" lon="13.3246365"><ele>761.3333333333334</ele><time>2026-04-10T12:58:24.632Z</time></trkpt><trkpt lat="42.4130069" lon="13.3243688"><ele>763.0</ele><time>2026-04-10T12:58:25.632Z</time></trkpt><trkpt lat="42.4129836" lon="13.3241022"><ele>753.0</ele><time>2026-04-10T12:58:26.646Z</time></trkpt><trkpt lat="42.4129641" lon="13.3238061"><ele>743.0</ele><time>2026-04-10T12:58:27.637Z</time></trkpt><trkpt lat="42.4129439" lon="13.3235286"><ele>733.0</ele><time>2026-04-10T12:58:28.646Z</time></trkpt><trkpt lat="42.4129269" lon="13.3232684"><ele>733.3333333333334</ele><time>2026-04-10T12:58:29.643Z</time></trkpt><trkpt lat="42.4128951" lon="13.323017"><ele>733.6666666666666</ele><time>2026-04-10T12:58:30.641Z</time></trkpt><trkpt lat="42.4128479" lon="13.3227819"><ele>734.0</ele><time>2026-04-10T12:58:31.652Z</time></trkpt><trkpt lat="42.4127983" lon="13.3225313"><ele>734.0</ele><time>2026-04-10T12:58:32.644Z</time></trkpt><trkpt lat="42.4127432" lon="13.322291"><ele>734.0</ele><time>2026-04-10T12:58:33.641Z</time></trkpt><trkpt lat="42.4127203" lon="13.3220313"><ele>734.0</ele><time>2026-04-10T12:58:34.643Z</time></trkpt><trkpt lat="42.4127111" lon="13.3217727"><ele>732.6666666666666</ele><time>2026-04-10T12:58:35.643Z</time></trkpt><trkpt lat="42.412715" lon="13.3214828"><ele>731.3333333333334</ele><time>2026-04-10T12:58:36.641Z</time></trkpt><trkpt lat="42.4127135" lon="13.3212028"><ele>730.0</ele><time>2026-04-10T12:58:37.643Z</time></trkpt><trkpt lat="42.4127052" lon="13.3209358"><ele>729.6666666666667</ele><time>2026-04-10T12:58:38.637Z</time></trkpt><trkpt lat="42.4126819" lon="13.3206689"><ele>729.3333333333334</ele><time>2026-04-10T12:58:39.642Z</time></trkpt><trkpt lat="42.4126504" lon="13.3204152"><ele>729.0</ele><time>2026-04-10T12:58:40.643Z</time></trkpt><trkpt lat="42.4126055" lon="13.3201845"><ele>728.3333333333334</ele><time>2026-04-10T12:58:41.644Z</time></trkpt><trkpt lat="42.4125919" lon="13.3199605"><ele>727.6666666666667</ele><time>2026-04-10T12:58:42.638Z</time></trkpt><trkpt lat="42.4126031" lon="13.3196841"><ele>727.0</ele><time>2026-04-10T12:58:43.634Z</time></trkpt><trkpt lat="42.4126204" lon="13.3194126"><ele>726.3333333333334</ele><time>2026-04-10T12:58:44.636Z</time></trkpt><trkpt lat="42.4126613" lon="13.3191616"><ele>725.6666666666666</ele><time>2026-04-10T12:58:45.647Z</time></trkpt><trkpt lat="42.4126549" lon="13.3188766"><ele>725.0</ele><time>2026-04-10T12:58:46.652Z</time></trkpt><trkpt lat="42.4126367" lon="13.3185838"><ele>723.0</ele><time>2026-04-10T12:58:47.636Z</time></trkpt><trkpt lat="42.4126308" lon="13.3183043"><ele>721.0</ele><time>2026-04-10T12:58:48.645Z</time></trkpt><trkpt lat="42.4126692" lon="13.3180259"><ele>719.0</ele><time>2026-04-10T12:58:49.643Z</time></trkpt><trkpt lat="42.4126866" lon="13.3177553"><ele>717.6666666666666</ele><time>2026-04-10T12:58:50.64Z</time></trkpt><trkpt lat="42.4127191" lon="13.3175236"><ele>716.3333333333334</ele><time>2026-04-10T12:58:51.637Z</time></trkpt><trkpt lat="42.4127539" lon="13.317301"><ele>715.0</ele><time>2026-04-10T12:58:52.637Z</time></trkpt><trkpt lat="42.4127951" lon="13.3171001"><ele>714.6</ele><time>2026-04-10T12:58:53.636Z</time></trkpt><trkpt lat="42.412832" lon="13.3169192"><ele>714.2</ele><time>2026-04-10T12:58:54.638Z</time></trkpt><trkpt lat="42.412879" lon="13.3167833"><ele>713.8</ele><time>2026-04-10T12:58:55.635Z</time></trkpt><trkpt lat="42.4129354" lon="13.3166755"><ele>713.4</ele><time>2026-04-10T12:58:56.642Z</time></trkpt><trkpt lat="42.4130224" lon="13.3166258"><ele>713.0</ele><time>2026-04-10T12:58:57.639Z</time></trkpt><trkpt lat="42.4130741" lon="13.3165633"><ele>714.2</ele><time>2026-04-10T12:58:58.636Z</time></trkpt><trkpt lat="42.4130657" lon="13.3163424"><ele>715.4</ele><time>2026-04-10T12:59:00.644Z</time></trkpt><trkpt lat="42.4130463" lon="13.31622"><ele>716.6</ele><time>2026-04-10T12:59:01.653Z</time></trkpt><trkpt lat="42.4130324" lon="13.3161018"><ele>717.8000000000001</ele><time>2026-04-10T12:59:02.64Z</time></trkpt><trkpt lat="42.4130314" lon="13.3160139"><ele>719.0</ele><time>2026-04-10T12:59:03.648Z</time></trkpt><trkpt lat="42.4130103" lon="13.3158408"><ele>719.0</ele><time>2026-04-10T12:59:05.646Z</time></trkpt><trkpt lat="42.4129931" lon="13.3157407"><ele>719.0</ele><time>2026-04-10T12:59:06.648Z</time></trkpt><trkpt lat="42.4129853" lon="13.3156049"><ele>719.0</ele><time>2026-04-10T12:59:07.644Z</time></trkpt><trkpt lat="42.4129813" lon="13.3154634"><ele>719.0</ele><time>2026-04-10T12:59:08.639Z</time></trkpt><trkpt lat="42.4129557" lon="13.3152961"><ele>719.0</ele><time>2026-04-10T12:59:09.638Z</time></trkpt><trkpt lat="42.4129283" lon="13.3151199"><ele>715.3333333333333</ele><time>2026-04-10T12:59:10.632Z</time></trkpt><trkpt lat="42.4128994" lon="13.3149301"><ele>711.6666666666666</ele><time>2026-04-10T12:59:11.641Z</time></trkpt><trkpt lat="42.4128514" lon="13.3147361"><ele>708.0</ele><time>2026-04-10T12:59:12.645Z</time></trkpt><trkpt lat="42.4127857" lon="13.3145412"><ele>708.0</ele><time>2026-04-10T12:59:13.649Z</time></trkpt><trkpt lat="42.4127145" lon="13.3143194"><ele>708.0</ele><time>2026-04-10T12:59:14.653Z</time></trkpt><trkpt lat="42.4126502" lon="13.3140982"><ele>708.0</ele><time>2026-04-10T12:59:15.648Z</time></trkpt><trkpt lat="42.4126088" lon="13.3138696"><ele>708.0</ele><time>2026-04-10T12:59:16.643Z</time></trkpt><trkpt lat="42.4125846" lon="13.3136247"><ele>708.0</ele><time>2026-04-10T12:59:17.649Z</time></trkpt><trkpt lat="42.41257" lon="13.3133752"><ele>708.0</ele><time>2026-04-10T12:59:18.648Z</time></trkpt><trkpt lat="42.4125589" lon="13.3131201"><ele>708.0</ele><time>2026-04-10T12:59:19.649Z</time></trkpt><trkpt lat="42.4125329" lon="13.3128494"><ele>708.0</ele><time>2026-04-10T12:59:20.643Z</time></trkpt><trkpt lat="42.4124909" lon="13.3125946"><ele>708.0</ele><time>2026-04-10T12:59:21.639Z</time></trkpt><trkpt lat="42.4124182" lon="13.3123456"><ele>710.3333333333334</ele><time>2026-04-10T12:59:22.645Z</time></trkpt><trkpt lat="42.4123325" lon="13.3121014"><ele>712.6666666666667</ele><time>2026-04-10T12:59:23.646Z</time></trkpt><trkpt lat="42.4122158" lon="13.3118646"><ele>715.0</ele><time>2026-04-10T12:59:24.642Z</time></trkpt><trkpt lat="42.4121" lon="13.311635"><ele>711.6666666666667</ele><time>2026-04-10T12:59:25.644Z</time></trkpt><trkpt lat="42.4119457" lon="13.3114348"><ele>708.3333333333334</ele><time>2026-04-10T12:59:26.645Z</time></trkpt><trkpt lat="42.4117938" lon="13.3112389"><ele>705.0</ele><time>2026-04-10T12:59:27.648Z</time></trkpt><trkpt lat="42.4116467" lon="13.3110351"><ele>705.0</ele><time>2026-04-10T12:59:28.647Z</time></trkpt><trkpt lat="42.4115066" lon="13.310812"><ele>705.0</ele><time>2026-04-10T12:59:29.647Z</time></trkpt><trkpt lat="42.4113837" lon="13.3105859"><ele>705.0</ele><time>2026-04-10T12:59:30.648Z</time></trkpt><trkpt lat="42.4112577" lon="13.3103659"><ele>703.3333333333334</ele><time>2026-04-10T12:59:31.657Z</time></trkpt><trkpt lat="42.4111435" lon="13.3101402"><ele>701.6666666666667</ele><time>2026-04-10T12:59:32.65Z</time></trkpt><trkpt lat="42.4110354" lon="13.3099092"><ele>700.0</ele><time>2026-04-10T12:59:33.65Z</time></trkpt><trkpt lat="42.4109233" lon="13.3096913"><ele>700.0</ele><time>2026-04-10T12:59:34.649Z</time></trkpt><trkpt lat="42.4108092" lon="13.3094609"><ele>700.0</ele><time>2026-04-10T12:59:35.649Z</time></trkpt><trkpt lat="42.4106857" lon="13.3092283"><ele>700.0</ele><time>2026-04-10T12:59:36.65Z</time></trkpt><trkpt lat="42.4105463" lon="13.3090152"><ele>697.0</ele><time>2026-04-10T12:59:37.649Z</time></trkpt><trkpt lat="42.4104176" lon="13.3088081"><ele>694.0</ele><time>2026-04-10T12:59:38.65Z</time></trkpt><trkpt lat="42.4102792" lon="13.3085922"><ele>691.0</ele><time>2026-04-10T12:59:39.651Z</time></trkpt><trkpt lat="42.4101456" lon="13.3084002"><ele>691.0</ele><time>2026-04-10T12:59:40.652Z</time></trkpt><trkpt lat="42.4100191" lon="13.3082069"><ele>691.0</ele><time>2026-04-10T12:59:41.651Z</time></trkpt><trkpt lat="42.4099005" lon="13.3080251"><ele>691.0</ele><time>2026-04-10T12:59:42.653Z</time></trkpt><trkpt lat="42.4097828" lon="13.3078456"><ele>692.0</ele><time>2026-04-10T12:59:43.65Z</time></trkpt><trkpt lat="42.4096683" lon="13.3076647"><ele>693.0</ele><time>2026-04-10T12:59:44.649Z</time></trkpt><trkpt lat="42.4095726" lon="13.3075"><ele>694.0</ele><time>2026-04-10T12:59:45.649Z</time></trkpt><trkpt lat="42.4094655" lon="13.3073419"><ele>692.25</ele><time>2026-04-10T12:59:46.651Z</time></trkpt><trkpt lat="42.4093685" lon="13.3072003"><ele>690.5</ele><time>2026-04-10T12:59:47.652Z</time></trkpt><trkpt lat="42.4092744" lon="13.3070672"><ele>688.75</ele><time>2026-04-10T12:59:48.645Z</time></trkpt><trkpt lat="42.4091778" lon="13.3069601"><ele>687.0</ele><time>2026-04-10T12:59:49.637Z</time></trkpt><trkpt lat="42.4090984" lon="13.3068624"><ele>687.0</ele><time>2026-04-10T12:59:50.645Z</time></trkpt><trkpt lat="42.4090165" lon="13.3067654"><ele>687.0</ele><time>2026-04-10T12:59:51.64Z</time></trkpt><trkpt lat="42.4089888" lon="13.3066587"><ele>687.0</ele><time>2026-04-10T12:59:52.65Z</time></trkpt><trkpt lat="42.4090079" lon="13.3065685"><ele>687.0</ele><time>2026-04-10T12:59:53.644Z</time></trkpt><trkpt lat="42.4090485" lon="13.3065009"><ele>687.0</ele><time>2026-04-10T12:59:54.646Z</time></trkpt><trkpt lat="42.409116" lon="13.3064677"><ele>687.0</ele><time>2026-04-10T12:59:55.631Z</time></trkpt><trkpt lat="42.4091895" lon="13.3064413"><ele>687.0</ele><time>2026-04-10T12:59:56.628Z</time></trkpt><trkpt lat="42.4092853" lon="13.3064248"><ele>687.0</ele><time>2026-04-10T12:59:57.622Z</time></trkpt><trkpt lat="42.4093924" lon="13.3064005"><ele>687.0</ele><time>2026-04-10T12:59:58.639Z</time></trkpt><trkpt lat="42.4095054" lon="13.3063786"><ele>687.0</ele><time>2026-04-10T12:59:59.624Z</time></trkpt><trkpt lat="42.4096192" lon="13.3063554"><ele>687.0</ele><time>2026-04-10T13:00:00.632Z</time></trkpt><trkpt lat="42.4097357" lon="13.3063269"><ele>685.5</ele><time>2026-04-10T13:00:01.627Z</time></trkpt><trkpt lat="42.4098639" lon="13.3062986"><ele>684.0</ele><time>2026-04-10T13:00:02.622Z</time></trkpt><trkpt lat="42.4099941" lon="13.3062666"><ele>682.5</ele><time>2026-04-10T13:00:03.622Z</time></trkpt><trkpt lat="42.4101278" lon="13.3062317"><ele>681.0</ele><time>2026-04-10T13:00:04.642Z</time></trkpt><trkpt lat="42.4102629" lon="13.3062082"><ele>681.0</ele><time>2026-04-10T13:00:05.633Z</time></trkpt><trkpt lat="42.4104038" lon="13.3061862"><ele>681.0</ele><time>2026-04-10T13:00:06.635Z</time></trkpt><trkpt lat="42.4105535" lon="13.3061729"><ele>681.0</ele><time>2026-04-10T13:00:07.637Z</time></trkpt><trkpt lat="42.4107028" lon="13.3061597"><ele>681.0</ele><time>2026-04-10T13:00:08.637Z</time></trkpt><trkpt lat="42.4108529" lon="13.3061326"><ele>682.0</ele><time>2026-04-10T13:00:09.656Z</time></trkpt><trkpt lat="42.4110046" lon="13.3061141"><ele>683.0</ele><time>2026-04-10T13:00:10.715Z</time></trkpt><trkpt lat="42.4111577" lon="13.3060967"><ele>684.0</ele><time>2026-04-10T13:00:11.716Z</time></trkpt><trkpt lat="42.411318" lon="13.3060743"><ele>684.6666666666666</ele><time>2026-04-10T13:00:12.718Z</time></trkpt><trkpt lat="42.4114773" lon="13.3060432"><ele>685.3333333333333</ele><time>2026-04-10T13:00:13.716Z</time></trkpt><trkpt lat="42.4116351" lon="13.3060007"><ele>686.0</ele><time>2026-04-10T13:00:14.724Z</time></trkpt><trkpt lat="42.4117919" lon="13.3059486"><ele>686.0</ele><time>2026-04-10T13:00:15.725Z</time></trkpt><trkpt lat="42.4119555" lon="13.3058898"><ele>686.0</ele><time>2026-04-10T13:00:16.726Z</time></trkpt><trkpt lat="42.4121148" lon="13.3058308"><ele>686.0</ele><time>2026-04-10T13:00:17.727Z</time></trkpt><trkpt lat="42.4122729" lon="13.3057702"><ele>685.3333333333333</ele><time>2026-04-10T13:00:18.728Z</time></trkpt><trkpt lat="42.4124364" lon="13.3057039"><ele>684.6666666666666</ele><time>2026-04-10T13:00:19.721Z</time></trkpt><trkpt lat="42.4126002" lon="13.30564"><ele>684.0</ele><time>2026-04-10T13:00:20.724Z</time></trkpt><trkpt lat="42.4127719" lon="13.3055751"><ele>684.0</ele><time>2026-04-10T13:00:21.735Z</time></trkpt><trkpt lat="42.4129514" lon="13.3055076"><ele>684.0</ele><time>2026-04-10T13:00:22.731Z</time></trkpt><trkpt lat="42.4131397" lon="13.3054314"><ele>684.0</ele><time>2026-04-10T13:00:23.731Z</time></trkpt><trkpt lat="42.4133307" lon="13.3053539"><ele>685.0</ele><time>2026-04-10T13:00:24.726Z</time></trkpt><trkpt lat="42.4135237" lon="13.305282"><ele>686.0</ele><time>2026-04-10T13:00:25.734Z</time></trkpt><trkpt lat="42.4137087" lon="13.3052194"><ele>687.0</ele><time>2026-04-10T13:00:26.734Z</time></trkpt><trkpt lat="42.4138861" lon="13.3051631"><ele>687.6666666666666</ele><time>2026-04-10T13:00:27.731Z</time></trkpt><trkpt lat="42.4140516" lon="13.3051073"><ele>688.3333333333333</ele><time>2026-04-10T13:00:28.731Z</time></trkpt><trkpt lat="42.4142092" lon="13.3050499"><ele>689.0</ele><time>2026-04-10T13:00:29.728Z</time></trkpt><trkpt lat="42.4143577" lon="13.3049876"><ele>689.0</ele><time>2026-04-10T13:00:30.73Z</time></trkpt><trkpt lat="42.4145053" lon="13.3049188"><ele>689.0</ele><time>2026-04-10T13:00:31.728Z</time></trkpt><trkpt lat="42.4146431" lon="13.3048487"><ele>689.0</ele><time>2026-04-10T13:00:32.729Z</time></trkpt><trkpt lat="42.4147833" lon="13.3047738"><ele>689.0</ele><time>2026-04-10T13:00:33.725Z</time></trkpt><trkpt lat="42.4149194" lon="13.3046995"><ele>689.0</ele><time>2026-04-10T13:00:34.722Z</time></trkpt><trkpt lat="42.4150495" lon="13.304626"><ele>689.0</ele><time>2026-04-10T13:00:35.717Z</time></trkpt><trkpt lat="42.4151828" lon="13.3045521"><ele>689.0</ele><time>2026-04-10T13:00:36.72Z</time></trkpt><trkpt lat="42.4153147" lon="13.3044741"><ele>689.0</ele><time>2026-04-10T13:00:37.717Z</time></trkpt><trkpt lat="42.4154452" lon="13.3043911"><ele>689.0</ele><time>2026-04-10T13:00:38.721Z</time></trkpt><trkpt lat="42.4155781" lon="13.304299"><ele>689.0</ele><time>2026-04-10T13:00:39.718Z</time></trkpt><trkpt lat="42.4157056" lon="13.3042058"><ele>689.0</ele><time>2026-04-10T13:00:40.718Z</time></trkpt><trkpt lat="42.4158211" lon="13.304113"><ele>688.25</ele><time>2026-04-10T13:00:41.718Z</time></trkpt><trkpt lat="42.4159299" lon="13.304016"><ele>687.5</ele><time>2026-04-10T13:00:42.716Z</time></trkpt><trkpt lat="42.4160389" lon="13.3039223"><ele>686.75</ele><time>2026-04-10T13:00:43.716Z</time></trkpt><trkpt lat="42.4161575" lon="13.3038293"><ele>686.0</ele><time>2026-04-10T13:00:44.717Z</time></trkpt><trkpt lat="42.4162725" lon="13.3037408"><ele>688.25</ele><time>2026-04-10T13:00:45.716Z</time></trkpt><trkpt lat="42.4163826" lon="13.3036602"><ele>690.5</ele><time>2026-04-10T13:00:46.717Z</time></trkpt><trkpt lat="42.4164896" lon="13.3035965"><ele>692.75</ele><time>2026-04-10T13:00:47.718Z</time></trkpt><trkpt lat="42.4166009" lon="13.3035504"><ele>695.0</ele><time>2026-04-10T13:00:48.707Z</time></trkpt><trkpt lat="42.4167091" lon="13.30354"><ele>695.0</ele><time>2026-04-10T13:00:49.707Z</time></trkpt><trkpt lat="42.4168149" lon="13.3035396"><ele>695.0</ele><time>2026-04-10T13:00:50.699Z</time></trkpt><trkpt lat="42.4169152" lon="13.3035485"><ele>695.0</ele><time>2026-04-10T13:00:51.698Z</time></trkpt><trkpt lat="42.417019" lon="13.3035937"><ele>695.0</ele><time>2026-04-10T13:00:52.615Z</time></trkpt><trkpt lat="42.4171073" lon="13.303631"><ele>695.0</ele><time>2026-04-10T13:00:53.609Z</time></trkpt><trkpt lat="42.4171818" lon="13.3036323"><ele>694.8</ele><time>2026-04-10T13:00:55.618Z</time></trkpt><trkpt lat="42.4172445" lon="13.303618"><ele>694.6</ele><time>2026-04-10T13:00:56.622Z</time></trkpt><trkpt lat="42.4173781" lon="13.3036326"><ele>694.4000000000001</ele><time>2026-04-10T13:00:58.626Z</time></trkpt><trkpt lat="42.4174589" lon="13.3036047"><ele>694.2</ele><time>2026-04-10T13:00:59.622Z</time></trkpt><trkpt lat="42.4175384" lon="13.3035195"><ele>694.0</ele><time>2026-04-10T13:01:00.626Z</time></trkpt><trkpt lat="42.417589" lon="13.3034093"><ele>694.0</ele><time>2026-04-10T13:01:01.622Z</time></trkpt><trkpt lat="42.4176262" lon="13.3033122"><ele>694.0</ele><time>2026-04-10T13:01:02.618Z</time></trkpt><trkpt lat="42.4176282" lon="13.3031946"><ele>694.0</ele><time>2026-04-10T13:01:03.615Z</time></trkpt><trkpt lat="42.4176008" lon="13.3030852"><ele>694.0</ele><time>2026-04-10T13:01:04.613Z</time></trkpt><trkpt lat="42.4175091" lon="13.3029701"><ele>694.0</ele><time>2026-04-10T13:01:05.616Z</time></trkpt><trkpt lat="42.4174127" lon="13.302854"><ele>692.5</ele><time>2026-04-10T13:01:06.614Z</time></trkpt><trkpt lat="42.4173324" lon="13.3027352"><ele>691.0</ele><time>2026-04-10T13:01:07.617Z</time></trkpt><trkpt lat="42.4172424" lon="13.3025906"><ele>689.5</ele><time>2026-04-10T13:01:08.611Z</time></trkpt><trkpt lat="42.4171678" lon="13.3024569"><ele>688.0</ele><time>2026-04-10T13:01:09.63Z</time></trkpt><trkpt lat="42.4170872" lon="13.3023366"><ele>687.0</ele><time>2026-04-10T13:01:10.634Z</time></trkpt><trkpt lat="42.417018" lon="13.3022129"><ele>686.0</ele><time>2026-04-10T13:01:11.633Z</time></trkpt><trkpt lat="42.4169593" lon="13.3020863"><ele>685.0</ele><time>2026-04-10T13:01:12.635Z</time></trkpt><trkpt lat="42.4169094" lon="13.3019513"><ele>684.0</ele><time>2026-04-10T13:01:13.637Z</time></trkpt><trkpt lat="42.4168708" lon="13.3018061"><ele>684.0</ele><time>2026-04-10T13:01:14.636Z</time></trkpt><trkpt lat="42.4168621" lon="13.3016478"><ele>684.0</ele><time>2026-04-10T13:01:15.632Z</time></trkpt><trkpt lat="42.4168685" lon="13.3014851"><ele>684.0</ele><time>2026-04-10T13:01:16.642Z</time></trkpt><trkpt lat="42.4169059" lon="13.3013135"><ele>684.0</ele><time>2026-04-10T13:01:17.632Z</time></trkpt><trkpt lat="42.4169603" lon="13.3011461"><ele>684.4000000000001</ele><time>2026-04-10T13:01:18.626Z</time></trkpt><trkpt lat="42.4170205" lon="13.3009945"><ele>684.8</ele><time>2026-04-10T13:01:19.621Z</time></trkpt><trkpt lat="42.4170959" lon="13.3008909"><ele>685.2</ele><time>2026-04-10T13:01:20.63Z</time></trkpt><trkpt lat="42.4171588" lon="13.3008148"><ele>685.5999999999999</ele><time>2026-04-10T13:01:21.634Z</time></trkpt><trkpt lat="42.417217" lon="13.3007815"><ele>686.0</ele><time>2026-04-10T13:01:22.625Z</time></trkpt><trkpt lat="42.4173258" lon="13.3008172"><ele>685.1999999999999</ele><time>2026-04-10T13:01:24.634Z</time></trkpt><trkpt lat="42.417382" lon="13.3008955"><ele>684.4</ele><time>2026-04-10T13:01:25.623Z</time></trkpt><trkpt lat="42.4174474" lon="13.3009895"><ele>683.6</ele><time>2026-04-10T13:01:26.624Z</time></trkpt><trkpt lat="42.4175348" lon="13.3010754"><ele>682.8</ele><time>2026-04-10T13:01:27.625Z</time></trkpt><trkpt lat="42.4176325" lon="13.3011844"><ele>682.0</ele><time>2026-04-10T13:01:28.63Z</time></trkpt><trkpt lat="42.417726" lon="13.3012901"><ele>682.0</ele><time>2026-04-10T13:01:29.62Z</time></trkpt><trkpt lat="42.41782" lon="13.3014074"><ele>682.0</ele><time>2026-04-10T13:01:30.636Z</time></trkpt><trkpt lat="42.4179208" lon="13.3015001"><ele>682.0</ele><time>2026-04-10T13:01:31.63Z</time></trkpt><trkpt lat="42.4180447" lon="13.3015698"><ele>682.0</ele><time>2026-04-10T13:01:32.627Z</time></trkpt><trkpt lat="42.4181776" lon="13.301619"><ele>683.25</ele><time>2026-04-10T13:01:33.628Z</time></trkpt><trkpt lat="42.4183066" lon="13.3016299"><ele>684.5</ele><time>2026-04-10T13:01:34.627Z</time></trkpt><trkpt lat="42.4184443" lon="13.3015957"><ele>685.75</ele><time>2026-04-10T13:01:35.639Z</time></trkpt><trkpt lat="42.4185824" lon="13.3015259"><ele>687.0</ele><time>2026-04-10T13:01:36.629Z</time></trkpt><trkpt lat="42.418698" lon="13.3014611"><ele>687.0</ele><time>2026-04-10T13:01:37.633Z</time></trkpt><trkpt lat="42.4187955" lon="13.3014096"><ele>687.0</ele><time>2026-04-10T13:01:38.637Z</time></trkpt><trkpt lat="42.4188836" lon="13.3013728"><ele>687.0</ele><time>2026-04-10T13:01:39.635Z</time></trkpt><trkpt lat="42.4189722" lon="13.3013475"><ele>687.0</ele><time>2026-04-10T13:01:40.636Z</time></trkpt><trkpt lat="42.4190791" lon="13.3013062"><ele>687.0</ele><time>2026-04-10T13:01:41.631Z</time></trkpt><trkpt lat="42.419216" lon="13.3012451"><ele>687.0</ele><time>2026-04-10T13:01:42.636Z</time></trkpt><trkpt lat="42.4193684" lon="13.3011841"><ele>687.0</ele><time>2026-04-10T13:01:43.633Z</time></trkpt><trkpt lat="42.4195306" lon="13.3010751"><ele>687.0</ele><time>2026-04-10T13:01:44.646Z</time></trkpt><trkpt lat="42.4196788" lon="13.3009823"><ele>687.3333333333334</ele><time>2026-04-10T13:01:45.645Z</time></trkpt><trkpt lat="42.4198311" lon="13.3009086"><ele>687.6666666666667</ele><time>2026-04-10T13:01:46.642Z</time></trkpt><trkpt lat="42.4199807" lon="13.3008196"><ele>688.0</ele><time>2026-04-10T13:01:47.633Z</time></trkpt><trkpt lat="42.4200933" lon="13.3007455"><ele>688.0</ele><time>2026-04-10T13:01:48.64Z</time></trkpt><trkpt lat="42.4202063" lon="13.3006898"><ele>688.0</ele><time>2026-04-10T13:01:49.641Z</time></trkpt><trkpt lat="42.4203147" lon="13.3006404"><ele>688.0</ele><time>2026-04-10T13:01:50.645Z</time></trkpt><trkpt lat="42.4204309" lon="13.3005899"><ele>688.0</ele><time>2026-04-10T13:01:51.639Z</time></trkpt><trkpt lat="42.4205312" lon="13.3005239"><ele>688.0</ele><time>2026-04-10T13:01:52.649Z</time></trkpt><trkpt lat="42.4206531" lon="13.3004721"><ele>688.0</ele><time>2026-04-10T13:01:53.652Z</time></trkpt><trkpt lat="42.4207612" lon="13.3004266"><ele>688.0</ele><time>2026-04-10T13:01:54.654Z</time></trkpt><trkpt lat="42.4208896" lon="13.3003687"><ele>688.0</ele><time>2026-04-10T13:01:55.651Z</time></trkpt><trkpt lat="42.4210087" lon="13.3002941"><ele>688.0</ele><time>2026-04-10T13:01:56.657Z</time></trkpt><trkpt lat="42.4211308" lon="13.3002245"><ele>688.0</ele><time>2026-04-10T13:01:57.647Z</time></trkpt><trkpt lat="42.4212457" lon="13.300155"><ele>688.0</ele><time>2026-04-10T13:01:58.649Z</time></trkpt><trkpt lat="42.4213757" lon="13.3000814"><ele>688.0</ele><time>2026-04-10T13:01:59.651Z</time></trkpt><trkpt lat="42.4214939" lon="13.2999956"><ele>689.0</ele><time>2026-04-10T13:02:00.646Z</time></trkpt><trkpt lat="42.4216251" lon="13.2999196"><ele>690.0</ele><time>2026-04-10T13:02:01.648Z</time></trkpt><trkpt lat="42.4217696" lon="13.2998594"><ele>691.0</ele><time>2026-04-10T13:02:02.641Z</time></trkpt><trkpt lat="42.4219221" lon="13.2997952"><ele>690.75</ele><time>2026-04-10T13:02:03.646Z</time></trkpt><trkpt lat="42.4220694" lon="13.2997227"><ele>690.5</ele><time>2026-04-10T13:02:04.651Z</time></trkpt><trkpt lat="42.4222172" lon="13.2996574"><ele>690.25</ele><time>2026-04-10T13:02:05.641Z</time></trkpt><trkpt lat="42.422347" lon="13.2996354"><ele>690.0</ele><time>2026-04-10T13:02:06.639Z</time></trkpt><trkpt lat="42.4225068" lon="13.2996118"><ele>689.3333333333334</ele><time>2026-04-10T13:02:07.632Z</time></trkpt><trkpt lat="42.422669" lon="13.2995734"><ele>688.6666666666667</ele><time>2026-04-10T13:02:08.637Z</time></trkpt><trkpt lat="42.422811" lon="13.2995584"><ele>688.0</ele><time>2026-04-10T13:02:09.647Z</time></trkpt><trkpt lat="42.4229558" lon="13.2995463"><ele>688.75</ele><time>2026-04-10T13:02:10.637Z</time></trkpt><trkpt lat="42.4230798" lon="13.2995417"><ele>689.5</ele><time>2026-04-10T13:02:11.641Z</time></trkpt><trkpt lat="42.4232061" lon="13.29954"><ele>690.25</ele><time>2026-04-10T13:02:12.641Z</time></trkpt><trkpt lat="42.4233211" lon="13.2995146"><ele>691.0</ele><time>2026-04-10T13:02:13.634Z</time></trkpt><trkpt lat="42.4234345" lon="13.2995062"><ele>691.0</ele><time>2026-04-10T13:02:14.638Z</time></trkpt><trkpt lat="42.4235526" lon="13.2994746"><ele>691.0</ele><time>2026-04-10T13:02:15.65Z</time></trkpt><trkpt lat="42.4236422" lon="13.2994263"><ele>691.0</ele><time>2026-04-10T13:02:16.651Z</time></trkpt><trkpt lat="42.4237339" lon="13.2993893"><ele>691.0</ele><time>2026-04-10T13:02:17.646Z</time></trkpt><trkpt lat="42.4238404" lon="13.2992861"><ele>691.0</ele><time>2026-04-10T13:02:19.642Z</time></trkpt><trkpt lat="42.4238796" lon="13.2992089"><ele>690.8333333333334</ele><time>2026-04-10T13:02:20.644Z</time></trkpt><trkpt lat="42.4239032" lon="13.2991202"><ele>690.6666666666667</ele><time>2026-04-10T13:02:21.636Z</time></trkpt><trkpt lat="42.4239053" lon="13.2990282"><ele>690.5</ele><time>2026-04-10T13:02:22.638Z</time></trkpt><trkpt lat="42.4238885" lon="13.298931"><ele>690.3333333333334</ele><time>2026-04-10T13:02:23.635Z</time></trkpt><trkpt lat="42.4238623" lon="13.2987618"><ele>690.1666666666666</ele><time>2026-04-10T13:02:25.641Z</time></trkpt><trkpt lat="42.4238403" lon="13.298659"><ele>690.0</ele><time>2026-04-10T13:02:26.64Z</time></trkpt><trkpt lat="42.4237935" lon="13.2985376"><ele>689.4</ele><time>2026-04-10T13:02:27.645Z</time></trkpt><trkpt lat="42.4237517" lon="13.2984243"><ele>688.8</ele><time>2026-04-10T13:02:28.65Z</time></trkpt><trkpt lat="42.4237187" lon="13.2983148"><ele>688.2</ele><time>2026-04-10T13:02:29.643Z</time></trkpt><trkpt lat="42.4236948" lon="13.2982058"><ele>687.6</ele><time>2026-04-10T13:02:30.644Z</time></trkpt><trkpt lat="42.4236741" lon="13.298088"><ele>687.0</ele><time>2026-04-10T13:02:31.647Z</time></trkpt><trkpt lat="42.4236577" lon="13.2979555"><ele>687.0</ele><time>2026-04-10T13:02:32.647Z</time></trkpt><trkpt lat="42.4236532" lon="13.2978303"><ele>687.0</ele><time>2026-04-10T13:02:33.64Z</time></trkpt><trkpt lat="42.4236572" lon="13.2976953"><ele>687.0</ele><time>2026-04-10T13:02:34.644Z</time></trkpt><trkpt lat="42.4236631" lon="13.2975595"><ele>687.0</ele><time>2026-04-10T13:02:35.639Z</time></trkpt><trkpt lat="42.423668" lon="13.2974178"><ele>687.0</ele><time>2026-04-10T13:02:36.638Z</time></trkpt><trkpt lat="42.4236833" lon="13.2972654"><ele>687.2</ele><time>2026-04-10T13:02:37.631Z</time></trkpt><trkpt lat="42.4237063" lon="13.2971149"><ele>687.4000000000001</ele><time>2026-04-10T13:02:38.636Z</time></trkpt><trkpt lat="42.4237263" lon="13.2969668"><ele>687.5999999999999</ele><time>2026-04-10T13:02:39.633Z</time></trkpt><trkpt lat="42.4237473" lon="13.2968245"><ele>687.8</ele><time>2026-04-10T13:02:40.636Z</time></trkpt><trkpt lat="42.4237769" lon="13.296687"><ele>688.0</ele><time>2026-04-10T13:02:41.628Z</time></trkpt><trkpt lat="42.4238273" lon="13.2965683"><ele>688.0</ele><time>2026-04-10T13:02:42.637Z</time></trkpt><trkpt lat="42.423878" lon="13.2964702"><ele>688.0</ele><time>2026-04-10T13:02:43.629Z</time></trkpt><trkpt lat="42.4239263" lon="13.2963689"><ele>688.0</ele><time>2026-04-10T13:02:44.631Z</time></trkpt><trkpt lat="42.4239833" lon="13.2962609"><ele>688.0</ele><time>2026-04-10T13:02:45.643Z</time></trkpt><trkpt lat="42.4240478" lon="13.2961484"><ele>688.0</ele><time>2026-04-10T13:02:46.648Z</time></trkpt><trkpt lat="42.4241139" lon="13.2960294"><ele>688.25</ele><time>2026-04-10T13:02:47.648Z</time></trkpt><trkpt lat="42.4241823" lon="13.2959133"><ele>688.5</ele><time>2026-04-10T13:02:48.645Z</time></trkpt><trkpt lat="42.4242467" lon="13.2957955"><ele>688.75</ele><time>2026-04-10T13:02:49.647Z</time></trkpt><trkpt lat="42.4243112" lon="13.2956642"><ele>689.0</ele><time>2026-04-10T13:02:50.648Z</time></trkpt><trkpt lat="42.424383" lon="13.2955346"><ele>689.0</ele><time>2026-04-10T13:02:51.65Z</time></trkpt><trkpt lat="42.4244572" lon="13.2953949"><ele>689.0</ele><time>2026-04-10T13:02:52.646Z</time></trkpt><trkpt lat="42.4245319" lon="13.2952481"><ele>689.0</ele><time>2026-04-10T13:02:53.651Z</time></trkpt><trkpt lat="42.4246213" lon="13.2951056"><ele>689.0</ele><time>2026-04-10T13:02:54.654Z</time></trkpt><trkpt lat="42.424708" lon="13.2949776"><ele>689.0</ele><time>2026-04-10T13:02:55.654Z</time></trkpt><trkpt lat="42.4247889" lon="13.2948613"><ele>689.0</ele><time>2026-04-10T13:02:56.652Z</time></trkpt><trkpt lat="42.424878" lon="13.2947656"><ele>689.0</ele><time>2026-04-10T13:02:57.652Z</time></trkpt><trkpt lat="42.4249741" lon="13.2946808"><ele>689.0</ele><time>2026-04-10T13:02:58.645Z</time></trkpt><trkpt lat="42.4250747" lon="13.294619"><ele>689.6</ele><time>2026-04-10T13:02:59.64Z</time></trkpt><trkpt lat="42.4251704" lon="13.2945727"><ele>690.2</ele><time>2026-04-10T13:03:00.642Z</time></trkpt><trkpt lat="42.4252476" lon="13.2945162"><ele>690.8000000000001</ele><time>2026-04-10T13:03:01.638Z</time></trkpt><trkpt lat="42.4253028" lon="13.294449"><ele>691.4000000000001</ele><time>2026-04-10T13:03:02.64Z</time></trkpt><trkpt lat="42.4253704" lon="13.2943606"><ele>692.0</ele><time>2026-04-10T13:03:03.632Z</time></trkpt><trkpt lat="42.4254271" lon="13.2942258"><ele>692.0</ele><time>2026-04-10T13:03:04.633Z</time></trkpt><trkpt lat="42.4254782" lon="13.2940784"><ele>692.0</ele><time>2026-04-10T13:03:05.64Z</time></trkpt><trkpt lat="42.4255288" lon="13.2939517"><ele>692.0</ele><time>2026-04-10T13:03:06.648Z</time></trkpt><trkpt lat="42.4255687" lon="13.2938453"><ele>692.0</ele><time>2026-04-10T13:03:07.636Z</time></trkpt><trkpt lat="42.425598" lon="13.2937546"><ele>692.0</ele><time>2026-04-10T13:03:08.637Z</time></trkpt><trkpt lat="42.4255873" lon="13.2936081"><ele>691.8</ele><time>2026-04-10T13:03:10.639Z</time></trkpt><trkpt lat="42.425532" lon="13.2935596"><ele>691.6</ele><time>2026-04-10T13:03:11.635Z</time></trkpt><trkpt lat="42.4254587" lon="13.2935203"><ele>691.4</ele><time>2026-04-10T13:03:12.642Z</time></trkpt><trkpt lat="42.4253611" lon="13.2934415"><ele>691.1999999999999</ele><time>2026-04-10T13:03:13.64Z</time></trkpt><trkpt lat="42.4252762" lon="13.29336"><ele>691.0</ele><time>2026-04-10T13:03:14.637Z</time></trkpt><trkpt lat="42.425213" lon="13.2932645"><ele>691.0</ele><time>2026-04-10T13:03:15.629Z</time></trkpt><trkpt lat="42.4251348" lon="13.2931847"><ele>691.0</ele><time>2026-04-10T13:03:16.631Z</time></trkpt><trkpt lat="42.4250473" lon="13.2930881"><ele>691.0</ele><time>2026-04-10T13:03:17.63Z</time></trkpt><trkpt lat="42.4249599" lon="13.2929942"><ele>691.0</ele><time>2026-04-10T13:03:18.639Z</time></trkpt><trkpt lat="42.4248755" lon="13.29291"><ele>691.0</ele><time>2026-04-10T13:03:19.634Z</time></trkpt><trkpt lat="42.4248067" lon="13.2928351"><ele>691.1666666666667</ele><time>2026-04-10T13:03:20.634Z</time></trkpt><trkpt lat="42.4247599" lon="13.2927371"><ele>691.3333333333334</ele><time>2026-04-10T13:03:21.626Z</time></trkpt><trkpt lat="42.4247316" lon="13.2926422"><ele>691.5</ele><time>2026-04-10T13:03:22.628Z</time></trkpt><trkpt lat="42.4247313" lon="13.2925533"><ele>691.6666666666666</ele><time>2026-04-10T13:03:23.627Z</time></trkpt><trkpt lat="42.4247857" lon="13.292408"><ele>691.8333333333333</ele><time>2026-04-10T13:03:25.625Z</time></trkpt><trkpt lat="42.4248502" lon="13.2923524"><ele>692.0</ele><time>2026-04-10T13:03:26.627Z</time></trkpt><trkpt lat="42.424961" lon="13.2923063"><ele>692.0</ele><time>2026-04-10T13:03:27.626Z</time></trkpt><trkpt lat="42.4250631" lon="13.2922572"><ele>692.0</ele><time>2026-04-10T13:03:28.63Z</time></trkpt><trkpt lat="42.4251603" lon="13.292201"><ele>692.0</ele><time>2026-04-10T13:03:29.634Z</time></trkpt><trkpt lat="42.4252436" lon="13.2921431"><ele>692.0</ele><time>2026-04-10T13:03:30.636Z</time></trkpt><trkpt lat="42.4253153" lon="13.2920648"><ele>692.0</ele><time>2026-04-10T13:03:31.627Z</time></trkpt><trkpt lat="42.4253841" lon="13.291987"><ele>692.2</ele><time>2026-04-10T13:03:32.634Z</time></trkpt><trkpt lat="42.425445" lon="13.2919006"><ele>692.4000000000001</ele><time>2026-04-10T13:03:33.632Z</time></trkpt><trkpt lat="42.4255106" lon="13.2918059"><ele>692.5999999999999</ele><time>2026-04-10T13:03:34.632Z</time></trkpt><trkpt lat="42.4255698" lon="13.2917193"><ele>692.8</ele><time>2026-04-10T13:03:35.636Z</time></trkpt><trkpt lat="42.4256388" lon="13.2916332"><ele>693.0</ele><time>2026-04-10T13:03:36.634Z</time></trkpt><trkpt lat="42.4256878" lon="13.2915395"><ele>693.0</ele><time>2026-04-10T13:03:37.641Z</time></trkpt><trkpt lat="42.4257351" lon="13.2914452"><ele>693.0</ele><time>2026-04-10T13:03:38.634Z</time></trkpt><trkpt lat="42.42578" lon="13.2913756"><ele>693.0</ele><time>2026-04-10T13:03:39.636Z</time></trkpt><trkpt lat="42.42583" lon="13.2912846"><ele>693.0</ele><time>2026-04-10T13:03:40.64Z</time></trkpt><trkpt lat="42.425889" lon="13.2911928"><ele>693.0</ele><time>2026-04-10T13:03:41.638Z</time></trkpt><trkpt lat="42.4259551" lon="13.291097"><ele>693.0</ele><time>2026-04-10T13:03:42.64Z</time></trkpt><trkpt lat="42.4260138" lon="13.2910093"><ele>692.8333333333334</ele><time>2026-04-10T13:03:43.648Z</time></trkpt><trkpt lat="42.4260709" lon="13.2909149"><ele>692.6666666666666</ele><time>2026-04-10T13:03:44.648Z</time></trkpt><trkpt lat="42.4261266" lon="13.2908358"><ele>692.5</ele><time>2026-04-10T13:03:45.642Z</time></trkpt><trkpt lat="42.4262015" lon="13.2907802"><ele>692.3333333333333</ele><time>2026-04-10T13:03:46.645Z</time></trkpt><trkpt lat="42.4262718" lon="13.2907276"><ele>692.1666666666666</ele><time>2026-04-10T13:03:47.645Z</time></trkpt><trkpt lat="42.4263407" lon="13.2906592"><ele>692.0</ele><time>2026-04-10T13:03:48.643Z</time></trkpt><trkpt lat="42.4264092" lon="13.2905684"><ele>692.0</ele><time>2026-04-10T13:03:49.638Z</time></trkpt><trkpt lat="42.426489" lon="13.2904815"><ele>692.0</ele><time>2026-04-10T13:03:50.639Z</time></trkpt><trkpt lat="42.4265873" lon="13.290395"><ele>692.0</ele><time>2026-04-10T13:03:51.639Z</time></trkpt><trkpt lat="42.4266996" lon="13.2903021"><ele>692.0</ele><time>2026-04-10T13:03:52.649Z</time></trkpt><trkpt lat="42.4268092" lon="13.2901972"><ele>692.0</ele><time>2026-04-10T13:03:53.645Z</time></trkpt><trkpt lat="42.426912" lon="13.2901132"><ele>692.0</ele><time>2026-04-10T13:03:54.635Z</time></trkpt><trkpt lat="42.4270104" lon="13.2900414"><ele>692.0</ele><time>2026-04-10T13:03:55.641Z</time></trkpt><trkpt lat="42.4271037" lon="13.2899873"><ele>692.0</ele><time>2026-04-10T13:03:56.644Z</time></trkpt><trkpt lat="42.4271759" lon="13.2899406"><ele>692.0</ele><time>2026-04-10T13:03:57.629Z</time></trkpt><trkpt lat="42.4272289" lon="13.2898901"><ele>692.6666666666666</ele><time>2026-04-10T13:03:58.627Z</time></trkpt><trkpt lat="42.4272919" lon="13.2898516"><ele>693.3333333333333</ele><time>2026-04-10T13:03:59.634Z</time></trkpt><trkpt lat="42.4273725" lon="13.2898277"><ele>694.0</ele><time>2026-04-10T13:04:00.631Z</time></trkpt><trkpt lat="42.427452" lon="13.2897988"><ele>694.6666666666666</ele><time>2026-04-10T13:04:01.631Z</time></trkpt><trkpt lat="42.4275273" lon="13.2897359"><ele>695.3333333333334</ele><time>2026-04-10T13:04:02.634Z</time></trkpt><trkpt lat="42.4275878" lon="13.2896328"><ele>696.0</ele><time>2026-04-10T13:04:03.64Z</time></trkpt><trkpt lat="42.4276572" lon="13.2895287"><ele>696.1666666666666</ele><time>2026-04-10T13:04:04.637Z</time></trkpt><trkpt lat="42.4277302" lon="13.2894395"><ele>696.3333333333334</ele><time>2026-04-10T13:04:05.64Z</time></trkpt><trkpt lat="42.4277997" lon="13.2893534"><ele>696.5</ele><time>2026-04-10T13:04:06.635Z</time></trkpt><trkpt lat="42.4278572" lon="13.2892642"><ele>696.6666666666667</ele><time>2026-04-10T13:04:07.636Z</time></trkpt><trkpt lat="42.427901" lon="13.2891773"><ele>696.8333333333334</ele><time>2026-04-10T13:04:08.642Z</time></trkpt><trkpt lat="42.4279056" lon="13.2890819"><ele>697.0</ele><time>2026-04-10T13:04:09.628Z</time></trkpt><trkpt lat="42.4279038" lon="13.2889647"><ele>697.1666666666667</ele><time>2026-04-10T13:04:10.648Z</time></trkpt><trkpt lat="42.4279103" lon="13.2888481"><ele>697.3333333333334</ele><time>2026-04-10T13:04:11.632Z</time></trkpt><trkpt lat="42.4279317" lon="13.2887469"><ele>697.5</ele><time>2026-04-10T13:04:12.639Z</time></trkpt><trkpt lat="42.4279529" lon="13.2886463"><ele>697.6666666666666</ele><time>2026-04-10T13:04:13.627Z</time></trkpt><trkpt lat="42.4280323" lon="13.288569"><ele>697.8333333333333</ele><time>2026-04-10T13:04:14.638Z</time></trkpt><trkpt lat="42.4281239" lon="13.2884981"><ele>698.0</ele><time>2026-04-10T13:04:15.632Z</time></trkpt><trkpt lat="42.4282134" lon="13.288427"><ele>698.0</ele><time>2026-04-10T13:04:16.628Z</time></trkpt><trkpt lat="42.4283065" lon="13.2883578"><ele>698.0</ele><time>2026-04-10T13:04:17.635Z</time></trkpt><trkpt lat="42.4284093" lon="13.2882851"><ele>698.0</ele><time>2026-04-10T13:04:18.634Z</time></trkpt><trkpt lat="42.4285195" lon="13.2882172"><ele>698.0</ele><time>2026-04-10T13:04:19.63Z</time></trkpt><trkpt lat="42.4286189" lon="13.2881635"><ele>698.0</ele><time>2026-04-10T13:04:20.635Z</time></trkpt><trkpt lat="42.4287014" lon="13.2881274"><ele>698.0</ele><time>2026-04-10T13:04:21.627Z</time></trkpt><trkpt lat="42.4287732" lon="13.2880927"><ele>698.0</ele><time>2026-04-10T13:04:22.628Z</time></trkpt><trkpt lat="42.4288169" lon="13.2880302"><ele>698.0</ele><time>2026-04-10T13:04:23.62Z</time></trkpt><trkpt lat="42.4288453" lon="13.287864"><ele>698.0</ele><time>2026-04-10T13:04:25.627Z</time></trkpt><trkpt lat="42.4288422" lon="13.2877646"><ele>698.0</ele><time>2026-04-10T13:04:26.632Z</time></trkpt><trkpt lat="42.4288347" lon="13.2876457"><ele>698.0</ele><time>2026-04-10T13:04:27.636Z</time></trkpt><trkpt lat="42.4288431" lon="13.2875253"><ele>698.0</ele><time>2026-04-10T13:04:28.64Z</time></trkpt><trkpt lat="42.4288697" lon="13.2874094"><ele>698.0</ele><time>2026-04-10T13:04:29.636Z</time></trkpt><trkpt lat="42.4289187" lon="13.2872914"><ele>698.0</ele><time>2026-04-10T13:04:30.641Z</time></trkpt><trkpt lat="42.4289614" lon="13.2871997"><ele>698.0</ele><time>2026-04-10T13:04:31.634Z</time></trkpt><trkpt lat="42.429019" lon="13.2871037"><ele>697.6666666666666</ele><time>2026-04-10T13:04:33.636Z</time></trkpt><trkpt lat="42.4290758" lon="13.2870299"><ele>697.3333333333333</ele><time>2026-04-10T13:04:35.645Z</time></trkpt><trkpt lat="42.4291766" lon="13.2869146"><ele>697.0</ele><time>2026-04-10T13:04:37.633Z</time></trkpt><trkpt lat="42.4292492" lon="13.286874"><ele>696.6666666666666</ele><time>2026-04-10T13:04:38.631Z</time></trkpt><trkpt lat="42.429328" lon="13.2868656"><ele>696.3333333333334</ele><time>2026-04-10T13:04:39.63Z</time></trkpt><trkpt lat="42.429409" lon="13.2868739"><ele>696.0</ele><time>2026-04-10T13:04:40.642Z</time></trkpt><trkpt lat="42.429488" lon="13.2869223"><ele>696.0</ele><time>2026-04-10T13:04:41.63Z</time></trkpt><trkpt lat="42.4295613" lon="13.2870114"><ele>696.0</ele><time>2026-04-10T13:04:42.631Z</time></trkpt><trkpt lat="42.4296346" lon="13.2871192"><ele>696.0</ele><time>2026-04-10T13:04:43.622Z</time></trkpt><trkpt lat="42.4297098" lon="13.2872406"><ele>696.0</ele><time>2026-04-10T13:04:44.628Z</time></trkpt><trkpt lat="42.4297807" lon="13.2873676"><ele>696.0</ele><time>2026-04-10T13:04:45.621Z</time></trkpt><trkpt lat="42.4298717" lon="13.2874784"><ele>696.0</ele><time>2026-04-10T13:04:46.628Z</time></trkpt><trkpt lat="42.4299577" lon="13.2875647"><ele>696.0</ele><time>2026-04-10T13:04:47.627Z</time></trkpt><trkpt lat="42.4300345" lon="13.2876378"><ele>696.0</ele><time>2026-04-10T13:04:48.638Z</time></trkpt><trkpt lat="42.4301047" lon="13.287689"><ele>696.0</ele><time>2026-04-10T13:04:49.628Z</time></trkpt><trkpt lat="42.430168" lon="13.2877255"><ele>696.0</ele><time>2026-04-10T13:04:50.634Z</time></trkpt><trkpt lat="42.4302387" lon="13.2877096"><ele>696.0</ele><time>2026-04-10T13:04:51.639Z</time></trkpt><trkpt lat="42.4303098" lon="13.2876543"><ele>696.0</ele><time>2026-04-10T13:04:52.635Z</time></trkpt><trkpt lat="42.4303879" lon="13.2876025"><ele>696.0</ele><time>2026-04-10T13:04:53.643Z</time></trkpt><trkpt lat="42.4304858" lon="13.2875786"><ele>696.0</ele><time>2026-04-10T13:04:55.644Z</time></trkpt><trkpt lat="42.4305934" lon="13.2875896"><ele>696.0</ele><time>2026-04-10T13:04:57.64Z</time></trkpt><trkpt lat="42.4306732" lon="13.2876121"><ele>696.0</ele><time>2026-04-10T13:04:58.642Z</time></trkpt><trkpt lat="42.4307615" lon="13.2875993"><ele>696.1999999999999</ele><time>2026-04-10T13:04:59.627Z</time></trkpt><trkpt lat="42.4308612" lon="13.2875599"><ele>696.4</ele><time>2026-04-10T13:05:00.629Z</time></trkpt><trkpt lat="42.4309284" lon="13.2874919"><ele>696.6</ele><time>2026-04-10T13:05:01.627Z</time></trkpt><trkpt lat="42.4310055" lon="13.2874336"><ele>696.8</ele><time>2026-04-10T13:05:02.625Z</time></trkpt><trkpt lat="42.4310816" lon="13.2873464"><ele>697.0</ele><time>2026-04-10T13:05:03.628Z</time></trkpt><trkpt lat="42.4311661" lon="13.2872674"><ele>697.0</ele><time>2026-04-10T13:05:04.627Z</time></trkpt><trkpt lat="42.4312742" lon="13.2871983"><ele>697.0</ele><time>2026-04-10T13:05:05.627Z</time></trkpt><trkpt lat="42.4313795" lon="13.2871382"><ele>697.0</ele><time>2026-04-10T13:05:06.625Z</time></trkpt><trkpt lat="42.4314582" lon="13.2870832"><ele>697.0</ele><time>2026-04-10T13:05:07.628Z</time></trkpt><trkpt lat="42.4315281" lon="13.287029"><ele>697.0</ele><time>2026-04-10T13:05:08.625Z</time></trkpt><trkpt lat="42.4315904" lon="13.2869696"><ele>697.8</ele><time>2026-04-10T13:05:09.629Z</time></trkpt><trkpt lat="42.4316651" lon="13.2869002"><ele>698.6</ele><time>2026-04-10T13:05:11.622Z</time></trkpt><trkpt lat="42.4316508" lon="13.2867647"><ele>699.4</ele><time>2026-04-10T13:05:14.635Z</time></trkpt><trkpt lat="42.4316177" lon="13.2866767"><ele>700.1999999999999</ele><time>2026-04-10T13:05:15.639Z</time></trkpt><trkpt lat="42.4315802" lon="13.2865672"><ele>701.0</ele><time>2026-04-10T13:05:16.635Z</time></trkpt><trkpt lat="42.4315317" lon="13.2864511"><ele>700.8</ele><time>2026-04-10T13:05:17.635Z</time></trkpt><trkpt lat="42.431478" lon="13.2863425"><ele>700.5999999999999</ele><time>2026-04-10T13:05:18.633Z</time></trkpt><trkpt lat="42.431416" lon="13.2862328"><ele>700.4</ele><time>2026-04-10T13:05:19.636Z</time></trkpt><trkpt lat="42.4313619" lon="13.2861337"><ele>700.2</ele><time>2026-04-10T13:05:20.635Z</time></trkpt><trkpt lat="42.4313151" lon="13.2860359"><ele>700.0</ele><time>2026-04-10T13:05:21.642Z</time></trkpt><trkpt lat="42.4312743" lon="13.2859511"><ele>699.8333333333334</ele><time>2026-04-10T13:05:22.643Z</time></trkpt><trkpt lat="42.4312284" lon="13.2858521"><ele>699.6666666666667</ele><time>2026-04-10T13:05:23.643Z</time></trkpt><trkpt lat="42.4311864" lon="13.2857563"><ele>699.5</ele><time>2026-04-10T13:05:24.642Z</time></trkpt><trkpt lat="42.4311431" lon="13.285663"><ele>699.3333333333334</ele><time>2026-04-10T13:05:25.641Z</time></trkpt><trkpt lat="42.4310959" lon="13.2855847"><ele>699.1666666666666</ele><time>2026-04-10T13:05:26.64Z</time></trkpt><trkpt lat="42.4310256" lon="13.2854796"><ele>699.0</ele><time>2026-04-10T13:05:28.633Z</time></trkpt><trkpt lat="42.4310358" lon="13.2853596"><ele>699.0</ele><time>2026-04-10T13:05:30.632Z</time></trkpt><trkpt lat="42.4311421" lon="13.2852312"><ele>699.0</ele><time>2026-04-10T13:05:32.636Z</time></trkpt><trkpt lat="42.4312326" lon="13.285172"><ele>699.0</ele><time>2026-04-10T13:05:33.628Z</time></trkpt><trkpt lat="42.4313445" lon="13.2850981"><ele>699.0</ele><time>2026-04-10T13:05:34.634Z</time></trkpt><trkpt lat="42.4314672" lon="13.2850197"><ele>699.0</ele><time>2026-04-10T13:05:35.636Z</time></trkpt><trkpt lat="42.4315774" lon="13.2849415"><ele>699.0</ele><time>2026-04-10T13:05:36.639Z</time></trkpt><trkpt lat="42.4316919" lon="13.2848468"><ele>699.0</ele><time>2026-04-10T13:05:37.643Z</time></trkpt><trkpt lat="42.4318056" lon="13.2847368"><ele>699.0</ele><time>2026-04-10T13:05:38.643Z</time></trkpt><trkpt lat="42.4319229" lon="13.284622"><ele>699.0</ele><time>2026-04-10T13:05:39.642Z</time></trkpt><trkpt lat="42.4320281" lon="13.2844995"><ele>699.0</ele><time>2026-04-10T13:05:40.643Z</time></trkpt><trkpt lat="42.4321382" lon="13.2843716"><ele>699.0</ele><time>2026-04-10T13:05:41.638Z</time></trkpt><trkpt lat="42.4322437" lon="13.2842516"><ele>699.0</ele><time>2026-04-10T13:05:42.638Z</time></trkpt><trkpt lat="42.4323549" lon="13.2841193"><ele>699.0</ele><time>2026-04-10T13:05:43.639Z</time></trkpt><trkpt lat="42.4324534" lon="13.2840211"><ele>699.0</ele><time>2026-04-10T13:05:44.64Z</time></trkpt><trkpt lat="42.4325335" lon="13.2839069"><ele>699.0</ele><time>2026-04-10T13:05:45.641Z</time></trkpt><trkpt lat="42.4326236" lon="13.2838007"><ele>699.0</ele><time>2026-04-10T13:05:46.64Z</time></trkpt><trkpt lat="42.4327303" lon="13.2836988"><ele>698.75</ele><time>2026-04-10T13:05:47.64Z</time></trkpt><trkpt lat="42.4328267" lon="13.2835929"><ele>698.5</ele><time>2026-04-10T13:05:48.643Z</time></trkpt><trkpt lat="42.4329438" lon="13.2834804"><ele>698.25</ele><time>2026-04-10T13:05:49.646Z</time></trkpt><trkpt lat="42.4330463" lon="13.2833667"><ele>698.0</ele><time>2026-04-10T13:05:50.644Z</time></trkpt><trkpt lat="42.4331669" lon="13.2832573"><ele>698.0</ele><time>2026-04-10T13:05:51.644Z</time></trkpt><trkpt lat="42.433289" lon="13.2831563"><ele>698.0</ele><time>2026-04-10T13:05:52.645Z</time></trkpt><trkpt lat="42.4334156" lon="13.2830428"><ele>698.0</ele><time>2026-04-10T13:05:53.643Z</time></trkpt><trkpt lat="42.4335587" lon="13.2829343"><ele>698.0</ele><time>2026-04-10T13:05:54.646Z</time></trkpt><trkpt lat="42.4336829" lon="13.2828417"><ele>698.0</ele><time>2026-04-10T13:05:55.643Z</time></trkpt><trkpt lat="42.4338153" lon="13.2827429"><ele>698.0</ele><time>2026-04-10T13:05:56.644Z</time></trkpt><trkpt lat="42.4339563" lon="13.2826288"><ele>698.0</ele><time>2026-04-10T13:05:57.641Z</time></trkpt><trkpt lat="42.4340908" lon="13.2825253"><ele>698.0</ele><time>2026-04-10T13:05:58.646Z</time></trkpt><trkpt lat="42.4342389" lon="13.2824047"><ele>698.0</ele><time>2026-04-10T13:05:59.64Z</time></trkpt><trkpt lat="42.4344003" lon="13.2823001"><ele>698.6666666666666</ele><time>2026-04-10T13:06:00.643Z</time></trkpt><trkpt lat="42.4345547" lon="13.2821818"><ele>699.3333333333334</ele><time>2026-04-10T13:06:01.644Z</time></trkpt><trkpt lat="42.4347106" lon="13.2820642"><ele>700.0</ele><time>2026-04-10T13:06:02.644Z</time></trkpt><trkpt lat="42.4348552" lon="13.2819408"><ele>700.3333333333334</ele><time>2026-04-10T13:06:03.641Z</time></trkpt><trkpt lat="42.4350117" lon="13.2818177"><ele>700.6666666666666</ele><time>2026-04-10T13:06:04.64Z</time></trkpt><trkpt lat="42.4351474" lon="13.2817171"><ele>701.0</ele><time>2026-04-10T13:06:05.64Z</time></trkpt><trkpt lat="42.435277" lon="13.2816274"><ele>701.0</ele><time>2026-04-10T13:06:06.639Z</time></trkpt><trkpt lat="42.4353587" lon="13.28158"><ele>701.0</ele><time>2026-04-10T13:06:07.636Z</time></trkpt><trkpt lat="42.4354701" lon="13.2815287"><ele>701.0</ele><time>2026-04-10T13:06:08.633Z</time></trkpt><trkpt lat="42.4355648" lon="13.2815196"><ele>701.0</ele><time>2026-04-10T13:06:09.633Z</time></trkpt><trkpt lat="42.4356258" lon="13.2815686"><ele>701.0</ele><time>2026-04-10T13:06:10.633Z</time></trkpt><trkpt lat="42.4356826" lon="13.2816174"><ele>701.0</ele><time>2026-04-10T13:06:11.635Z</time></trkpt><trkpt lat="42.4357399" lon="13.2816658"><ele>701.1666666666666</ele><time>2026-04-10T13:06:12.627Z</time></trkpt><trkpt lat="42.4358073" lon="13.2816749"><ele>701.3333333333333</ele><time>2026-04-10T13:06:13.636Z</time></trkpt><trkpt lat="42.435885" lon="13.2816407"><ele>701.5</ele><time>2026-04-10T13:06:14.62Z</time></trkpt><trkpt lat="42.4359626" lon="13.2815831"><ele>701.6666666666666</ele><time>2026-04-10T13:06:15.625Z</time></trkpt><trkpt lat="42.4360432" lon="13.2815189"><ele>701.8333333333334</ele><time>2026-04-10T13:06:16.63Z</time></trkpt><trkpt lat="42.4361201" lon="13.2814493"><ele>702.0</ele><time>2026-04-10T13:06:17.632Z</time></trkpt><trkpt lat="42.4361972" lon="13.2813887"><ele>702.0</ele><time>2026-04-10T13:06:18.633Z</time></trkpt><trkpt lat="42.4362762" lon="13.2813373"><ele>702.0</ele><time>2026-04-10T13:06:19.632Z</time></trkpt><trkpt lat="42.4363552" lon="13.281281"><ele>702.0</ele><time>2026-04-10T13:06:20.631Z</time></trkpt><trkpt lat="42.4364383" lon="13.2812149"><ele>702.0</ele><time>2026-04-10T13:06:21.631Z</time></trkpt><trkpt lat="42.436518" lon="13.2811475"><ele>702.0</ele><time>2026-04-10T13:06:22.634Z</time></trkpt><trkpt lat="42.4366057" lon="13.281084"><ele>702.0</ele><time>2026-04-10T13:06:23.636Z</time></trkpt><trkpt lat="42.4366916" lon="13.281026"><ele>702.0</ele><time>2026-04-10T13:06:24.629Z</time></trkpt><trkpt lat="42.4367888" lon="13.2809631"><ele>702.0</ele><time>2026-04-10T13:06:25.631Z</time></trkpt><trkpt lat="42.4369072" lon="13.2808927"><ele>702.0</ele><time>2026-04-10T13:06:26.637Z</time></trkpt><trkpt lat="42.4370034" lon="13.2808199"><ele>702.0</ele><time>2026-04-10T13:06:27.63Z</time></trkpt><trkpt lat="42.4370906" lon="13.2807634"><ele>703.0</ele><time>2026-04-10T13:06:28.632Z</time></trkpt><trkpt lat="42.4371755" lon="13.280713"><ele>704.0</ele><time>2026-04-10T13:06:29.632Z</time></trkpt><trkpt lat="42.4372691" lon="13.2806806"><ele>705.0</ele><time>2026-04-10T13:06:30.635Z</time></trkpt><trkpt lat="42.4373676" lon="13.2806668"><ele>706.0</ele><time>2026-04-10T13:06:31.641Z</time></trkpt><trkpt lat="42.4374727" lon="13.2806563"><ele>707.0</ele><time>2026-04-10T13:06:32.633Z</time></trkpt><trkpt lat="42.4375743" lon="13.2806621"><ele>707.0</ele><time>2026-04-10T13:06:33.633Z</time></trkpt><trkpt lat="42.4376576" lon="13.2806665"><ele>707.0</ele><time>2026-04-10T13:06:34.626Z</time></trkpt><trkpt lat="42.4377314" lon="13.2806689"><ele>707.0</ele><time>2026-04-10T13:06:35.627Z</time></trkpt><trkpt lat="42.4378048" lon="13.2806656"><ele>707.0</ele><time>2026-04-10T13:06:36.629Z</time></trkpt><trkpt lat="42.4378735" lon="13.2806805"><ele>707.0</ele><time>2026-04-10T13:06:37.627Z</time></trkpt><trkpt lat="42.4379929" lon="13.2806501"><ele>707.0</ele><time>2026-04-10T13:06:39.625Z</time></trkpt><trkpt lat="42.4380554" lon="13.2806229"><ele>706.8333333333333</ele><time>2026-04-10T13:06:41.625Z</time></trkpt><trkpt lat="42.4381222" lon="13.2805585"><ele>706.6666666666666</ele><time>2026-04-10T13:06:44.647Z</time></trkpt><trkpt lat="42.4382119" lon="13.2804885"><ele>706.5</ele><time>2026-04-10T13:06:46.635Z</time></trkpt><trkpt lat="42.4382831" lon="13.2804209"><ele>706.3333333333334</ele><time>2026-04-10T13:06:48.642Z</time></trkpt><trkpt lat="42.4383302" lon="13.2803607"><ele>706.1666666666667</ele><time>2026-04-10T13:06:50.639Z</time></trkpt><trkpt lat="42.4384297" lon="13.2803627"><ele>706.0</ele><time>2026-04-10T13:06:53.646Z</time></trkpt><trkpt lat="42.4384887" lon="13.2804252"><ele>706.0</ele><time>2026-04-10T13:06:55.646Z</time></trkpt><trkpt lat="42.4385648" lon="13.2804983"><ele>706.0</ele><time>2026-04-10T13:06:57.635Z</time></trkpt><trkpt lat="42.4386481" lon="13.2805296"><ele>706.0</ele><time>2026-04-10T13:06:59.633Z</time></trkpt><trkpt lat="42.4387304" lon="13.2805618"><ele>706.0</ele><time>2026-04-10T13:09:23.634Z</time></trkpt><trkpt lat="42.4388537" lon="13.2806034"><ele>706.0</ele><time>2026-04-10T13:09:25.633Z</time></trkpt><trkpt lat="42.4389345" lon="13.2806498"><ele>706.5999999999999</ele><time>2026-04-10T13:09:26.637Z</time></trkpt><trkpt lat="42.4390102" lon="13.2806849"><ele>707.2</ele><time>2026-04-10T13:09:27.636Z</time></trkpt><trkpt lat="42.4390802" lon="13.2807161"><ele>707.8</ele><time>2026-04-10T13:09:28.637Z</time></trkpt><trkpt lat="42.4391661" lon="13.2807537"><ele>708.4000000000001</ele><time>2026-04-10T13:09:29.638Z</time></trkpt><trkpt lat="42.4392687" lon="13.2807885"><ele>709.0</ele><time>2026-04-10T13:09:30.637Z</time></trkpt><trkpt lat="42.4393679" lon="13.2808199"><ele>709.0</ele><time>2026-04-10T13:09:31.639Z</time></trkpt><trkpt lat="42.4394606" lon="13.280845"><ele>709.0</ele><time>2026-04-10T13:09:32.629Z</time></trkpt><trkpt lat="42.4395474" lon="13.280862"><ele>709.0</ele><time>2026-04-10T13:09:33.629Z</time></trkpt><trkpt lat="42.439633" lon="13.2808617"><ele>709.0</ele><time>2026-04-10T13:09:34.629Z</time></trkpt><trkpt lat="42.4397033" lon="13.2808503"><ele>709.0</ele><time>2026-04-10T13:09:35.625Z</time></trkpt><trkpt lat="42.4397904" lon="13.2807874"><ele>709.0</ele><time>2026-04-10T13:09:37.63Z</time></trkpt><trkpt lat="42.4398354" lon="13.2807169"><ele>709.0</ele><time>2026-04-10T13:09:39.652Z</time></trkpt><trkpt lat="42.4399216" lon="13.2806909"><ele>709.0</ele><time>2026-04-10T13:09:43.641Z</time></trkpt><trkpt lat="42.4400047" lon="13.2806751"><ele>709.0</ele><time>2026-04-10T13:09:45.629Z</time></trkpt><trkpt lat="42.440053" lon="13.2806202"><ele>709.0</ele><time>2026-04-10T13:09:46.63Z</time></trkpt><trkpt lat="42.4401141" lon="13.2805487"><ele>709.0</ele><time>2026-04-10T13:09:47.627Z</time></trkpt><trkpt lat="42.440183" lon="13.2804863"><ele>709.0</ele><time>2026-04-10T13:09:48.627Z</time></trkpt><trkpt lat="42.4402572" lon="13.280424"><ele>709.0</ele><time>2026-04-10T13:09:49.624Z</time></trkpt><trkpt lat="42.4403255" lon="13.2803483"><ele>709.0</ele><time>2026-04-10T13:09:50.628Z</time></trkpt><trkpt lat="42.440375" lon="13.2802809"><ele>709.0</ele><time>2026-04-10T13:09:51.631Z</time></trkpt><trkpt lat="42.4404252" lon="13.2802208"><ele>709.0</ele><time>2026-04-10T13:09:52.633Z</time></trkpt><trkpt lat="42.4404663" lon="13.2801559"><ele>709.0</ele><time>2026-04-10T13:09:53.64Z</time></trkpt><trkpt lat="42.4404997" lon="13.2800014"><ele>709.0</ele><time>2026-04-10T13:09:55.635Z</time></trkpt><trkpt lat="42.4405206" lon="13.2799137"><ele>709.0</ele><time>2026-04-10T13:09:56.64Z</time></trkpt><trkpt lat="42.4405443" lon="13.2798293"><ele>709.0</ele><time>2026-04-10T13:09:57.636Z</time></trkpt><trkpt lat="42.4405803" lon="13.2797551"><ele>709.0</ele><time>2026-04-10T13:09:58.638Z</time></trkpt><trkpt lat="42.4406751" lon="13.2796321"><ele>709.0</ele><time>2026-04-10T13:10:00.64Z</time></trkpt><trkpt lat="42.4407395" lon="13.2795706"><ele>709.0</ele><time>2026-04-10T13:10:01.645Z</time></trkpt><trkpt lat="42.4407991" lon="13.2795314"><ele>709.0</ele><time>2026-04-10T13:10:02.64Z</time></trkpt><trkpt lat="42.4409079" lon="13.2795187"><ele>709.0</ele><time>2026-04-10T13:10:04.64Z</time></trkpt><trkpt lat="42.4410274" lon="13.2795555"><ele>709.0</ele><time>2026-04-10T13:10:06.642Z</time></trkpt><trkpt lat="42.4410915" lon="13.2795685"><ele>709.0</ele><time>2026-04-10T13:10:07.637Z</time></trkpt><trkpt lat="42.4411574" lon="13.2795779"><ele>709.0</ele><time>2026-04-10T13:10:08.634Z</time></trkpt><trkpt lat="42.4412256" lon="13.2795826"><ele>709.0</ele><time>2026-04-10T13:10:09.633Z</time></trkpt><trkpt lat="42.4412939" lon="13.2795817"><ele>709.0</ele><time>2026-04-10T13:10:10.643Z</time></trkpt><trkpt lat="42.4413638" lon="13.2795696"><ele>709.0</ele><time>2026-04-10T13:10:11.635Z</time></trkpt><trkpt lat="42.4414389" lon="13.2795618"><ele>709.0</ele><time>2026-04-10T13:10:12.638Z</time></trkpt><trkpt lat="42.4415192" lon="13.2795656"><ele>709.0</ele><time>2026-04-10T13:10:13.64Z</time></trkpt><trkpt lat="42.4416098" lon="13.2795646"><ele>709.0</ele><time>2026-04-10T13:10:14.634Z</time></trkpt><trkpt lat="42.4416981" lon="13.2795537"><ele>709.0</ele><time>2026-04-10T13:10:15.632Z</time></trkpt><trkpt lat="42.44178" lon="13.2795186"><ele>709.0</ele><time>2026-04-10T13:10:16.632Z</time></trkpt><trkpt lat="42.4418442" lon="13.2794732"><ele>709.0</ele><time>2026-04-10T13:10:17.635Z</time></trkpt><trkpt lat="42.4418986" lon="13.2793238"><ele>709.0</ele><time>2026-04-10T13:10:19.634Z</time></trkpt><trkpt lat="42.4419143" lon="13.279225"><ele>709.0</ele><time>2026-04-10T13:10:20.643Z</time></trkpt><trkpt lat="42.4419465" lon="13.27914"><ele>709.0</ele><time>2026-04-10T13:10:21.639Z</time></trkpt><trkpt lat="42.4419862" lon="13.2790719"><ele>709.0</ele><time>2026-04-10T13:10:22.643Z</time></trkpt><trkpt lat="42.4420248" lon="13.2789567"><ele>709.0</ele><time>2026-04-10T13:10:24.639Z</time></trkpt><trkpt lat="42.4420303" lon="13.2788193"><ele>708.8000000000001</ele><time>2026-04-10T13:10:26.648Z</time></trkpt><trkpt lat="42.4420577" lon="13.2786705"><ele>708.6</ele><time>2026-04-10T13:10:28.645Z</time></trkpt><trkpt lat="42.4420845" lon="13.2785277"><ele>708.4</ele><time>2026-04-10T13:10:30.64Z</time></trkpt><trkpt lat="42.4421183" lon="13.2784223"><ele>708.2</ele><time>2026-04-10T13:10:32.638Z</time></trkpt><trkpt lat="42.4421617" lon="13.2783575"><ele>708.0</ele><time>2026-04-10T13:10:34.647Z</time></trkpt><trkpt lat="42.4421217" lon="13.2782614"><ele>708.0</ele><time>2026-04-10T13:10:41.646Z</time></trkpt><trkpt lat="42.4420768" lon="13.2781867"><ele>708.0</ele><time>2026-04-10T13:10:43.64Z</time></trkpt><trkpt lat="42.4420821" lon="13.2780457"><ele>708.0</ele><time>2026-04-10T13:10:45.647Z</time></trkpt><trkpt lat="42.4421478" lon="13.2779085"><ele>708.0</ele><time>2026-04-10T13:10:47.642Z</time></trkpt><trkpt lat="42.4422149" lon="13.2777707"><ele>708.0</ele><time>2026-04-10T13:10:49.646Z</time></trkpt><trkpt lat="42.4422801" lon="13.2776584"><ele>708.0</ele><time>2026-04-10T13:10:51.645Z</time></trkpt><trkpt lat="42.4423492" lon="13.2775981"><ele>708.0</ele><time>2026-04-10T13:10:53.656Z</time></trkpt><trkpt lat="42.4424281" lon="13.2775645"><ele>708.0</ele><time>2026-04-10T13:10:55.654Z</time></trkpt><trkpt lat="42.4424888" lon="13.2774592"><ele>708.0</ele><time>2026-04-10T13:10:57.656Z</time></trkpt><trkpt lat="42.4425551" lon="13.2773193"><ele>708.0</ele><time>2026-04-10T13:10:59.639Z</time></trkpt><trkpt lat="42.4426638" lon="13.2772307"><ele>708.0</ele><time>2026-04-10T13:11:01.655Z</time></trkpt><trkpt lat="42.4427645" lon="13.2771526"><ele>708.0</ele><time>2026-04-10T13:11:03.65Z</time></trkpt><trkpt lat="42.4428057" lon="13.2770525"><ele>708.0</ele><time>2026-04-10T13:11:05.639Z</time></trkpt><trkpt lat="42.4427629" lon="13.276983"><ele>708.0</ele><time>2026-04-10T13:11:07.657Z</time></trkpt><trkpt lat="42.4427005" lon="13.2769239"><ele>708.0</ele><time>2026-04-10T13:11:10.656Z</time></trkpt><trkpt lat="42.4426249" lon="13.276859"><ele>708.0</ele><time>2026-04-10T13:11:12.649Z</time></trkpt><trkpt lat="42.4425282" lon="13.2768076"><ele>708.0</ele><time>2026-04-10T13:11:14.646Z</time></trkpt><trkpt lat="42.4424505" lon="13.2767522"><ele>708.0</ele><time>2026-04-10T13:11:16.654Z</time></trkpt><trkpt lat="42.4423862" lon="13.2766561"><ele>708.0</ele><time>2026-04-10T13:11:18.645Z</time></trkpt><trkpt lat="42.442316" lon="13.276539"><ele>708.0</ele><time>2026-04-10T13:11:20.646Z</time></trkpt><trkpt lat="42.4422369" lon="13.276449"><ele>708.0</ele><time>2026-04-10T13:11:22.642Z</time></trkpt><trkpt lat="42.4421523" lon="13.2763881"><ele>708.0</ele><time>2026-04-10T13:11:24.643Z</time></trkpt><trkpt lat="42.4420677" lon="13.2762848"><ele>708.0</ele><time>2026-04-10T13:11:26.64Z</time></trkpt><trkpt lat="42.4420244" lon="13.2762002"><ele>708.0</ele><time>2026-04-10T13:11:27.642Z</time></trkpt><trkpt lat="42.4419837" lon="13.2761002"><ele>708.0</ele><time>2026-04-10T13:11:28.649Z</time></trkpt><trkpt lat="42.4419455" lon="13.2759997"><ele>708.0</ele><time>2026-04-10T13:11:29.642Z</time></trkpt><trkpt lat="42.4419074" lon="13.27591"><ele>708.0</ele><time>2026-04-10T13:11:30.64Z</time></trkpt><trkpt lat="42.4418719" lon="13.2758303"><ele>708.0</ele><time>2026-04-10T13:11:31.643Z</time></trkpt><trkpt lat="42.4418366" lon="13.2757418"><ele>708.0</ele><time>2026-04-10T13:11:32.64Z</time></trkpt><trkpt lat="42.4417975" lon="13.2756535"><ele>708.0</ele><time>2026-04-10T13:11:33.638Z</time></trkpt><trkpt lat="42.4417565" lon="13.2755703"><ele>708.0</ele><time>2026-04-10T13:11:34.639Z</time></trkpt><trkpt lat="42.4417172" lon="13.2754887"><ele>708.0</ele><time>2026-04-10T13:11:35.635Z</time></trkpt><trkpt lat="42.4416802" lon="13.2754169"><ele>708.0</ele><time>2026-04-10T13:11:36.633Z</time></trkpt><trkpt lat="42.441641" lon="13.2753398"><ele>708.0</ele><time>2026-04-10T13:11:37.625Z</time></trkpt><trkpt lat="42.4416037" lon="13.2752532"><ele>708.6666666666666</ele><time>2026-04-10T13:11:38.623Z</time></trkpt><trkpt lat="42.4415749" lon="13.2751687"><ele>709.3333333333334</ele><time>2026-04-10T13:11:39.626Z</time></trkpt><trkpt lat="42.4415288" lon="13.2750468"><ele>710.0</ele><time>2026-04-10T13:11:41.62Z</time></trkpt><trkpt lat="42.4415025" lon="13.2749536"><ele>710.6666666666667</ele><time>2026-04-10T13:11:43.617Z</time></trkpt><trkpt lat="42.4415697" lon="13.2748389"><ele>711.3333333333334</ele><time>2026-04-10T13:11:45.626Z</time></trkpt><trkpt lat="42.441652" lon="13.2747928"><ele>712.0</ele><time>2026-04-10T13:11:46.629Z</time></trkpt><trkpt lat="42.4417275" lon="13.274726"><ele>712.8</ele><time>2026-04-10T13:11:47.631Z</time></trkpt><trkpt lat="42.4417965" lon="13.2746465"><ele>713.6</ele><time>2026-04-10T13:11:48.629Z</time></trkpt><trkpt lat="42.4418676" lon="13.2745614"><ele>714.4</ele><time>2026-04-10T13:11:49.63Z</time></trkpt><trkpt lat="42.4419378" lon="13.274459"><ele>715.1999999999999</ele><time>2026-04-10T13:11:50.631Z</time></trkpt><trkpt lat="42.4420152" lon="13.2743515"><ele>716.0</ele><time>2026-04-10T13:11:51.632Z</time></trkpt><trkpt lat="42.442098" lon="13.2742538"><ele>715.8333333333333</ele><time>2026-04-10T13:11:52.628Z</time></trkpt><trkpt lat="42.4421736" lon="13.2741606"><ele>715.6666666666666</ele><time>2026-04-10T13:11:53.632Z</time></trkpt><trkpt lat="42.4422491" lon="13.2740741"><ele>715.5</ele><time>2026-04-10T13:11:54.624Z</time></trkpt><trkpt lat="42.4423245" lon="13.273983"><ele>715.3333333333334</ele><time>2026-04-10T13:11:55.621Z</time></trkpt><trkpt lat="42.4423725" lon="13.2739038"><ele>715.1666666666667</ele><time>2026-04-10T13:11:56.617Z</time></trkpt><trkpt lat="42.4424171" lon="13.2738419"><ele>715.0</ele><time>2026-04-10T13:11:57.622Z</time></trkpt><trkpt lat="42.4424953" lon="13.2738132"><ele>715.2</ele><time>2026-04-10T13:11:59.625Z</time></trkpt><trkpt lat="42.4426231" lon="13.2737928"><ele>715.4</ele><time>2026-04-10T13:12:01.629Z</time></trkpt><trkpt lat="42.4427133" lon="13.2737898"><ele>715.5999999999999</ele><time>2026-04-10T13:12:02.625Z</time></trkpt><trkpt lat="42.4428168" lon="13.2737823"><ele>715.8</ele><time>2026-04-10T13:12:03.628Z</time></trkpt><trkpt lat="42.4429203" lon="13.2737739"><ele>716.0</ele><time>2026-04-10T13:12:04.638Z</time></trkpt><trkpt lat="42.4430228" lon="13.2737501"><ele>716.0</ele><time>2026-04-10T13:12:05.635Z</time></trkpt><trkpt lat="42.4431102" lon="13.2737359"><ele>716.0</ele><time>2026-04-10T13:12:06.633Z</time></trkpt><trkpt lat="42.4431858" lon="13.2737213"><ele>716.0</ele><time>2026-04-10T13:12:07.629Z</time></trkpt><trkpt lat="42.4432548" lon="13.2737037"><ele>716.0</ele><time>2026-04-10T13:12:08.623Z</time></trkpt><trkpt lat="42.4433346" lon="13.2736221"><ele>716.0</ele><time>2026-04-10T13:12:10.62Z</time></trkpt><trkpt lat="42.4433171" lon="13.2734802"><ele>716.0</ele><time>2026-04-10T13:12:12.618Z</time></trkpt><trkpt lat="42.4432731" lon="13.2734101"><ele>716.0</ele><time>2026-04-10T13:12:13.629Z</time></trkpt><trkpt lat="42.443225" lon="13.2733219"><ele>716.0</ele><time>2026-04-10T13:12:14.624Z</time></trkpt><trkpt lat="42.4431658" lon="13.2732063"><ele>716.0</ele><time>2026-04-10T13:12:15.625Z</time></trkpt><trkpt lat="42.4431143" lon="13.2730789"><ele>716.0</ele><time>2026-04-10T13:12:16.628Z</time></trkpt><trkpt lat="42.4430638" lon="13.2729373"><ele>716.0</ele><time>2026-04-10T13:12:17.631Z</time></trkpt><trkpt lat="42.4429991" lon="13.2727943"><ele>717.5</ele><time>2026-04-10T13:12:18.63Z</time></trkpt><trkpt lat="42.4429319" lon="13.2726415"><ele>719.0</ele><time>2026-04-10T13:12:19.632Z</time></trkpt><trkpt lat="42.4428693" lon="13.2724834"><ele>720.5</ele><time>2026-04-10T13:12:20.63Z</time></trkpt><trkpt lat="42.4428104" lon="13.2723274"><ele>722.0</ele><time>2026-04-10T13:12:21.637Z</time></trkpt><trkpt lat="42.4427494" lon="13.2721773"><ele>724.0</ele><time>2026-04-10T13:12:22.634Z</time></trkpt><trkpt lat="42.4426911" lon="13.2720569"><ele>726.0</ele><time>2026-04-10T13:12:23.632Z</time></trkpt><trkpt lat="42.4426362" lon="13.2719337"><ele>728.0</ele><time>2026-04-10T13:12:24.629Z</time></trkpt><trkpt lat="42.4425942" lon="13.2718093"><ele>730.0</ele><time>2026-04-10T13:12:25.628Z</time></trkpt><trkpt lat="42.4425677" lon="13.2716697"><ele>732.0</ele><time>2026-04-10T13:12:26.623Z</time></trkpt><trkpt lat="42.4425568" lon="13.2715189"><ele>735.5</ele><time>2026-04-10T13:12:27.624Z</time></trkpt><trkpt lat="42.4425635" lon="13.2713557"><ele>739.0</ele><time>2026-04-10T13:12:28.627Z</time></trkpt><trkpt lat="42.4425678" lon="13.271187"><ele>742.5</ele><time>2026-04-10T13:12:29.626Z</time></trkpt><trkpt lat="42.4425789" lon="13.2710215"><ele>746.0</ele><time>2026-04-10T13:12:30.624Z</time></trkpt><trkpt lat="42.44261" lon="13.2708706"><ele>746.0</ele><time>2026-04-10T13:12:31.632Z</time></trkpt><trkpt lat="42.4426552" lon="13.2707222"><ele>746.0</ele><time>2026-04-10T13:12:32.621Z</time></trkpt><trkpt lat="42.4426952" lon="13.2705968"><ele>746.0</ele><time>2026-04-10T13:12:33.616Z</time></trkpt><trkpt lat="42.4427128" lon="13.2704853"><ele>746.0</ele><time>2026-04-10T13:12:34.618Z</time></trkpt><trkpt lat="42.4427063" lon="13.2703833"><ele>746.0</ele><time>2026-04-10T13:12:35.632Z</time></trkpt><trkpt lat="42.442688" lon="13.2702803"><ele>748.5999999999999</ele><time>2026-04-10T13:12:36.629Z</time></trkpt><trkpt lat="42.442647" lon="13.2701839"><ele>751.2</ele><time>2026-04-10T13:12:37.617Z</time></trkpt><trkpt lat="42.4425877" lon="13.2700711"><ele>753.8</ele><time>2026-04-10T13:12:38.618Z</time></trkpt><trkpt lat="42.4425436" lon="13.2699639"><ele>756.4000000000001</ele><time>2026-04-10T13:12:39.616Z</time></trkpt><trkpt lat="42.4424892" lon="13.2698422"><ele>759.0</ele><time>2026-04-10T13:12:40.618Z</time></trkpt><trkpt lat="42.4424321" lon="13.2697217"><ele>761.6</ele><time>2026-04-10T13:12:41.62Z</time></trkpt><trkpt lat="42.4423718" lon="13.2695863"><ele>764.2</ele><time>2026-04-10T13:12:42.619Z</time></trkpt><trkpt lat="42.4423145" lon="13.2694578"><ele>766.8000000000001</ele><time>2026-04-10T13:12:43.609Z</time></trkpt><trkpt lat="42.4422761" lon="13.2693616"><ele>769.4000000000001</ele><time>2026-04-10T13:12:44.625Z</time></trkpt><trkpt lat="42.4422455" lon="13.2692691"><ele>772.0</ele><time>2026-04-10T13:12:45.625Z</time></trkpt><trkpt lat="42.4422017" lon="13.2691762"><ele>771.9999999999999</ele><time>2026-04-10T13:12:46.623Z</time></trkpt><trkpt lat="42.4421522" lon="13.2690916"><ele>772.0</ele><time>2026-04-10T13:12:47.622Z</time></trkpt><trkpt lat="42.4420853" lon="13.269029"><ele>772.0</ele><time>2026-04-10T13:12:48.622Z</time></trkpt><trkpt lat="42.4420165" lon="13.2689724"><ele>772.0</ele><time>2026-04-10T13:12:49.627Z</time></trkpt><trkpt lat="42.4419406" lon="13.2688937"><ele>771.9999999999999</ele><time>2026-04-10T13:12:50.626Z</time></trkpt><trkpt lat="42.4418791" lon="13.26882"><ele>772.0</ele><time>2026-04-10T13:12:51.627Z</time></trkpt><trkpt lat="42.4418252" lon="13.2687381"><ele>775.0</ele><time>2026-04-10T13:12:52.629Z</time></trkpt><trkpt lat="42.4417782" lon="13.2686358"><ele>778.0</ele><time>2026-04-10T13:12:53.634Z</time></trkpt><trkpt lat="42.4417369" lon="13.2685137"><ele>781.0</ele><time>2026-04-10T13:12:54.628Z</time></trkpt><trkpt lat="42.4417014" lon="13.2683865"><ele>784.0</ele><time>2026-04-10T13:12:55.63Z</time></trkpt><trkpt lat="42.4416581" lon="13.2682733"><ele>787.0</ele><time>2026-04-10T13:12:56.633Z</time></trkpt><trkpt lat="42.4416061" lon="13.2681683"><ele>789.2</ele><time>2026-04-10T13:12:57.629Z</time></trkpt><trkpt lat="42.4415361" lon="13.2680906"><ele>791.4000000000001</ele><time>2026-04-10T13:12:58.637Z</time></trkpt><trkpt lat="42.4414481" lon="13.2680164"><ele>793.5999999999999</ele><time>2026-04-10T13:12:59.634Z</time></trkpt><trkpt lat="42.4413587" lon="13.2679383"><ele>795.8</ele><time>2026-04-10T13:13:00.635Z</time></trkpt><trkpt lat="42.4412595" lon="13.2678576"><ele>798.0</ele><time>2026-04-10T13:13:01.637Z</time></trkpt><trkpt lat="42.4411522" lon="13.2677816"><ele>798.5999999999999</ele><time>2026-04-10T13:13:02.63Z</time></trkpt><trkpt lat="42.4410347" lon="13.2677063"><ele>799.1999999999999</ele><time>2026-04-10T13:13:03.626Z</time></trkpt><trkpt lat="42.4409234" lon="13.2676337"><ele>799.8</ele><time>2026-04-10T13:13:04.628Z</time></trkpt><trkpt lat="42.4408251" lon="13.2675733"><ele>800.4</ele><time>2026-04-10T13:13:05.624Z</time></trkpt><trkpt lat="42.4407493" lon="13.2675202"><ele>801.0</ele><time>2026-04-10T13:13:06.62Z</time></trkpt><trkpt lat="42.4406737" lon="13.2675086"><ele>801.0</ele><time>2026-04-10T13:13:07.628Z</time></trkpt><trkpt lat="42.4406008" lon="13.267541"><ele>801.0</ele><time>2026-04-10T13:13:08.631Z</time></trkpt><trkpt lat="42.4405248" lon="13.2675834"><ele>801.0</ele><time>2026-04-10T13:13:09.626Z</time></trkpt><trkpt lat="42.4404503" lon="13.2676104"><ele>801.0</ele><time>2026-04-10T13:13:10.625Z</time></trkpt><trkpt lat="42.4403765" lon="13.2676096"><ele>801.0</ele><time>2026-04-10T13:13:11.629Z</time></trkpt><trkpt lat="42.4402975" lon="13.267593"><ele>801.0</ele><time>2026-04-10T13:13:12.63Z</time></trkpt><trkpt lat="42.4402168" lon="13.2675709"><ele>803.0</ele><time>2026-04-10T13:13:13.625Z</time></trkpt><trkpt lat="42.4401377" lon="13.2675226"><ele>805.0</ele><time>2026-04-10T13:13:14.619Z</time></trkpt><trkpt lat="42.4400627" lon="13.2674329"><ele>807.0</ele><time>2026-04-10T13:13:15.617Z</time></trkpt><trkpt lat="42.4399892" lon="13.2673268"><ele>809.0</ele><time>2026-04-10T13:13:16.619Z</time></trkpt><trkpt lat="42.4399193" lon="13.2672115"><ele>811.0</ele><time>2026-04-10T13:13:17.627Z</time></trkpt><trkpt lat="42.4398635" lon="13.2670962"><ele>813.0</ele><time>2026-04-10T13:13:18.625Z</time></trkpt><trkpt lat="42.4398192" lon="13.2669734"><ele>815.0</ele><time>2026-04-10T13:13:19.631Z</time></trkpt><trkpt lat="42.4397657" lon="13.2668438"><ele>817.0</ele><time>2026-04-10T13:13:20.622Z</time></trkpt><trkpt lat="42.4396942" lon="13.2667111"><ele>819.0</ele><time>2026-04-10T13:13:21.629Z</time></trkpt><trkpt lat="42.439612" lon="13.2665872"><ele>819.6</ele><time>2026-04-10T13:13:22.63Z</time></trkpt><trkpt lat="42.4395266" lon="13.2664689"><ele>820.2</ele><time>2026-04-10T13:13:23.635Z</time></trkpt><trkpt lat="42.4394515" lon="13.2663519"><ele>820.8000000000001</ele><time>2026-04-10T13:13:24.633Z</time></trkpt><trkpt lat="42.4393802" lon="13.2662423"><ele>821.4000000000001</ele><time>2026-04-10T13:13:25.627Z</time></trkpt><trkpt lat="42.4393113" lon="13.2661578"><ele>822.0</ele><time>2026-04-10T13:13:26.64Z</time></trkpt><trkpt lat="42.4392493" lon="13.2660984"><ele>824.3333333333334</ele><time>2026-04-10T13:13:27.639Z</time></trkpt><trkpt lat="42.4391843" lon="13.2660509"><ele>826.6666666666667</ele><time>2026-04-10T13:13:28.638Z</time></trkpt><trkpt lat="42.4391254" lon="13.2659877"><ele>829.0</ele><time>2026-04-10T13:13:29.639Z</time></trkpt><trkpt lat="42.4390741" lon="13.265905"><ele>831.3333333333334</ele><time>2026-04-10T13:13:30.641Z</time></trkpt><trkpt lat="42.4390303" lon="13.2658101"><ele>833.6666666666667</ele><time>2026-04-10T13:13:31.645Z</time></trkpt><trkpt lat="42.43898" lon="13.2657078"><ele>836.0</ele><time>2026-04-10T13:13:32.64Z</time></trkpt><trkpt lat="42.438925" lon="13.2656012"><ele>837.4</ele><time>2026-04-10T13:13:33.636Z</time></trkpt><trkpt lat="42.4388706" lon="13.2655003"><ele>838.8</ele><time>2026-04-10T13:13:34.634Z</time></trkpt><trkpt lat="42.4388049" lon="13.2654072"><ele>840.1999999999999</ele><time>2026-04-10T13:13:35.639Z</time></trkpt><trkpt lat="42.4387381" lon="13.2653205"><ele>841.5999999999999</ele><time>2026-04-10T13:13:36.628Z</time></trkpt><trkpt lat="42.4386825" lon="13.2652366"><ele>843.0</ele><time>2026-04-10T13:13:37.629Z</time></trkpt><trkpt lat="42.4386327" lon="13.2651343"><ele>843.0</ele><time>2026-04-10T13:13:38.628Z</time></trkpt><trkpt lat="42.4386068" lon="13.2650171"><ele>843.0</ele><time>2026-04-10T13:13:39.626Z</time></trkpt><trkpt lat="42.4386048" lon="13.2648789"><ele>843.0</ele><time>2026-04-10T13:13:40.623Z</time></trkpt><trkpt lat="42.4386129" lon="13.2647312"><ele>843.0</ele><time>2026-04-10T13:13:41.623Z</time></trkpt><trkpt lat="42.4386294" lon="13.2645864"><ele>843.0</ele><time>2026-04-10T13:13:42.632Z</time></trkpt><trkpt lat="42.4386435" lon="13.2644416"><ele>845.0</ele><time>2026-04-10T13:13:43.63Z</time></trkpt><trkpt lat="42.4386447" lon="13.2643036"><ele>847.0</ele><time>2026-04-10T13:13:44.632Z</time></trkpt><trkpt lat="42.4386362" lon="13.2641748"><ele>849.0</ele><time>2026-04-10T13:13:45.62Z</time></trkpt><trkpt lat="42.438612" lon="13.2640515"><ele>851.0</ele><time>2026-04-10T13:13:46.629Z</time></trkpt><trkpt lat="42.4385705" lon="13.2639367"><ele>853.0</ele><time>2026-04-10T13:13:47.632Z</time></trkpt><trkpt lat="42.4385229" lon="13.2638199"><ele>855.8</ele><time>2026-04-10T13:13:48.626Z</time></trkpt><trkpt lat="42.4384728" lon="13.2637011"><ele>858.5999999999999</ele><time>2026-04-10T13:13:49.628Z</time></trkpt><trkpt lat="42.4384372" lon="13.2635774"><ele>861.4000000000001</ele><time>2026-04-10T13:13:50.63Z</time></trkpt><trkpt lat="42.4384212" lon="13.2634621"><ele>864.2</ele><time>2026-04-10T13:13:51.633Z</time></trkpt><trkpt lat="42.4384023" lon="13.2633474"><ele>867.0</ele><time>2026-04-10T13:13:52.629Z</time></trkpt><trkpt lat="42.4383803" lon="13.2632168"><ele>869.2</ele><time>2026-04-10T13:13:53.635Z</time></trkpt><trkpt lat="42.4383608" lon="13.2630807"><ele>871.4000000000001</ele><time>2026-04-10T13:13:54.636Z</time></trkpt><trkpt lat="42.4383425" lon="13.2629412"><ele>873.5999999999999</ele><time>2026-04-10T13:13:55.634Z</time></trkpt><trkpt lat="42.4383275" lon="13.262809"><ele>875.8</ele><time>2026-04-10T13:13:56.633Z</time></trkpt><trkpt lat="42.4383118" lon="13.2626712"><ele>878.0</ele><time>2026-04-10T13:13:57.634Z</time></trkpt><trkpt lat="42.4383069" lon="13.2625275"><ele>878.0</ele><time>2026-04-10T13:13:58.636Z</time></trkpt><trkpt lat="42.4383105" lon="13.2623872"><ele>878.0</ele><time>2026-04-10T13:13:59.62Z</time></trkpt><trkpt lat="42.4383315" lon="13.262243"><ele>878.0</ele><time>2026-04-10T13:14:00.624Z</time></trkpt><trkpt lat="42.4383663" lon="13.2621027"><ele>878.0</ele><time>2026-04-10T13:14:01.633Z</time></trkpt><trkpt lat="42.4384014" lon="13.2619711"><ele>878.0</ele><time>2026-04-10T13:14:02.632Z</time></trkpt><trkpt lat="42.43843" lon="13.2618435"><ele>880.4</ele><time>2026-04-10T13:14:03.633Z</time></trkpt><trkpt lat="42.4384559" lon="13.2617146"><ele>882.8</ele><time>2026-04-10T13:14:04.63Z</time></trkpt><trkpt lat="42.4384926" lon="13.2615956"><ele>885.2</ele><time>2026-04-10T13:14:05.625Z</time></trkpt><trkpt lat="42.4385577" lon="13.2615057"><ele>887.6</ele><time>2026-04-10T13:14:06.624Z</time></trkpt><trkpt lat="42.4386369" lon="13.2614322"><ele>890.0</ele><time>2026-04-10T13:14:07.631Z</time></trkpt><trkpt lat="42.4387143" lon="13.2613604"><ele>890.6</ele><time>2026-04-10T13:14:08.629Z</time></trkpt><trkpt lat="42.4387792" lon="13.2612815"><ele>891.2</ele><time>2026-04-10T13:14:09.618Z</time></trkpt><trkpt lat="42.4388205" lon="13.2611736"><ele>891.8</ele><time>2026-04-10T13:14:10.631Z</time></trkpt><trkpt lat="42.4388226" lon="13.2610529"><ele>892.4</ele><time>2026-04-10T13:14:11.628Z</time></trkpt><trkpt lat="42.4388069" lon="13.2609153"><ele>893.0</ele><time>2026-04-10T13:14:12.627Z</time></trkpt><trkpt lat="42.4387676" lon="13.2607459"><ele>895.25</ele><time>2026-04-10T13:14:13.63Z</time></trkpt><trkpt lat="42.4387214" lon="13.2605694"><ele>897.5</ele><time>2026-04-10T13:14:14.633Z</time></trkpt><trkpt lat="42.4386776" lon="13.260394"><ele>899.75</ele><time>2026-04-10T13:14:15.635Z</time></trkpt><trkpt lat="42.4386468" lon="13.2602188"><ele>902.0</ele><time>2026-04-10T13:14:16.646Z</time></trkpt><trkpt lat="42.4386304" lon="13.26004"><ele>902.0</ele><time>2026-04-10T13:14:17.637Z</time></trkpt><trkpt lat="42.4386365" lon="13.2598298"><ele>902.0</ele><time>2026-04-10T13:14:18.638Z</time></trkpt><trkpt lat="42.4386697" lon="13.2596146"><ele>902.0</ele><time>2026-04-10T13:14:19.639Z</time></trkpt><trkpt lat="42.4387045" lon="13.2594154"><ele>903.5</ele><time>2026-04-10T13:14:20.638Z</time></trkpt><trkpt lat="42.4387068" lon="13.2592238"><ele>905.0</ele><time>2026-04-10T13:14:21.637Z</time></trkpt><trkpt lat="42.4386961" lon="13.259023"><ele>906.5</ele><time>2026-04-10T13:14:22.63Z</time></trkpt><trkpt lat="42.438677" lon="13.2588085"><ele>908.0</ele><time>2026-04-10T13:14:23.637Z</time></trkpt><trkpt lat="42.438661" lon="13.2585885"><ele>909.2</ele><time>2026-04-10T13:14:24.634Z</time></trkpt><trkpt lat="42.4386494" lon="13.2584017"><ele>910.4</ele><time>2026-04-10T13:14:25.628Z</time></trkpt><trkpt lat="42.4386395" lon="13.2582513"><ele>911.6000000000001</ele><time>2026-04-10T13:14:26.628Z</time></trkpt><trkpt lat="42.4386416" lon="13.2581342"><ele>912.8000000000001</ele><time>2026-04-10T13:14:27.634Z</time></trkpt><trkpt lat="42.4386326" lon="13.2579939"><ele>914.0</ele><time>2026-04-10T13:14:28.633Z</time></trkpt><trkpt lat="42.4386228" lon="13.2578763"><ele>914.0</ele><time>2026-04-10T13:14:29.637Z</time></trkpt><trkpt lat="42.4385861" lon="13.2577584"><ele>914.0</ele><time>2026-04-10T13:14:30.632Z</time></trkpt><trkpt lat="42.4385214" lon="13.2576493"><ele>914.0</ele><time>2026-04-10T13:14:31.638Z</time></trkpt><trkpt lat="42.4384155" lon="13.2575209"><ele>914.0</ele><time>2026-04-10T13:14:32.625Z</time></trkpt><trkpt lat="42.4383017" lon="13.2573826"><ele>912.3333333333334</ele><time>2026-04-10T13:14:33.627Z</time></trkpt><trkpt lat="42.4381978" lon="13.2572299"><ele>910.6666666666667</ele><time>2026-04-10T13:14:34.615Z</time></trkpt><trkpt lat="42.4380854" lon="13.2570479"><ele>909.0</ele><time>2026-04-10T13:14:35.615Z</time></trkpt><trkpt lat="42.4379707" lon="13.2568474"><ele>911.3333333333333</ele><time>2026-04-10T13:14:36.614Z</time></trkpt><trkpt lat="42.4378666" lon="13.2566513"><ele>913.6666666666666</ele><time>2026-04-10T13:14:37.621Z</time></trkpt><trkpt lat="42.4377603" lon="13.2564904"><ele>916.0</ele><time>2026-04-10T13:14:38.618Z</time></trkpt><trkpt lat="42.437669" lon="13.2563592"><ele>916.0</ele><time>2026-04-10T13:14:39.624Z</time></trkpt><trkpt lat="42.437584" lon="13.2562656"><ele>916.0</ele><time>2026-04-10T13:14:40.627Z</time></trkpt><trkpt lat="42.4374817" lon="13.2561789"><ele>916.0</ele><time>2026-04-10T13:14:41.631Z</time></trkpt><trkpt lat="42.4373457" lon="13.2561011"><ele>916.0</ele><time>2026-04-10T13:14:42.633Z</time></trkpt><trkpt lat="42.437207" lon="13.2560025"><ele>917.0</ele><time>2026-04-10T13:14:43.636Z</time></trkpt><trkpt lat="42.4370695" lon="13.255878"><ele>918.0</ele><time>2026-04-10T13:14:44.645Z</time></trkpt><trkpt lat="42.4369396" lon="13.2557464"><ele>919.0</ele><time>2026-04-10T13:14:45.645Z</time></trkpt><trkpt lat="42.4368171" lon="13.2556192"><ele>919.0</ele><time>2026-04-10T13:14:46.64Z</time></trkpt><trkpt lat="42.4366983" lon="13.2555056"><ele>919.0</ele><time>2026-04-10T13:14:47.642Z</time></trkpt><trkpt lat="42.4365697" lon="13.2554168"><ele>919.0</ele><time>2026-04-10T13:14:48.652Z</time></trkpt><trkpt lat="42.4364317" lon="13.2553213"><ele>919.0</ele><time>2026-04-10T13:14:49.643Z</time></trkpt><trkpt lat="42.4363021" lon="13.2552331"><ele>920.25</ele><time>2026-04-10T13:14:50.643Z</time></trkpt><trkpt lat="42.4361941" lon="13.2551424"><ele>921.5</ele><time>2026-04-10T13:14:51.645Z</time></trkpt><trkpt lat="42.4360846" lon="13.2550189"><ele>922.75</ele><time>2026-04-10T13:14:52.634Z</time></trkpt><trkpt lat="42.4359969" lon="13.254866"><ele>924.0</ele><time>2026-04-10T13:14:53.644Z</time></trkpt><trkpt lat="42.4359175" lon="13.2546881"><ele>924.6666666666667</ele><time>2026-04-10T13:14:54.635Z</time></trkpt><trkpt lat="42.435868" lon="13.2544823"><ele>925.3333333333334</ele><time>2026-04-10T13:14:55.641Z</time></trkpt><trkpt lat="42.4358356" lon="13.2542664"><ele>926.0</ele><time>2026-04-10T13:14:56.641Z</time></trkpt><trkpt lat="42.4358062" lon="13.25406"><ele>926.4</ele><time>2026-04-10T13:14:57.642Z</time></trkpt><trkpt lat="42.4357716" lon="13.2539149"><ele>926.8</ele><time>2026-04-10T13:14:58.644Z</time></trkpt><trkpt lat="42.4357424" lon="13.2538168"><ele>927.1999999999999</ele><time>2026-04-10T13:14:59.63Z</time></trkpt><trkpt lat="42.4357268" lon="13.2536526"><ele>927.5999999999999</ele><time>2026-04-10T13:15:01.641Z</time></trkpt><trkpt lat="42.4357943" lon="13.2535242"><ele>928.0</ele><time>2026-04-10T13:15:03.64Z</time></trkpt><trkpt lat="42.4358734" lon="13.2534058"><ele>927.9999999999999</ele><time>2026-04-10T13:15:05.646Z</time></trkpt><trkpt lat="42.4359378" lon="13.2532512"><ele>928.0</ele><time>2026-04-10T13:15:07.647Z</time></trkpt><trkpt lat="42.43597" lon="13.2531733"><ele>928.0</ele><time>2026-04-10T13:15:08.648Z</time></trkpt><trkpt lat="42.4360043" lon="13.2530934"><ele>928.0</ele><time>2026-04-10T13:15:09.648Z</time></trkpt><trkpt lat="42.4360407" lon="13.2530126"><ele>927.9999999999999</ele><time>2026-04-10T13:15:10.646Z</time></trkpt><trkpt lat="42.4360767" lon="13.2529325"><ele>928.0</ele><time>2026-04-10T13:15:11.634Z</time></trkpt><trkpt lat="42.4361132" lon="13.2528433"><ele>928.8333333333333</ele><time>2026-04-10T13:15:12.643Z</time></trkpt><trkpt lat="42.4361487" lon="13.252755"><ele>929.6666666666666</ele><time>2026-04-10T13:15:13.642Z</time></trkpt><trkpt lat="42.4361803" lon="13.2526557"><ele>930.5</ele><time>2026-04-10T13:15:14.644Z</time></trkpt><trkpt lat="42.43621" lon="13.2525479"><ele>931.3333333333333</ele><time>2026-04-10T13:15:15.642Z</time></trkpt><trkpt lat="42.4362354" lon="13.2524384"><ele>932.1666666666666</ele><time>2026-04-10T13:15:16.642Z</time></trkpt><trkpt lat="42.4362594" lon="13.2523357"><ele>933.0</ele><time>2026-04-10T13:15:17.641Z</time></trkpt><trkpt lat="42.4362806" lon="13.2522324"><ele>933.2</ele><time>2026-04-10T13:15:18.645Z</time></trkpt><trkpt lat="42.4363038" lon="13.252126"><ele>933.4</ele><time>2026-04-10T13:15:19.641Z</time></trkpt><trkpt lat="42.4363215" lon="13.2520344"><ele>933.6000000000001</ele><time>2026-04-10T13:15:20.642Z</time></trkpt><trkpt lat="42.4363412" lon="13.2518866"><ele>933.8000000000001</ele><time>2026-04-10T13:15:22.637Z</time></trkpt><trkpt lat="42.4363726" lon="13.2517765"><ele>934.0</ele><time>2026-04-10T13:15:53.647Z</time></trkpt><trkpt lat="42.4364169" lon="13.2516099"><ele>935.0</ele><time>2026-04-10T13:15:55.653Z</time></trkpt><trkpt lat="42.4364751" lon="13.2514569"><ele>936.0</ele><time>2026-04-10T13:15:56.641Z</time></trkpt><trkpt lat="42.4365587" lon="13.2513178"><ele>937.0</ele><time>2026-04-10T13:15:57.64Z</time></trkpt><trkpt lat="42.4366508" lon="13.2511759"><ele>938.0</ele><time>2026-04-10T13:15:58.643Z</time></trkpt><trkpt lat="42.4367483" lon="13.2510209"><ele>938.0</ele><time>2026-04-10T13:15:59.637Z</time></trkpt><trkpt lat="42.4368597" lon="13.2508557"><ele>938.0</ele><time>2026-04-10T13:16:00.64Z</time></trkpt><trkpt lat="42.4369629" lon="13.2506885"><ele>938.0</ele><time>2026-04-10T13:16:01.643Z</time></trkpt><trkpt lat="42.4370673" lon="13.2505276"><ele>937.3333333333334</ele><time>2026-04-10T13:16:02.651Z</time></trkpt><trkpt lat="42.4371873" lon="13.2503608"><ele>936.6666666666667</ele><time>2026-04-10T13:16:03.645Z</time></trkpt><trkpt lat="42.4372846" lon="13.2501693"><ele>936.0</ele><time>2026-04-10T13:16:04.645Z</time></trkpt><trkpt lat="42.4373803" lon="13.24997"><ele>934.3333333333333</ele><time>2026-04-10T13:16:05.647Z</time></trkpt><trkpt lat="42.4374957" lon="13.2497751"><ele>932.6666666666666</ele><time>2026-04-10T13:16:06.647Z</time></trkpt><trkpt lat="42.4376107" lon="13.2495799"><ele>931.0</ele><time>2026-04-10T13:16:07.642Z</time></trkpt><trkpt lat="42.4377439" lon="13.2493709"><ele>931.0</ele><time>2026-04-10T13:16:08.637Z</time></trkpt><trkpt lat="42.4378731" lon="13.249159"><ele>931.0</ele><time>2026-04-10T13:16:09.641Z</time></trkpt><trkpt lat="42.4380072" lon="13.2489443"><ele>931.0</ele><time>2026-04-10T13:16:10.644Z</time></trkpt><trkpt lat="42.4381631" lon="13.2487286"><ele>930.0</ele><time>2026-04-10T13:16:11.641Z</time></trkpt><trkpt lat="42.4383037" lon="13.2485129"><ele>929.0</ele><time>2026-04-10T13:16:12.651Z</time></trkpt><trkpt lat="42.4384567" lon="13.2483002"><ele>928.0</ele><time>2026-04-10T13:16:13.636Z</time></trkpt><trkpt lat="42.4386178" lon="13.2481116"><ele>928.0</ele><time>2026-04-10T13:16:14.644Z</time></trkpt><trkpt lat="42.4387626" lon="13.2479219"><ele>928.0</ele><time>2026-04-10T13:16:15.64Z</time></trkpt><trkpt lat="42.4389137" lon="13.2477585"><ele>928.0</ele><time>2026-04-10T13:16:16.633Z</time></trkpt><trkpt lat="42.4390865" lon="13.2476265"><ele>927.0</ele><time>2026-04-10T13:16:17.633Z</time></trkpt><trkpt lat="42.4392562" lon="13.2475204"><ele>926.0</ele><time>2026-04-10T13:16:18.642Z</time></trkpt><trkpt lat="42.4394433" lon="13.2475018"><ele>925.0</ele><time>2026-04-10T13:16:19.633Z</time></trkpt><trkpt lat="42.4396061" lon="13.2474424"><ele>925.6666666666666</ele><time>2026-04-10T13:16:20.635Z</time></trkpt><trkpt lat="42.43976" lon="13.2473455"><ele>926.3333333333333</ele><time>2026-04-10T13:16:21.636Z</time></trkpt><trkpt lat="42.4399036" lon="13.2471816"><ele>927.0</ele><time>2026-04-10T13:16:22.647Z</time></trkpt><trkpt lat="42.4400089" lon="13.2469784"><ele>930.0</ele><time>2026-04-10T13:16:23.639Z</time></trkpt><trkpt lat="42.4401315" lon="13.2467688"><ele>933.0</ele><time>2026-04-10T13:16:24.636Z</time></trkpt><trkpt lat="42.4402559" lon="13.2465721"><ele>936.0</ele><time>2026-04-10T13:16:25.633Z</time></trkpt><trkpt lat="42.4403464" lon="13.2463647"><ele>936.3333333333333</ele><time>2026-04-10T13:16:26.643Z</time></trkpt><trkpt lat="42.4404242" lon="13.2461288"><ele>936.6666666666666</ele><time>2026-04-10T13:16:27.643Z</time></trkpt><trkpt lat="42.4404984" lon="13.2458816"><ele>937.0</ele><time>2026-04-10T13:16:28.644Z</time></trkpt><trkpt lat="42.4405433" lon="13.2456422"><ele>938.3333333333333</ele><time>2026-04-10T13:16:29.644Z</time></trkpt><trkpt lat="42.4406141" lon="13.2453835"><ele>939.6666666666667</ele><time>2026-04-10T13:16:30.64Z</time></trkpt><trkpt lat="42.4407158" lon="13.2451604"><ele>941.0</ele><time>2026-04-10T13:16:31.646Z</time></trkpt><trkpt lat="42.4408384" lon="13.2449404"><ele>943.0</ele><time>2026-04-10T13:16:32.652Z</time></trkpt><trkpt lat="42.4409366" lon="13.2447512"><ele>945.0</ele><time>2026-04-10T13:16:33.638Z</time></trkpt><trkpt lat="42.4410816" lon="13.2445778"><ele>947.0</ele><time>2026-04-10T13:16:34.639Z</time></trkpt><trkpt lat="42.4412276" lon="13.2444164"><ele>946.6666666666667</ele><time>2026-04-10T13:16:35.635Z</time></trkpt><trkpt lat="42.441387" lon="13.2443046"><ele>946.3333333333333</ele><time>2026-04-10T13:16:36.632Z</time></trkpt><trkpt lat="42.4415329" lon="13.244178"><ele>946.0</ele><time>2026-04-10T13:16:37.631Z</time></trkpt><trkpt lat="42.4416706" lon="13.2440452"><ele>946.25</ele><time>2026-04-10T13:16:38.635Z</time></trkpt><trkpt lat="42.4417884" lon="13.2439121"><ele>946.5</ele><time>2026-04-10T13:16:39.632Z</time></trkpt><trkpt lat="42.4418526" lon="13.2437635"><ele>946.75</ele><time>2026-04-10T13:16:40.632Z</time></trkpt><trkpt lat="42.4419216" lon="13.2435687"><ele>947.0</ele><time>2026-04-10T13:16:41.627Z</time></trkpt><trkpt lat="42.4419191" lon="13.2433401"><ele>945.6666666666667</ele><time>2026-04-10T13:16:42.628Z</time></trkpt><trkpt lat="42.4419198" lon="13.2431048"><ele>944.3333333333333</ele><time>2026-04-10T13:16:43.627Z</time></trkpt><trkpt lat="42.4419302" lon="13.2429034"><ele>943.0</ele><time>2026-04-10T13:16:44.628Z</time></trkpt><trkpt lat="42.4419211" lon="13.2426928"><ele>943.0</ele><time>2026-04-10T13:16:45.634Z</time></trkpt><trkpt lat="42.4419253" lon="13.2424919"><ele>943.0</ele><time>2026-04-10T13:16:46.629Z</time></trkpt><trkpt lat="42.4419281" lon="13.2422849"><ele>943.0</ele><time>2026-04-10T13:16:47.638Z</time></trkpt><trkpt lat="42.4419225" lon="13.242113"><ele>943.0</ele><time>2026-04-10T13:16:48.628Z</time></trkpt><trkpt lat="42.4418912" lon="13.2419482"><ele>941.5999999999999</ele><time>2026-04-10T13:16:49.627Z</time></trkpt><trkpt lat="42.4418279" lon="13.2418027"><ele>940.1999999999999</ele><time>2026-04-10T13:16:50.631Z</time></trkpt><trkpt lat="42.4418032" lon="13.2416822"><ele>938.8</ele><time>2026-04-10T13:16:51.627Z</time></trkpt><trkpt lat="42.4418377" lon="13.2415818"><ele>937.4</ele><time>2026-04-10T13:16:52.623Z</time></trkpt><trkpt lat="42.4419121" lon="13.2415203"><ele>936.0</ele><time>2026-04-10T13:16:53.635Z</time></trkpt><trkpt lat="42.4419831" lon="13.2415325"><ele>936.0</ele><time>2026-04-10T13:16:54.627Z</time></trkpt><trkpt lat="42.4420671" lon="13.2415854"><ele>936.0</ele><time>2026-04-10T13:16:55.62Z</time></trkpt><trkpt lat="42.442149" lon="13.2416664"><ele>936.0</ele><time>2026-04-10T13:16:56.62Z</time></trkpt><trkpt lat="42.442244" lon="13.2418047"><ele>936.0</ele><time>2026-04-10T13:16:57.619Z</time></trkpt><trkpt lat="42.4423394" lon="13.2419595"><ele>934.0</ele><time>2026-04-10T13:16:58.622Z</time></trkpt><trkpt lat="42.4424294" lon="13.2421225"><ele>932.0</ele><time>2026-04-10T13:16:59.624Z</time></trkpt><trkpt lat="42.4425204" lon="13.2422794"><ele>930.0</ele><time>2026-04-10T13:17:00.625Z</time></trkpt><trkpt lat="42.442604" lon="13.2424087"><ele>928.0</ele><time>2026-04-10T13:17:01.62Z</time></trkpt><trkpt lat="42.4427334" lon="13.24246"><ele>928.0</ele><time>2026-04-10T13:17:02.627Z</time></trkpt><trkpt lat="42.4429051" lon="13.2424671"><ele>928.0</ele><time>2026-04-10T13:17:03.626Z</time></trkpt><trkpt lat="42.4431056" lon="13.2424474"><ele>928.0</ele><time>2026-04-10T13:17:04.634Z</time></trkpt><trkpt lat="42.4432751" lon="13.2424229"><ele>925.0</ele><time>2026-04-10T13:17:05.626Z</time></trkpt><trkpt lat="42.4434833" lon="13.2423822"><ele>922.0</ele><time>2026-04-10T13:17:06.624Z</time></trkpt><trkpt lat="42.4436656" lon="13.2423271"><ele>919.0</ele><time>2026-04-10T13:17:07.633Z</time></trkpt><trkpt lat="42.4438526" lon="13.2422721"><ele>912.0</ele><time>2026-04-10T13:17:08.631Z</time></trkpt><trkpt lat="42.444067" lon="13.2421888"><ele>905.0</ele><time>2026-04-10T13:17:09.639Z</time></trkpt><trkpt lat="42.4442862" lon="13.2420964"><ele>905.0</ele><time>2026-04-10T13:17:10.713Z</time></trkpt><trkpt lat="42.4445112" lon="13.2419834"><ele>905.0</ele><time>2026-04-10T13:17:11.711Z</time></trkpt><trkpt lat="42.4447327" lon="13.2418586"><ele>904.0</ele><time>2026-04-10T13:17:12.728Z</time></trkpt><trkpt lat="42.4449473" lon="13.2417274"><ele>903.0</ele><time>2026-04-10T13:17:13.715Z</time></trkpt><trkpt lat="42.4451514" lon="13.2415944"><ele>903.0</ele><time>2026-04-10T13:17:14.701Z</time></trkpt><trkpt lat="42.4453432" lon="13.2414681"><ele>903.0</ele><time>2026-04-10T13:17:15.698Z</time></trkpt><trkpt lat="42.4455256" lon="13.2413305"><ele>903.0</ele><time>2026-04-10T13:17:16.701Z</time></trkpt><trkpt lat="42.4456916" lon="13.241211"><ele>900.0</ele><time>2026-04-10T13:17:17.694Z</time></trkpt><trkpt lat="42.4458507" lon="13.2411129"><ele>897.0</ele><time>2026-04-10T13:17:18.684Z</time></trkpt><trkpt lat="42.4459982" lon="13.2410255"><ele>894.0</ele><time>2026-04-10T13:17:19.689Z</time></trkpt><trkpt lat="42.4461382" lon="13.2409125"><ele>894.0</ele><time>2026-04-10T13:17:20.687Z</time></trkpt><trkpt lat="42.4462781" lon="13.2408186"><ele>894.0</ele><time>2026-04-10T13:17:21.689Z</time></trkpt><trkpt lat="42.4462679" lon="13.2400694"><ele>894.6666666666667</ele><time>2026-04-10T13:17:22.706Z</time></trkpt><trkpt lat="42.4463671" lon="13.2398643"><ele>895.3333333333334</ele><time>2026-04-10T13:17:23.713Z</time></trkpt><trkpt lat="42.4464664" lon="13.2396594"><ele>896.0</ele><time>2026-04-10T13:17:24.723Z</time></trkpt><trkpt lat="42.4465621" lon="13.2394577"><ele>896.0</ele><time>2026-04-10T13:17:25.718Z</time></trkpt><trkpt lat="42.4466547" lon="13.2392433"><ele>896.0</ele><time>2026-04-10T13:17:26.716Z</time></trkpt><trkpt lat="42.4467481" lon="13.238999"><ele>896.0</ele><time>2026-04-10T13:17:27.709Z</time></trkpt><trkpt lat="42.4468595" lon="13.2387571"><ele>895.0</ele><time>2026-04-10T13:17:28.695Z</time></trkpt><trkpt lat="42.4469871" lon="13.2385283"><ele>894.0</ele><time>2026-04-10T13:17:29.702Z</time></trkpt><trkpt lat="42.4471296" lon="13.2383243"><ele>893.0</ele><time>2026-04-10T13:17:30.697Z</time></trkpt><trkpt lat="42.4473166" lon="13.238194"><ele>889.6666666666667</ele><time>2026-04-10T13:17:31.707Z</time></trkpt><trkpt lat="42.4474709" lon="13.2379915"><ele>886.3333333333333</ele><time>2026-04-10T13:17:32.693Z</time></trkpt><trkpt lat="42.4476283" lon="13.2378431"><ele>883.0</ele><time>2026-04-10T13:17:33.697Z</time></trkpt><trkpt lat="42.4477931" lon="13.2377393"><ele>883.0</ele><time>2026-04-10T13:17:34.712Z</time></trkpt><trkpt lat="42.4479346" lon="13.2375762"><ele>883.0</ele><time>2026-04-10T13:17:35.704Z</time></trkpt><trkpt lat="42.4480722" lon="13.2374017"><ele>883.0</ele><time>2026-04-10T13:17:36.709Z</time></trkpt><trkpt lat="42.4482082" lon="13.237209"><ele>880.6666666666666</ele><time>2026-04-10T13:17:37.706Z</time></trkpt><trkpt lat="42.4483381" lon="13.237005"><ele>878.3333333333333</ele><time>2026-04-10T13:17:38.712Z</time></trkpt><trkpt lat="42.4484639" lon="13.236791"><ele>876.0</ele><time>2026-04-10T13:17:39.713Z</time></trkpt><trkpt lat="42.4485952" lon="13.2365869"><ele>874.0</ele><time>2026-04-10T13:17:40.709Z</time></trkpt><trkpt lat="42.4487396" lon="13.236379"><ele>872.0</ele><time>2026-04-10T13:17:41.708Z</time></trkpt><trkpt lat="42.4488951" lon="13.2361694"><ele>870.0</ele><time>2026-04-10T13:17:42.699Z</time></trkpt><trkpt lat="42.4490431" lon="13.2359929"><ele>870.0</ele><time>2026-04-10T13:17:43.702Z</time></trkpt><trkpt lat="42.4491885" lon="13.2358132"><ele>870.0</ele><time>2026-04-10T13:17:44.69Z</time></trkpt><trkpt lat="42.4493196" lon="13.2356593"><ele>870.0</ele><time>2026-04-10T13:17:45.695Z</time></trkpt><trkpt lat="42.4494282" lon="13.2354806"><ele>867.3333333333333</ele><time>2026-04-10T13:17:46.708Z</time></trkpt><trkpt lat="42.4495192" lon="13.2353151"><ele>864.6666666666666</ele><time>2026-04-10T13:17:47.715Z</time></trkpt><trkpt lat="42.4496367" lon="13.2350892"><ele>862.0</ele><time>2026-04-10T13:17:48.693Z</time></trkpt><trkpt lat="42.4497536" lon="13.2348565"><ele>860.0</ele><time>2026-04-10T13:17:49.703Z</time></trkpt><trkpt lat="42.4498708" lon="13.2346508"><ele>858.0</ele><time>2026-04-10T13:17:50.694Z</time></trkpt><trkpt lat="42.4500005" lon="13.2344375"><ele>856.0</ele><time>2026-04-10T13:17:51.685Z</time></trkpt><trkpt lat="42.4501459" lon="13.2342374"><ele>856.0</ele><time>2026-04-10T13:17:52.69Z</time></trkpt><trkpt lat="42.450306" lon="13.2340749"><ele>856.0</ele><time>2026-04-10T13:17:53.702Z</time></trkpt><trkpt lat="42.4504807" lon="13.2339636"><ele>856.0</ele><time>2026-04-10T13:17:54.683Z</time></trkpt><trkpt lat="42.4506721" lon="13.2338954"><ele>853.6666666666666</ele><time>2026-04-10T13:17:55.681Z</time></trkpt><trkpt lat="42.4508552" lon="13.2339201"><ele>851.3333333333333</ele><time>2026-04-10T13:17:56.699Z</time></trkpt><trkpt lat="42.4510283" lon="13.2338906"><ele>849.0</ele><time>2026-04-10T13:17:57.702Z</time></trkpt><trkpt lat="42.451205" lon="13.2338505"><ele>847.3333333333333</ele><time>2026-04-10T13:17:58.713Z</time></trkpt><trkpt lat="42.4513714" lon="13.2338264"><ele>845.6666666666666</ele><time>2026-04-10T13:17:59.716Z</time></trkpt><trkpt lat="42.4515366" lon="13.2338084"><ele>844.0</ele><time>2026-04-10T13:18:00.713Z</time></trkpt><trkpt lat="42.4517085" lon="13.2338191"><ele>844.0</ele><time>2026-04-10T13:18:01.704Z</time></trkpt><trkpt lat="42.4518772" lon="13.2338427"><ele>844.0</ele><time>2026-04-10T13:18:02.703Z</time></trkpt><trkpt lat="42.4520373" lon="13.2338728"><ele>844.0</ele><time>2026-04-10T13:18:03.7Z</time></trkpt><trkpt lat="42.4521897" lon="13.2338999"><ele>844.0</ele><time>2026-04-10T13:18:04.71Z</time></trkpt><trkpt lat="42.4523297" lon="13.2339307"><ele>844.0</ele><time>2026-04-10T13:18:05.717Z</time></trkpt><trkpt lat="42.4524377" lon="13.2340048"><ele>844.0</ele><time>2026-04-10T13:18:06.698Z</time></trkpt><trkpt lat="42.45251" lon="13.2340307"><ele>844.0</ele><time>2026-04-10T13:18:07.694Z</time></trkpt><trkpt lat="42.4525582" lon="13.2339379"><ele>844.0</ele><time>2026-04-10T13:18:08.684Z</time></trkpt><trkpt lat="42.4526065" lon="13.2337946"><ele>844.0</ele><time>2026-04-10T13:18:09.695Z</time></trkpt><trkpt lat="42.4526919" lon="13.2336631"><ele>844.0</ele><time>2026-04-10T13:18:10.694Z</time></trkpt><trkpt lat="42.4527825" lon="13.2335036"><ele>844.0</ele><time>2026-04-10T13:18:11.702Z</time></trkpt><trkpt lat="42.4528713" lon="13.2333155"><ele>844.0</ele><time>2026-04-10T13:18:12.717Z</time></trkpt><trkpt lat="42.4529569" lon="13.2330971"><ele>843.6666666666666</ele><time>2026-04-10T13:18:13.717Z</time></trkpt><trkpt lat="42.4530558" lon="13.2328382"><ele>843.3333333333333</ele><time>2026-04-10T13:18:14.723Z</time></trkpt><trkpt lat="42.4531321" lon="13.2326411"><ele>843.0</ele><time>2026-04-10T13:18:15.721Z</time></trkpt><trkpt lat="42.4532041" lon="13.2324674"><ele>843.0</ele><time>2026-04-10T13:18:16.724Z</time></trkpt><trkpt lat="42.45327" lon="13.2323019"><ele>843.0</ele><time>2026-04-10T13:18:17.723Z</time></trkpt><trkpt lat="42.4533351" lon="13.232145"><ele>843.0</ele><time>2026-04-10T13:18:18.723Z</time></trkpt><trkpt lat="42.4534028" lon="13.2319891"><ele>843.0</ele><time>2026-04-10T13:18:19.724Z</time></trkpt><trkpt lat="42.4534707" lon="13.2318327"><ele>843.0</ele><time>2026-04-10T13:18:20.723Z</time></trkpt><trkpt lat="42.4535355" lon="13.2316757"><ele>843.0</ele><time>2026-04-10T13:18:21.718Z</time></trkpt><trkpt lat="42.4536029" lon="13.2315148"><ele>843.0</ele><time>2026-04-10T13:18:22.718Z</time></trkpt><trkpt lat="42.453664" lon="13.2313579"><ele>843.0</ele><time>2026-04-10T13:18:23.726Z</time></trkpt><trkpt lat="42.4537071" lon="13.2312171"><ele>842.75</ele><time>2026-04-10T13:18:24.713Z</time></trkpt><trkpt lat="42.4537179" lon="13.2310898"><ele>842.5</ele><time>2026-04-10T13:18:25.707Z</time></trkpt><trkpt lat="42.4537143" lon="13.2309565"><ele>842.25</ele><time>2026-04-10T13:18:26.699Z</time></trkpt><trkpt lat="42.4536881" lon="13.2308042"><ele>842.0</ele><time>2026-04-10T13:18:27.698Z</time></trkpt><trkpt lat="42.4536439" lon="13.2305787"><ele>841.0</ele><time>2026-04-10T13:18:28.696Z</time></trkpt><trkpt lat="42.4536044" lon="13.2303714"><ele>840.0</ele><time>2026-04-10T13:18:29.7Z</time></trkpt><trkpt lat="42.4535519" lon="13.2301668"><ele>839.0</ele><time>2026-04-10T13:18:30.72Z</time></trkpt><trkpt lat="42.4534983" lon="13.2299642"><ele>840.0</ele><time>2026-04-10T13:18:31.721Z</time></trkpt><trkpt lat="42.4534447" lon="13.2297606"><ele>841.0</ele><time>2026-04-10T13:18:32.719Z</time></trkpt><trkpt lat="42.4533899" lon="13.2295595"><ele>842.0</ele><time>2026-04-10T13:18:33.717Z</time></trkpt><trkpt lat="42.4533365" lon="13.229367"><ele>842.0</ele><time>2026-04-10T13:18:34.715Z</time></trkpt><trkpt lat="42.4532755" lon="13.229159"><ele>842.0</ele><time>2026-04-10T13:18:35.709Z</time></trkpt><trkpt lat="42.4532322" lon="13.2289555"><ele>842.0</ele><time>2026-04-10T13:18:36.708Z</time></trkpt><trkpt lat="42.4532105" lon="13.2287476"><ele>842.3333333333334</ele><time>2026-04-10T13:18:37.698Z</time></trkpt><trkpt lat="42.4532227" lon="13.2285413"><ele>842.6666666666667</ele><time>2026-04-10T13:18:38.692Z</time></trkpt><trkpt lat="42.4532838" lon="13.2283529"><ele>843.0</ele><time>2026-04-10T13:18:39.69Z</time></trkpt><trkpt lat="42.4534753" lon="13.2284742"><ele>843.0</ele><time>2026-04-10T13:18:40.617Z</time></trkpt><trkpt lat="42.4535936" lon="13.2284006"><ele>843.0</ele><time>2026-04-10T13:18:41.618Z</time></trkpt><trkpt lat="42.4536959" lon="13.2283373"><ele>843.0</ele><time>2026-04-10T13:18:42.618Z</time></trkpt><trkpt lat="42.4538155" lon="13.2282638"><ele>843.0</ele><time>2026-04-10T13:18:43.63Z</time></trkpt><trkpt lat="42.453924" lon="13.2281909"><ele>843.5</ele><time>2026-04-10T13:18:44.636Z</time></trkpt><trkpt lat="42.4540355" lon="13.2281156"><ele>844.0</ele><time>2026-04-10T13:18:45.634Z</time></trkpt><trkpt lat="42.4541443" lon="13.2280315"><ele>844.5</ele><time>2026-04-10T13:18:46.632Z</time></trkpt><trkpt lat="42.4542432" lon="13.2279742"><ele>845.0</ele><time>2026-04-10T13:18:47.632Z</time></trkpt><trkpt lat="42.4543377" lon="13.2279114"><ele>845.0</ele><time>2026-04-10T13:18:48.629Z</time></trkpt><trkpt lat="42.4544119" lon="13.2278605"><ele>845.0</ele><time>2026-04-10T13:18:49.632Z</time></trkpt><trkpt lat="42.4545056" lon="13.2277901"><ele>845.0</ele><time>2026-04-10T13:18:51.623Z</time></trkpt><trkpt lat="42.4545576" lon="13.2276984"><ele>845.0</ele><time>2026-04-10T13:19:11.638Z</time></trkpt><trkpt lat="42.4545128" lon="13.2275431"><ele>845.0</ele><time>2026-04-10T13:19:13.63Z</time></trkpt><trkpt lat="42.4544495" lon="13.2274094"><ele>844.75</ele><time>2026-04-10T13:19:14.631Z</time></trkpt><trkpt lat="42.4543917" lon="13.2272733"><ele>844.5</ele><time>2026-04-10T13:19:15.629Z</time></trkpt><trkpt lat="42.4543268" lon="13.2271291"><ele>844.25</ele><time>2026-04-10T13:19:16.631Z</time></trkpt><trkpt lat="42.4542509" lon="13.2269783"><ele>844.0</ele><time>2026-04-10T13:19:17.634Z</time></trkpt><trkpt lat="42.454184" lon="13.2268216"><ele>844.0</ele><time>2026-04-10T13:19:18.63Z</time></trkpt><trkpt lat="42.4541231" lon="13.2266601"><ele>844.0</ele><time>2026-04-10T13:19:19.633Z</time></trkpt><trkpt lat="42.4540507" lon="13.2264948"><ele>844.0</ele><time>2026-04-10T13:19:20.633Z</time></trkpt><trkpt lat="42.4539815" lon="13.2263337"><ele>844.0</ele><time>2026-04-10T13:19:21.624Z</time></trkpt><trkpt lat="42.4539128" lon="13.2261734"><ele>844.0</ele><time>2026-04-10T13:19:22.627Z</time></trkpt><trkpt lat="42.4538216" lon="13.2259999"><ele>844.0</ele><time>2026-04-10T13:19:23.632Z</time></trkpt><trkpt lat="42.4537297" lon="13.2258414"><ele>844.0</ele><time>2026-04-10T13:19:24.629Z</time></trkpt><trkpt lat="42.4536957" lon="13.2257139"><ele>844.0</ele><time>2026-04-10T13:19:25.633Z</time></trkpt><trkpt lat="42.4536361" lon="13.2255883"><ele>843.8000000000001</ele><time>2026-04-10T13:19:26.643Z</time></trkpt><trkpt lat="42.4535755" lon="13.2254534"><ele>843.6</ele><time>2026-04-10T13:19:27.63Z</time></trkpt><trkpt lat="42.4535395" lon="13.2253404"><ele>843.4</ele><time>2026-04-10T13:19:28.627Z</time></trkpt><trkpt lat="42.4534856" lon="13.2252098"><ele>843.2</ele><time>2026-04-10T13:19:29.623Z</time></trkpt><trkpt lat="42.4534416" lon="13.225089"><ele>843.0</ele><time>2026-04-10T13:19:30.627Z</time></trkpt><trkpt lat="42.4533906" lon="13.2249644"><ele>843.0</ele><time>2026-04-10T13:19:31.63Z</time></trkpt><trkpt lat="42.4533359" lon="13.2248416"><ele>843.0</ele><time>2026-04-10T13:19:32.628Z</time></trkpt><trkpt lat="42.4532841" lon="13.2247184"><ele>843.0</ele><time>2026-04-10T13:19:33.628Z</time></trkpt><trkpt lat="42.4532309" lon="13.2245869"><ele>843.0</ele><time>2026-04-10T13:19:34.632Z</time></trkpt><trkpt lat="42.4531865" lon="13.2244539"><ele>843.0</ele><time>2026-04-10T13:19:35.627Z</time></trkpt><trkpt lat="42.4531427" lon="13.2243291"><ele>843.0</ele><time>2026-04-10T13:19:36.626Z</time></trkpt><trkpt lat="42.4531026" lon="13.2242059"><ele>843.0</ele><time>2026-04-10T13:19:37.62Z</time></trkpt><trkpt lat="42.4530515" lon="13.2240747"><ele>843.0</ele><time>2026-04-10T13:19:38.621Z</time></trkpt><trkpt lat="42.4529986" lon="13.2239524"><ele>843.0</ele><time>2026-04-10T13:19:39.616Z</time></trkpt><trkpt lat="42.4529374" lon="13.2238349"><ele>843.0</ele><time>2026-04-10T13:19:40.615Z</time></trkpt><trkpt lat="42.4528799" lon="13.2237166"><ele>843.5999999999999</ele><time>2026-04-10T13:19:41.63Z</time></trkpt><trkpt lat="42.452823" lon="13.2235915"><ele>844.1999999999999</ele><time>2026-04-10T13:19:42.624Z</time></trkpt><trkpt lat="42.4527704" lon="13.2234694"><ele>844.8</ele><time>2026-04-10T13:19:43.62Z</time></trkpt><trkpt lat="42.4527207" lon="13.2233551"><ele>845.4</ele><time>2026-04-10T13:19:44.625Z</time></trkpt><trkpt lat="42.4526624" lon="13.2232583"><ele>846.0</ele><time>2026-04-10T13:19:45.623Z</time></trkpt><trkpt lat="42.4526126" lon="13.2231623"><ele>845.8</ele><time>2026-04-10T13:19:46.621Z</time></trkpt><trkpt lat="42.4525673" lon="13.2230921"><ele>845.5999999999999</ele><time>2026-04-10T13:19:47.622Z</time></trkpt><trkpt lat="42.4524849" lon="13.2228994"><ele>845.4</ele><time>2026-04-10T13:19:50.626Z</time></trkpt><trkpt lat="42.4524522" lon="13.2228048"><ele>845.2</ele><time>2026-04-10T13:19:52.637Z</time></trkpt><trkpt lat="42.4524071" lon="13.222899"><ele>845.0</ele><time>2026-04-10T13:19:56.635Z</time></trkpt><trkpt lat="42.4524786" lon="13.2230154"><ele>845.0</ele><time>2026-04-10T13:19:58.624Z</time></trkpt><trkpt lat="42.4525427" lon="13.2230937"><ele>845.0</ele><time>2026-04-10T13:19:59.614Z</time></trkpt><trkpt lat="42.4526136" lon="13.2232071"><ele>845.0</ele><time>2026-04-10T13:20:00.62Z</time></trkpt><trkpt lat="42.4526777" lon="13.2233275"><ele>845.0</ele><time>2026-04-10T13:20:01.621Z</time></trkpt><trkpt lat="42.4527461" lon="13.2234627"><ele>845.0</ele><time>2026-04-10T13:20:02.623Z</time></trkpt><trkpt lat="42.4528126" lon="13.2236176"><ele>845.0</ele><time>2026-04-10T13:20:03.624Z</time></trkpt><trkpt lat="42.4528869" lon="13.2237795"><ele>845.0</ele><time>2026-04-10T13:20:04.625Z</time></trkpt><trkpt lat="42.4529508" lon="13.223951"><ele>845.0</ele><time>2026-04-10T13:20:05.628Z</time></trkpt><trkpt lat="42.4530152" lon="13.2241274"><ele>845.0</ele><time>2026-04-10T13:20:06.624Z</time></trkpt><trkpt lat="42.4530995" lon="13.2243047"><ele>845.0</ele><time>2026-04-10T13:20:07.626Z</time></trkpt><trkpt lat="42.4531705" lon="13.2244848"><ele>845.0</ele><time>2026-04-10T13:20:08.624Z</time></trkpt><trkpt lat="42.4532494" lon="13.2246777"><ele>845.0</ele><time>2026-04-10T13:20:09.623Z</time></trkpt><trkpt lat="42.4533217" lon="13.2248698"><ele>844.3333333333334</ele><time>2026-04-10T13:20:10.623Z</time></trkpt><trkpt lat="42.4533908" lon="13.2250668"><ele>843.6666666666667</ele><time>2026-04-10T13:20:11.623Z</time></trkpt><trkpt lat="42.4534683" lon="13.2252582"><ele>843.0</ele><time>2026-04-10T13:20:12.619Z</time></trkpt><trkpt lat="42.4535434" lon="13.2254339"><ele>843.0</ele><time>2026-04-10T13:20:13.624Z</time></trkpt><trkpt lat="42.4536112" lon="13.2256122"><ele>843.0</ele><time>2026-04-10T13:20:14.624Z</time></trkpt><trkpt lat="42.4536967" lon="13.2257787"><ele>843.0</ele><time>2026-04-10T13:20:15.623Z</time></trkpt><trkpt lat="42.4537708" lon="13.2259629"><ele>843.25</ele><time>2026-04-10T13:20:16.622Z</time></trkpt><trkpt lat="42.4538381" lon="13.2261407"><ele>843.5</ele><time>2026-04-10T13:20:17.625Z</time></trkpt><trkpt lat="42.4539086" lon="13.2263065"><ele>843.75</ele><time>2026-04-10T13:20:18.623Z</time></trkpt><trkpt lat="42.4539832" lon="13.2264756"><ele>844.0</ele><time>2026-04-10T13:20:19.62Z</time></trkpt><trkpt lat="42.4540525" lon="13.2266456"><ele>844.0</ele><time>2026-04-10T13:20:20.62Z</time></trkpt><trkpt lat="42.4541286" lon="13.2268102"><ele>844.0</ele><time>2026-04-10T13:20:21.624Z</time></trkpt><trkpt lat="42.4542099" lon="13.2270005"><ele>844.0</ele><time>2026-04-10T13:20:22.625Z</time></trkpt><trkpt lat="42.4542852" lon="13.2271951"><ele>844.3333333333333</ele><time>2026-04-10T13:20:23.626Z</time></trkpt><trkpt lat="42.454362" lon="13.2273821"><ele>844.6666666666667</ele><time>2026-04-10T13:20:24.624Z</time></trkpt><trkpt lat="42.4544456" lon="13.2275579"><ele>845.0</ele><time>2026-04-10T13:20:25.623Z</time></trkpt><trkpt lat="42.4545426" lon="13.2277571"><ele>845.0</ele><time>2026-04-10T13:20:26.625Z</time></trkpt><trkpt lat="42.4545939" lon="13.2279507"><ele>845.0</ele><time>2026-04-10T13:20:27.63Z</time></trkpt><trkpt lat="42.4546573" lon="13.2281408"><ele>845.0</ele><time>2026-04-10T13:20:28.632Z</time></trkpt><trkpt lat="42.4547107" lon="13.2283329"><ele>846.0</ele><time>2026-04-10T13:20:29.626Z</time></trkpt><trkpt lat="42.4547789" lon="13.2285168"><ele>847.0</ele><time>2026-04-10T13:20:30.63Z</time></trkpt><trkpt lat="42.4548427" lon="13.2287038"><ele>848.0</ele><time>2026-04-10T13:20:31.636Z</time></trkpt><trkpt lat="42.4549271" lon="13.2288889"><ele>848.25</ele><time>2026-04-10T13:20:32.626Z</time></trkpt><trkpt lat="42.4550139" lon="13.2290613"><ele>848.5</ele><time>2026-04-10T13:20:33.626Z</time></trkpt><trkpt lat="42.4550756" lon="13.2292257"><ele>848.75</ele><time>2026-04-10T13:20:34.625Z</time></trkpt><trkpt lat="42.455139" lon="13.2293854"><ele>849.0</ele><time>2026-04-10T13:20:35.625Z</time></trkpt><trkpt lat="42.4551948" lon="13.2295246"><ele>849.0</ele><time>2026-04-10T13:20:36.624Z</time></trkpt><trkpt lat="42.4552494" lon="13.2296662"><ele>849.0</ele><time>2026-04-10T13:20:37.624Z</time></trkpt><trkpt lat="42.4552867" lon="13.2298003"><ele>849.0</ele><time>2026-04-10T13:20:38.627Z</time></trkpt><trkpt lat="42.4553406" lon="13.229906"><ele>849.0</ele><time>2026-04-10T13:20:39.625Z</time></trkpt><trkpt lat="42.4553971" lon="13.2300122"><ele>849.0</ele><time>2026-04-10T13:20:40.624Z</time></trkpt><trkpt lat="42.4554526" lon="13.2301023"><ele>849.0</ele><time>2026-04-10T13:20:41.625Z</time></trkpt><trkpt lat="42.4554929" lon="13.2301754"><ele>849.0</ele><time>2026-04-10T13:20:42.616Z</time></trkpt><trkpt lat="42.4555139" lon="13.2302664"><ele>849.0</ele><time>2026-04-10T13:20:45.632Z</time></trkpt><trkpt lat="42.4554621" lon="13.2303871"><ele>849.0</ele><time>2026-04-10T13:20:48.632Z</time></trkpt><trkpt lat="42.4554077" lon="13.2305122"><ele>849.0</ele><time>2026-04-10T13:20:50.623Z</time></trkpt><trkpt lat="42.4553666" lon="13.2306093"><ele>849.0</ele><time>2026-04-10T13:20:52.632Z</time></trkpt><trkpt lat="42.4553154" lon="13.2306938"><ele>849.0</ele><time>2026-04-10T13:20:55.637Z</time></trkpt><trkpt lat="42.4552958" lon="13.2305909"><ele>849.0</ele><time>2026-04-10T13:43:33.4Z</time></trkpt><trkpt lat="42.4553644" lon="13.230603"><ele>849.0</ele><time>2026-04-10T13:51:06.632Z</time></trkpt><trkpt lat="42.4553954" lon="13.2304876"><ele>849.0</ele><time>2026-04-10T13:51:36.634Z</time></trkpt><trkpt lat="42.4554824" lon="13.2303124"><ele>849.0</ele><time>2026-04-10T13:51:38.633Z</time></trkpt><trkpt lat="42.4555317" lon="13.2302565"><ele>849.2</ele><time>2026-04-10T13:51:40.613Z</time></trkpt><trkpt lat="42.4556011" lon="13.230244"><ele>849.4000000000001</ele><time>2026-04-10T13:51:42.617Z</time></trkpt><trkpt lat="42.4557293" lon="13.2302182"><ele>849.6</ele><time>2026-04-10T13:51:44.634Z</time></trkpt><trkpt lat="42.4558005" lon="13.2301496"><ele>849.8</ele><time>2026-04-10T13:51:45.621Z</time></trkpt><trkpt lat="42.4558716" lon="13.2300528"><ele>850.0</ele><time>2026-04-10T13:51:47.614Z</time></trkpt><trkpt lat="42.455966" lon="13.229971"><ele>850.0</ele><time>2026-04-10T13:51:56.633Z</time></trkpt><trkpt lat="42.4560432" lon="13.2298785"><ele>850.0</ele><time>2026-04-10T13:51:57.614Z</time></trkpt><trkpt lat="42.4561063" lon="13.2297971"><ele>850.0</ele><time>2026-04-10T13:51:58.627Z</time></trkpt><trkpt lat="42.4561773" lon="13.229717"><ele>850.0</ele><time>2026-04-10T13:51:59.617Z</time></trkpt><trkpt lat="42.4562473" lon="13.2296123"><ele>850.0</ele><time>2026-04-10T13:52:00.619Z</time></trkpt><trkpt lat="42.4563144" lon="13.2294918"><ele>850.5</ele><time>2026-04-10T13:52:01.622Z</time></trkpt><trkpt lat="42.4563858" lon="13.2293766"><ele>851.0</ele><time>2026-04-10T13:52:02.621Z</time></trkpt><trkpt lat="42.4564686" lon="13.2292518"><ele>851.5</ele><time>2026-04-10T13:52:03.627Z</time></trkpt><trkpt lat="42.4565559" lon="13.2291045"><ele>852.0</ele><time>2026-04-10T13:52:04.615Z</time></trkpt><trkpt lat="42.4566427" lon="13.2289465"><ele>852.5</ele><time>2026-04-10T13:52:05.616Z</time></trkpt><trkpt lat="42.4567002" lon="13.2287598"><ele>853.0</ele><time>2026-04-10T13:52:06.616Z</time></trkpt><trkpt lat="42.4567585" lon="13.2285723"><ele>853.5</ele><time>2026-04-10T13:52:07.617Z</time></trkpt><trkpt lat="42.4568476" lon="13.2284176"><ele>854.0</ele><time>2026-04-10T13:52:08.619Z</time></trkpt><trkpt lat="42.4569531" lon="13.2282657"><ele>854.0</ele><time>2026-04-10T13:52:09.619Z</time></trkpt><trkpt lat="42.4570647" lon="13.2281112"><ele>854.0</ele><time>2026-04-10T13:52:10.623Z</time></trkpt><trkpt lat="42.45718" lon="13.2279909"><ele>854.0</ele><time>2026-04-10T13:52:11.614Z</time></trkpt><trkpt lat="42.4572802" lon="13.2278689"><ele>854.0</ele><time>2026-04-10T13:52:12.621Z</time></trkpt><trkpt lat="42.4573588" lon="13.2277582"><ele>855.25</ele><time>2026-04-10T13:52:13.618Z</time></trkpt><trkpt lat="42.457456" lon="13.227644"><ele>856.5</ele><time>2026-04-10T13:52:14.614Z</time></trkpt><trkpt lat="42.4575672" lon="13.2275626"><ele>857.75</ele><time>2026-04-10T13:52:15.62Z</time></trkpt><trkpt lat="42.4576909" lon="13.2274776"><ele>859.0</ele><time>2026-04-10T13:52:16.619Z</time></trkpt><trkpt lat="42.4577943" lon="13.2273785"><ele>859.0</ele><time>2026-04-10T13:52:17.612Z</time></trkpt><trkpt lat="42.4578829" lon="13.2272425"><ele>859.0</ele><time>2026-04-10T13:52:18.615Z</time></trkpt><trkpt lat="42.4579653" lon="13.2271004"><ele>859.0</ele><time>2026-04-10T13:52:19.621Z</time></trkpt><trkpt lat="42.4580534" lon="13.2269763"><ele>859.0</ele><time>2026-04-10T13:52:20.615Z</time></trkpt><trkpt lat="42.4581477" lon="13.2268446"><ele>859.8000000000001</ele><time>2026-04-10T13:52:21.62Z</time></trkpt><trkpt lat="42.4582341" lon="13.2267348"><ele>860.6000000000001</ele><time>2026-04-10T13:52:22.622Z</time></trkpt><trkpt lat="42.4583101" lon="13.2266287"><ele>861.4</ele><time>2026-04-10T13:52:23.613Z</time></trkpt><trkpt lat="42.4583731" lon="13.2265282"><ele>862.2</ele><time>2026-04-10T13:52:24.627Z</time></trkpt><trkpt lat="42.458439" lon="13.2264365"><ele>863.0</ele><time>2026-04-10T13:52:25.623Z</time></trkpt><trkpt lat="42.4584948" lon="13.2263292"><ele>863.0</ele><time>2026-04-10T13:52:26.626Z</time></trkpt><trkpt lat="42.4585526" lon="13.226205"><ele>863.0</ele><time>2026-04-10T13:52:27.636Z</time></trkpt><trkpt lat="42.4586042" lon="13.2260668"><ele>863.0</ele><time>2026-04-10T13:52:28.629Z</time></trkpt><trkpt lat="42.4586551" lon="13.225926"><ele>863.0</ele><time>2026-04-10T13:52:29.641Z</time></trkpt><trkpt lat="42.4586907" lon="13.2257851"><ele>863.0</ele><time>2026-04-10T13:52:30.631Z</time></trkpt><trkpt lat="42.4587332" lon="13.2256471"><ele>863.5</ele><time>2026-04-10T13:52:31.632Z</time></trkpt><trkpt lat="42.4587755" lon="13.2255137"><ele>864.0</ele><time>2026-04-10T13:52:32.632Z</time></trkpt><trkpt lat="42.4588287" lon="13.2253801"><ele>864.5</ele><time>2026-04-10T13:52:33.63Z</time></trkpt><trkpt lat="42.4588921" lon="13.225247"><ele>865.0</ele><time>2026-04-10T13:52:34.643Z</time></trkpt><trkpt lat="42.4589621" lon="13.2251231"><ele>865.4</ele><time>2026-04-10T13:52:35.631Z</time></trkpt><trkpt lat="42.4590288" lon="13.2250039"><ele>865.8</ele><time>2026-04-10T13:52:36.629Z</time></trkpt><trkpt lat="42.4590952" lon="13.2249026"><ele>866.2</ele><time>2026-04-10T13:52:37.627Z</time></trkpt><trkpt lat="42.4591623" lon="13.2248022"><ele>866.6</ele><time>2026-04-10T13:52:38.626Z</time></trkpt><trkpt lat="42.4592136" lon="13.2247015"><ele>867.0</ele><time>2026-04-10T13:52:39.626Z</time></trkpt><trkpt lat="42.4592719" lon="13.2245961"><ele>867.2</ele><time>2026-04-10T13:52:40.614Z</time></trkpt><trkpt lat="42.4593339" lon="13.2244901"><ele>867.4000000000001</ele><time>2026-04-10T13:52:41.611Z</time></trkpt><trkpt lat="42.4594058" lon="13.2243833"><ele>867.5999999999999</ele><time>2026-04-10T13:52:42.614Z</time></trkpt><trkpt lat="42.459486" lon="13.2243055"><ele>867.8</ele><time>2026-04-10T13:52:43.607Z</time></trkpt><trkpt lat="42.4595582" lon="13.2242184"><ele>868.0</ele><time>2026-04-10T13:52:44.604Z</time></trkpt><trkpt lat="42.4596328" lon="13.2241169"><ele>868.4</ele><time>2026-04-10T13:52:45.605Z</time></trkpt><trkpt lat="42.4597172" lon="13.2240294"><ele>868.8</ele><time>2026-04-10T13:52:46.615Z</time></trkpt><trkpt lat="42.4598013" lon="13.2239561"><ele>869.2</ele><time>2026-04-10T13:52:47.619Z</time></trkpt><trkpt lat="42.4598887" lon="13.2238875"><ele>869.6</ele><time>2026-04-10T13:52:48.614Z</time></trkpt><trkpt lat="42.459988" lon="13.2238234"><ele>870.0</ele><time>2026-04-10T13:52:49.616Z</time></trkpt><trkpt lat="42.4600866" lon="13.2237415"><ele>870.0</ele><time>2026-04-10T13:52:50.621Z</time></trkpt><trkpt lat="42.4601776" lon="13.2236281"><ele>870.0</ele><time>2026-04-10T13:52:51.62Z</time></trkpt><trkpt lat="42.4602638" lon="13.2234836"><ele>870.0</ele><time>2026-04-10T13:52:52.62Z</time></trkpt><trkpt lat="42.4603273" lon="13.2233353"><ele>870.0</ele><time>2026-04-10T13:52:53.626Z</time></trkpt><trkpt lat="42.4603842" lon="13.2231904"><ele>870.0</ele><time>2026-04-10T13:52:54.627Z</time></trkpt><trkpt lat="42.4604362" lon="13.2230319"><ele>870.0</ele><time>2026-04-10T13:52:55.626Z</time></trkpt><trkpt lat="42.4604937" lon="13.2228837"><ele>870.0</ele><time>2026-04-10T13:52:56.627Z</time></trkpt><trkpt lat="42.4605426" lon="13.2227412"><ele>870.0</ele><time>2026-04-10T13:52:57.622Z</time></trkpt><trkpt lat="42.4605933" lon="13.2226097"><ele>871.0</ele><time>2026-04-10T13:52:58.62Z</time></trkpt><trkpt lat="42.4606528" lon="13.2224879"><ele>872.0</ele><time>2026-04-10T13:52:59.629Z</time></trkpt><trkpt lat="42.4607177" lon="13.2223694"><ele>873.0</ele><time>2026-04-10T13:53:00.64Z</time></trkpt><trkpt lat="42.4607956" lon="13.2222582"><ele>874.0</ele><time>2026-04-10T13:53:01.631Z</time></trkpt><trkpt lat="42.4608693" lon="13.2221499"><ele>875.0</ele><time>2026-04-10T13:53:02.627Z</time></trkpt><trkpt lat="42.4609534" lon="13.2220421"><ele>875.0</ele><time>2026-04-10T13:53:03.622Z</time></trkpt><trkpt lat="42.4610353" lon="13.2219344"><ele>875.0</ele><time>2026-04-10T13:53:04.625Z</time></trkpt><trkpt lat="42.4611214" lon="13.2218278"><ele>875.0</ele><time>2026-04-10T13:53:05.631Z</time></trkpt><trkpt lat="42.4612019" lon="13.2217166"><ele>875.0</ele><time>2026-04-10T13:53:06.621Z</time></trkpt><trkpt lat="42.4612799" lon="13.2216128"><ele>877.0</ele><time>2026-04-10T13:53:07.622Z</time></trkpt><trkpt lat="42.4613546" lon="13.221494"><ele>879.0</ele><time>2026-04-10T13:53:08.62Z</time></trkpt><trkpt lat="42.4614343" lon="13.2213731"><ele>881.0</ele><time>2026-04-10T13:53:09.618Z</time></trkpt><trkpt lat="42.4615151" lon="13.2212483"><ele>883.0</ele><time>2026-04-10T13:53:10.618Z</time></trkpt><trkpt lat="42.4615772" lon="13.2211226"><ele>883.0</ele><time>2026-04-10T13:53:11.608Z</time></trkpt><trkpt lat="42.4616256" lon="13.2209874"><ele>883.0</ele><time>2026-04-10T13:53:12.618Z</time></trkpt><trkpt lat="42.461668" lon="13.220849"><ele>883.0</ele><time>2026-04-10T13:53:13.619Z</time></trkpt><trkpt lat="42.4617116" lon="13.2207154"><ele>883.0</ele><time>2026-04-10T13:53:14.619Z</time></trkpt><trkpt lat="42.4617603" lon="13.2205883"><ele>883.0</ele><time>2026-04-10T13:53:15.621Z</time></trkpt><trkpt lat="42.4618213" lon="13.2204724"><ele>883.8333333333333</ele><time>2026-04-10T13:53:16.612Z</time></trkpt><trkpt lat="42.4618845" lon="13.2203845"><ele>884.6666666666666</ele><time>2026-04-10T13:53:17.608Z</time></trkpt><trkpt lat="42.4619528" lon="13.2203274"><ele>885.5</ele><time>2026-04-10T13:53:18.613Z</time></trkpt><trkpt lat="42.4620217" lon="13.2203088"><ele>886.3333333333333</ele><time>2026-04-10T13:53:19.619Z</time></trkpt><trkpt lat="42.4621116" lon="13.2203426"><ele>887.1666666666666</ele><time>2026-04-10T13:53:20.62Z</time></trkpt><trkpt lat="42.4621999" lon="13.2204007"><ele>888.0</ele><time>2026-04-10T13:53:21.625Z</time></trkpt><trkpt lat="42.4622808" lon="13.22048"><ele>889.0</ele><time>2026-04-10T13:53:22.618Z</time></trkpt><trkpt lat="42.4623364" lon="13.2205847"><ele>890.0</ele><time>2026-04-10T13:53:23.618Z</time></trkpt><trkpt lat="42.462396" lon="13.2206934"><ele>891.0</ele><time>2026-04-10T13:53:24.625Z</time></trkpt><trkpt lat="42.4624407" lon="13.2208018"><ele>892.0</ele><time>2026-04-10T13:53:25.623Z</time></trkpt><trkpt lat="42.4624993" lon="13.2208988"><ele>893.0</ele><time>2026-04-10T13:53:26.619Z</time></trkpt><trkpt lat="42.4625575" lon="13.2209768"><ele>893.0</ele><time>2026-04-10T13:53:27.603Z</time></trkpt><trkpt lat="42.462635" lon="13.2210235"><ele>893.0</ele><time>2026-04-10T13:53:28.614Z</time></trkpt><trkpt lat="42.4627122" lon="13.2210286"><ele>893.0</ele><time>2026-04-10T13:53:29.604Z</time></trkpt><trkpt lat="42.4628107" lon="13.2210073"><ele>893.0</ele><time>2026-04-10T13:53:30.619Z</time></trkpt><trkpt lat="42.4629012" lon="13.2209449"><ele>893.0</ele><time>2026-04-10T13:53:31.601Z</time></trkpt><trkpt lat="42.4629747" lon="13.2208688"><ele>893.8</ele><time>2026-04-10T13:53:32.613Z</time></trkpt><trkpt lat="42.4630098" lon="13.2207525"><ele>894.5999999999999</ele><time>2026-04-10T13:53:33.609Z</time></trkpt><trkpt lat="42.46302" lon="13.2206268"><ele>895.4000000000001</ele><time>2026-04-10T13:53:34.586Z</time></trkpt><trkpt lat="42.4629984" lon="13.2205034"><ele>896.2</ele><time>2026-04-10T13:53:35.588Z</time></trkpt><trkpt lat="42.4629566" lon="13.2203795"><ele>897.0</ele><time>2026-04-10T13:53:36.612Z</time></trkpt><trkpt lat="42.46289" lon="13.220265"><ele>897.0</ele><time>2026-04-10T13:53:37.601Z</time></trkpt><trkpt lat="42.46283" lon="13.22016"><ele>897.0</ele><time>2026-04-10T13:53:38.603Z</time></trkpt><trkpt lat="42.4627829" lon="13.2200491"><ele>897.0</ele><time>2026-04-10T13:53:39.606Z</time></trkpt><trkpt lat="42.4627401" lon="13.2199457"><ele>897.0</ele><time>2026-04-10T13:53:40.608Z</time></trkpt><trkpt lat="42.4627112" lon="13.2198301"><ele>897.0</ele><time>2026-04-10T13:53:41.611Z</time></trkpt><trkpt lat="42.4626882" lon="13.2197165"><ele>898.8</ele><time>2026-04-10T13:53:42.616Z</time></trkpt><trkpt lat="42.4626664" lon="13.2195947"><ele>900.6</ele><time>2026-04-10T13:53:43.618Z</time></trkpt><trkpt lat="42.4626582" lon="13.2194681"><ele>902.3999999999999</ele><time>2026-04-10T13:53:44.622Z</time></trkpt><trkpt lat="42.4626608" lon="13.2193473"><ele>904.1999999999999</ele><time>2026-04-10T13:53:45.62Z</time></trkpt><trkpt lat="42.4626523" lon="13.2192124"><ele>906.0</ele><time>2026-04-10T13:53:46.611Z</time></trkpt><trkpt lat="42.4626526" lon="13.2190884"><ele>907.0</ele><time>2026-04-10T13:53:47.616Z</time></trkpt><trkpt lat="42.4626906" lon="13.2189766"><ele>908.0</ele><time>2026-04-10T13:53:48.615Z</time></trkpt><trkpt lat="42.4627491" lon="13.218903"><ele>909.0</ele><time>2026-04-10T13:53:49.605Z</time></trkpt><trkpt lat="42.4628182" lon="13.2188836"><ele>910.0</ele><time>2026-04-10T13:53:50.608Z</time></trkpt><trkpt lat="42.4628981" lon="13.218943"><ele>911.0</ele><time>2026-04-10T13:53:51.606Z</time></trkpt><trkpt lat="42.4629488" lon="13.219072"><ele>912.0</ele><time>2026-04-10T13:53:52.611Z</time></trkpt><trkpt lat="42.4629814" lon="13.2192057"><ele>915.0</ele><time>2026-04-10T13:53:53.596Z</time></trkpt><trkpt lat="42.4630495" lon="13.2194652"><ele>918.0</ele><time>2026-04-10T13:53:55.593Z</time></trkpt><trkpt lat="42.4631011" lon="13.219597"><ele>921.0</ele><time>2026-04-10T13:53:56.6Z</time></trkpt><trkpt lat="42.4631681" lon="13.2196994"><ele>924.0</ele><time>2026-04-10T13:53:57.592Z</time></trkpt><trkpt lat="42.4632496" lon="13.2197793"><ele>921.4000000000001</ele><time>2026-04-10T13:53:58.59Z</time></trkpt><trkpt lat="42.4633367" lon="13.2198413"><ele>918.8000000000001</ele><time>2026-04-10T13:53:59.595Z</time></trkpt><trkpt lat="42.4634511" lon="13.2199051"><ele>916.1999999999999</ele><time>2026-04-10T13:54:00.603Z</time></trkpt><trkpt lat="42.4635645" lon="13.2199691"><ele>913.5999999999999</ele><time>2026-04-10T13:54:01.616Z</time></trkpt><trkpt lat="42.4636591" lon="13.2200237"><ele>911.0</ele><time>2026-04-10T13:54:02.616Z</time></trkpt><trkpt lat="42.4637558" lon="13.2200511"><ele>914.8</ele><time>2026-04-10T13:54:03.614Z</time></trkpt><trkpt lat="42.4638577" lon="13.2200288"><ele>918.5999999999999</ele><time>2026-04-10T13:54:04.617Z</time></trkpt><trkpt lat="42.4639485" lon="13.2199596"><ele>922.4</ele><time>2026-04-10T13:54:05.619Z</time></trkpt><trkpt lat="42.4640014" lon="13.2198607"><ele>926.2</ele><time>2026-04-10T13:54:06.606Z</time></trkpt><trkpt lat="42.4640207" lon="13.2197609"><ele>930.0</ele><time>2026-04-10T13:54:07.627Z</time></trkpt><trkpt lat="42.4639583" lon="13.2196812"><ele>928.5</ele><time>2026-04-10T13:54:08.617Z</time></trkpt><trkpt lat="42.4638466" lon="13.2196327"><ele>927.0</ele><time>2026-04-10T13:54:09.607Z</time></trkpt><trkpt lat="42.4636957" lon="13.2195759"><ele>925.5</ele><time>2026-04-10T13:54:10.601Z</time></trkpt><trkpt lat="42.4635636" lon="13.2195113"><ele>924.0</ele><time>2026-04-10T13:54:11.604Z</time></trkpt><trkpt lat="42.4634605" lon="13.219402"><ele>924.0</ele><time>2026-04-10T13:54:12.613Z</time></trkpt><trkpt lat="42.4633749" lon="13.2192714"><ele>924.0</ele><time>2026-04-10T13:54:13.601Z</time></trkpt><trkpt lat="42.4633219" lon="13.21911"><ele>924.0</ele><time>2026-04-10T13:54:14.6Z</time></trkpt><trkpt lat="42.4632907" lon="13.2189581"><ele>924.0</ele><time>2026-04-10T13:54:15.602Z</time></trkpt><trkpt lat="42.4632808" lon="13.2188047"><ele>924.4000000000001</ele><time>2026-04-10T13:54:16.59Z</time></trkpt><trkpt lat="42.4632875" lon="13.2186544"><ele>924.8000000000001</ele><time>2026-04-10T13:54:17.599Z</time></trkpt><trkpt lat="42.4633136" lon="13.2185174"><ele>925.1999999999999</ele><time>2026-04-10T13:54:18.601Z</time></trkpt><trkpt lat="42.4633579" lon="13.2183884"><ele>925.5999999999999</ele><time>2026-04-10T13:54:19.6Z</time></trkpt><trkpt lat="42.4634175" lon="13.2182642"><ele>926.0</ele><time>2026-04-10T13:54:20.602Z</time></trkpt><trkpt lat="42.4634845" lon="13.2181515"><ele>926.0</ele><time>2026-04-10T13:54:21.601Z</time></trkpt><trkpt lat="42.463566" lon="13.2180505"><ele>925.9999999999999</ele><time>2026-04-10T13:54:22.601Z</time></trkpt><trkpt lat="42.4636469" lon="13.2179669"><ele>925.9999999999999</ele><time>2026-04-10T13:54:23.605Z</time></trkpt><trkpt lat="42.4637294" lon="13.217883"><ele>926.0</ele><time>2026-04-10T13:54:24.601Z</time></trkpt><trkpt lat="42.4638151" lon="13.2177967"><ele>926.0</ele><time>2026-04-10T13:54:25.606Z</time></trkpt><trkpt lat="42.4638939" lon="13.2177203"><ele>929.8</ele><time>2026-04-10T13:54:26.608Z</time></trkpt><trkpt lat="42.4639809" lon="13.2176475"><ele>933.5999999999999</ele><time>2026-04-10T13:54:27.608Z</time></trkpt><trkpt lat="42.4640575" lon="13.2175717"><ele>937.4</ele><time>2026-04-10T13:54:28.606Z</time></trkpt><trkpt lat="42.4641383" lon="13.2174999"><ele>941.2</ele><time>2026-04-10T13:54:29.605Z</time></trkpt><trkpt lat="42.4642268" lon="13.217426"><ele>945.0</ele><time>2026-04-10T13:54:30.612Z</time></trkpt><trkpt lat="42.4643185" lon="13.2173557"><ele>944.6</ele><time>2026-04-10T13:54:31.606Z</time></trkpt><trkpt lat="42.4644124" lon="13.2172886"><ele>944.2</ele><time>2026-04-10T13:54:32.604Z</time></trkpt><trkpt lat="42.4644998" lon="13.2172177"><ele>943.8</ele><time>2026-04-10T13:54:33.606Z</time></trkpt><trkpt lat="42.4645914" lon="13.2171637"><ele>943.4</ele><time>2026-04-10T13:54:34.6Z</time></trkpt><trkpt lat="42.4646852" lon="13.2171203"><ele>943.0</ele><time>2026-04-10T13:54:35.598Z</time></trkpt><trkpt lat="42.4647812" lon="13.2170615"><ele>944.8</ele><time>2026-04-10T13:54:36.6Z</time></trkpt><trkpt lat="42.4648716" lon="13.2169853"><ele>946.5999999999999</ele><time>2026-04-10T13:54:37.6Z</time></trkpt><trkpt lat="42.4649536" lon="13.2168898"><ele>948.4000000000001</ele><time>2026-04-10T13:54:38.605Z</time></trkpt><trkpt lat="42.4650124" lon="13.2167854"><ele>950.2</ele><time>2026-04-10T13:54:39.599Z</time></trkpt><trkpt lat="42.4650806" lon="13.2166678"><ele>952.0</ele><time>2026-04-10T13:54:40.604Z</time></trkpt><trkpt lat="42.4651445" lon="13.2165738"><ele>951.6</ele><time>2026-04-10T13:54:41.601Z</time></trkpt><trkpt lat="42.4652139" lon="13.2164807"><ele>951.2</ele><time>2026-04-10T13:54:42.599Z</time></trkpt><trkpt lat="42.4652934" lon="13.2163869"><ele>950.8</ele><time>2026-04-10T13:54:43.602Z</time></trkpt><trkpt lat="42.4653615" lon="13.2163008"><ele>950.4</ele><time>2026-04-10T13:54:44.601Z</time></trkpt><trkpt lat="42.465436" lon="13.2162131"><ele>950.0</ele><time>2026-04-10T13:54:45.605Z</time></trkpt><trkpt lat="42.4655196" lon="13.2161233"><ele>952.0</ele><time>2026-04-10T13:54:46.609Z</time></trkpt><trkpt lat="42.4655982" lon="13.2160402"><ele>954.0</ele><time>2026-04-10T13:54:47.613Z</time></trkpt><trkpt lat="42.4656696" lon="13.2159432"><ele>956.0</ele><time>2026-04-10T13:54:48.611Z</time></trkpt><trkpt lat="42.4657358" lon="13.215838"><ele>958.0</ele><time>2026-04-10T13:54:49.611Z</time></trkpt><trkpt lat="42.4658035" lon="13.2157389"><ele>960.0</ele><time>2026-04-10T13:54:50.61Z</time></trkpt><trkpt lat="42.465861" lon="13.2156225"><ele>960.0</ele><time>2026-04-10T13:54:51.609Z</time></trkpt><trkpt lat="42.4659238" lon="13.215508"><ele>960.0</ele><time>2026-04-10T13:54:52.608Z</time></trkpt><trkpt lat="42.4659797" lon="13.2153884"><ele>960.0</ele><time>2026-04-10T13:54:53.608Z</time></trkpt><trkpt lat="42.46603" lon="13.2152733"><ele>960.0</ele><time>2026-04-10T13:54:54.611Z</time></trkpt><trkpt lat="42.4660864" lon="13.2151593"><ele>960.0</ele><time>2026-04-10T13:54:55.612Z</time></trkpt><trkpt lat="42.4661414" lon="13.2150418"><ele>960.0</ele><time>2026-04-10T13:54:56.61Z</time></trkpt><trkpt lat="42.4661999" lon="13.2149273"><ele>960.0</ele><time>2026-04-10T13:54:57.613Z</time></trkpt><trkpt lat="42.4662572" lon="13.2148168"><ele>960.0</ele><time>2026-04-10T13:54:58.61Z</time></trkpt><trkpt lat="42.466315" lon="13.2146984"><ele>960.0</ele><time>2026-04-10T13:54:59.611Z</time></trkpt><trkpt lat="42.4663685" lon="13.2145815"><ele>960.0</ele><time>2026-04-10T13:55:00.611Z</time></trkpt><trkpt lat="42.466429" lon="13.2144619"><ele>962.4</ele><time>2026-04-10T13:55:01.612Z</time></trkpt><trkpt lat="42.4664909" lon="13.2143461"><ele>964.8</ele><time>2026-04-10T13:55:02.612Z</time></trkpt><trkpt lat="42.4665541" lon="13.2142333"><ele>967.2</ele><time>2026-04-10T13:55:03.62Z</time></trkpt><trkpt lat="42.4666255" lon="13.2141205"><ele>969.6</ele><time>2026-04-10T13:55:04.609Z</time></trkpt><trkpt lat="42.4667149" lon="13.2140329"><ele>972.0</ele><time>2026-04-10T13:55:05.606Z</time></trkpt><trkpt lat="42.4668054" lon="13.2139741"><ele>972.4000000000001</ele><time>2026-04-10T13:55:06.616Z</time></trkpt><trkpt lat="42.4669024" lon="13.2139264"><ele>972.8000000000001</ele><time>2026-04-10T13:55:07.621Z</time></trkpt><trkpt lat="42.4670065" lon="13.2138842"><ele>973.2</ele><time>2026-04-10T13:55:08.618Z</time></trkpt><trkpt lat="42.4671055" lon="13.2138276"><ele>973.6</ele><time>2026-04-10T13:55:09.633Z</time></trkpt><trkpt lat="42.4672074" lon="13.2137754"><ele>974.0</ele><time>2026-04-10T13:55:10.623Z</time></trkpt><trkpt lat="42.4673114" lon="13.2137304"><ele>974.0</ele><time>2026-04-10T13:55:11.628Z</time></trkpt><trkpt lat="42.4674176" lon="13.2136918"><ele>974.0000000000001</ele><time>2026-04-10T13:55:12.625Z</time></trkpt><trkpt lat="42.4675105" lon="13.2136414"><ele>974.0000000000001</ele><time>2026-04-10T13:55:13.627Z</time></trkpt><trkpt lat="42.4676216" lon="13.213601"><ele>974.0</ele><time>2026-04-10T13:55:14.629Z</time></trkpt><trkpt lat="42.4677327" lon="13.2135596"><ele>974.0</ele><time>2026-04-10T13:55:15.63Z</time></trkpt><trkpt lat="42.467835" lon="13.2135121"><ele>974.0</ele><time>2026-04-10T13:55:16.629Z</time></trkpt><trkpt lat="42.4679361" lon="13.2134616"><ele>974.0000000000001</ele><time>2026-04-10T13:55:17.628Z</time></trkpt><trkpt lat="42.4680372" lon="13.2134141"><ele>974.0000000000001</ele><time>2026-04-10T13:55:18.626Z</time></trkpt><trkpt lat="42.4681378" lon="13.2133636"><ele>974.0</ele><time>2026-04-10T13:55:19.629Z</time></trkpt><trkpt lat="42.4682328" lon="13.2133217"><ele>974.0</ele><time>2026-04-10T13:55:20.633Z</time></trkpt><trkpt lat="42.4683309" lon="13.2132722"><ele>974.0</ele><time>2026-04-10T13:55:21.63Z</time></trkpt><trkpt lat="42.4684319" lon="13.2132234"><ele>974.0000000000001</ele><time>2026-04-10T13:55:22.633Z</time></trkpt><trkpt lat="42.4685276" lon="13.213181"><ele>974.0000000000001</ele><time>2026-04-10T13:55:23.638Z</time></trkpt><trkpt lat="42.4686202" lon="13.2131346"><ele>974.0</ele><time>2026-04-10T13:55:24.633Z</time></trkpt><trkpt lat="42.4687179" lon="13.2130974"><ele>974.0</ele><time>2026-04-10T13:55:25.633Z</time></trkpt><trkpt lat="42.468803" lon="13.2130556"><ele>975.4000000000001</ele><time>2026-04-10T13:55:26.704Z</time></trkpt><trkpt lat="42.4688875" lon="13.2130084"><ele>976.8000000000001</ele><time>2026-04-10T13:55:27.709Z</time></trkpt><trkpt lat="42.4689709" lon="13.2129667"><ele>978.1999999999999</ele><time>2026-04-10T13:55:28.709Z</time></trkpt><trkpt lat="42.4690547" lon="13.2129222"><ele>979.5999999999999</ele><time>2026-04-10T13:55:29.709Z</time></trkpt><trkpt lat="42.4691392" lon="13.21288"><ele>981.0</ele><time>2026-04-10T13:55:30.711Z</time></trkpt><trkpt lat="42.4692227" lon="13.2128364"><ele>981.0</ele><time>2026-04-10T13:55:31.712Z</time></trkpt><trkpt lat="42.4693059" lon="13.2128051"><ele>980.9999999999999</ele><time>2026-04-10T13:55:32.71Z</time></trkpt><trkpt lat="42.4693731" lon="13.2127769"><ele>980.9999999999999</ele><time>2026-04-10T13:55:33.706Z</time></trkpt><trkpt lat="42.4694422" lon="13.2127348"><ele>981.0</ele><time>2026-04-10T13:55:35.696Z</time></trkpt><trkpt lat="42.469516" lon="13.212672"><ele>981.0</ele><time>2026-04-10T13:56:17.622Z</time></trkpt><trkpt lat="42.469655" lon="13.2126997"><ele>982.5999999999999</ele><time>2026-04-10T13:56:19.621Z</time></trkpt><trkpt lat="42.4697331" lon="13.2127695"><ele>984.1999999999999</ele><time>2026-04-10T13:56:20.612Z</time></trkpt><trkpt lat="42.4698105" lon="13.2128432"><ele>985.8000000000001</ele><time>2026-04-10T13:56:21.611Z</time></trkpt><trkpt lat="42.4699066" lon="13.2129341"><ele>987.4000000000001</ele><time>2026-04-10T13:56:22.611Z</time></trkpt><trkpt lat="42.4699825" lon="13.2130294"><ele>989.0</ele><time>2026-04-10T13:56:23.603Z</time></trkpt><trkpt lat="42.4700631" lon="13.2131173"><ele>988.0</ele><time>2026-04-10T13:56:24.592Z</time></trkpt><trkpt lat="42.4701484" lon="13.2131909"><ele>987.0000000000001</ele><time>2026-04-10T13:56:25.601Z</time></trkpt><trkpt lat="42.4702375" lon="13.213244"><ele>986.0000000000001</ele><time>2026-04-10T13:56:26.592Z</time></trkpt><trkpt lat="42.470342" lon="13.2132507"><ele>985.0</ele><time>2026-04-10T13:56:27.597Z</time></trkpt><trkpt lat="42.4704463" lon="13.2132251"><ele>984.0</ele><time>2026-04-10T13:56:28.6Z</time></trkpt><trkpt lat="42.4705528" lon="13.2131848"><ele>986.4000000000001</ele><time>2026-04-10T13:56:29.599Z</time></trkpt><trkpt lat="42.4706597" lon="13.2131346"><ele>988.8000000000001</ele><time>2026-04-10T13:56:30.612Z</time></trkpt><trkpt lat="42.4707618" lon="13.2130739"><ele>991.1999999999999</ele><time>2026-04-10T13:56:31.607Z</time></trkpt><trkpt lat="42.4708664" lon="13.2130127"><ele>993.5999999999999</ele><time>2026-04-10T13:56:32.608Z</time></trkpt><trkpt lat="42.4709665" lon="13.2129649"><ele>996.0</ele><time>2026-04-10T13:56:33.602Z</time></trkpt><trkpt lat="42.4710632" lon="13.2129682"><ele>996.0</ele><time>2026-04-10T13:56:34.614Z</time></trkpt><trkpt lat="42.4711626" lon="13.212992"><ele>995.9999999999999</ele><time>2026-04-10T13:56:35.625Z</time></trkpt><trkpt lat="42.4712462" lon="13.2130336"><ele>995.9999999999999</ele><time>2026-04-10T13:56:36.624Z</time></trkpt><trkpt lat="42.4713454" lon="13.2130685"><ele>996.0</ele><time>2026-04-10T13:56:37.617Z</time></trkpt><trkpt lat="42.4714445" lon="13.2130795"><ele>996.0</ele><time>2026-04-10T13:56:38.618Z</time></trkpt><trkpt lat="42.4715452" lon="13.2130697"><ele>995.8</ele><time>2026-04-10T13:56:39.611Z</time></trkpt><trkpt lat="42.4716404" lon="13.2130525"><ele>995.5999999999999</ele><time>2026-04-10T13:56:40.605Z</time></trkpt><trkpt lat="42.4717366" lon="13.2130222"><ele>995.4</ele><time>2026-04-10T13:56:41.601Z</time></trkpt><trkpt lat="42.4718324" lon="13.213"><ele>995.2</ele><time>2026-04-10T13:56:42.617Z</time></trkpt><trkpt lat="42.4719295" lon="13.2130002"><ele>995.0</ele><time>2026-04-10T13:56:43.612Z</time></trkpt><trkpt lat="42.4720458" lon="13.2129966"><ele>994.0</ele><time>2026-04-10T13:56:44.613Z</time></trkpt><trkpt lat="42.4721674" lon="13.213004"><ele>993.0</ele><time>2026-04-10T13:56:45.616Z</time></trkpt><trkpt lat="42.4722939" lon="13.2130589"><ele>992.0</ele><time>2026-04-10T13:56:46.614Z</time></trkpt><trkpt lat="42.47241" lon="13.2131445"><ele>991.0</ele><time>2026-04-10T13:56:47.614Z</time></trkpt><trkpt lat="42.4725355" lon="13.2132434"><ele>991.0</ele><time>2026-04-10T13:56:48.623Z</time></trkpt><trkpt lat="42.4726542" lon="13.2133375"><ele>991.0</ele><time>2026-04-10T13:56:49.628Z</time></trkpt><trkpt lat="42.4727799" lon="13.2134279"><ele>991.0</ele><time>2026-04-10T13:56:50.625Z</time></trkpt><trkpt lat="42.4729153" lon="13.2134916"><ele>991.0</ele><time>2026-04-10T13:56:51.617Z</time></trkpt><trkpt lat="42.4730619" lon="13.2135365"><ele>991.3333333333333</ele><time>2026-04-10T13:56:52.62Z</time></trkpt><trkpt lat="42.4732035" lon="13.2135528"><ele>991.6666666666667</ele><time>2026-04-10T13:56:53.617Z</time></trkpt><trkpt lat="42.4733629" lon="13.2135455"><ele>992.0</ele><time>2026-04-10T13:56:54.603Z</time></trkpt><trkpt lat="42.4735683" lon="13.2135688"><ele>992.0</ele><time>2026-04-10T13:56:55.613Z</time></trkpt><trkpt lat="42.473767" lon="13.2135908"><ele>992.0</ele><time>2026-04-10T13:56:56.617Z</time></trkpt><trkpt lat="42.4739682" lon="13.213631"><ele>992.0</ele><time>2026-04-10T13:56:57.613Z</time></trkpt><trkpt lat="42.4741503" lon="13.2136807"><ele>994.0</ele><time>2026-04-10T13:56:58.622Z</time></trkpt><trkpt lat="42.4743372" lon="13.2137283"><ele>996.0</ele><time>2026-04-10T13:56:59.618Z</time></trkpt><trkpt lat="42.4745232" lon="13.2137851"><ele>998.0</ele><time>2026-04-10T13:57:00.62Z</time></trkpt><trkpt lat="42.4746959" lon="13.2138444"><ele>995.75</ele><time>2026-04-10T13:57:01.612Z</time></trkpt><trkpt lat="42.474848" lon="13.213903"><ele>993.5</ele><time>2026-04-10T13:57:02.608Z</time></trkpt><trkpt lat="42.4749814" lon="13.2139589"><ele>991.25</ele><time>2026-04-10T13:57:03.612Z</time></trkpt><trkpt lat="42.4750866" lon="13.2140201"><ele>989.0</ele><time>2026-04-10T13:57:04.617Z</time></trkpt><trkpt lat="42.4752211" lon="13.2140794"><ele>989.0</ele><time>2026-04-10T13:57:05.616Z</time></trkpt><trkpt lat="42.4753455" lon="13.2141332"><ele>989.0</ele><time>2026-04-10T13:57:06.618Z</time></trkpt><trkpt lat="42.4754533" lon="13.2141924"><ele>989.0</ele><time>2026-04-10T13:57:07.625Z</time></trkpt><trkpt lat="42.4755607" lon="13.2142546"><ele>989.0</ele><time>2026-04-10T13:57:08.625Z</time></trkpt><trkpt lat="42.4756948" lon="13.2142943"><ele>989.25</ele><time>2026-04-10T13:57:09.621Z</time></trkpt><trkpt lat="42.4758086" lon="13.2143313"><ele>989.5</ele><time>2026-04-10T13:57:10.616Z</time></trkpt><trkpt lat="42.4759376" lon="13.2143107"><ele>989.75</ele><time>2026-04-10T13:57:11.61Z</time></trkpt><trkpt lat="42.4760769" lon="13.2142465"><ele>990.0</ele><time>2026-04-10T13:57:12.614Z</time></trkpt><trkpt lat="42.4762237" lon="13.2141588"><ele>989.0</ele><time>2026-04-10T13:57:13.636Z</time></trkpt><trkpt lat="42.4763789" lon="13.2140743"><ele>988.0</ele><time>2026-04-10T13:57:14.626Z</time></trkpt><trkpt lat="42.4765333" lon="13.2139962"><ele>987.0</ele><time>2026-04-10T13:57:15.632Z</time></trkpt><trkpt lat="42.4766852" lon="13.213929"><ele>988.5</ele><time>2026-04-10T13:57:16.626Z</time></trkpt><trkpt lat="42.4768235" lon="13.2138685"><ele>990.0</ele><time>2026-04-10T13:57:17.628Z</time></trkpt><trkpt lat="42.4769519" lon="13.2137964"><ele>991.5</ele><time>2026-04-10T13:57:18.628Z</time></trkpt><trkpt lat="42.4770654" lon="13.2136922"><ele>993.0</ele><time>2026-04-10T13:57:19.617Z</time></trkpt><trkpt lat="42.4771711" lon="13.2135525"><ele>994.5</ele><time>2026-04-10T13:57:20.618Z</time></trkpt><trkpt lat="42.4772658" lon="13.2134042"><ele>996.0</ele><time>2026-04-10T13:57:21.615Z</time></trkpt><trkpt lat="42.4773485" lon="13.21325"><ele>997.5</ele><time>2026-04-10T13:57:22.618Z</time></trkpt><trkpt lat="42.4774258" lon="13.2130979"><ele>999.0</ele><time>2026-04-10T13:57:23.615Z</time></trkpt><trkpt lat="42.4775268" lon="13.2129621"><ele>999.5</ele><time>2026-04-10T13:57:24.613Z</time></trkpt><trkpt lat="42.4776087" lon="13.21281"><ele>1000.0</ele><time>2026-04-10T13:57:25.613Z</time></trkpt><trkpt lat="42.4776895" lon="13.2126491"><ele>1000.5</ele><time>2026-04-10T13:57:26.614Z</time></trkpt><trkpt lat="42.4777522" lon="13.2124619"><ele>1001.0</ele><time>2026-04-10T13:57:27.614Z</time></trkpt><trkpt lat="42.4778302" lon="13.2122713"><ele>1000.0</ele><time>2026-04-10T13:57:28.616Z</time></trkpt><trkpt lat="42.4778949" lon="13.2120755"><ele>999.0</ele><time>2026-04-10T13:57:29.619Z</time></trkpt><trkpt lat="42.4779727" lon="13.2118842"><ele>998.0</ele><time>2026-04-10T13:57:30.618Z</time></trkpt><trkpt lat="42.4780368" lon="13.2116747"><ele>998.0</ele><time>2026-04-10T13:57:31.623Z</time></trkpt><trkpt lat="42.4781386" lon="13.2114996"><ele>998.0</ele><time>2026-04-10T13:57:32.614Z</time></trkpt><trkpt lat="42.4782419" lon="13.2113203"><ele>998.0</ele><time>2026-04-10T13:57:33.617Z</time></trkpt><trkpt lat="42.4783491" lon="13.2111336"><ele>1001.6666666666667</ele><time>2026-04-10T13:57:34.617Z</time></trkpt><trkpt lat="42.4784792" lon="13.2109502"><ele>1005.3333333333333</ele><time>2026-04-10T13:57:35.615Z</time></trkpt><trkpt lat="42.478597" lon="13.2107641"><ele>1009.0</ele><time>2026-04-10T13:57:36.614Z</time></trkpt><trkpt lat="42.4787191" lon="13.2105808"><ele>1006.6666666666666</ele><time>2026-04-10T13:57:37.61Z</time></trkpt><trkpt lat="42.4788344" lon="13.2104142"><ele>1004.3333333333333</ele><time>2026-04-10T13:57:38.614Z</time></trkpt><trkpt lat="42.4789407" lon="13.2102375"><ele>1002.0</ele><time>2026-04-10T13:57:39.609Z</time></trkpt><trkpt lat="42.4790485" lon="13.2100782"><ele>1002.0</ele><time>2026-04-10T13:57:40.612Z</time></trkpt><trkpt lat="42.4791717" lon="13.2099253"><ele>1002.0</ele><time>2026-04-10T13:57:41.607Z</time></trkpt><trkpt lat="42.4792986" lon="13.2097885"><ele>1002.0</ele><time>2026-04-10T13:57:42.605Z</time></trkpt><trkpt lat="42.479422" lon="13.2096433"><ele>998.0</ele><time>2026-04-10T13:57:43.604Z</time></trkpt><trkpt lat="42.479542" lon="13.2094896"><ele>994.0</ele><time>2026-04-10T13:57:44.614Z</time></trkpt><trkpt lat="42.4796448" lon="13.2093133"><ele>990.0</ele><time>2026-04-10T13:57:45.607Z</time></trkpt><trkpt lat="42.4797437" lon="13.2091219"><ele>996.6666666666667</ele><time>2026-04-10T13:57:46.61Z</time></trkpt><trkpt lat="42.4798281" lon="13.2089231"><ele>1003.3333333333334</ele><time>2026-04-10T13:57:47.614Z</time></trkpt><trkpt lat="42.4799294" lon="13.2087262"><ele>1010.0</ele><time>2026-04-10T13:57:48.607Z</time></trkpt><trkpt lat="42.4800061" lon="13.2085166"><ele>1010.0</ele><time>2026-04-10T13:57:49.616Z</time></trkpt><trkpt lat="42.4800829" lon="13.2083043"><ele>1010.0</ele><time>2026-04-10T13:57:50.611Z</time></trkpt><trkpt lat="42.4801868" lon="13.2081064"><ele>1010.0</ele><time>2026-04-10T13:57:51.612Z</time></trkpt><trkpt lat="42.4802903" lon="13.207918"><ele>1011.0</ele><time>2026-04-10T13:57:52.608Z</time></trkpt><trkpt lat="42.480394" lon="13.2077205"><ele>1012.0</ele><time>2026-04-10T13:57:53.614Z</time></trkpt><trkpt lat="42.4804891" lon="13.2075066"><ele>1013.0</ele><time>2026-04-10T13:57:54.604Z</time></trkpt><trkpt lat="42.4805742" lon="13.2072785"><ele>1013.0</ele><time>2026-04-10T13:57:55.611Z</time></trkpt><trkpt lat="42.480653" lon="13.2070407"><ele>1013.0</ele><time>2026-04-10T13:57:56.609Z</time></trkpt><trkpt lat="42.480746" lon="13.2068013"><ele>1013.0</ele><time>2026-04-10T13:57:57.612Z</time></trkpt><trkpt lat="42.4808472" lon="13.2065746"><ele>1018.6666666666667</ele><time>2026-04-10T13:57:58.609Z</time></trkpt><trkpt lat="42.4809631" lon="13.2063583"><ele>1024.3333333333333</ele><time>2026-04-10T13:57:59.612Z</time></trkpt><trkpt lat="42.4810708" lon="13.2061268"><ele>1030.0</ele><time>2026-04-10T13:58:00.603Z</time></trkpt><trkpt lat="42.4811462" lon="13.2058701"><ele>1025.3333333333333</ele><time>2026-04-10T13:58:01.608Z</time></trkpt><trkpt lat="42.4812144" lon="13.2055965"><ele>1020.6666666666667</ele><time>2026-04-10T13:58:02.605Z</time></trkpt><trkpt lat="42.4812713" lon="13.2053283"><ele>1016.0</ele><time>2026-04-10T13:58:03.6Z</time></trkpt><trkpt lat="42.4813272" lon="13.2050481"><ele>1018.6666666666667</ele><time>2026-04-10T13:58:04.605Z</time></trkpt><trkpt lat="42.4813833" lon="13.2047856"><ele>1021.3333333333333</ele><time>2026-04-10T13:58:05.604Z</time></trkpt><trkpt lat="42.4814334" lon="13.2045161"><ele>1024.0</ele><time>2026-04-10T13:58:06.612Z</time></trkpt><trkpt lat="42.4814796" lon="13.2042786"><ele>1024.0</ele><time>2026-04-10T13:58:07.608Z</time></trkpt><trkpt lat="42.4815075" lon="13.2040432"><ele>1024.0</ele><time>2026-04-10T13:58:08.61Z</time></trkpt><trkpt lat="42.4815198" lon="13.2038257"><ele>1024.0</ele><time>2026-04-10T13:58:09.615Z</time></trkpt><trkpt lat="42.481497" lon="13.2036389"><ele>1026.75</ele><time>2026-04-10T13:58:10.607Z</time></trkpt><trkpt lat="42.4814719" lon="13.203487"><ele>1029.5</ele><time>2026-04-10T13:58:11.606Z</time></trkpt><trkpt lat="42.4814995" lon="13.2033287"><ele>1032.25</ele><time>2026-04-10T13:58:12.607Z</time></trkpt><trkpt lat="42.4815574" lon="13.2031889"><ele>1035.0</ele><time>2026-04-10T13:58:13.612Z</time></trkpt><trkpt lat="42.481631" lon="13.203078"><ele>1037.25</ele><time>2026-04-10T13:58:14.613Z</time></trkpt><trkpt lat="42.4817547" lon="13.2030102"><ele>1039.5</ele><time>2026-04-10T13:58:15.621Z</time></trkpt><trkpt lat="42.4819277" lon="13.2030355"><ele>1041.75</ele><time>2026-04-10T13:58:16.614Z</time></trkpt><trkpt lat="42.4820614" lon="13.2030411"><ele>1044.0</ele><time>2026-04-10T13:58:17.615Z</time></trkpt><trkpt lat="42.4821968" lon="13.2030867"><ele>1044.0</ele><time>2026-04-10T13:58:18.636Z</time></trkpt><trkpt lat="42.4823208" lon="13.203141"><ele>1044.0</ele><time>2026-04-10T13:58:19.625Z</time></trkpt><trkpt lat="42.4824317" lon="13.2031792"><ele>1044.0</ele><time>2026-04-10T13:58:20.622Z</time></trkpt><trkpt lat="42.4825336" lon="13.2031729"><ele>1044.0</ele><time>2026-04-10T13:58:21.622Z</time></trkpt><trkpt lat="42.4826191" lon="13.2031337"><ele>1044.0</ele><time>2026-04-10T13:58:22.607Z</time></trkpt><trkpt lat="42.4826803" lon="13.2030552"><ele>1044.0</ele><time>2026-04-10T13:58:23.613Z</time></trkpt><trkpt lat="42.4827017" lon="13.202948"><ele>1044.0</ele><time>2026-04-10T13:58:24.618Z</time></trkpt><trkpt lat="42.4826962" lon="13.2028167"><ele>1044.0</ele><time>2026-04-10T13:58:25.616Z</time></trkpt><trkpt lat="42.4826869" lon="13.2026834"><ele>1044.0</ele><time>2026-04-10T13:58:26.612Z</time></trkpt><trkpt lat="42.4826953" lon="13.2025543"><ele>1044.0</ele><time>2026-04-10T13:58:27.686Z</time></trkpt><trkpt lat="42.4827076" lon="13.2024163"><ele>1044.6000000000001</ele><time>2026-04-10T13:58:28.687Z</time></trkpt><trkpt lat="42.4827345" lon="13.2022855"><ele>1045.2</ele><time>2026-04-10T13:58:29.679Z</time></trkpt><trkpt lat="42.4827827" lon="13.2021616"><ele>1045.8000000000002</ele><time>2026-04-10T13:58:30.679Z</time></trkpt><trkpt lat="42.4828533" lon="13.2020573"><ele>1046.4</ele><time>2026-04-10T13:58:31.662Z</time></trkpt><trkpt lat="42.482939" lon="13.2019677"><ele>1047.0</ele><time>2026-04-10T13:58:32.667Z</time></trkpt><trkpt lat="42.4830408" lon="13.2018664"><ele>1047.0</ele><time>2026-04-10T13:58:33.672Z</time></trkpt><trkpt lat="42.4831447" lon="13.2017704"><ele>1047.0</ele><time>2026-04-10T13:58:34.664Z</time></trkpt><trkpt lat="42.4832509" lon="13.2016687"><ele>1047.0</ele><time>2026-04-10T13:58:35.684Z</time></trkpt><trkpt lat="42.4833616" lon="13.2015619"><ele>1047.0</ele><time>2026-04-10T13:58:36.683Z</time></trkpt><trkpt lat="42.4834729" lon="13.2014498"><ele>1047.75</ele><time>2026-04-10T13:58:37.683Z</time></trkpt><trkpt lat="42.4835854" lon="13.2013283"><ele>1048.5</ele><time>2026-04-10T13:58:38.68Z</time></trkpt><trkpt lat="42.4836844" lon="13.2011995"><ele>1049.25</ele><time>2026-04-10T13:58:39.682Z</time></trkpt><trkpt lat="42.4837647" lon="13.201067"><ele>1050.0</ele><time>2026-04-10T13:58:40.687Z</time></trkpt><trkpt lat="42.4838279" lon="13.2009428"><ele>1050.0</ele><time>2026-04-10T13:58:41.678Z</time></trkpt><trkpt lat="42.4838786" lon="13.200834"><ele>1050.0</ele><time>2026-04-10T13:58:42.663Z</time></trkpt><trkpt lat="42.4839276" lon="13.2007415"><ele>1050.0</ele><time>2026-04-10T13:58:43.667Z</time></trkpt><trkpt lat="42.4839602" lon="13.2006531"><ele>1050.0</ele><time>2026-04-10T13:58:44.665Z</time></trkpt><trkpt lat="42.4839927" lon="13.2005724"><ele>1050.0</ele><time>2026-04-10T13:58:45.665Z</time></trkpt><trkpt lat="42.4840478" lon="13.2004428"><ele>1050.0</ele><time>2026-04-10T13:58:47.674Z</time></trkpt><trkpt lat="42.4840825" lon="13.2003708"><ele>1050.2857142857142</ele><time>2026-04-10T13:58:48.68Z</time></trkpt><trkpt lat="42.4841071" lon="13.20029"><ele>1050.5714285714284</ele><time>2026-04-10T13:58:49.664Z</time></trkpt><trkpt lat="42.484122" lon="13.200192"><ele>1050.857142857143</ele><time>2026-04-10T13:58:50.662Z</time></trkpt><trkpt lat="42.4841374" lon="13.2000923"><ele>1051.142857142857</ele><time>2026-04-10T13:58:51.673Z</time></trkpt><trkpt lat="42.484149" lon="13.1999993"><ele>1051.4285714285713</ele><time>2026-04-10T13:58:52.671Z</time></trkpt><trkpt lat="42.4841594" lon="13.1999063"><ele>1051.7142857142858</ele><time>2026-04-10T13:58:53.688Z</time></trkpt><trkpt lat="42.4841763" lon="13.1997993"><ele>1052.0</ele><time>2026-04-10T13:58:54.683Z</time></trkpt><trkpt lat="42.4841932" lon="13.1996982"><ele>1052.0</ele><time>2026-04-10T13:58:55.69Z</time></trkpt><trkpt lat="42.4841725" lon="13.1995952"><ele>1052.0</ele><time>2026-04-10T13:58:56.688Z</time></trkpt><trkpt lat="42.48417" lon="13.199495"><ele>1052.0</ele><time>2026-04-10T13:58:57.691Z</time></trkpt><trkpt lat="42.484165" lon="13.1993955"><ele>1052.0</ele><time>2026-04-10T13:58:58.69Z</time></trkpt><trkpt lat="42.4841444" lon="13.199305"><ele>1052.0</ele><time>2026-04-10T13:58:59.667Z</time></trkpt><trkpt lat="42.4841148" lon="13.1992081"><ele>1052.0</ele><time>2026-04-10T13:59:00.67Z</time></trkpt><trkpt lat="42.4840643" lon="13.1991068"><ele>1052.0</ele><time>2026-04-10T13:59:01.674Z</time></trkpt><trkpt lat="42.4840019" lon="13.1990414"><ele>1052.0</ele><time>2026-04-10T13:59:02.674Z</time></trkpt><trkpt lat="42.4839056" lon="13.1989401"><ele>1052.0</ele><time>2026-04-10T13:59:03.687Z</time></trkpt><trkpt lat="42.4838039" lon="13.1988484"><ele>1052.0</ele><time>2026-04-10T13:59:04.684Z</time></trkpt><trkpt lat="42.4837078" lon="13.1987481"><ele>1052.0</ele><time>2026-04-10T13:59:05.676Z</time></trkpt><trkpt lat="42.4836052" lon="13.1986466"><ele>1054.0</ele><time>2026-04-10T13:59:06.677Z</time></trkpt><trkpt lat="42.4835017" lon="13.1985387"><ele>1056.0</ele><time>2026-04-10T13:59:07.685Z</time></trkpt><trkpt lat="42.4833636" lon="13.1984484"><ele>1058.0</ele><time>2026-04-10T13:59:08.596Z</time></trkpt><trkpt lat="42.4832602" lon="13.1983514"><ele>1060.0</ele><time>2026-04-10T13:59:09.617Z</time></trkpt><trkpt lat="42.4831654" lon="13.198258"><ele>1060.6</ele><time>2026-04-10T13:59:10.615Z</time></trkpt><trkpt lat="42.4830925" lon="13.1981584"><ele>1061.2</ele><time>2026-04-10T13:59:11.615Z</time></trkpt><trkpt lat="42.4830402" lon="13.1980556"><ele>1061.8</ele><time>2026-04-10T13:59:12.598Z</time></trkpt><trkpt lat="42.48302" lon="13.1979135"><ele>1062.4</ele><time>2026-04-10T13:59:13.614Z</time></trkpt><trkpt lat="42.4830445" lon="13.1977657"><ele>1063.0</ele><time>2026-04-10T13:59:14.615Z</time></trkpt><trkpt lat="42.4831233" lon="13.1976294"><ele>1063.0</ele><time>2026-04-10T13:59:15.615Z</time></trkpt><trkpt lat="42.4832281" lon="13.1975192"><ele>1063.0</ele><time>2026-04-10T13:59:16.611Z</time></trkpt><trkpt lat="42.4833318" lon="13.1974132"><ele>1063.0</ele><time>2026-04-10T13:59:17.632Z</time></trkpt><trkpt lat="42.4834229" lon="13.1972832"><ele>1063.0</ele><time>2026-04-10T13:59:18.61Z</time></trkpt><trkpt lat="42.4835143" lon="13.1971451"><ele>1065.75</ele><time>2026-04-10T13:59:19.605Z</time></trkpt><trkpt lat="42.4836117" lon="13.1970241"><ele>1068.5</ele><time>2026-04-10T13:59:20.604Z</time></trkpt><trkpt lat="42.4837182" lon="13.1969256"><ele>1071.25</ele><time>2026-04-10T13:59:21.599Z</time></trkpt><trkpt lat="42.4838394" lon="13.1968724"><ele>1074.0</ele><time>2026-04-10T13:59:22.619Z</time></trkpt><trkpt lat="42.4839874" lon="13.196892"><ele>1074.0</ele><time>2026-04-10T13:59:23.611Z</time></trkpt><trkpt lat="42.4841522" lon="13.196942"><ele>1074.0</ele><time>2026-04-10T13:59:24.609Z</time></trkpt><trkpt lat="42.4843149" lon="13.1969885"><ele>1074.0</ele><time>2026-04-10T13:59:25.599Z</time></trkpt><trkpt lat="42.4844848" lon="13.196995"><ele>1074.5</ele><time>2026-04-10T13:59:26.602Z</time></trkpt><trkpt lat="42.4846383" lon="13.19697"><ele>1075.0</ele><time>2026-04-10T13:59:27.598Z</time></trkpt><trkpt lat="42.4847899" lon="13.1969293"><ele>1075.5</ele><time>2026-04-10T13:59:28.605Z</time></trkpt><trkpt lat="42.4849255" lon="13.1969193"><ele>1076.0</ele><time>2026-04-10T13:59:29.593Z</time></trkpt><trkpt lat="42.4850175" lon="13.1969265"><ele>1076.0</ele><time>2026-04-10T13:59:30.604Z</time></trkpt><trkpt lat="42.4851043" lon="13.1970159"><ele>1076.0</ele><time>2026-04-10T13:59:31.589Z</time></trkpt><trkpt lat="42.48515" lon="13.1970946"><ele>1076.0</ele><time>2026-04-10T13:59:32.593Z</time></trkpt><trkpt lat="42.4851988" lon="13.1971697"><ele>1076.0</ele><time>2026-04-10T13:59:33.609Z</time></trkpt><trkpt lat="42.4852695" lon="13.1972425"><ele>1076.0</ele><time>2026-04-10T13:59:34.61Z</time></trkpt><trkpt lat="42.4853624" lon="13.1973056"><ele>1076.0</ele><time>2026-04-10T13:59:35.604Z</time></trkpt><trkpt lat="42.4854598" lon="13.1973623"><ele>1072.5</ele><time>2026-04-10T13:59:36.607Z</time></trkpt><trkpt lat="42.4855741" lon="13.197409"><ele>1069.0</ele><time>2026-04-10T13:59:37.607Z</time></trkpt><trkpt lat="42.4856969" lon="13.1974381"><ele>1065.5</ele><time>2026-04-10T13:59:38.608Z</time></trkpt><trkpt lat="42.4858144" lon="13.1974571"><ele>1062.0</ele><time>2026-04-10T13:59:39.609Z</time></trkpt><trkpt lat="42.4859317" lon="13.1974352"><ele>1062.0</ele><time>2026-04-10T13:59:40.604Z</time></trkpt><trkpt lat="42.4860459" lon="13.1973545"><ele>1062.0</ele><time>2026-04-10T13:59:41.594Z</time></trkpt><trkpt lat="42.4861471" lon="13.1972334"><ele>1062.0</ele><time>2026-04-10T13:59:42.618Z</time></trkpt><trkpt lat="42.4862482" lon="13.1971013"><ele>1062.0</ele><time>2026-04-10T13:59:43.605Z</time></trkpt><trkpt lat="42.4863467" lon="13.1969685"><ele>1071.0</ele><time>2026-04-10T13:59:44.875Z</time></trkpt><trkpt lat="42.4865985" lon="13.1969137"><ele>1080.0</ele><time>2026-04-10T13:59:46.606Z</time></trkpt><trkpt lat="42.4867384" lon="13.1970516"><ele>1089.0</ele><time>2026-04-10T13:59:47.621Z</time></trkpt><trkpt lat="42.4868257" lon="13.1972238"><ele>1086.75</ele><time>2026-04-10T13:59:48.694Z</time></trkpt><trkpt lat="42.4868974" lon="13.1974022"><ele>1084.5</ele><time>2026-04-10T13:59:49.599Z</time></trkpt><trkpt lat="42.4869814" lon="13.1975613"><ele>1082.25</ele><time>2026-04-10T13:59:50.603Z</time></trkpt><trkpt lat="42.4870614" lon="13.1976885"><ele>1080.0</ele><time>2026-04-10T13:59:51.598Z</time></trkpt><trkpt lat="42.487174" lon="13.1977717"><ele>1080.0</ele><time>2026-04-10T13:59:52.61Z</time></trkpt><trkpt lat="42.487322" lon="13.1978254"><ele>1080.0</ele><time>2026-04-10T13:59:53.605Z</time></trkpt><trkpt lat="42.4874755" lon="13.1978574"><ele>1080.0</ele><time>2026-04-10T13:59:54.604Z</time></trkpt><trkpt lat="42.4876342" lon="13.1979026"><ele>1080.0</ele><time>2026-04-10T13:59:55.609Z</time></trkpt><trkpt lat="42.4877873" lon="13.1979382"><ele>1080.0</ele><time>2026-04-10T13:59:56.61Z</time></trkpt><trkpt lat="42.4879465" lon="13.1979869"><ele>1080.0</ele><time>2026-04-10T13:59:57.61Z</time></trkpt><trkpt lat="42.4881064" lon="13.1980515"><ele>1083.6666666666667</ele><time>2026-04-10T13:59:58.616Z</time></trkpt><trkpt lat="42.4882645" lon="13.19811"><ele>1087.3333333333335</ele><time>2026-04-10T13:59:59.605Z</time></trkpt><trkpt lat="42.4884314" lon="13.1981422"><ele>1091.0</ele><time>2026-04-10T14:00:00.605Z</time></trkpt><trkpt lat="42.4885939" lon="13.1981383"><ele>1086.0</ele><time>2026-04-10T14:00:01.609Z</time></trkpt><trkpt lat="42.4887637" lon="13.198141"><ele>1081.0</ele><time>2026-04-10T14:00:02.599Z</time></trkpt><trkpt lat="42.4889228" lon="13.1981896"><ele>1076.0</ele><time>2026-04-10T14:00:03.615Z</time></trkpt><trkpt lat="42.489059" lon="13.1982985"><ele>1076.0</ele><time>2026-04-10T14:00:04.61Z</time></trkpt><trkpt lat="42.4891899" lon="13.1983906"><ele>1076.0</ele><time>2026-04-10T14:00:05.621Z</time></trkpt><trkpt lat="42.4892816" lon="13.198381"><ele>1076.0</ele><time>2026-04-10T14:00:06.627Z</time></trkpt><trkpt lat="42.4893924" lon="13.198315"><ele>1076.0</ele><time>2026-04-10T14:00:07.63Z</time></trkpt><trkpt lat="42.489446" lon="13.1981601"><ele>1076.0</ele><time>2026-04-10T14:00:08.628Z</time></trkpt><trkpt lat="42.4894431" lon="13.1979828"><ele>1076.0</ele><time>2026-04-10T14:00:09.628Z</time></trkpt><trkpt lat="42.4894192" lon="13.1978123"><ele>1076.0</ele><time>2026-04-10T14:00:10.611Z</time></trkpt><trkpt lat="42.4893811" lon="13.1976456"><ele>1076.0</ele><time>2026-04-10T14:00:11.613Z</time></trkpt><trkpt lat="42.4893438" lon="13.1974707"><ele>1076.0</ele><time>2026-04-10T14:00:12.621Z</time></trkpt><trkpt lat="42.4893066" lon="13.197296"><ele>1076.0</ele><time>2026-04-10T14:00:13.623Z</time></trkpt><trkpt lat="42.4892605" lon="13.1971174"><ele>1076.0</ele><time>2026-04-10T14:00:14.628Z</time></trkpt><trkpt lat="42.4892084" lon="13.1969463"><ele>1076.0</ele><time>2026-04-10T14:00:15.622Z</time></trkpt><trkpt lat="42.4891567" lon="13.1967792"><ele>1076.0</ele><time>2026-04-10T14:00:16.617Z</time></trkpt><trkpt lat="42.489072" lon="13.196586"><ele>1076.0</ele><time>2026-04-10T14:00:17.615Z</time></trkpt><trkpt lat="42.4889965" lon="13.196419"><ele>1076.0</ele><time>2026-04-10T14:00:18.616Z</time></trkpt><trkpt lat="42.4889114" lon="13.1962559"><ele>1072.0</ele><time>2026-04-10T14:00:19.605Z</time></trkpt><trkpt lat="42.4888218" lon="13.1960555"><ele>1068.0</ele><time>2026-04-10T14:00:20.606Z</time></trkpt><trkpt lat="42.4887382" lon="13.1958733"><ele>1064.0</ele><time>2026-04-10T14:00:21.607Z</time></trkpt><trkpt lat="42.4886442" lon="13.1956784"><ele>1068.5</ele><time>2026-04-10T14:00:22.602Z</time></trkpt><trkpt lat="42.4885546" lon="13.1955014"><ele>1073.0</ele><time>2026-04-10T14:00:23.604Z</time></trkpt><trkpt lat="42.4884678" lon="13.1953264"><ele>1077.5</ele><time>2026-04-10T14:00:24.594Z</time></trkpt><trkpt lat="42.4883824" lon="13.1951885"><ele>1082.0</ele><time>2026-04-10T14:00:25.6Z</time></trkpt><trkpt lat="42.4882679" lon="13.1950777"><ele>1082.0</ele><time>2026-04-10T14:00:26.597Z</time></trkpt><trkpt lat="42.4881485" lon="13.1949763"><ele>1082.0</ele><time>2026-04-10T14:00:27.598Z</time></trkpt><trkpt lat="42.4880483" lon="13.1948294"><ele>1082.0</ele><time>2026-04-10T14:00:28.592Z</time></trkpt><trkpt lat="42.487965" lon="13.1946696"><ele>1082.0</ele><time>2026-04-10T14:00:29.592Z</time></trkpt><trkpt lat="42.4879222" lon="13.1944965"><ele>1087.25</ele><time>2026-04-10T14:00:30.597Z</time></trkpt><trkpt lat="42.4878802" lon="13.1943371"><ele>1092.5</ele><time>2026-04-10T14:00:31.61Z</time></trkpt><trkpt lat="42.4878469" lon="13.1941698"><ele>1097.75</ele><time>2026-04-10T14:00:32.6Z</time></trkpt><trkpt lat="42.4878283" lon="13.193987"><ele>1103.0</ele><time>2026-04-10T14:00:33.6Z</time></trkpt><trkpt lat="42.487851" lon="13.193813"><ele>1104.5</ele><time>2026-04-10T14:00:34.594Z</time></trkpt><trkpt lat="42.4879033" lon="13.193623"><ele>1106.0</ele><time>2026-04-10T14:00:35.589Z</time></trkpt><trkpt lat="42.4880272" lon="13.1935147"><ele>1107.5</ele><time>2026-04-10T14:00:36.591Z</time></trkpt><trkpt lat="42.4881347" lon="13.1934812"><ele>1109.0</ele><time>2026-04-10T14:00:37.586Z</time></trkpt><trkpt lat="42.488241" lon="13.1934882"><ele>1106.6000000000001</ele><time>2026-04-10T14:00:38.577Z</time></trkpt><trkpt lat="42.4883406" lon="13.1935178"><ele>1104.2</ele><time>2026-04-10T14:00:39.58Z</time></trkpt><trkpt lat="42.4884345" lon="13.1935285"><ele>1101.8000000000002</ele><time>2026-04-10T14:00:40.561Z</time></trkpt><trkpt lat="42.4885378" lon="13.1934851"><ele>1099.4</ele><time>2026-04-10T14:00:41.56Z</time></trkpt><trkpt lat="42.4886254" lon="13.1934173"><ele>1097.0</ele><time>2026-04-10T14:00:42.562Z</time></trkpt><trkpt lat="42.4887282" lon="13.1933838"><ele>1098.0</ele><time>2026-04-10T14:00:43.57Z</time></trkpt><trkpt lat="42.4888543" lon="13.1934073"><ele>1099.0</ele><time>2026-04-10T14:00:44.59Z</time></trkpt><trkpt lat="42.4889736" lon="13.193477"><ele>1100.0</ele><time>2026-04-10T14:00:45.572Z</time></trkpt><trkpt lat="42.4891011" lon="13.1935656"><ele>1101.0</ele><time>2026-04-10T14:00:46.572Z</time></trkpt><trkpt lat="42.4892483" lon="13.1936252"><ele>1101.0</ele><time>2026-04-10T14:00:47.571Z</time></trkpt><trkpt lat="42.4894272" lon="13.1936945"><ele>1101.0</ele><time>2026-04-10T14:00:48.578Z</time></trkpt><trkpt lat="42.4896144" lon="13.1937853"><ele>1101.0</ele><time>2026-04-10T14:00:49.585Z</time></trkpt><trkpt lat="42.4897721" lon="13.1938735"><ele>1096.75</ele><time>2026-04-10T14:00:50.58Z</time></trkpt><trkpt lat="42.4899003" lon="13.1939417"><ele>1092.5</ele><time>2026-04-10T14:00:51.583Z</time></trkpt><trkpt lat="42.4900146" lon="13.1940303"><ele>1088.25</ele><time>2026-04-10T14:00:52.58Z</time></trkpt><trkpt lat="42.4901361" lon="13.1941153"><ele>1084.0</ele><time>2026-04-10T14:00:53.578Z</time></trkpt><trkpt lat="42.4902593" lon="13.1942045"><ele>1084.0</ele><time>2026-04-10T14:00:54.573Z</time></trkpt><trkpt lat="42.4904025" lon="13.1942808"><ele>1084.0</ele><time>2026-04-10T14:00:55.567Z</time></trkpt><trkpt lat="42.4905382" lon="13.1943282"><ele>1084.0</ele><time>2026-04-10T14:00:56.589Z</time></trkpt><trkpt lat="42.4906822" lon="13.1943705"><ele>1084.0</ele><time>2026-04-10T14:00:57.592Z</time></trkpt><trkpt lat="42.490847" lon="13.1942975"><ele>1085.3333333333333</ele><time>2026-04-10T14:00:58.587Z</time></trkpt><trkpt lat="42.491013" lon="13.1942636"><ele>1086.6666666666667</ele><time>2026-04-10T14:00:59.593Z</time></trkpt><trkpt lat="42.4911502" lon="13.194235"><ele>1088.0</ele><time>2026-04-10T14:01:00.582Z</time></trkpt><trkpt lat="42.4913126" lon="13.1942028"><ele>1089.25</ele><time>2026-04-10T14:01:01.597Z</time></trkpt><trkpt lat="42.4914205" lon="13.1941613"><ele>1090.5</ele><time>2026-04-10T14:01:02.595Z</time></trkpt><trkpt lat="42.491579" lon="13.1941277"><ele>1091.75</ele><time>2026-04-10T14:01:03.596Z</time></trkpt><trkpt lat="42.4916808" lon="13.1940404"><ele>1093.0</ele><time>2026-04-10T14:01:04.594Z</time></trkpt><trkpt lat="42.4917465" lon="13.1939163"><ele>1093.0</ele><time>2026-04-10T14:01:05.611Z</time></trkpt><trkpt lat="42.4917835" lon="13.1937634"><ele>1093.0</ele><time>2026-04-10T14:01:06.607Z</time></trkpt><trkpt lat="42.4918271" lon="13.1936649"><ele>1093.0</ele><time>2026-04-10T14:01:07.621Z</time></trkpt><trkpt lat="42.4917778" lon="13.1935259"><ele>1093.0</ele><time>2026-04-10T14:01:08.605Z</time></trkpt><trkpt lat="42.491727" lon="13.1934203"><ele>1093.0</ele><time>2026-04-10T14:01:09.623Z</time></trkpt><trkpt lat="42.4916559" lon="13.1933349"><ele>1093.0</ele><time>2026-04-10T14:01:10.609Z</time></trkpt><trkpt lat="42.4915614" lon="13.1932451"><ele>1093.0</ele><time>2026-04-10T14:01:11.613Z</time></trkpt><trkpt lat="42.4914748" lon="13.1931575"><ele>1093.0</ele><time>2026-04-10T14:01:12.598Z</time></trkpt><trkpt lat="42.4914039" lon="13.1930658"><ele>1093.0</ele><time>2026-04-10T14:01:13.597Z</time></trkpt><trkpt lat="42.4914051" lon="13.1929341"><ele>1093.0</ele><time>2026-04-10T14:01:14.609Z</time></trkpt><trkpt lat="42.4914389" lon="13.1927801"><ele>1095.25</ele><time>2026-04-10T14:01:15.616Z</time></trkpt><trkpt lat="42.4915226" lon="13.1926198"><ele>1097.5</ele><time>2026-04-10T14:01:16.592Z</time></trkpt><trkpt lat="42.4916169" lon="13.1924575"><ele>1099.75</ele><time>2026-04-10T14:01:17.59Z</time></trkpt><trkpt lat="42.4917182" lon="13.1923055"><ele>1102.0</ele><time>2026-04-10T14:01:18.605Z</time></trkpt><trkpt lat="42.4918173" lon="13.1921517"><ele>1103.25</ele><time>2026-04-10T14:01:19.601Z</time></trkpt><trkpt lat="42.4919051" lon="13.1920062"><ele>1104.5</ele><time>2026-04-10T14:01:20.613Z</time></trkpt><trkpt lat="42.4919553" lon="13.1918342"><ele>1105.75</ele><time>2026-04-10T14:01:21.604Z</time></trkpt><trkpt lat="42.4919741" lon="13.19166"><ele>1107.0</ele><time>2026-04-10T14:01:22.62Z</time></trkpt><trkpt lat="42.4919462" lon="13.1915007"><ele>1107.75</ele><time>2026-04-10T14:01:23.608Z</time></trkpt><trkpt lat="42.4918974" lon="13.1913446"><ele>1108.5</ele><time>2026-04-10T14:01:24.611Z</time></trkpt><trkpt lat="42.4918301" lon="13.1912022"><ele>1109.25</ele><time>2026-04-10T14:01:25.598Z</time></trkpt><trkpt lat="42.4917638" lon="13.1910448"><ele>1110.0</ele><time>2026-04-10T14:01:26.594Z</time></trkpt><trkpt lat="42.4917317" lon="13.1908887"><ele>1110.0</ele><time>2026-04-10T14:01:27.59Z</time></trkpt><trkpt lat="42.4917462" lon="13.1907473"><ele>1110.0</ele><time>2026-04-10T14:01:28.611Z</time></trkpt><trkpt lat="42.4917974" lon="13.1906071"><ele>1110.0</ele><time>2026-04-10T14:01:29.604Z</time></trkpt><trkpt lat="42.4918883" lon="13.1904901"><ele>1110.0</ele><time>2026-04-10T14:01:30.594Z</time></trkpt><trkpt lat="42.4919941" lon="13.1903974"><ele>1104.6666666666667</ele><time>2026-04-10T14:01:31.601Z</time></trkpt><trkpt lat="42.4921365" lon="13.1903368"><ele>1099.3333333333335</ele><time>2026-04-10T14:01:32.608Z</time></trkpt><trkpt lat="42.4922854" lon="13.1902791"><ele>1094.0</ele><time>2026-04-10T14:01:33.593Z</time></trkpt><trkpt lat="42.492436" lon="13.190231"><ele>1094.0</ele><time>2026-04-10T14:01:34.596Z</time></trkpt><trkpt lat="42.4926124" lon="13.1901869"><ele>1094.0</ele><time>2026-04-10T14:01:35.599Z</time></trkpt><trkpt lat="42.4927849" lon="13.1901699"><ele>1094.0</ele><time>2026-04-10T14:01:36.6Z</time></trkpt><trkpt lat="42.4929239" lon="13.190116"><ele>1092.6000000000001</ele><time>2026-04-10T14:01:37.603Z</time></trkpt><trkpt lat="42.4929968" lon="13.1900071"><ele>1091.2</ele><time>2026-04-10T14:01:38.627Z</time></trkpt><trkpt lat="42.4929985" lon="13.1898796"><ele>1089.8000000000002</ele><time>2026-04-10T14:01:39.626Z</time></trkpt><trkpt lat="42.4929679" lon="13.1897871"><ele>1088.4</ele><time>2026-04-10T14:01:40.624Z</time></trkpt><trkpt lat="42.4928624" lon="13.1896555"><ele>1087.0</ele><time>2026-04-10T14:01:41.626Z</time></trkpt><trkpt lat="42.4927631" lon="13.1895564"><ele>1087.0</ele><time>2026-04-10T14:01:42.624Z</time></trkpt><trkpt lat="42.4926441" lon="13.1894296"><ele>1087.0</ele><time>2026-04-10T14:01:43.613Z</time></trkpt><trkpt lat="42.4925129" lon="13.1892893"><ele>1087.0</ele><time>2026-04-10T14:01:44.699Z</time></trkpt><trkpt lat="42.4923896" lon="13.1891559"><ele>1087.0</ele><time>2026-04-10T14:01:45.696Z</time></trkpt><trkpt lat="42.4922807" lon="13.1890243"><ele>1087.0</ele><time>2026-04-10T14:01:46.704Z</time></trkpt><trkpt lat="42.4921903" lon="13.1888844"><ele>1087.0</ele><time>2026-04-10T14:01:47.612Z</time></trkpt><trkpt lat="42.4921592" lon="13.1887505"><ele>1087.0</ele><time>2026-04-10T14:01:48.605Z</time></trkpt><trkpt lat="42.4921466" lon="13.1886049"><ele>1086.75</ele><time>2026-04-10T14:01:49.596Z</time></trkpt><trkpt lat="42.4921887" lon="13.1884881"><ele>1086.5</ele><time>2026-04-10T14:01:50.596Z</time></trkpt><trkpt lat="42.492241" lon="13.1883543"><ele>1086.25</ele><time>2026-04-10T14:01:51.599Z</time></trkpt><trkpt lat="42.4923313" lon="13.1882439"><ele>1086.0</ele><time>2026-04-10T14:01:52.592Z</time></trkpt><trkpt lat="42.4924397" lon="13.1881452"><ele>1094.6666666666667</ele><time>2026-04-10T14:01:53.593Z</time></trkpt><trkpt lat="42.4925799" lon="13.1880817"><ele>1103.3333333333335</ele><time>2026-04-10T14:01:54.591Z</time></trkpt><trkpt lat="42.4927314" lon="13.1880296"><ele>1112.0</ele><time>2026-04-10T14:01:55.589Z</time></trkpt><trkpt lat="42.4928817" lon="13.1879399"><ele>1102.3333333333335</ele><time>2026-04-10T14:01:56.589Z</time></trkpt><trkpt lat="42.4930045" lon="13.1878022"><ele>1092.6666666666667</ele><time>2026-04-10T14:01:57.592Z</time></trkpt><trkpt lat="42.4931331" lon="13.1876764"><ele>1083.0</ele><time>2026-04-10T14:01:58.586Z</time></trkpt><trkpt lat="42.4932739" lon="13.1875905"><ele>1083.0</ele><time>2026-04-10T14:01:59.588Z</time></trkpt><trkpt lat="42.4934182" lon="13.1874822"><ele>1083.0</ele><time>2026-04-10T14:02:00.595Z</time></trkpt><trkpt lat="42.4935386" lon="13.187367"><ele>1083.0</ele><time>2026-04-10T14:02:01.588Z</time></trkpt><trkpt lat="42.4936376" lon="13.187211"><ele>1078.25</ele><time>2026-04-10T14:02:02.594Z</time></trkpt><trkpt lat="42.4937431" lon="13.1870527"><ele>1073.5</ele><time>2026-04-10T14:02:03.589Z</time></trkpt><trkpt lat="42.4938518" lon="13.1869294"><ele>1068.75</ele><time>2026-04-10T14:02:04.592Z</time></trkpt><trkpt lat="42.4939382" lon="13.186777"><ele>1064.0</ele><time>2026-04-10T14:02:05.587Z</time></trkpt><trkpt lat="42.4940121" lon="13.1866238"><ele>1065.0</ele><time>2026-04-10T14:02:06.583Z</time></trkpt><trkpt lat="42.4940601" lon="13.186401"><ele>1066.0</ele><time>2026-04-10T14:02:07.597Z</time></trkpt><trkpt lat="42.4940766" lon="13.1861684"><ele>1067.0</ele><time>2026-04-10T14:02:08.592Z</time></trkpt><trkpt lat="42.4940789" lon="13.1859337"><ele>1067.0</ele><time>2026-04-10T14:02:09.597Z</time></trkpt><trkpt lat="42.4940577" lon="13.1857526"><ele>1067.0</ele><time>2026-04-10T14:02:10.593Z</time></trkpt><trkpt lat="42.4940119" lon="13.1855705"><ele>1067.0</ele><time>2026-04-10T14:02:11.593Z</time></trkpt><trkpt lat="42.4939438" lon="13.1854289"><ele>1067.0</ele><time>2026-04-10T14:02:12.574Z</time></trkpt><trkpt lat="42.4938571" lon="13.1852861"><ele>1066.75</ele><time>2026-04-10T14:02:13.576Z</time></trkpt><trkpt lat="42.4937622" lon="13.1851046"><ele>1066.5</ele><time>2026-04-10T14:02:14.583Z</time></trkpt><trkpt lat="42.4937185" lon="13.1849594"><ele>1066.25</ele><time>2026-04-10T14:02:15.576Z</time></trkpt><trkpt lat="42.4937849" lon="13.1847941"><ele>1066.0</ele><time>2026-04-10T14:02:16.593Z</time></trkpt><trkpt lat="42.4938595" lon="13.1846645"><ele>1070.75</ele><time>2026-04-10T14:02:17.607Z</time></trkpt><trkpt lat="42.4939597" lon="13.1845681"><ele>1075.5</ele><time>2026-04-10T14:02:18.593Z</time></trkpt><trkpt lat="42.4940636" lon="13.1845083"><ele>1080.25</ele><time>2026-04-10T14:02:19.587Z</time></trkpt><trkpt lat="42.4941775" lon="13.1844651"><ele>1085.0</ele><time>2026-04-10T14:02:20.585Z</time></trkpt><trkpt lat="42.4943083" lon="13.184472"><ele>1085.0</ele><time>2026-04-10T14:02:21.58Z</time></trkpt><trkpt lat="42.4944464" lon="13.1845142"><ele>1085.0</ele><time>2026-04-10T14:02:22.594Z</time></trkpt><trkpt lat="42.4945731" lon="13.1845956"><ele>1085.0</ele><time>2026-04-10T14:02:23.579Z</time></trkpt><trkpt lat="42.4947078" lon="13.1847018"><ele>1085.0</ele><time>2026-04-10T14:02:24.581Z</time></trkpt><trkpt lat="42.494839" lon="13.1848341"><ele>1079.3333333333335</ele><time>2026-04-10T14:02:25.578Z</time></trkpt><trkpt lat="42.4949846" lon="13.1849884"><ele>1073.6666666666667</ele><time>2026-04-10T14:02:26.58Z</time></trkpt><trkpt lat="42.4951125" lon="13.1851008"><ele>1068.0</ele><time>2026-04-10T14:02:27.575Z</time></trkpt><trkpt lat="42.4952343" lon="13.1851511"><ele>1068.0</ele><time>2026-04-10T14:02:28.575Z</time></trkpt><trkpt lat="42.4953453" lon="13.1851778"><ele>1068.0</ele><time>2026-04-10T14:02:29.577Z</time></trkpt><trkpt lat="42.4954412" lon="13.1852283"><ele>1068.0</ele><time>2026-04-10T14:02:30.575Z</time></trkpt><trkpt lat="42.4955146" lon="13.1853152"><ele>1068.0</ele><time>2026-04-10T14:02:31.574Z</time></trkpt><trkpt lat="42.4955915" lon="13.1854262"><ele>1068.0</ele><time>2026-04-10T14:02:32.575Z</time></trkpt><trkpt lat="42.4956485" lon="13.1855666"><ele>1069.0</ele><time>2026-04-10T14:02:33.58Z</time></trkpt><trkpt lat="42.495674" lon="13.1857127"><ele>1070.0</ele><time>2026-04-10T14:02:34.576Z</time></trkpt><trkpt lat="42.4956785" lon="13.1858689"><ele>1071.0</ele><time>2026-04-10T14:02:35.583Z</time></trkpt><trkpt lat="42.4956872" lon="13.1860321"><ele>1072.0</ele><time>2026-04-10T14:02:36.597Z</time></trkpt><trkpt lat="42.4957195" lon="13.1862031"><ele>1072.0</ele><time>2026-04-10T14:02:37.597Z</time></trkpt><trkpt lat="42.4957605" lon="13.1863612"><ele>1072.0</ele><time>2026-04-10T14:02:38.595Z</time></trkpt><trkpt lat="42.4957964" lon="13.1865219"><ele>1072.0</ele><time>2026-04-10T14:02:39.596Z</time></trkpt><trkpt lat="42.4958365" lon="13.1866694"><ele>1072.0</ele><time>2026-04-10T14:02:40.593Z</time></trkpt><trkpt lat="42.4958873" lon="13.1867994"><ele>1069.6</ele><time>2026-04-10T14:02:41.598Z</time></trkpt><trkpt lat="42.4959561" lon="13.1869025"><ele>1067.2</ele><time>2026-04-10T14:02:42.587Z</time></trkpt><trkpt lat="42.4960435" lon="13.1869825"><ele>1064.8</ele><time>2026-04-10T14:02:43.58Z</time></trkpt><trkpt lat="42.4961385" lon="13.1870154"><ele>1062.4</ele><time>2026-04-10T14:02:44.595Z</time></trkpt><trkpt lat="42.4962513" lon="13.1869947"><ele>1060.0</ele><time>2026-04-10T14:02:45.588Z</time></trkpt><trkpt lat="42.4963804" lon="13.1869186"><ele>1059.0</ele><time>2026-04-10T14:02:46.594Z</time></trkpt><trkpt lat="42.4965182" lon="13.186804"><ele>1058.0</ele><time>2026-04-10T14:02:47.589Z</time></trkpt><trkpt lat="42.4966602" lon="13.1866786"><ele>1057.0</ele><time>2026-04-10T14:02:48.583Z</time></trkpt><trkpt lat="42.4968334" lon="13.1865217"><ele>1058.75</ele><time>2026-04-10T14:02:49.586Z</time></trkpt><trkpt lat="42.4969686" lon="13.1864068"><ele>1060.5</ele><time>2026-04-10T14:02:50.584Z</time></trkpt><trkpt lat="42.4970693" lon="13.1863031"><ele>1062.25</ele><time>2026-04-10T14:02:51.587Z</time></trkpt><trkpt lat="42.497176" lon="13.1861998"><ele>1064.0</ele><time>2026-04-10T14:02:52.591Z</time></trkpt><trkpt lat="42.4973052" lon="13.1861419"><ele>1064.0</ele><time>2026-04-10T14:02:53.603Z</time></trkpt><trkpt lat="42.4974452" lon="13.1861439"><ele>1064.0</ele><time>2026-04-10T14:02:54.6Z</time></trkpt><trkpt lat="42.4975836" lon="13.1861881"><ele>1064.0</ele><time>2026-04-10T14:02:55.584Z</time></trkpt><trkpt lat="42.4977197" lon="13.186272"><ele>1064.0</ele><time>2026-04-10T14:02:56.588Z</time></trkpt><trkpt lat="42.497857" lon="13.1863192"><ele>1060.6000000000001</ele><time>2026-04-10T14:02:57.592Z</time></trkpt><trkpt lat="42.4979816" lon="13.1863198"><ele>1057.2</ele><time>2026-04-10T14:02:58.587Z</time></trkpt><trkpt lat="42.4980861" lon="13.1863425"><ele>1053.8000000000002</ele><time>2026-04-10T14:02:59.6Z</time></trkpt><trkpt lat="42.4981842" lon="13.1863808"><ele>1050.4</ele><time>2026-04-10T14:03:00.593Z</time></trkpt><trkpt lat="42.4982428" lon="13.1864632"><ele>1047.0</ele><time>2026-04-10T14:03:02.582Z</time></trkpt><trkpt lat="42.4983267" lon="13.1864582"><ele>1047.0</ele><time>2026-04-10T14:03:08.589Z</time></trkpt><trkpt lat="42.4983873" lon="13.1864304"><ele>1047.0</ele><time>2026-04-10T14:03:16.584Z</time></trkpt><trkpt lat="42.4984668" lon="13.1863552"><ele>1047.0</ele><time>2026-04-10T14:03:19.592Z</time></trkpt><trkpt lat="42.498524" lon="13.1863093"><ele>1047.0</ele><time>2026-04-10T14:03:20.583Z</time></trkpt><trkpt lat="42.4986005" lon="13.1862724"><ele>1047.0</ele><time>2026-04-10T14:03:21.58Z</time></trkpt><trkpt lat="42.4986817" lon="13.1862367"><ele>1047.0</ele><time>2026-04-10T14:03:22.575Z</time></trkpt><trkpt lat="42.4987516" lon="13.1862086"><ele>1046.0</ele><time>2026-04-10T14:03:23.588Z</time></trkpt><trkpt lat="42.4988213" lon="13.1861873"><ele>1045.0</ele><time>2026-04-10T14:03:24.592Z</time></trkpt><trkpt lat="42.4988887" lon="13.186176"><ele>1044.0</ele><time>2026-04-10T14:03:25.58Z</time></trkpt><trkpt lat="42.4990034" lon="13.1861922"><ele>1043.0</ele><time>2026-04-10T14:03:27.571Z</time></trkpt><trkpt lat="42.49908" lon="13.1862304"><ele>1042.0</ele><time>2026-04-10T14:03:28.562Z</time></trkpt><trkpt lat="42.4991719" lon="13.1863373"><ele>1042.0</ele><time>2026-04-10T14:03:30.568Z</time></trkpt><trkpt lat="42.4992118" lon="13.186455"><ele>1042.0</ele><time>2026-04-10T14:03:32.566Z</time></trkpt><trkpt lat="42.4992222" lon="13.1865519"><ele>1042.0</ele><time>2026-04-10T14:03:34.562Z</time></trkpt><trkpt lat="42.4992349" lon="13.1866391"><ele>1042.0</ele><time>2026-04-10T14:03:38.588Z</time></trkpt><trkpt lat="42.4993365" lon="13.1866776"><ele>1042.0</ele><time>2026-04-10T14:03:40.592Z</time></trkpt><trkpt lat="42.4993973" lon="13.1867066"><ele>1042.0</ele><time>2026-04-10T14:03:41.595Z</time></trkpt><trkpt lat="42.4994736" lon="13.1867451"><ele>1040.6666666666665</ele><time>2026-04-10T14:03:42.592Z</time></trkpt><trkpt lat="42.4995407" lon="13.1867982"><ele>1039.3333333333333</ele><time>2026-04-10T14:03:43.595Z</time></trkpt><trkpt lat="42.4996091" lon="13.1868485"><ele>1038.0</ele><time>2026-04-10T14:03:44.595Z</time></trkpt><trkpt lat="42.499677" lon="13.1868963"><ele>1036.6666666666667</ele><time>2026-04-10T14:03:45.59Z</time></trkpt><trkpt lat="42.4997717" lon="13.1870318"><ele>1035.3333333333335</ele><time>2026-04-10T14:03:47.604Z</time></trkpt><trkpt lat="42.4998309" lon="13.1870978"><ele>1034.0</ele><time>2026-04-10T14:03:48.601Z</time></trkpt><trkpt lat="42.4998747" lon="13.1871719"><ele>1034.0</ele><time>2026-04-10T14:03:49.613Z</time></trkpt><trkpt lat="42.4999719" lon="13.1872702"><ele>1034.0</ele><time>2026-04-10T14:03:51.61Z</time></trkpt><trkpt lat="42.5000241" lon="13.1873193"><ele>1034.0</ele><time>2026-04-10T14:03:52.609Z</time></trkpt><trkpt lat="42.500116" lon="13.1874263"><ele>1034.0</ele><time>2026-04-10T14:03:54.602Z</time></trkpt><trkpt lat="42.5002594" lon="13.187559"><ele>1034.5</ele><time>2026-04-10T14:03:57.596Z</time></trkpt><trkpt lat="42.5003438" lon="13.1876059"><ele>1035.0</ele><time>2026-04-10T14:03:59.608Z</time></trkpt><trkpt lat="42.500282" lon="13.1876788"><ele>1035.5</ele><time>2026-04-10T14:04:03.617Z</time></trkpt><trkpt lat="42.5002175" lon="13.1876512"><ele>1036.0</ele><time>2026-04-10T14:04:04.604Z</time></trkpt><trkpt lat="42.5001338" lon="13.1876206"><ele>1036.5</ele><time>2026-04-10T14:04:05.595Z</time></trkpt><trkpt lat="42.500033" lon="13.1875907"><ele>1037.0</ele><time>2026-04-10T14:04:06.606Z</time></trkpt><trkpt lat="42.4999167" lon="13.187593"><ele>1037.0</ele><time>2026-04-10T14:04:07.591Z</time></trkpt><trkpt lat="42.4997913" lon="13.1876161"><ele>1037.0</ele><time>2026-04-10T14:04:08.587Z</time></trkpt><trkpt lat="42.4996704" lon="13.1876657"><ele>1037.0</ele><time>2026-04-10T14:04:09.592Z</time></trkpt><trkpt lat="42.4995486" lon="13.1877422"><ele>1037.0</ele><time>2026-04-10T14:04:10.582Z</time></trkpt><trkpt lat="42.4994426" lon="13.1878277"><ele>1039.6</ele><time>2026-04-10T14:04:11.595Z</time></trkpt><trkpt lat="42.4993526" lon="13.1879074"><ele>1042.2</ele><time>2026-04-10T14:04:12.597Z</time></trkpt><trkpt lat="42.4992589" lon="13.1879608"><ele>1044.8</ele><time>2026-04-10T14:04:13.588Z</time></trkpt><trkpt lat="42.4991524" lon="13.1879765"><ele>1047.4</ele><time>2026-04-10T14:04:14.594Z</time></trkpt><trkpt lat="42.4990548" lon="13.1879885"><ele>1050.0</ele><time>2026-04-10T14:04:15.591Z</time></trkpt><trkpt lat="42.4989653" lon="13.1879913"><ele>1050.0</ele><time>2026-04-10T14:04:16.59Z</time></trkpt><trkpt lat="42.4988747" lon="13.1880107"><ele>1050.0</ele><time>2026-04-10T14:04:17.601Z</time></trkpt><trkpt lat="42.4987862" lon="13.1880186"><ele>1050.0</ele><time>2026-04-10T14:04:18.606Z</time></trkpt><trkpt lat="42.4987099" lon="13.1879816"><ele>1050.0</ele><time>2026-04-10T14:04:19.605Z</time></trkpt><trkpt lat="42.4986281" lon="13.1878454"><ele>1050.0</ele><time>2026-04-10T14:04:21.599Z</time></trkpt><trkpt lat="42.4985934" lon="13.1877474"><ele>1048.8</ele><time>2026-04-10T14:04:22.584Z</time></trkpt><trkpt lat="42.4985592" lon="13.1876273"><ele>1047.6</ele><time>2026-04-10T14:04:23.585Z</time></trkpt><trkpt lat="42.498544" lon="13.1874872"><ele>1046.4</ele><time>2026-04-10T14:04:24.582Z</time></trkpt><trkpt lat="42.4985273" lon="13.1873237"><ele>1045.2</ele><time>2026-04-10T14:04:25.592Z</time></trkpt><trkpt lat="42.4984919" lon="13.1871819"><ele>1044.0</ele><time>2026-04-10T14:04:26.581Z</time></trkpt><trkpt lat="42.4984744" lon="13.187068"><ele>1044.0</ele><time>2026-04-10T14:04:27.591Z</time></trkpt><trkpt lat="42.4984445" lon="13.1869759"><ele>1044.0</ele><time>2026-04-10T14:04:28.581Z</time></trkpt><trkpt lat="42.4984142" lon="13.1868343"><ele>1044.0</ele><time>2026-04-10T14:04:30.581Z</time></trkpt><trkpt lat="42.4983962" lon="13.1867465"><ele>1044.0</ele><time>2026-04-10T14:04:31.591Z</time></trkpt><trkpt lat="42.4983395" lon="13.1865992"><ele>1044.0</ele><time>2026-04-10T14:04:33.588Z</time></trkpt><trkpt lat="42.4982657" lon="13.1864994"><ele>1044.5</ele><time>2026-04-10T14:04:35.592Z</time></trkpt><trkpt lat="42.4981982" lon="13.1864148"><ele>1045.0</ele><time>2026-04-10T14:04:37.593Z</time></trkpt><trkpt lat="42.498146" lon="13.1863659"><ele>1045.5</ele><time>2026-04-10T14:04:38.586Z</time></trkpt><trkpt lat="42.4980762" lon="13.1863338"><ele>1046.0</ele><time>2026-04-10T14:04:39.596Z</time></trkpt><trkpt lat="42.4980063" lon="13.1862993"><ele>1046.5</ele><time>2026-04-10T14:04:40.593Z</time></trkpt><trkpt lat="42.4979118" lon="13.1862361"><ele>1047.0</ele><time>2026-04-10T14:04:42.611Z</time></trkpt><trkpt lat="42.4979259" lon="13.1861198"><ele>1047.0</ele><time>2026-04-10T14:04:44.617Z</time></trkpt><trkpt lat="42.4979588" lon="13.1860327"><ele>1047.0</ele><time>2026-04-10T14:04:45.619Z</time></trkpt><trkpt lat="42.4980183" lon="13.1859159"><ele>1047.0</ele><time>2026-04-10T14:04:46.608Z</time></trkpt><trkpt lat="42.4980749" lon="13.1857673"><ele>1047.0</ele><time>2026-04-10T14:04:47.6Z</time></trkpt><trkpt lat="42.4981376" lon="13.1856165"><ele>1047.0</ele><time>2026-04-10T14:04:48.596Z</time></trkpt><trkpt lat="42.498206" lon="13.1854462"><ele>1047.75</ele><time>2026-04-10T14:04:49.596Z</time></trkpt><trkpt lat="42.4982788" lon="13.1852763"><ele>1048.5</ele><time>2026-04-10T14:04:50.598Z</time></trkpt><trkpt lat="42.4983558" lon="13.1851163"><ele>1049.25</ele><time>2026-04-10T14:04:51.6Z</time></trkpt><trkpt lat="42.4984496" lon="13.1850155"><ele>1050.0</ele><time>2026-04-10T14:04:52.589Z</time></trkpt><trkpt lat="42.498556" lon="13.1849222"><ele>1054.25</ele><time>2026-04-10T14:04:53.601Z</time></trkpt><trkpt lat="42.4986721" lon="13.1848418"><ele>1058.5</ele><time>2026-04-10T14:04:54.609Z</time></trkpt><trkpt lat="42.4987702" lon="13.184737"><ele>1062.75</ele><time>2026-04-10T14:04:55.602Z</time></trkpt><trkpt lat="42.4988554" lon="13.1846193"><ele>1067.0</ele><time>2026-04-10T14:04:56.617Z</time></trkpt><trkpt lat="42.4989245" lon="13.1844795"><ele>1060.25</ele><time>2026-04-10T14:04:57.601Z</time></trkpt><trkpt lat="42.4989899" lon="13.1843488"><ele>1053.5</ele><time>2026-04-10T14:04:58.592Z</time></trkpt><trkpt lat="42.4990274" lon="13.1842153"><ele>1046.75</ele><time>2026-04-10T14:04:59.599Z</time></trkpt><trkpt lat="42.4990616" lon="13.1840729"><ele>1040.0</ele><time>2026-04-10T14:05:00.597Z</time></trkpt><trkpt lat="42.4990808" lon="13.1839103"><ele>1040.0</ele><time>2026-04-10T14:05:01.612Z</time></trkpt><trkpt lat="42.4991066" lon="13.1837456"><ele>1040.0</ele><time>2026-04-10T14:05:02.607Z</time></trkpt><trkpt lat="42.4991502" lon="13.1835793"><ele>1040.0</ele><time>2026-04-10T14:05:03.608Z</time></trkpt><trkpt lat="42.4992018" lon="13.1834041"><ele>1040.0</ele><time>2026-04-10T14:05:04.604Z</time></trkpt><trkpt lat="42.4992651" lon="13.1832212"><ele>1042.25</ele><time>2026-04-10T14:05:05.602Z</time></trkpt><trkpt lat="42.4993357" lon="13.1830464"><ele>1044.5</ele><time>2026-04-10T14:05:06.612Z</time></trkpt><trkpt lat="42.4993984" lon="13.1828699"><ele>1046.75</ele><time>2026-04-10T14:05:07.616Z</time></trkpt><trkpt lat="42.4994363" lon="13.1826746"><ele>1049.0</ele><time>2026-04-10T14:05:08.613Z</time></trkpt><trkpt lat="42.4994985" lon="13.1825136"><ele>1049.0</ele><time>2026-04-10T14:05:09.617Z</time></trkpt><trkpt lat="42.4995786" lon="13.1823545"><ele>1049.0</ele><time>2026-04-10T14:05:10.606Z</time></trkpt><trkpt lat="42.4996511" lon="13.1821786"><ele>1049.0</ele><time>2026-04-10T14:05:11.605Z</time></trkpt><trkpt lat="42.499755" lon="13.1820282"><ele>1049.0</ele><time>2026-04-10T14:05:12.602Z</time></trkpt><trkpt lat="42.4998693" lon="13.181914"><ele>1042.0</ele><time>2026-04-10T14:05:13.608Z</time></trkpt><trkpt lat="42.4999703" lon="13.1817788"><ele>1035.0</ele><time>2026-04-10T14:05:14.608Z</time></trkpt><trkpt lat="42.5000468" lon="13.1816191"><ele>1028.0</ele><time>2026-04-10T14:05:15.601Z</time></trkpt><trkpt lat="42.5000705" lon="13.1814249"><ele>1021.0</ele><time>2026-04-10T14:05:16.601Z</time></trkpt><trkpt lat="42.500092" lon="13.1812384"><ele>1020.0</ele><time>2026-04-10T14:05:17.616Z</time></trkpt><trkpt lat="42.5001015" lon="13.1810566"><ele>1019.0</ele><time>2026-04-10T14:05:18.613Z</time></trkpt><trkpt lat="42.50009" lon="13.1808786"><ele>1018.0</ele><time>2026-04-10T14:05:19.615Z</time></trkpt><trkpt lat="42.5000908" lon="13.1807174"><ele>1017.0</ele><time>2026-04-10T14:05:20.621Z</time></trkpt><trkpt lat="42.5000981" lon="13.1805593"><ele>1014.4000000000001</ele><time>2026-04-10T14:05:21.629Z</time></trkpt><trkpt lat="42.500111" lon="13.1803947"><ele>1011.8000000000001</ele><time>2026-04-10T14:05:22.629Z</time></trkpt><trkpt lat="42.5001253" lon="13.1802365"><ele>1009.2</ele><time>2026-04-10T14:05:23.633Z</time></trkpt><trkpt lat="42.5001372" lon="13.1800905"><ele>1006.6</ele><time>2026-04-10T14:05:24.617Z</time></trkpt><trkpt lat="42.5001568" lon="13.1799686"><ele>1004.0</ele><time>2026-04-10T14:05:25.613Z</time></trkpt><trkpt lat="42.5001832" lon="13.17987"><ele>1004.0</ele><time>2026-04-10T14:05:26.63Z</time></trkpt><trkpt lat="42.5002676" lon="13.1797893"><ele>1004.0</ele><time>2026-04-10T14:05:28.636Z</time></trkpt><trkpt lat="42.5003256" lon="13.1799566"><ele>1004.0</ele><time>2026-04-10T14:05:30.632Z</time></trkpt><trkpt lat="42.5002978" lon="13.1800996"><ele>1004.0</ele><time>2026-04-10T14:05:31.636Z</time></trkpt><trkpt lat="42.5002586" lon="13.1802718"><ele>1004.0</ele><time>2026-04-10T14:05:32.634Z</time></trkpt><trkpt lat="42.5002386" lon="13.1804645"><ele>1004.0</ele><time>2026-04-10T14:05:33.619Z</time></trkpt><trkpt lat="42.5002563" lon="13.180674"><ele>1004.0</ele><time>2026-04-10T14:05:34.626Z</time></trkpt><trkpt lat="42.5003001" lon="13.1808885"><ele>1008.3333333333334</ele><time>2026-04-10T14:05:35.62Z</time></trkpt><trkpt lat="42.5003812" lon="13.1811237"><ele>1012.6666666666667</ele><time>2026-04-10T14:05:36.625Z</time></trkpt><trkpt lat="42.5004536" lon="13.1813178"><ele>1017.0</ele><time>2026-04-10T14:05:37.688Z</time></trkpt><trkpt lat="42.5005227" lon="13.1814832"><ele>1012.8</ele><time>2026-04-10T14:05:38.692Z</time></trkpt><trkpt lat="42.5005989" lon="13.1816167"><ele>1008.6</ele><time>2026-04-10T14:05:39.696Z</time></trkpt><trkpt lat="42.5006835" lon="13.1817064"><ele>1004.3999999999999</ele><time>2026-04-10T14:05:40.682Z</time></trkpt><trkpt lat="42.5007796" lon="13.1817412"><ele>1000.1999999999999</ele><time>2026-04-10T14:05:41.682Z</time></trkpt><trkpt lat="42.5008943" lon="13.1817324"><ele>996.0</ele><time>2026-04-10T14:05:42.679Z</time></trkpt><trkpt lat="42.5010494" lon="13.1816449"><ele>996.0</ele><time>2026-04-10T14:05:43.685Z</time></trkpt><trkpt lat="42.5011678" lon="13.1815334"><ele>996.0</ele><time>2026-04-10T14:05:44.701Z</time></trkpt><trkpt lat="42.501287" lon="13.1813964"><ele>996.0</ele><time>2026-04-10T14:05:45.612Z</time></trkpt><trkpt lat="42.501409" lon="13.1812829"><ele>996.0</ele><time>2026-04-10T14:05:46.605Z</time></trkpt><trkpt lat="42.5015318" lon="13.1811616"><ele>993.3333333333333</ele><time>2026-04-10T14:05:47.607Z</time></trkpt><trkpt lat="42.5016692" lon="13.181035"><ele>990.6666666666666</ele><time>2026-04-10T14:05:48.594Z</time></trkpt><trkpt lat="42.5017891" lon="13.1809181"><ele>988.0</ele><time>2026-04-10T14:05:49.602Z</time></trkpt><trkpt lat="42.5019064" lon="13.1807869"><ele>988.3333333333333</ele><time>2026-04-10T14:05:50.609Z</time></trkpt><trkpt lat="42.5020156" lon="13.1806384"><ele>988.6666666666667</ele><time>2026-04-10T14:05:51.604Z</time></trkpt><trkpt lat="42.5021195" lon="13.1804869"><ele>989.0</ele><time>2026-04-10T14:05:52.604Z</time></trkpt><trkpt lat="42.5022118" lon="13.1803274"><ele>989.0</ele><time>2026-04-10T14:05:53.614Z</time></trkpt><trkpt lat="42.5022992" lon="13.180188"><ele>989.0</ele><time>2026-04-10T14:05:54.608Z</time></trkpt><trkpt lat="42.5023937" lon="13.1800519"><ele>989.0</ele><time>2026-04-10T14:05:55.61Z</time></trkpt><trkpt lat="42.5025003" lon="13.1799371"><ele>989.0</ele><time>2026-04-10T14:05:56.607Z</time></trkpt><trkpt lat="42.5026257" lon="13.1798335"><ele>987.5</ele><time>2026-04-10T14:05:57.612Z</time></trkpt><trkpt lat="42.5027584" lon="13.179735"><ele>986.0</ele><time>2026-04-10T14:05:58.621Z</time></trkpt><trkpt lat="42.5028778" lon="13.1796389"><ele>984.5</ele><time>2026-04-10T14:05:59.61Z</time></trkpt><trkpt lat="42.502999" lon="13.179548"><ele>983.0</ele><time>2026-04-10T14:06:00.616Z</time></trkpt><trkpt lat="42.5031347" lon="13.17946"><ele>983.0</ele><time>2026-04-10T14:06:01.609Z</time></trkpt><trkpt lat="42.5032595" lon="13.1793774"><ele>983.0</ele><time>2026-04-10T14:06:02.604Z</time></trkpt><trkpt lat="42.5033695" lon="13.1793072"><ele>983.0</ele><time>2026-04-10T14:06:03.6Z</time></trkpt><trkpt lat="42.5035158" lon="13.1792522"><ele>983.0</ele><time>2026-04-10T14:06:04.606Z</time></trkpt><trkpt lat="42.5036563" lon="13.1792043"><ele>981.0</ele><time>2026-04-10T14:06:05.605Z</time></trkpt><trkpt lat="42.5038139" lon="13.1791473"><ele>979.0</ele><time>2026-04-10T14:06:06.61Z</time></trkpt><trkpt lat="42.5039695" lon="13.1790837"><ele>977.0</ele><time>2026-04-10T14:06:07.614Z</time></trkpt><trkpt lat="42.5040952" lon="13.178995"><ele>977.0</ele><time>2026-04-10T14:06:08.61Z</time></trkpt><trkpt lat="42.5042378" lon="13.1788882"><ele>977.0</ele><time>2026-04-10T14:06:09.615Z</time></trkpt><trkpt lat="42.5043695" lon="13.1787608"><ele>977.0</ele><time>2026-04-10T14:06:10.614Z</time></trkpt><trkpt lat="42.5045091" lon="13.1786404"><ele>976.0</ele><time>2026-04-10T14:06:11.615Z</time></trkpt><trkpt lat="42.5046255" lon="13.1785181"><ele>975.0</ele><time>2026-04-10T14:06:12.615Z</time></trkpt><trkpt lat="42.5047517" lon="13.1783987"><ele>974.0</ele><time>2026-04-10T14:06:13.618Z</time></trkpt><trkpt lat="42.5048459" lon="13.1782746"><ele>973.0</ele><time>2026-04-10T14:06:14.616Z</time></trkpt><trkpt lat="42.5049373" lon="13.1781288"><ele>972.3333333333333</ele><time>2026-04-10T14:06:15.621Z</time></trkpt><trkpt lat="42.5050305" lon="13.177953"><ele>971.6666666666667</ele><time>2026-04-10T14:06:16.616Z</time></trkpt><trkpt lat="42.5051042" lon="13.1777572"><ele>971.0</ele><time>2026-04-10T14:06:17.622Z</time></trkpt><trkpt lat="42.5052084" lon="13.1775907"><ele>971.0</ele><time>2026-04-10T14:06:18.617Z</time></trkpt><trkpt lat="42.5053093" lon="13.1774325"><ele>971.0</ele><time>2026-04-10T14:06:19.622Z</time></trkpt><trkpt lat="42.5054132" lon="13.1772868"><ele>971.0</ele><time>2026-04-10T14:06:20.621Z</time></trkpt><trkpt lat="42.5055257" lon="13.177157"><ele>968.75</ele><time>2026-04-10T14:06:21.619Z</time></trkpt><trkpt lat="42.5056274" lon="13.1770277"><ele>966.5</ele><time>2026-04-10T14:06:22.617Z</time></trkpt><trkpt lat="42.5057001" lon="13.1768923"><ele>964.25</ele><time>2026-04-10T14:06:23.617Z</time></trkpt><trkpt lat="42.5057523" lon="13.1767323"><ele>962.0</ele><time>2026-04-10T14:06:24.628Z</time></trkpt><trkpt lat="42.5057439" lon="13.1765702"><ele>961.25</ele><time>2026-04-10T14:06:25.625Z</time></trkpt><trkpt lat="42.5056572" lon="13.1764296"><ele>960.5</ele><time>2026-04-10T14:06:26.622Z</time></trkpt><trkpt lat="42.5056084" lon="13.1762944"><ele>959.75</ele><time>2026-04-10T14:06:27.622Z</time></trkpt><trkpt lat="42.505546" lon="13.1761477"><ele>959.0</ele><time>2026-04-10T14:06:28.621Z</time></trkpt><trkpt lat="42.5055211" lon="13.1760097"><ele>959.0</ele><time>2026-04-10T14:06:29.62Z</time></trkpt><trkpt lat="42.5055409" lon="13.1758808"><ele>959.0000000000001</ele><time>2026-04-10T14:06:30.607Z</time></trkpt><trkpt lat="42.5055733" lon="13.1757841"><ele>959.0000000000001</ele><time>2026-04-10T14:06:31.624Z</time></trkpt><trkpt lat="42.505674" lon="13.1758103"><ele>959.0</ele><time>2026-04-10T14:06:33.607Z</time></trkpt><trkpt lat="42.505737" lon="13.1759061"><ele>959.0</ele><time>2026-04-10T14:06:34.613Z</time></trkpt><trkpt lat="42.505811" lon="13.1760482"><ele>959.0</ele><time>2026-04-10T14:06:35.609Z</time></trkpt><trkpt lat="42.5058893" lon="13.1761881"><ele>959.0</ele><time>2026-04-10T14:06:36.608Z</time></trkpt><trkpt lat="42.505968" lon="13.1763436"><ele>959.0</ele><time>2026-04-10T14:06:37.601Z</time></trkpt><trkpt lat="42.5060529" lon="13.1765027"><ele>959.0</ele><time>2026-04-10T14:06:38.604Z</time></trkpt><trkpt lat="42.5061642" lon="13.176649"><ele>955.6666666666667</ele><time>2026-04-10T14:06:39.609Z</time></trkpt><trkpt lat="42.5062952" lon="13.1767937"><ele>952.3333333333333</ele><time>2026-04-10T14:06:40.608Z</time></trkpt><trkpt lat="42.5064747" lon="13.1769803"><ele>949.0</ele><time>2026-04-10T14:06:41.616Z</time></trkpt><trkpt lat="42.5065956" lon="13.1771018"><ele>949.0</ele><time>2026-04-10T14:06:42.614Z</time></trkpt><trkpt lat="42.5066705" lon="13.1772045"><ele>949.0000000000001</ele><time>2026-04-10T14:06:43.611Z</time></trkpt><trkpt lat="42.5067256" lon="13.1773314"><ele>949.0000000000001</ele><time>2026-04-10T14:06:44.614Z</time></trkpt><trkpt lat="42.5067439" lon="13.1774691"><ele>949.0</ele><time>2026-04-10T14:06:45.612Z</time></trkpt><trkpt lat="42.5066888" lon="13.1776098"><ele>949.0</ele><time>2026-04-10T14:06:46.609Z</time></trkpt><trkpt lat="42.5065957" lon="13.1777439"><ele>949.6</ele><time>2026-04-10T14:06:47.603Z</time></trkpt><trkpt lat="42.5065058" lon="13.1778584"><ele>950.2</ele><time>2026-04-10T14:06:48.597Z</time></trkpt><trkpt lat="42.5064001" lon="13.1779293"><ele>950.8000000000001</ele><time>2026-04-10T14:06:49.592Z</time></trkpt><trkpt lat="42.506292" lon="13.1779659"><ele>951.4000000000001</ele><time>2026-04-10T14:06:50.582Z</time></trkpt><trkpt lat="42.5062094" lon="13.1780147"><ele>952.0</ele><time>2026-04-10T14:06:51.587Z</time></trkpt><trkpt lat="42.5061509" lon="13.1780872"><ele>951.2</ele><time>2026-04-10T14:06:52.601Z</time></trkpt><trkpt lat="42.5061221" lon="13.1781837"><ele>950.4000000000001</ele><time>2026-04-10T14:06:53.587Z</time></trkpt><trkpt lat="42.5061403" lon="13.1782855"><ele>949.5999999999999</ele><time>2026-04-10T14:06:54.581Z</time></trkpt><trkpt lat="42.5061833" lon="13.1783885"><ele>948.8</ele><time>2026-04-10T14:06:55.595Z</time></trkpt><trkpt lat="42.5062669" lon="13.1784843"><ele>948.0</ele><time>2026-04-10T14:06:56.581Z</time></trkpt><trkpt lat="42.5063663" lon="13.1785694"><ele>948.0</ele><time>2026-04-10T14:06:57.576Z</time></trkpt><trkpt lat="42.5064823" lon="13.178636"><ele>948.0</ele><time>2026-04-10T14:06:58.583Z</time></trkpt><trkpt lat="42.5066412" lon="13.1786741"><ele>948.0</ele><time>2026-04-10T14:06:59.583Z</time></trkpt><trkpt lat="42.5067921" lon="13.1787441"><ele>948.0</ele><time>2026-04-10T14:07:00.601Z</time></trkpt><trkpt lat="42.5069377" lon="13.1788127"><ele>948.0</ele><time>2026-04-10T14:07:01.589Z</time></trkpt><trkpt lat="42.5070703" lon="13.1788589"><ele>948.0</ele><time>2026-04-10T14:07:02.598Z</time></trkpt><trkpt lat="42.5072258" lon="13.1788281"><ele>948.0</ele><time>2026-04-10T14:07:03.586Z</time></trkpt><trkpt lat="42.5073961" lon="13.1787559"><ele>942.0</ele><time>2026-04-10T14:07:04.598Z</time></trkpt><trkpt lat="42.5075616" lon="13.1786368"><ele>936.0</ele><time>2026-04-10T14:07:05.599Z</time></trkpt><trkpt lat="42.5077418" lon="13.1784685"><ele>930.0</ele><time>2026-04-10T14:07:06.593Z</time></trkpt><trkpt lat="42.5079134" lon="13.1783419"><ele>929.3333333333333</ele><time>2026-04-10T14:07:07.601Z</time></trkpt><trkpt lat="42.5080636" lon="13.1782519"><ele>928.6666666666666</ele><time>2026-04-10T14:07:08.601Z</time></trkpt><trkpt lat="42.5082254" lon="13.17819"><ele>928.0</ele><time>2026-04-10T14:07:09.61Z</time></trkpt><trkpt lat="42.5083938" lon="13.1781679"><ele>922.3333333333333</ele><time>2026-04-10T14:07:10.601Z</time></trkpt><trkpt lat="42.5085328" lon="13.1781535"><ele>916.6666666666667</ele><time>2026-04-10T14:07:11.613Z</time></trkpt><trkpt lat="42.5087104" lon="13.1781718"><ele>911.0</ele><time>2026-04-10T14:07:12.604Z</time></trkpt><trkpt lat="42.5088877" lon="13.1781781"><ele>912.25</ele><time>2026-04-10T14:07:13.614Z</time></trkpt><trkpt lat="42.509038" lon="13.1781679"><ele>913.5</ele><time>2026-04-10T14:07:14.624Z</time></trkpt><trkpt lat="42.5091706" lon="13.1781722"><ele>914.75</ele><time>2026-04-10T14:07:15.619Z</time></trkpt><trkpt lat="42.5093081" lon="13.1782142"><ele>916.0</ele><time>2026-04-10T14:07:16.618Z</time></trkpt><trkpt lat="42.5094391" lon="13.1782931"><ele>916.0</ele><time>2026-04-10T14:07:17.617Z</time></trkpt><trkpt lat="42.5095527" lon="13.1783901"><ele>916.0</ele><time>2026-04-10T14:07:18.615Z</time></trkpt><trkpt lat="42.5096452" lon="13.178492"><ele>916.0</ele><time>2026-04-10T14:07:19.628Z</time></trkpt><trkpt lat="42.5096696" lon="13.1786151"><ele>916.0</ele><time>2026-04-10T14:07:20.626Z</time></trkpt><trkpt lat="42.5096474" lon="13.1787721"><ele>916.5</ele><time>2026-04-10T14:07:21.619Z</time></trkpt><trkpt lat="42.5096057" lon="13.178926"><ele>917.0</ele><time>2026-04-10T14:07:22.609Z</time></trkpt><trkpt lat="42.5095488" lon="13.1790922"><ele>917.5</ele><time>2026-04-10T14:07:23.616Z</time></trkpt><trkpt lat="42.5094823" lon="13.1792515"><ele>918.0</ele><time>2026-04-10T14:07:24.603Z</time></trkpt><trkpt lat="42.5094164" lon="13.1793987"><ele>918.0</ele><time>2026-04-10T14:07:25.61Z</time></trkpt><trkpt lat="42.5093193" lon="13.1795232"><ele>918.0</ele><time>2026-04-10T14:07:26.605Z</time></trkpt><trkpt lat="42.5092116" lon="13.1796389"><ele>918.0</ele><time>2026-04-10T14:07:27.603Z</time></trkpt><trkpt lat="42.5091181" lon="13.1797966"><ele>918.0</ele><time>2026-04-10T14:07:28.594Z</time></trkpt><trkpt lat="42.5090486" lon="13.1800146"><ele>911.3333333333333</ele><time>2026-04-10T14:07:29.599Z</time></trkpt><trkpt lat="42.5090017" lon="13.1802471"><ele>904.6666666666666</ele><time>2026-04-10T14:07:30.597Z</time></trkpt><trkpt lat="42.5089519" lon="13.1804752"><ele>898.0</ele><time>2026-04-10T14:07:31.616Z</time></trkpt><trkpt lat="42.5089297" lon="13.1806695"><ele>900.25</ele><time>2026-04-10T14:07:32.601Z</time></trkpt><trkpt lat="42.5089196" lon="13.18082"><ele>902.5</ele><time>2026-04-10T14:07:33.609Z</time></trkpt><trkpt lat="42.5088491" lon="13.1809954"><ele>904.75</ele><time>2026-04-10T14:07:34.615Z</time></trkpt><trkpt lat="42.5087364" lon="13.1811542"><ele>907.0</ele><time>2026-04-10T14:07:35.598Z</time></trkpt><trkpt lat="42.5086277" lon="13.1813239"><ele>902.3333333333333</ele><time>2026-04-10T14:07:36.607Z</time></trkpt><trkpt lat="42.508537" lon="13.1815334"><ele>897.6666666666667</ele><time>2026-04-10T14:07:37.599Z</time></trkpt><trkpt lat="42.5084633" lon="13.181746"><ele>893.0</ele><time>2026-04-10T14:07:38.588Z</time></trkpt><trkpt lat="42.5083645" lon="13.1819158"><ele>893.0</ele><time>2026-04-10T14:07:39.596Z</time></trkpt><trkpt lat="42.5082795" lon="13.1820745"><ele>893.0</ele><time>2026-04-10T14:07:40.594Z</time></trkpt><trkpt lat="42.5081976" lon="13.1821758"><ele>893.0</ele><time>2026-04-10T14:07:41.596Z</time></trkpt><trkpt lat="42.5080969" lon="13.182235"><ele>893.0</ele><time>2026-04-10T14:07:42.59Z</time></trkpt><trkpt lat="42.5079781" lon="13.1822444"><ele>891.8</ele><time>2026-04-10T14:07:43.587Z</time></trkpt><trkpt lat="42.5078517" lon="13.1822399"><ele>890.5999999999999</ele><time>2026-04-10T14:07:44.607Z</time></trkpt><trkpt lat="42.5077372" lon="13.1822505"><ele>889.4000000000001</ele><time>2026-04-10T14:07:45.594Z</time></trkpt><trkpt lat="42.5076658" lon="13.1822652"><ele>888.2</ele><time>2026-04-10T14:07:46.589Z</time></trkpt><trkpt lat="42.5076528" lon="13.1824234"><ele>887.0</ele><time>2026-04-10T14:07:48.593Z</time></trkpt><trkpt lat="42.5076994" lon="13.1825019"><ele>887.0</ele><time>2026-04-10T14:07:49.598Z</time></trkpt><trkpt lat="42.507769" lon="13.1825503"><ele>887.0</ele><time>2026-04-10T14:07:50.59Z</time></trkpt><trkpt lat="42.5078568" lon="13.1826043"><ele>887.0</ele><time>2026-04-10T14:07:51.591Z</time></trkpt><trkpt lat="42.5079689" lon="13.1826631"><ele>887.0</ele><time>2026-04-10T14:07:52.61Z</time></trkpt><trkpt lat="42.5080779" lon="13.1827206"><ele>887.0</ele><time>2026-04-10T14:07:53.602Z</time></trkpt><trkpt lat="42.5081987" lon="13.182741"><ele>884.75</ele><time>2026-04-10T14:07:54.596Z</time></trkpt><trkpt lat="42.5083128" lon="13.1827378"><ele>882.5</ele><time>2026-04-10T14:07:55.598Z</time></trkpt><trkpt lat="42.508433" lon="13.1826549"><ele>880.25</ele><time>2026-04-10T14:07:56.61Z</time></trkpt><trkpt lat="42.508565" lon="13.1825608"><ele>878.0</ele><time>2026-04-10T14:07:57.587Z</time></trkpt><trkpt lat="42.5087194" lon="13.1824749"><ele>877.0</ele><time>2026-04-10T14:07:58.595Z</time></trkpt><trkpt lat="42.5088764" lon="13.1823956"><ele>876.0</ele><time>2026-04-10T14:07:59.597Z</time></trkpt><trkpt lat="42.5090169" lon="13.1822818"><ele>875.0</ele><time>2026-04-10T14:08:00.597Z</time></trkpt><trkpt lat="42.5091396" lon="13.1821598"><ele>875.0</ele><time>2026-04-10T14:08:01.594Z</time></trkpt><trkpt lat="42.5092614" lon="13.1820029"><ele>875.0</ele><time>2026-04-10T14:08:02.604Z</time></trkpt><trkpt lat="42.5093705" lon="13.1818405"><ele>875.0</ele><time>2026-04-10T14:08:03.592Z</time></trkpt><trkpt lat="42.5094538" lon="13.1816659"><ele>873.0</ele><time>2026-04-10T14:08:04.605Z</time></trkpt><trkpt lat="42.5095441" lon="13.1815148"><ele>871.0</ele><time>2026-04-10T14:08:05.606Z</time></trkpt><trkpt lat="42.5096578" lon="13.1813864"><ele>869.0</ele><time>2026-04-10T14:08:06.608Z</time></trkpt><trkpt lat="42.509772" lon="13.1812759"><ele>867.0</ele><time>2026-04-10T14:08:07.611Z</time></trkpt><trkpt lat="42.5099133" lon="13.1812175"><ele>867.0</ele><time>2026-04-10T14:08:08.612Z</time></trkpt><trkpt lat="42.5100692" lon="13.1811595"><ele>867.0</ele><time>2026-04-10T14:08:09.605Z</time></trkpt><trkpt lat="42.5102002" lon="13.1810386"><ele>867.0</ele><time>2026-04-10T14:08:10.597Z</time></trkpt><trkpt lat="42.5103161" lon="13.1808718"><ele>865.3333333333333</ele><time>2026-04-10T14:08:11.604Z</time></trkpt><trkpt lat="42.5104339" lon="13.1806976"><ele>863.6666666666666</ele><time>2026-04-10T14:08:12.603Z</time></trkpt><trkpt lat="42.510573" lon="13.1805991"><ele>862.0</ele><time>2026-04-10T14:08:13.606Z</time></trkpt><trkpt lat="42.5107201" lon="13.180533"><ele>862.0</ele><time>2026-04-10T14:08:14.61Z</time></trkpt><trkpt lat="42.5108443" lon="13.1805061"><ele>862.0</ele><time>2026-04-10T14:08:15.608Z</time></trkpt><trkpt lat="42.5109973" lon="13.1804892"><ele>862.0</ele><time>2026-04-10T14:08:16.607Z</time></trkpt><trkpt lat="42.5111654" lon="13.1805393"><ele>859.6666666666666</ele><time>2026-04-10T14:08:17.603Z</time></trkpt><trkpt lat="42.5113365" lon="13.1806338"><ele>857.3333333333333</ele><time>2026-04-10T14:08:18.601Z</time></trkpt><trkpt lat="42.5114964" lon="13.1807293"><ele>855.0</ele><time>2026-04-10T14:08:19.602Z</time></trkpt><trkpt lat="42.511637" lon="13.1807635"><ele>855.0</ele><time>2026-04-10T14:08:20.604Z</time></trkpt><trkpt lat="42.5117554" lon="13.1807295"><ele>855.0</ele><time>2026-04-10T14:08:21.597Z</time></trkpt><trkpt lat="42.5118894" lon="13.1806878"><ele>855.0</ele><time>2026-04-10T14:08:22.596Z</time></trkpt><trkpt lat="42.5120154" lon="13.1805854"><ele>855.0</ele><time>2026-04-10T14:08:23.603Z</time></trkpt><trkpt lat="42.5121251" lon="13.1804209"><ele>848.3333333333333</ele><time>2026-04-10T14:08:24.593Z</time></trkpt><trkpt lat="42.512189" lon="13.1802253"><ele>841.6666666666666</ele><time>2026-04-10T14:08:25.591Z</time></trkpt><trkpt lat="42.5122277" lon="13.1799783"><ele>835.0</ele><time>2026-04-10T14:08:26.582Z</time></trkpt><trkpt lat="42.5122981" lon="13.1797218"><ele>834.3333333333333</ele><time>2026-04-10T14:08:27.592Z</time></trkpt><trkpt lat="42.5123382" lon="13.1794467"><ele>833.6666666666667</ele><time>2026-04-10T14:08:28.581Z</time></trkpt><trkpt lat="42.5124109" lon="13.1792056"><ele>833.0</ele><time>2026-04-10T14:08:29.591Z</time></trkpt><trkpt lat="42.5124301" lon="13.1789252"><ele>832.6666666666667</ele><time>2026-04-10T14:08:30.586Z</time></trkpt><trkpt lat="42.5124581" lon="13.1787042"><ele>832.3333333333333</ele><time>2026-04-10T14:08:31.59Z</time></trkpt><trkpt lat="42.5125249" lon="13.1785216"><ele>832.0</ele><time>2026-04-10T14:08:32.593Z</time></trkpt><trkpt lat="42.5126376" lon="13.1783927"><ele>832.0</ele><time>2026-04-10T14:08:33.614Z</time></trkpt><trkpt lat="42.512722" lon="13.1782917"><ele>832.0</ele><time>2026-04-10T14:08:34.583Z</time></trkpt><trkpt lat="42.5128372" lon="13.1782119"><ele>832.0</ele><time>2026-04-10T14:08:35.585Z</time></trkpt><trkpt lat="42.5129507" lon="13.178099"><ele>832.0</ele><time>2026-04-10T14:08:36.599Z</time></trkpt><trkpt lat="42.513087" lon="13.1779787"><ele>829.6666666666666</ele><time>2026-04-10T14:08:37.598Z</time></trkpt><trkpt lat="42.5131883" lon="13.177802"><ele>827.3333333333333</ele><time>2026-04-10T14:08:38.593Z</time></trkpt><trkpt lat="42.5132919" lon="13.1776253"><ele>825.0</ele><time>2026-04-10T14:08:39.595Z</time></trkpt><trkpt lat="42.513399" lon="13.1774198"><ele>822.6666666666667</ele><time>2026-04-10T14:08:40.603Z</time></trkpt><trkpt lat="42.5135026" lon="13.1772245"><ele>820.3333333333334</ele><time>2026-04-10T14:08:41.608Z</time></trkpt><trkpt lat="42.5135902" lon="13.1770303"><ele>818.0</ele><time>2026-04-10T14:08:42.674Z</time></trkpt><trkpt lat="42.5136818" lon="13.1768438"><ele>817.0</ele><time>2026-04-10T14:08:43.679Z</time></trkpt><trkpt lat="42.5137814" lon="13.1766599"><ele>816.0</ele><time>2026-04-10T14:08:44.686Z</time></trkpt><trkpt lat="42.5138929" lon="13.1764873"><ele>815.0</ele><time>2026-04-10T14:08:45.676Z</time></trkpt><trkpt lat="42.5140095" lon="13.1763358"><ele>815.0</ele><time>2026-04-10T14:08:46.678Z</time></trkpt><trkpt lat="42.5141352" lon="13.1762275"><ele>815.0</ele><time>2026-04-10T14:08:47.668Z</time></trkpt><trkpt lat="42.5142641" lon="13.1761671"><ele>815.0</ele><time>2026-04-10T14:08:48.658Z</time></trkpt><trkpt lat="42.5143879" lon="13.1761492"><ele>815.0</ele><time>2026-04-10T14:08:49.668Z</time></trkpt><trkpt lat="42.5144945" lon="13.1761201"><ele>815.6</ele><time>2026-04-10T14:08:50.666Z</time></trkpt><trkpt lat="42.5145967" lon="13.1760767"><ele>816.2</ele><time>2026-04-10T14:08:51.669Z</time></trkpt><trkpt lat="42.5146984" lon="13.1760099"><ele>816.8</ele><time>2026-04-10T14:08:52.67Z</time></trkpt><trkpt lat="42.514777" lon="13.1759367"><ele>817.4</ele><time>2026-04-10T14:08:53.659Z</time></trkpt><trkpt lat="42.5148529" lon="13.1758538"><ele>818.0</ele><time>2026-04-10T14:08:54.65Z</time></trkpt><trkpt lat="42.5149286" lon="13.1757739"><ele>818.0</ele><time>2026-04-10T14:08:55.649Z</time></trkpt><trkpt lat="42.5149762" lon="13.1757064"><ele>818.0</ele><time>2026-04-10T14:08:56.652Z</time></trkpt><trkpt lat="42.5150584" lon="13.1755983"><ele>818.0</ele><time>2026-04-10T14:08:57.664Z</time></trkpt><trkpt lat="42.5151212" lon="13.1754972"><ele>818.0</ele><time>2026-04-10T14:08:58.672Z</time></trkpt><trkpt lat="42.5153202" lon="13.1751996"><ele>819.5</ele><time>2026-04-10T14:08:59.581Z</time></trkpt><trkpt lat="42.5152856" lon="13.1750776"><ele>821.0</ele><time>2026-04-10T14:09:01.585Z</time></trkpt><trkpt lat="42.5151401" lon="13.1751035"><ele>822.5</ele><time>2026-04-10T14:09:03.6Z</time></trkpt><trkpt lat="42.5150471" lon="13.1751621"><ele>824.0</ele><time>2026-04-10T14:09:04.586Z</time></trkpt><trkpt lat="42.5149359" lon="13.1752427"><ele>824.0</ele><time>2026-04-10T14:09:05.587Z</time></trkpt><trkpt lat="42.5148102" lon="13.1753186"><ele>824.0</ele><time>2026-04-10T14:09:06.582Z</time></trkpt><trkpt lat="42.5146744" lon="13.175395"><ele>824.0</ele><time>2026-04-10T14:09:07.587Z</time></trkpt><trkpt lat="42.5145326" lon="13.1754407"><ele>824.0</ele><time>2026-04-10T14:09:08.581Z</time></trkpt><trkpt lat="42.5143994" lon="13.1754355"><ele>822.0</ele><time>2026-04-10T14:09:09.582Z</time></trkpt><trkpt lat="42.514264" lon="13.1753802"><ele>820.0</ele><time>2026-04-10T14:09:10.59Z</time></trkpt><trkpt lat="42.5141758" lon="13.175271"><ele>818.0</ele><time>2026-04-10T14:09:11.593Z</time></trkpt><trkpt lat="42.5141409" lon="13.1751091"><ele>816.0</ele><time>2026-04-10T14:09:12.597Z</time></trkpt><trkpt lat="42.5141312" lon="13.1749345"><ele>816.0</ele><time>2026-04-10T14:09:13.587Z</time></trkpt><trkpt lat="42.5141366" lon="13.1747563"><ele>816.0</ele><time>2026-04-10T14:09:14.587Z</time></trkpt><trkpt lat="42.514138" lon="13.174558"><ele>816.0</ele><time>2026-04-10T14:09:15.574Z</time></trkpt><trkpt lat="42.5141393" lon="13.174313"><ele>816.0</ele><time>2026-04-10T14:09:16.587Z</time></trkpt><trkpt lat="42.5141133" lon="13.1740931"><ele>816.0</ele><time>2026-04-10T14:09:17.59Z</time></trkpt><trkpt lat="42.5140976" lon="13.1739207"><ele>816.0</ele><time>2026-04-10T14:09:18.582Z</time></trkpt><trkpt lat="42.5140445" lon="13.1737691"><ele>816.0</ele><time>2026-04-10T14:09:19.598Z</time></trkpt><trkpt lat="42.5139473" lon="13.1736261"><ele>816.5</ele><time>2026-04-10T14:09:20.583Z</time></trkpt><trkpt lat="42.5138339" lon="13.1735125"><ele>817.0</ele><time>2026-04-10T14:09:21.595Z</time></trkpt><trkpt lat="42.5137192" lon="13.1734336"><ele>817.5</ele><time>2026-04-10T14:09:22.587Z</time></trkpt><trkpt lat="42.513593" lon="13.1733772"><ele>818.0</ele><time>2026-04-10T14:09:23.593Z</time></trkpt><trkpt lat="42.513461" lon="13.1733772"><ele>818.0</ele><time>2026-04-10T14:09:24.596Z</time></trkpt><trkpt lat="42.5133578" lon="13.1734139"><ele>818.0</ele><time>2026-04-10T14:09:25.591Z</time></trkpt><trkpt lat="42.5132494" lon="13.1734521"><ele>818.0</ele><time>2026-04-10T14:09:26.591Z</time></trkpt><trkpt lat="42.5131558" lon="13.1734993"><ele>818.0</ele><time>2026-04-10T14:09:27.596Z</time></trkpt><trkpt lat="42.5130659" lon="13.1735628"><ele>818.0</ele><time>2026-04-10T14:09:28.593Z</time></trkpt><trkpt lat="42.5129739" lon="13.1735582"><ele>817.0</ele><time>2026-04-10T14:09:29.613Z</time></trkpt><trkpt lat="42.5128895" lon="13.1735064"><ele>816.0</ele><time>2026-04-10T14:09:30.595Z</time></trkpt><trkpt lat="42.5128239" lon="13.173399"><ele>815.0</ele><time>2026-04-10T14:09:31.602Z</time></trkpt><trkpt lat="42.5127921" lon="13.1732541"><ele>814.0</ele><time>2026-04-10T14:09:32.595Z</time></trkpt><trkpt lat="42.5128112" lon="13.1730553"><ele>814.0</ele><time>2026-04-10T14:09:33.597Z</time></trkpt><trkpt lat="42.5128424" lon="13.1728465"><ele>814.0</ele><time>2026-04-10T14:09:34.594Z</time></trkpt><trkpt lat="42.5128792" lon="13.1726207"><ele>814.0</ele><time>2026-04-10T14:09:35.588Z</time></trkpt><trkpt lat="42.5129715" lon="13.1723284"><ele>814.0</ele><time>2026-04-10T14:09:36.592Z</time></trkpt><trkpt lat="42.5130549" lon="13.172101"><ele>814.0</ele><time>2026-04-10T14:09:37.594Z</time></trkpt><trkpt lat="42.5130993" lon="13.1718817"><ele>814.0</ele><time>2026-04-10T14:09:38.593Z</time></trkpt><trkpt lat="42.5131568" lon="13.1716708"><ele>815.3333333333333</ele><time>2026-04-10T14:09:39.592Z</time></trkpt><trkpt lat="42.51323" lon="13.1714524"><ele>816.6666666666667</ele><time>2026-04-10T14:09:40.597Z</time></trkpt><trkpt lat="42.5132831" lon="13.1712354"><ele>818.0</ele><time>2026-04-10T14:09:41.587Z</time></trkpt><trkpt lat="42.5132845" lon="13.1710334"><ele>818.0</ele><time>2026-04-10T14:09:42.595Z</time></trkpt><trkpt lat="42.5132625" lon="13.1708671"><ele>818.0</ele><time>2026-04-10T14:09:43.593Z</time></trkpt><trkpt lat="42.5131489" lon="13.1706611"><ele>818.0</ele><time>2026-04-10T14:09:44.592Z</time></trkpt><trkpt lat="42.5130609" lon="13.1704513"><ele>820.0</ele><time>2026-04-10T14:09:45.586Z</time></trkpt><trkpt lat="42.5130106" lon="13.1702282"><ele>822.0</ele><time>2026-04-10T14:09:46.581Z</time></trkpt><trkpt lat="42.5129996" lon="13.170009"><ele>824.0</ele><time>2026-04-10T14:09:47.596Z</time></trkpt><trkpt lat="42.5130362" lon="13.1697663"><ele>826.6666666666667</ele><time>2026-04-10T14:09:48.585Z</time></trkpt><trkpt lat="42.5130523" lon="13.1695532"><ele>829.3333333333333</ele><time>2026-04-10T14:09:49.585Z</time></trkpt><trkpt lat="42.5130542" lon="13.1693426"><ele>832.0</ele><time>2026-04-10T14:09:50.59Z</time></trkpt><trkpt lat="42.5130036" lon="13.1691347"><ele>828.0</ele><time>2026-04-10T14:09:51.587Z</time></trkpt><trkpt lat="42.5128882" lon="13.1689349"><ele>824.0</ele><time>2026-04-10T14:09:52.594Z</time></trkpt><trkpt lat="42.5127648" lon="13.168781"><ele>820.0</ele><time>2026-04-10T14:09:53.586Z</time></trkpt><trkpt lat="42.5126045" lon="13.168635"><ele>820.0</ele><time>2026-04-10T14:09:54.584Z</time></trkpt><trkpt lat="42.5124145" lon="13.1685091"><ele>820.0</ele><time>2026-04-10T14:09:55.58Z</time></trkpt><trkpt lat="42.5122114" lon="13.1684665"><ele>820.0</ele><time>2026-04-10T14:09:56.58Z</time></trkpt><trkpt lat="42.5120821" lon="13.1683874"><ele>819.25</ele><time>2026-04-10T14:09:57.583Z</time></trkpt><trkpt lat="42.5120138" lon="13.1683045"><ele>818.5</ele><time>2026-04-10T14:09:58.589Z</time></trkpt><trkpt lat="42.5120065" lon="13.1681674"><ele>817.75</ele><time>2026-04-10T14:09:59.58Z</time></trkpt><trkpt lat="42.5120402" lon="13.1679865"><ele>817.0</ele><time>2026-04-10T14:10:00.6Z</time></trkpt><trkpt lat="42.5121257" lon="13.1678079"><ele>817.0</ele><time>2026-04-10T14:10:01.589Z</time></trkpt><trkpt lat="42.5122112" lon="13.1676356"><ele>817.0</ele><time>2026-04-10T14:10:02.59Z</time></trkpt><trkpt lat="42.5122716" lon="13.1674568"><ele>817.0</ele><time>2026-04-10T14:10:03.59Z</time></trkpt><trkpt lat="42.5123286" lon="13.1672635"><ele>812.0</ele><time>2026-04-10T14:10:04.581Z</time></trkpt><trkpt lat="42.5124086" lon="13.1670393"><ele>807.0</ele><time>2026-04-10T14:10:05.59Z</time></trkpt><trkpt lat="42.5125235" lon="13.1668994"><ele>802.0</ele><time>2026-04-10T14:10:06.568Z</time></trkpt><trkpt lat="42.5126637" lon="13.1668065"><ele>802.0</ele><time>2026-04-10T14:10:07.566Z</time></trkpt><trkpt lat="42.5128201" lon="13.1667624"><ele>802.0</ele><time>2026-04-10T14:10:08.567Z</time></trkpt><trkpt lat="42.5130054" lon="13.1667491"><ele>802.0</ele><time>2026-04-10T14:10:09.571Z</time></trkpt><trkpt lat="42.5131447" lon="13.1667445"><ele>803.4000000000001</ele><time>2026-04-10T14:10:10.57Z</time></trkpt><trkpt lat="42.5132779" lon="13.1667946"><ele>804.8000000000001</ele><time>2026-04-10T14:10:11.559Z</time></trkpt><trkpt lat="42.5133617" lon="13.1667814"><ele>806.2</ele><time>2026-04-10T14:10:12.562Z</time></trkpt><trkpt lat="42.5134475" lon="13.1667149"><ele>807.6</ele><time>2026-04-10T14:10:13.562Z</time></trkpt><trkpt lat="42.5134887" lon="13.1665547"><ele>809.0</ele><time>2026-04-10T14:10:14.565Z</time></trkpt><trkpt lat="42.5134647" lon="13.166435"><ele>809.0</ele><time>2026-04-10T14:10:15.559Z</time></trkpt><trkpt lat="42.513373" lon="13.1662666"><ele>809.0</ele><time>2026-04-10T14:10:16.571Z</time></trkpt><trkpt lat="42.513309" lon="13.1660719"><ele>809.0</ele><time>2026-04-10T14:10:17.572Z</time></trkpt><trkpt lat="42.5133167" lon="13.1658619"><ele>811.6666666666667</ele><time>2026-04-10T14:10:18.579Z</time></trkpt><trkpt lat="42.5133022" lon="13.1656252"><ele>814.3333333333333</ele><time>2026-04-10T14:10:19.581Z</time></trkpt><trkpt lat="42.5132685" lon="13.1654158"><ele>817.0</ele><time>2026-04-10T14:10:20.583Z</time></trkpt><trkpt lat="42.5131963" lon="13.1651885"><ele>817.0</ele><time>2026-04-10T14:10:21.586Z</time></trkpt><trkpt lat="42.5131039" lon="13.1649312"><ele>817.0</ele><time>2026-04-10T14:10:22.591Z</time></trkpt><trkpt lat="42.5130271" lon="13.1646891"><ele>817.0</ele><time>2026-04-10T14:10:23.583Z</time></trkpt><trkpt lat="42.5129197" lon="13.1644638"><ele>818.0</ele><time>2026-04-10T14:10:24.58Z</time></trkpt><trkpt lat="42.512803" lon="13.1642512"><ele>819.0</ele><time>2026-04-10T14:10:25.579Z</time></trkpt><trkpt lat="42.5126863" lon="13.1640719"><ele>820.0</ele><time>2026-04-10T14:10:26.571Z</time></trkpt><trkpt lat="42.5125458" lon="13.1639296"><ele>820.0</ele><time>2026-04-10T14:10:27.58Z</time></trkpt><trkpt lat="42.5124242" lon="13.1637593"><ele>820.0</ele><time>2026-04-10T14:10:28.575Z</time></trkpt><trkpt lat="42.5123002" lon="13.1636056"><ele>820.0</ele><time>2026-04-10T14:10:29.578Z</time></trkpt><trkpt lat="42.5121642" lon="13.1635101"><ele>816.3333333333333</ele><time>2026-04-10T14:10:30.586Z</time></trkpt><trkpt lat="42.5119614" lon="13.1634533"><ele>812.6666666666667</ele><time>2026-04-10T14:10:31.589Z</time></trkpt><trkpt lat="42.5117767" lon="13.1634048"><ele>809.0</ele><time>2026-04-10T14:10:32.583Z</time></trkpt><trkpt lat="42.5116164" lon="13.1633722"><ele>809.0</ele><time>2026-04-10T14:10:33.583Z</time></trkpt><trkpt lat="42.5114794" lon="13.1633034"><ele>809.0</ele><time>2026-04-10T14:10:34.583Z</time></trkpt><trkpt lat="42.5113416" lon="13.163327"><ele>809.0</ele><time>2026-04-10T14:10:35.584Z</time></trkpt><trkpt lat="42.5112016" lon="13.163408"><ele>809.0</ele><time>2026-04-10T14:10:36.588Z</time></trkpt><trkpt lat="42.5110897" lon="13.1633736"><ele>805.0</ele><time>2026-04-10T14:10:37.576Z</time></trkpt><trkpt lat="42.5110089" lon="13.1632996"><ele>801.0</ele><time>2026-04-10T14:10:38.591Z</time></trkpt><trkpt lat="42.5109573" lon="13.1631571"><ele>797.0</ele><time>2026-04-10T14:10:39.592Z</time></trkpt><trkpt lat="42.5109603" lon="13.162965"><ele>793.0</ele><time>2026-04-10T14:10:40.583Z</time></trkpt><trkpt lat="42.5109514" lon="13.1627747"><ele>793.0</ele><time>2026-04-10T14:10:41.583Z</time></trkpt><trkpt lat="42.5110556" lon="13.1625814"><ele>793.0</ele><time>2026-04-10T14:10:42.581Z</time></trkpt><trkpt lat="42.5111272" lon="13.1623811"><ele>793.0</ele><time>2026-04-10T14:10:43.579Z</time></trkpt><trkpt lat="42.511195" lon="13.1621696"><ele>793.3333333333333</ele><time>2026-04-10T14:10:44.584Z</time></trkpt><trkpt lat="42.5112068" lon="13.1619244"><ele>793.6666666666667</ele><time>2026-04-10T14:10:45.583Z</time></trkpt><trkpt lat="42.5112108" lon="13.1616863"><ele>794.0</ele><time>2026-04-10T14:10:46.584Z</time></trkpt><trkpt lat="42.5111918" lon="13.1614442"><ele>796.0</ele><time>2026-04-10T14:10:47.58Z</time></trkpt><trkpt lat="42.5111616" lon="13.1612194"><ele>798.0</ele><time>2026-04-10T14:10:48.587Z</time></trkpt><trkpt lat="42.5110978" lon="13.1610243"><ele>800.0</ele><time>2026-04-10T14:10:49.588Z</time></trkpt><trkpt lat="42.5109976" lon="13.1608481"><ele>802.3333333333334</ele><time>2026-04-10T14:10:50.589Z</time></trkpt><trkpt lat="42.5108798" lon="13.1606701"><ele>804.6666666666667</ele><time>2026-04-10T14:10:51.601Z</time></trkpt><trkpt lat="42.5107906" lon="13.1605009"><ele>807.0</ele><time>2026-04-10T14:10:52.598Z</time></trkpt><trkpt lat="42.5107174" lon="13.1603331"><ele>807.0</ele><time>2026-04-10T14:10:53.589Z</time></trkpt><trkpt lat="42.5106494" lon="13.1602357"><ele>807.0</ele><time>2026-04-10T14:10:54.603Z</time></trkpt><trkpt lat="42.5105526" lon="13.1602195"><ele>807.0</ele><time>2026-04-10T14:10:55.599Z</time></trkpt><trkpt lat="42.5104634" lon="13.1602197"><ele>807.0</ele><time>2026-04-10T14:10:56.596Z</time></trkpt><trkpt lat="42.5103347" lon="13.1602972"><ele>807.0</ele><time>2026-04-10T14:10:57.583Z</time></trkpt><trkpt lat="42.5102497" lon="13.160454"><ele>808.25</ele><time>2026-04-10T14:10:58.582Z</time></trkpt><trkpt lat="42.5101715" lon="13.1605875"><ele>809.5</ele><time>2026-04-10T14:10:59.585Z</time></trkpt><trkpt lat="42.5100647" lon="13.1606792"><ele>810.75</ele><time>2026-04-10T14:11:00.58Z</time></trkpt><trkpt lat="42.5099405" lon="13.1607403"><ele>812.0</ele><time>2026-04-10T14:11:01.589Z</time></trkpt><trkpt lat="42.5098116" lon="13.1607946"><ele>807.25</ele><time>2026-04-10T14:11:02.597Z</time></trkpt><trkpt lat="42.5096847" lon="13.1608344"><ele>802.5</ele><time>2026-04-10T14:11:03.601Z</time></trkpt><trkpt lat="42.5095614" lon="13.1608934"><ele>797.75</ele><time>2026-04-10T14:11:04.601Z</time></trkpt><trkpt lat="42.5094444" lon="13.1609491"><ele>793.0</ele><time>2026-04-10T14:11:05.598Z</time></trkpt><trkpt lat="42.5093238" lon="13.1609606"><ele>792.5</ele><time>2026-04-10T14:11:06.597Z</time></trkpt><trkpt lat="42.5092048" lon="13.1609292"><ele>792.0</ele><time>2026-04-10T14:11:07.608Z</time></trkpt><trkpt lat="42.509084" lon="13.1608305"><ele>791.5</ele><time>2026-04-10T14:11:08.594Z</time></trkpt><trkpt lat="42.5089752" lon="13.160676"><ele>791.0</ele><time>2026-04-10T14:11:09.584Z</time></trkpt><trkpt lat="42.5088814" lon="13.1604833"><ele>791.3333333333334</ele><time>2026-04-10T14:11:10.583Z</time></trkpt><trkpt lat="42.508792" lon="13.1602462"><ele>791.6666666666667</ele><time>2026-04-10T14:11:11.584Z</time></trkpt><trkpt lat="42.5086911" lon="13.1600394"><ele>792.0</ele><time>2026-04-10T14:11:12.591Z</time></trkpt><trkpt lat="42.5085627" lon="13.1598614"><ele>793.0</ele><time>2026-04-10T14:11:13.589Z</time></trkpt><trkpt lat="42.5084495" lon="13.1596863"><ele>794.0</ele><time>2026-04-10T14:11:14.588Z</time></trkpt><trkpt lat="42.5083725" lon="13.159496"><ele>795.0</ele><time>2026-04-10T14:11:15.587Z</time></trkpt><trkpt lat="42.5083141" lon="13.1592823"><ele>795.0</ele><time>2026-04-10T14:11:16.592Z</time></trkpt><trkpt lat="42.5082692" lon="13.1590659"><ele>795.0</ele><time>2026-04-10T14:11:17.603Z</time></trkpt><trkpt lat="42.5082131" lon="13.1588307"><ele>795.0</ele><time>2026-04-10T14:11:18.601Z</time></trkpt><trkpt lat="42.5081507" lon="13.1585838"><ele>796.6666666666667</ele><time>2026-04-10T14:11:19.601Z</time></trkpt><trkpt lat="42.5080872" lon="13.1583468"><ele>798.3333333333334</ele><time>2026-04-10T14:11:20.592Z</time></trkpt><trkpt lat="42.5080343" lon="13.1581131"><ele>800.0</ele><time>2026-04-10T14:11:21.602Z</time></trkpt><trkpt lat="42.5080107" lon="13.1579005"><ele>797.5</ele><time>2026-04-10T14:11:22.6Z</time></trkpt><trkpt lat="42.5080046" lon="13.1576986"><ele>795.0</ele><time>2026-04-10T14:11:23.597Z</time></trkpt><trkpt lat="42.5080231" lon="13.1575373"><ele>792.5</ele><time>2026-04-10T14:11:24.603Z</time></trkpt><trkpt lat="42.5080899" lon="13.1574297"><ele>790.0</ele><time>2026-04-10T14:11:25.591Z</time></trkpt><trkpt lat="42.5081914" lon="13.1573737"><ele>790.0</ele><time>2026-04-10T14:11:26.599Z</time></trkpt><trkpt lat="42.5083068" lon="13.1573916"><ele>790.0</ele><time>2026-04-10T14:11:27.589Z</time></trkpt><trkpt lat="42.5084206" lon="13.1574431"><ele>790.0</ele><time>2026-04-10T14:11:28.58Z</time></trkpt><trkpt lat="42.508576" lon="13.1574979"><ele>790.0</ele><time>2026-04-10T14:11:29.586Z</time></trkpt><trkpt lat="42.5087281" lon="13.1575242"><ele>787.0</ele><time>2026-04-10T14:11:30.579Z</time></trkpt><trkpt lat="42.5088775" lon="13.157517"><ele>784.0</ele><time>2026-04-10T14:11:31.595Z</time></trkpt><trkpt lat="42.5090354" lon="13.1574778"><ele>781.0</ele><time>2026-04-10T14:11:32.593Z</time></trkpt><trkpt lat="42.5091895" lon="13.1573531"><ele>781.0</ele><time>2026-04-10T14:11:33.595Z</time></trkpt><trkpt lat="42.5093446" lon="13.1572104"><ele>781.0</ele><time>2026-04-10T14:11:34.592Z</time></trkpt><trkpt lat="42.5095042" lon="13.1570794"><ele>781.0</ele><time>2026-04-10T14:11:35.594Z</time></trkpt><trkpt lat="42.5096663" lon="13.1569791"><ele>785.0</ele><time>2026-04-10T14:11:36.581Z</time></trkpt><trkpt lat="42.5098209" lon="13.1569418"><ele>789.0</ele><time>2026-04-10T14:11:37.589Z</time></trkpt><trkpt lat="42.509949" lon="13.156936"><ele>793.0</ele><time>2026-04-10T14:11:38.598Z</time></trkpt><trkpt lat="42.5100484" lon="13.1568866"><ele>797.0</ele><time>2026-04-10T14:11:39.583Z</time></trkpt><trkpt lat="42.5101157" lon="13.1568067"><ele>797.0</ele><time>2026-04-10T14:11:40.591Z</time></trkpt><trkpt lat="42.510118" lon="13.1566448"><ele>797.0</ele><time>2026-04-10T14:11:41.578Z</time></trkpt><trkpt lat="42.5101047" lon="13.1564946"><ele>797.0</ele><time>2026-04-10T14:11:42.593Z</time></trkpt><trkpt lat="42.5100367" lon="13.1563335"><ele>797.0</ele><time>2026-04-10T14:11:43.578Z</time></trkpt><trkpt lat="42.509944" lon="13.1561615"><ele>800.6666666666667</ele><time>2026-04-10T14:11:44.584Z</time></trkpt><trkpt lat="42.5098223" lon="13.1559568"><ele>804.3333333333333</ele><time>2026-04-10T14:11:45.601Z</time></trkpt><trkpt lat="42.5097194" lon="13.1557472"><ele>808.0</ele><time>2026-04-10T14:11:46.601Z</time></trkpt><trkpt lat="42.5096154" lon="13.1555292"><ele>802.3333333333333</ele><time>2026-04-10T14:11:47.605Z</time></trkpt><trkpt lat="42.5095149" lon="13.155336"><ele>796.6666666666667</ele><time>2026-04-10T14:11:48.599Z</time></trkpt><trkpt lat="42.5093848" lon="13.1551656"><ele>791.0</ele><time>2026-04-10T14:11:49.6Z</time></trkpt><trkpt lat="42.5092455" lon="13.1550311"><ele>791.0</ele><time>2026-04-10T14:11:50.607Z</time></trkpt><trkpt lat="42.5091182" lon="13.1548891"><ele>791.0</ele><time>2026-04-10T14:11:51.602Z</time></trkpt><trkpt lat="42.509003" lon="13.1547549"><ele>791.0</ele><time>2026-04-10T14:11:52.598Z</time></trkpt><trkpt lat="42.5088778" lon="13.1546443"><ele>791.5</ele><time>2026-04-10T14:11:53.599Z</time></trkpt><trkpt lat="42.5087452" lon="13.1545698"><ele>792.0</ele><time>2026-04-10T14:11:54.605Z</time></trkpt><trkpt lat="42.5085968" lon="13.1545708"><ele>792.5</ele><time>2026-04-10T14:11:55.608Z</time></trkpt><trkpt lat="42.508445" lon="13.1546013"><ele>793.0</ele><time>2026-04-10T14:11:56.607Z</time></trkpt><trkpt lat="42.5083248" lon="13.1545964"><ele>789.5</ele><time>2026-04-10T14:11:57.613Z</time></trkpt><trkpt lat="42.5082261" lon="13.1545148"><ele>786.0</ele><time>2026-04-10T14:11:58.617Z</time></trkpt><trkpt lat="42.5081828" lon="13.1543569"><ele>782.5</ele><time>2026-04-10T14:11:59.618Z</time></trkpt><trkpt lat="42.508174" lon="13.1541738"><ele>779.0</ele><time>2026-04-10T14:12:00.62Z</time></trkpt><trkpt lat="42.5082385" lon="13.1540349"><ele>778.75</ele><time>2026-04-10T14:12:01.618Z</time></trkpt><trkpt lat="42.5083399" lon="13.153913"><ele>778.5</ele><time>2026-04-10T14:12:02.604Z</time></trkpt><trkpt lat="42.5084607" lon="13.1538253"><ele>778.25</ele><time>2026-04-10T14:12:03.604Z</time></trkpt><trkpt lat="42.5085787" lon="13.153763"><ele>778.0</ele><time>2026-04-10T14:12:04.603Z</time></trkpt><trkpt lat="42.5086665" lon="13.1536602"><ele>778.0</ele><time>2026-04-10T14:12:05.588Z</time></trkpt><trkpt lat="42.5087237" lon="13.1535485"><ele>778.0</ele><time>2026-04-10T14:12:06.597Z</time></trkpt><trkpt lat="42.5087155" lon="13.1534096"><ele>778.0</ele><time>2026-04-10T14:12:07.596Z</time></trkpt><trkpt lat="42.5086507" lon="13.1532768"><ele>778.0</ele><time>2026-04-10T14:12:08.589Z</time></trkpt><trkpt lat="42.5085745" lon="13.1531209"><ele>778.0</ele><time>2026-04-10T14:12:09.596Z</time></trkpt><trkpt lat="42.508519" lon="13.1529452"><ele>778.0</ele><time>2026-04-10T14:12:10.599Z</time></trkpt><trkpt lat="42.5085015" lon="13.1527346"><ele>778.0</ele><time>2026-04-10T14:12:11.6Z</time></trkpt><trkpt lat="42.5085114" lon="13.1525136"><ele>780.0</ele><time>2026-04-10T14:12:12.589Z</time></trkpt><trkpt lat="42.5085217" lon="13.1522946"><ele>782.0</ele><time>2026-04-10T14:12:13.607Z</time></trkpt><trkpt lat="42.5085642" lon="13.1520545"><ele>784.0</ele><time>2026-04-10T14:12:14.672Z</time></trkpt><trkpt lat="42.5086123" lon="13.1518619"><ele>784.0</ele><time>2026-04-10T14:12:15.667Z</time></trkpt><trkpt lat="42.508667" lon="13.1517134"><ele>784.0</ele><time>2026-04-10T14:12:16.674Z</time></trkpt><trkpt lat="42.5087241" lon="13.1515732"><ele>784.0</ele><time>2026-04-10T14:12:17.666Z</time></trkpt><trkpt lat="42.5087818" lon="13.1514204"><ele>784.0</ele><time>2026-04-10T14:12:18.66Z</time></trkpt><trkpt lat="42.5088494" lon="13.1512141"><ele>784.6666666666666</ele><time>2026-04-10T14:12:19.661Z</time></trkpt><trkpt lat="42.5088983" lon="13.1510377"><ele>785.3333333333333</ele><time>2026-04-10T14:12:20.658Z</time></trkpt><trkpt lat="42.5089449" lon="13.1508563"><ele>786.0</ele><time>2026-04-10T14:12:21.669Z</time></trkpt><trkpt lat="42.5091508" lon="13.1502795"><ele>783.0</ele><time>2026-04-10T14:12:22.674Z</time></trkpt><trkpt lat="42.5091282" lon="13.1501374"><ele>780.0</ele><time>2026-04-10T14:12:23.673Z</time></trkpt><trkpt lat="42.5091652" lon="13.1498474"><ele>777.0</ele><time>2026-04-10T14:12:24.575Z</time></trkpt><trkpt lat="42.5091614" lon="13.1496145"><ele>776.0</ele><time>2026-04-10T14:12:25.581Z</time></trkpt><trkpt lat="42.5092462" lon="13.1494312"><ele>775.0</ele><time>2026-04-10T14:12:26.573Z</time></trkpt><trkpt lat="42.5093615" lon="13.1492453"><ele>774.0</ele><time>2026-04-10T14:12:27.589Z</time></trkpt><trkpt lat="42.509484" lon="13.1490719"><ele>776.0</ele><time>2026-04-10T14:12:28.589Z</time></trkpt><trkpt lat="42.5095805" lon="13.1488919"><ele>778.0</ele><time>2026-04-10T14:12:29.591Z</time></trkpt><trkpt lat="42.509659" lon="13.1486926"><ele>780.0</ele><time>2026-04-10T14:12:30.591Z</time></trkpt><trkpt lat="42.5097258" lon="13.1484837"><ele>780.0</ele><time>2026-04-10T14:12:31.587Z</time></trkpt><trkpt lat="42.5097698" lon="13.1482615"><ele>780.0</ele><time>2026-04-10T14:12:32.586Z</time></trkpt><trkpt lat="42.5097729" lon="13.1480281"><ele>780.0</ele><time>2026-04-10T14:12:33.592Z</time></trkpt><trkpt lat="42.5097692" lon="13.1478007"><ele>781.0</ele><time>2026-04-10T14:12:34.589Z</time></trkpt><trkpt lat="42.5097494" lon="13.1475877"><ele>782.0</ele><time>2026-04-10T14:12:35.6Z</time></trkpt><trkpt lat="42.5096876" lon="13.147389"><ele>783.0</ele><time>2026-04-10T14:12:36.595Z</time></trkpt><trkpt lat="42.5096097" lon="13.1472109"><ele>782.3333333333333</ele><time>2026-04-10T14:12:37.591Z</time></trkpt><trkpt lat="42.5095024" lon="13.1470144"><ele>781.6666666666666</ele><time>2026-04-10T14:12:38.592Z</time></trkpt><trkpt lat="42.5093622" lon="13.1468502"><ele>781.0</ele><time>2026-04-10T14:12:39.589Z</time></trkpt><trkpt lat="42.5092135" lon="13.1467241"><ele>781.0</ele><time>2026-04-10T14:12:40.596Z</time></trkpt><trkpt lat="42.509039" lon="13.1466765"><ele>781.0</ele><time>2026-04-10T14:12:41.586Z</time></trkpt><trkpt lat="42.5088935" lon="13.1467055"><ele>781.0</ele><time>2026-04-10T14:12:42.581Z</time></trkpt><trkpt lat="42.5087603" lon="13.1467307"><ele>778.3333333333333</ele><time>2026-04-10T14:12:43.582Z</time></trkpt><trkpt lat="42.5086014" lon="13.1466743"><ele>775.6666666666667</ele><time>2026-04-10T14:12:44.585Z</time></trkpt><trkpt lat="42.5084758" lon="13.1465588"><ele>773.0</ele><time>2026-04-10T14:12:45.595Z</time></trkpt><trkpt lat="42.5083666" lon="13.1464181"><ele>773.0</ele><time>2026-04-10T14:12:46.588Z</time></trkpt><trkpt lat="42.5083094" lon="13.1462292"><ele>773.0</ele><time>2026-04-10T14:12:47.606Z</time></trkpt><trkpt lat="42.5082404" lon="13.1459981"><ele>773.0</ele><time>2026-04-10T14:12:48.579Z</time></trkpt><trkpt lat="42.5082058" lon="13.1457372"><ele>771.6666666666667</ele><time>2026-04-10T14:12:49.58Z</time></trkpt><trkpt lat="42.5081774" lon="13.1454763"><ele>770.3333333333333</ele><time>2026-04-10T14:12:50.586Z</time></trkpt><trkpt lat="42.5082094" lon="13.1452265"><ele>769.0</ele><time>2026-04-10T14:12:51.574Z</time></trkpt><trkpt lat="42.5082441" lon="13.1449829"><ele>767.0</ele><time>2026-04-10T14:12:52.588Z</time></trkpt><trkpt lat="42.5082893" lon="13.1447259"><ele>765.0</ele><time>2026-04-10T14:12:53.586Z</time></trkpt><trkpt lat="42.5083229" lon="13.1444977"><ele>763.0</ele><time>2026-04-10T14:12:54.588Z</time></trkpt><trkpt lat="42.5083782" lon="13.1442733"><ele>763.0</ele><time>2026-04-10T14:12:55.591Z</time></trkpt><trkpt lat="42.5084968" lon="13.1441154"><ele>763.0</ele><time>2026-04-10T14:12:56.592Z</time></trkpt><trkpt lat="42.5086533" lon="13.143984"><ele>763.0</ele><time>2026-04-10T14:12:57.582Z</time></trkpt><trkpt lat="42.5088052" lon="13.1438043"><ele>762.3333333333334</ele><time>2026-04-10T14:12:58.595Z</time></trkpt><trkpt lat="42.5089506" lon="13.1436251"><ele>761.6666666666666</ele><time>2026-04-10T14:12:59.59Z</time></trkpt><trkpt lat="42.5091228" lon="13.1435106"><ele>761.0</ele><time>2026-04-10T14:13:00.59Z</time></trkpt><trkpt lat="42.5092889" lon="13.1434092"><ele>761.0</ele><time>2026-04-10T14:13:01.593Z</time></trkpt><trkpt lat="42.5094149" lon="13.1432851"><ele>761.0</ele><time>2026-04-10T14:13:02.581Z</time></trkpt><trkpt lat="42.5094925" lon="13.1431281"><ele>761.0</ele><time>2026-04-10T14:13:03.579Z</time></trkpt><trkpt lat="42.5094978" lon="13.1429217"><ele>761.0</ele><time>2026-04-10T14:13:04.576Z</time></trkpt><trkpt lat="42.509459" lon="13.1427087"><ele>762.6666666666666</ele><time>2026-04-10T14:13:05.586Z</time></trkpt><trkpt lat="42.5094494" lon="13.1425435"><ele>764.3333333333334</ele><time>2026-04-10T14:13:06.579Z</time></trkpt><trkpt lat="42.5093144" lon="13.1423243"><ele>766.0</ele><time>2026-04-10T14:13:07.574Z</time></trkpt><trkpt lat="42.5092061" lon="13.1421073"><ele>767.6666666666667</ele><time>2026-04-10T14:13:08.581Z</time></trkpt><trkpt lat="42.5091197" lon="13.1418967"><ele>769.3333333333334</ele><time>2026-04-10T14:13:09.581Z</time></trkpt><trkpt lat="42.5090294" lon="13.1416784"><ele>771.0</ele><time>2026-04-10T14:13:10.579Z</time></trkpt><trkpt lat="42.50893" lon="13.1414655"><ele>773.3333333333333</ele><time>2026-04-10T14:13:11.587Z</time></trkpt><trkpt lat="42.5088523" lon="13.1412309"><ele>775.6666666666666</ele><time>2026-04-10T14:13:12.576Z</time></trkpt><trkpt lat="42.5087589" lon="13.1410119"><ele>778.0</ele><time>2026-04-10T14:13:13.582Z</time></trkpt><trkpt lat="42.5086647" lon="13.1408009"><ele>772.6666666666666</ele><time>2026-04-10T14:13:14.584Z</time></trkpt><trkpt lat="42.5085863" lon="13.1405939"><ele>767.3333333333333</ele><time>2026-04-10T14:13:15.579Z</time></trkpt><trkpt lat="42.5085072" lon="13.1404041"><ele>762.0</ele><time>2026-04-10T14:13:16.591Z</time></trkpt><trkpt lat="42.5084336" lon="13.1402198"><ele>762.0</ele><time>2026-04-10T14:13:17.593Z</time></trkpt><trkpt lat="42.5083446" lon="13.1400456"><ele>762.0</ele><time>2026-04-10T14:13:18.599Z</time></trkpt><trkpt lat="42.5082658" lon="13.139879"><ele>762.0</ele><time>2026-04-10T14:13:19.596Z</time></trkpt><trkpt lat="42.5082254" lon="13.1397103"><ele>762.0</ele><time>2026-04-10T14:13:20.599Z</time></trkpt><trkpt lat="42.5082176" lon="13.1395583"><ele>761.2857142857142</ele><time>2026-04-10T14:13:21.596Z</time></trkpt><trkpt lat="42.5082342" lon="13.1394613"><ele>760.5714285714287</ele><time>2026-04-10T14:13:22.606Z</time></trkpt><trkpt lat="42.5082717" lon="13.1393861"><ele>759.8571428571429</ele><time>2026-04-10T14:13:23.599Z</time></trkpt><trkpt lat="42.5083217" lon="13.1393314"><ele>759.1428571428571</ele><time>2026-04-10T14:13:24.595Z</time></trkpt><trkpt lat="42.5083685" lon="13.1392682"><ele>758.4285714285713</ele><time>2026-04-10T14:13:25.59Z</time></trkpt><trkpt lat="42.5084365" lon="13.1392684"><ele>757.7142857142858</ele><time>2026-04-10T14:13:26.596Z</time></trkpt><trkpt lat="42.5085469" lon="13.1392678"><ele>757.0</ele><time>2026-04-10T14:13:28.614Z</time></trkpt><trkpt lat="42.5086302" lon="13.1392698"><ele>757.0</ele><time>2026-04-10T14:13:30.602Z</time></trkpt><trkpt lat="42.5086949" lon="13.1392697"><ele>757.0</ele><time>2026-04-10T14:13:32.6Z</time></trkpt><trkpt lat="42.5087828" lon="13.1392574"><ele>757.0</ele><time>2026-04-10T14:13:36.597Z</time></trkpt><trkpt lat="42.5088658" lon="13.1392918"><ele>757.0</ele><time>2026-04-10T14:13:39.607Z</time></trkpt><trkpt lat="42.508786" lon="13.1392262"><ele>757.0</ele><time>2026-04-10T14:13:44.624Z</time></trkpt><trkpt lat="42.5086889" lon="13.1392317"><ele>757.0</ele><time>2026-04-10T14:13:46.615Z</time></trkpt><trkpt lat="42.5085839" lon="13.1392587"><ele>757.0</ele><time>2026-04-10T14:13:48.612Z</time></trkpt><trkpt lat="42.5084929" lon="13.1392677"><ele>757.0</ele><time>2026-04-10T14:13:50.615Z</time></trkpt><trkpt lat="42.5084051" lon="13.1393117"><ele>757.0</ele><time>2026-04-10T14:13:52.604Z</time></trkpt><trkpt lat="42.5083254" lon="13.139355"><ele>757.0</ele><time>2026-04-10T14:13:54.602Z</time></trkpt><trkpt lat="42.5082583" lon="13.1392658"><ele>757.0</ele><time>2026-04-10T14:13:57.617Z</time></trkpt><trkpt lat="42.5082868" lon="13.1391591"><ele>757.0</ele><time>2026-04-10T14:13:58.607Z</time></trkpt><trkpt lat="42.5083409" lon="13.1390468"><ele>756.6</ele><time>2026-04-10T14:13:59.601Z</time></trkpt><trkpt lat="42.5084049" lon="13.1389431"><ele>756.2</ele><time>2026-04-10T14:14:00.605Z</time></trkpt><trkpt lat="42.5084672" lon="13.1388412"><ele>755.8</ele><time>2026-04-10T14:14:01.601Z</time></trkpt><trkpt lat="42.5084876" lon="13.1387219"><ele>755.4</ele><time>2026-04-10T14:14:02.613Z</time></trkpt><trkpt lat="42.5084656" lon="13.1386031"><ele>755.0</ele><time>2026-04-10T14:14:03.613Z</time></trkpt><trkpt lat="42.5084052" lon="13.1385078"><ele>755.0</ele><time>2026-04-10T14:14:04.609Z</time></trkpt><trkpt lat="42.5083021" lon="13.1384033"><ele>755.0</ele><time>2026-04-10T14:14:05.602Z</time></trkpt><trkpt lat="42.5081825" lon="13.1382838"><ele>755.0</ele><time>2026-04-10T14:14:06.599Z</time></trkpt><trkpt lat="42.508077" lon="13.1381713"><ele>755.0</ele><time>2026-04-10T14:14:07.602Z</time></trkpt><trkpt lat="42.5079697" lon="13.1380314"><ele>754.75</ele><time>2026-04-10T14:14:08.603Z</time></trkpt><trkpt lat="42.5078763" lon="13.1378893"><ele>754.5</ele><time>2026-04-10T14:14:09.613Z</time></trkpt><trkpt lat="42.5078266" lon="13.1377374"><ele>754.25</ele><time>2026-04-10T14:14:10.606Z</time></trkpt><trkpt lat="42.5078124" lon="13.1375816"><ele>754.0</ele><time>2026-04-10T14:14:11.608Z</time></trkpt><trkpt lat="42.5078356" lon="13.1374104"><ele>754.5</ele><time>2026-04-10T14:14:12.607Z</time></trkpt><trkpt lat="42.5078801" lon="13.137247"><ele>755.0</ele><time>2026-04-10T14:14:13.61Z</time></trkpt><trkpt lat="42.5079247" lon="13.1370717"><ele>755.5</ele><time>2026-04-10T14:14:14.607Z</time></trkpt><trkpt lat="42.5079634" lon="13.1369087"><ele>756.0</ele><time>2026-04-10T14:14:15.6Z</time></trkpt><trkpt lat="42.5079851" lon="13.1367435"><ele>756.0</ele><time>2026-04-10T14:14:16.6Z</time></trkpt><trkpt lat="42.5079901" lon="13.1365882"><ele>756.0</ele><time>2026-04-10T14:14:17.603Z</time></trkpt><trkpt lat="42.5079796" lon="13.1364336"><ele>756.0</ele><time>2026-04-10T14:14:18.604Z</time></trkpt><trkpt lat="42.5079724" lon="13.1362851"><ele>756.0</ele><time>2026-04-10T14:14:19.6Z</time></trkpt><trkpt lat="42.5079596" lon="13.1361644"><ele>756.0</ele><time>2026-04-10T14:14:20.599Z</time></trkpt><trkpt lat="42.5079508" lon="13.1360455"><ele>756.25</ele><time>2026-04-10T14:14:21.602Z</time></trkpt><trkpt lat="42.5079576" lon="13.135903"><ele>756.5</ele><time>2026-04-10T14:14:22.587Z</time></trkpt><trkpt lat="42.5079891" lon="13.1357517"><ele>756.75</ele><time>2026-04-10T14:14:23.582Z</time></trkpt><trkpt lat="42.5080509" lon="13.1356049"><ele>757.0</ele><time>2026-04-10T14:14:24.593Z</time></trkpt><trkpt lat="42.508131" lon="13.1354624"><ele>757.25</ele><time>2026-04-10T14:14:25.602Z</time></trkpt><trkpt lat="42.5082028" lon="13.1353237"><ele>757.5</ele><time>2026-04-10T14:14:26.607Z</time></trkpt><trkpt lat="42.5082854" lon="13.1351819"><ele>757.75</ele><time>2026-04-10T14:14:27.605Z</time></trkpt><trkpt lat="42.5083613" lon="13.1350381"><ele>758.0</ele><time>2026-04-10T14:14:28.6Z</time></trkpt><trkpt lat="42.5084401" lon="13.1348908"><ele>758.0</ele><time>2026-04-10T14:14:29.618Z</time></trkpt><trkpt lat="42.5085154" lon="13.1347555"><ele>758.0</ele><time>2026-04-10T14:14:30.608Z</time></trkpt><trkpt lat="42.5085841" lon="13.1346304"><ele>758.0</ele><time>2026-04-10T14:14:31.608Z</time></trkpt><trkpt lat="42.5086713" lon="13.134496"><ele>758.0</ele><time>2026-04-10T14:14:32.611Z</time></trkpt><trkpt lat="42.5087704" lon="13.1343601"><ele>757.5999999999999</ele><time>2026-04-10T14:14:33.609Z</time></trkpt><trkpt lat="42.5088726" lon="13.1342461"><ele>757.1999999999999</ele><time>2026-04-10T14:14:34.611Z</time></trkpt><trkpt lat="42.5089645" lon="13.1341536"><ele>756.8</ele><time>2026-04-10T14:14:35.602Z</time></trkpt><trkpt lat="42.5090474" lon="13.1340916"><ele>756.4</ele><time>2026-04-10T14:14:36.611Z</time></trkpt><trkpt lat="42.5091282" lon="13.1340641"><ele>756.0</ele><time>2026-04-10T14:14:37.614Z</time></trkpt><trkpt lat="42.5092092" lon="13.1340765"><ele>756.0</ele><time>2026-04-10T14:14:38.6Z</time></trkpt><trkpt lat="42.5092834" lon="13.1341116"><ele>756.0</ele><time>2026-04-10T14:14:39.612Z</time></trkpt><trkpt lat="42.5093883" lon="13.1340741"><ele>756.0</ele><time>2026-04-10T14:14:41.594Z</time></trkpt><trkpt lat="42.5094327" lon="13.1339844"><ele>756.0</ele><time>2026-04-10T14:14:42.586Z</time></trkpt><trkpt lat="42.5094793" lon="13.133879"><ele>756.0</ele><time>2026-04-10T14:14:43.596Z</time></trkpt><trkpt lat="42.5095116" lon="13.1337765"><ele>756.0</ele><time>2026-04-10T14:14:44.618Z</time></trkpt><trkpt lat="42.5094355" lon="13.1337374"><ele>756.5</ele><time>2026-04-10T14:14:54.609Z</time></trkpt><trkpt lat="42.5093709" lon="13.1336874"><ele>757.0</ele><time>2026-04-10T14:14:56.609Z</time></trkpt><trkpt lat="42.5093109" lon="13.1336249"><ele>757.5</ele><time>2026-04-10T14:14:57.611Z</time></trkpt><trkpt lat="42.5092401" lon="13.1335438"><ele>758.0</ele><time>2026-04-10T14:14:58.612Z</time></trkpt><trkpt lat="42.5091771" lon="13.1334762"><ele>758.5</ele><time>2026-04-10T14:14:59.612Z</time></trkpt><trkpt lat="42.5091351" lon="13.1333974"><ele>759.0</ele><time>2026-04-10T14:15:00.602Z</time></trkpt><trkpt lat="42.5091135" lon="13.1333105"><ele>760.6666666666666</ele><time>2026-04-10T14:15:01.605Z</time></trkpt><trkpt lat="42.5090939" lon="13.1331875"><ele>762.3333333333333</ele><time>2026-04-10T14:15:03.607Z</time></trkpt><trkpt lat="42.5090458" lon="13.1330839"><ele>764.0</ele><time>2026-04-10T14:15:06.611Z</time></trkpt><trkpt lat="42.5089533" lon="13.1330719"><ele>765.6666666666666</ele><time>2026-04-10T14:15:08.607Z</time></trkpt><trkpt lat="42.5088752" lon="13.1330925"><ele>767.3333333333333</ele><time>2026-04-10T14:15:09.602Z</time></trkpt><trkpt lat="42.5087876" lon="13.1331175"><ele>769.0</ele><time>2026-04-10T14:15:10.617Z</time></trkpt><trkpt lat="42.5086818" lon="13.1331473"><ele>769.5</ele><time>2026-04-10T14:15:11.604Z</time></trkpt><trkpt lat="42.5085588" lon="13.1331796"><ele>770.0</ele><time>2026-04-10T14:15:12.606Z</time></trkpt><trkpt lat="42.5084349" lon="13.1332077"><ele>770.5</ele><time>2026-04-10T14:15:13.608Z</time></trkpt><trkpt lat="42.5083087" lon="13.1332287"><ele>771.0</ele><time>2026-04-10T14:15:14.616Z</time></trkpt><trkpt lat="42.5081825" lon="13.1332352"><ele>771.0</ele><time>2026-04-10T14:15:15.621Z</time></trkpt><trkpt lat="42.5080479" lon="13.1332296"><ele>771.0</ele><time>2026-04-10T14:15:16.613Z</time></trkpt><trkpt lat="42.5079106" lon="13.1332086"><ele>771.0</ele><time>2026-04-10T14:15:17.604Z</time></trkpt><trkpt lat="42.507783" lon="13.1331896"><ele>771.0</ele><time>2026-04-10T14:15:18.605Z</time></trkpt><trkpt lat="42.5076623" lon="13.1331654"><ele>770.5</ele><time>2026-04-10T14:15:19.6Z</time></trkpt><trkpt lat="42.5075507" lon="13.1331235"><ele>770.0</ele><time>2026-04-10T14:15:20.597Z</time></trkpt><trkpt lat="42.5074503" lon="13.1330595"><ele>769.5</ele><time>2026-04-10T14:15:21.593Z</time></trkpt><trkpt lat="42.5073498" lon="13.1329626"><ele>769.0</ele><time>2026-04-10T14:15:22.605Z</time></trkpt><trkpt lat="42.5072482" lon="13.1328389"><ele>769.0</ele><time>2026-04-10T14:15:23.602Z</time></trkpt><trkpt lat="42.5071499" lon="13.13271"><ele>769.0</ele><time>2026-04-10T14:15:24.611Z</time></trkpt><trkpt lat="42.5070372" lon="13.1325784"><ele>769.0</ele><time>2026-04-10T14:15:25.612Z</time></trkpt><trkpt lat="42.5069384" lon="13.1324463"><ele>769.0</ele><time>2026-04-10T14:15:26.613Z</time></trkpt><trkpt lat="42.5068419" lon="13.1323142"><ele>771.0</ele><time>2026-04-10T14:15:27.621Z</time></trkpt><trkpt lat="42.5067238" lon="13.1321904"><ele>773.0</ele><time>2026-04-10T14:15:28.611Z</time></trkpt><trkpt lat="42.5066145" lon="13.1320535"><ele>775.0</ele><time>2026-04-10T14:15:29.611Z</time></trkpt><trkpt lat="42.5065017" lon="13.1319251"><ele>777.0</ele><time>2026-04-10T14:15:30.606Z</time></trkpt><trkpt lat="42.5063735" lon="13.131813"><ele>778.0</ele><time>2026-04-10T14:15:31.609Z</time></trkpt><trkpt lat="42.5062079" lon="13.1317155"><ele>779.0</ele><time>2026-04-10T14:15:32.608Z</time></trkpt><trkpt lat="42.5060331" lon="13.1316277"><ele>780.0</ele><time>2026-04-10T14:15:33.604Z</time></trkpt><trkpt lat="42.5058571" lon="13.1315384"><ele>782.3333333333333</ele><time>2026-04-10T14:15:34.609Z</time></trkpt><trkpt lat="42.5056971" lon="13.1314409"><ele>784.6666666666666</ele><time>2026-04-10T14:15:35.603Z</time></trkpt><trkpt lat="42.5055353" lon="13.1313479"><ele>787.0</ele><time>2026-04-10T14:15:36.611Z</time></trkpt><trkpt lat="42.5053816" lon="13.1312449"><ele>787.3333333333333</ele><time>2026-04-10T14:15:37.607Z</time></trkpt><trkpt lat="42.5052276" lon="13.131162"><ele>787.6666666666667</ele><time>2026-04-10T14:15:38.607Z</time></trkpt><trkpt lat="42.5050607" lon="13.1310886"><ele>788.0</ele><time>2026-04-10T14:15:39.605Z</time></trkpt><trkpt lat="42.5048908" lon="13.1310235"><ele>788.0</ele><time>2026-04-10T14:15:40.604Z</time></trkpt><trkpt lat="42.5047252" lon="13.1309626"><ele>788.0</ele><time>2026-04-10T14:15:41.615Z</time></trkpt><trkpt lat="42.5045579" lon="13.130876"><ele>788.0</ele><time>2026-04-10T14:15:42.607Z</time></trkpt><trkpt lat="42.5043861" lon="13.1308079"><ele>789.3333333333334</ele><time>2026-04-10T14:15:43.599Z</time></trkpt><trkpt lat="42.504225" lon="13.1307383"><ele>790.6666666666667</ele><time>2026-04-10T14:15:44.601Z</time></trkpt><trkpt lat="42.5040704" lon="13.1306676"><ele>792.0</ele><time>2026-04-10T14:15:45.59Z</time></trkpt><trkpt lat="42.5039037" lon="13.1306037"><ele>798.0</ele><time>2026-04-10T14:15:46.606Z</time></trkpt><trkpt lat="42.5037454" lon="13.1305395"><ele>804.0</ele><time>2026-04-10T14:15:47.59Z</time></trkpt><trkpt lat="42.5035787" lon="13.130525"><ele>810.0</ele><time>2026-04-10T14:15:48.591Z</time></trkpt><trkpt lat="42.5034009" lon="13.1305169"><ele>810.0</ele><time>2026-04-10T14:15:49.588Z</time></trkpt><trkpt lat="42.5032425" lon="13.1305265"><ele>810.0</ele><time>2026-04-10T14:15:50.602Z</time></trkpt><trkpt lat="42.5030828" lon="13.1305631"><ele>810.0</ele><time>2026-04-10T14:15:51.598Z</time></trkpt><trkpt lat="42.5029057" lon="13.1305913"><ele>808.0</ele><time>2026-04-10T14:15:52.607Z</time></trkpt><trkpt lat="42.5027336" lon="13.1306217"><ele>806.0</ele><time>2026-04-10T14:15:53.601Z</time></trkpt><trkpt lat="42.5025645" lon="13.1306362"><ele>804.0</ele><time>2026-04-10T14:15:54.595Z</time></trkpt><trkpt lat="42.5023873" lon="13.1306366"><ele>804.0</ele><time>2026-04-10T14:15:55.591Z</time></trkpt><trkpt lat="42.5022245" lon="13.1306344"><ele>804.0</ele><time>2026-04-10T14:15:56.595Z</time></trkpt><trkpt lat="42.5020459" lon="13.1306027"><ele>804.0</ele><time>2026-04-10T14:15:57.603Z</time></trkpt><trkpt lat="42.5018848" lon="13.1305729"><ele>804.3333333333333</ele><time>2026-04-10T14:15:58.599Z</time></trkpt><trkpt lat="42.5017185" lon="13.1305338"><ele>804.6666666666666</ele><time>2026-04-10T14:15:59.609Z</time></trkpt><trkpt lat="42.5015455" lon="13.1305043"><ele>805.0</ele><time>2026-04-10T14:16:00.61Z</time></trkpt><trkpt lat="42.5013746" lon="13.1304696"><ele>807.0</ele><time>2026-04-10T14:16:01.612Z</time></trkpt><trkpt lat="42.5011924" lon="13.1304546"><ele>809.0</ele><time>2026-04-10T14:16:02.608Z</time></trkpt><trkpt lat="42.5010255" lon="13.1304521"><ele>811.0</ele><time>2026-04-10T14:16:03.609Z</time></trkpt><trkpt lat="42.5008689" lon="13.1304023"><ele>811.0</ele><time>2026-04-10T14:16:04.608Z</time></trkpt><trkpt lat="42.5006963" lon="13.1303977"><ele>811.0</ele><time>2026-04-10T14:16:05.612Z</time></trkpt><trkpt lat="42.5005277" lon="13.130376"><ele>811.0</ele><time>2026-04-10T14:16:06.606Z</time></trkpt><trkpt lat="42.5003592" lon="13.1303704"><ele>812.6666666666666</ele><time>2026-04-10T14:16:07.613Z</time></trkpt><trkpt lat="42.5001956" lon="13.1303713"><ele>814.3333333333333</ele><time>2026-04-10T14:16:08.609Z</time></trkpt><trkpt lat="42.5000395" lon="13.1303762"><ele>816.0</ele><time>2026-04-10T14:16:09.613Z</time></trkpt><trkpt lat="42.4998832" lon="13.1303715"><ele>816.0</ele><time>2026-04-10T14:16:10.607Z</time></trkpt><trkpt lat="42.4997178" lon="13.1303795"><ele>816.0</ele><time>2026-04-10T14:16:11.61Z</time></trkpt><trkpt lat="42.4995566" lon="13.130428"><ele>816.0</ele><time>2026-04-10T14:16:12.626Z</time></trkpt><trkpt lat="42.4994167" lon="13.1305047"><ele>816.3333333333333</ele><time>2026-04-10T14:16:13.607Z</time></trkpt><trkpt lat="42.4992661" lon="13.1306068"><ele>816.6666666666666</ele><time>2026-04-10T14:16:14.611Z</time></trkpt><trkpt lat="42.4991214" lon="13.1307265"><ele>817.0</ele><time>2026-04-10T14:16:15.607Z</time></trkpt><trkpt lat="42.4989907" lon="13.1308532"><ele>817.0</ele><time>2026-04-10T14:16:16.611Z</time></trkpt><trkpt lat="42.4988518" lon="13.1309787"><ele>817.0</ele><time>2026-04-10T14:16:17.615Z</time></trkpt><trkpt lat="42.498712" lon="13.1311065"><ele>817.0</ele><time>2026-04-10T14:16:18.611Z</time></trkpt><trkpt lat="42.4985693" lon="13.1312387"><ele>818.6666666666666</ele><time>2026-04-10T14:16:19.607Z</time></trkpt><trkpt lat="42.4984371" lon="13.1313713"><ele>820.3333333333333</ele><time>2026-04-10T14:16:20.6Z</time></trkpt><trkpt lat="42.4983037" lon="13.1314751"><ele>822.0</ele><time>2026-04-10T14:16:21.606Z</time></trkpt><trkpt lat="42.4981738" lon="13.1315815"><ele>822.0</ele><time>2026-04-10T14:16:22.602Z</time></trkpt><trkpt lat="42.4980312" lon="13.1316797"><ele>822.0</ele><time>2026-04-10T14:16:23.607Z</time></trkpt><trkpt lat="42.4979005" lon="13.1317619"><ele>822.0</ele><time>2026-04-10T14:16:24.599Z</time></trkpt><trkpt lat="42.497757" lon="13.131825"><ele>826.0</ele><time>2026-04-10T14:16:25.6Z</time></trkpt><trkpt lat="42.4976149" lon="13.1318606"><ele>830.0</ele><time>2026-04-10T14:16:26.609Z</time></trkpt><trkpt lat="42.4974604" lon="13.1319038"><ele>834.0</ele><time>2026-04-10T14:16:27.604Z</time></trkpt><trkpt lat="42.497327" lon="13.1319581"><ele>838.0</ele><time>2026-04-10T14:16:28.603Z</time></trkpt><trkpt lat="42.497218" lon="13.1320299"><ele>838.0</ele><time>2026-04-10T14:16:29.601Z</time></trkpt><trkpt lat="42.4971271" lon="13.1321347"><ele>838.0</ele><time>2026-04-10T14:16:30.596Z</time></trkpt><trkpt lat="42.4970667" lon="13.132228"><ele>838.0</ele><time>2026-04-10T14:16:31.596Z</time></trkpt><trkpt lat="42.4970263" lon="13.1323459"><ele>838.0</ele><time>2026-04-10T14:16:32.605Z</time></trkpt><trkpt lat="42.497" lon="13.1324899"><ele>838.0</ele><time>2026-04-10T14:16:33.608Z</time></trkpt><trkpt lat="42.4969826" lon="13.1326222"><ele>836.0</ele><time>2026-04-10T14:16:34.604Z</time></trkpt><trkpt lat="42.4969933" lon="13.1327714"><ele>834.0</ele><time>2026-04-10T14:16:35.606Z</time></trkpt><trkpt lat="42.4970346" lon="13.1329129"><ele>832.0</ele><time>2026-04-10T14:16:36.602Z</time></trkpt><trkpt lat="42.4971116" lon="13.1330499"><ele>830.0</ele><time>2026-04-10T14:16:37.599Z</time></trkpt><trkpt lat="42.4972095" lon="13.1331859"><ele>832.25</ele><time>2026-04-10T14:16:38.6Z</time></trkpt><trkpt lat="42.4972929" lon="13.13333"><ele>834.5</ele><time>2026-04-10T14:16:39.609Z</time></trkpt><trkpt lat="42.49739" lon="13.1334841"><ele>836.75</ele><time>2026-04-10T14:16:40.609Z</time></trkpt><trkpt lat="42.4974728" lon="13.1336686"><ele>839.0</ele><time>2026-04-10T14:16:41.619Z</time></trkpt><trkpt lat="42.4974948" lon="13.1338612"><ele>841.6666666666667</ele><time>2026-04-10T14:16:42.618Z</time></trkpt><trkpt lat="42.4975016" lon="13.1340956"><ele>844.3333333333333</ele><time>2026-04-10T14:16:43.608Z</time></trkpt><trkpt lat="42.4974801" lon="13.1343105"><ele>847.0</ele><time>2026-04-10T14:16:44.623Z</time></trkpt><trkpt lat="42.4974545" lon="13.1345183"><ele>847.0</ele><time>2026-04-10T14:16:45.605Z</time></trkpt><trkpt lat="42.4974488" lon="13.1347022"><ele>847.0</ele><time>2026-04-10T14:16:46.616Z</time></trkpt><trkpt lat="42.4974822" lon="13.1348754"><ele>847.0</ele><time>2026-04-10T14:16:47.618Z</time></trkpt><trkpt lat="42.4975405" lon="13.1349714"><ele>847.0</ele><time>2026-04-10T14:16:48.62Z</time></trkpt><trkpt lat="42.4976702" lon="13.1350838"><ele>846.3333333333333</ele><time>2026-04-10T14:16:49.59Z</time></trkpt><trkpt lat="42.4978225" lon="13.1351477"><ele>845.6666666666667</ele><time>2026-04-10T14:16:50.601Z</time></trkpt><trkpt lat="42.4979945" lon="13.1352003"><ele>845.0</ele><time>2026-04-10T14:16:51.593Z</time></trkpt><trkpt lat="42.4981354" lon="13.135278"><ele>845.0</ele><time>2026-04-10T14:16:52.599Z</time></trkpt><trkpt lat="42.4982803" lon="13.1353548"><ele>845.0</ele><time>2026-04-10T14:16:53.604Z</time></trkpt><trkpt lat="42.4984301" lon="13.1354416"><ele>845.0</ele><time>2026-04-10T14:16:54.596Z</time></trkpt><trkpt lat="42.4985594" lon="13.1355389"><ele>846.0</ele><time>2026-04-10T14:16:55.614Z</time></trkpt><trkpt lat="42.4986765" lon="13.1357218"><ele>847.0</ele><time>2026-04-10T14:16:56.604Z</time></trkpt><trkpt lat="42.4987811" lon="13.1359002"><ele>848.0</ele><time>2026-04-10T14:16:57.601Z</time></trkpt><trkpt lat="42.4988759" lon="13.1361021"><ele>848.0</ele><time>2026-04-10T14:16:58.597Z</time></trkpt><trkpt lat="42.4989764" lon="13.136315"><ele>848.0</ele><time>2026-04-10T14:16:59.612Z</time></trkpt><trkpt lat="42.4990939" lon="13.1365122"><ele>848.0</ele><time>2026-04-10T14:17:00.607Z</time></trkpt><trkpt lat="42.4991961" lon="13.1367117"><ele>853.3333333333334</ele><time>2026-04-10T14:17:01.612Z</time></trkpt><trkpt lat="42.4993136" lon="13.1369056"><ele>858.6666666666667</ele><time>2026-04-10T14:17:02.609Z</time></trkpt><trkpt lat="42.4994176" lon="13.137087"><ele>864.0</ele><time>2026-04-10T14:17:03.614Z</time></trkpt><trkpt lat="42.4995237" lon="13.1372742"><ele>863.0</ele><time>2026-04-10T14:17:04.613Z</time></trkpt><trkpt lat="42.499635" lon="13.1374589"><ele>862.0</ele><time>2026-04-10T14:17:05.608Z</time></trkpt><trkpt lat="42.4997341" lon="13.1376286"><ele>861.0</ele><time>2026-04-10T14:17:06.612Z</time></trkpt><trkpt lat="42.4998227" lon="13.1378065"><ele>861.0</ele><time>2026-04-10T14:17:07.61Z</time></trkpt><trkpt lat="42.4998859" lon="13.1379638"><ele>861.0</ele><time>2026-04-10T14:17:08.616Z</time></trkpt><trkpt lat="42.4999379" lon="13.1381421"><ele>861.0</ele><time>2026-04-10T14:17:09.61Z</time></trkpt><trkpt lat="42.4999602" lon="13.1383114"><ele>861.0</ele><time>2026-04-10T14:17:10.611Z</time></trkpt><trkpt lat="42.4999889" lon="13.1384281"><ele>863.0</ele><time>2026-04-10T14:17:11.611Z</time></trkpt><trkpt lat="42.5000216" lon="13.1385486"><ele>865.0</ele><time>2026-04-10T14:17:12.608Z</time></trkpt><trkpt lat="42.5000395" lon="13.1386355"><ele>867.0</ele><time>2026-04-10T14:17:13.62Z</time></trkpt><trkpt lat="42.5" lon="13.1387421"><ele>869.0</ele><time>2026-04-10T14:17:15.592Z</time></trkpt><trkpt lat="42.4999233" lon="13.1387641"><ele>871.0</ele><time>2026-04-10T14:17:17.613Z</time></trkpt><trkpt lat="42.4998311" lon="13.1386611"><ele>873.0</ele><time>2026-04-10T14:17:19.604Z</time></trkpt><trkpt lat="42.4997991" lon="13.1385526"><ele>873.0</ele><time>2026-04-10T14:17:20.592Z</time></trkpt><trkpt lat="42.4997732" lon="13.1384107"><ele>873.0</ele><time>2026-04-10T14:17:21.582Z</time></trkpt><trkpt lat="42.4997555" lon="13.1382554"><ele>873.0</ele><time>2026-04-10T14:17:22.574Z</time></trkpt><trkpt lat="42.499719" lon="13.1381127"><ele>873.0</ele><time>2026-04-10T14:17:23.576Z</time></trkpt><trkpt lat="42.499688" lon="13.1379836"><ele>873.0</ele><time>2026-04-10T14:17:24.582Z</time></trkpt><trkpt lat="42.4996331" lon="13.1378645"><ele>876.5</ele><time>2026-04-10T14:17:25.58Z</time></trkpt><trkpt lat="42.4995454" lon="13.1377608"><ele>880.0</ele><time>2026-04-10T14:17:26.571Z</time></trkpt><trkpt lat="42.499436" lon="13.1376674"><ele>883.5</ele><time>2026-04-10T14:17:27.568Z</time></trkpt><trkpt lat="42.4993169" lon="13.1375712"><ele>887.0</ele><time>2026-04-10T14:17:28.565Z</time></trkpt><trkpt lat="42.4991832" lon="13.1374827"><ele>887.0</ele><time>2026-04-10T14:17:29.565Z</time></trkpt><trkpt lat="42.4990137" lon="13.1374137"><ele>887.0</ele><time>2026-04-10T14:17:30.563Z</time></trkpt><trkpt lat="42.4988594" lon="13.1373242"><ele>887.0</ele><time>2026-04-10T14:17:31.561Z</time></trkpt><trkpt lat="42.4987049" lon="13.1372245"><ele>885.0</ele><time>2026-04-10T14:17:32.567Z</time></trkpt><trkpt lat="42.4985449" lon="13.137181"><ele>883.0</ele><time>2026-04-10T14:17:33.573Z</time></trkpt><trkpt lat="42.4984021" lon="13.1371212"><ele>881.0</ele><time>2026-04-10T14:17:34.576Z</time></trkpt><trkpt lat="42.498247" lon="13.1370749"><ele>881.0</ele><time>2026-04-10T14:17:35.577Z</time></trkpt><trkpt lat="42.4980994" lon="13.1370702"><ele>881.0</ele><time>2026-04-10T14:17:36.581Z</time></trkpt><trkpt lat="42.4979566" lon="13.1370714"><ele>881.0</ele><time>2026-04-10T14:17:37.58Z</time></trkpt><trkpt lat="42.4978301" lon="13.1370275"><ele>881.0</ele><time>2026-04-10T14:17:38.583Z</time></trkpt><trkpt lat="42.4977115" lon="13.1369219"><ele>879.3333333333334</ele><time>2026-04-10T14:17:39.576Z</time></trkpt><trkpt lat="42.4975968" lon="13.1367452"><ele>877.6666666666667</ele><time>2026-04-10T14:17:40.573Z</time></trkpt><trkpt lat="42.4974984" lon="13.1366172"><ele>876.0</ele><time>2026-04-10T14:17:41.575Z</time></trkpt><trkpt lat="42.4973717" lon="13.1364824"><ele>876.0</ele><time>2026-04-10T14:17:42.582Z</time></trkpt><trkpt lat="42.4972203" lon="13.1363661"><ele>876.0</ele><time>2026-04-10T14:17:43.594Z</time></trkpt><trkpt lat="42.4970691" lon="13.1362616"><ele>876.0</ele><time>2026-04-10T14:17:44.599Z</time></trkpt><trkpt lat="42.496924" lon="13.1361428"><ele>883.0</ele><time>2026-04-10T14:17:45.596Z</time></trkpt><trkpt lat="42.4967815" lon="13.1360202"><ele>890.0</ele><time>2026-04-10T14:17:46.595Z</time></trkpt><trkpt lat="42.4966426" lon="13.1358757"><ele>897.0</ele><time>2026-04-10T14:17:47.59Z</time></trkpt><trkpt lat="42.496521" lon="13.1358157"><ele>897.0</ele><time>2026-04-10T14:17:48.586Z</time></trkpt><trkpt lat="42.496371" lon="13.1357619"><ele>897.0</ele><time>2026-04-10T14:17:49.593Z</time></trkpt><trkpt lat="42.4962174" lon="13.1357609"><ele>897.0</ele><time>2026-04-10T14:17:50.603Z</time></trkpt><trkpt lat="42.496013" lon="13.1357587"><ele>902.0</ele><time>2026-04-10T14:17:51.583Z</time></trkpt><trkpt lat="42.4958204" lon="13.1357513"><ele>907.0</ele><time>2026-04-10T14:17:52.588Z</time></trkpt><trkpt lat="42.4956648" lon="13.1357294"><ele>912.0</ele><time>2026-04-10T14:17:53.584Z</time></trkpt><trkpt lat="42.4955161" lon="13.1357635"><ele>914.25</ele><time>2026-04-10T14:17:54.577Z</time></trkpt><trkpt lat="42.4953777" lon="13.1357982"><ele>916.5</ele><time>2026-04-10T14:17:55.576Z</time></trkpt><trkpt lat="42.4952645" lon="13.1358348"><ele>918.75</ele><time>2026-04-10T14:17:56.587Z</time></trkpt><trkpt lat="42.4951985" lon="13.1359375"><ele>921.0</ele><time>2026-04-10T14:17:58.588Z</time></trkpt><trkpt lat="42.4952101" lon="13.1360736"><ele>921.0</ele><time>2026-04-10T14:18:00.582Z</time></trkpt><trkpt lat="42.4952644" lon="13.1361252"><ele>920.9999999999999</ele><time>2026-04-10T14:18:01.591Z</time></trkpt><trkpt lat="42.495371" lon="13.1361361"><ele>920.9999999999999</ele><time>2026-04-10T14:18:03.578Z</time></trkpt><trkpt lat="42.4954555" lon="13.1361204"><ele>921.0</ele><time>2026-04-10T14:18:04.577Z</time></trkpt><trkpt lat="42.495568" lon="13.1360956"><ele>921.0</ele><time>2026-04-10T14:18:05.573Z</time></trkpt><trkpt lat="42.4956942" lon="13.1360763"><ele>918.75</ele><time>2026-04-10T14:18:06.582Z</time></trkpt><trkpt lat="42.4958159" lon="13.1360859"><ele>916.5</ele><time>2026-04-10T14:18:07.58Z</time></trkpt><trkpt lat="42.4959423" lon="13.1361033"><ele>914.25</ele><time>2026-04-10T14:18:08.592Z</time></trkpt><trkpt lat="42.496079" lon="13.136126"><ele>912.0</ele><time>2026-04-10T14:18:09.592Z</time></trkpt><trkpt lat="42.4962035" lon="13.1361663"><ele>908.25</ele><time>2026-04-10T14:18:10.6Z</time></trkpt><trkpt lat="42.4963182" lon="13.1362204"><ele>904.5</ele><time>2026-04-10T14:18:11.601Z</time></trkpt><trkpt lat="42.4964329" lon="13.1362964"><ele>900.75</ele><time>2026-04-10T14:18:12.592Z</time></trkpt><trkpt lat="42.4965438" lon="13.136385"><ele>897.0</ele><time>2026-04-10T14:18:13.593Z</time></trkpt><trkpt lat="42.4966377" lon="13.1365029"><ele>906.3333333333333</ele><time>2026-04-10T14:18:14.594Z</time></trkpt><trkpt lat="42.4967295" lon="13.1366551"><ele>915.6666666666666</ele><time>2026-04-10T14:18:15.604Z</time></trkpt><trkpt lat="42.4968303" lon="13.1368252"><ele>925.0</ele><time>2026-04-10T14:18:16.599Z</time></trkpt><trkpt lat="42.4969417" lon="13.1370122"><ele>925.0</ele><time>2026-04-10T14:18:17.598Z</time></trkpt><trkpt lat="42.4970666" lon="13.1371438"><ele>925.0</ele><time>2026-04-10T14:18:18.591Z</time></trkpt><trkpt lat="42.4971862" lon="13.1372947"><ele>925.0</ele><time>2026-04-10T14:18:19.585Z</time></trkpt><trkpt lat="42.4972854" lon="13.1374715"><ele>926.3333333333333</ele><time>2026-04-10T14:18:20.587Z</time></trkpt><trkpt lat="42.4974075" lon="13.1376736"><ele>927.6666666666667</ele><time>2026-04-10T14:18:21.575Z</time></trkpt><trkpt lat="42.4975439" lon="13.1378735"><ele>929.0</ele><time>2026-04-10T14:18:22.59Z</time></trkpt><trkpt lat="42.4976787" lon="13.1380808"><ele>928.6666666666667</ele><time>2026-04-10T14:18:23.58Z</time></trkpt><trkpt lat="42.4978157" lon="13.1382729"><ele>928.3333333333333</ele><time>2026-04-10T14:18:24.577Z</time></trkpt><trkpt lat="42.4979378" lon="13.1384296"><ele>928.0</ele><time>2026-04-10T14:18:25.575Z</time></trkpt><trkpt lat="42.4980325" lon="13.138587"><ele>928.0</ele><time>2026-04-10T14:18:26.578Z</time></trkpt><trkpt lat="42.4981514" lon="13.13873"><ele>928.0</ele><time>2026-04-10T14:18:27.568Z</time></trkpt><trkpt lat="42.4982817" lon="13.138844"><ele>928.0</ele><time>2026-04-10T14:18:28.563Z</time></trkpt><trkpt lat="42.4984285" lon="13.1389422"><ele>927.25</ele><time>2026-04-10T14:18:29.566Z</time></trkpt><trkpt lat="42.4985613" lon="13.139058"><ele>926.5</ele><time>2026-04-10T14:18:30.569Z</time></trkpt><trkpt lat="42.4986755" lon="13.139174"><ele>925.75</ele><time>2026-04-10T14:18:31.568Z</time></trkpt><trkpt lat="42.4987629" lon="13.1392876"><ele>925.0</ele><time>2026-04-10T14:18:32.579Z</time></trkpt><trkpt lat="42.4988185" lon="13.139436"><ele>925.0</ele><time>2026-04-10T14:18:33.58Z</time></trkpt><trkpt lat="42.4988652" lon="13.1396106"><ele>925.0</ele><time>2026-04-10T14:18:34.59Z</time></trkpt><trkpt lat="42.4988935" lon="13.1397996"><ele>925.0</ele><time>2026-04-10T14:18:35.587Z</time></trkpt><trkpt lat="42.4989375" lon="13.1399774"><ele>925.0</ele><time>2026-04-10T14:18:36.587Z</time></trkpt><trkpt lat="42.4989292" lon="13.1401536"><ele>926.1666666666666</ele><time>2026-04-10T14:18:37.588Z</time></trkpt><trkpt lat="42.4989081" lon="13.1402667"><ele>927.3333333333333</ele><time>2026-04-10T14:18:38.589Z</time></trkpt><trkpt lat="42.4988843" lon="13.1403583"><ele>928.5</ele><time>2026-04-10T14:18:39.587Z</time></trkpt><trkpt lat="42.4988398" lon="13.1404275"><ele>929.6666666666667</ele><time>2026-04-10T14:18:40.582Z</time></trkpt><trkpt lat="42.498756" lon="13.1404427"><ele>930.8333333333334</ele><time>2026-04-10T14:18:41.577Z</time></trkpt><trkpt lat="42.4986726" lon="13.1404458"><ele>932.0</ele><time>2026-04-10T14:18:42.574Z</time></trkpt><trkpt lat="42.4985779" lon="13.1404117"><ele>936.5</ele><time>2026-04-10T14:18:43.577Z</time></trkpt><trkpt lat="42.498493" lon="13.1403475"><ele>941.0</ele><time>2026-04-10T14:18:44.57Z</time></trkpt><trkpt lat="42.4983974" lon="13.1402452"><ele>945.5</ele><time>2026-04-10T14:18:45.55Z</time></trkpt><trkpt lat="42.4983087" lon="13.1401176"><ele>950.0</ele><time>2026-04-10T14:18:46.56Z</time></trkpt><trkpt lat="42.4982128" lon="13.1399413"><ele>949.3333333333334</ele><time>2026-04-10T14:18:47.548Z</time></trkpt><trkpt lat="42.4981126" lon="13.1397619"><ele>948.6666666666667</ele><time>2026-04-10T14:18:48.564Z</time></trkpt><trkpt lat="42.4979394" lon="13.1395351"><ele>948.0</ele><time>2026-04-10T14:18:49.559Z</time></trkpt><trkpt lat="42.497778" lon="13.1393009"><ele>949.6666666666667</ele><time>2026-04-10T14:18:50.565Z</time></trkpt><trkpt lat="42.4976354" lon="13.1390693"><ele>951.3333333333334</ele><time>2026-04-10T14:18:51.585Z</time></trkpt><trkpt lat="42.4974743" lon="13.1388588"><ele>953.0</ele><time>2026-04-10T14:18:52.57Z</time></trkpt><trkpt lat="42.4973363" lon="13.1386521"><ele>953.0</ele><time>2026-04-10T14:18:53.569Z</time></trkpt><trkpt lat="42.4972512" lon="13.1384903"><ele>953.0</ele><time>2026-04-10T14:18:54.576Z</time></trkpt><trkpt lat="42.4971415" lon="13.1383137"><ele>953.0</ele><time>2026-04-10T14:18:55.568Z</time></trkpt><trkpt lat="42.4969653" lon="13.138157"><ele>953.6666666666667</ele><time>2026-04-10T14:18:56.568Z</time></trkpt><trkpt lat="42.4967803" lon="13.1380432"><ele>954.3333333333333</ele><time>2026-04-10T14:18:57.565Z</time></trkpt><trkpt lat="42.4965838" lon="13.1379565"><ele>955.0</ele><time>2026-04-10T14:18:58.571Z</time></trkpt><trkpt lat="42.4964123" lon="13.13782"><ele>955.0</ele><time>2026-04-10T14:18:59.562Z</time></trkpt><trkpt lat="42.496307" lon="13.1376208"><ele>955.0</ele><time>2026-04-10T14:19:00.563Z</time></trkpt><trkpt lat="42.4962395" lon="13.1374917"><ele>955.0</ele><time>2026-04-10T14:19:01.563Z</time></trkpt><trkpt lat="42.4961535" lon="13.1373918"><ele>955.0</ele><time>2026-04-10T14:19:02.58Z</time></trkpt><trkpt lat="42.4960466" lon="13.1373376"><ele>951.75</ele><time>2026-04-10T14:19:03.575Z</time></trkpt><trkpt lat="42.4959217" lon="13.1373057"><ele>948.5</ele><time>2026-04-10T14:19:04.573Z</time></trkpt><trkpt lat="42.4957874" lon="13.1372961"><ele>945.25</ele><time>2026-04-10T14:19:05.577Z</time></trkpt><trkpt lat="42.4956559" lon="13.137321"><ele>942.0</ele><time>2026-04-10T14:19:06.58Z</time></trkpt><trkpt lat="42.4955057" lon="13.1373321"><ele>944.25</ele><time>2026-04-10T14:19:07.582Z</time></trkpt><trkpt lat="42.4953884" lon="13.1373371"><ele>946.5</ele><time>2026-04-10T14:19:08.582Z</time></trkpt><trkpt lat="42.495269" lon="13.137362"><ele>948.75</ele><time>2026-04-10T14:19:09.576Z</time></trkpt><trkpt lat="42.4951255" lon="13.1374428"><ele>951.0</ele><time>2026-04-10T14:19:10.576Z</time></trkpt><trkpt lat="42.4949935" lon="13.1375679"><ele>958.0</ele><time>2026-04-10T14:19:11.575Z</time></trkpt><trkpt lat="42.4948997" lon="13.1377735"><ele>965.0</ele><time>2026-04-10T14:19:12.577Z</time></trkpt><trkpt lat="42.4947968" lon="13.1378746"><ele>972.0</ele><time>2026-04-10T14:19:13.583Z</time></trkpt><trkpt lat="42.4946887" lon="13.1379564"><ele>979.0</ele><time>2026-04-10T14:19:14.582Z</time></trkpt><trkpt lat="42.4945815" lon="13.1380179"><ele>980.6</ele><time>2026-04-10T14:19:15.58Z</time></trkpt><trkpt lat="42.4944802" lon="13.1380797"><ele>982.2</ele><time>2026-04-10T14:19:16.578Z</time></trkpt><trkpt lat="42.4943866" lon="13.1380938"><ele>983.8000000000001</ele><time>2026-04-10T14:19:17.586Z</time></trkpt><trkpt lat="42.4943185" lon="13.1381187"><ele>985.4000000000001</ele><time>2026-04-10T14:19:18.578Z</time></trkpt><trkpt lat="42.4942375" lon="13.138118"><ele>987.0</ele><time>2026-04-10T14:19:20.574Z</time></trkpt><trkpt lat="42.4941601" lon="13.1379764"><ele>987.0</ele><time>2026-04-10T14:19:22.604Z</time></trkpt><trkpt lat="42.4941188" lon="13.1378881"><ele>987.0</ele><time>2026-04-10T14:19:24.615Z</time></trkpt><trkpt lat="42.4940655" lon="13.1378356"><ele>987.0</ele><time>2026-04-10T14:19:42.607Z</time></trkpt><trkpt lat="42.4939808" lon="13.1378071"><ele>987.0</ele><time>2026-04-10T14:19:44.6Z</time></trkpt><trkpt lat="42.4939118" lon="13.1377582"><ele>987.0</ele><time>2026-04-10T14:19:45.581Z</time></trkpt><trkpt lat="42.4938142" lon="13.1376973"><ele>987.0</ele><time>2026-04-10T14:19:46.574Z</time></trkpt><trkpt lat="42.4937083" lon="13.1376221"><ele>987.25</ele><time>2026-04-10T14:19:47.578Z</time></trkpt><trkpt lat="42.4935772" lon="13.1375641"><ele>987.5</ele><time>2026-04-10T14:19:48.572Z</time></trkpt><trkpt lat="42.4934337" lon="13.1374994"><ele>987.75</ele><time>2026-04-10T14:19:49.573Z</time></trkpt><trkpt lat="42.4932957" lon="13.137441"><ele>988.0</ele><time>2026-04-10T14:19:50.57Z</time></trkpt><trkpt lat="42.4931441" lon="13.1373649"><ele>988.0</ele><time>2026-04-10T14:19:51.564Z</time></trkpt><trkpt lat="42.492972" lon="13.1372591"><ele>988.0</ele><time>2026-04-10T14:19:52.562Z</time></trkpt><trkpt lat="42.4928399" lon="13.1371171"><ele>988.0</ele><time>2026-04-10T14:19:53.573Z</time></trkpt><trkpt lat="42.4926988" lon="13.1370027"><ele>993.25</ele><time>2026-04-10T14:19:54.556Z</time></trkpt><trkpt lat="42.4925336" lon="13.1368503"><ele>998.5</ele><time>2026-04-10T14:19:55.556Z</time></trkpt><trkpt lat="42.49246" lon="13.1368138"><ele>1003.75</ele><time>2026-04-10T14:19:56.56Z</time></trkpt><trkpt lat="42.4923528" lon="13.1367732"><ele>1009.0</ele><time>2026-04-10T14:19:58.564Z</time></trkpt><trkpt lat="42.4922091" lon="13.1367201"><ele>1012.25</ele><time>2026-04-10T14:19:59.556Z</time></trkpt><trkpt lat="42.4920805" lon="13.13667"><ele>1015.5</ele><time>2026-04-10T14:20:00.555Z</time></trkpt><trkpt lat="42.4919658" lon="13.1367041"><ele>1018.75</ele><time>2026-04-10T14:20:01.555Z</time></trkpt><trkpt lat="42.4918251" lon="13.1366956"><ele>1022.0</ele><time>2026-04-10T14:20:02.559Z</time></trkpt><trkpt lat="42.4917148" lon="13.1367176"><ele>1022.0</ele><time>2026-04-10T14:20:03.564Z</time></trkpt><trkpt lat="42.4916238" lon="13.1367591"><ele>1022.0</ele><time>2026-04-10T14:20:04.565Z</time></trkpt><trkpt lat="42.4915136" lon="13.1367894"><ele>1022.0</ele><time>2026-04-10T14:20:05.568Z</time></trkpt><trkpt lat="42.491381" lon="13.136798"><ele>1022.0</ele><time>2026-04-10T14:20:06.563Z</time></trkpt><trkpt lat="42.4912562" lon="13.1367961"><ele>1025.6</ele><time>2026-04-10T14:20:07.558Z</time></trkpt><trkpt lat="42.4911425" lon="13.1367828"><ele>1029.2</ele><time>2026-04-10T14:20:08.56Z</time></trkpt><trkpt lat="42.4910337" lon="13.1367516"><ele>1032.8</ele><time>2026-04-10T14:20:09.562Z</time></trkpt><trkpt lat="42.4909239" lon="13.1367205"><ele>1036.4</ele><time>2026-04-10T14:20:10.565Z</time></trkpt><trkpt lat="42.490819" lon="13.1367241"><ele>1040.0</ele><time>2026-04-10T14:20:11.567Z</time></trkpt><trkpt lat="42.4907211" lon="13.1367433"><ele>1040.0</ele><time>2026-04-10T14:20:12.566Z</time></trkpt><trkpt lat="42.4906324" lon="13.1367426"><ele>1040.0</ele><time>2026-04-10T14:20:13.568Z</time></trkpt><trkpt lat="42.4905415" lon="13.1367002"><ele>1040.0</ele><time>2026-04-10T14:20:14.571Z</time></trkpt><trkpt lat="42.4904627" lon="13.1366211"><ele>1040.0</ele><time>2026-04-10T14:20:15.563Z</time></trkpt><trkpt lat="42.490376" lon="13.1365217"><ele>1040.0</ele><time>2026-04-10T14:20:16.566Z</time></trkpt><trkpt lat="42.4902977" lon="13.1363955"><ele>1045.0</ele><time>2026-04-10T14:20:17.568Z</time></trkpt><trkpt lat="42.4902221" lon="13.1362491"><ele>1050.0</ele><time>2026-04-10T14:20:18.566Z</time></trkpt><trkpt lat="42.4901529" lon="13.136085"><ele>1055.0</ele><time>2026-04-10T14:20:19.574Z</time></trkpt><trkpt lat="42.4900992" lon="13.1359347"><ele>1060.0</ele><time>2026-04-10T14:20:20.568Z</time></trkpt><trkpt lat="42.4900586" lon="13.1357921"><ele>1060.4</ele><time>2026-04-10T14:20:21.572Z</time></trkpt><trkpt lat="42.4900413" lon="13.1356591"><ele>1060.8</ele><time>2026-04-10T14:20:22.578Z</time></trkpt><trkpt lat="42.4900457" lon="13.1355296"><ele>1061.2</ele><time>2026-04-10T14:20:23.568Z</time></trkpt><trkpt lat="42.4900795" lon="13.1354011"><ele>1061.6</ele><time>2026-04-10T14:20:24.585Z</time></trkpt><trkpt lat="42.4901293" lon="13.1352916"><ele>1062.0</ele><time>2026-04-10T14:20:25.575Z</time></trkpt><trkpt lat="42.4901764" lon="13.1351769"><ele>1062.0</ele><time>2026-04-10T14:20:26.586Z</time></trkpt><trkpt lat="42.4902341" lon="13.1350599"><ele>1062.0</ele><time>2026-04-10T14:20:27.588Z</time></trkpt><trkpt lat="42.4902879" lon="13.1349173"><ele>1062.0</ele><time>2026-04-10T14:20:28.584Z</time></trkpt><trkpt lat="42.4903294" lon="13.1347737"><ele>1062.0</ele><time>2026-04-10T14:20:29.588Z</time></trkpt><trkpt lat="42.4903484" lon="13.1346315"><ele>1062.0</ele><time>2026-04-10T14:20:30.591Z</time></trkpt><trkpt lat="42.4903634" lon="13.1344923"><ele>1062.5</ele><time>2026-04-10T14:20:31.592Z</time></trkpt><trkpt lat="42.4903616" lon="13.1343831"><ele>1063.0</ele><time>2026-04-10T14:20:32.595Z</time></trkpt><trkpt lat="42.4903297" lon="13.1342885"><ele>1063.5</ele><time>2026-04-10T14:20:33.59Z</time></trkpt><trkpt lat="42.4902857" lon="13.1342152"><ele>1064.0</ele><time>2026-04-10T14:20:34.604Z</time></trkpt><trkpt lat="42.4902323" lon="13.1341114"><ele>1064.5</ele><time>2026-04-10T14:20:35.594Z</time></trkpt><trkpt lat="42.4901945" lon="13.134001"><ele>1065.0</ele><time>2026-04-10T14:20:36.598Z</time></trkpt><trkpt lat="42.4901681" lon="13.1338747"><ele>1065.0</ele><time>2026-04-10T14:20:37.602Z</time></trkpt><trkpt lat="42.4901356" lon="13.1337402"><ele>1065.0</ele><time>2026-04-10T14:20:38.605Z</time></trkpt><trkpt lat="42.4900977" lon="13.1336028"><ele>1065.0</ele><time>2026-04-10T14:20:39.599Z</time></trkpt><trkpt lat="42.4900257" lon="13.133462"><ele>1065.0</ele><time>2026-04-10T14:20:40.596Z</time></trkpt><trkpt lat="42.4899469" lon="13.1333475"><ele>1065.0</ele><time>2026-04-10T14:20:41.601Z</time></trkpt><trkpt lat="42.489856" lon="13.1332384"><ele>1065.0</ele><time>2026-04-10T14:20:42.609Z</time></trkpt><trkpt lat="42.4897693" lon="13.13314"><ele>1065.0</ele><time>2026-04-10T14:20:43.609Z</time></trkpt><trkpt lat="42.489675" lon="13.1330162"><ele>1065.0</ele><time>2026-04-10T14:20:44.61Z</time></trkpt><trkpt lat="42.4895914" lon="13.1328881"><ele>1068.25</ele><time>2026-04-10T14:20:45.609Z</time></trkpt><trkpt lat="42.4895157" lon="13.1327588"><ele>1071.5</ele><time>2026-04-10T14:20:46.61Z</time></trkpt><trkpt lat="42.4894517" lon="13.1326276"><ele>1074.75</ele><time>2026-04-10T14:20:47.611Z</time></trkpt><trkpt lat="42.4893966" lon="13.1324812"><ele>1078.0</ele><time>2026-04-10T14:20:48.604Z</time></trkpt><trkpt lat="42.4893639" lon="13.1323236"><ele>1078.0</ele><time>2026-04-10T14:20:49.596Z</time></trkpt><trkpt lat="42.4893504" lon="13.1321268"><ele>1078.0</ele><time>2026-04-10T14:20:50.618Z</time></trkpt><trkpt lat="42.4893432" lon="13.1319302"><ele>1078.0</ele><time>2026-04-10T14:20:51.616Z</time></trkpt><trkpt lat="42.489324" lon="13.1317509"><ele>1078.0</ele><time>2026-04-10T14:20:52.618Z</time></trkpt><trkpt lat="42.4893123" lon="13.1315884"><ele>1077.5</ele><time>2026-04-10T14:20:53.608Z</time></trkpt><trkpt lat="42.4893236" lon="13.1314614"><ele>1077.0</ele><time>2026-04-10T14:20:54.616Z</time></trkpt><trkpt lat="42.4893156" lon="13.1313302"><ele>1076.5</ele><time>2026-04-10T14:20:55.62Z</time></trkpt><trkpt lat="42.489281" lon="13.1311838"><ele>1076.0</ele><time>2026-04-10T14:20:56.604Z</time></trkpt><trkpt lat="42.4892108" lon="13.1310113"><ele>1076.0</ele><time>2026-04-10T14:20:57.603Z</time></trkpt><trkpt lat="42.4891271" lon="13.1308544"><ele>1076.0</ele><time>2026-04-10T14:20:58.605Z</time></trkpt><trkpt lat="42.4890499" lon="13.130684"><ele>1076.0</ele><time>2026-04-10T14:20:59.608Z</time></trkpt><trkpt lat="42.4889988" lon="13.1305309"><ele>1076.0</ele><time>2026-04-10T14:21:00.606Z</time></trkpt><trkpt lat="42.4889604" lon="13.1303599"><ele>1075.5</ele><time>2026-04-10T14:21:01.604Z</time></trkpt><trkpt lat="42.4889037" lon="13.1302038"><ele>1075.0</ele><time>2026-04-10T14:21:02.605Z</time></trkpt><trkpt lat="42.4888446" lon="13.1300663"><ele>1074.5</ele><time>2026-04-10T14:21:03.598Z</time></trkpt><trkpt lat="42.4887508" lon="13.129918"><ele>1074.0</ele><time>2026-04-10T14:21:04.6Z</time></trkpt><trkpt lat="42.4886585" lon="13.129806"><ele>1074.0</ele><time>2026-04-10T14:21:05.607Z</time></trkpt><trkpt lat="42.4885588" lon="13.1296948"><ele>1074.0</ele><time>2026-04-10T14:21:06.608Z</time></trkpt><trkpt lat="42.488462" lon="13.1296133"><ele>1074.0</ele><time>2026-04-10T14:21:07.61Z</time></trkpt><trkpt lat="42.4883363" lon="13.1295411"><ele>1074.0</ele><time>2026-04-10T14:21:08.605Z</time></trkpt><trkpt lat="42.4882107" lon="13.1295079"><ele>1074.0</ele><time>2026-04-10T14:21:09.601Z</time></trkpt><trkpt lat="42.4880958" lon="13.1294973"><ele>1074.0</ele><time>2026-04-10T14:21:10.604Z</time></trkpt><trkpt lat="42.4879922" lon="13.1295116"><ele>1074.0</ele><time>2026-04-10T14:21:11.606Z</time></trkpt><trkpt lat="42.4878968" lon="13.1295358"><ele>1074.0</ele><time>2026-04-10T14:21:12.611Z</time></trkpt><trkpt lat="42.4877832" lon="13.1295796"><ele>1074.0</ele><time>2026-04-10T14:21:13.611Z</time></trkpt><trkpt lat="42.4876547" lon="13.1296145"><ele>1078.0</ele><time>2026-04-10T14:21:14.611Z</time></trkpt><trkpt lat="42.4875189" lon="13.1296363"><ele>1082.0</ele><time>2026-04-10T14:21:15.609Z</time></trkpt><trkpt lat="42.4874062" lon="13.1296412"><ele>1086.0</ele><time>2026-04-10T14:21:16.599Z</time></trkpt><trkpt lat="42.4872733" lon="13.1296275"><ele>1090.0</ele><time>2026-04-10T14:21:17.606Z</time></trkpt><trkpt lat="42.4871582" lon="13.129591"><ele>1093.25</ele><time>2026-04-10T14:21:18.597Z</time></trkpt><trkpt lat="42.4870517" lon="13.1295377"><ele>1096.5</ele><time>2026-04-10T14:21:19.588Z</time></trkpt><trkpt lat="42.4869658" lon="13.1294573"><ele>1099.75</ele><time>2026-04-10T14:21:20.595Z</time></trkpt><trkpt lat="42.4869039" lon="13.1293436"><ele>1103.0</ele><time>2026-04-10T14:21:21.593Z</time></trkpt><trkpt lat="42.4868327" lon="13.1291871"><ele>1103.75</ele><time>2026-04-10T14:21:22.584Z</time></trkpt><trkpt lat="42.4867766" lon="13.1290237"><ele>1104.5</ele><time>2026-04-10T14:21:23.589Z</time></trkpt><trkpt lat="42.4867313" lon="13.1288685"><ele>1105.25</ele><time>2026-04-10T14:21:24.587Z</time></trkpt><trkpt lat="42.4867424" lon="13.1287032"><ele>1106.0</ele><time>2026-04-10T14:21:25.594Z</time></trkpt><trkpt lat="42.4867709" lon="13.1285459"><ele>1106.0</ele><time>2026-04-10T14:21:26.598Z</time></trkpt><trkpt lat="42.486807" lon="13.1284165"><ele>1106.0</ele><time>2026-04-10T14:21:27.581Z</time></trkpt><trkpt lat="42.4868331" lon="13.1282947"><ele>1106.0</ele><time>2026-04-10T14:21:28.583Z</time></trkpt><trkpt lat="42.4868188" lon="13.1281949"><ele>1106.0</ele><time>2026-04-10T14:21:29.58Z</time></trkpt><trkpt lat="42.4867792" lon="13.1280994"><ele>1106.0</ele><time>2026-04-10T14:21:30.582Z</time></trkpt><trkpt lat="42.4867367" lon="13.128015"><ele>1106.0</ele><time>2026-04-10T14:21:31.573Z</time></trkpt><trkpt lat="42.4866551" lon="13.1279808"><ele>1107.3999999999999</ele><time>2026-04-10T14:21:32.58Z</time></trkpt><trkpt lat="42.4865507" lon="13.1279718"><ele>1108.8</ele><time>2026-04-10T14:21:33.578Z</time></trkpt><trkpt lat="42.4864356" lon="13.1279898"><ele>1110.1999999999998</ele><time>2026-04-10T14:21:34.589Z</time></trkpt><trkpt lat="42.4863455" lon="13.1280083"><ele>1111.6</ele><time>2026-04-10T14:21:35.592Z</time></trkpt><trkpt lat="42.4862735" lon="13.1279748"><ele>1113.0</ele><time>2026-04-10T14:21:36.592Z</time></trkpt><trkpt lat="42.4862013" lon="13.127934"><ele>1113.0</ele><time>2026-04-10T14:21:37.589Z</time></trkpt><trkpt lat="42.4861491" lon="13.1278378"><ele>1113.0</ele><time>2026-04-10T14:21:38.591Z</time></trkpt><trkpt lat="42.4860922" lon="13.1277076"><ele>1113.0</ele><time>2026-04-10T14:21:39.585Z</time></trkpt><trkpt lat="42.4860209" lon="13.1275884"><ele>1113.0</ele><time>2026-04-10T14:21:40.584Z</time></trkpt><trkpt lat="42.4859349" lon="13.1274917"><ele>1113.0</ele><time>2026-04-10T14:21:41.584Z</time></trkpt><trkpt lat="42.4858226" lon="13.1274324"><ele>1115.25</ele><time>2026-04-10T14:21:42.586Z</time></trkpt><trkpt lat="42.4857125" lon="13.1273785"><ele>1117.5</ele><time>2026-04-10T14:21:43.6Z</time></trkpt><trkpt lat="42.4856242" lon="13.1272933"><ele>1119.75</ele><time>2026-04-10T14:21:44.61Z</time></trkpt><trkpt lat="42.4855415" lon="13.1271725"><ele>1122.0</ele><time>2026-04-10T14:21:45.596Z</time></trkpt><trkpt lat="42.4854831" lon="13.1270137"><ele>1122.0</ele><time>2026-04-10T14:21:46.603Z</time></trkpt><trkpt lat="42.4854471" lon="13.126831"><ele>1122.0</ele><time>2026-04-10T14:21:47.587Z</time></trkpt><trkpt lat="42.4854316" lon="13.1266434"><ele>1122.0</ele><time>2026-04-10T14:21:48.594Z</time></trkpt><trkpt lat="42.4854427" lon="13.1264573"><ele>1122.0</ele><time>2026-04-10T14:21:49.6Z</time></trkpt><trkpt lat="42.4854989" lon="13.1262646"><ele>1121.25</ele><time>2026-04-10T14:21:50.595Z</time></trkpt><trkpt lat="42.4856185" lon="13.1261032"><ele>1120.5</ele><time>2026-04-10T14:21:51.591Z</time></trkpt><trkpt lat="42.4856916" lon="13.1259294"><ele>1119.75</ele><time>2026-04-10T14:21:52.589Z</time></trkpt><trkpt lat="42.4857595" lon="13.1257772"><ele>1119.0</ele><time>2026-04-10T14:21:53.59Z</time></trkpt><trkpt lat="42.4858107" lon="13.125616"><ele>1117.75</ele><time>2026-04-10T14:21:54.585Z</time></trkpt><trkpt lat="42.4858455" lon="13.1254454"><ele>1116.5</ele><time>2026-04-10T14:21:55.591Z</time></trkpt><trkpt lat="42.4858375" lon="13.1252787"><ele>1115.25</ele><time>2026-04-10T14:21:56.594Z</time></trkpt><trkpt lat="42.4858283" lon="13.125146"><ele>1114.0</ele><time>2026-04-10T14:21:57.613Z</time></trkpt><trkpt lat="42.4858106" lon="13.1250047"><ele>1113.75</ele><time>2026-04-10T14:21:58.599Z</time></trkpt><trkpt lat="42.485792" lon="13.1248465"><ele>1113.5</ele><time>2026-04-10T14:21:59.606Z</time></trkpt><trkpt lat="42.4857911" lon="13.1246961"><ele>1113.25</ele><time>2026-04-10T14:22:00.6Z</time></trkpt><trkpt lat="42.4857928" lon="13.1245486"><ele>1113.0</ele><time>2026-04-10T14:22:01.597Z</time></trkpt><trkpt lat="42.4857949" lon="13.124394"><ele>1113.0</ele><time>2026-04-10T14:22:02.601Z</time></trkpt><trkpt lat="42.4858037" lon="13.1242287"><ele>1113.0</ele><time>2026-04-10T14:22:03.602Z</time></trkpt><trkpt lat="42.4858105" lon="13.1240744"><ele>1113.0</ele><time>2026-04-10T14:22:04.602Z</time></trkpt><trkpt lat="42.4858179" lon="13.1239141"><ele>1113.0</ele><time>2026-04-10T14:22:05.604Z</time></trkpt><trkpt lat="42.4858292" lon="13.1237415"><ele>1112.25</ele><time>2026-04-10T14:22:06.597Z</time></trkpt><trkpt lat="42.4858546" lon="13.1235654"><ele>1111.5</ele><time>2026-04-10T14:22:07.598Z</time></trkpt><trkpt lat="42.4859054" lon="13.1233819"><ele>1110.75</ele><time>2026-04-10T14:22:08.6Z</time></trkpt><trkpt lat="42.4859856" lon="13.1232042"><ele>1110.0</ele><time>2026-04-10T14:22:09.602Z</time></trkpt><trkpt lat="42.4860896" lon="13.123032"><ele>1109.0</ele><time>2026-04-10T14:22:10.595Z</time></trkpt><trkpt lat="42.4861442" lon="13.1228648"><ele>1108.0</ele><time>2026-04-10T14:22:11.595Z</time></trkpt><trkpt lat="42.4861989" lon="13.1227189"><ele>1107.0</ele><time>2026-04-10T14:22:12.594Z</time></trkpt><trkpt lat="42.4862951" lon="13.1226269"><ele>1106.0</ele><time>2026-04-10T14:22:13.594Z</time></trkpt><trkpt lat="42.4863892" lon="13.1225338"><ele>1109.0</ele><time>2026-04-10T14:22:14.596Z</time></trkpt><trkpt lat="42.4864634" lon="13.1224427"><ele>1112.0</ele><time>2026-04-10T14:22:15.597Z</time></trkpt><trkpt lat="42.4865064" lon="13.1223066"><ele>1115.0</ele><time>2026-04-10T14:22:16.589Z</time></trkpt><trkpt lat="42.4865158" lon="13.1221904"><ele>1118.0</ele><time>2026-04-10T14:22:17.595Z</time></trkpt><trkpt lat="42.4865041" lon="13.1220726"><ele>1121.0</ele><time>2026-04-10T14:22:18.585Z</time></trkpt><trkpt lat="42.486449" lon="13.1219728"><ele>1120.2</ele><time>2026-04-10T14:22:19.587Z</time></trkpt><trkpt lat="42.4863853" lon="13.1218485"><ele>1119.3999999999999</ele><time>2026-04-10T14:22:20.593Z</time></trkpt><trkpt lat="42.4863399" lon="13.1217085"><ele>1118.6</ele><time>2026-04-10T14:22:21.592Z</time></trkpt><trkpt lat="42.4863122" lon="13.1215893"><ele>1117.8</ele><time>2026-04-10T14:22:22.6Z</time></trkpt><trkpt lat="42.4862865" lon="13.1214925"><ele>1117.0</ele><time>2026-04-10T14:22:23.597Z</time></trkpt><trkpt lat="42.4862506" lon="13.1214101"><ele>1117.0</ele><time>2026-04-10T14:22:24.604Z</time></trkpt><trkpt lat="42.4861957" lon="13.1213237"><ele>1117.0</ele><time>2026-04-10T14:22:25.601Z</time></trkpt><trkpt lat="42.486142" lon="13.1212414"><ele>1117.0</ele><time>2026-04-10T14:22:26.602Z</time></trkpt><trkpt lat="42.4860833" lon="13.1211555"><ele>1117.0</ele><time>2026-04-10T14:22:27.607Z</time></trkpt><trkpt lat="42.4860318" lon="13.1210826"><ele>1117.0</ele><time>2026-04-10T14:22:28.619Z</time></trkpt><trkpt lat="42.4859758" lon="13.1209977"><ele>1117.0</ele><time>2026-04-10T14:22:30.601Z</time></trkpt><trkpt lat="42.4859236" lon="13.1209035"><ele>1117.0</ele><time>2026-04-10T14:22:32.615Z</time></trkpt><trkpt lat="42.485875" lon="13.1208269"><ele>1117.0</ele><time>2026-04-10T14:22:35.618Z</time></trkpt><trkpt lat="42.4858465" lon="13.1207266"><ele>1117.0</ele><time>2026-04-10T14:22:39.612Z</time></trkpt><trkpt lat="42.4858219" lon="13.1206407"><ele>1117.0</ele><time>2026-04-10T14:23:33.623Z</time></trkpt><trkpt lat="42.4857821" lon="13.1205196"><ele>1117.0</ele><time>2026-04-10T14:26:27.609Z</time></trkpt><trkpt lat="42.4857571" lon="13.1204009"><ele>1117.0</ele><time>2026-04-10T14:26:28.596Z</time></trkpt><trkpt lat="42.4857208" lon="13.1202559"><ele>1119.0</ele><time>2026-04-10T14:26:29.605Z</time></trkpt><trkpt lat="42.485675" lon="13.1200702"><ele>1121.0</ele><time>2026-04-10T14:26:30.597Z</time></trkpt><trkpt lat="42.4856056" lon="13.1198938"><ele>1123.0</ele><time>2026-04-10T14:26:31.603Z</time></trkpt><trkpt lat="42.4855197" lon="13.1197251"><ele>1125.0</ele><time>2026-04-10T14:26:32.598Z</time></trkpt><trkpt lat="42.4854449" lon="13.1195709"><ele>1120.25</ele><time>2026-04-10T14:26:33.594Z</time></trkpt><trkpt lat="42.4853884" lon="13.1194176"><ele>1115.5</ele><time>2026-04-10T14:26:34.593Z</time></trkpt><trkpt lat="42.4853482" lon="13.1192699"><ele>1110.75</ele><time>2026-04-10T14:26:35.605Z</time></trkpt><trkpt lat="42.4853241" lon="13.1191188"><ele>1106.0</ele><time>2026-04-10T14:26:36.607Z</time></trkpt><trkpt lat="42.4853087" lon="13.1189492"><ele>1105.25</ele><time>2026-04-10T14:26:37.596Z</time></trkpt><trkpt lat="42.485308" lon="13.1187581"><ele>1104.5</ele><time>2026-04-10T14:26:38.59Z</time></trkpt><trkpt lat="42.4853024" lon="13.1185543"><ele>1103.75</ele><time>2026-04-10T14:26:39.595Z</time></trkpt><trkpt lat="42.4852991" lon="13.1183497"><ele>1103.0</ele><time>2026-04-10T14:26:40.598Z</time></trkpt><trkpt lat="42.4852951" lon="13.1181323"><ele>1101.3333333333335</ele><time>2026-04-10T14:26:41.593Z</time></trkpt><trkpt lat="42.4853008" lon="13.1179164"><ele>1099.6666666666667</ele><time>2026-04-10T14:26:42.594Z</time></trkpt><trkpt lat="42.4853142" lon="13.1177158"><ele>1098.0</ele><time>2026-04-10T14:26:43.59Z</time></trkpt><trkpt lat="42.4853073" lon="13.1175014"><ele>1099.0</ele><time>2026-04-10T14:26:44.591Z</time></trkpt><trkpt lat="42.4852607" lon="13.1172969"><ele>1100.0</ele><time>2026-04-10T14:26:45.585Z</time></trkpt><trkpt lat="42.4852255" lon="13.1171022"><ele>1101.0</ele><time>2026-04-10T14:26:46.596Z</time></trkpt><trkpt lat="42.4851847" lon="13.1168985"><ele>1101.0</ele><time>2026-04-10T14:26:47.59Z</time></trkpt><trkpt lat="42.4851305" lon="13.116697"><ele>1101.0</ele><time>2026-04-10T14:26:48.584Z</time></trkpt><trkpt lat="42.4850922" lon="13.1165113"><ele>1101.0</ele><time>2026-04-10T14:26:49.591Z</time></trkpt><trkpt lat="42.4850716" lon="13.1163401"><ele>1101.0</ele><time>2026-04-10T14:26:50.586Z</time></trkpt><trkpt lat="42.4850712" lon="13.1161821"><ele>1099.0</ele><time>2026-04-10T14:26:51.592Z</time></trkpt><trkpt lat="42.4850978" lon="13.1160231"><ele>1097.0</ele><time>2026-04-10T14:26:52.603Z</time></trkpt><trkpt lat="42.4851346" lon="13.1158792"><ele>1095.0</ele><time>2026-04-10T14:26:53.597Z</time></trkpt><trkpt lat="42.4852424" lon="13.1157544"><ele>1093.0</ele><time>2026-04-10T14:26:54.588Z</time></trkpt><trkpt lat="42.4853477" lon="13.1156343"><ele>1090.25</ele><time>2026-04-10T14:26:55.586Z</time></trkpt><trkpt lat="42.4854621" lon="13.1155292"><ele>1087.5</ele><time>2026-04-10T14:26:56.586Z</time></trkpt><trkpt lat="42.4856008" lon="13.1154578"><ele>1084.75</ele><time>2026-04-10T14:26:57.581Z</time></trkpt><trkpt lat="42.4857367" lon="13.1154434"><ele>1082.0</ele><time>2026-04-10T14:26:58.598Z</time></trkpt><trkpt lat="42.4858462" lon="13.1154572"><ele>1082.0</ele><time>2026-04-10T14:26:59.603Z</time></trkpt><trkpt lat="42.48595" lon="13.1155584"><ele>1082.0</ele><time>2026-04-10T14:27:00.595Z</time></trkpt><trkpt lat="42.4860559" lon="13.1156602"><ele>1082.0</ele><time>2026-04-10T14:27:01.599Z</time></trkpt><trkpt lat="42.4861874" lon="13.1157633"><ele>1082.0</ele><time>2026-04-10T14:27:02.599Z</time></trkpt><trkpt lat="42.4863207" lon="13.1158627"><ele>1087.0</ele><time>2026-04-10T14:27:03.607Z</time></trkpt><trkpt lat="42.4864511" lon="13.1159264"><ele>1092.0</ele><time>2026-04-10T14:27:04.599Z</time></trkpt><trkpt lat="42.4865965" lon="13.1159883"><ele>1097.0</ele><time>2026-04-10T14:27:05.604Z</time></trkpt><trkpt lat="42.4867433" lon="13.1160515"><ele>1102.0</ele><time>2026-04-10T14:27:06.613Z</time></trkpt><trkpt lat="42.4868902" lon="13.1161258"><ele>1102.0</ele><time>2026-04-10T14:27:07.605Z</time></trkpt><trkpt lat="42.4870382" lon="13.1161924"><ele>1102.0</ele><time>2026-04-10T14:27:08.614Z</time></trkpt><trkpt lat="42.4871632" lon="13.1162564"><ele>1102.0</ele><time>2026-04-10T14:27:09.615Z</time></trkpt><trkpt lat="42.4872924" lon="13.1163115"><ele>1102.0</ele><time>2026-04-10T14:27:10.609Z</time></trkpt><trkpt lat="42.487404" lon="13.1163548"><ele>1102.2</ele><time>2026-04-10T14:27:11.66Z</time></trkpt><trkpt lat="42.4875082" lon="13.116403"><ele>1102.4</ele><time>2026-04-10T14:27:12.696Z</time></trkpt><trkpt lat="42.4876036" lon="13.1164623"><ele>1102.6</ele><time>2026-04-10T14:27:13.697Z</time></trkpt><trkpt lat="42.4876839" lon="13.1165177"><ele>1102.8</ele><time>2026-04-10T14:27:14.712Z</time></trkpt><trkpt lat="42.4877513" lon="13.1165701"><ele>1103.0</ele><time>2026-04-10T14:27:15.698Z</time></trkpt><trkpt lat="42.4878219" lon="13.1166463"><ele>1103.0</ele><time>2026-04-10T14:27:17.602Z</time></trkpt><trkpt lat="42.4879097" lon="13.1165734"><ele>1103.0</ele><time>2026-04-10T14:27:19.593Z</time></trkpt><trkpt lat="42.4878906" lon="13.1164628"><ele>1103.0</ele><time>2026-04-10T14:27:21.605Z</time></trkpt><trkpt lat="42.4877947" lon="13.116347"><ele>1103.0</ele><time>2026-04-10T14:27:23.602Z</time></trkpt><trkpt lat="42.4877339" lon="13.1162546"><ele>1103.0</ele><time>2026-04-10T14:27:24.603Z</time></trkpt><trkpt lat="42.487683" lon="13.1161389"><ele>1103.0</ele><time>2026-04-10T14:27:25.602Z</time></trkpt><trkpt lat="42.4876334" lon="13.1159898"><ele>1103.0</ele><time>2026-04-10T14:27:26.598Z</time></trkpt><trkpt lat="42.4875885" lon="13.1158502"><ele>1103.0</ele><time>2026-04-10T14:27:27.608Z</time></trkpt><trkpt lat="42.4875396" lon="13.1156967"><ele>1103.0</ele><time>2026-04-10T14:27:28.601Z</time></trkpt><trkpt lat="42.4874891" lon="13.1155405"><ele>1103.0</ele><time>2026-04-10T14:27:29.606Z</time></trkpt><trkpt lat="42.4874342" lon="13.1153899"><ele>1103.0</ele><time>2026-04-10T14:27:30.599Z</time></trkpt><trkpt lat="42.4873652" lon="13.1152612"><ele>1103.0</ele><time>2026-04-10T14:27:31.604Z</time></trkpt><trkpt lat="42.4872822" lon="13.1151373"><ele>1103.0</ele><time>2026-04-10T14:27:32.587Z</time></trkpt><trkpt lat="42.4871891" lon="13.1150188"><ele>1103.0</ele><time>2026-04-10T14:27:33.59Z</time></trkpt><trkpt lat="42.4871105" lon="13.114904"><ele>1103.0</ele><time>2026-04-10T14:27:34.592Z</time></trkpt><trkpt lat="42.4870415" lon="13.1147888"><ele>1103.0</ele><time>2026-04-10T14:27:35.586Z</time></trkpt><trkpt lat="42.4869843" lon="13.1146427"><ele>1103.0</ele><time>2026-04-10T14:27:36.598Z</time></trkpt><trkpt lat="42.486948" lon="13.1144762"><ele>1096.0</ele><time>2026-04-10T14:27:37.597Z</time></trkpt><trkpt lat="42.4869242" lon="13.114297"><ele>1089.0</ele><time>2026-04-10T14:27:38.589Z</time></trkpt><trkpt lat="42.48692" lon="13.1141186"><ele>1082.0</ele><time>2026-04-10T14:27:39.595Z</time></trkpt><trkpt lat="42.486931" lon="13.1139499"><ele>1075.0</ele><time>2026-04-10T14:27:40.594Z</time></trkpt><trkpt lat="42.4869667" lon="13.1137967"><ele>1076.75</ele><time>2026-04-10T14:27:41.588Z</time></trkpt><trkpt lat="42.4870289" lon="13.1136477"><ele>1078.5</ele><time>2026-04-10T14:27:42.604Z</time></trkpt><trkpt lat="42.4871183" lon="13.1135193"><ele>1080.25</ele><time>2026-04-10T14:27:43.592Z</time></trkpt><trkpt lat="42.4872404" lon="13.1133873"><ele>1082.0</ele><time>2026-04-10T14:27:44.591Z</time></trkpt><trkpt lat="42.4873719" lon="13.1132626"><ele>1078.0</ele><time>2026-04-10T14:27:45.588Z</time></trkpt><trkpt lat="42.4875124" lon="13.1131387"><ele>1074.0</ele><time>2026-04-10T14:27:46.586Z</time></trkpt><trkpt lat="42.4876236" lon="13.1130411"><ele>1070.0</ele><time>2026-04-10T14:27:47.596Z</time></trkpt><trkpt lat="42.4877306" lon="13.112976"><ele>1066.0</ele><time>2026-04-10T14:27:48.593Z</time></trkpt><trkpt lat="42.4878101" lon="13.1128915"><ele>1066.0</ele><time>2026-04-10T14:27:49.595Z</time></trkpt><trkpt lat="42.4878605" lon="13.1127876"><ele>1066.0</ele><time>2026-04-10T14:27:50.607Z</time></trkpt><trkpt lat="42.4878707" lon="13.1126396"><ele>1066.0</ele><time>2026-04-10T14:27:51.602Z</time></trkpt><trkpt lat="42.4878419" lon="13.1124727"><ele>1066.0</ele><time>2026-04-10T14:27:52.596Z</time></trkpt><trkpt lat="42.4878061" lon="13.1123445"><ele>1066.0</ele><time>2026-04-10T14:27:53.595Z</time></trkpt><trkpt lat="42.4877527" lon="13.1122058"><ele>1065.8</ele><time>2026-04-10T14:27:54.599Z</time></trkpt><trkpt lat="42.4876829" lon="13.1120779"><ele>1065.6</ele><time>2026-04-10T14:27:55.6Z</time></trkpt><trkpt lat="42.4876341" lon="13.1119453"><ele>1065.4</ele><time>2026-04-10T14:27:56.6Z</time></trkpt><trkpt lat="42.4875802" lon="13.1118254"><ele>1065.2</ele><time>2026-04-10T14:27:57.593Z</time></trkpt><trkpt lat="42.4875219" lon="13.1117215"><ele>1065.0</ele><time>2026-04-10T14:27:58.601Z</time></trkpt><trkpt lat="42.4874578" lon="13.1116769"><ele>1065.0</ele><time>2026-04-10T14:27:59.598Z</time></trkpt><trkpt lat="42.4873512" lon="13.1117687"><ele>1065.0</ele><time>2026-04-10T14:28:01.598Z</time></trkpt><trkpt lat="42.4873227" lon="13.1118713"><ele>1065.0</ele><time>2026-04-10T14:28:02.596Z</time></trkpt><trkpt lat="42.487329" lon="13.1119783"><ele>1065.0</ele><time>2026-04-10T14:28:03.584Z</time></trkpt><trkpt lat="42.4873827" lon="13.1121064"><ele>1065.0</ele><time>2026-04-10T14:28:04.588Z</time></trkpt><trkpt lat="42.4874622" lon="13.112265"><ele>1065.25</ele><time>2026-04-10T14:28:05.583Z</time></trkpt><trkpt lat="42.4875176" lon="13.1124335"><ele>1065.5</ele><time>2026-04-10T14:28:06.588Z</time></trkpt><trkpt lat="42.4875141" lon="13.1125934"><ele>1065.75</ele><time>2026-04-10T14:28:07.583Z</time></trkpt><trkpt lat="42.4874746" lon="13.1127146"><ele>1066.0</ele><time>2026-04-10T14:28:08.592Z</time></trkpt><trkpt lat="42.4873846" lon="13.1128048"><ele>1066.0</ele><time>2026-04-10T14:28:09.582Z</time></trkpt><trkpt lat="42.487268" lon="13.1128719"><ele>1066.0</ele><time>2026-04-10T14:28:10.58Z</time></trkpt><trkpt lat="42.487122" lon="13.1129311"><ele>1066.0</ele><time>2026-04-10T14:28:11.588Z</time></trkpt><trkpt lat="42.4869625" lon="13.1129892"><ele>1066.0</ele><time>2026-04-10T14:28:12.588Z</time></trkpt><trkpt lat="42.486788" lon="13.1130382"><ele>1063.3333333333333</ele><time>2026-04-10T14:28:13.591Z</time></trkpt><trkpt lat="42.4866303" lon="13.1131161"><ele>1060.6666666666667</ele><time>2026-04-10T14:28:14.592Z</time></trkpt><trkpt lat="42.4864944" lon="13.1131951"><ele>1058.0</ele><time>2026-04-10T14:28:15.593Z</time></trkpt><trkpt lat="42.4863632" lon="13.1132809"><ele>1058.0</ele><time>2026-04-10T14:28:16.582Z</time></trkpt><trkpt lat="42.4862679" lon="13.1133807"><ele>1058.0</ele><time>2026-04-10T14:28:17.592Z</time></trkpt><trkpt lat="42.4862205" lon="13.1134848"><ele>1058.0</ele><time>2026-04-10T14:28:18.587Z</time></trkpt><trkpt lat="42.4862052" lon="13.1136251"><ele>1058.0</ele><time>2026-04-10T14:28:19.587Z</time></trkpt><trkpt lat="42.4862278" lon="13.113779"><ele>1058.0</ele><time>2026-04-10T14:28:20.589Z</time></trkpt><trkpt lat="42.4862388" lon="13.1139304"><ele>1056.8333333333335</ele><time>2026-04-10T14:28:21.586Z</time></trkpt><trkpt lat="42.486202" lon="13.1140291"><ele>1055.6666666666667</ele><time>2026-04-10T14:28:22.59Z</time></trkpt><trkpt lat="42.4861311" lon="13.1140763"><ele>1054.5</ele><time>2026-04-10T14:28:23.587Z</time></trkpt><trkpt lat="42.4860547" lon="13.114108"><ele>1053.3333333333333</ele><time>2026-04-10T14:28:24.583Z</time></trkpt><trkpt lat="42.485965" lon="13.1141093"><ele>1052.1666666666665</ele><time>2026-04-10T14:28:25.579Z</time></trkpt><trkpt lat="42.4858597" lon="13.1140661"><ele>1051.0</ele><time>2026-04-10T14:28:26.586Z</time></trkpt><trkpt lat="42.4857364" lon="13.1140002"><ele>1047.0</ele><time>2026-04-10T14:28:27.581Z</time></trkpt><trkpt lat="42.4856042" lon="13.1139633"><ele>1043.0</ele><time>2026-04-10T14:28:28.581Z</time></trkpt><trkpt lat="42.4854706" lon="13.1139629"><ele>1039.0</ele><time>2026-04-10T14:28:29.597Z</time></trkpt><trkpt lat="42.485336" lon="13.114011"><ele>1035.0</ele><time>2026-04-10T14:28:30.59Z</time></trkpt><trkpt lat="42.4852028" lon="13.1141053"><ele>1035.0</ele><time>2026-04-10T14:28:31.589Z</time></trkpt><trkpt lat="42.4850626" lon="13.1142189"><ele>1035.0</ele><time>2026-04-10T14:28:32.584Z</time></trkpt><trkpt lat="42.4849347" lon="13.1143035"><ele>1035.0</ele><time>2026-04-10T14:28:33.588Z</time></trkpt><trkpt lat="42.4847985" lon="13.1142873"><ele>1035.0</ele><time>2026-04-10T14:28:34.589Z</time></trkpt><trkpt lat="42.4846521" lon="13.1142684"><ele>1033.0</ele><time>2026-04-10T14:28:35.581Z</time></trkpt><trkpt lat="42.4844951" lon="13.1142379"><ele>1031.0</ele><time>2026-04-10T14:28:36.591Z</time></trkpt><trkpt lat="42.4843548" lon="13.1142174"><ele>1029.0</ele><time>2026-04-10T14:28:37.593Z</time></trkpt><trkpt lat="42.4842196" lon="13.1141978"><ele>1027.0</ele><time>2026-04-10T14:28:38.592Z</time></trkpt><trkpt lat="42.4840832" lon="13.1141714"><ele>1027.0</ele><time>2026-04-10T14:28:39.603Z</time></trkpt><trkpt lat="42.4839513" lon="13.1141465"><ele>1027.0</ele><time>2026-04-10T14:28:40.595Z</time></trkpt><trkpt lat="42.4838067" lon="13.1140892"><ele>1027.0</ele><time>2026-04-10T14:28:41.594Z</time></trkpt><trkpt lat="42.4836675" lon="13.1140616"><ele>1027.0</ele><time>2026-04-10T14:28:42.592Z</time></trkpt><trkpt lat="42.4835385" lon="13.1140679"><ele>1025.4</ele><time>2026-04-10T14:28:43.594Z</time></trkpt><trkpt lat="42.483405" lon="13.1140666"><ele>1023.8000000000001</ele><time>2026-04-10T14:28:44.6Z</time></trkpt><trkpt lat="42.4832858" lon="13.1140502"><ele>1022.2</ele><time>2026-04-10T14:28:45.604Z</time></trkpt><trkpt lat="42.4832092" lon="13.1140312"><ele>1020.6</ele><time>2026-04-10T14:28:46.603Z</time></trkpt><trkpt lat="42.4831475" lon="13.1140097"><ele>1019.0</ele><time>2026-04-10T14:28:47.598Z</time></trkpt><trkpt lat="42.4831089" lon="13.113838"><ele>1019.0000000000001</ele><time>2026-04-10T14:28:49.601Z</time></trkpt><trkpt lat="42.4831139" lon="13.1137139"><ele>1019.0</ele><time>2026-04-10T14:28:50.593Z</time></trkpt><trkpt lat="42.4831135" lon="13.1135991"><ele>1019.0</ele><time>2026-04-10T14:28:51.594Z</time></trkpt><trkpt lat="42.4831179" lon="13.1134913"><ele>1019.0</ele><time>2026-04-10T14:28:52.596Z</time></trkpt><trkpt lat="42.4831096" lon="13.1133872"><ele>1019.0000000000001</ele><time>2026-04-10T14:28:53.593Z</time></trkpt><trkpt lat="42.4830917" lon="13.1133015"><ele>1019.0</ele><time>2026-04-10T14:28:54.588Z</time></trkpt><trkpt lat="42.4831145" lon="13.1131809"><ele>1019.0000000000001</ele><time>2026-04-10T14:28:56.584Z</time></trkpt><trkpt lat="42.4831867" lon="13.1131439"><ele>1019.0</ele><time>2026-04-10T14:28:58.6Z</time></trkpt><trkpt lat="42.4832864" lon="13.1131377"><ele>1019.0</ele><time>2026-04-10T14:29:00.597Z</time></trkpt><trkpt lat="42.4833542" lon="13.1131435"><ele>1019.0</ele><time>2026-04-10T14:29:01.593Z</time></trkpt><trkpt lat="42.483445" lon="13.1131263"><ele>1019.0000000000001</ele><time>2026-04-10T14:29:02.586Z</time></trkpt><trkpt lat="42.4835378" lon="13.1131035"><ele>1019.0</ele><time>2026-04-10T14:29:03.588Z</time></trkpt><trkpt lat="42.4836186" lon="13.1130815"><ele>1019.0</ele><time>2026-04-10T14:29:04.599Z</time></trkpt><trkpt lat="42.4837255" lon="13.1130611"><ele>1019.0</ele><time>2026-04-10T14:29:05.591Z</time></trkpt><trkpt lat="42.4838369" lon="13.1130333"><ele>1019.0</ele><time>2026-04-10T14:29:06.598Z</time></trkpt><trkpt lat="42.483952" lon="13.1129979"><ele>1019.0</ele><time>2026-04-10T14:29:07.594Z</time></trkpt><trkpt lat="42.4840667" lon="13.1129538"><ele>1017.0</ele><time>2026-04-10T14:29:08.601Z</time></trkpt><trkpt lat="42.4841935" lon="13.1128918"><ele>1015.0</ele><time>2026-04-10T14:29:09.604Z</time></trkpt><trkpt lat="42.4843181" lon="13.1128234"><ele>1013.0</ele><time>2026-04-10T14:29:10.615Z</time></trkpt><trkpt lat="42.4844409" lon="13.1127483"><ele>1011.0</ele><time>2026-04-10T14:29:11.604Z</time></trkpt><trkpt lat="42.4845561" lon="13.1126643"><ele>1010.5</ele><time>2026-04-10T14:29:12.601Z</time></trkpt><trkpt lat="42.4846635" lon="13.1125882"><ele>1010.0</ele><time>2026-04-10T14:29:13.603Z</time></trkpt><trkpt lat="42.4847708" lon="13.1125047"><ele>1009.5</ele><time>2026-04-10T14:29:14.608Z</time></trkpt><trkpt lat="42.4848914" lon="13.1124182"><ele>1009.0</ele><time>2026-04-10T14:29:15.603Z</time></trkpt><trkpt lat="42.4850206" lon="13.1123374"><ele>1008.3333333333333</ele><time>2026-04-10T14:29:16.601Z</time></trkpt><trkpt lat="42.4851611" lon="13.112246"><ele>1007.6666666666667</ele><time>2026-04-10T14:29:17.602Z</time></trkpt><trkpt lat="42.4853184" lon="13.1121435"><ele>1007.0</ele><time>2026-04-10T14:29:18.602Z</time></trkpt><trkpt lat="42.4854716" lon="13.1120387"><ele>1006.6666666666667</ele><time>2026-04-10T14:29:19.629Z</time></trkpt><trkpt lat="42.4856329" lon="13.1119341"><ele>1006.3333333333333</ele><time>2026-04-10T14:29:20.692Z</time></trkpt><trkpt lat="42.4857923" lon="13.11183"><ele>1006.0</ele><time>2026-04-10T14:29:21.694Z</time></trkpt><trkpt lat="42.4859463" lon="13.1117314"><ele>1006.0</ele><time>2026-04-10T14:29:22.692Z</time></trkpt><trkpt lat="42.4860908" lon="13.1116378"><ele>1006.0</ele><time>2026-04-10T14:29:23.686Z</time></trkpt><trkpt lat="42.4862292" lon="13.1115479"><ele>1006.0</ele><time>2026-04-10T14:29:24.684Z</time></trkpt><trkpt lat="42.4863587" lon="13.1114511"><ele>1010.6666666666666</ele><time>2026-04-10T14:29:25.681Z</time></trkpt><trkpt lat="42.4864732" lon="13.1113208"><ele>1015.3333333333333</ele><time>2026-04-10T14:29:26.676Z</time></trkpt><trkpt lat="42.4865622" lon="13.1111572"><ele>1020.0</ele><time>2026-04-10T14:29:27.684Z</time></trkpt><trkpt lat="42.4866352" lon="13.1109731"><ele>1020.0</ele><time>2026-04-10T14:29:28.665Z</time></trkpt><trkpt lat="42.4867057" lon="13.1107751"><ele>1020.0</ele><time>2026-04-10T14:29:29.665Z</time></trkpt><trkpt lat="42.4867724" lon="13.1105792"><ele>1020.0</ele><time>2026-04-10T14:29:30.657Z</time></trkpt><trkpt lat="42.4868014" lon="13.1103617"><ele>1016.6666666666667</ele><time>2026-04-10T14:29:31.664Z</time></trkpt><trkpt lat="42.486891" lon="13.1101537"><ele>1013.3333333333334</ele><time>2026-04-10T14:29:32.67Z</time></trkpt><trkpt lat="42.4869675" lon="13.1099431"><ele>1010.0</ele><time>2026-04-10T14:29:33.674Z</time></trkpt><trkpt lat="42.4870524" lon="13.1097411"><ele>1013.3333333333334</ele><time>2026-04-10T14:29:34.682Z</time></trkpt><trkpt lat="42.4871544" lon="13.1095573"><ele>1016.6666666666667</ele><time>2026-04-10T14:29:35.682Z</time></trkpt><trkpt lat="42.4872608" lon="13.1093769"><ele>1020.0</ele><time>2026-04-10T14:29:36.677Z</time></trkpt><trkpt lat="42.4873857" lon="13.1092232"><ele>1020.0</ele><time>2026-04-10T14:29:37.662Z</time></trkpt><trkpt lat="42.4875236" lon="13.1091061"><ele>1020.0</ele><time>2026-04-10T14:29:38.659Z</time></trkpt><trkpt lat="42.4876773" lon="13.1090061"><ele>1020.0</ele><time>2026-04-10T14:29:39.658Z</time></trkpt><trkpt lat="42.4878326" lon="13.108917"><ele>1019.0</ele><time>2026-04-10T14:29:40.66Z</time></trkpt><trkpt lat="42.4879765" lon="13.1088306"><ele>1018.0</ele><time>2026-04-10T14:29:41.683Z</time></trkpt><trkpt lat="42.4881045" lon="13.1087306"><ele>1017.0</ele><time>2026-04-10T14:29:42.672Z</time></trkpt><trkpt lat="42.4882108" lon="13.1086097"><ele>1016.0</ele><time>2026-04-10T14:29:43.672Z</time></trkpt><trkpt lat="42.4882876" lon="13.1084677"><ele>1016.0</ele><time>2026-04-10T14:29:44.669Z</time></trkpt><trkpt lat="42.4883845" lon="13.1083492"><ele>1016.0</ele><time>2026-04-10T14:29:45.572Z</time></trkpt><trkpt lat="42.4883803" lon="13.1081851"><ele>1016.0</ele><time>2026-04-10T14:29:46.57Z</time></trkpt><trkpt lat="42.4883868" lon="13.1079929"><ele>1016.0</ele><time>2026-04-10T14:29:47.584Z</time></trkpt><trkpt lat="42.4884086" lon="13.1077897"><ele>1018.0</ele><time>2026-04-10T14:29:48.581Z</time></trkpt><trkpt lat="42.488467" lon="13.1075965"><ele>1020.0</ele><time>2026-04-10T14:29:49.601Z</time></trkpt><trkpt lat="42.4885487" lon="13.1074135"><ele>1022.0</ele><time>2026-04-10T14:29:50.599Z</time></trkpt><trkpt lat="42.4886322" lon="13.107232"><ele>1024.0</ele><time>2026-04-10T14:29:51.602Z</time></trkpt><trkpt lat="42.4887079" lon="13.1070412"><ele>1026.0</ele><time>2026-04-10T14:29:52.597Z</time></trkpt><trkpt lat="42.4887729" lon="13.1068343"><ele>1028.0</ele><time>2026-04-10T14:29:53.607Z</time></trkpt><trkpt lat="42.4888592" lon="13.1066284"><ele>1026.3333333333335</ele><time>2026-04-10T14:29:54.607Z</time></trkpt><trkpt lat="42.488937" lon="13.1064303"><ele>1024.6666666666667</ele><time>2026-04-10T14:29:55.609Z</time></trkpt><trkpt lat="42.4890197" lon="13.1062138"><ele>1023.0</ele><time>2026-04-10T14:29:56.608Z</time></trkpt><trkpt lat="42.4891056" lon="13.106012"><ele>1023.0</ele><time>2026-04-10T14:29:57.608Z</time></trkpt><trkpt lat="42.489175" lon="13.1058058"><ele>1023.0</ele><time>2026-04-10T14:29:58.605Z</time></trkpt><trkpt lat="42.4892516" lon="13.1056177"><ele>1023.0</ele><time>2026-04-10T14:29:59.607Z</time></trkpt><trkpt lat="42.4893589" lon="13.1054752"><ele>1021.75</ele><time>2026-04-10T14:30:00.598Z</time></trkpt><trkpt lat="42.4894323" lon="13.1053292"><ele>1020.5</ele><time>2026-04-10T14:30:01.599Z</time></trkpt><trkpt lat="42.4894485" lon="13.1051766"><ele>1019.25</ele><time>2026-04-10T14:30:02.61Z</time></trkpt><trkpt lat="42.4894347" lon="13.104997"><ele>1018.0</ele><time>2026-04-10T14:30:03.6Z</time></trkpt><trkpt lat="42.489402" lon="13.1047964"><ele>1016.0</ele><time>2026-04-10T14:30:04.6Z</time></trkpt><trkpt lat="42.4893597" lon="13.1045696"><ele>1014.0</ele><time>2026-04-10T14:30:05.606Z</time></trkpt><trkpt lat="42.4893151" lon="13.1043504"><ele>1012.0</ele><time>2026-04-10T14:30:06.61Z</time></trkpt><trkpt lat="42.4892751" lon="13.1041302"><ele>1010.25</ele><time>2026-04-10T14:30:07.606Z</time></trkpt><trkpt lat="42.4892329" lon="13.1039402"><ele>1008.5</ele><time>2026-04-10T14:30:08.608Z</time></trkpt><trkpt lat="42.4891988" lon="13.1037548"><ele>1006.75</ele><time>2026-04-10T14:30:09.61Z</time></trkpt><trkpt lat="42.4891948" lon="13.1035767"><ele>1005.0</ele><time>2026-04-10T14:30:10.611Z</time></trkpt><trkpt lat="42.4892236" lon="13.1033983"><ele>1002.5</ele><time>2026-04-10T14:30:11.608Z</time></trkpt><trkpt lat="42.489263" lon="13.1032238"><ele>1000.0</ele><time>2026-04-10T14:30:12.609Z</time></trkpt><trkpt lat="42.4893443" lon="13.1031025"><ele>997.5</ele><time>2026-04-10T14:30:13.614Z</time></trkpt><trkpt lat="42.4894522" lon="13.1030188"><ele>995.0</ele><time>2026-04-10T14:30:14.607Z</time></trkpt><trkpt lat="42.4895866" lon="13.1029843"><ele>994.6666666666667</ele><time>2026-04-10T14:30:15.61Z</time></trkpt><trkpt lat="42.4897424" lon="13.1029892"><ele>994.3333333333333</ele><time>2026-04-10T14:30:16.601Z</time></trkpt><trkpt lat="42.4898885" lon="13.1029944"><ele>994.0</ele><time>2026-04-10T14:30:17.609Z</time></trkpt><trkpt lat="42.4900493" lon="13.1029794"><ele>994.0</ele><time>2026-04-10T14:30:18.594Z</time></trkpt><trkpt lat="42.4901923" lon="13.1028769"><ele>994.0</ele><time>2026-04-10T14:30:19.607Z</time></trkpt><trkpt lat="42.490329" lon="13.102721"><ele>994.0</ele><time>2026-04-10T14:30:20.598Z</time></trkpt><trkpt lat="42.4904553" lon="13.1025421"><ele>994.0</ele><time>2026-04-10T14:30:21.594Z</time></trkpt><trkpt lat="42.4905952" lon="13.1023765"><ele>994.0</ele><time>2026-04-10T14:30:22.595Z</time></trkpt><trkpt lat="42.4907303" lon="13.1022163"><ele>994.0</ele><time>2026-04-10T14:30:23.585Z</time></trkpt><trkpt lat="42.4908518" lon="13.1020301"><ele>994.0</ele><time>2026-04-10T14:30:24.581Z</time></trkpt><trkpt lat="42.4909329" lon="13.1018163"><ele>994.0</ele><time>2026-04-10T14:30:25.579Z</time></trkpt><trkpt lat="42.4909929" lon="13.1016061"><ele>994.0</ele><time>2026-04-10T14:30:26.589Z</time></trkpt><trkpt lat="42.491049" lon="13.101407"><ele>994.6666666666666</ele><time>2026-04-10T14:30:27.603Z</time></trkpt><trkpt lat="42.4911273" lon="13.1012361"><ele>995.3333333333333</ele><time>2026-04-10T14:30:28.6Z</time></trkpt><trkpt lat="42.4912342" lon="13.1010633"><ele>996.0</ele><time>2026-04-10T14:30:29.61Z</time></trkpt><trkpt lat="42.4913457" lon="13.1008845"><ele>990.3333333333333</ele><time>2026-04-10T14:30:30.605Z</time></trkpt><trkpt lat="42.4914581" lon="13.1006957"><ele>984.6666666666666</ele><time>2026-04-10T14:30:31.599Z</time></trkpt><trkpt lat="42.4915992" lon="13.1005537"><ele>979.0</ele><time>2026-04-10T14:30:32.59Z</time></trkpt><trkpt lat="42.4917307" lon="13.1004378"><ele>979.0</ele><time>2026-04-10T14:30:33.603Z</time></trkpt><trkpt lat="42.4918654" lon="13.1003619"><ele>979.0</ele><time>2026-04-10T14:30:34.602Z</time></trkpt><trkpt lat="42.4920267" lon="13.1002991"><ele>979.0</ele><time>2026-04-10T14:30:35.599Z</time></trkpt><trkpt lat="42.4921619" lon="13.1002236"><ele>981.3333333333333</ele><time>2026-04-10T14:30:36.596Z</time></trkpt><trkpt lat="42.492299" lon="13.1000804"><ele>983.6666666666667</ele><time>2026-04-10T14:30:37.615Z</time></trkpt><trkpt lat="42.4923826" lon="13.0998895"><ele>986.0</ele><time>2026-04-10T14:30:38.595Z</time></trkpt><trkpt lat="42.492465" lon="13.0996936"><ele>986.0</ele><time>2026-04-10T14:30:39.591Z</time></trkpt><trkpt lat="42.4925714" lon="13.0995232"><ele>986.0</ele><time>2026-04-10T14:30:40.59Z</time></trkpt><trkpt lat="42.4926766" lon="13.0993419"><ele>986.0</ele><time>2026-04-10T14:30:41.589Z</time></trkpt><trkpt lat="42.4927915" lon="13.0991672"><ele>979.0</ele><time>2026-04-10T14:30:42.591Z</time></trkpt><trkpt lat="42.4929017" lon="13.0989929"><ele>972.0</ele><time>2026-04-10T14:30:43.601Z</time></trkpt><trkpt lat="42.4930107" lon="13.0988139"><ele>965.0</ele><time>2026-04-10T14:30:44.599Z</time></trkpt><trkpt lat="42.4931396" lon="13.0986399"><ele>972.6666666666667</ele><time>2026-04-10T14:30:45.599Z</time></trkpt><trkpt lat="42.4932252" lon="13.098446"><ele>980.3333333333333</ele><time>2026-04-10T14:30:46.596Z</time></trkpt><trkpt lat="42.4933195" lon="13.0982536"><ele>988.0</ele><time>2026-04-10T14:30:47.6Z</time></trkpt><trkpt lat="42.493409" lon="13.0980624"><ele>988.0</ele><time>2026-04-10T14:30:48.599Z</time></trkpt><trkpt lat="42.493492" lon="13.0978779"><ele>988.0</ele><time>2026-04-10T14:30:49.601Z</time></trkpt><trkpt lat="42.4935815" lon="13.0977104"><ele>988.0</ele><time>2026-04-10T14:30:50.597Z</time></trkpt><trkpt lat="42.4936678" lon="13.0975367"><ele>989.6666666666666</ele><time>2026-04-10T14:30:51.599Z</time></trkpt><trkpt lat="42.4937599" lon="13.0973656"><ele>991.3333333333333</ele><time>2026-04-10T14:30:52.6Z</time></trkpt><trkpt lat="42.493858" lon="13.0972136"><ele>993.0</ele><time>2026-04-10T14:30:53.598Z</time></trkpt><trkpt lat="42.493969" lon="13.0970754"><ele>993.0</ele><time>2026-04-10T14:30:54.599Z</time></trkpt><trkpt lat="42.4940765" lon="13.0969483"><ele>993.0</ele><time>2026-04-10T14:30:55.598Z</time></trkpt><trkpt lat="42.4941978" lon="13.0968643"><ele>993.0</ele><time>2026-04-10T14:30:56.602Z</time></trkpt><trkpt lat="42.4943317" lon="13.0968272"><ele>993.0</ele><time>2026-04-10T14:30:57.596Z</time></trkpt><trkpt lat="42.4944554" lon="13.0968428"><ele>993.0</ele><time>2026-04-10T14:30:58.608Z</time></trkpt><trkpt lat="42.4945526" lon="13.0969572"><ele>993.0</ele><time>2026-04-10T14:30:59.61Z</time></trkpt><trkpt lat="42.4946129" lon="13.0970991"><ele>993.0</ele><time>2026-04-10T14:31:00.602Z</time></trkpt><trkpt lat="42.4946414" lon="13.0972716"><ele>993.0</ele><time>2026-04-10T14:31:01.595Z</time></trkpt><trkpt lat="42.4946752" lon="13.097425"><ele>997.4</ele><time>2026-04-10T14:31:02.582Z</time></trkpt><trkpt lat="42.4947253" lon="13.0975513"><ele>1001.8</ele><time>2026-04-10T14:31:03.583Z</time></trkpt><trkpt lat="42.4947712" lon="13.0976306"><ele>1006.2</ele><time>2026-04-10T14:31:04.601Z</time></trkpt><trkpt lat="42.4948701" lon="13.0976381"><ele>1010.6</ele><time>2026-04-10T14:31:05.6Z</time></trkpt><trkpt lat="42.4949564" lon="13.0975879"><ele>1015.0</ele><time>2026-04-10T14:31:06.595Z</time></trkpt><trkpt lat="42.4950391" lon="13.0975061"><ele>1010.25</ele><time>2026-04-10T14:31:07.594Z</time></trkpt><trkpt lat="42.4951183" lon="13.0973806"><ele>1005.5</ele><time>2026-04-10T14:31:08.597Z</time></trkpt><trkpt lat="42.4951925" lon="13.0972292"><ele>1000.75</ele><time>2026-04-10T14:31:09.581Z</time></trkpt><trkpt lat="42.4952782" lon="13.0970494"><ele>996.0</ele><time>2026-04-10T14:31:10.582Z</time></trkpt><trkpt lat="42.4953383" lon="13.0968379"><ele>996.0</ele><time>2026-04-10T14:31:11.589Z</time></trkpt><trkpt lat="42.4953763" lon="13.0966294"><ele>996.0</ele><time>2026-04-10T14:31:12.589Z</time></trkpt><trkpt lat="42.4954132" lon="13.0964125"><ele>996.0</ele><time>2026-04-10T14:31:13.588Z</time></trkpt><trkpt lat="42.4954514" lon="13.0962069"><ele>993.25</ele><time>2026-04-10T14:31:14.606Z</time></trkpt><trkpt lat="42.4955066" lon="13.0960288"><ele>990.5</ele><time>2026-04-10T14:31:15.592Z</time></trkpt><trkpt lat="42.4955718" lon="13.0958841"><ele>987.75</ele><time>2026-04-10T14:31:16.587Z</time></trkpt><trkpt lat="42.4956719" lon="13.095777"><ele>985.0</ele><time>2026-04-10T14:31:17.592Z</time></trkpt><trkpt lat="42.495774" lon="13.0956296"><ele>985.0</ele><time>2026-04-10T14:31:18.595Z</time></trkpt><trkpt lat="42.4959017" lon="13.0955053"><ele>985.0</ele><time>2026-04-10T14:31:19.595Z</time></trkpt><trkpt lat="42.4960354" lon="13.0953657"><ele>985.0</ele><time>2026-04-10T14:31:20.591Z</time></trkpt><trkpt lat="42.4961698" lon="13.0952297"><ele>987.6666666666666</ele><time>2026-04-10T14:31:21.591Z</time></trkpt><trkpt lat="42.496307" lon="13.0950877"><ele>990.3333333333333</ele><time>2026-04-10T14:31:22.585Z</time></trkpt><trkpt lat="42.4964322" lon="13.0949394"><ele>993.0</ele><time>2026-04-10T14:31:23.589Z</time></trkpt><trkpt lat="42.4965294" lon="13.0947535"><ele>993.0</ele><time>2026-04-10T14:31:24.586Z</time></trkpt><trkpt lat="42.4966344" lon="13.0945461"><ele>993.0</ele><time>2026-04-10T14:31:25.587Z</time></trkpt><trkpt lat="42.4967165" lon="13.0943548"><ele>993.0</ele><time>2026-04-10T14:31:26.605Z</time></trkpt><trkpt lat="42.4968073" lon="13.0941761"><ele>992.0</ele><time>2026-04-10T14:31:27.604Z</time></trkpt><trkpt lat="42.4969084" lon="13.0940075"><ele>991.0</ele><time>2026-04-10T14:31:28.594Z</time></trkpt><trkpt lat="42.4970377" lon="13.0939131"><ele>990.0</ele><time>2026-04-10T14:31:29.598Z</time></trkpt><trkpt lat="42.4971776" lon="13.093867"><ele>990.0</ele><time>2026-04-10T14:31:30.603Z</time></trkpt><trkpt lat="42.4973274" lon="13.0938739"><ele>990.0</ele><time>2026-04-10T14:31:31.605Z</time></trkpt><trkpt lat="42.4974618" lon="13.0938937"><ele>990.0</ele><time>2026-04-10T14:31:32.6Z</time></trkpt><trkpt lat="42.4975964" lon="13.0939128"><ele>990.0</ele><time>2026-04-10T14:31:33.59Z</time></trkpt><trkpt lat="42.4977188" lon="13.0938585"><ele>990.0</ele><time>2026-04-10T14:31:34.627Z</time></trkpt><trkpt lat="42.4978053" lon="13.093704"><ele>990.0</ele><time>2026-04-10T14:31:35.607Z</time></trkpt><trkpt lat="42.4978835" lon="13.0935351"><ele>990.0</ele><time>2026-04-10T14:31:36.596Z</time></trkpt><trkpt lat="42.497963" lon="13.0933714"><ele>990.0</ele><time>2026-04-10T14:31:37.595Z</time></trkpt><trkpt lat="42.4980447" lon="13.0932454"><ele>989.0</ele><time>2026-04-10T14:31:38.601Z</time></trkpt><trkpt lat="42.4981079" lon="13.093165"><ele>988.0</ele><time>2026-04-10T14:31:39.597Z</time></trkpt><trkpt lat="42.4981994" lon="13.0931385"><ele>987.0</ele><time>2026-04-10T14:31:40.596Z</time></trkpt><trkpt lat="42.4982898" lon="13.0931614"><ele>986.0</ele><time>2026-04-10T14:31:41.605Z</time></trkpt><trkpt lat="42.4983661" lon="13.0932645"><ele>985.0</ele><time>2026-04-10T14:31:42.596Z</time></trkpt><trkpt lat="42.4984479" lon="13.0933856"><ele>987.0</ele><time>2026-04-10T14:31:43.594Z</time></trkpt><trkpt lat="42.498534" lon="13.0935292"><ele>989.0</ele><time>2026-04-10T14:31:44.603Z</time></trkpt><trkpt lat="42.4986324" lon="13.0936704"><ele>991.0</ele><time>2026-04-10T14:31:45.626Z</time></trkpt><trkpt lat="42.4987393" lon="13.0938443"><ele>993.0</ele><time>2026-04-10T14:31:46.608Z</time></trkpt><trkpt lat="42.4988777" lon="13.0940917"><ele>993.0</ele><time>2026-04-10T14:31:47.62Z</time></trkpt><trkpt lat="42.4990186" lon="13.0943121"><ele>993.0</ele><time>2026-04-10T14:31:48.621Z</time></trkpt><trkpt lat="42.4991542" lon="13.0945138"><ele>993.0</ele><time>2026-04-10T14:31:49.616Z</time></trkpt><trkpt lat="42.4992823" lon="13.0947114"><ele>993.0</ele><time>2026-04-10T14:31:50.615Z</time></trkpt><trkpt lat="42.4994042" lon="13.0949047"><ele>993.0</ele><time>2026-04-10T14:31:51.611Z</time></trkpt><trkpt lat="42.4995432" lon="13.0950973"><ele>993.0</ele><time>2026-04-10T14:31:52.613Z</time></trkpt><trkpt lat="42.4996939" lon="13.095256"><ele>990.0</ele><time>2026-04-10T14:31:53.615Z</time></trkpt><trkpt lat="42.4998534" lon="13.0953979"><ele>987.0</ele><time>2026-04-10T14:31:54.615Z</time></trkpt><trkpt lat="42.5000067" lon="13.0955485"><ele>984.0</ele><time>2026-04-10T14:31:55.617Z</time></trkpt><trkpt lat="42.5001589" lon="13.0957094"><ele>985.6666666666667</ele><time>2026-04-10T14:31:56.692Z</time></trkpt><trkpt lat="42.5002964" lon="13.0958589"><ele>987.3333333333334</ele><time>2026-04-10T14:31:57.697Z</time></trkpt><trkpt lat="42.5004148" lon="13.0959885"><ele>989.0</ele><time>2026-04-10T14:31:58.688Z</time></trkpt><trkpt lat="42.5005205" lon="13.0960858"><ele>989.0</ele><time>2026-04-10T14:31:59.68Z</time></trkpt><trkpt lat="42.5006136" lon="13.0961413"><ele>989.0000000000001</ele><time>2026-04-10T14:32:00.681Z</time></trkpt><trkpt lat="42.5007082" lon="13.096154"><ele>989.0000000000001</ele><time>2026-04-10T14:32:01.684Z</time></trkpt><trkpt lat="42.5008131" lon="13.0961258"><ele>989.0</ele><time>2026-04-10T14:32:02.664Z</time></trkpt><trkpt lat="42.5008836" lon="13.0960458"><ele>989.0</ele><time>2026-04-10T14:32:03.661Z</time></trkpt><trkpt lat="42.5009382" lon="13.0959372"><ele>985.0</ele><time>2026-04-10T14:32:04.653Z</time></trkpt><trkpt lat="42.5010183" lon="13.0957318"><ele>981.0</ele><time>2026-04-10T14:32:06.579Z</time></trkpt><trkpt lat="42.5011201" lon="13.0956474"><ele>977.0</ele><time>2026-04-10T14:32:07.587Z</time></trkpt><trkpt lat="42.5012425" lon="13.0955882"><ele>973.0</ele><time>2026-04-10T14:32:08.586Z</time></trkpt><trkpt lat="42.501371" lon="13.0955532"><ele>971.0</ele><time>2026-04-10T14:32:09.589Z</time></trkpt><trkpt lat="42.5015097" lon="13.0955586"><ele>969.0</ele><time>2026-04-10T14:32:10.601Z</time></trkpt><trkpt lat="42.501658" lon="13.095596"><ele>967.0</ele><time>2026-04-10T14:32:11.593Z</time></trkpt><trkpt lat="42.501798" lon="13.0956881"><ele>965.0</ele><time>2026-04-10T14:32:12.589Z</time></trkpt><trkpt lat="42.5019296" lon="13.0958117"><ele>966.0</ele><time>2026-04-10T14:32:13.604Z</time></trkpt><trkpt lat="42.5020429" lon="13.095988"><ele>967.0</ele><time>2026-04-10T14:32:14.589Z</time></trkpt><trkpt lat="42.5021531" lon="13.096199"><ele>968.0</ele><time>2026-04-10T14:32:15.594Z</time></trkpt><trkpt lat="42.5022343" lon="13.096381"><ele>968.0</ele><time>2026-04-10T14:32:16.588Z</time></trkpt><trkpt lat="42.5023375" lon="13.0965015"><ele>968.0</ele><time>2026-04-10T14:32:17.586Z</time></trkpt><trkpt lat="42.5024492" lon="13.0965845"><ele>968.0</ele><time>2026-04-10T14:32:18.594Z</time></trkpt><trkpt lat="42.5026262" lon="13.0966157"><ele>968.0</ele><time>2026-04-10T14:32:19.586Z</time></trkpt><trkpt lat="42.502804" lon="13.0966493"><ele>968.75</ele><time>2026-04-10T14:32:20.581Z</time></trkpt><trkpt lat="42.5029516" lon="13.0967315"><ele>969.5</ele><time>2026-04-10T14:32:21.584Z</time></trkpt><trkpt lat="42.5030855" lon="13.0967809"><ele>970.25</ele><time>2026-04-10T14:32:22.586Z</time></trkpt><trkpt lat="42.5032325" lon="13.0968182"><ele>971.0</ele><time>2026-04-10T14:32:23.585Z</time></trkpt><trkpt lat="42.5033669" lon="13.0968301"><ele>971.0</ele><time>2026-04-10T14:32:24.581Z</time></trkpt><trkpt lat="42.5035247" lon="13.0968028"><ele>971.0</ele><time>2026-04-10T14:32:25.583Z</time></trkpt><trkpt lat="42.5036682" lon="13.0967141"><ele>971.0</ele><time>2026-04-10T14:32:26.581Z</time></trkpt><trkpt lat="42.5038139" lon="13.0965964"><ele>965.0</ele><time>2026-04-10T14:32:27.59Z</time></trkpt><trkpt lat="42.5039563" lon="13.0964006"><ele>959.0</ele><time>2026-04-10T14:32:28.58Z</time></trkpt><trkpt lat="42.504089" lon="13.0962267"><ele>953.0</ele><time>2026-04-10T14:32:29.587Z</time></trkpt><trkpt lat="42.5042454" lon="13.0960673"><ele>953.0</ele><time>2026-04-10T14:32:30.591Z</time></trkpt><trkpt lat="42.5043997" lon="13.0959709"><ele>953.0</ele><time>2026-04-10T14:32:31.597Z</time></trkpt><trkpt lat="42.5045675" lon="13.0959191"><ele>953.0</ele><time>2026-04-10T14:32:32.594Z</time></trkpt><trkpt lat="42.504732" lon="13.0958759"><ele>954.3333333333334</ele><time>2026-04-10T14:32:33.6Z</time></trkpt><trkpt lat="42.5048963" lon="13.0958569"><ele>955.6666666666667</ele><time>2026-04-10T14:32:34.593Z</time></trkpt><trkpt lat="42.5050835" lon="13.0958502"><ele>957.0</ele><time>2026-04-10T14:32:35.595Z</time></trkpt><trkpt lat="42.5052451" lon="13.0958204"><ele>957.0</ele><time>2026-04-10T14:32:36.59Z</time></trkpt><trkpt lat="42.5053912" lon="13.0957734"><ele>957.0</ele><time>2026-04-10T14:32:37.585Z</time></trkpt><trkpt lat="42.5055468" lon="13.0956931"><ele>957.0</ele><time>2026-04-10T14:32:38.593Z</time></trkpt><trkpt lat="42.5056925" lon="13.0956039"><ele>947.5</ele><time>2026-04-10T14:32:39.591Z</time></trkpt><trkpt lat="42.5058399" lon="13.0955239"><ele>938.0</ele><time>2026-04-10T14:32:40.585Z</time></trkpt><trkpt lat="42.5059674" lon="13.0954592"><ele>928.5</ele><time>2026-04-10T14:32:41.592Z</time></trkpt><trkpt lat="42.5061009" lon="13.0954119"><ele>919.0</ele><time>2026-04-10T14:32:42.592Z</time></trkpt><trkpt lat="42.5062349" lon="13.0953368"><ele>921.5</ele><time>2026-04-10T14:32:43.591Z</time></trkpt><trkpt lat="42.5063711" lon="13.0952769"><ele>924.0</ele><time>2026-04-10T14:32:44.597Z</time></trkpt><trkpt lat="42.5065018" lon="13.0952295"><ele>926.5</ele><time>2026-04-10T14:32:45.594Z</time></trkpt><trkpt lat="42.5066298" lon="13.0951801"><ele>929.0</ele><time>2026-04-10T14:32:46.6Z</time></trkpt><trkpt lat="42.5067755" lon="13.0951413"><ele>929.0</ele><time>2026-04-10T14:32:47.59Z</time></trkpt><trkpt lat="42.5069202" lon="13.0951007"><ele>929.0</ele><time>2026-04-10T14:32:48.596Z</time></trkpt><trkpt lat="42.5070699" lon="13.0950631"><ele>929.0</ele><time>2026-04-10T14:32:49.589Z</time></trkpt><trkpt lat="42.5071888" lon="13.095043"><ele>929.0</ele><time>2026-04-10T14:32:50.587Z</time></trkpt><trkpt lat="42.5072939" lon="13.0950763"><ele>928.25</ele><time>2026-04-10T14:32:51.586Z</time></trkpt><trkpt lat="42.5073823" lon="13.0951755"><ele>927.5</ele><time>2026-04-10T14:32:52.585Z</time></trkpt><trkpt lat="42.507451" lon="13.0953232"><ele>926.75</ele><time>2026-04-10T14:32:53.584Z</time></trkpt><trkpt lat="42.5075136" lon="13.0954695"><ele>926.0</ele><time>2026-04-10T14:32:54.581Z</time></trkpt><trkpt lat="42.5076119" lon="13.095582"><ele>926.0</ele><time>2026-04-10T14:32:55.592Z</time></trkpt><trkpt lat="42.5077021" lon="13.0956866"><ele>926.0</ele><time>2026-04-10T14:32:56.577Z</time></trkpt><trkpt lat="42.5078329" lon="13.095713"><ele>926.0</ele><time>2026-04-10T14:32:57.579Z</time></trkpt><trkpt lat="42.5079555" lon="13.0957203"><ele>926.0</ele><time>2026-04-10T14:32:58.569Z</time></trkpt><trkpt lat="42.5080448" lon="13.0957715"><ele>923.8</ele><time>2026-04-10T14:32:59.582Z</time></trkpt><trkpt lat="42.5081006" lon="13.0958776"><ele>921.5999999999999</ele><time>2026-04-10T14:33:00.586Z</time></trkpt><trkpt lat="42.508124" lon="13.0960266"><ele>919.4</ele><time>2026-04-10T14:33:01.577Z</time></trkpt><trkpt lat="42.5081194" lon="13.096183"><ele>917.2</ele><time>2026-04-10T14:33:02.574Z</time></trkpt><trkpt lat="42.5081193" lon="13.0963446"><ele>915.0</ele><time>2026-04-10T14:33:03.564Z</time></trkpt><trkpt lat="42.5081284" lon="13.0964903"><ele>915.0</ele><time>2026-04-10T14:33:04.566Z</time></trkpt><trkpt lat="42.5081751" lon="13.0965932"><ele>915.0</ele><time>2026-04-10T14:33:05.576Z</time></trkpt><trkpt lat="42.5082577" lon="13.0966696"><ele>915.0</ele><time>2026-04-10T14:33:06.572Z</time></trkpt><trkpt lat="42.5083827" lon="13.096686"><ele>915.0</ele><time>2026-04-10T14:33:07.568Z</time></trkpt><trkpt lat="42.5085062" lon="13.0966726"><ele>915.0</ele><time>2026-04-10T14:33:08.568Z</time></trkpt><trkpt lat="42.5086526" lon="13.0965751"><ele>916.3333333333333</ele><time>2026-04-10T14:33:09.567Z</time></trkpt><trkpt lat="42.5088084" lon="13.0964698"><ele>917.6666666666666</ele><time>2026-04-10T14:33:10.556Z</time></trkpt><trkpt lat="42.5089552" lon="13.0963129"><ele>919.0</ele><time>2026-04-10T14:33:11.562Z</time></trkpt><trkpt lat="42.5091039" lon="13.0960899"><ele>919.0</ele><time>2026-04-10T14:33:12.567Z</time></trkpt><trkpt lat="42.5092258" lon="13.0959017"><ele>919.0</ele><time>2026-04-10T14:33:13.563Z</time></trkpt><trkpt lat="42.5093001" lon="13.0957612"><ele>919.0</ele><time>2026-04-10T14:33:14.572Z</time></trkpt><trkpt lat="42.5093507" lon="13.0956332"><ele>919.0</ele><time>2026-04-10T14:33:15.564Z</time></trkpt><trkpt lat="42.5094335" lon="13.0954923"><ele>915.25</ele><time>2026-04-10T14:33:16.571Z</time></trkpt><trkpt lat="42.5094983" lon="13.0953414"><ele>911.5</ele><time>2026-04-10T14:33:17.593Z</time></trkpt><trkpt lat="42.5095355" lon="13.0951785"><ele>907.75</ele><time>2026-04-10T14:33:18.58Z</time></trkpt><trkpt lat="42.5096168" lon="13.0950591"><ele>904.0</ele><time>2026-04-10T14:33:19.589Z</time></trkpt><trkpt lat="42.5097053" lon="13.0949968"><ele>904.0</ele><time>2026-04-10T14:33:20.594Z</time></trkpt><trkpt lat="42.5098413" lon="13.0949409"><ele>904.0</ele><time>2026-04-10T14:33:21.601Z</time></trkpt><trkpt lat="42.5099494" lon="13.0949515"><ele>904.0</ele><time>2026-04-10T14:33:22.599Z</time></trkpt><trkpt lat="42.5100652" lon="13.0950074"><ele>904.0</ele><time>2026-04-10T14:33:23.6Z</time></trkpt><trkpt lat="42.5101769" lon="13.0950943"><ele>904.0</ele><time>2026-04-10T14:33:24.598Z</time></trkpt><trkpt lat="42.5103028" lon="13.0952181"><ele>904.0</ele><time>2026-04-10T14:33:25.59Z</time></trkpt><trkpt lat="42.5104388" lon="13.0953985"><ele>904.0</ele><time>2026-04-10T14:33:26.591Z</time></trkpt><trkpt lat="42.5105671" lon="13.0955517"><ele>903.75</ele><time>2026-04-10T14:33:27.596Z</time></trkpt><trkpt lat="42.5106801" lon="13.0956931"><ele>903.5</ele><time>2026-04-10T14:33:28.594Z</time></trkpt><trkpt lat="42.5107856" lon="13.0958248"><ele>903.25</ele><time>2026-04-10T14:33:29.603Z</time></trkpt><trkpt lat="42.5108804" lon="13.0959641"><ele>903.0</ele><time>2026-04-10T14:33:30.591Z</time></trkpt><trkpt lat="42.5109653" lon="13.096119"><ele>903.0</ele><time>2026-04-10T14:33:31.602Z</time></trkpt><trkpt lat="42.5109935" lon="13.0963108"><ele>903.0</ele><time>2026-04-10T14:33:32.6Z</time></trkpt><trkpt lat="42.5109772" lon="13.0965042"><ele>903.0</ele><time>2026-04-10T14:33:33.594Z</time></trkpt><trkpt lat="42.5109609" lon="13.0966805"><ele>903.0</ele><time>2026-04-10T14:33:34.598Z</time></trkpt><trkpt lat="42.5109359" lon="13.0968576"><ele>903.25</ele><time>2026-04-10T14:33:35.589Z</time></trkpt><trkpt lat="42.510904" lon="13.0970269"><ele>903.5</ele><time>2026-04-10T14:33:36.588Z</time></trkpt><trkpt lat="42.510845" lon="13.097163"><ele>903.75</ele><time>2026-04-10T14:33:37.593Z</time></trkpt><trkpt lat="42.5107762" lon="13.0972913"><ele>904.0</ele><time>2026-04-10T14:33:38.602Z</time></trkpt><trkpt lat="42.5107247" lon="13.0974116"><ele>903.2</ele><time>2026-04-10T14:33:39.601Z</time></trkpt><trkpt lat="42.5106971" lon="13.0975401"><ele>902.4000000000001</ele><time>2026-04-10T14:33:40.602Z</time></trkpt><trkpt lat="42.5107033" lon="13.0976789"><ele>901.6</ele><time>2026-04-10T14:33:41.606Z</time></trkpt><trkpt lat="42.5107588" lon="13.0977999"><ele>900.8</ele><time>2026-04-10T14:33:42.601Z</time></trkpt><trkpt lat="42.5108448" lon="13.0978777"><ele>900.0</ele><time>2026-04-10T14:33:43.607Z</time></trkpt><trkpt lat="42.5109486" lon="13.0979047"><ele>900.0</ele><time>2026-04-10T14:33:44.587Z</time></trkpt><trkpt lat="42.5110719" lon="13.0978859"><ele>900.0</ele><time>2026-04-10T14:33:45.594Z</time></trkpt><trkpt lat="42.511228" lon="13.0978298"><ele>900.0</ele><time>2026-04-10T14:33:46.587Z</time></trkpt><trkpt lat="42.5113828" lon="13.0977799"><ele>900.0</ele><time>2026-04-10T14:33:47.584Z</time></trkpt><trkpt lat="42.5115406" lon="13.0977097"><ele>894.75</ele><time>2026-04-10T14:33:48.587Z</time></trkpt><trkpt lat="42.5116651" lon="13.0977749"><ele>889.5</ele><time>2026-04-10T14:33:49.589Z</time></trkpt><trkpt lat="42.5116871" lon="13.097905"><ele>884.25</ele><time>2026-04-10T14:33:50.577Z</time></trkpt><trkpt lat="42.5116998" lon="13.098043"><ele>879.0</ele><time>2026-04-10T14:33:51.594Z</time></trkpt><trkpt lat="42.5116855" lon="13.0982238"><ele>882.5</ele><time>2026-04-10T14:33:52.579Z</time></trkpt><trkpt lat="42.5116658" lon="13.0984354"><ele>886.0</ele><time>2026-04-10T14:33:53.573Z</time></trkpt><trkpt lat="42.5116853" lon="13.0986212"><ele>889.5</ele><time>2026-04-10T14:33:54.575Z</time></trkpt><trkpt lat="42.5117204" lon="13.0987842"><ele>893.0</ele><time>2026-04-10T14:33:55.572Z</time></trkpt><trkpt lat="42.5117719" lon="13.0989106"><ele>893.0</ele><time>2026-04-10T14:33:56.579Z</time></trkpt><trkpt lat="42.5118533" lon="13.0989941"><ele>893.0</ele><time>2026-04-10T14:33:57.584Z</time></trkpt><trkpt lat="42.5119622" lon="13.0990178"><ele>893.0</ele><time>2026-04-10T14:33:58.58Z</time></trkpt><trkpt lat="42.5120941" lon="13.0989741"><ele>893.0</ele><time>2026-04-10T14:33:59.596Z</time></trkpt><trkpt lat="42.512238" lon="13.0988913"><ele>886.6666666666667</ele><time>2026-04-10T14:34:00.591Z</time></trkpt><trkpt lat="42.5124065" lon="13.098786"><ele>880.3333333333333</ele><time>2026-04-10T14:34:01.604Z</time></trkpt><trkpt lat="42.5125793" lon="13.0986715"><ele>874.0</ele><time>2026-04-10T14:34:02.615Z</time></trkpt><trkpt lat="42.5127042" lon="13.0986649"><ele>874.0</ele><time>2026-04-10T14:34:03.616Z</time></trkpt><trkpt lat="42.5128306" lon="13.09877"><ele>874.0</ele><time>2026-04-10T14:34:04.613Z</time></trkpt><trkpt lat="42.5129121" lon="13.0989259"><ele>874.0</ele><time>2026-04-10T14:34:05.6Z</time></trkpt><trkpt lat="42.5129891" lon="13.09907"><ele>874.0</ele><time>2026-04-10T14:34:06.603Z</time></trkpt><trkpt lat="42.5130702" lon="13.0991938"><ele>875.0</ele><time>2026-04-10T14:34:07.61Z</time></trkpt><trkpt lat="42.5132016" lon="13.0992324"><ele>876.0000000000001</ele><time>2026-04-10T14:34:08.604Z</time></trkpt><trkpt lat="42.5132964" lon="13.099219"><ele>877.0000000000001</ele><time>2026-04-10T14:34:09.602Z</time></trkpt><trkpt lat="42.5133789" lon="13.0991631"><ele>878.0</ele><time>2026-04-10T14:34:10.587Z</time></trkpt><trkpt lat="42.5133986" lon="13.0990682"><ele>879.0</ele><time>2026-04-10T14:34:11.596Z</time></trkpt><trkpt lat="42.513378" lon="13.0989622"><ele>874.5</ele><time>2026-04-10T14:34:12.596Z</time></trkpt><trkpt lat="42.5133098" lon="13.0988205"><ele>870.0</ele><time>2026-04-10T14:34:13.595Z</time></trkpt><trkpt lat="42.5132283" lon="13.0986525"><ele>865.5</ele><time>2026-04-10T14:34:14.597Z</time></trkpt><trkpt lat="42.5131419" lon="13.0984677"><ele>861.0</ele><time>2026-04-10T14:34:15.595Z</time></trkpt><trkpt lat="42.5130478" lon="13.0983293"><ele>860.0</ele><time>2026-04-10T14:34:16.605Z</time></trkpt><trkpt lat="42.5129401" lon="13.09824"><ele>859.0</ele><time>2026-04-10T14:34:17.597Z</time></trkpt><trkpt lat="42.5128178" lon="13.0981626"><ele>858.0</ele><time>2026-04-10T14:34:18.604Z</time></trkpt><trkpt lat="42.5126992" lon="13.0981424"><ele>857.0</ele><time>2026-04-10T14:34:19.609Z</time></trkpt><trkpt lat="42.5126059" lon="13.0981673"><ele>857.0</ele><time>2026-04-10T14:34:20.607Z</time></trkpt><trkpt lat="42.5125208" lon="13.0981956"><ele>857.0</ele><time>2026-04-10T14:34:21.609Z</time></trkpt><trkpt lat="42.5124464" lon="13.0982125"><ele>857.0</ele><time>2026-04-10T14:34:22.608Z</time></trkpt><trkpt lat="42.5123686" lon="13.0982277"><ele>857.0</ele><time>2026-04-10T14:34:23.604Z</time></trkpt><trkpt lat="42.5123026" lon="13.0982288"><ele>857.0</ele><time>2026-04-10T14:34:24.595Z</time></trkpt><trkpt lat="42.5122392" lon="13.0981939"><ele>857.0</ele><time>2026-04-10T14:34:25.599Z</time></trkpt><trkpt lat="42.5121886" lon="13.0981241"><ele>857.0</ele><time>2026-04-10T14:34:26.611Z</time></trkpt><trkpt lat="42.5121701" lon="13.0980048"><ele>857.0</ele><time>2026-04-10T14:34:27.612Z</time></trkpt><trkpt lat="42.5121918" lon="13.0978917"><ele>857.0</ele><time>2026-04-10T14:34:28.613Z</time></trkpt><trkpt lat="42.5122577" lon="13.0978072"><ele>857.0</ele><time>2026-04-10T14:34:29.614Z</time></trkpt><trkpt lat="42.5123641" lon="13.0977397"><ele>857.0</ele><time>2026-04-10T14:34:30.603Z</time></trkpt><trkpt lat="42.5125058" lon="13.0977234"><ele>857.0</ele><time>2026-04-10T14:34:31.596Z</time></trkpt><trkpt lat="42.5126586" lon="13.0977271"><ele>857.0</ele><time>2026-04-10T14:34:32.607Z</time></trkpt><trkpt lat="42.5128097" lon="13.0977203"><ele>857.0</ele><time>2026-04-10T14:34:33.609Z</time></trkpt><trkpt lat="42.5129698" lon="13.0977275"><ele>857.0</ele><time>2026-04-10T14:34:34.604Z</time></trkpt><trkpt lat="42.5131157" lon="13.097759"><ele>851.0</ele><time>2026-04-10T14:34:35.611Z</time></trkpt><trkpt lat="42.5132552" lon="13.0978328"><ele>845.0</ele><time>2026-04-10T14:34:36.603Z</time></trkpt><trkpt lat="42.5133982" lon="13.0979668"><ele>839.0</ele><time>2026-04-10T14:34:37.604Z</time></trkpt><trkpt lat="42.5135108" lon="13.0981337"><ele>839.5</ele><time>2026-04-10T14:34:38.612Z</time></trkpt><trkpt lat="42.5136059" lon="13.0982745"><ele>840.0</ele><time>2026-04-10T14:34:39.608Z</time></trkpt><trkpt lat="42.5137227" lon="13.0983592"><ele>840.5</ele><time>2026-04-10T14:34:40.608Z</time></trkpt><trkpt lat="42.5138546" lon="13.0983855"><ele>841.0</ele><time>2026-04-10T14:34:41.607Z</time></trkpt><trkpt lat="42.5139987" lon="13.0983658"><ele>841.0</ele><time>2026-04-10T14:34:42.612Z</time></trkpt><trkpt lat="42.5141325" lon="13.0983854"><ele>841.0</ele><time>2026-04-10T14:34:43.607Z</time></trkpt><trkpt lat="42.5142566" lon="13.0984384"><ele>841.0</ele><time>2026-04-10T14:34:44.604Z</time></trkpt><trkpt lat="42.5143671" lon="13.0985262"><ele>841.0</ele><time>2026-04-10T14:34:45.63Z</time></trkpt><trkpt lat="42.5144615" lon="13.0986521"><ele>841.0</ele><time>2026-04-10T14:34:46.605Z</time></trkpt><trkpt lat="42.5145415" lon="13.0987979"><ele>841.0</ele><time>2026-04-10T14:34:47.615Z</time></trkpt><trkpt lat="42.5146088" lon="13.098939"><ele>841.0</ele><time>2026-04-10T14:34:48.612Z</time></trkpt><trkpt lat="42.5146784" lon="13.0990705"><ele>841.0</ele><time>2026-04-10T14:34:49.688Z</time></trkpt><trkpt lat="42.5147565" lon="13.0991998"><ele>839.0</ele><time>2026-04-10T14:34:50.7Z</time></trkpt><trkpt lat="42.5148351" lon="13.0993298"><ele>837.0</ele><time>2026-04-10T14:34:51.685Z</time></trkpt><trkpt lat="42.5149165" lon="13.0994627"><ele>835.0</ele><time>2026-04-10T14:34:52.688Z</time></trkpt><trkpt lat="42.5150017" lon="13.0995911"><ele>833.0</ele><time>2026-04-10T14:34:53.686Z</time></trkpt><trkpt lat="42.5150921" lon="13.0997008"><ele>833.0</ele><time>2026-04-10T14:34:54.68Z</time></trkpt><trkpt lat="42.51519" lon="13.0997868"><ele>833.0</ele><time>2026-04-10T14:34:55.68Z</time></trkpt><trkpt lat="42.5152962" lon="13.0998459"><ele>833.0</ele><time>2026-04-10T14:34:56.663Z</time></trkpt><trkpt lat="42.5154211" lon="13.0998896"><ele>833.0</ele><time>2026-04-10T14:34:57.659Z</time></trkpt><trkpt lat="42.5155619" lon="13.0999176"><ele>832.25</ele><time>2026-04-10T14:34:58.653Z</time></trkpt><trkpt lat="42.5157075" lon="13.0999434"><ele>831.5</ele><time>2026-04-10T14:34:59.661Z</time></trkpt><trkpt lat="42.5157497" lon="13.0998484"><ele>830.75</ele><time>2026-04-10T14:35:00.668Z</time></trkpt><trkpt lat="42.5158712" lon="13.0998665"><ele>830.0</ele><time>2026-04-10T14:35:01.662Z</time></trkpt><trkpt lat="42.5159821" lon="13.0999159"><ele>830.0</ele><time>2026-04-10T14:35:02.661Z</time></trkpt><trkpt lat="42.516084" lon="13.0999965"><ele>830.0</ele><time>2026-04-10T14:35:03.667Z</time></trkpt><trkpt lat="42.516173" lon="13.1000902"><ele>830.0</ele><time>2026-04-10T14:35:04.658Z</time></trkpt><trkpt lat="42.5162734" lon="13.1002109"><ele>830.0</ele><time>2026-04-10T14:35:05.661Z</time></trkpt><trkpt lat="42.516357" lon="13.1003369"><ele>826.2</ele><time>2026-04-10T14:35:06.66Z</time></trkpt><trkpt lat="42.5164401" lon="13.1004575"><ele>822.4</ele><time>2026-04-10T14:35:07.668Z</time></trkpt><trkpt lat="42.5165254" lon="13.1005545"><ele>818.5999999999999</ele><time>2026-04-10T14:35:08.672Z</time></trkpt><trkpt lat="42.5166226" lon="13.1006157"><ele>814.8</ele><time>2026-04-10T14:35:09.673Z</time></trkpt><trkpt lat="42.5167089" lon="13.1006579"><ele>811.0</ele><time>2026-04-10T14:35:10.67Z</time></trkpt><trkpt lat="42.5167939" lon="13.1005998"><ele>811.0</ele><time>2026-04-10T14:35:11.67Z</time></trkpt><trkpt lat="42.5168524" lon="13.1006873"><ele>811.0</ele><time>2026-04-10T14:35:12.575Z</time></trkpt><trkpt lat="42.516891" lon="13.1005556"><ele>811.0</ele><time>2026-04-10T14:35:13.584Z</time></trkpt><trkpt lat="42.5168821" lon="13.1004098"><ele>811.0</ele><time>2026-04-10T14:35:14.578Z</time></trkpt><trkpt lat="42.5168214" lon="13.1003121"><ele>811.0</ele><time>2026-04-10T14:35:15.593Z</time></trkpt><trkpt lat="42.5167666" lon="13.1002348"><ele>811.0</ele><time>2026-04-10T14:35:16.602Z</time></trkpt><trkpt lat="42.5166687" lon="13.1001452"><ele>811.0</ele><time>2026-04-10T14:35:17.594Z</time></trkpt><trkpt lat="42.5165585" lon="13.100059"><ele>811.0</ele><time>2026-04-10T14:35:18.593Z</time></trkpt><trkpt lat="42.5164269" lon="13.0999573"><ele>811.0</ele><time>2026-04-10T14:35:19.596Z</time></trkpt><trkpt lat="42.5162822" lon="13.0998139"><ele>810.0</ele><time>2026-04-10T14:35:20.599Z</time></trkpt><trkpt lat="42.5161133" lon="13.0996484"><ele>809.0</ele><time>2026-04-10T14:35:21.599Z</time></trkpt><trkpt lat="42.5159849" lon="13.0995151"><ele>808.0</ele><time>2026-04-10T14:35:22.597Z</time></trkpt><trkpt lat="42.5158809" lon="13.0994024"><ele>808.0</ele><time>2026-04-10T14:35:23.594Z</time></trkpt><trkpt lat="42.5157915" lon="13.0992771"><ele>808.0</ele><time>2026-04-10T14:35:24.597Z</time></trkpt><trkpt lat="42.5157168" lon="13.0991257"><ele>808.0</ele><time>2026-04-10T14:35:25.601Z</time></trkpt><trkpt lat="42.5156775" lon="13.0989861"><ele>808.0</ele><time>2026-04-10T14:35:26.604Z</time></trkpt><trkpt lat="42.5156218" lon="13.0988136"><ele>804.0</ele><time>2026-04-10T14:35:27.59Z</time></trkpt><trkpt lat="42.5155974" lon="13.0986039"><ele>800.0</ele><time>2026-04-10T14:35:28.6Z</time></trkpt><trkpt lat="42.5155986" lon="13.0984013"><ele>796.0</ele><time>2026-04-10T14:35:29.597Z</time></trkpt><trkpt lat="42.5155781" lon="13.0981811"><ele>793.5</ele><time>2026-04-10T14:35:30.593Z</time></trkpt><trkpt lat="42.5155532" lon="13.0979809"><ele>791.0</ele><time>2026-04-10T14:35:31.594Z</time></trkpt><trkpt lat="42.5154752" lon="13.0977958"><ele>788.5</ele><time>2026-04-10T14:35:32.598Z</time></trkpt><trkpt lat="42.5153844" lon="13.0976469"><ele>786.0</ele><time>2026-04-10T14:35:33.595Z</time></trkpt><trkpt lat="42.5152768" lon="13.097526"><ele>785.0</ele><time>2026-04-10T14:35:34.597Z</time></trkpt><trkpt lat="42.5151627" lon="13.0974233"><ele>784.0</ele><time>2026-04-10T14:35:35.595Z</time></trkpt><trkpt lat="42.5150779" lon="13.0973106"><ele>783.0</ele><time>2026-04-10T14:35:36.603Z</time></trkpt><trkpt lat="42.5150478" lon="13.0971861"><ele>782.0</ele><time>2026-04-10T14:35:37.599Z</time></trkpt><trkpt lat="42.5150741" lon="13.0970415"><ele>782.0</ele><time>2026-04-10T14:35:38.598Z</time></trkpt><trkpt lat="42.5151333" lon="13.0969285"><ele>782.0</ele><time>2026-04-10T14:35:39.601Z</time></trkpt><trkpt lat="42.5152143" lon="13.0968296"><ele>782.0</ele><time>2026-04-10T14:35:40.601Z</time></trkpt><trkpt lat="42.5153504" lon="13.0968488"><ele>782.0</ele><time>2026-04-10T14:35:41.604Z</time></trkpt><trkpt lat="42.5154728" lon="13.0969051"><ele>779.0</ele><time>2026-04-10T14:35:42.595Z</time></trkpt><trkpt lat="42.515574" lon="13.0969821"><ele>776.0</ele><time>2026-04-10T14:35:43.591Z</time></trkpt><trkpt lat="42.5156907" lon="13.0970857"><ele>773.0</ele><time>2026-04-10T14:35:44.591Z</time></trkpt><trkpt lat="42.5158271" lon="13.0972233"><ele>770.0</ele><time>2026-04-10T14:35:45.593Z</time></trkpt><trkpt lat="42.516012" lon="13.0973928"><ele>766.0</ele><time>2026-04-10T14:35:46.596Z</time></trkpt><trkpt lat="42.5161416" lon="13.097555"><ele>762.0</ele><time>2026-04-10T14:35:47.604Z</time></trkpt><trkpt lat="42.5161967" lon="13.0977316"><ele>758.0</ele><time>2026-04-10T14:35:48.602Z</time></trkpt><trkpt lat="42.5162486" lon="13.0979299"><ele>758.0</ele><time>2026-04-10T14:35:49.6Z</time></trkpt><trkpt lat="42.5162963" lon="13.0981306"><ele>758.0</ele><time>2026-04-10T14:35:50.592Z</time></trkpt><trkpt lat="42.5163638" lon="13.0983227"><ele>758.0</ele><time>2026-04-10T14:35:51.596Z</time></trkpt><trkpt lat="42.5163898" lon="13.0985152"><ele>760.75</ele><time>2026-04-10T14:35:52.606Z</time></trkpt><trkpt lat="42.5164088" lon="13.0986947"><ele>763.5</ele><time>2026-04-10T14:35:53.592Z</time></trkpt><trkpt lat="42.5164532" lon="13.0988424"><ele>766.25</ele><time>2026-04-10T14:35:54.584Z</time></trkpt><trkpt lat="42.5165428" lon="13.0989505"><ele>769.0</ele><time>2026-04-10T14:35:55.58Z</time></trkpt><trkpt lat="42.5166819" lon="13.0990228"><ele>769.0</ele><time>2026-04-10T14:35:56.586Z</time></trkpt><trkpt lat="42.5168513" lon="13.0990624"><ele>769.0</ele><time>2026-04-10T14:35:57.575Z</time></trkpt><trkpt lat="42.517014" lon="13.0990861"><ele>769.0</ele><time>2026-04-10T14:35:58.576Z</time></trkpt><trkpt lat="42.5172122" lon="13.0990612"><ele>765.6666666666666</ele><time>2026-04-10T14:35:59.577Z</time></trkpt><trkpt lat="42.5174007" lon="13.0990332"><ele>762.3333333333333</ele><time>2026-04-10T14:36:00.57Z</time></trkpt><trkpt lat="42.5175724" lon="13.0990263"><ele>759.0</ele><time>2026-04-10T14:36:01.575Z</time></trkpt><trkpt lat="42.5177386" lon="13.0989873"><ele>759.0</ele><time>2026-04-10T14:36:02.576Z</time></trkpt><trkpt lat="42.5178866" lon="13.0989544"><ele>759.0</ele><time>2026-04-10T14:36:03.573Z</time></trkpt><trkpt lat="42.5180615" lon="13.0988989"><ele>759.0</ele><time>2026-04-10T14:36:04.575Z</time></trkpt><trkpt lat="42.5182088" lon="13.0988013"><ele>757.75</ele><time>2026-04-10T14:36:05.572Z</time></trkpt><trkpt lat="42.5183384" lon="13.0986858"><ele>756.5</ele><time>2026-04-10T14:36:06.579Z</time></trkpt><trkpt lat="42.5184623" lon="13.0985965"><ele>755.25</ele><time>2026-04-10T14:36:07.581Z</time></trkpt><trkpt lat="42.5185729" lon="13.0985515"><ele>754.0</ele><time>2026-04-10T14:36:08.573Z</time></trkpt><trkpt lat="42.5186783" lon="13.09855"><ele>747.5</ele><time>2026-04-10T14:36:09.585Z</time></trkpt><trkpt lat="42.5188015" lon="13.0985969"><ele>741.0</ele><time>2026-04-10T14:36:10.583Z</time></trkpt><trkpt lat="42.5188781" lon="13.0987172"><ele>734.5</ele><time>2026-04-10T14:36:11.576Z</time></trkpt><trkpt lat="42.5189724" lon="13.0988743"><ele>728.0</ele><time>2026-04-10T14:36:12.571Z</time></trkpt><trkpt lat="42.5190428" lon="13.0990692"><ele>731.5</ele><time>2026-04-10T14:36:13.581Z</time></trkpt><trkpt lat="42.5190704" lon="13.0992519"><ele>735.0</ele><time>2026-04-10T14:36:14.583Z</time></trkpt><trkpt lat="42.5190544" lon="13.0994442"><ele>738.5</ele><time>2026-04-10T14:36:15.585Z</time></trkpt><trkpt lat="42.5190163" lon="13.0996195"><ele>742.0</ele><time>2026-04-10T14:36:16.588Z</time></trkpt><trkpt lat="42.5189367" lon="13.0997838"><ele>742.75</ele><time>2026-04-10T14:36:17.588Z</time></trkpt><trkpt lat="42.518831" lon="13.0999272"><ele>743.5</ele><time>2026-04-10T14:36:18.574Z</time></trkpt><trkpt lat="42.5187085" lon="13.1000426"><ele>744.25</ele><time>2026-04-10T14:36:19.578Z</time></trkpt><trkpt lat="42.5186063" lon="13.1001389"><ele>745.0</ele><time>2026-04-10T14:36:20.57Z</time></trkpt><trkpt lat="42.518526" lon="13.1002439"><ele>750.2</ele><time>2026-04-10T14:36:21.569Z</time></trkpt><trkpt lat="42.5184729" lon="13.1003616"><ele>755.4</ele><time>2026-04-10T14:36:22.582Z</time></trkpt><trkpt lat="42.5184818" lon="13.1004728"><ele>760.5999999999999</ele><time>2026-04-10T14:36:23.597Z</time></trkpt><trkpt lat="42.5185222" lon="13.1005651"><ele>765.8</ele><time>2026-04-10T14:36:24.58Z</time></trkpt><trkpt lat="42.5185918" lon="13.1006444"><ele>771.0</ele><time>2026-04-10T14:36:25.579Z</time></trkpt><trkpt lat="42.5187025" lon="13.1006685"><ele>764.5</ele><time>2026-04-10T14:36:26.576Z</time></trkpt><trkpt lat="42.5188178" lon="13.1006526"><ele>758.0</ele><time>2026-04-10T14:36:27.567Z</time></trkpt><trkpt lat="42.5189438" lon="13.1006056"><ele>751.5</ele><time>2026-04-10T14:36:28.553Z</time></trkpt><trkpt lat="42.5190659" lon="13.1005374"><ele>745.0</ele><time>2026-04-10T14:36:29.551Z</time></trkpt><trkpt lat="42.5192064" lon="13.1003836"><ele>745.0</ele><time>2026-04-10T14:36:30.554Z</time></trkpt><trkpt lat="42.5193482" lon="13.1002222"><ele>745.0</ele><time>2026-04-10T14:36:31.558Z</time></trkpt><trkpt lat="42.5195586" lon="13.0999638"><ele>736.0</ele><time>2026-04-10T14:36:32.571Z</time></trkpt><trkpt lat="42.5197589" lon="13.0997845"><ele>727.0</ele><time>2026-04-10T14:36:33.559Z</time></trkpt><trkpt lat="42.5198925" lon="13.0996963"><ele>718.0</ele><time>2026-04-10T14:36:34.578Z</time></trkpt><trkpt lat="42.5200577" lon="13.0997295"><ele>718.0</ele><time>2026-04-10T14:36:35.566Z</time></trkpt><trkpt lat="42.5202307" lon="13.0997926"><ele>718.0</ele><time>2026-04-10T14:36:36.571Z</time></trkpt><trkpt lat="42.5203745" lon="13.0999032"><ele>718.0</ele><time>2026-04-10T14:36:37.584Z</time></trkpt><trkpt lat="42.5204944" lon="13.0999732"><ele>718.75</ele><time>2026-04-10T14:36:38.574Z</time></trkpt><trkpt lat="42.5206312" lon="13.1000545"><ele>719.5</ele><time>2026-04-10T14:36:39.588Z</time></trkpt><trkpt lat="42.5207782" lon="13.1000631"><ele>720.25</ele><time>2026-04-10T14:36:40.581Z</time></trkpt><trkpt lat="42.5209262" lon="13.1000314"><ele>721.0</ele><time>2026-04-10T14:36:41.598Z</time></trkpt><trkpt lat="42.5210666" lon="13.099941"><ele>721.5</ele><time>2026-04-10T14:36:42.601Z</time></trkpt><trkpt lat="42.5211996" lon="13.0998021"><ele>722.0</ele><time>2026-04-10T14:36:43.601Z</time></trkpt><trkpt lat="42.5212781" lon="13.0996453"><ele>722.5</ele><time>2026-04-10T14:36:44.588Z</time></trkpt><trkpt lat="42.5213368" lon="13.0994847"><ele>723.0</ele><time>2026-04-10T14:36:45.59Z</time></trkpt><trkpt lat="42.5213799" lon="13.099311"><ele>723.0</ele><time>2026-04-10T14:36:46.591Z</time></trkpt><trkpt lat="42.5213842" lon="13.0991273"><ele>723.0</ele><time>2026-04-10T14:36:47.592Z</time></trkpt><trkpt lat="42.5214134" lon="13.0989953"><ele>723.0</ele><time>2026-04-10T14:36:48.596Z</time></trkpt><trkpt lat="42.5214429" lon="13.0988854"><ele>723.0</ele><time>2026-04-10T14:36:49.586Z</time></trkpt><trkpt lat="42.5215018" lon="13.0987837"><ele>723.0</ele><time>2026-04-10T14:36:50.592Z</time></trkpt><trkpt lat="42.5215497" lon="13.0986684"><ele>723.75</ele><time>2026-04-10T14:36:51.591Z</time></trkpt><trkpt lat="42.5215868" lon="13.0985357"><ele>724.5</ele><time>2026-04-10T14:36:52.592Z</time></trkpt><trkpt lat="42.5216296" lon="13.0983858"><ele>725.25</ele><time>2026-04-10T14:36:53.6Z</time></trkpt><trkpt lat="42.5216685" lon="13.0982365"><ele>726.0</ele><time>2026-04-10T14:36:54.584Z</time></trkpt><trkpt lat="42.5217034" lon="13.0980903"><ele>724.8</ele><time>2026-04-10T14:36:55.585Z</time></trkpt><trkpt lat="42.5217405" lon="13.0979526"><ele>723.5999999999999</ele><time>2026-04-10T14:36:56.581Z</time></trkpt><trkpt lat="42.5217759" lon="13.097825"><ele>722.4</ele><time>2026-04-10T14:36:57.581Z</time></trkpt><trkpt lat="42.5218043" lon="13.0977061"><ele>721.2</ele><time>2026-04-10T14:36:58.58Z</time></trkpt><trkpt lat="42.5218202" lon="13.097596"><ele>720.0</ele><time>2026-04-10T14:36:59.589Z</time></trkpt><trkpt lat="42.5218419" lon="13.0974967"><ele>719.3333333333334</ele><time>2026-04-10T14:37:00.585Z</time></trkpt><trkpt lat="42.5218655" lon="13.0973997"><ele>718.6666666666666</ele><time>2026-04-10T14:37:01.591Z</time></trkpt><trkpt lat="42.5219011" lon="13.0973167"><ele>718.0</ele><time>2026-04-10T14:37:02.588Z</time></trkpt><trkpt lat="42.5219544" lon="13.0972377"><ele>717.3333333333333</ele><time>2026-04-10T14:37:03.582Z</time></trkpt><trkpt lat="42.5220231" lon="13.0971791"><ele>716.6666666666666</ele><time>2026-04-10T14:37:04.587Z</time></trkpt><trkpt lat="42.522102" lon="13.0971284"><ele>716.0</ele><time>2026-04-10T14:37:05.584Z</time></trkpt><trkpt lat="42.5221906" lon="13.0971012"><ele>716.0</ele><time>2026-04-10T14:37:06.577Z</time></trkpt><trkpt lat="42.5222808" lon="13.0970693"><ele>716.0</ele><time>2026-04-10T14:37:07.584Z</time></trkpt><trkpt lat="42.5223688" lon="13.0970465"><ele>716.0</ele><time>2026-04-10T14:37:08.583Z</time></trkpt><trkpt lat="42.5224537" lon="13.0970269"><ele>716.0</ele><time>2026-04-10T14:37:09.579Z</time></trkpt><trkpt lat="42.5225479" lon="13.0970098"><ele>716.0</ele><time>2026-04-10T14:37:10.575Z</time></trkpt><trkpt lat="42.5226433" lon="13.0969959"><ele>716.0</ele><time>2026-04-10T14:37:11.571Z</time></trkpt><trkpt lat="42.5227245" lon="13.0969877"><ele>716.0</ele><time>2026-04-10T14:37:12.57Z</time></trkpt><trkpt lat="42.5228405" lon="13.0970197"><ele>716.0</ele><time>2026-04-10T14:37:13.59Z</time></trkpt><trkpt lat="42.5229661" lon="13.0970513"><ele>716.0</ele><time>2026-04-10T14:37:14.601Z</time></trkpt><trkpt lat="42.523086" lon="13.0970924"><ele>716.0</ele><time>2026-04-10T14:37:15.609Z</time></trkpt><trkpt lat="42.5231977" lon="13.0971369"><ele>716.0</ele><time>2026-04-10T14:37:16.603Z</time></trkpt><trkpt lat="42.5233144" lon="13.0971739"><ele>716.0</ele><time>2026-04-10T14:37:17.596Z</time></trkpt><trkpt lat="42.5234282" lon="13.097226"><ele>716.0</ele><time>2026-04-10T14:37:18.6Z</time></trkpt><trkpt lat="42.5235376" lon="13.0972926"><ele>716.0</ele><time>2026-04-10T14:37:19.603Z</time></trkpt><trkpt lat="42.5236443" lon="13.097367"><ele>716.0</ele><time>2026-04-10T14:37:20.603Z</time></trkpt><trkpt lat="42.5237501" lon="13.0974495"><ele>716.0</ele><time>2026-04-10T14:37:21.6Z</time></trkpt><trkpt lat="42.5238642" lon="13.0975421"><ele>716.0</ele><time>2026-04-10T14:37:22.62Z</time></trkpt><trkpt lat="42.5239824" lon="13.0976432"><ele>717.0</ele><time>2026-04-10T14:37:23.683Z</time></trkpt><trkpt lat="42.5241034" lon="13.0977484"><ele>718.0</ele><time>2026-04-10T14:37:24.697Z</time></trkpt><trkpt lat="42.5242276" lon="13.0978588"><ele>719.0</ele><time>2026-04-10T14:37:25.683Z</time></trkpt><trkpt lat="42.5243473" lon="13.0979721"><ele>720.0</ele><time>2026-04-10T14:37:26.692Z</time></trkpt><trkpt lat="42.5244602" lon="13.0980744"><ele>719.75</ele><time>2026-04-10T14:37:27.688Z</time></trkpt><trkpt lat="42.5245743" lon="13.0981713"><ele>719.5</ele><time>2026-04-10T14:37:28.688Z</time></trkpt><trkpt lat="42.5246958" lon="13.0982693"><ele>719.25</ele><time>2026-04-10T14:37:29.698Z</time></trkpt><trkpt lat="42.5248246" lon="13.0983668"><ele>719.0</ele><time>2026-04-10T14:37:30.697Z</time></trkpt><trkpt lat="42.5249454" lon="13.0984628"><ele>719.0</ele><time>2026-04-10T14:37:31.695Z</time></trkpt><trkpt lat="42.5250682" lon="13.0985473"><ele>719.0</ele><time>2026-04-10T14:37:32.695Z</time></trkpt><trkpt lat="42.5251755" lon="13.098617"><ele>719.0</ele><time>2026-04-10T14:37:33.691Z</time></trkpt><trkpt lat="42.5252972" lon="13.0986756"><ele>719.0</ele><time>2026-04-10T14:37:34.688Z</time></trkpt><trkpt lat="42.5254184" lon="13.0987297"><ele>719.75</ele><time>2026-04-10T14:37:35.675Z</time></trkpt><trkpt lat="42.5255436" lon="13.0987753"><ele>720.5</ele><time>2026-04-10T14:37:36.661Z</time></trkpt><trkpt lat="42.525672" lon="13.0988159"><ele>721.25</ele><time>2026-04-10T14:37:37.665Z</time></trkpt><trkpt lat="42.525797" lon="13.0988539"><ele>722.0</ele><time>2026-04-10T14:37:38.664Z</time></trkpt><trkpt lat="42.5259107" lon="13.0988847"><ele>722.0</ele><time>2026-04-10T14:37:39.684Z</time></trkpt><trkpt lat="42.5260149" lon="13.0988992"><ele>722.0</ele><time>2026-04-10T14:37:40.679Z</time></trkpt><trkpt lat="42.5261118" lon="13.0989148"><ele>722.0</ele><time>2026-04-10T14:37:41.68Z</time></trkpt><trkpt lat="42.526194" lon="13.0989322"><ele>722.0</ele><time>2026-04-10T14:37:42.684Z</time></trkpt><trkpt lat="42.5262639" lon="13.0989467"><ele>722.0</ele><time>2026-04-10T14:37:43.681Z</time></trkpt><trkpt lat="42.5263373" lon="13.098942"><ele>722.0</ele><time>2026-04-10T14:37:44.683Z</time></trkpt><trkpt lat="42.5263997" lon="13.098899"><ele>722.0</ele><time>2026-04-10T14:37:45.677Z</time></trkpt><trkpt lat="42.5264552" lon="13.0988258"><ele>722.0</ele><time>2026-04-10T14:37:46.688Z</time></trkpt><trkpt lat="42.526488" lon="13.0987381"><ele>722.0</ele><time>2026-04-10T14:37:47.668Z</time></trkpt><trkpt lat="42.5265323" lon="13.0986144"><ele>722.0</ele><time>2026-04-10T14:37:48.578Z</time></trkpt><trkpt lat="42.5265287" lon="13.0984799"><ele>722.0</ele><time>2026-04-10T14:37:49.583Z</time></trkpt><trkpt lat="42.5265344" lon="13.0983356"><ele>722.75</ele><time>2026-04-10T14:37:50.588Z</time></trkpt><trkpt lat="42.5265542" lon="13.0981842"><ele>723.5</ele><time>2026-04-10T14:37:51.596Z</time></trkpt><trkpt lat="42.5265896" lon="13.0980268"><ele>724.25</ele><time>2026-04-10T14:37:52.596Z</time></trkpt><trkpt lat="42.5266315" lon="13.0978674"><ele>725.0</ele><time>2026-04-10T14:37:53.6Z</time></trkpt><trkpt lat="42.5266736" lon="13.0977128"><ele>725.0</ele><time>2026-04-10T14:37:54.593Z</time></trkpt><trkpt lat="42.5267139" lon="13.097568"><ele>725.0</ele><time>2026-04-10T14:37:55.606Z</time></trkpt><trkpt lat="42.526738" lon="13.0974261"><ele>725.0</ele><time>2026-04-10T14:37:56.596Z</time></trkpt><trkpt lat="42.5267378" lon="13.0972744"><ele>725.0</ele><time>2026-04-10T14:37:57.592Z</time></trkpt><trkpt lat="42.5267189" lon="13.0971089"><ele>727.75</ele><time>2026-04-10T14:37:58.585Z</time></trkpt><trkpt lat="42.5266715" lon="13.0969279"><ele>730.5</ele><time>2026-04-10T14:37:59.587Z</time></trkpt><trkpt lat="42.526622" lon="13.0967398"><ele>733.25</ele><time>2026-04-10T14:38:00.59Z</time></trkpt><trkpt lat="42.5265824" lon="13.0965433"><ele>736.0</ele><time>2026-04-10T14:38:01.593Z</time></trkpt><trkpt lat="42.5265447" lon="13.0963173"><ele>739.0</ele><time>2026-04-10T14:38:02.581Z</time></trkpt><trkpt lat="42.5265206" lon="13.0960985"><ele>742.0</ele><time>2026-04-10T14:38:03.583Z</time></trkpt><trkpt lat="42.5264868" lon="13.0959036"><ele>745.0</ele><time>2026-04-10T14:38:04.579Z</time></trkpt><trkpt lat="42.5264492" lon="13.0957075"><ele>745.0</ele><time>2026-04-10T14:38:05.578Z</time></trkpt><trkpt lat="42.5264531" lon="13.0955285"><ele>745.0</ele><time>2026-04-10T14:38:06.588Z</time></trkpt><trkpt lat="42.5264504" lon="13.0953362"><ele>745.0</ele><time>2026-04-10T14:38:07.584Z</time></trkpt><trkpt lat="42.5264761" lon="13.0951482"><ele>745.0</ele><time>2026-04-10T14:38:08.592Z</time></trkpt><trkpt lat="42.5264965" lon="13.0949559"><ele>742.6666666666667</ele><time>2026-04-10T14:38:09.588Z</time></trkpt><trkpt lat="42.5265635" lon="13.0947282"><ele>740.3333333333334</ele><time>2026-04-10T14:38:10.584Z</time></trkpt><trkpt lat="42.5266277" lon="13.0945227"><ele>738.0</ele><time>2026-04-10T14:38:11.587Z</time></trkpt><trkpt lat="42.5266854" lon="13.0943103"><ele>738.0</ele><time>2026-04-10T14:38:12.588Z</time></trkpt><trkpt lat="42.5267268" lon="13.094094"><ele>738.0</ele><time>2026-04-10T14:38:13.592Z</time></trkpt><trkpt lat="42.5268" lon="13.0938962"><ele>738.0</ele><time>2026-04-10T14:38:14.582Z</time></trkpt><trkpt lat="42.5269211" lon="13.0937365"><ele>737.5</ele><time>2026-04-10T14:38:15.574Z</time></trkpt><trkpt lat="42.5270494" lon="13.093618"><ele>737.0</ele><time>2026-04-10T14:38:16.584Z</time></trkpt><trkpt lat="42.5271456" lon="13.0935073"><ele>736.5</ele><time>2026-04-10T14:38:17.581Z</time></trkpt><trkpt lat="42.5272004" lon="13.0933595"><ele>736.0</ele><time>2026-04-10T14:38:18.577Z</time></trkpt><trkpt lat="42.5272169" lon="13.0932371"><ele>742.5</ele><time>2026-04-10T14:38:19.582Z</time></trkpt><trkpt lat="42.5271682" lon="13.0930637"><ele>749.0</ele><time>2026-04-10T14:38:20.581Z</time></trkpt><trkpt lat="42.5271109" lon="13.0928812"><ele>755.5</ele><time>2026-04-10T14:38:21.587Z</time></trkpt><trkpt lat="42.5270988" lon="13.0926915"><ele>762.0</ele><time>2026-04-10T14:38:22.581Z</time></trkpt><trkpt lat="42.5271117" lon="13.0924987"><ele>763.6666666666666</ele><time>2026-04-10T14:38:23.59Z</time></trkpt><trkpt lat="42.5271265" lon="13.0922758"><ele>765.3333333333333</ele><time>2026-04-10T14:38:24.58Z</time></trkpt><trkpt lat="42.5270956" lon="13.0920619"><ele>767.0</ele><time>2026-04-10T14:38:25.585Z</time></trkpt><trkpt lat="42.5270732" lon="13.0918312"><ele>767.0</ele><time>2026-04-10T14:38:26.587Z</time></trkpt><trkpt lat="42.5271016" lon="13.0916011"><ele>767.0</ele><time>2026-04-10T14:38:27.583Z</time></trkpt><trkpt lat="42.5271244" lon="13.0913581"><ele>767.0</ele><time>2026-04-10T14:38:28.587Z</time></trkpt><trkpt lat="42.527158" lon="13.0911261"><ele>767.6666666666666</ele><time>2026-04-10T14:38:29.587Z</time></trkpt><trkpt lat="42.5271676" lon="13.0908948"><ele>768.3333333333333</ele><time>2026-04-10T14:38:30.581Z</time></trkpt><trkpt lat="42.5271899" lon="13.0906693"><ele>769.0</ele><time>2026-04-10T14:38:31.586Z</time></trkpt><trkpt lat="42.5272373" lon="13.0904664"><ele>766.6666666666666</ele><time>2026-04-10T14:38:32.576Z</time></trkpt><trkpt lat="42.527333" lon="13.0902898"><ele>764.3333333333333</ele><time>2026-04-10T14:38:33.572Z</time></trkpt><trkpt lat="42.5274431" lon="13.0901371"><ele>762.0</ele><time>2026-04-10T14:38:34.572Z</time></trkpt><trkpt lat="42.5275669" lon="13.090042"><ele>762.0</ele><time>2026-04-10T14:38:35.579Z</time></trkpt><trkpt lat="42.5277012" lon="13.0899272"><ele>762.0</ele><time>2026-04-10T14:38:36.573Z</time></trkpt><trkpt lat="42.5277893" lon="13.0898047"><ele>762.0</ele><time>2026-04-10T14:38:37.57Z</time></trkpt><trkpt lat="42.527842" lon="13.089686"><ele>762.0</ele><time>2026-04-10T14:38:38.569Z</time></trkpt><trkpt lat="42.5278282" lon="13.0895752"><ele>762.0</ele><time>2026-04-10T14:38:39.57Z</time></trkpt><trkpt lat="42.5277657" lon="13.0895039"><ele>762.0</ele><time>2026-04-10T14:38:40.568Z</time></trkpt><trkpt lat="42.5276866" lon="13.0894553"><ele>762.0</ele><time>2026-04-10T14:38:41.569Z</time></trkpt><trkpt lat="42.5275637" lon="13.0894129"><ele>762.0</ele><time>2026-04-10T14:38:42.573Z</time></trkpt><trkpt lat="42.527452" lon="13.0893232"><ele>762.0</ele><time>2026-04-10T14:38:43.57Z</time></trkpt><trkpt lat="42.5273836" lon="13.0892038"><ele>762.25</ele><time>2026-04-10T14:38:44.577Z</time></trkpt><trkpt lat="42.5273475" lon="13.0890663"><ele>762.5</ele><time>2026-04-10T14:38:45.578Z</time></trkpt><trkpt lat="42.5273626" lon="13.0888986"><ele>762.75</ele><time>2026-04-10T14:38:46.576Z</time></trkpt><trkpt lat="42.527416" lon="13.0887221"><ele>763.0</ele><time>2026-04-10T14:38:47.582Z</time></trkpt><trkpt lat="42.5274753" lon="13.0885484"><ele>763.0</ele><time>2026-04-10T14:38:48.577Z</time></trkpt><trkpt lat="42.5275478" lon="13.0883736"><ele>763.0</ele><time>2026-04-10T14:38:49.577Z</time></trkpt><trkpt lat="42.5276331" lon="13.0882035"><ele>763.0</ele><time>2026-04-10T14:38:50.568Z</time></trkpt><trkpt lat="42.5277388" lon="13.0880311"><ele>762.6666666666667</ele><time>2026-04-10T14:38:51.565Z</time></trkpt><trkpt lat="42.5277713" lon="13.0878292"><ele>762.3333333333334</ele><time>2026-04-10T14:38:52.574Z</time></trkpt><trkpt lat="42.527763" lon="13.0876166"><ele>762.0</ele><time>2026-04-10T14:38:53.567Z</time></trkpt><trkpt lat="42.5277255" lon="13.0874058"><ele>762.0</ele><time>2026-04-10T14:38:54.583Z</time></trkpt><trkpt lat="42.5276857" lon="13.0872004"><ele>762.0</ele><time>2026-04-10T14:38:55.573Z</time></trkpt><trkpt lat="42.5276617" lon="13.0870061"><ele>762.0</ele><time>2026-04-10T14:38:56.578Z</time></trkpt><trkpt lat="42.5276339" lon="13.0868255"><ele>762.0</ele><time>2026-04-10T14:38:57.591Z</time></trkpt><trkpt lat="42.52764" lon="13.0866503"><ele>762.5</ele><time>2026-04-10T14:38:58.574Z</time></trkpt><trkpt lat="42.5277272" lon="13.086516"><ele>763.0</ele><time>2026-04-10T14:38:59.588Z</time></trkpt><trkpt lat="42.5278335" lon="13.0864294"><ele>763.5</ele><time>2026-04-10T14:39:00.583Z</time></trkpt><trkpt lat="42.5279567" lon="13.0863866"><ele>764.0</ele><time>2026-04-10T14:39:01.576Z</time></trkpt><trkpt lat="42.5281129" lon="13.0864094"><ele>767.75</ele><time>2026-04-10T14:39:02.579Z</time></trkpt><trkpt lat="42.5282719" lon="13.0864154"><ele>771.5</ele><time>2026-04-10T14:39:03.58Z</time></trkpt><trkpt lat="42.5284063" lon="13.0864064"><ele>775.25</ele><time>2026-04-10T14:39:04.579Z</time></trkpt><trkpt lat="42.5285274" lon="13.086398"><ele>779.0</ele><time>2026-04-10T14:39:05.583Z</time></trkpt><trkpt lat="42.5286379" lon="13.0863754"><ele>779.0</ele><time>2026-04-10T14:39:06.582Z</time></trkpt><trkpt lat="42.5287178" lon="13.0863034"><ele>779.0</ele><time>2026-04-10T14:39:07.579Z</time></trkpt><trkpt lat="42.5287553" lon="13.0862046"><ele>779.0</ele><time>2026-04-10T14:39:08.582Z</time></trkpt><trkpt lat="42.5287413" lon="13.0860634"><ele>779.0</ele><time>2026-04-10T14:39:09.581Z</time></trkpt><trkpt lat="42.5287015" lon="13.0858925"><ele>779.0</ele><time>2026-04-10T14:39:10.559Z</time></trkpt><trkpt lat="42.5286556" lon="13.0856999"><ele>781.0</ele><time>2026-04-10T14:39:11.567Z</time></trkpt><trkpt lat="42.5286086" lon="13.0854889"><ele>783.0</ele><time>2026-04-10T14:39:12.572Z</time></trkpt><trkpt lat="42.5285594" lon="13.0852732"><ele>785.0</ele><time>2026-04-10T14:39:13.575Z</time></trkpt><trkpt lat="42.5284926" lon="13.0850585"><ele>784.75</ele><time>2026-04-10T14:39:14.578Z</time></trkpt><trkpt lat="42.5284743" lon="13.084893"><ele>784.5</ele><time>2026-04-10T14:39:15.575Z</time></trkpt><trkpt lat="42.5285324" lon="13.0847405"><ele>784.25</ele><time>2026-04-10T14:39:16.585Z</time></trkpt><trkpt lat="42.5286498" lon="13.0846189"><ele>784.0</ele><time>2026-04-10T14:39:17.584Z</time></trkpt><trkpt lat="42.5287689" lon="13.0845111"><ele>785.25</ele><time>2026-04-10T14:39:18.581Z</time></trkpt><trkpt lat="42.5288814" lon="13.0844211"><ele>786.5</ele><time>2026-04-10T14:39:19.575Z</time></trkpt><trkpt lat="42.5290078" lon="13.0843288"><ele>787.75</ele><time>2026-04-10T14:39:20.578Z</time></trkpt><trkpt lat="42.5291378" lon="13.0842539"><ele>789.0</ele><time>2026-04-10T14:39:21.583Z</time></trkpt><trkpt lat="42.5292732" lon="13.084196"><ele>789.0</ele><time>2026-04-10T14:39:22.58Z</time></trkpt><trkpt lat="42.5294325" lon="13.0841655"><ele>789.0</ele><time>2026-04-10T14:39:23.595Z</time></trkpt><trkpt lat="42.5295892" lon="13.084141"><ele>789.0</ele><time>2026-04-10T14:39:24.58Z</time></trkpt><trkpt lat="42.5297436" lon="13.0841099"><ele>792.3333333333333</ele><time>2026-04-10T14:39:25.573Z</time></trkpt><trkpt lat="42.529895" lon="13.0839871"><ele>795.6666666666666</ele><time>2026-04-10T14:39:26.571Z</time></trkpt><trkpt lat="42.5300568" lon="13.0838764"><ele>799.0</ele><time>2026-04-10T14:39:27.572Z</time></trkpt><trkpt lat="42.5301971" lon="13.0837426"><ele>799.0</ele><time>2026-04-10T14:39:28.567Z</time></trkpt><trkpt lat="42.5303147" lon="13.0835733"><ele>799.0</ele><time>2026-04-10T14:39:29.552Z</time></trkpt><trkpt lat="42.5304083" lon="13.0833722"><ele>799.0</ele><time>2026-04-10T14:39:30.565Z</time></trkpt><trkpt lat="42.5304859" lon="13.0831559"><ele>803.0</ele><time>2026-04-10T14:39:31.573Z</time></trkpt><trkpt lat="42.5305463" lon="13.0829548"><ele>807.0</ele><time>2026-04-10T14:39:32.576Z</time></trkpt><trkpt lat="42.5305815" lon="13.0827974"><ele>811.0</ele><time>2026-04-10T14:39:33.572Z</time></trkpt><trkpt lat="42.5306194" lon="13.0826582"><ele>815.0</ele><time>2026-04-10T14:39:34.566Z</time></trkpt><trkpt lat="42.5306" lon="13.082521"><ele>815.25</ele><time>2026-04-10T14:39:35.573Z</time></trkpt><trkpt lat="42.5305417" lon="13.0823692"><ele>815.5</ele><time>2026-04-10T14:39:36.573Z</time></trkpt><trkpt lat="42.5304552" lon="13.0822178"><ele>815.75</ele><time>2026-04-10T14:39:37.588Z</time></trkpt><trkpt lat="42.5303477" lon="13.082131"><ele>816.0</ele><time>2026-04-10T14:39:38.586Z</time></trkpt><trkpt lat="42.5302316" lon="13.0821023"><ele>816.25</ele><time>2026-04-10T14:39:39.596Z</time></trkpt><trkpt lat="42.5301034" lon="13.0821509"><ele>816.5</ele><time>2026-04-10T14:39:40.584Z</time></trkpt><trkpt lat="42.5299696" lon="13.0822106"><ele>816.75</ele><time>2026-04-10T14:39:41.59Z</time></trkpt><trkpt lat="42.5298309" lon="13.0822633"><ele>817.0</ele><time>2026-04-10T14:39:42.594Z</time></trkpt><trkpt lat="42.5297045" lon="13.0822818"><ele>817.0</ele><time>2026-04-10T14:39:43.589Z</time></trkpt><trkpt lat="42.5295863" lon="13.0822606"><ele>817.0</ele><time>2026-04-10T14:39:44.596Z</time></trkpt><trkpt lat="42.5294705" lon="13.0821999"><ele>817.0</ele><time>2026-04-10T14:39:45.59Z</time></trkpt><trkpt lat="42.5293597" lon="13.0821073"><ele>817.0</ele><time>2026-04-10T14:39:46.59Z</time></trkpt><trkpt lat="42.5292393" lon="13.0820199"><ele>816.25</ele><time>2026-04-10T14:39:47.591Z</time></trkpt><trkpt lat="42.5291205" lon="13.0819267"><ele>815.5</ele><time>2026-04-10T14:39:48.584Z</time></trkpt><trkpt lat="42.5290003" lon="13.0818184"><ele>814.75</ele><time>2026-04-10T14:39:49.582Z</time></trkpt><trkpt lat="42.5288915" lon="13.0816982"><ele>814.0</ele><time>2026-04-10T14:39:50.579Z</time></trkpt><trkpt lat="42.5288018" lon="13.0815598"><ele>815.75</ele><time>2026-04-10T14:39:51.586Z</time></trkpt><trkpt lat="42.5287568" lon="13.081404"><ele>817.5</ele><time>2026-04-10T14:39:52.586Z</time></trkpt><trkpt lat="42.5287586" lon="13.0812133"><ele>819.25</ele><time>2026-04-10T14:39:53.593Z</time></trkpt><trkpt lat="42.5287911" lon="13.0810031"><ele>821.0</ele><time>2026-04-10T14:39:54.571Z</time></trkpt><trkpt lat="42.5288339" lon="13.0807863"><ele>819.3333333333334</ele><time>2026-04-10T14:39:55.576Z</time></trkpt><trkpt lat="42.5288903" lon="13.0805696"><ele>817.6666666666667</ele><time>2026-04-10T14:39:56.574Z</time></trkpt><trkpt lat="42.5289471" lon="13.0803647"><ele>816.0</ele><time>2026-04-10T14:39:57.581Z</time></trkpt><trkpt lat="42.5290279" lon="13.080182"><ele>816.0</ele><time>2026-04-10T14:39:58.577Z</time></trkpt><trkpt lat="42.5291031" lon="13.0800029"><ele>816.0</ele><time>2026-04-10T14:39:59.589Z</time></trkpt><trkpt lat="42.5291938" lon="13.0798635"><ele>816.0</ele><time>2026-04-10T14:40:00.578Z</time></trkpt><trkpt lat="42.529277" lon="13.0797151"><ele>816.0</ele><time>2026-04-10T14:40:01.59Z</time></trkpt><trkpt lat="42.5293835" lon="13.0795831"><ele>816.25</ele><time>2026-04-10T14:40:02.583Z</time></trkpt><trkpt lat="42.5295157" lon="13.0794979"><ele>816.5</ele><time>2026-04-10T14:40:03.588Z</time></trkpt><trkpt lat="42.5296368" lon="13.0794378"><ele>816.75</ele><time>2026-04-10T14:40:04.585Z</time></trkpt><trkpt lat="42.5297758" lon="13.0794169"><ele>817.0</ele><time>2026-04-10T14:40:05.589Z</time></trkpt><trkpt lat="42.5299374" lon="13.0793389"><ele>817.0</ele><time>2026-04-10T14:40:06.576Z</time></trkpt><trkpt lat="42.5300746" lon="13.0792279"><ele>817.0</ele><time>2026-04-10T14:40:07.575Z</time></trkpt><trkpt lat="42.53017" lon="13.0791097"><ele>817.0</ele><time>2026-04-10T14:40:08.566Z</time></trkpt><trkpt lat="42.530307" lon="13.0790822"><ele>817.0</ele><time>2026-04-10T14:40:09.58Z</time></trkpt><trkpt lat="42.5304372" lon="13.079114"><ele>819.0</ele><time>2026-04-10T14:40:10.592Z</time></trkpt><trkpt lat="42.530562" lon="13.0791525"><ele>821.0</ele><time>2026-04-10T14:40:11.595Z</time></trkpt><trkpt lat="42.5307133" lon="13.0791731"><ele>823.0</ele><time>2026-04-10T14:40:12.592Z</time></trkpt><trkpt lat="42.530833" lon="13.0790475"><ele>825.0</ele><time>2026-04-10T14:40:13.589Z</time></trkpt><trkpt lat="42.5308951" lon="13.0789165"><ele>825.0</ele><time>2026-04-10T14:40:14.593Z</time></trkpt><trkpt lat="42.5309401" lon="13.078756"><ele>825.0</ele><time>2026-04-10T14:40:15.585Z</time></trkpt><trkpt lat="42.5309875" lon="13.0785849"><ele>825.0</ele><time>2026-04-10T14:40:16.576Z</time></trkpt><trkpt lat="42.5310756" lon="13.078436"><ele>825.0</ele><time>2026-04-10T14:40:17.59Z</time></trkpt><trkpt lat="42.5311925" lon="13.0783113"><ele>829.3333333333333</ele><time>2026-04-10T14:40:18.597Z</time></trkpt><trkpt lat="42.5313229" lon="13.0781898"><ele>833.6666666666666</ele><time>2026-04-10T14:40:19.587Z</time></trkpt><trkpt lat="42.531457" lon="13.0780528"><ele>838.0</ele><time>2026-04-10T14:40:20.669Z</time></trkpt><trkpt lat="42.5315631" lon="13.0779027"><ele>838.0</ele><time>2026-04-10T14:40:21.663Z</time></trkpt><trkpt lat="42.5316445" lon="13.0777517"><ele>838.0</ele><time>2026-04-10T14:40:22.67Z</time></trkpt><trkpt lat="42.5317242" lon="13.0776199"><ele>838.0</ele><time>2026-04-10T14:40:23.589Z</time></trkpt><trkpt lat="42.5318378" lon="13.0775562"><ele>838.0</ele><time>2026-04-10T14:40:24.606Z</time></trkpt><trkpt lat="42.5319717" lon="13.077547"><ele>841.25</ele><time>2026-04-10T14:40:25.598Z</time></trkpt><trkpt lat="42.5321208" lon="13.0775585"><ele>844.5</ele><time>2026-04-10T14:40:26.582Z</time></trkpt><trkpt lat="42.5322658" lon="13.0775581"><ele>847.75</ele><time>2026-04-10T14:40:27.577Z</time></trkpt><trkpt lat="42.5324161" lon="13.0775503"><ele>851.0</ele><time>2026-04-10T14:40:28.584Z</time></trkpt><trkpt lat="42.532535" lon="13.0775277"><ele>851.0</ele><time>2026-04-10T14:40:29.583Z</time></trkpt><trkpt lat="42.5326485" lon="13.0774981"><ele>851.0</ele><time>2026-04-10T14:40:30.589Z</time></trkpt><trkpt lat="42.5327462" lon="13.0774205"><ele>851.0</ele><time>2026-04-10T14:40:31.589Z</time></trkpt><trkpt lat="42.5328034" lon="13.0773379"><ele>851.0</ele><time>2026-04-10T14:40:32.589Z</time></trkpt><trkpt lat="42.5327881" lon="13.0772434"><ele>851.0</ele><time>2026-04-10T14:40:33.582Z</time></trkpt><trkpt lat="42.5326924" lon="13.0771523"><ele>852.25</ele><time>2026-04-10T14:40:34.569Z</time></trkpt><trkpt lat="42.5326198" lon="13.0770735"><ele>853.5</ele><time>2026-04-10T14:40:35.575Z</time></trkpt><trkpt lat="42.532504" lon="13.0769594"><ele>854.75</ele><time>2026-04-10T14:40:36.582Z</time></trkpt><trkpt lat="42.5324094" lon="13.0768163"><ele>856.0</ele><time>2026-04-10T14:40:37.578Z</time></trkpt><trkpt lat="42.53233" lon="13.0766372"><ele>857.5</ele><time>2026-04-10T14:40:38.599Z</time></trkpt><trkpt lat="42.5322893" lon="13.0764461"><ele>859.0</ele><time>2026-04-10T14:40:39.59Z</time></trkpt><trkpt lat="42.532274" lon="13.0762578"><ele>860.5</ele><time>2026-04-10T14:40:40.596Z</time></trkpt><trkpt lat="42.532254" lon="13.0760802"><ele>862.0</ele><time>2026-04-10T14:40:41.581Z</time></trkpt><trkpt lat="42.532267" lon="13.0759027"><ele>861.0</ele><time>2026-04-10T14:40:42.598Z</time></trkpt><trkpt lat="42.5323096" lon="13.0757034"><ele>860.0</ele><time>2026-04-10T14:40:43.591Z</time></trkpt><trkpt lat="42.5323278" lon="13.0755298"><ele>859.0</ele><time>2026-04-10T14:40:44.594Z</time></trkpt><trkpt lat="42.5323697" lon="13.0753281"><ele>858.0</ele><time>2026-04-10T14:40:45.589Z</time></trkpt><trkpt lat="42.5324103" lon="13.0751243"><ele>858.6666666666667</ele><time>2026-04-10T14:40:46.586Z</time></trkpt><trkpt lat="42.5325127" lon="13.0749349"><ele>859.3333333333334</ele><time>2026-04-10T14:40:47.591Z</time></trkpt><trkpt lat="42.5325903" lon="13.0747659"><ele>860.0</ele><time>2026-04-10T14:40:48.58Z</time></trkpt><trkpt lat="42.5326671" lon="13.0745929"><ele>860.0</ele><time>2026-04-10T14:40:49.583Z</time></trkpt><trkpt lat="42.5327354" lon="13.0744218"><ele>860.0</ele><time>2026-04-10T14:40:50.58Z</time></trkpt><trkpt lat="42.5328189" lon="13.0742538"><ele>860.0</ele><time>2026-04-10T14:40:51.571Z</time></trkpt><trkpt lat="42.5329319" lon="13.0741447"><ele>860.0</ele><time>2026-04-10T14:40:52.571Z</time></trkpt><trkpt lat="42.5330366" lon="13.0740535"><ele>867.4</ele><time>2026-04-10T14:40:53.566Z</time></trkpt><trkpt lat="42.5331148" lon="13.0739428"><ele>874.8</ele><time>2026-04-10T14:40:54.572Z</time></trkpt><trkpt lat="42.5331303" lon="13.0737946"><ele>882.2</ele><time>2026-04-10T14:40:55.575Z</time></trkpt><trkpt lat="42.5330977" lon="13.0736938"><ele>889.6</ele><time>2026-04-10T14:40:56.564Z</time></trkpt><trkpt lat="42.5330372" lon="13.0736273"><ele>897.0</ele><time>2026-04-10T14:40:57.57Z</time></trkpt><trkpt lat="42.5329653" lon="13.0735613"><ele>892.0</ele><time>2026-04-10T14:40:58.584Z</time></trkpt><trkpt lat="42.5328799" lon="13.0735118"><ele>887.0</ele><time>2026-04-10T14:40:59.577Z</time></trkpt><trkpt lat="42.5327565" lon="13.073534"><ele>882.0</ele><time>2026-04-10T14:41:00.579Z</time></trkpt><trkpt lat="42.5326302" lon="13.0735372"><ele>877.0</ele><time>2026-04-10T14:41:01.594Z</time></trkpt><trkpt lat="42.5325326" lon="13.0734817"><ele>872.0</ele><time>2026-04-10T14:41:02.578Z</time></trkpt><trkpt lat="42.5324888" lon="13.0733734"><ele>874.75</ele><time>2026-04-10T14:41:03.577Z</time></trkpt><trkpt lat="42.5324837" lon="13.073248"><ele>877.5</ele><time>2026-04-10T14:41:04.574Z</time></trkpt><trkpt lat="42.5325193" lon="13.0730729"><ele>880.25</ele><time>2026-04-10T14:41:05.558Z</time></trkpt><trkpt lat="42.5325328" lon="13.0728909"><ele>883.0</ele><time>2026-04-10T14:41:06.564Z</time></trkpt><trkpt lat="42.5325346" lon="13.0726837"><ele>883.0</ele><time>2026-04-10T14:41:07.562Z</time></trkpt><trkpt lat="42.5325226" lon="13.0724497"><ele>883.0</ele><time>2026-04-10T14:41:08.557Z</time></trkpt><trkpt lat="42.5324973" lon="13.0721321"><ele>883.0</ele><time>2026-04-10T14:41:09.551Z</time></trkpt><trkpt lat="42.5325043" lon="13.0718518"><ele>886.0</ele><time>2026-04-10T14:41:10.554Z</time></trkpt><trkpt lat="42.5325327" lon="13.0716322"><ele>889.0</ele><time>2026-04-10T14:41:11.555Z</time></trkpt><trkpt lat="42.5325696" lon="13.0714298"><ele>892.0</ele><time>2026-04-10T14:41:12.552Z</time></trkpt><trkpt lat="42.5326331" lon="13.0712089"><ele>893.25</ele><time>2026-04-10T14:41:13.554Z</time></trkpt><trkpt lat="42.5327123" lon="13.0710261"><ele>894.5</ele><time>2026-04-10T14:41:14.557Z</time></trkpt><trkpt lat="42.5327901" lon="13.0708763"><ele>895.75</ele><time>2026-04-10T14:41:15.559Z</time></trkpt><trkpt lat="42.5327861" lon="13.0707513"><ele>897.0</ele><time>2026-04-10T14:41:16.56Z</time></trkpt><trkpt lat="42.5327419" lon="13.0706403"><ele>902.25</ele><time>2026-04-10T14:41:17.56Z</time></trkpt><trkpt lat="42.5326403" lon="13.0705098"><ele>907.5</ele><time>2026-04-10T14:41:18.563Z</time></trkpt><trkpt lat="42.5325421" lon="13.070478"><ele>912.75</ele><time>2026-04-10T14:41:19.564Z</time></trkpt><trkpt lat="42.5324354" lon="13.0704899"><ele>918.0</ele><time>2026-04-10T14:41:20.557Z</time></trkpt><trkpt lat="42.5323345" lon="13.0705176"><ele>918.0</ele><time>2026-04-10T14:41:21.566Z</time></trkpt><trkpt lat="42.5322249" lon="13.0705753"><ele>918.0</ele><time>2026-04-10T14:41:22.569Z</time></trkpt><trkpt lat="42.5321209" lon="13.0706284"><ele>918.0</ele><time>2026-04-10T14:41:23.567Z</time></trkpt><trkpt lat="42.5320152" lon="13.070747"><ele>918.0</ele><time>2026-04-10T14:41:24.575Z</time></trkpt><trkpt lat="42.5319436" lon="13.0709394"><ele>919.3333333333333</ele><time>2026-04-10T14:41:25.572Z</time></trkpt><trkpt lat="42.5318727" lon="13.0711622"><ele>920.6666666666666</ele><time>2026-04-10T14:41:26.59Z</time></trkpt><trkpt lat="42.5318106" lon="13.0714422"><ele>922.0</ele><time>2026-04-10T14:41:27.575Z</time></trkpt><trkpt lat="42.531737" lon="13.0716893"><ele>919.3333333333333</ele><time>2026-04-10T14:41:28.574Z</time></trkpt><trkpt lat="42.5316594" lon="13.0718827"><ele>916.6666666666667</ele><time>2026-04-10T14:41:29.581Z</time></trkpt><trkpt lat="42.531605" lon="13.0720623"><ele>914.0</ele><time>2026-04-10T14:41:30.589Z</time></trkpt><trkpt lat="42.5315345" lon="13.0722603"><ele>914.0</ele><time>2026-04-10T14:41:31.605Z</time></trkpt><trkpt lat="42.5314479" lon="13.0724058"><ele>914.0</ele><time>2026-04-10T14:41:32.585Z</time></trkpt><trkpt lat="42.5313104" lon="13.0724878"><ele>914.0</ele><time>2026-04-10T14:41:33.584Z</time></trkpt><trkpt lat="42.5311537" lon="13.0725216"><ele>914.0</ele><time>2026-04-10T14:41:34.575Z</time></trkpt><trkpt lat="42.5310037" lon="13.0725157"><ele>915.75</ele><time>2026-04-10T14:41:35.575Z</time></trkpt><trkpt lat="42.5308684" lon="13.0724931"><ele>917.5</ele><time>2026-04-10T14:41:36.569Z</time></trkpt><trkpt lat="42.5307493" lon="13.0725757"><ele>919.25</ele><time>2026-04-10T14:41:37.562Z</time></trkpt><trkpt lat="42.5306612" lon="13.0727103"><ele>921.0</ele><time>2026-04-10T14:41:38.566Z</time></trkpt><trkpt lat="42.5305981" lon="13.0728716"><ele>921.0</ele><time>2026-04-10T14:41:39.568Z</time></trkpt><trkpt lat="42.5305684" lon="13.0730567"><ele>921.0</ele><time>2026-04-10T14:41:40.577Z</time></trkpt><trkpt lat="42.5306146" lon="13.0732432"><ele>921.0</ele><time>2026-04-10T14:41:41.579Z</time></trkpt><trkpt lat="42.5306753" lon="13.0734299"><ele>921.0</ele><time>2026-04-10T14:41:42.575Z</time></trkpt><trkpt lat="42.5306791" lon="13.0735649"><ele>918.75</ele><time>2026-04-10T14:41:43.587Z</time></trkpt><trkpt lat="42.5306218" lon="13.0736553"><ele>916.5</ele><time>2026-04-10T14:41:44.591Z</time></trkpt><trkpt lat="42.5305232" lon="13.0736989"><ele>914.25</ele><time>2026-04-10T14:41:45.589Z</time></trkpt><trkpt lat="42.5303959" lon="13.0736812"><ele>912.0</ele><time>2026-04-10T14:41:46.589Z</time></trkpt><trkpt lat="42.5302491" lon="13.0736162"><ele>912.0</ele><time>2026-04-10T14:41:47.588Z</time></trkpt><trkpt lat="42.5300985" lon="13.0735292"><ele>912.0</ele><time>2026-04-10T14:41:48.574Z</time></trkpt><trkpt lat="42.5299446" lon="13.0734319"><ele>912.0</ele><time>2026-04-10T14:41:49.576Z</time></trkpt><trkpt lat="42.5297769" lon="13.0732441"><ele>912.6666666666667</ele><time>2026-04-10T14:41:50.583Z</time></trkpt><trkpt lat="42.529673" lon="13.0730193"><ele>913.3333333333334</ele><time>2026-04-10T14:41:51.577Z</time></trkpt><trkpt lat="42.5295699" lon="13.0728368"><ele>914.0</ele><time>2026-04-10T14:41:52.584Z</time></trkpt><trkpt lat="42.5294482" lon="13.0726629"><ele>914.0</ele><time>2026-04-10T14:41:53.584Z</time></trkpt><trkpt lat="42.5293196" lon="13.0724842"><ele>914.0</ele><time>2026-04-10T14:41:54.586Z</time></trkpt><trkpt lat="42.5291876" lon="13.0723301"><ele>914.0</ele><time>2026-04-10T14:41:55.583Z</time></trkpt><trkpt lat="42.5290432" lon="13.0722167"><ele>917.0</ele><time>2026-04-10T14:41:56.58Z</time></trkpt><trkpt lat="42.5289296" lon="13.0721025"><ele>920.0</ele><time>2026-04-10T14:41:57.592Z</time></trkpt><trkpt lat="42.5288033" lon="13.071969"><ele>923.0</ele><time>2026-04-10T14:41:58.589Z</time></trkpt><trkpt lat="42.5287248" lon="13.0718043"><ele>926.0</ele><time>2026-04-10T14:41:59.591Z</time></trkpt><trkpt lat="42.5286911" lon="13.0716078"><ele>924.5</ele><time>2026-04-10T14:42:00.581Z</time></trkpt><trkpt lat="42.5287025" lon="13.0713978"><ele>923.0</ele><time>2026-04-10T14:42:01.579Z</time></trkpt><trkpt lat="42.5287277" lon="13.0712191"><ele>921.5</ele><time>2026-04-10T14:42:02.598Z</time></trkpt><trkpt lat="42.5287899" lon="13.0710694"><ele>920.0</ele><time>2026-04-10T14:42:03.593Z</time></trkpt><trkpt lat="42.5289018" lon="13.070954"><ele>920.0</ele><time>2026-04-10T14:42:04.59Z</time></trkpt><trkpt lat="42.5290563" lon="13.0709175"><ele>920.0</ele><time>2026-04-10T14:42:05.59Z</time></trkpt><trkpt lat="42.529211" lon="13.0709241"><ele>920.0</ele><time>2026-04-10T14:42:06.581Z</time></trkpt><trkpt lat="42.5293821" lon="13.0709406"><ele>920.0</ele><time>2026-04-10T14:42:07.585Z</time></trkpt><trkpt lat="42.5295438" lon="13.0709707"><ele>920.0</ele><time>2026-04-10T14:42:08.584Z</time></trkpt><trkpt lat="42.5296942" lon="13.0709986"><ele>920.0</ele><time>2026-04-10T14:42:09.582Z</time></trkpt><trkpt lat="42.5298647" lon="13.0709794"><ele>921.0</ele><time>2026-04-10T14:42:10.58Z</time></trkpt><trkpt lat="42.5300309" lon="13.0709085"><ele>922.0</ele><time>2026-04-10T14:42:11.59Z</time></trkpt><trkpt lat="42.5301468" lon="13.0707652"><ele>923.0</ele><time>2026-04-10T14:42:12.579Z</time></trkpt><trkpt lat="42.5302656" lon="13.0706112"><ele>923.0</ele><time>2026-04-10T14:42:13.577Z</time></trkpt><trkpt lat="42.5303892" lon="13.0704979"><ele>923.0</ele><time>2026-04-10T14:42:14.583Z</time></trkpt><trkpt lat="42.5305223" lon="13.070383"><ele>923.0</ele><time>2026-04-10T14:42:15.583Z</time></trkpt><trkpt lat="42.5306488" lon="13.0702695"><ele>926.0</ele><time>2026-04-10T14:42:16.577Z</time></trkpt><trkpt lat="42.5307541" lon="13.0701607"><ele>929.0</ele><time>2026-04-10T14:42:17.58Z</time></trkpt><trkpt lat="42.5308436" lon="13.0700133"><ele>932.0</ele><time>2026-04-10T14:42:18.575Z</time></trkpt><trkpt lat="42.5309256" lon="13.0698634"><ele>935.0</ele><time>2026-04-10T14:42:19.578Z</time></trkpt><trkpt lat="42.530886" lon="13.069645"><ele>939.6666666666667</ele><time>2026-04-10T14:42:20.566Z</time></trkpt><trkpt lat="42.530838" lon="13.0694445"><ele>944.3333333333333</ele><time>2026-04-10T14:42:21.564Z</time></trkpt><trkpt lat="42.5307686" lon="13.0692251"><ele>949.0</ele><time>2026-04-10T14:42:22.574Z</time></trkpt><trkpt lat="42.5306463" lon="13.0690268"><ele>953.6666666666666</ele><time>2026-04-10T14:42:23.568Z</time></trkpt><trkpt lat="42.5305626" lon="13.0688743"><ele>958.3333333333333</ele><time>2026-04-10T14:42:24.576Z</time></trkpt><trkpt lat="42.5304082" lon="13.0687452"><ele>963.0</ele><time>2026-04-10T14:42:25.569Z</time></trkpt><trkpt lat="42.5302209" lon="13.0686757"><ele>963.0</ele><time>2026-04-10T14:42:26.573Z</time></trkpt><trkpt lat="42.5300732" lon="13.0686617"><ele>963.0</ele><time>2026-04-10T14:42:27.571Z</time></trkpt><trkpt lat="42.5299056" lon="13.0686722"><ele>963.0</ele><time>2026-04-10T14:42:28.589Z</time></trkpt><trkpt lat="42.5297438" lon="13.0686675"><ele>963.0</ele><time>2026-04-10T14:42:29.584Z</time></trkpt><trkpt lat="42.529594" lon="13.0686086"><ele>963.0</ele><time>2026-04-10T14:42:30.589Z</time></trkpt><trkpt lat="42.5294704" lon="13.0685212"><ele>963.0</ele><time>2026-04-10T14:42:31.587Z</time></trkpt><trkpt lat="42.5293626" lon="13.0683885"><ele>963.0</ele><time>2026-04-10T14:42:32.584Z</time></trkpt><trkpt lat="42.5292768" lon="13.0682261"><ele>964.6666666666667</ele><time>2026-04-10T14:42:33.593Z</time></trkpt><trkpt lat="42.5292115" lon="13.0680274"><ele>966.3333333333334</ele><time>2026-04-10T14:42:34.585Z</time></trkpt><trkpt lat="42.5291704" lon="13.0678179"><ele>968.0</ele><time>2026-04-10T14:42:35.586Z</time></trkpt><trkpt lat="42.5291273" lon="13.0676495"><ele>968.0</ele><time>2026-04-10T14:42:36.585Z</time></trkpt><trkpt lat="42.5290473" lon="13.0675233"><ele>968.0</ele><time>2026-04-10T14:42:37.585Z</time></trkpt><trkpt lat="42.52893" lon="13.0674788"><ele>968.0</ele><time>2026-04-10T14:42:38.586Z</time></trkpt><trkpt lat="42.5287838" lon="13.0674855"><ele>968.0</ele><time>2026-04-10T14:42:39.58Z</time></trkpt><trkpt lat="42.5286379" lon="13.0675675"><ele>968.0</ele><time>2026-04-10T14:42:40.582Z</time></trkpt><trkpt lat="42.5285047" lon="13.067578"><ele>968.0</ele><time>2026-04-10T14:42:41.578Z</time></trkpt><trkpt lat="42.5283923" lon="13.0675333"><ele>968.0</ele><time>2026-04-10T14:42:42.584Z</time></trkpt><trkpt lat="42.5283014" lon="13.0674282"><ele>968.0</ele><time>2026-04-10T14:42:43.588Z</time></trkpt><trkpt lat="42.5282411" lon="13.0672605"><ele>968.0</ele><time>2026-04-10T14:42:44.585Z</time></trkpt><trkpt lat="42.5281918" lon="13.0671087"><ele>968.0</ele><time>2026-04-10T14:42:45.607Z</time></trkpt><trkpt lat="42.528145" lon="13.0669779"><ele>968.0</ele><time>2026-04-10T14:42:46.598Z</time></trkpt><trkpt lat="42.5281158" lon="13.0668576"><ele>968.0</ele><time>2026-04-10T14:42:47.599Z</time></trkpt><trkpt lat="42.5281285" lon="13.0667599"><ele>968.0</ele><time>2026-04-10T14:42:48.6Z</time></trkpt><trkpt lat="42.5281715" lon="13.0666917"><ele>968.0</ele><time>2026-04-10T14:42:49.6Z</time></trkpt><trkpt lat="42.5282992" lon="13.0667534"><ele>968.0</ele><time>2026-04-10T14:42:51.597Z</time></trkpt><trkpt lat="42.5283399" lon="13.066888"><ele>968.0</ele><time>2026-04-10T14:42:52.597Z</time></trkpt><trkpt lat="42.528377" lon="13.0670501"><ele>968.0</ele><time>2026-04-10T14:42:53.596Z</time></trkpt><trkpt lat="42.5284436" lon="13.0671885"><ele>968.0</ele><time>2026-04-10T14:42:54.589Z</time></trkpt><trkpt lat="42.528537" lon="13.0673266"><ele>968.0</ele><time>2026-04-10T14:42:55.601Z</time></trkpt><trkpt lat="42.528671" lon="13.067385"><ele>968.0</ele><time>2026-04-10T14:42:56.601Z</time></trkpt><trkpt lat="42.5288143" lon="13.0673692"><ele>968.0</ele><time>2026-04-10T14:42:57.605Z</time></trkpt><trkpt lat="42.5289523" lon="13.0672891"><ele>971.75</ele><time>2026-04-10T14:42:58.605Z</time></trkpt><trkpt lat="42.5290744" lon="13.0671609"><ele>975.5</ele><time>2026-04-10T14:42:59.604Z</time></trkpt><trkpt lat="42.529146" lon="13.0670173"><ele>979.25</ele><time>2026-04-10T14:43:00.592Z</time></trkpt><trkpt lat="42.5292004" lon="13.0668787"><ele>983.0</ele><time>2026-04-10T14:43:01.59Z</time></trkpt><trkpt lat="42.5292751" lon="13.0667833"><ele>983.0</ele><time>2026-04-10T14:43:02.59Z</time></trkpt><trkpt lat="42.5293451" lon="13.066726"><ele>983.0</ele><time>2026-04-10T14:43:03.6Z</time></trkpt><trkpt lat="42.5294291" lon="13.0667484"><ele>983.0</ele><time>2026-04-10T14:43:04.612Z</time></trkpt><trkpt lat="42.5294835" lon="13.066856"><ele>983.0</ele><time>2026-04-10T14:43:05.591Z</time></trkpt><trkpt lat="42.5295203" lon="13.0670306"><ele>983.0</ele><time>2026-04-10T14:43:06.598Z</time></trkpt><trkpt lat="42.5295627" lon="13.0672081"><ele>983.5</ele><time>2026-04-10T14:43:07.588Z</time></trkpt><trkpt lat="42.5296298" lon="13.0673556"><ele>984.0</ele><time>2026-04-10T14:43:08.603Z</time></trkpt><trkpt lat="42.5297249" lon="13.0674425"><ele>984.5</ele><time>2026-04-10T14:43:09.596Z</time></trkpt><trkpt lat="42.5298292" lon="13.067484"><ele>985.0</ele><time>2026-04-10T14:43:10.597Z</time></trkpt><trkpt lat="42.5299387" lon="13.0674484"><ele>989.25</ele><time>2026-04-10T14:43:11.592Z</time></trkpt><trkpt lat="42.5300653" lon="13.0673817"><ele>993.5</ele><time>2026-04-10T14:43:12.581Z</time></trkpt><trkpt lat="42.5302132" lon="13.0673059"><ele>997.75</ele><time>2026-04-10T14:43:13.593Z</time></trkpt><trkpt lat="42.5303428" lon="13.0672953"><ele>1002.0</ele><time>2026-04-10T14:43:14.582Z</time></trkpt><trkpt lat="42.5304642" lon="13.0673423"><ele>1001.6666666666667</ele><time>2026-04-10T14:43:15.581Z</time></trkpt><trkpt lat="42.5305717" lon="13.0674777"><ele>1001.3333333333334</ele><time>2026-04-10T14:43:16.58Z</time></trkpt><trkpt lat="42.5306606" lon="13.0676488"><ele>1001.0</ele><time>2026-04-10T14:43:17.587Z</time></trkpt><trkpt lat="42.5307278" lon="13.0678468"><ele>1001.0</ele><time>2026-04-10T14:43:18.596Z</time></trkpt><trkpt lat="42.5307762" lon="13.0680172"><ele>1001.0</ele><time>2026-04-10T14:43:19.593Z</time></trkpt><trkpt lat="42.5308367" lon="13.0681228"><ele>1001.0</ele><time>2026-04-10T14:43:20.589Z</time></trkpt><trkpt lat="42.530912" lon="13.0682233"><ele>1001.0</ele><time>2026-04-10T14:43:21.599Z</time></trkpt><trkpt lat="42.5310233" lon="13.0682532"><ele>1001.0</ele><time>2026-04-10T14:43:22.588Z</time></trkpt><trkpt lat="42.5311416" lon="13.0682359"><ele>1000.9999999999999</ele><time>2026-04-10T14:43:23.597Z</time></trkpt><trkpt lat="42.5312416" lon="13.0681797"><ele>1000.9999999999999</ele><time>2026-04-10T14:43:24.595Z</time></trkpt><trkpt lat="42.5312729" lon="13.0680265"><ele>1001.0</ele><time>2026-04-10T14:43:26.586Z</time></trkpt><trkpt lat="42.531204" lon="13.0679508"><ele>1001.0</ele><time>2026-04-10T14:43:27.587Z</time></trkpt><trkpt lat="42.5310899" lon="13.0678688"><ele>1001.0</ele><time>2026-04-10T14:43:28.581Z</time></trkpt><trkpt lat="42.5309549" lon="13.0677894"><ele>1001.0</ele><time>2026-04-10T14:43:29.588Z</time></trkpt><trkpt lat="42.5308266" lon="13.0676757"><ele>1001.0</ele><time>2026-04-10T14:43:30.601Z</time></trkpt><trkpt lat="42.5307298" lon="13.0675374"><ele>1001.0</ele><time>2026-04-10T14:43:31.592Z</time></trkpt><trkpt lat="42.5306688" lon="13.0673651"><ele>1007.3333333333334</ele><time>2026-04-10T14:43:32.594Z</time></trkpt><trkpt lat="42.5306154" lon="13.0671676"><ele>1013.6666666666667</ele><time>2026-04-10T14:43:33.587Z</time></trkpt><trkpt lat="42.5305335" lon="13.0669806"><ele>1020.0</ele><time>2026-04-10T14:43:34.589Z</time></trkpt><trkpt lat="42.5304" lon="13.0668422"><ele>1018.5</ele><time>2026-04-10T14:43:35.598Z</time></trkpt><trkpt lat="42.5302611" lon="13.0667455"><ele>1017.0</ele><time>2026-04-10T14:43:36.588Z</time></trkpt><trkpt lat="42.5301653" lon="13.0666183"><ele>1015.5</ele><time>2026-04-10T14:43:37.596Z</time></trkpt><trkpt lat="42.5301295" lon="13.0664604"><ele>1014.0</ele><time>2026-04-10T14:43:38.6Z</time></trkpt><trkpt lat="42.5301251" lon="13.0662603"><ele>1014.0</ele><time>2026-04-10T14:43:39.592Z</time></trkpt><trkpt lat="42.5300793" lon="13.0660548"><ele>1014.0</ele><time>2026-04-10T14:43:40.592Z</time></trkpt><trkpt lat="42.5299851" lon="13.0658745"><ele>1014.0</ele><time>2026-04-10T14:43:41.594Z</time></trkpt><trkpt lat="42.5298596" lon="13.0657024"><ele>1016.0</ele><time>2026-04-10T14:43:42.598Z</time></trkpt><trkpt lat="42.5297462" lon="13.0654932"><ele>1018.0</ele><time>2026-04-10T14:43:43.598Z</time></trkpt><trkpt lat="42.5296786" lon="13.0652766"><ele>1020.0</ele><time>2026-04-10T14:43:44.6Z</time></trkpt><trkpt lat="42.5296195" lon="13.0650992"><ele>1020.6666666666667</ele><time>2026-04-10T14:43:45.609Z</time></trkpt><trkpt lat="42.5295559" lon="13.0648967"><ele>1021.3333333333334</ele><time>2026-04-10T14:43:46.605Z</time></trkpt><trkpt lat="42.5294629" lon="13.064747"><ele>1022.0</ele><time>2026-04-10T14:43:47.616Z</time></trkpt><trkpt lat="42.5293327" lon="13.0646355"><ele>1022.0</ele><time>2026-04-10T14:43:48.614Z</time></trkpt><trkpt lat="42.5291803" lon="13.0645458"><ele>1022.0</ele><time>2026-04-10T14:43:49.613Z</time></trkpt><trkpt lat="42.5290463" lon="13.0644597"><ele>1022.0</ele><time>2026-04-10T14:43:50.614Z</time></trkpt><trkpt lat="42.5289258" lon="13.0643491"><ele>1022.0</ele><time>2026-04-10T14:43:51.609Z</time></trkpt><trkpt lat="42.5288086" lon="13.0642298"><ele>1022.0</ele><time>2026-04-10T14:43:52.628Z</time></trkpt><trkpt lat="42.5287248" lon="13.0640652"><ele>1022.0</ele><time>2026-04-10T14:43:53.617Z</time></trkpt><trkpt lat="42.5286742" lon="13.0638816"><ele>1022.0</ele><time>2026-04-10T14:43:54.699Z</time></trkpt><trkpt lat="42.5286547" lon="13.0637005"><ele>1022.6</ele><time>2026-04-10T14:43:55.685Z</time></trkpt><trkpt lat="42.5286738" lon="13.0635423"><ele>1023.2</ele><time>2026-04-10T14:43:56.684Z</time></trkpt><trkpt lat="42.5287035" lon="13.0633902"><ele>1023.8</ele><time>2026-04-10T14:43:57.674Z</time></trkpt><trkpt lat="42.5287389" lon="13.0632669"><ele>1024.4</ele><time>2026-04-10T14:43:58.672Z</time></trkpt><trkpt lat="42.5287771" lon="13.0631283"><ele>1025.0</ele><time>2026-04-10T14:43:59.675Z</time></trkpt><trkpt lat="42.5288627" lon="13.0629186"><ele>1025.0</ele><time>2026-04-10T14:44:00.673Z</time></trkpt><trkpt lat="42.5289702" lon="13.0627172"><ele>1025.0</ele><time>2026-04-10T14:44:01.706Z</time></trkpt><trkpt lat="42.5291081" lon="13.0625221"><ele>1025.0</ele><time>2026-04-10T14:44:02.687Z</time></trkpt><trkpt lat="42.5294006" lon="13.0623151"><ele>1026.3333333333335</ele><time>2026-04-10T14:44:03.674Z</time></trkpt><trkpt lat="42.5295687" lon="13.0622317"><ele>1027.6666666666667</ele><time>2026-04-10T14:44:04.675Z</time></trkpt><trkpt lat="42.5297363" lon="13.062188"><ele>1029.0</ele><time>2026-04-10T14:44:05.673Z</time></trkpt><trkpt lat="42.5299106" lon="13.062163"><ele>1029.0</ele><time>2026-04-10T14:44:06.68Z</time></trkpt><trkpt lat="42.5300001" lon="13.062217"><ele>1029.0</ele><time>2026-04-10T14:44:07.599Z</time></trkpt><trkpt lat="42.530147" lon="13.0621461"><ele>1029.0</ele><time>2026-04-10T14:44:08.6Z</time></trkpt><trkpt lat="42.5302499" lon="13.062004"><ele>1029.0</ele><time>2026-04-10T14:44:09.598Z</time></trkpt><trkpt lat="42.5303301" lon="13.0618458"><ele>1032.0</ele><time>2026-04-10T14:44:10.591Z</time></trkpt><trkpt lat="42.5304261" lon="13.0617081"><ele>1035.0</ele><time>2026-04-10T14:44:11.576Z</time></trkpt><trkpt lat="42.5305482" lon="13.0616219"><ele>1038.0</ele><time>2026-04-10T14:44:12.583Z</time></trkpt><trkpt lat="42.5306934" lon="13.0615913"><ele>1041.0</ele><time>2026-04-10T14:44:13.571Z</time></trkpt><trkpt lat="42.5308355" lon="13.0616019"><ele>1041.5</ele><time>2026-04-10T14:44:14.581Z</time></trkpt><trkpt lat="42.5309745" lon="13.0615961"><ele>1042.0</ele><time>2026-04-10T14:44:15.582Z</time></trkpt><trkpt lat="42.5310786" lon="13.0615177"><ele>1042.5</ele><time>2026-04-10T14:44:16.584Z</time></trkpt><trkpt lat="42.5311471" lon="13.0613669"><ele>1043.0</ele><time>2026-04-10T14:44:17.572Z</time></trkpt><trkpt lat="42.5311206" lon="13.0612083"><ele>1043.0</ele><time>2026-04-10T14:44:18.575Z</time></trkpt><trkpt lat="42.5310616" lon="13.0610928"><ele>1043.0</ele><time>2026-04-10T14:44:19.575Z</time></trkpt><trkpt lat="42.530951" lon="13.0609572"><ele>1043.0</ele><time>2026-04-10T14:44:20.579Z</time></trkpt><trkpt lat="42.5308096" lon="13.0608661"><ele>1043.0</ele><time>2026-04-10T14:44:21.581Z</time></trkpt><trkpt lat="42.530667" lon="13.0607963"><ele>1044.25</ele><time>2026-04-10T14:44:22.583Z</time></trkpt><trkpt lat="42.5305458" lon="13.0607151"><ele>1045.5</ele><time>2026-04-10T14:44:23.586Z</time></trkpt><trkpt lat="42.5304214" lon="13.0606407"><ele>1046.75</ele><time>2026-04-10T14:44:24.591Z</time></trkpt><trkpt lat="42.5304206" lon="13.0605101"><ele>1048.0</ele><time>2026-04-10T14:44:25.6Z</time></trkpt><trkpt lat="42.5304985" lon="13.060368"><ele>1048.0</ele><time>2026-04-10T14:44:26.606Z</time></trkpt><trkpt lat="42.5306298" lon="13.0602692"><ele>1048.0</ele><time>2026-04-10T14:44:27.591Z</time></trkpt><trkpt lat="42.530747" lon="13.0601463"><ele>1048.0</ele><time>2026-04-10T14:44:28.592Z</time></trkpt><trkpt lat="42.5308226" lon="13.0599595"><ele>1050.5</ele><time>2026-04-10T14:44:29.582Z</time></trkpt><trkpt lat="42.5308633" lon="13.0597658"><ele>1053.0</ele><time>2026-04-10T14:44:30.577Z</time></trkpt><trkpt lat="42.5308818" lon="13.0595977"><ele>1055.5</ele><time>2026-04-10T14:44:31.586Z</time></trkpt><trkpt lat="42.5308271" lon="13.0594368"><ele>1058.0</ele><time>2026-04-10T14:44:32.57Z</time></trkpt><trkpt lat="42.5307059" lon="13.0593088"><ele>1058.0</ele><time>2026-04-10T14:44:33.576Z</time></trkpt><trkpt lat="42.5305594" lon="13.0592363"><ele>1058.0</ele><time>2026-04-10T14:44:34.578Z</time></trkpt><trkpt lat="42.5303954" lon="13.0592073"><ele>1058.0</ele><time>2026-04-10T14:44:35.57Z</time></trkpt><trkpt lat="42.530244" lon="13.0591829"><ele>1054.25</ele><time>2026-04-10T14:44:36.587Z</time></trkpt><trkpt lat="42.5301077" lon="13.0590875"><ele>1050.5</ele><time>2026-04-10T14:44:37.609Z</time></trkpt><trkpt lat="42.5300239" lon="13.0589244"><ele>1046.75</ele><time>2026-04-10T14:44:38.604Z</time></trkpt><trkpt lat="42.5299898" lon="13.0587424"><ele>1043.0</ele><time>2026-04-10T14:44:39.6Z</time></trkpt><trkpt lat="42.5300483" lon="13.0585595"><ele>1043.0</ele><time>2026-04-10T14:44:40.592Z</time></trkpt><trkpt lat="42.5301513" lon="13.0583917"><ele>1043.0</ele><time>2026-04-10T14:44:41.586Z</time></trkpt><trkpt lat="42.5302482" lon="13.0582331"><ele>1043.0</ele><time>2026-04-10T14:44:42.58Z</time></trkpt><trkpt lat="42.5302786" lon="13.0581093"><ele>1043.0</ele><time>2026-04-10T14:44:43.598Z</time></trkpt><trkpt lat="42.5302241" lon="13.0579405"><ele>1043.75</ele><time>2026-04-10T14:44:44.594Z</time></trkpt><trkpt lat="42.5301233" lon="13.0578107"><ele>1044.5</ele><time>2026-04-10T14:44:45.582Z</time></trkpt><trkpt lat="42.5300026" lon="13.0577156"><ele>1045.25</ele><time>2026-04-10T14:44:46.594Z</time></trkpt><trkpt lat="42.529862" lon="13.057697"><ele>1046.0</ele><time>2026-04-10T14:44:47.588Z</time></trkpt><trkpt lat="42.5297253" lon="13.0577005"><ele>1046.0</ele><time>2026-04-10T14:44:48.58Z</time></trkpt><trkpt lat="42.5296189" lon="13.0576864"><ele>1046.0</ele><time>2026-04-10T14:44:49.583Z</time></trkpt><trkpt lat="42.5295652" lon="13.0576063"><ele>1046.0</ele><time>2026-04-10T14:44:50.598Z</time></trkpt><trkpt lat="42.5295454" lon="13.0574735"><ele>1046.0</ele><time>2026-04-10T14:44:51.596Z</time></trkpt><trkpt lat="42.5295938" lon="13.0573323"><ele>1046.0</ele><time>2026-04-10T14:44:52.597Z</time></trkpt><trkpt lat="42.5297185" lon="13.0572433"><ele>1045.5</ele><time>2026-04-10T14:44:53.595Z</time></trkpt><trkpt lat="42.5298436" lon="13.0572005"><ele>1045.0</ele><time>2026-04-10T14:44:54.595Z</time></trkpt><trkpt lat="42.5299626" lon="13.0571543"><ele>1044.5</ele><time>2026-04-10T14:44:55.601Z</time></trkpt><trkpt lat="42.53004" lon="13.0570439"><ele>1044.0</ele><time>2026-04-10T14:44:56.589Z</time></trkpt><trkpt lat="42.5300883" lon="13.0568942"><ele>1044.0</ele><time>2026-04-10T14:44:57.587Z</time></trkpt><trkpt lat="42.5301035" lon="13.0567241"><ele>1044.0</ele><time>2026-04-10T14:44:58.578Z</time></trkpt><trkpt lat="42.5301029" lon="13.0565213"><ele>1044.0</ele><time>2026-04-10T14:44:59.585Z</time></trkpt><trkpt lat="42.53012" lon="13.0562949"><ele>1044.0</ele><time>2026-04-10T14:45:00.578Z</time></trkpt><trkpt lat="42.5301297" lon="13.056043"><ele>1044.3333333333333</ele><time>2026-04-10T14:45:01.551Z</time></trkpt><trkpt lat="42.5301783" lon="13.0558197"><ele>1044.6666666666665</ele><time>2026-04-10T14:45:02.553Z</time></trkpt><trkpt lat="42.5302356" lon="13.05562"><ele>1045.0</ele><time>2026-04-10T14:45:03.548Z</time></trkpt><trkpt lat="42.5302744" lon="13.0553904"><ele>1045.6666666666665</ele><time>2026-04-10T14:45:04.558Z</time></trkpt><trkpt lat="42.5303284" lon="13.0551491"><ele>1046.3333333333333</ele><time>2026-04-10T14:45:05.55Z</time></trkpt><trkpt lat="42.5303999" lon="13.0549511"><ele>1047.0</ele><time>2026-04-10T14:45:06.55Z</time></trkpt><trkpt lat="42.530474" lon="13.0547321"><ele>1048.3333333333333</ele><time>2026-04-10T14:45:07.549Z</time></trkpt><trkpt lat="42.5305523" lon="13.0545285"><ele>1049.6666666666665</ele><time>2026-04-10T14:45:08.566Z</time></trkpt><trkpt lat="42.5306486" lon="13.0543448"><ele>1051.0</ele><time>2026-04-10T14:45:09.558Z</time></trkpt><trkpt lat="42.5307488" lon="13.0541712"><ele>1051.6666666666665</ele><time>2026-04-10T14:45:10.557Z</time></trkpt><trkpt lat="42.5308436" lon="13.0539923"><ele>1052.3333333333333</ele><time>2026-04-10T14:45:11.56Z</time></trkpt><trkpt lat="42.5309411" lon="13.0538186"><ele>1053.0</ele><time>2026-04-10T14:45:12.553Z</time></trkpt><trkpt lat="42.5310306" lon="13.0536382"><ele>1053.0</ele><time>2026-04-10T14:45:13.554Z</time></trkpt><trkpt lat="42.5311235" lon="13.0534564"><ele>1053.0</ele><time>2026-04-10T14:45:14.558Z</time></trkpt><trkpt lat="42.5312233" lon="13.0532684"><ele>1053.0</ele><time>2026-04-10T14:45:15.553Z</time></trkpt><trkpt lat="42.5313191" lon="13.0531009"><ele>1053.0</ele><time>2026-04-10T14:45:16.56Z</time></trkpt><trkpt lat="42.5314095" lon="13.0528752"><ele>1053.0</ele><time>2026-04-10T14:45:17.562Z</time></trkpt><trkpt lat="42.5315048" lon="13.0526599"><ele>1053.0</ele><time>2026-04-10T14:45:18.558Z</time></trkpt><trkpt lat="42.5315824" lon="13.0524505"><ele>1053.0</ele><time>2026-04-10T14:45:19.56Z</time></trkpt><trkpt lat="42.5316865" lon="13.0522777"><ele>1053.0</ele><time>2026-04-10T14:45:20.559Z</time></trkpt><trkpt lat="42.5317921" lon="13.0521156"><ele>1053.0</ele><time>2026-04-10T14:45:21.555Z</time></trkpt><trkpt lat="42.5318915" lon="13.0519415"><ele>1053.0</ele><time>2026-04-10T14:45:22.556Z</time></trkpt><trkpt lat="42.5319992" lon="13.0517523"><ele>1053.0</ele><time>2026-04-10T14:45:23.559Z</time></trkpt><trkpt lat="42.532102" lon="13.0515485"><ele>1053.0</ele><time>2026-04-10T14:45:24.556Z</time></trkpt><trkpt lat="42.5322066" lon="13.0513611"><ele>1052.3333333333333</ele><time>2026-04-10T14:45:25.556Z</time></trkpt><trkpt lat="42.5323219" lon="13.0511682"><ele>1051.6666666666665</ele><time>2026-04-10T14:45:26.56Z</time></trkpt><trkpt lat="42.5324184" lon="13.0509778"><ele>1051.0</ele><time>2026-04-10T14:45:27.56Z</time></trkpt><trkpt lat="42.5325198" lon="13.0507784"><ele>1051.0</ele><time>2026-04-10T14:45:28.567Z</time></trkpt><trkpt lat="42.5326183" lon="13.0505672"><ele>1051.0</ele><time>2026-04-10T14:45:29.56Z</time></trkpt><trkpt lat="42.5327189" lon="13.0503658"><ele>1051.0</ele><time>2026-04-10T14:45:30.559Z</time></trkpt><trkpt lat="42.5328149" lon="13.0501679"><ele>1051.0</ele><time>2026-04-10T14:45:31.558Z</time></trkpt><trkpt lat="42.532929" lon="13.0499848"><ele>1051.0</ele><time>2026-04-10T14:45:32.563Z</time></trkpt><trkpt lat="42.5330301" lon="13.0498093"><ele>1051.0</ele><time>2026-04-10T14:45:33.569Z</time></trkpt><trkpt lat="42.5331398" lon="13.0496211"><ele>1050.0</ele><time>2026-04-10T14:45:34.562Z</time></trkpt><trkpt lat="42.533255" lon="13.0494316"><ele>1049.0</ele><time>2026-04-10T14:45:35.564Z</time></trkpt><trkpt lat="42.5333698" lon="13.0492457"><ele>1048.0</ele><time>2026-04-10T14:45:36.562Z</time></trkpt><trkpt lat="42.5334755" lon="13.0490493"><ele>1047.6666666666665</ele><time>2026-04-10T14:45:37.56Z</time></trkpt><trkpt lat="42.5335736" lon="13.0488442"><ele>1047.3333333333333</ele><time>2026-04-10T14:45:38.56Z</time></trkpt><trkpt lat="42.5336709" lon="13.0486424"><ele>1047.0</ele><time>2026-04-10T14:45:39.592Z</time></trkpt><trkpt lat="42.5337719" lon="13.0484538"><ele>1046.5</ele><time>2026-04-10T14:45:40.57Z</time></trkpt><trkpt lat="42.5338599" lon="13.0482718"><ele>1046.0</ele><time>2026-04-10T14:45:41.57Z</time></trkpt><trkpt lat="42.5339419" lon="13.0481233"><ele>1045.5</ele><time>2026-04-10T14:45:42.566Z</time></trkpt><trkpt lat="42.534015" lon="13.0479928"><ele>1045.0</ele><time>2026-04-10T14:45:43.57Z</time></trkpt><trkpt lat="42.534084" lon="13.0479013"><ele>1045.0</ele><time>2026-04-10T14:45:44.571Z</time></trkpt><trkpt lat="42.5341431" lon="13.0478185"><ele>1045.0</ele><time>2026-04-10T14:45:45.557Z</time></trkpt><trkpt lat="42.5341903" lon="13.0477146"><ele>1045.0</ele><time>2026-04-10T14:45:46.558Z</time></trkpt><trkpt lat="42.5342269" lon="13.0476246"><ele>1045.0</ele><time>2026-04-10T14:45:47.554Z</time></trkpt><trkpt lat="42.5342813" lon="13.0475294"><ele>1045.0</ele><time>2026-04-10T14:45:49.552Z</time></trkpt><trkpt lat="42.5342556" lon="13.047442"><ele>1045.0</ele><time>2026-04-10T14:45:52.575Z</time></trkpt><trkpt lat="42.5341511" lon="13.0473707"><ele>1044.2</ele><time>2026-04-10T14:45:54.579Z</time></trkpt><trkpt lat="42.5340838" lon="13.0473128"><ele>1043.4</ele><time>2026-04-10T14:45:55.575Z</time></trkpt><trkpt lat="42.5340003" lon="13.0472329"><ele>1042.6</ele><time>2026-04-10T14:45:56.568Z</time></trkpt><trkpt lat="42.5339295" lon="13.0471506"><ele>1041.8</ele><time>2026-04-10T14:45:57.57Z</time></trkpt><trkpt lat="42.5338782" lon="13.0470955"><ele>1041.0</ele><time>2026-04-10T14:45:58.571Z</time></trkpt><trkpt lat="42.5337966" lon="13.0469867"><ele>1041.0</ele><time>2026-04-10T14:46:00.573Z</time></trkpt><trkpt lat="42.5337594" lon="13.0468851"><ele>1041.0</ele><time>2026-04-10T14:46:01.577Z</time></trkpt><trkpt lat="42.5337376" lon="13.0467851"><ele>1041.0</ele><time>2026-04-10T14:46:02.568Z</time></trkpt><trkpt lat="42.5337039" lon="13.0467046"><ele>1041.0</ele><time>2026-04-10T14:46:03.571Z</time></trkpt><trkpt lat="42.5336473" lon="13.0466555"><ele>1041.0</ele><time>2026-04-10T14:46:04.57Z</time></trkpt><trkpt lat="42.5335703" lon="13.0466472"><ele>1041.0</ele><time>2026-04-10T14:46:05.567Z</time></trkpt><trkpt lat="42.5334781" lon="13.0466755"><ele>1041.6666666666667</ele><time>2026-04-10T14:46:06.568Z</time></trkpt><trkpt lat="42.5333941" lon="13.0467216"><ele>1042.3333333333333</ele><time>2026-04-10T14:46:07.567Z</time></trkpt><trkpt lat="42.5333317" lon="13.046748"><ele>1043.0</ele><time>2026-04-10T14:46:08.577Z</time></trkpt><trkpt lat="42.5332595" lon="13.0467664"><ele>1043.6666666666665</ele><time>2026-04-10T14:46:10.582Z</time></trkpt><trkpt lat="42.5332345" lon="13.0466843"><ele>1044.3333333333333</ele><time>2026-04-10T14:46:15.593Z</time></trkpt><trkpt lat="42.5333073" lon="13.0466311"><ele>1045.0</ele><time>2026-04-10T14:46:18.59Z</time></trkpt><trkpt lat="42.5334059" lon="13.0466686"><ele>1045.0</ele><time>2026-04-10T14:46:20.597Z</time></trkpt><trkpt lat="42.5335306" lon="13.0466732"><ele>1045.0</ele><time>2026-04-10T14:46:22.586Z</time></trkpt><trkpt lat="42.5335971" lon="13.0466746"><ele>1045.0</ele><time>2026-04-10T14:46:23.589Z</time></trkpt><trkpt lat="42.5337077" lon="13.0467142"><ele>1045.0</ele><time>2026-04-10T14:46:25.578Z</time></trkpt><trkpt lat="42.5338013" lon="13.0468249"><ele>1045.0</ele><time>2026-04-10T14:46:27.59Z</time></trkpt><trkpt lat="42.5338339" lon="13.0469136"><ele>1044.3333333333333</ele><time>2026-04-10T14:46:28.59Z</time></trkpt><trkpt lat="42.5338622" lon="13.0470142"><ele>1043.6666666666665</ele><time>2026-04-10T14:46:29.6Z</time></trkpt><trkpt lat="42.5338889" lon="13.0470972"><ele>1043.0</ele><time>2026-04-10T14:46:30.584Z</time></trkpt><trkpt lat="42.5339311" lon="13.0471986"><ele>1042.3333333333333</ele><time>2026-04-10T14:46:32.587Z</time></trkpt><trkpt lat="42.5339973" lon="13.0472209"><ele>1041.6666666666667</ele><time>2026-04-10T14:46:34.593Z</time></trkpt><trkpt lat="42.5340256" lon="13.0471166"><ele>1041.0</ele><time>2026-04-10T14:46:37.589Z</time></trkpt><trkpt lat="42.5340493" lon="13.0470198"><ele>1041.0</ele><time>2026-04-10T14:46:39.579Z</time></trkpt><trkpt lat="42.5340746" lon="13.0469196"><ele>1041.0</ele><time>2026-04-10T14:46:40.577Z</time></trkpt><trkpt lat="42.5341067" lon="13.0467906"><ele>1041.0</ele><time>2026-04-10T14:46:41.558Z</time></trkpt><trkpt lat="42.5341618" lon="13.0466697"><ele>1041.0</ele><time>2026-04-10T14:46:42.559Z</time></trkpt><trkpt lat="42.5342218" lon="13.0465262"><ele>1041.0</ele><time>2026-04-10T14:46:43.56Z</time></trkpt><trkpt lat="42.5342909" lon="13.0463706"><ele>1040.5</ele><time>2026-04-10T14:46:44.565Z</time></trkpt><trkpt lat="42.534368" lon="13.0462078"><ele>1040.0</ele><time>2026-04-10T14:46:45.564Z</time></trkpt><trkpt lat="42.534444" lon="13.0460507"><ele>1039.5</ele><time>2026-04-10T14:46:46.568Z</time></trkpt><trkpt lat="42.534516" lon="13.0458978"><ele>1039.0</ele><time>2026-04-10T14:46:47.578Z</time></trkpt><trkpt lat="42.5345802" lon="13.0457492"><ele>1037.25</ele><time>2026-04-10T14:46:48.569Z</time></trkpt><trkpt lat="42.534633" lon="13.0455904"><ele>1035.5</ele><time>2026-04-10T14:46:49.566Z</time></trkpt><trkpt lat="42.5346787" lon="13.0454363"><ele>1033.75</ele><time>2026-04-10T14:46:50.564Z</time></trkpt><trkpt lat="42.5347149" lon="13.0452688"><ele>1032.0</ele><time>2026-04-10T14:46:51.564Z</time></trkpt><trkpt lat="42.5347558" lon="13.0450961"><ele>1031.75</ele><time>2026-04-10T14:46:52.563Z</time></trkpt><trkpt lat="42.534806" lon="13.0449169"><ele>1031.5</ele><time>2026-04-10T14:46:53.568Z</time></trkpt><trkpt lat="42.5348562" lon="13.0447246"><ele>1031.25</ele><time>2026-04-10T14:46:54.562Z</time></trkpt><trkpt lat="42.5349037" lon="13.0445348"><ele>1031.0</ele><time>2026-04-10T14:46:55.559Z</time></trkpt><trkpt lat="42.5349505" lon="13.0443774"><ele>1031.0</ele><time>2026-04-10T14:46:56.562Z</time></trkpt><trkpt lat="42.5349982" lon="13.044233"><ele>1031.0</ele><time>2026-04-10T14:46:57.56Z</time></trkpt><trkpt lat="42.535065" lon="13.0441107"><ele>1031.0</ele><time>2026-04-10T14:46:58.553Z</time></trkpt><trkpt lat="42.5351125" lon="13.0439443"><ele>1031.0</ele><time>2026-04-10T14:46:59.566Z</time></trkpt><trkpt lat="42.5351488" lon="13.0438205"><ele>1030.8333333333335</ele><time>2026-04-10T14:47:00.561Z</time></trkpt><trkpt lat="42.535181" lon="13.0437047"><ele>1030.6666666666667</ele><time>2026-04-10T14:47:01.568Z</time></trkpt><trkpt lat="42.5352027" lon="13.0435797"><ele>1030.5</ele><time>2026-04-10T14:47:02.568Z</time></trkpt><trkpt lat="42.5352263" lon="13.0434723"><ele>1030.3333333333333</ele><time>2026-04-10T14:47:03.566Z</time></trkpt><trkpt lat="42.5352426" lon="13.0433661"><ele>1030.1666666666665</ele><time>2026-04-10T14:47:04.565Z</time></trkpt><trkpt lat="42.5352418" lon="13.0432471"><ele>1030.0</ele><time>2026-04-10T14:47:05.566Z</time></trkpt><trkpt lat="42.5352413" lon="13.0431386"><ele>1029.6</ele><time>2026-04-10T14:47:06.575Z</time></trkpt><trkpt lat="42.5352287" lon="13.0430263"><ele>1029.2</ele><time>2026-04-10T14:47:07.561Z</time></trkpt><trkpt lat="42.5352187" lon="13.0429167"><ele>1028.8</ele><time>2026-04-10T14:47:08.566Z</time></trkpt><trkpt lat="42.5352358" lon="13.0427817"><ele>1028.4</ele><time>2026-04-10T14:47:09.574Z</time></trkpt><trkpt lat="42.5352627" lon="13.0426367"><ele>1028.0</ele><time>2026-04-10T14:47:10.58Z</time></trkpt><trkpt lat="42.5352912" lon="13.04249"><ele>1027.6</ele><time>2026-04-10T14:47:11.592Z</time></trkpt><trkpt lat="42.5353051" lon="13.0423738"><ele>1027.1999999999998</ele><time>2026-04-10T14:47:12.573Z</time></trkpt><trkpt lat="42.535302" lon="13.0422568"><ele>1026.8</ele><time>2026-04-10T14:47:13.576Z</time></trkpt><trkpt lat="42.5352718" lon="13.0421463"><ele>1026.3999999999999</ele><time>2026-04-10T14:47:14.574Z</time></trkpt><trkpt lat="42.5352149" lon="13.0420277"><ele>1026.0</ele><time>2026-04-10T14:47:15.569Z</time></trkpt><trkpt lat="42.5351513" lon="13.041913"><ele>1026.0</ele><time>2026-04-10T14:47:16.572Z</time></trkpt><trkpt lat="42.5350945" lon="13.0418048"><ele>1026.0</ele><time>2026-04-10T14:47:17.579Z</time></trkpt><trkpt lat="42.5350348" lon="13.0416792"><ele>1026.0</ele><time>2026-04-10T14:47:18.575Z</time></trkpt><trkpt lat="42.5349886" lon="13.0415434"><ele>1026.0</ele><time>2026-04-10T14:47:19.584Z</time></trkpt><trkpt lat="42.534967" lon="13.0413986"><ele>1026.0</ele><time>2026-04-10T14:47:20.573Z</time></trkpt><trkpt lat="42.5349446" lon="13.0412592"><ele>1025.8333333333333</ele><time>2026-04-10T14:47:21.573Z</time></trkpt><trkpt lat="42.5349132" lon="13.0411386"><ele>1025.6666666666667</ele><time>2026-04-10T14:47:22.574Z</time></trkpt><trkpt lat="42.5348836" lon="13.0410369"><ele>1025.5</ele><time>2026-04-10T14:47:23.572Z</time></trkpt><trkpt lat="42.5348698" lon="13.0409264"><ele>1025.3333333333335</ele><time>2026-04-10T14:47:24.575Z</time></trkpt><trkpt lat="42.5348745" lon="13.040802"><ele>1025.1666666666667</ele><time>2026-04-10T14:47:25.573Z</time></trkpt><trkpt lat="42.5348751" lon="13.0406819"><ele>1025.0</ele><time>2026-04-10T14:47:26.566Z</time></trkpt><trkpt lat="42.5348904" lon="13.0405456"><ele>1024.8</ele><time>2026-04-10T14:47:27.568Z</time></trkpt><trkpt lat="42.5349115" lon="13.0404235"><ele>1024.6</ele><time>2026-04-10T14:47:28.567Z</time></trkpt><trkpt lat="42.5349445" lon="13.0403152"><ele>1024.4</ele><time>2026-04-10T14:47:29.571Z</time></trkpt><trkpt lat="42.5350002" lon="13.0402218"><ele>1024.2</ele><time>2026-04-10T14:47:30.569Z</time></trkpt><trkpt lat="42.5350528" lon="13.0401146"><ele>1024.0</ele><time>2026-04-10T14:47:31.569Z</time></trkpt><trkpt lat="42.5350837" lon="13.0399919"><ele>1023.5</ele><time>2026-04-10T14:47:32.565Z</time></trkpt><trkpt lat="42.5351273" lon="13.0398551"><ele>1023.0</ele><time>2026-04-10T14:47:33.561Z</time></trkpt><trkpt lat="42.5351483" lon="13.0396939"><ele>1022.5</ele><time>2026-04-10T14:47:34.561Z</time></trkpt><trkpt lat="42.5351683" lon="13.0395361"><ele>1022.0</ele><time>2026-04-10T14:47:35.566Z</time></trkpt><trkpt lat="42.5351853" lon="13.0393965"><ele>1022.0</ele><time>2026-04-10T14:47:36.559Z</time></trkpt><trkpt lat="42.5351948" lon="13.039249"><ele>1022.0</ele><time>2026-04-10T14:47:37.566Z</time></trkpt><trkpt lat="42.5352114" lon="13.0391178"><ele>1022.0</ele><time>2026-04-10T14:47:38.555Z</time></trkpt><trkpt lat="42.5352056" lon="13.0389822"><ele>1022.0</ele><time>2026-04-10T14:47:39.56Z</time></trkpt><trkpt lat="42.5351926" lon="13.0388591"><ele>1022.0</ele><time>2026-04-10T14:47:40.556Z</time></trkpt><trkpt lat="42.5351631" lon="13.038748"><ele>1021.25</ele><time>2026-04-10T14:47:41.56Z</time></trkpt><trkpt lat="42.5351293" lon="13.0386079"><ele>1020.5</ele><time>2026-04-10T14:47:42.572Z</time></trkpt><trkpt lat="42.5350905" lon="13.0384446"><ele>1019.75</ele><time>2026-04-10T14:47:43.562Z</time></trkpt><trkpt lat="42.5350495" lon="13.0382891"><ele>1019.0</ele><time>2026-04-10T14:47:44.573Z</time></trkpt><trkpt lat="42.5350395" lon="13.0381317"><ele>1018.2</ele><time>2026-04-10T14:47:45.565Z</time></trkpt><trkpt lat="42.5350363" lon="13.0379735"><ele>1017.4000000000001</ele><time>2026-04-10T14:47:46.568Z</time></trkpt><trkpt lat="42.5350125" lon="13.0378262"><ele>1016.6</ele><time>2026-04-10T14:47:47.566Z</time></trkpt><trkpt lat="42.5349752" lon="13.037692"><ele>1015.8</ele><time>2026-04-10T14:47:48.562Z</time></trkpt><trkpt lat="42.5349212" lon="13.037594"><ele>1015.0</ele><time>2026-04-10T14:47:49.573Z</time></trkpt><trkpt lat="42.5348526" lon="13.037505"><ele>1014.4</ele><time>2026-04-10T14:47:50.565Z</time></trkpt><trkpt lat="42.5347819" lon="13.0374047"><ele>1013.8</ele><time>2026-04-10T14:47:51.565Z</time></trkpt><trkpt lat="42.5347292" lon="13.0372892"><ele>1013.2</ele><time>2026-04-10T14:47:52.554Z</time></trkpt><trkpt lat="42.5346825" lon="13.0371637"><ele>1012.6</ele><time>2026-04-10T14:47:53.561Z</time></trkpt><trkpt lat="42.5346466" lon="13.0370129"><ele>1012.0</ele><time>2026-04-10T14:47:54.57Z</time></trkpt><trkpt lat="42.5346077" lon="13.0368367"><ele>1012.0</ele><time>2026-04-10T14:47:55.57Z</time></trkpt><trkpt lat="42.5345738" lon="13.0366685"><ele>1012.0</ele><time>2026-04-10T14:47:56.572Z</time></trkpt><trkpt lat="42.5345503" lon="13.0365053"><ele>1012.0</ele><time>2026-04-10T14:47:57.574Z</time></trkpt><trkpt lat="42.5345358" lon="13.0363334"><ele>1012.0</ele><time>2026-04-10T14:47:58.572Z</time></trkpt><trkpt lat="42.534524" lon="13.0361409"><ele>1012.25</ele><time>2026-04-10T14:47:59.576Z</time></trkpt><trkpt lat="42.5345189" lon="13.0359659"><ele>1012.5</ele><time>2026-04-10T14:48:00.575Z</time></trkpt><trkpt lat="42.5345253" lon="13.035805"><ele>1012.75</ele><time>2026-04-10T14:48:01.575Z</time></trkpt><trkpt lat="42.5345285" lon="13.0356461"><ele>1013.0</ele><time>2026-04-10T14:48:02.567Z</time></trkpt><trkpt lat="42.534539" lon="13.0355048"><ele>1012.2</ele><time>2026-04-10T14:48:03.574Z</time></trkpt><trkpt lat="42.534559" lon="13.0353523"><ele>1011.4</ele><time>2026-04-10T14:48:04.575Z</time></trkpt><trkpt lat="42.5345769" lon="13.0352046"><ele>1010.6000000000001</ele><time>2026-04-10T14:48:05.578Z</time></trkpt><trkpt lat="42.5345965" lon="13.0350679"><ele>1009.8000000000001</ele><time>2026-04-10T14:48:06.575Z</time></trkpt><trkpt lat="42.5346181" lon="13.0349162"><ele>1009.0</ele><time>2026-04-10T14:48:07.578Z</time></trkpt><trkpt lat="42.5346627" lon="13.0347511"><ele>1009.0</ele><time>2026-04-10T14:48:08.582Z</time></trkpt><trkpt lat="42.534723" lon="13.0345833"><ele>1009.0</ele><time>2026-04-10T14:48:09.575Z</time></trkpt><trkpt lat="42.5347787" lon="13.0344273"><ele>1009.0</ele><time>2026-04-10T14:48:10.579Z</time></trkpt><trkpt lat="42.534832" lon="13.0342885"><ele>1009.0</ele><time>2026-04-10T14:48:11.584Z</time></trkpt><trkpt lat="42.5349063" lon="13.0341497"><ele>1009.75</ele><time>2026-04-10T14:48:12.581Z</time></trkpt><trkpt lat="42.5349852" lon="13.03401"><ele>1010.5</ele><time>2026-04-10T14:48:13.593Z</time></trkpt><trkpt lat="42.5350562" lon="13.0338599"><ele>1011.25</ele><time>2026-04-10T14:48:14.576Z</time></trkpt><trkpt lat="42.5351228" lon="13.0337274"><ele>1012.0</ele><time>2026-04-10T14:48:15.576Z</time></trkpt><trkpt lat="42.5351865" lon="13.0335929"><ele>1012.0</ele><time>2026-04-10T14:48:16.576Z</time></trkpt><trkpt lat="42.5352512" lon="13.033446"><ele>1012.0</ele><time>2026-04-10T14:48:17.583Z</time></trkpt><trkpt lat="42.5353044" lon="13.0333021"><ele>1012.0</ele><time>2026-04-10T14:48:18.571Z</time></trkpt><trkpt lat="42.5353459" lon="13.0331465"><ele>1012.0</ele><time>2026-04-10T14:48:19.575Z</time></trkpt><trkpt lat="42.5353583" lon="13.0330003"><ele>1012.75</ele><time>2026-04-10T14:48:20.569Z</time></trkpt><trkpt lat="42.5353549" lon="13.0328475"><ele>1013.5</ele><time>2026-04-10T14:48:21.57Z</time></trkpt><trkpt lat="42.5353578" lon="13.032683"><ele>1014.25</ele><time>2026-04-10T14:48:22.562Z</time></trkpt><trkpt lat="42.5353644" lon="13.0325203"><ele>1015.0</ele><time>2026-04-10T14:48:23.555Z</time></trkpt><trkpt lat="42.5353494" lon="13.0323459"><ele>1015.5</ele><time>2026-04-10T14:48:24.562Z</time></trkpt><trkpt lat="42.5353239" lon="13.0321627"><ele>1016.0</ele><time>2026-04-10T14:48:25.56Z</time></trkpt><trkpt lat="42.535321" lon="13.0319795"><ele>1016.5</ele><time>2026-04-10T14:48:26.555Z</time></trkpt><trkpt lat="42.5353341" lon="13.0317589"><ele>1017.0</ele><time>2026-04-10T14:48:27.556Z</time></trkpt><trkpt lat="42.5353565" lon="13.0315631"><ele>1015.5</ele><time>2026-04-10T14:48:28.564Z</time></trkpt><trkpt lat="42.5353873" lon="13.0313589"><ele>1014.0</ele><time>2026-04-10T14:48:29.568Z</time></trkpt><trkpt lat="42.535456" lon="13.0311948"><ele>1012.5</ele><time>2026-04-10T14:48:30.572Z</time></trkpt><trkpt lat="42.5355284" lon="13.031044"><ele>1011.0</ele><time>2026-04-10T14:48:31.571Z</time></trkpt><trkpt lat="42.5356106" lon="13.0308976"><ele>1011.75</ele><time>2026-04-10T14:48:32.571Z</time></trkpt><trkpt lat="42.5356863" lon="13.0307325"><ele>1012.5</ele><time>2026-04-10T14:48:33.57Z</time></trkpt><trkpt lat="42.5357485" lon="13.0305574"><ele>1013.25</ele><time>2026-04-10T14:48:34.566Z</time></trkpt><trkpt lat="42.535775" lon="13.0304186"><ele>1014.0</ele><time>2026-04-10T14:48:35.572Z</time></trkpt><trkpt lat="42.535845" lon="13.030256"><ele>1014.0</ele><time>2026-04-10T14:48:36.569Z</time></trkpt><trkpt lat="42.5359" lon="13.0300997"><ele>1014.0</ele><time>2026-04-10T14:48:37.571Z</time></trkpt><trkpt lat="42.5359455" lon="13.029956"><ele>1014.0</ele><time>2026-04-10T14:48:38.567Z</time></trkpt><trkpt lat="42.5359857" lon="13.0297977"><ele>1014.0</ele><time>2026-04-10T14:48:39.57Z</time></trkpt><trkpt lat="42.5360093" lon="13.0296367"><ele>1013.75</ele><time>2026-04-10T14:48:40.566Z</time></trkpt><trkpt lat="42.5360183" lon="13.0294741"><ele>1013.5</ele><time>2026-04-10T14:48:41.565Z</time></trkpt><trkpt lat="42.5359813" lon="13.029276"><ele>1013.25</ele><time>2026-04-10T14:48:42.556Z</time></trkpt><trkpt lat="42.5359393" lon="13.029078"><ele>1013.0</ele><time>2026-04-10T14:48:43.557Z</time></trkpt><trkpt lat="42.5359207" lon="13.0288982"><ele>1013.0</ele><time>2026-04-10T14:48:44.567Z</time></trkpt><trkpt lat="42.5359195" lon="13.0287354"><ele>1013.0</ele><time>2026-04-10T14:48:45.558Z</time></trkpt><trkpt lat="42.5359445" lon="13.0285876"><ele>1013.0</ele><time>2026-04-10T14:48:46.569Z</time></trkpt><trkpt lat="42.5359881" lon="13.0284587"><ele>1013.0</ele><time>2026-04-10T14:48:47.567Z</time></trkpt><trkpt lat="42.5360584" lon="13.0283472"><ele>1013.0</ele><time>2026-04-10T14:48:48.566Z</time></trkpt><trkpt lat="42.5361558" lon="13.0282468"><ele>1012.6666666666667</ele><time>2026-04-10T14:48:49.561Z</time></trkpt><trkpt lat="42.5362467" lon="13.0281693"><ele>1012.3333333333334</ele><time>2026-04-10T14:48:50.57Z</time></trkpt><trkpt lat="42.536323" lon="13.0280883"><ele>1012.0</ele><time>2026-04-10T14:48:51.569Z</time></trkpt><trkpt lat="42.5363845" lon="13.0280099"><ele>1011.6666666666667</ele><time>2026-04-10T14:48:52.571Z</time></trkpt><trkpt lat="42.5364227" lon="13.0279283"><ele>1011.3333333333334</ele><time>2026-04-10T14:48:53.564Z</time></trkpt><trkpt lat="42.5364404" lon="13.0278136"><ele>1011.0</ele><time>2026-04-10T14:48:54.564Z</time></trkpt><trkpt lat="42.5364522" lon="13.0276866"><ele>1011.0</ele><time>2026-04-10T14:48:55.559Z</time></trkpt><trkpt lat="42.5364447" lon="13.0275375"><ele>1011.0</ele><time>2026-04-10T14:48:56.554Z</time></trkpt><trkpt lat="42.5364442" lon="13.0273966"><ele>1011.0</ele><time>2026-04-10T14:48:57.558Z</time></trkpt><trkpt lat="42.5364382" lon="13.0272761"><ele>1011.0</ele><time>2026-04-10T14:48:58.547Z</time></trkpt><trkpt lat="42.536444" lon="13.0271812"><ele>1011.0</ele><time>2026-04-10T14:48:59.556Z</time></trkpt><trkpt lat="42.5364505" lon="13.0270927"><ele>1011.0</ele><time>2026-04-10T14:49:00.559Z</time></trkpt><trkpt lat="42.5365235" lon="13.0269871"><ele>1011.6666666666666</ele><time>2026-04-10T14:49:02.567Z</time></trkpt><trkpt lat="42.5365798" lon="13.0269424"><ele>1012.3333333333333</ele><time>2026-04-10T14:49:03.559Z</time></trkpt><trkpt lat="42.5366223" lon="13.0268789"><ele>1013.0</ele><time>2026-04-10T14:49:04.56Z</time></trkpt><trkpt lat="42.536665" lon="13.0268044"><ele>1013.6666666666666</ele><time>2026-04-10T14:49:05.562Z</time></trkpt><trkpt lat="42.5366879" lon="13.0266814"><ele>1014.3333333333333</ele><time>2026-04-10T14:49:06.56Z</time></trkpt><trkpt lat="42.5367107" lon="13.0265293"><ele>1015.0</ele><time>2026-04-10T14:49:07.553Z</time></trkpt><trkpt lat="42.5367089" lon="13.0263746"><ele>1014.9999999999999</ele><time>2026-04-10T14:49:08.557Z</time></trkpt><trkpt lat="42.5367176" lon="13.0262297"><ele>1015.0</ele><time>2026-04-10T14:49:09.556Z</time></trkpt><trkpt lat="42.5367274" lon="13.0261155"><ele>1015.0</ele><time>2026-04-10T14:49:10.558Z</time></trkpt><trkpt lat="42.5367538" lon="13.0260307"><ele>1015.0</ele><time>2026-04-10T14:49:11.557Z</time></trkpt><trkpt lat="42.5367193" lon="13.0259505"><ele>1014.9999999999999</ele><time>2026-04-10T14:49:12.562Z</time></trkpt><trkpt lat="42.5366593" lon="13.0258942"><ele>1015.0</ele><time>2026-04-10T14:49:13.564Z</time></trkpt><trkpt lat="42.5365945" lon="13.0258758"><ele>1014.9999999999999</ele><time>2026-04-10T14:49:14.565Z</time></trkpt><trkpt lat="42.5365252" lon="13.025863"><ele>1015.0</ele><time>2026-04-10T14:49:15.576Z</time></trkpt><trkpt lat="42.5364414" lon="13.0258696"><ele>1015.0</ele><time>2026-04-10T14:49:16.563Z</time></trkpt><trkpt lat="42.5363634" lon="13.0258206"><ele>1015.0</ele><time>2026-04-10T14:49:17.563Z</time></trkpt><trkpt lat="42.5362897" lon="13.0257512"><ele>1014.9999999999999</ele><time>2026-04-10T14:49:18.568Z</time></trkpt><trkpt lat="42.5362402" lon="13.0256614"><ele>1015.0</ele><time>2026-04-10T14:49:19.567Z</time></trkpt><trkpt lat="42.5362144" lon="13.0255494"><ele>1016.4</ele><time>2026-04-10T14:49:20.562Z</time></trkpt><trkpt lat="42.5362167" lon="13.0254288"><ele>1017.8</ele><time>2026-04-10T14:49:21.567Z</time></trkpt><trkpt lat="42.5362514" lon="13.0253038"><ele>1019.2</ele><time>2026-04-10T14:49:22.575Z</time></trkpt><trkpt lat="42.5362997" lon="13.025174"><ele>1020.6</ele><time>2026-04-10T14:49:23.569Z</time></trkpt><trkpt lat="42.5363377" lon="13.0250367"><ele>1022.0</ele><time>2026-04-10T14:49:24.568Z</time></trkpt><trkpt lat="42.5363763" lon="13.024908"><ele>1017.75</ele><time>2026-04-10T14:49:25.578Z</time></trkpt><trkpt lat="42.5363856" lon="13.0247614"><ele>1013.5</ele><time>2026-04-10T14:49:26.572Z</time></trkpt><trkpt lat="42.5363639" lon="13.0246031"><ele>1009.25</ele><time>2026-04-10T14:49:27.574Z</time></trkpt><trkpt lat="42.5363347" lon="13.0244494"><ele>1005.0</ele><time>2026-04-10T14:49:28.566Z</time></trkpt><trkpt lat="42.5363134" lon="13.0243031"><ele>1005.0</ele><time>2026-04-10T14:49:29.572Z</time></trkpt><trkpt lat="42.5363171" lon="13.0241584"><ele>1005.0</ele><time>2026-04-10T14:49:30.576Z</time></trkpt><trkpt lat="42.5363336" lon="13.0240124"><ele>1005.0</ele><time>2026-04-10T14:49:31.575Z</time></trkpt><trkpt lat="42.5363593" lon="13.0239014"><ele>1005.0</ele><time>2026-04-10T14:49:32.565Z</time></trkpt><trkpt lat="42.5363941" lon="13.0237974"><ele>1005.0</ele><time>2026-04-10T14:49:33.562Z</time></trkpt><trkpt lat="42.5364395" lon="13.0237182"><ele>1006.0</ele><time>2026-04-10T14:49:34.562Z</time></trkpt><trkpt lat="42.5365007" lon="13.0236825"><ele>1007.0</ele><time>2026-04-10T14:49:35.568Z</time></trkpt><trkpt lat="42.5365825" lon="13.0236837"><ele>1008.0</ele><time>2026-04-10T14:49:36.57Z</time></trkpt><trkpt lat="42.5366636" lon="13.0236971"><ele>1009.0</ele><time>2026-04-10T14:49:37.564Z</time></trkpt><trkpt lat="42.5367432" lon="13.0237095"><ele>1010.0</ele><time>2026-04-10T14:49:38.56Z</time></trkpt><trkpt lat="42.5368149" lon="13.0237048"><ele>1011.0</ele><time>2026-04-10T14:49:39.566Z</time></trkpt><trkpt lat="42.53689" lon="13.0236881"><ele>1011.0</ele><time>2026-04-10T14:49:40.563Z</time></trkpt><trkpt lat="42.5369887" lon="13.0236565"><ele>1010.9999999999999</ele><time>2026-04-10T14:49:41.566Z</time></trkpt><trkpt lat="42.5370757" lon="13.0236036"><ele>1010.9999999999999</ele><time>2026-04-10T14:49:42.576Z</time></trkpt><trkpt lat="42.5371468" lon="13.0235087"><ele>1011.0</ele><time>2026-04-10T14:49:43.568Z</time></trkpt><trkpt lat="42.5372043" lon="13.0234048"><ele>1011.0</ele><time>2026-04-10T14:49:44.575Z</time></trkpt><trkpt lat="42.5372617" lon="13.0233063"><ele>1010.5999999999999</ele><time>2026-04-10T14:49:45.598Z</time></trkpt><trkpt lat="42.5373142" lon="13.0231845"><ele>1010.1999999999999</ele><time>2026-04-10T14:49:46.576Z</time></trkpt><trkpt lat="42.5373436" lon="13.023076"><ele>1009.8000000000001</ele><time>2026-04-10T14:49:47.572Z</time></trkpt><trkpt lat="42.537356" lon="13.0229565"><ele>1009.4000000000001</ele><time>2026-04-10T14:49:48.578Z</time></trkpt><trkpt lat="42.5373323" lon="13.0228319"><ele>1009.0</ele><time>2026-04-10T14:49:49.572Z</time></trkpt><trkpt lat="42.5372975" lon="13.0227077"><ele>1008.9999999999999</ele><time>2026-04-10T14:49:50.575Z</time></trkpt><trkpt lat="42.5372718" lon="13.0225943"><ele>1009.0</ele><time>2026-04-10T14:49:51.574Z</time></trkpt><trkpt lat="42.5372569" lon="13.0224946"><ele>1009.0</ele><time>2026-04-10T14:49:52.57Z</time></trkpt><trkpt lat="42.5372662" lon="13.0223955"><ele>1009.0</ele><time>2026-04-10T14:49:53.569Z</time></trkpt><trkpt lat="42.5373258" lon="13.0222766"><ele>1008.9999999999999</ele><time>2026-04-10T14:49:55.568Z</time></trkpt><trkpt lat="42.5374204" lon="13.022235"><ele>1009.0</ele><time>2026-04-10T14:49:56.559Z</time></trkpt><trkpt lat="42.5375564" lon="13.0221792"><ele>1009.75</ele><time>2026-04-10T14:49:57.568Z</time></trkpt><trkpt lat="42.5376869" lon="13.0221172"><ele>1010.5</ele><time>2026-04-10T14:49:58.563Z</time></trkpt><trkpt lat="42.5378393" lon="13.0220685"><ele>1011.25</ele><time>2026-04-10T14:49:59.569Z</time></trkpt><trkpt lat="42.5379706" lon="13.0220106"><ele>1012.0</ele><time>2026-04-10T14:50:00.569Z</time></trkpt><trkpt lat="42.5380859" lon="13.0219601"><ele>1012.0</ele><time>2026-04-10T14:50:01.57Z</time></trkpt><trkpt lat="42.538178" lon="13.0219316"><ele>1012.0</ele><time>2026-04-10T14:50:02.572Z</time></trkpt><trkpt lat="42.5382413" lon="13.0218998"><ele>1012.0</ele><time>2026-04-10T14:50:03.575Z</time></trkpt><trkpt lat="42.53829" lon="13.021753"><ele>1012.0</ele><time>2026-04-10T14:50:05.568Z</time></trkpt><trkpt lat="42.5382866" lon="13.0216245"><ele>1012.0</ele><time>2026-04-10T14:50:06.569Z</time></trkpt><trkpt lat="42.5382855" lon="13.0214911"><ele>1011.25</ele><time>2026-04-10T14:50:07.568Z</time></trkpt><trkpt lat="42.5382582" lon="13.0213375"><ele>1010.5</ele><time>2026-04-10T14:50:08.564Z</time></trkpt><trkpt lat="42.5382432" lon="13.0211672"><ele>1009.75</ele><time>2026-04-10T14:50:09.572Z</time></trkpt><trkpt lat="42.5382373" lon="13.0210118"><ele>1009.0</ele><time>2026-04-10T14:50:10.565Z</time></trkpt><trkpt lat="42.5382595" lon="13.0208729"><ele>1010.2</ele><time>2026-04-10T14:50:11.569Z</time></trkpt><trkpt lat="42.5382823" lon="13.0207474"><ele>1011.4000000000001</ele><time>2026-04-10T14:50:12.573Z</time></trkpt><trkpt lat="42.5383307" lon="13.0206579"><ele>1012.6</ele><time>2026-04-10T14:50:13.565Z</time></trkpt><trkpt lat="42.5383847" lon="13.0205563"><ele>1013.8</ele><time>2026-04-10T14:50:14.573Z</time></trkpt><trkpt lat="42.5384676" lon="13.0204993"><ele>1015.0</ele><time>2026-04-10T14:50:15.591Z</time></trkpt><trkpt lat="42.5385594" lon="13.0204399"><ele>1015.0</ele><time>2026-04-10T14:50:16.58Z</time></trkpt><trkpt lat="42.5386367" lon="13.0203631"><ele>1015.0</ele><time>2026-04-10T14:50:17.571Z</time></trkpt><trkpt lat="42.5387214" lon="13.0202707"><ele>1015.0</ele><time>2026-04-10T14:50:18.581Z</time></trkpt><trkpt lat="42.5387814" lon="13.0201835"><ele>1015.0</ele><time>2026-04-10T14:50:19.572Z</time></trkpt><trkpt lat="42.5388233" lon="13.0200718"><ele>1015.0</ele><time>2026-04-10T14:50:20.567Z</time></trkpt><trkpt lat="42.5388508" lon="13.0199524"><ele>1012.8</ele><time>2026-04-10T14:50:21.564Z</time></trkpt><trkpt lat="42.5388664" lon="13.0198298"><ele>1010.6</ele><time>2026-04-10T14:50:22.572Z</time></trkpt><trkpt lat="42.5388696" lon="13.0196973"><ele>1008.4000000000001</ele><time>2026-04-10T14:50:23.569Z</time></trkpt><trkpt lat="42.5388566" lon="13.0195711"><ele>1006.2</ele><time>2026-04-10T14:50:24.567Z</time></trkpt><trkpt lat="42.5388298" lon="13.0194421"><ele>1004.0</ele><time>2026-04-10T14:50:25.567Z</time></trkpt><trkpt lat="42.5388068" lon="13.0193152"><ele>1004.0</ele><time>2026-04-10T14:50:26.568Z</time></trkpt><trkpt lat="42.5387934" lon="13.0192178"><ele>1004.0000000000001</ele><time>2026-04-10T14:50:27.574Z</time></trkpt><trkpt lat="42.5388076" lon="13.0190882"><ele>1004.0000000000001</ele><time>2026-04-10T14:50:28.572Z</time></trkpt><trkpt lat="42.5388427" lon="13.018964"><ele>1004.0</ele><time>2026-04-10T14:50:29.575Z</time></trkpt><trkpt lat="42.5388999" lon="13.018845"><ele>1004.0</ele><time>2026-04-10T14:50:30.571Z</time></trkpt><trkpt lat="42.5389792" lon="13.0187253"><ele>1005.5</ele><time>2026-04-10T14:50:31.573Z</time></trkpt><trkpt lat="42.5390485" lon="13.0185813"><ele>1007.0</ele><time>2026-04-10T14:50:32.572Z</time></trkpt><trkpt lat="42.5391222" lon="13.0184391"><ele>1008.5</ele><time>2026-04-10T14:50:33.573Z</time></trkpt><trkpt lat="42.5391811" lon="13.0182772"><ele>1010.0</ele><time>2026-04-10T14:50:34.569Z</time></trkpt><trkpt lat="42.5392291" lon="13.0181134"><ele>1010.25</ele><time>2026-04-10T14:50:35.576Z</time></trkpt><trkpt lat="42.5392423" lon="13.0179481"><ele>1010.5</ele><time>2026-04-10T14:50:36.574Z</time></trkpt><trkpt lat="42.5392683" lon="13.0177747"><ele>1010.75</ele><time>2026-04-10T14:50:37.576Z</time></trkpt><trkpt lat="42.5392546" lon="13.0175776"><ele>1011.0</ele><time>2026-04-10T14:50:38.574Z</time></trkpt><trkpt lat="42.5392435" lon="13.0174689"><ele>1011.0</ele><time>2026-04-10T14:50:39.574Z</time></trkpt><trkpt lat="42.5392561" lon="13.0173373"><ele>1011.0</ele><time>2026-04-10T14:50:40.576Z</time></trkpt><trkpt lat="42.5393509" lon="13.0172216"><ele>1011.0</ele><time>2026-04-10T14:50:41.582Z</time></trkpt><trkpt lat="42.5394446" lon="13.017093"><ele>1011.0</ele><time>2026-04-10T14:50:42.58Z</time></trkpt><trkpt lat="42.5395346" lon="13.0169881"><ele>1009.1999999999999</ele><time>2026-04-10T14:50:43.587Z</time></trkpt><trkpt lat="42.5395944" lon="13.0168659"><ele>1007.3999999999999</ele><time>2026-04-10T14:50:44.577Z</time></trkpt><trkpt lat="42.5396356" lon="13.0167705"><ele>1005.6</ele><time>2026-04-10T14:50:45.574Z</time></trkpt><trkpt lat="42.5396715" lon="13.0166873"><ele>1003.8</ele><time>2026-04-10T14:50:46.581Z</time></trkpt><trkpt lat="42.5396763" lon="13.0165521"><ele>1002.0</ele><time>2026-04-10T14:50:47.575Z</time></trkpt><trkpt lat="42.5396843" lon="13.0164005"><ele>1002.0</ele><time>2026-04-10T14:50:48.584Z</time></trkpt><trkpt lat="42.5396855" lon="13.0162425"><ele>1002.0</ele><time>2026-04-10T14:50:49.571Z</time></trkpt><trkpt lat="42.5396776" lon="13.0160865"><ele>1002.0</ele><time>2026-04-10T14:50:50.575Z</time></trkpt><trkpt lat="42.5396719" lon="13.015938"><ele>1002.0</ele><time>2026-04-10T14:50:51.571Z</time></trkpt><trkpt lat="42.5396972" lon="13.0158207"><ele>1002.0</ele><time>2026-04-10T14:50:52.575Z</time></trkpt><trkpt lat="42.539739" lon="13.0157069"><ele>1002.4000000000001</ele><time>2026-04-10T14:50:53.572Z</time></trkpt><trkpt lat="42.539804" lon="13.0156127"><ele>1002.8000000000001</ele><time>2026-04-10T14:50:54.57Z</time></trkpt><trkpt lat="42.5398756" lon="13.0155246"><ele>1003.2</ele><time>2026-04-10T14:50:55.574Z</time></trkpt><trkpt lat="42.539935" lon="13.0154307"><ele>1003.6</ele><time>2026-04-10T14:50:56.578Z</time></trkpt><trkpt lat="42.5399894" lon="13.0153338"><ele>1004.0</ele><time>2026-04-10T14:50:57.576Z</time></trkpt><trkpt lat="42.5400307" lon="13.0152393"><ele>1004.0</ele><time>2026-04-10T14:50:58.573Z</time></trkpt><trkpt lat="42.5400515" lon="13.0151441"><ele>1004.0000000000001</ele><time>2026-04-10T14:50:59.57Z</time></trkpt><trkpt lat="42.5400635" lon="13.0150316"><ele>1004.0000000000001</ele><time>2026-04-10T14:51:00.573Z</time></trkpt><trkpt lat="42.5400343" lon="13.0149064"><ele>1004.0</ele><time>2026-04-10T14:51:01.573Z</time></trkpt><trkpt lat="42.540026" lon="13.0147777"><ele>1004.0</ele><time>2026-04-10T14:51:02.564Z</time></trkpt><trkpt lat="42.5400211" lon="13.0146399"><ele>1004.6666666666667</ele><time>2026-04-10T14:51:03.56Z</time></trkpt><trkpt lat="42.5400383" lon="13.0145286"><ele>1005.3333333333334</ele><time>2026-04-10T14:51:04.559Z</time></trkpt><trkpt lat="42.5400543" lon="13.0144405"><ele>1006.0</ele><time>2026-04-10T14:51:05.568Z</time></trkpt><trkpt lat="42.540114" lon="13.0144045"><ele>1006.6666666666667</ele><time>2026-04-10T14:51:06.566Z</time></trkpt><trkpt lat="42.5401921" lon="13.0144154"><ele>1007.3333333333334</ele><time>2026-04-10T14:51:07.568Z</time></trkpt><trkpt lat="42.5402781" lon="13.0144174"><ele>1008.0</ele><time>2026-04-10T14:51:08.567Z</time></trkpt><trkpt lat="42.5403647" lon="13.0143991"><ele>1008.2</ele><time>2026-04-10T14:51:09.566Z</time></trkpt><trkpt lat="42.5404523" lon="13.0143623"><ele>1008.4</ele><time>2026-04-10T14:51:10.564Z</time></trkpt><trkpt lat="42.5405235" lon="13.014271"><ele>1008.6000000000001</ele><time>2026-04-10T14:51:11.57Z</time></trkpt><trkpt lat="42.5405823" lon="13.0141418"><ele>1008.8000000000001</ele><time>2026-04-10T14:51:12.568Z</time></trkpt><trkpt lat="42.5406491" lon="13.0140138"><ele>1009.0</ele><time>2026-04-10T14:51:13.567Z</time></trkpt><trkpt lat="42.5407215" lon="13.0138725"><ele>1009.0</ele><time>2026-04-10T14:51:14.573Z</time></trkpt><trkpt lat="42.5408063" lon="13.0137329"><ele>1009.0</ele><time>2026-04-10T14:51:15.566Z</time></trkpt><trkpt lat="42.5409051" lon="13.0135621"><ele>1009.0</ele><time>2026-04-10T14:51:16.569Z</time></trkpt><trkpt lat="42.5410023" lon="13.0133737"><ele>1009.0</ele><time>2026-04-10T14:51:17.583Z</time></trkpt><trkpt lat="42.5411011" lon="13.0132518"><ele>1009.0000000000001</ele><time>2026-04-10T14:51:18.576Z</time></trkpt><trkpt lat="42.5411675" lon="13.0131483"><ele>1009.0000000000001</ele><time>2026-04-10T14:51:19.572Z</time></trkpt><trkpt lat="42.5412125" lon="13.0130485"><ele>1009.0</ele><time>2026-04-10T14:51:20.576Z</time></trkpt><trkpt lat="42.5412429" lon="13.0129258"><ele>1009.0</ele><time>2026-04-10T14:51:21.569Z</time></trkpt><trkpt lat="42.5412921" lon="13.0128252"><ele>1009.0</ele><time>2026-04-10T14:51:22.572Z</time></trkpt><trkpt lat="42.5413452" lon="13.0127439"><ele>1009.0000000000001</ele><time>2026-04-10T14:51:23.564Z</time></trkpt><trkpt lat="42.5414266" lon="13.0127017"><ele>1009.0000000000001</ele><time>2026-04-10T14:51:24.573Z</time></trkpt><trkpt lat="42.5415152" lon="13.0126565"><ele>1009.0</ele><time>2026-04-10T14:51:25.572Z</time></trkpt><trkpt lat="42.5416203" lon="13.0126063"><ele>1009.0</ele><time>2026-04-10T14:51:26.576Z</time></trkpt><trkpt lat="42.5417403" lon="13.0125584"><ele>1009.0</ele><time>2026-04-10T14:51:27.568Z</time></trkpt><trkpt lat="42.5418642" lon="13.0125258"><ele>1009.0</ele><time>2026-04-10T14:51:28.567Z</time></trkpt><trkpt lat="42.5420034" lon="13.0125561"><ele>1009.0</ele><time>2026-04-10T14:51:29.567Z</time></trkpt><trkpt lat="42.5421413" lon="13.0125799"><ele>1009.0</ele><time>2026-04-10T14:51:30.559Z</time></trkpt><trkpt lat="42.5422945" lon="13.0125936"><ele>1009.5</ele><time>2026-04-10T14:51:31.557Z</time></trkpt><trkpt lat="42.542423" lon="13.0125799"><ele>1010.0</ele><time>2026-04-10T14:51:32.562Z</time></trkpt><trkpt lat="42.5425471" lon="13.0125455"><ele>1010.5</ele><time>2026-04-10T14:51:33.558Z</time></trkpt><trkpt lat="42.5426737" lon="13.0125106"><ele>1011.0</ele><time>2026-04-10T14:51:34.561Z</time></trkpt><trkpt lat="42.5427965" lon="13.0124417"><ele>1011.5</ele><time>2026-04-10T14:51:35.562Z</time></trkpt><trkpt lat="42.5429239" lon="13.0123467"><ele>1012.0</ele><time>2026-04-10T14:51:36.566Z</time></trkpt><trkpt lat="42.5430289" lon="13.0122284"><ele>1012.5</ele><time>2026-04-10T14:51:37.569Z</time></trkpt><trkpt lat="42.5431055" lon="13.0120933"><ele>1013.0</ele><time>2026-04-10T14:51:38.559Z</time></trkpt><trkpt lat="42.543209" lon="13.0119422"><ele>1013.0</ele><time>2026-04-10T14:51:39.564Z</time></trkpt><trkpt lat="42.5432807" lon="13.0118565"><ele>1013.0</ele><time>2026-04-10T14:51:40.565Z</time></trkpt><trkpt lat="42.5433194" lon="13.0117474"><ele>1013.0</ele><time>2026-04-10T14:51:41.557Z</time></trkpt><trkpt lat="42.5433814" lon="13.0115706"><ele>1013.0</ele><time>2026-04-10T14:51:42.562Z</time></trkpt><trkpt lat="42.54341" lon="13.0114413"><ele>1013.0</ele><time>2026-04-10T14:51:43.564Z</time></trkpt><trkpt lat="42.543424" lon="13.0113344"><ele>1012.5999999999999</ele><time>2026-04-10T14:51:44.562Z</time></trkpt><trkpt lat="42.5434322" lon="13.011236"><ele>1012.1999999999999</ele><time>2026-04-10T14:51:45.576Z</time></trkpt><trkpt lat="42.5435242" lon="13.0111638"><ele>1011.8</ele><time>2026-04-10T14:51:47.57Z</time></trkpt><trkpt lat="42.5436373" lon="13.0112038"><ele>1011.4</ele><time>2026-04-10T14:51:49.572Z</time></trkpt><trkpt lat="42.5437485" lon="13.0112596"><ele>1011.0</ele><time>2026-04-10T14:51:51.573Z</time></trkpt><trkpt lat="42.5438292" lon="13.0112491"><ele>1011.0</ele><time>2026-04-10T14:51:52.576Z</time></trkpt><trkpt lat="42.5439114" lon="13.0112041"><ele>1011.0</ele><time>2026-04-10T14:51:53.573Z</time></trkpt><trkpt lat="42.5440042" lon="13.0111277"><ele>1011.0</ele><time>2026-04-10T14:51:54.574Z</time></trkpt><trkpt lat="42.5440848" lon="13.0110053"><ele>1011.0</ele><time>2026-04-10T14:51:55.569Z</time></trkpt><trkpt lat="42.5441896" lon="13.0108796"><ele>1012.3333333333333</ele><time>2026-04-10T14:51:56.567Z</time></trkpt><trkpt lat="42.5442842" lon="13.0107215"><ele>1013.6666666666666</ele><time>2026-04-10T14:51:57.572Z</time></trkpt><trkpt lat="42.5443737" lon="13.010509"><ele>1015.0</ele><time>2026-04-10T14:51:58.57Z</time></trkpt><trkpt lat="42.5444652" lon="13.0103555"><ele>1014.9999999999999</ele><time>2026-04-10T14:51:59.568Z</time></trkpt><trkpt lat="42.5444898" lon="13.0102162"><ele>1015.0</ele><time>2026-04-10T14:52:00.572Z</time></trkpt><trkpt lat="42.5445482" lon="13.0101408"><ele>1015.0</ele><time>2026-04-10T14:52:01.572Z</time></trkpt><trkpt lat="42.5446109" lon="13.0100835"><ele>1015.0</ele><time>2026-04-10T14:52:02.57Z</time></trkpt><trkpt lat="42.5446793" lon="13.0100139"><ele>1014.9999999999999</ele><time>2026-04-10T14:52:03.571Z</time></trkpt><trkpt lat="42.5447308" lon="13.009931"><ele>1015.0</ele><time>2026-04-10T14:52:04.572Z</time></trkpt><trkpt lat="42.5447741" lon="13.0098487"><ele>1013.4</ele><time>2026-04-10T14:52:05.578Z</time></trkpt><trkpt lat="42.5447944" lon="13.0097653"><ele>1011.8</ele><time>2026-04-10T14:52:06.576Z</time></trkpt><trkpt lat="42.5448006" lon="13.0096681"><ele>1010.2</ele><time>2026-04-10T14:52:07.579Z</time></trkpt><trkpt lat="42.5448047" lon="13.0095363"><ele>1008.6</ele><time>2026-04-10T14:52:08.577Z</time></trkpt><trkpt lat="42.5448342" lon="13.0093878"><ele>1007.0</ele><time>2026-04-10T14:52:09.578Z</time></trkpt><trkpt lat="42.5448862" lon="13.0092278"><ele>1007.5</ele><time>2026-04-10T14:52:10.576Z</time></trkpt><trkpt lat="42.5449418" lon="13.0090799"><ele>1008.0</ele><time>2026-04-10T14:52:11.573Z</time></trkpt><trkpt lat="42.5450038" lon="13.0089398"><ele>1008.5</ele><time>2026-04-10T14:52:12.57Z</time></trkpt><trkpt lat="42.5450916" lon="13.0088385"><ele>1009.0</ele><time>2026-04-10T14:52:13.571Z</time></trkpt><trkpt lat="42.5451972" lon="13.008751"><ele>1009.0</ele><time>2026-04-10T14:52:14.577Z</time></trkpt><trkpt lat="42.5452947" lon="13.0086679"><ele>1009.0</ele><time>2026-04-10T14:52:15.577Z</time></trkpt><trkpt lat="42.5453871" lon="13.0085612"><ele>1009.0</ele><time>2026-04-10T14:52:16.581Z</time></trkpt><trkpt lat="42.5454668" lon="13.0084451"><ele>1009.0</ele><time>2026-04-10T14:52:17.574Z</time></trkpt><trkpt lat="42.5455166" lon="13.0083003"><ele>1005.75</ele><time>2026-04-10T14:52:18.576Z</time></trkpt><trkpt lat="42.5455416" lon="13.0081539"><ele>1002.5</ele><time>2026-04-10T14:52:19.585Z</time></trkpt><trkpt lat="42.5455504" lon="13.0079762"><ele>999.25</ele><time>2026-04-10T14:52:20.568Z</time></trkpt><trkpt lat="42.5455613" lon="13.0078071"><ele>996.0</ele><time>2026-04-10T14:52:21.571Z</time></trkpt><trkpt lat="42.5455669" lon="13.0076241"><ele>998.0</ele><time>2026-04-10T14:52:22.572Z</time></trkpt><trkpt lat="42.5455774" lon="13.0074799"><ele>1000.0</ele><time>2026-04-10T14:52:23.573Z</time></trkpt><trkpt lat="42.5455941" lon="13.0073169"><ele>1002.0</ele><time>2026-04-10T14:52:24.569Z</time></trkpt><trkpt lat="42.5456113" lon="13.0071627"><ele>1004.0</ele><time>2026-04-10T14:52:25.563Z</time></trkpt><trkpt lat="42.5456542" lon="13.0070189"><ele>1004.0</ele><time>2026-04-10T14:52:26.568Z</time></trkpt><trkpt lat="42.5457279" lon="13.0068876"><ele>1004.0</ele><time>2026-04-10T14:52:27.584Z</time></trkpt><trkpt lat="42.5458299" lon="13.0067897"><ele>1004.0</ele><time>2026-04-10T14:52:28.573Z</time></trkpt><trkpt lat="42.5459468" lon="13.0067167"><ele>1004.0</ele><time>2026-04-10T14:52:29.579Z</time></trkpt><trkpt lat="42.5460699" lon="13.0067047"><ele>1004.0</ele><time>2026-04-10T14:52:30.576Z</time></trkpt><trkpt lat="42.5461869" lon="13.0067232"><ele>1004.0000000000001</ele><time>2026-04-10T14:52:31.57Z</time></trkpt><trkpt lat="42.5462936" lon="13.0067412"><ele>1004.0000000000001</ele><time>2026-04-10T14:52:32.57Z</time></trkpt><trkpt lat="42.5463946" lon="13.0067498"><ele>1004.0</ele><time>2026-04-10T14:52:33.587Z</time></trkpt><trkpt lat="42.5464855" lon="13.0067156"><ele>1004.0</ele><time>2026-04-10T14:52:34.573Z</time></trkpt><trkpt lat="42.5465564" lon="13.0066319"><ele>1000.0</ele><time>2026-04-10T14:52:35.584Z</time></trkpt><trkpt lat="42.5466027" lon="13.0065259"><ele>996.0000000000001</ele><time>2026-04-10T14:52:36.576Z</time></trkpt><trkpt lat="42.5466211" lon="13.0064044"><ele>992.0000000000001</ele><time>2026-04-10T14:52:37.569Z</time></trkpt><trkpt lat="42.5466178" lon="13.0062572"><ele>988.0</ele><time>2026-04-10T14:52:38.569Z</time></trkpt><trkpt lat="42.5465853" lon="13.0060932"><ele>984.0</ele><time>2026-04-10T14:52:39.568Z</time></trkpt><trkpt lat="42.5465469" lon="13.0059146"><ele>984.0</ele><time>2026-04-10T14:52:40.57Z</time></trkpt><trkpt lat="42.5465158" lon="13.0057378"><ele>984.0</ele><time>2026-04-10T14:52:41.573Z</time></trkpt><trkpt lat="42.5465015" lon="13.005574"><ele>984.0</ele><time>2026-04-10T14:52:42.58Z</time></trkpt><trkpt lat="42.5465124" lon="13.0054206"><ele>984.0</ele><time>2026-04-10T14:52:43.576Z</time></trkpt><trkpt lat="42.5465547" lon="13.0052654"><ele>984.0</ele><time>2026-04-10T14:52:44.578Z</time></trkpt><trkpt lat="42.5466314" lon="13.0051102"><ele>984.0</ele><time>2026-04-10T14:52:45.582Z</time></trkpt><trkpt lat="42.5467271" lon="13.0049638"><ele>984.0</ele><time>2026-04-10T14:52:46.575Z</time></trkpt><trkpt lat="42.5468285" lon="13.0048289"><ele>984.0</ele><time>2026-04-10T14:52:47.581Z</time></trkpt><trkpt lat="42.5469077" lon="13.0046966"><ele>984.0</ele><time>2026-04-10T14:52:48.575Z</time></trkpt><trkpt lat="42.5469704" lon="13.004552"><ele>984.0</ele><time>2026-04-10T14:52:49.577Z</time></trkpt><trkpt lat="42.5470047" lon="13.0043815"><ele>984.0</ele><time>2026-04-10T14:52:50.575Z</time></trkpt><trkpt lat="42.5470346" lon="13.0042015"><ele>984.0</ele><time>2026-04-10T14:52:51.579Z</time></trkpt><trkpt lat="42.5470611" lon="13.0040275"><ele>984.0</ele><time>2026-04-10T14:52:52.588Z</time></trkpt><trkpt lat="42.5470865" lon="13.0038556"><ele>984.0</ele><time>2026-04-10T14:52:53.585Z</time></trkpt><trkpt lat="42.5471338" lon="13.0037067"><ele>984.0</ele><time>2026-04-10T14:52:54.583Z</time></trkpt><trkpt lat="42.5471949" lon="13.0035682"><ele>984.0</ele><time>2026-04-10T14:52:55.579Z</time></trkpt><trkpt lat="42.5472832" lon="13.0034395"><ele>986.6666666666667</ele><time>2026-04-10T14:52:56.586Z</time></trkpt><trkpt lat="42.5473844" lon="13.0032926"><ele>989.3333333333334</ele><time>2026-04-10T14:52:57.577Z</time></trkpt><trkpt lat="42.5475208" lon="13.0031337"><ele>992.0</ele><time>2026-04-10T14:52:58.57Z</time></trkpt><trkpt lat="42.5476549" lon="13.0029647"><ele>992.0</ele><time>2026-04-10T14:52:59.576Z</time></trkpt><trkpt lat="42.5477697" lon="13.0027995"><ele>992.0</ele><time>2026-04-10T14:53:00.568Z</time></trkpt><trkpt lat="42.5478852" lon="13.0026513"><ele>992.0</ele><time>2026-04-10T14:53:01.585Z</time></trkpt><trkpt lat="42.5479904" lon="13.0024947"><ele>991.0</ele><time>2026-04-10T14:53:02.573Z</time></trkpt><trkpt lat="42.5481162" lon="13.0023438"><ele>990.0</ele><time>2026-04-10T14:53:03.581Z</time></trkpt><trkpt lat="42.5482508" lon="13.0022022"><ele>989.0</ele><time>2026-04-10T14:53:04.581Z</time></trkpt><trkpt lat="42.5483818" lon="13.0020257"><ele>989.0</ele><time>2026-04-10T14:53:05.585Z</time></trkpt><trkpt lat="42.5485321" lon="13.0018239"><ele>989.0</ele><time>2026-04-10T14:53:06.583Z</time></trkpt><trkpt lat="42.5486904" lon="13.0016182"><ele>989.0</ele><time>2026-04-10T14:53:07.584Z</time></trkpt><trkpt lat="42.5488308" lon="13.0014318"><ele>986.6666666666667</ele><time>2026-04-10T14:53:08.578Z</time></trkpt><trkpt lat="42.5489768" lon="13.0012723"><ele>984.3333333333333</ele><time>2026-04-10T14:53:09.577Z</time></trkpt><trkpt lat="42.5491091" lon="13.0011383"><ele>982.0</ele><time>2026-04-10T14:53:10.565Z</time></trkpt><trkpt lat="42.5492368" lon="13.0010272"><ele>982.0</ele><time>2026-04-10T14:53:11.566Z</time></trkpt><trkpt lat="42.5493425" lon="13.0009303"><ele>982.0</ele><time>2026-04-10T14:53:12.569Z</time></trkpt><trkpt lat="42.5494162" lon="13.0008063"><ele>982.0</ele><time>2026-04-10T14:53:13.565Z</time></trkpt><trkpt lat="42.5494652" lon="13.0006977"><ele>982.0</ele><time>2026-04-10T14:53:14.557Z</time></trkpt><trkpt lat="42.5494859" lon="13.0005899"><ele>982.0</ele><time>2026-04-10T14:53:15.565Z</time></trkpt><trkpt lat="42.5494937" lon="13.0004384"><ele>982.6</ele><time>2026-04-10T14:53:17.567Z</time></trkpt><trkpt lat="42.5494817" lon="13.0003132"><ele>983.2</ele><time>2026-04-10T14:53:18.583Z</time></trkpt><trkpt lat="42.5494758" lon="13.0001696"><ele>983.8</ele><time>2026-04-10T14:53:19.575Z</time></trkpt><trkpt lat="42.5494892" lon="13.0000251"><ele>984.4</ele><time>2026-04-10T14:53:20.571Z</time></trkpt><trkpt lat="42.5495081" lon="12.999861"><ele>985.0</ele><time>2026-04-10T14:53:21.585Z</time></trkpt><trkpt lat="42.5495433" lon="12.9997009"><ele>982.75</ele><time>2026-04-10T14:53:22.571Z</time></trkpt><trkpt lat="42.5495726" lon="12.9995221"><ele>980.5</ele><time>2026-04-10T14:53:23.568Z</time></trkpt><trkpt lat="42.5496" lon="12.9993408"><ele>978.25</ele><time>2026-04-10T14:53:24.569Z</time></trkpt><trkpt lat="42.5496113" lon="12.9991815"><ele>976.0</ele><time>2026-04-10T14:53:25.569Z</time></trkpt><trkpt lat="42.5496053" lon="12.9990438"><ele>975.9999999999999</ele><time>2026-04-10T14:53:26.568Z</time></trkpt><trkpt lat="42.5495733" lon="12.9989421"><ele>976.0</ele><time>2026-04-10T14:53:27.575Z</time></trkpt><trkpt lat="42.549507" lon="12.9988404"><ele>976.0</ele><time>2026-04-10T14:53:29.57Z</time></trkpt><trkpt lat="42.5494434" lon="12.9987787"><ele>976.0</ele><time>2026-04-10T14:53:31.571Z</time></trkpt><trkpt lat="42.5493894" lon="12.9986998"><ele>975.9999999999999</ele><time>2026-04-10T14:53:34.583Z</time></trkpt><trkpt lat="42.5493767" lon="12.9985984"><ele>976.0</ele><time>2026-04-10T14:53:36.576Z</time></trkpt><trkpt lat="42.5494288" lon="12.9984437"><ele>975.8333333333333</ele><time>2026-04-10T14:53:38.577Z</time></trkpt><trkpt lat="42.5494674" lon="12.9983607"><ele>975.6666666666666</ele><time>2026-04-10T14:53:39.582Z</time></trkpt><trkpt lat="42.5495055" lon="12.9982801"><ele>975.5</ele><time>2026-04-10T14:53:40.575Z</time></trkpt><trkpt lat="42.5495436" lon="12.9981941"><ele>975.3333333333333</ele><time>2026-04-10T14:53:41.573Z</time></trkpt><trkpt lat="42.5495832" lon="12.9981006"><ele>975.1666666666666</ele><time>2026-04-10T14:53:42.574Z</time></trkpt><trkpt lat="42.5496252" lon="12.9979938"><ele>975.0</ele><time>2026-04-10T14:53:43.565Z</time></trkpt><trkpt lat="42.5496473" lon="12.9978632"><ele>975.0</ele><time>2026-04-10T14:53:44.563Z</time></trkpt><trkpt lat="42.5496639" lon="12.9977274"><ele>975.0</ele><time>2026-04-10T14:53:45.569Z</time></trkpt><trkpt lat="42.5496649" lon="12.9976074"><ele>975.0</ele><time>2026-04-10T14:53:46.571Z</time></trkpt><trkpt lat="42.5496599" lon="12.9975147"><ele>975.0</ele><time>2026-04-10T14:53:47.574Z</time></trkpt><trkpt lat="42.5496616" lon="12.9974206"><ele>975.0</ele><time>2026-04-10T14:53:49.577Z</time></trkpt><trkpt lat="42.549664" lon="12.9972189"><ele>975.3333333333333</ele><time>2026-04-10T14:54:21.576Z</time></trkpt><trkpt lat="42.5496702" lon="12.99702"><ele>975.6666666666666</ele><time>2026-04-10T14:54:22.576Z</time></trkpt><trkpt lat="42.5496847" lon="12.9968053"><ele>976.0</ele><time>2026-04-10T14:54:23.592Z</time></trkpt><trkpt lat="42.5496751" lon="12.9965894"><ele>976.0</ele><time>2026-04-10T14:54:24.561Z</time></trkpt><trkpt lat="42.5496966" lon="12.9964039"><ele>976.0</ele><time>2026-04-10T14:54:25.565Z</time></trkpt><trkpt lat="42.5497333" lon="12.9962464"><ele>976.0</ele><time>2026-04-10T14:54:26.572Z</time></trkpt><trkpt lat="42.5497602" lon="12.9960604"><ele>976.0</ele><time>2026-04-10T14:54:27.586Z</time></trkpt><trkpt lat="42.5497892" lon="12.9958886"><ele>975.5</ele><time>2026-04-10T14:54:28.574Z</time></trkpt><trkpt lat="42.5497928" lon="12.9957385"><ele>975.0</ele><time>2026-04-10T14:54:29.578Z</time></trkpt><trkpt lat="42.5498043" lon="12.9955668"><ele>974.5</ele><time>2026-04-10T14:54:30.576Z</time></trkpt><trkpt lat="42.5498105" lon="12.9954"><ele>974.0</ele><time>2026-04-10T14:54:31.574Z</time></trkpt><trkpt lat="42.5498018" lon="12.9952476"><ele>974.0</ele><time>2026-04-10T14:54:32.577Z</time></trkpt><trkpt lat="42.5497933" lon="12.9950798"><ele>974.0000000000001</ele><time>2026-04-10T14:54:33.58Z</time></trkpt><trkpt lat="42.5498089" lon="12.9949285"><ele>974.0000000000001</ele><time>2026-04-10T14:54:34.564Z</time></trkpt><trkpt lat="42.5498273" lon="12.9947945"><ele>974.0</ele><time>2026-04-10T14:54:35.569Z</time></trkpt><trkpt lat="42.5498283" lon="12.9946453"><ele>974.0</ele><time>2026-04-10T14:54:36.568Z</time></trkpt><trkpt lat="42.5498163" lon="12.9944962"><ele>973.6</ele><time>2026-04-10T14:54:37.571Z</time></trkpt><trkpt lat="42.5498007" lon="12.9943407"><ele>973.2</ele><time>2026-04-10T14:54:38.569Z</time></trkpt><trkpt lat="42.5498021" lon="12.994201"><ele>972.8000000000001</ele><time>2026-04-10T14:54:39.572Z</time></trkpt><trkpt lat="42.5498143" lon="12.994085"><ele>972.4000000000001</ele><time>2026-04-10T14:54:40.568Z</time></trkpt><trkpt lat="42.5498299" lon="12.9939808"><ele>972.0</ele><time>2026-04-10T14:54:41.566Z</time></trkpt><trkpt lat="42.5498151" lon="12.9938698"><ele>971.3333333333334</ele><time>2026-04-10T14:54:42.568Z</time></trkpt><trkpt lat="42.5497919" lon="12.993759"><ele>970.6666666666667</ele><time>2026-04-10T14:54:43.574Z</time></trkpt><trkpt lat="42.5497612" lon="12.9936598"><ele>970.0</ele><time>2026-04-10T14:54:44.564Z</time></trkpt><trkpt lat="42.5497137" lon="12.9935583"><ele>969.3333333333334</ele><time>2026-04-10T14:54:45.567Z</time></trkpt><trkpt lat="42.5496557" lon="12.9934615"><ele>968.6666666666667</ele><time>2026-04-10T14:54:46.576Z</time></trkpt><trkpt lat="42.5496078" lon="12.9933714"><ele>968.0</ele><time>2026-04-10T14:54:47.57Z</time></trkpt><trkpt lat="42.5495751" lon="12.993269"><ele>967.0</ele><time>2026-04-10T14:54:48.571Z</time></trkpt><trkpt lat="42.5495517" lon="12.9931612"><ele>966.0</ele><time>2026-04-10T14:54:49.572Z</time></trkpt><trkpt lat="42.5495691" lon="12.9930341"><ele>965.0</ele><time>2026-04-10T14:54:50.575Z</time></trkpt><trkpt lat="42.5496083" lon="12.9929112"><ele>964.0</ele><time>2026-04-10T14:54:51.57Z</time></trkpt><trkpt lat="42.5496576" lon="12.9927841"><ele>963.0</ele><time>2026-04-10T14:54:52.584Z</time></trkpt><trkpt lat="42.5497409" lon="12.9926425"><ele>963.0</ele><time>2026-04-10T14:54:53.583Z</time></trkpt><trkpt lat="42.5498382" lon="12.9924966"><ele>963.0</ele><time>2026-04-10T14:54:54.575Z</time></trkpt><trkpt lat="42.5499616" lon="12.9923552"><ele>963.0</ele><time>2026-04-10T14:54:55.573Z</time></trkpt><trkpt lat="42.5500981" lon="12.992233"><ele>963.0</ele><time>2026-04-10T14:54:56.59Z</time></trkpt><trkpt lat="42.5502369" lon="12.9921202"><ele>963.0</ele><time>2026-04-10T14:54:57.584Z</time></trkpt><trkpt lat="42.5503635" lon="12.9920237"><ele>963.0</ele><time>2026-04-10T14:54:58.578Z</time></trkpt><trkpt lat="42.5504531" lon="12.9919623"><ele>963.0</ele><time>2026-04-10T14:54:59.581Z</time></trkpt><trkpt lat="42.550515" lon="12.9919299"><ele>963.3333333333334</ele><time>2026-04-10T14:55:00.58Z</time></trkpt><trkpt lat="42.5505186" lon="12.9917985"><ele>963.6666666666667</ele><time>2026-04-10T14:55:02.588Z</time></trkpt><trkpt lat="42.5505647" lon="12.9917317"><ele>964.0</ele><time>2026-04-10T14:55:03.59Z</time></trkpt><trkpt lat="42.5506335" lon="12.9916828"><ele>964.3333333333334</ele><time>2026-04-10T14:55:04.582Z</time></trkpt><trkpt lat="42.5507201" lon="12.9916329"><ele>964.6666666666667</ele><time>2026-04-10T14:55:05.589Z</time></trkpt><trkpt lat="42.5508154" lon="12.9915704"><ele>965.0</ele><time>2026-04-10T14:55:06.582Z</time></trkpt><trkpt lat="42.5509105" lon="12.991479"><ele>965.0</ele><time>2026-04-10T14:55:07.579Z</time></trkpt><trkpt lat="42.5510005" lon="12.9913871"><ele>965.0</ele><time>2026-04-10T14:55:08.578Z</time></trkpt><trkpt lat="42.5510965" lon="12.9912673"><ele>965.0</ele><time>2026-04-10T14:55:09.584Z</time></trkpt><trkpt lat="42.5511865" lon="12.9911082"><ele>965.0</ele><time>2026-04-10T14:55:10.58Z</time></trkpt><trkpt lat="42.5512632" lon="12.9909508"><ele>965.0</ele><time>2026-04-10T14:55:11.572Z</time></trkpt><trkpt lat="42.5513447" lon="12.9908162"><ele>965.0</ele><time>2026-04-10T14:55:12.578Z</time></trkpt><trkpt lat="42.5514418" lon="12.9906688"><ele>965.0</ele><time>2026-04-10T14:55:13.574Z</time></trkpt><trkpt lat="42.5515771" lon="12.9905573"><ele>965.0</ele><time>2026-04-10T14:55:14.575Z</time></trkpt><trkpt lat="42.5517166" lon="12.990414"><ele>965.0</ele><time>2026-04-10T14:55:15.584Z</time></trkpt><trkpt lat="42.5518541" lon="12.9902563"><ele>965.0</ele><time>2026-04-10T14:55:16.58Z</time></trkpt><trkpt lat="42.5519683" lon="12.9901576"><ele>965.0</ele><time>2026-04-10T14:55:17.585Z</time></trkpt><trkpt lat="42.5520887" lon="12.9900481"><ele>964.25</ele><time>2026-04-10T14:55:18.585Z</time></trkpt><trkpt lat="42.552183" lon="12.9899053"><ele>963.5</ele><time>2026-04-10T14:55:19.582Z</time></trkpt><trkpt lat="42.5522384" lon="12.9897434"><ele>962.75</ele><time>2026-04-10T14:55:20.579Z</time></trkpt><trkpt lat="42.55233" lon="12.9895917"><ele>962.0</ele><time>2026-04-10T14:55:21.582Z</time></trkpt><trkpt lat="42.5524042" lon="12.9894228"><ele>962.0</ele><time>2026-04-10T14:55:22.593Z</time></trkpt><trkpt lat="42.5525194" lon="12.9893087"><ele>962.0</ele><time>2026-04-10T14:55:23.577Z</time></trkpt><trkpt lat="42.5526266" lon="12.9891609"><ele>962.0</ele><time>2026-04-10T14:55:24.586Z</time></trkpt><trkpt lat="42.5526557" lon="12.9890703"><ele>962.0</ele><time>2026-04-10T14:55:25.574Z</time></trkpt><trkpt lat="42.5527086" lon="12.9889837"><ele>962.8333333333334</ele><time>2026-04-10T14:55:27.57Z</time></trkpt><trkpt lat="42.5527423" lon="12.9889069"><ele>963.6666666666667</ele><time>2026-04-10T14:55:46.6Z</time></trkpt><trkpt lat="42.5527635" lon="12.9888179"><ele>964.5</ele><time>2026-04-10T14:56:12.589Z</time></trkpt><trkpt lat="42.5528366" lon="12.988738"><ele>965.3333333333333</ele><time>2026-04-10T14:56:14.586Z</time></trkpt><trkpt lat="42.5528922" lon="12.9886731"><ele>966.1666666666666</ele><time>2026-04-10T14:56:15.577Z</time></trkpt><trkpt lat="42.55297" lon="12.9885939"><ele>967.0</ele><time>2026-04-10T14:56:16.581Z</time></trkpt><trkpt lat="42.5530364" lon="12.9884742"><ele>965.5</ele><time>2026-04-10T14:56:17.571Z</time></trkpt><trkpt lat="42.5530939" lon="12.9883493"><ele>964.0</ele><time>2026-04-10T14:56:18.574Z</time></trkpt><trkpt lat="42.5531478" lon="12.9882104"><ele>962.5</ele><time>2026-04-10T14:56:19.577Z</time></trkpt><trkpt lat="42.5532025" lon="12.9880392"><ele>961.0</ele><time>2026-04-10T14:56:20.573Z</time></trkpt><trkpt lat="42.5532438" lon="12.9878766"><ele>961.0</ele><time>2026-04-10T14:56:21.575Z</time></trkpt><trkpt lat="42.5532701" lon="12.9876977"><ele>961.0</ele><time>2026-04-10T14:56:22.57Z</time></trkpt><trkpt lat="42.5533023" lon="12.9875377"><ele>961.0</ele><time>2026-04-10T14:56:23.584Z</time></trkpt><trkpt lat="42.5533276" lon="12.9873573"><ele>961.0</ele><time>2026-04-10T14:56:24.573Z</time></trkpt><trkpt lat="42.5533635" lon="12.9872137"><ele>961.5999999999999</ele><time>2026-04-10T14:56:25.58Z</time></trkpt><trkpt lat="42.5534037" lon="12.9870839"><ele>962.1999999999999</ele><time>2026-04-10T14:56:26.578Z</time></trkpt><trkpt lat="42.5534325" lon="12.9869556"><ele>962.8000000000001</ele><time>2026-04-10T14:56:27.578Z</time></trkpt><trkpt lat="42.5534554" lon="12.9868017"><ele>963.4000000000001</ele><time>2026-04-10T14:56:28.566Z</time></trkpt><trkpt lat="42.5534728" lon="12.986672"><ele>964.0</ele><time>2026-04-10T14:56:29.571Z</time></trkpt><trkpt lat="42.5535071" lon="12.9865454"><ele>964.5</ele><time>2026-04-10T14:56:30.58Z</time></trkpt><trkpt lat="42.5535682" lon="12.9864205"><ele>965.0</ele><time>2026-04-10T14:56:31.565Z</time></trkpt><trkpt lat="42.5536346" lon="12.9862805"><ele>965.5</ele><time>2026-04-10T14:56:32.574Z</time></trkpt><trkpt lat="42.5537045" lon="12.9861423"><ele>966.0</ele><time>2026-04-10T14:56:33.572Z</time></trkpt><trkpt lat="42.5537775" lon="12.9860176"><ele>962.5999999999999</ele><time>2026-04-10T14:56:34.571Z</time></trkpt><trkpt lat="42.5538487" lon="12.985886"><ele>959.1999999999999</ele><time>2026-04-10T14:56:35.579Z</time></trkpt><trkpt lat="42.5539198" lon="12.9857569"><ele>955.8000000000001</ele><time>2026-04-10T14:56:36.576Z</time></trkpt><trkpt lat="42.553969" lon="12.985635"><ele>952.4000000000001</ele><time>2026-04-10T14:56:37.576Z</time></trkpt><trkpt lat="42.5540124" lon="12.9855304"><ele>949.0</ele><time>2026-04-10T14:56:38.574Z</time></trkpt><trkpt lat="42.5540518" lon="12.9854378"><ele>949.0</ele><time>2026-04-10T14:56:39.565Z</time></trkpt><trkpt lat="42.5540819" lon="12.98532"><ele>949.0000000000001</ele><time>2026-04-10T14:56:40.568Z</time></trkpt><trkpt lat="42.5541015" lon="12.9851767"><ele>949.0000000000001</ele><time>2026-04-10T14:56:41.573Z</time></trkpt><trkpt lat="42.5541031" lon="12.9850263"><ele>949.0</ele><time>2026-04-10T14:56:42.566Z</time></trkpt><trkpt lat="42.5541092" lon="12.9848914"><ele>949.0</ele><time>2026-04-10T14:56:43.569Z</time></trkpt><trkpt lat="42.5541078" lon="12.9847586"><ele>949.0</ele><time>2026-04-10T14:56:44.574Z</time></trkpt><trkpt lat="42.5541207" lon="12.9846084"><ele>949.0000000000001</ele><time>2026-04-10T14:56:45.569Z</time></trkpt><trkpt lat="42.5541602" lon="12.9844934"><ele>949.0000000000001</ele><time>2026-04-10T14:56:46.566Z</time></trkpt><trkpt lat="42.5541904" lon="12.9843802"><ele>949.0</ele><time>2026-04-10T14:56:47.559Z</time></trkpt><trkpt lat="42.5542558" lon="12.9842727"><ele>949.0</ele><time>2026-04-10T14:56:48.559Z</time></trkpt><trkpt lat="42.5543423" lon="12.98417"><ele>949.4000000000001</ele><time>2026-04-10T14:56:49.564Z</time></trkpt><trkpt lat="42.5543918" lon="12.9840647"><ele>949.8000000000001</ele><time>2026-04-10T14:56:50.562Z</time></trkpt><trkpt lat="42.5544535" lon="12.9839488"><ele>950.1999999999999</ele><time>2026-04-10T14:56:51.575Z</time></trkpt><trkpt lat="42.5545282" lon="12.9838271"><ele>950.5999999999999</ele><time>2026-04-10T14:56:52.57Z</time></trkpt><trkpt lat="42.5545937" lon="12.9836841"><ele>951.0</ele><time>2026-04-10T14:56:53.57Z</time></trkpt><trkpt lat="42.5546606" lon="12.9835336"><ele>949.0</ele><time>2026-04-10T14:56:54.574Z</time></trkpt><trkpt lat="42.5547235" lon="12.9833624"><ele>947.0</ele><time>2026-04-10T14:56:55.565Z</time></trkpt><trkpt lat="42.554788" lon="12.9832014"><ele>945.0</ele><time>2026-04-10T14:56:56.56Z</time></trkpt><trkpt lat="42.5548748" lon="12.9830587"><ele>943.0</ele><time>2026-04-10T14:56:57.578Z</time></trkpt><trkpt lat="42.554953" lon="12.982909"><ele>943.0</ele><time>2026-04-10T14:56:58.565Z</time></trkpt><trkpt lat="42.5550207" lon="12.9827228"><ele>943.0</ele><time>2026-04-10T14:56:59.569Z</time></trkpt><trkpt lat="42.5551004" lon="12.9825971"><ele>943.0</ele><time>2026-04-10T14:57:00.566Z</time></trkpt><trkpt lat="42.5552154" lon="12.9825075"><ele>943.0</ele><time>2026-04-10T14:57:01.563Z</time></trkpt><trkpt lat="42.5553534" lon="12.982415"><ele>942.75</ele><time>2026-04-10T14:57:02.57Z</time></trkpt><trkpt lat="42.5554691" lon="12.9822859"><ele>942.5</ele><time>2026-04-10T14:57:03.57Z</time></trkpt><trkpt lat="42.5555955" lon="12.9822551"><ele>942.25</ele><time>2026-04-10T14:57:04.569Z</time></trkpt><trkpt lat="42.5556741" lon="12.9821791"><ele>942.0</ele><time>2026-04-10T14:57:05.566Z</time></trkpt><trkpt lat="42.5557416" lon="12.9820916"><ele>942.0</ele><time>2026-04-10T14:57:06.572Z</time></trkpt><trkpt lat="42.5557887" lon="12.9820093"><ele>942.0</ele><time>2026-04-10T14:57:07.575Z</time></trkpt><trkpt lat="42.5558492" lon="12.9819312"><ele>942.0</ele><time>2026-04-10T14:57:08.573Z</time></trkpt><trkpt lat="42.5558221" lon="12.9817647"><ele>942.0</ele><time>2026-04-10T14:57:09.562Z</time></trkpt><trkpt lat="42.555869" lon="12.9816033"><ele>942.0</ele><time>2026-04-10T14:57:10.567Z</time></trkpt><trkpt lat="42.5559343" lon="12.9814455"><ele>942.5</ele><time>2026-04-10T14:57:11.563Z</time></trkpt><trkpt lat="42.5559894" lon="12.9812969"><ele>943.0</ele><time>2026-04-10T14:57:12.566Z</time></trkpt><trkpt lat="42.5560505" lon="12.9811414"><ele>943.5</ele><time>2026-04-10T14:57:13.564Z</time></trkpt><trkpt lat="42.5561022" lon="12.9809627"><ele>944.0</ele><time>2026-04-10T14:57:14.57Z</time></trkpt><trkpt lat="42.5561626" lon="12.9807967"><ele>943.4000000000001</ele><time>2026-04-10T14:57:15.568Z</time></trkpt><trkpt lat="42.5562287" lon="12.9806483"><ele>942.8000000000001</ele><time>2026-04-10T14:57:16.565Z</time></trkpt><trkpt lat="42.5562979" lon="12.9805311"><ele>942.1999999999999</ele><time>2026-04-10T14:57:17.56Z</time></trkpt><trkpt lat="42.5563749" lon="12.9804457"><ele>941.5999999999999</ele><time>2026-04-10T14:57:18.574Z</time></trkpt><trkpt lat="42.5564568" lon="12.980355"><ele>941.0</ele><time>2026-04-10T14:57:19.571Z</time></trkpt><trkpt lat="42.5565416" lon="12.9802661"><ele>941.0</ele><time>2026-04-10T14:57:20.572Z</time></trkpt><trkpt lat="42.5566371" lon="12.9801998"><ele>941.0</ele><time>2026-04-10T14:57:21.57Z</time></trkpt><trkpt lat="42.5567357" lon="12.9801296"><ele>941.0</ele><time>2026-04-10T14:57:22.583Z</time></trkpt><trkpt lat="42.5568449" lon="12.98006"><ele>941.0</ele><time>2026-04-10T14:57:23.577Z</time></trkpt><trkpt lat="42.5569557" lon="12.9799717"><ele>941.5999999999999</ele><time>2026-04-10T14:57:24.579Z</time></trkpt><trkpt lat="42.5570636" lon="12.9799033"><ele>942.1999999999999</ele><time>2026-04-10T14:57:25.592Z</time></trkpt><trkpt lat="42.5571521" lon="12.9798359"><ele>942.8000000000001</ele><time>2026-04-10T14:57:26.574Z</time></trkpt><trkpt lat="42.5572335" lon="12.9797818"><ele>943.4000000000001</ele><time>2026-04-10T14:57:27.586Z</time></trkpt><trkpt lat="42.5572894" lon="12.9797176"><ele>944.0</ele><time>2026-04-10T14:57:28.584Z</time></trkpt><trkpt lat="42.5573459" lon="12.9796733"><ele>944.0</ele><time>2026-04-10T14:57:40.597Z</time></trkpt><trkpt lat="42.5574179" lon="12.9796023"><ele>944.0</ele><time>2026-04-10T14:58:28.596Z</time></trkpt><trkpt lat="42.5575454" lon="12.9794734"><ele>944.0</ele><time>2026-04-10T14:58:30.602Z</time></trkpt><trkpt lat="42.5576497" lon="12.9793406"><ele>944.0</ele><time>2026-04-10T14:58:31.575Z</time></trkpt><trkpt lat="42.5577507" lon="12.9791928"><ele>944.4000000000001</ele><time>2026-04-10T14:58:32.584Z</time></trkpt><trkpt lat="42.5578353" lon="12.9790707"><ele>944.8000000000001</ele><time>2026-04-10T14:58:33.581Z</time></trkpt><trkpt lat="42.5579017" lon="12.9789649"><ele>945.1999999999999</ele><time>2026-04-10T14:58:34.569Z</time></trkpt><trkpt lat="42.5579535" lon="12.9788679"><ele>945.5999999999999</ele><time>2026-04-10T14:58:35.574Z</time></trkpt><trkpt lat="42.5580102" lon="12.9787732"><ele>946.0</ele><time>2026-04-10T14:58:36.57Z</time></trkpt><trkpt lat="42.558063" lon="12.9786558"><ele>946.8</ele><time>2026-04-10T14:58:37.571Z</time></trkpt><trkpt lat="42.558109" lon="12.9785354"><ele>947.5999999999999</ele><time>2026-04-10T14:58:38.568Z</time></trkpt><trkpt lat="42.5581692" lon="12.9784106"><ele>948.4</ele><time>2026-04-10T14:58:39.575Z</time></trkpt><trkpt lat="42.5582314" lon="12.9782847"><ele>949.2</ele><time>2026-04-10T14:58:40.571Z</time></trkpt><trkpt lat="42.5582999" lon="12.9781637"><ele>950.0</ele><time>2026-04-10T14:58:41.579Z</time></trkpt><trkpt lat="42.5583735" lon="12.978041"><ele>950.0</ele><time>2026-04-10T14:58:42.573Z</time></trkpt><trkpt lat="42.5584395" lon="12.9779241"><ele>950.0</ele><time>2026-04-10T14:58:43.576Z</time></trkpt><trkpt lat="42.5585162" lon="12.977798"><ele>950.0</ele><time>2026-04-10T14:58:44.572Z</time></trkpt><trkpt lat="42.5585896" lon="12.9776734"><ele>950.0</ele><time>2026-04-10T14:58:45.576Z</time></trkpt><trkpt lat="42.5586545" lon="12.9775466"><ele>951.4</ele><time>2026-04-10T14:58:46.581Z</time></trkpt><trkpt lat="42.5587091" lon="12.9774279"><ele>952.8</ele><time>2026-04-10T14:58:47.581Z</time></trkpt><trkpt lat="42.558768" lon="12.9773071"><ele>954.2</ele><time>2026-04-10T14:58:48.578Z</time></trkpt><trkpt lat="42.5588093" lon="12.9771782"><ele>955.6</ele><time>2026-04-10T14:58:49.577Z</time></trkpt><trkpt lat="42.5588545" lon="12.9770437"><ele>957.0</ele><time>2026-04-10T14:58:50.581Z</time></trkpt><trkpt lat="42.5588944" lon="12.9768872"><ele>957.0</ele><time>2026-04-10T14:58:51.573Z</time></trkpt><trkpt lat="42.5589482" lon="12.9767391"><ele>957.0</ele><time>2026-04-10T14:58:52.58Z</time></trkpt><trkpt lat="42.5590019" lon="12.976586"><ele>957.0</ele><time>2026-04-10T14:58:53.585Z</time></trkpt><trkpt lat="42.5590484" lon="12.976436"><ele>957.0</ele><time>2026-04-10T14:58:54.586Z</time></trkpt><trkpt lat="42.5590776" lon="12.9762754"><ele>957.25</ele><time>2026-04-10T14:58:55.577Z</time></trkpt><trkpt lat="42.5590917" lon="12.9761021"><ele>957.5</ele><time>2026-04-10T14:58:56.585Z</time></trkpt><trkpt lat="42.5591016" lon="12.9759341"><ele>957.75</ele><time>2026-04-10T14:58:57.591Z</time></trkpt><trkpt lat="42.5590936" lon="12.9757694"><ele>958.0</ele><time>2026-04-10T14:58:58.582Z</time></trkpt><trkpt lat="42.559092" lon="12.9756188"><ele>958.4</ele><time>2026-04-10T14:58:59.593Z</time></trkpt><trkpt lat="42.5590922" lon="12.9754662"><ele>958.8</ele><time>2026-04-10T14:59:00.577Z</time></trkpt><trkpt lat="42.5591053" lon="12.97533"><ele>959.2</ele><time>2026-04-10T14:59:01.591Z</time></trkpt><trkpt lat="42.5591493" lon="12.9752011"><ele>959.6</ele><time>2026-04-10T14:59:02.575Z</time></trkpt><trkpt lat="42.5591888" lon="12.9750619"><ele>960.0</ele><time>2026-04-10T14:59:03.584Z</time></trkpt><trkpt lat="42.5592084" lon="12.9749133"><ele>960.6</ele><time>2026-04-10T14:59:04.578Z</time></trkpt><trkpt lat="42.5592122" lon="12.9747656"><ele>961.2</ele><time>2026-04-10T14:59:05.59Z</time></trkpt><trkpt lat="42.5592108" lon="12.9746239"><ele>961.8</ele><time>2026-04-10T14:59:06.58Z</time></trkpt><trkpt lat="42.5592261" lon="12.9744853"><ele>962.4</ele><time>2026-04-10T14:59:07.581Z</time></trkpt><trkpt lat="42.55924" lon="12.9743406"><ele>963.0</ele><time>2026-04-10T14:59:08.577Z</time></trkpt><trkpt lat="42.5592533" lon="12.9742087"><ele>963.4</ele><time>2026-04-10T14:59:09.585Z</time></trkpt><trkpt lat="42.5592649" lon="12.9740939"><ele>963.8</ele><time>2026-04-10T14:59:10.574Z</time></trkpt><trkpt lat="42.5592561" lon="12.9739896"><ele>964.2</ele><time>2026-04-10T14:59:11.584Z</time></trkpt><trkpt lat="42.5592275" lon="12.9738736"><ele>964.6</ele><time>2026-04-10T14:59:12.579Z</time></trkpt><trkpt lat="42.5592082" lon="12.9737451"><ele>965.0</ele><time>2026-04-10T14:59:13.574Z</time></trkpt><trkpt lat="42.5591935" lon="12.9736072"><ele>965.0</ele><time>2026-04-10T14:59:14.572Z</time></trkpt><trkpt lat="42.559205" lon="12.9734799"><ele>965.0</ele><time>2026-04-10T14:59:15.572Z</time></trkpt><trkpt lat="42.5592435" lon="12.9733461"><ele>965.0</ele><time>2026-04-10T14:59:16.568Z</time></trkpt><trkpt lat="42.559303" lon="12.9732344"><ele>965.0</ele><time>2026-04-10T14:59:17.568Z</time></trkpt><trkpt lat="42.5593843" lon="12.9731427"><ele>965.0</ele><time>2026-04-10T14:59:18.595Z</time></trkpt><trkpt lat="42.5594969" lon="12.973062"><ele>965.0</ele><time>2026-04-10T14:59:19.571Z</time></trkpt><trkpt lat="42.5595998" lon="12.9729787"><ele>965.0</ele><time>2026-04-10T14:59:20.584Z</time></trkpt><trkpt lat="42.559688" lon="12.9728827"><ele>965.0</ele><time>2026-04-10T14:59:21.587Z</time></trkpt><trkpt lat="42.5597574" lon="12.9727786"><ele>965.0</ele><time>2026-04-10T14:59:22.578Z</time></trkpt><trkpt lat="42.559817" lon="12.9726785"><ele>965.0</ele><time>2026-04-10T14:59:23.569Z</time></trkpt><trkpt lat="42.5598691" lon="12.9725901"><ele>965.6666666666667</ele><time>2026-04-10T14:59:24.574Z</time></trkpt><trkpt lat="42.5598939" lon="12.9725047"><ele>966.3333333333334</ele><time>2026-04-10T14:59:25.577Z</time></trkpt><trkpt lat="42.5599356" lon="12.9723421"><ele>967.0</ele><time>2026-04-10T14:59:27.568Z</time></trkpt><trkpt lat="42.5599404" lon="12.9722491"><ele>967.6666666666667</ele><time>2026-04-10T14:59:28.585Z</time></trkpt><trkpt lat="42.55999" lon="12.9721688"><ele>968.3333333333334</ele><time>2026-04-10T14:59:29.574Z</time></trkpt><trkpt lat="42.5600558" lon="12.972081"><ele>969.0</ele><time>2026-04-10T14:59:30.572Z</time></trkpt><trkpt lat="42.5601463" lon="12.9720157"><ele>969.0</ele><time>2026-04-10T14:59:31.584Z</time></trkpt><trkpt lat="42.5602421" lon="12.9719543"><ele>969.0</ele><time>2026-04-10T14:59:32.571Z</time></trkpt><trkpt lat="42.5603403" lon="12.9718795"><ele>969.0</ele><time>2026-04-10T14:59:33.581Z</time></trkpt><trkpt lat="42.5604453" lon="12.9717855"><ele>969.0</ele><time>2026-04-10T14:59:34.582Z</time></trkpt><trkpt lat="42.5605655" lon="12.9716702"><ele>970.25</ele><time>2026-04-10T14:59:35.566Z</time></trkpt><trkpt lat="42.5606973" lon="12.9715572"><ele>971.5</ele><time>2026-04-10T14:59:36.578Z</time></trkpt><trkpt lat="42.5608122" lon="12.9714564"><ele>972.75</ele><time>2026-04-10T14:59:37.575Z</time></trkpt><trkpt lat="42.560933" lon="12.9713666"><ele>974.0</ele><time>2026-04-10T14:59:38.578Z</time></trkpt><trkpt lat="42.5610385" lon="12.9712528"><ele>974.0</ele><time>2026-04-10T14:59:39.572Z</time></trkpt><trkpt lat="42.5611417" lon="12.9711328"><ele>974.0</ele><time>2026-04-10T14:59:40.571Z</time></trkpt><trkpt lat="42.5612511" lon="12.9709994"><ele>974.0</ele><time>2026-04-10T14:59:41.587Z</time></trkpt><trkpt lat="42.5613359" lon="12.9708527"><ele>974.0</ele><time>2026-04-10T14:59:42.582Z</time></trkpt><trkpt lat="42.5614344" lon="12.9707503"><ele>974.25</ele><time>2026-04-10T14:59:43.584Z</time></trkpt><trkpt lat="42.5615273" lon="12.9706467"><ele>974.5</ele><time>2026-04-10T14:59:44.587Z</time></trkpt><trkpt lat="42.5616216" lon="12.9705511"><ele>974.75</ele><time>2026-04-10T14:59:45.58Z</time></trkpt><trkpt lat="42.5616792" lon="12.9704334"><ele>975.0</ele><time>2026-04-10T14:59:46.586Z</time></trkpt><trkpt lat="42.5617269" lon="12.9702982"><ele>975.0</ele><time>2026-04-10T14:59:47.582Z</time></trkpt><trkpt lat="42.5617482" lon="12.9701645"><ele>975.0</ele><time>2026-04-10T14:59:48.586Z</time></trkpt><trkpt lat="42.5617645" lon="12.9700439"><ele>975.0</ele><time>2026-04-10T14:59:49.582Z</time></trkpt><trkpt lat="42.5617922" lon="12.9699287"><ele>975.0</ele><time>2026-04-10T14:59:50.58Z</time></trkpt><trkpt lat="42.5618476" lon="12.9698375"><ele>975.0</ele><time>2026-04-10T14:59:51.584Z</time></trkpt><trkpt lat="42.5619167" lon="12.9697697"><ele>974.8333333333334</ele><time>2026-04-10T14:59:52.58Z</time></trkpt><trkpt lat="42.5619789" lon="12.9697183"><ele>974.6666666666667</ele><time>2026-04-10T14:59:53.585Z</time></trkpt><trkpt lat="42.5620414" lon="12.9696727"><ele>974.5</ele><time>2026-04-10T14:59:54.581Z</time></trkpt><trkpt lat="42.5620782" lon="12.9695449"><ele>974.3333333333334</ele><time>2026-04-10T14:59:56.558Z</time></trkpt><trkpt lat="42.562069" lon="12.9694534"><ele>974.1666666666667</ele><time>2026-04-10T14:59:57.562Z</time></trkpt><trkpt lat="42.5620357" lon="12.9693335"><ele>974.0</ele><time>2026-04-10T14:59:58.557Z</time></trkpt><trkpt lat="42.5619852" lon="12.9692091"><ele>973.0</ele><time>2026-04-10T14:59:59.564Z</time></trkpt><trkpt lat="42.5619399" lon="12.9691122"><ele>972.0000000000001</ele><time>2026-04-10T15:00:00.564Z</time></trkpt><trkpt lat="42.5618833" lon="12.9690193"><ele>971.0000000000001</ele><time>2026-04-10T15:00:01.557Z</time></trkpt><trkpt lat="42.561812" lon="12.968954"><ele>970.0</ele><time>2026-04-10T15:00:02.573Z</time></trkpt><trkpt lat="42.561715" lon="12.9688977"><ele>969.0</ele><time>2026-04-10T15:00:03.555Z</time></trkpt><trkpt lat="42.5616143" lon="12.9688626"><ele>969.0</ele><time>2026-04-10T15:00:04.564Z</time></trkpt><trkpt lat="42.5615258" lon="12.9688338"><ele>969.0000000000001</ele><time>2026-04-10T15:00:05.563Z</time></trkpt><trkpt lat="42.5614189" lon="12.9688266"><ele>969.0000000000001</ele><time>2026-04-10T15:00:06.556Z</time></trkpt><trkpt lat="42.5613209" lon="12.9688155"><ele>969.0</ele><time>2026-04-10T15:00:07.565Z</time></trkpt><trkpt lat="42.5612168" lon="12.9688072"><ele>969.0</ele><time>2026-04-10T15:00:08.56Z</time></trkpt><trkpt lat="42.5611205" lon="12.9687852"><ele>969.2</ele><time>2026-04-10T15:00:09.556Z</time></trkpt><trkpt lat="42.5610212" lon="12.9687584"><ele>969.4000000000001</ele><time>2026-04-10T15:00:10.562Z</time></trkpt><trkpt lat="42.5609221" lon="12.9687502"><ele>969.6</ele><time>2026-04-10T15:00:11.556Z</time></trkpt><trkpt lat="42.5608226" lon="12.9687212"><ele>969.8</ele><time>2026-04-10T15:00:12.558Z</time></trkpt><trkpt lat="42.5607379" lon="12.9686908"><ele>970.0</ele><time>2026-04-10T15:00:13.555Z</time></trkpt><trkpt lat="42.5606691" lon="12.9686372"><ele>970.0</ele><time>2026-04-10T15:00:14.561Z</time></trkpt><trkpt lat="42.5606027" lon="12.9685793"><ele>970.0</ele><time>2026-04-10T15:00:15.554Z</time></trkpt><trkpt lat="42.5605326" lon="12.9685105"><ele>970.0</ele><time>2026-04-10T15:00:16.564Z</time></trkpt><trkpt lat="42.5604511" lon="12.9684301"><ele>970.0</ele><time>2026-04-10T15:00:17.557Z</time></trkpt><trkpt lat="42.5603645" lon="12.9683355"><ele>970.0</ele><time>2026-04-10T15:00:18.558Z</time></trkpt><trkpt lat="42.560279" lon="12.9682523"><ele>969.2</ele><time>2026-04-10T15:00:19.549Z</time></trkpt><trkpt lat="42.5601986" lon="12.9681739"><ele>968.4</ele><time>2026-04-10T15:00:20.557Z</time></trkpt><trkpt lat="42.5601081" lon="12.9680923"><ele>967.5999999999999</ele><time>2026-04-10T15:00:21.558Z</time></trkpt><trkpt lat="42.5600185" lon="12.9680098"><ele>966.8</ele><time>2026-04-10T15:00:22.55Z</time></trkpt><trkpt lat="42.5599296" lon="12.9679276"><ele>966.0</ele><time>2026-04-10T15:00:23.546Z</time></trkpt><trkpt lat="42.5598538" lon="12.9678314"><ele>966.0</ele><time>2026-04-10T15:00:24.551Z</time></trkpt><trkpt lat="42.559794" lon="12.9677526"><ele>965.9999999999999</ele><time>2026-04-10T15:00:25.557Z</time></trkpt><trkpt lat="42.5596986" lon="12.9676278"><ele>965.9999999999999</ele><time>2026-04-10T15:00:27.564Z</time></trkpt><trkpt lat="42.55961" lon="12.9674903"><ele>966.0</ele><time>2026-04-10T15:00:29.57Z</time></trkpt><trkpt lat="42.5595653" lon="12.9674092"><ele>966.0</ele><time>2026-04-10T15:00:30.57Z</time></trkpt><trkpt lat="42.559522" lon="12.9673209"><ele>966.6666666666666</ele><time>2026-04-10T15:00:31.564Z</time></trkpt><trkpt lat="42.5594787" lon="12.9672392"><ele>967.3333333333333</ele><time>2026-04-10T15:00:32.566Z</time></trkpt><trkpt lat="42.5594411" lon="12.9671543"><ele>968.0</ele><time>2026-04-10T15:00:33.58Z</time></trkpt><trkpt lat="42.5594038" lon="12.9670613"><ele>968.6666666666666</ele><time>2026-04-10T15:00:34.568Z</time></trkpt><trkpt lat="42.5593681" lon="12.9669702"><ele>969.3333333333333</ele><time>2026-04-10T15:00:35.579Z</time></trkpt><trkpt lat="42.559351" lon="12.9668664"><ele>970.0</ele><time>2026-04-10T15:00:36.565Z</time></trkpt><trkpt lat="42.5593396" lon="12.9667532"><ele>965.0</ele><time>2026-04-10T15:00:37.573Z</time></trkpt><trkpt lat="42.5593438" lon="12.9666314"><ele>960.0</ele><time>2026-04-10T15:00:38.562Z</time></trkpt><trkpt lat="42.5593671" lon="12.9665119"><ele>955.0</ele><time>2026-04-10T15:00:39.574Z</time></trkpt><trkpt lat="42.5594084" lon="12.9663911"><ele>950.0</ele><time>2026-04-10T15:00:40.56Z</time></trkpt><trkpt lat="42.55947" lon="12.9662949"><ele>945.0</ele><time>2026-04-10T15:00:41.563Z</time></trkpt><trkpt lat="42.5595385" lon="12.9661942"><ele>942.4</ele><time>2026-04-10T15:00:42.578Z</time></trkpt><trkpt lat="42.559607" lon="12.966099"><ele>939.8</ele><time>2026-04-10T15:00:43.569Z</time></trkpt><trkpt lat="42.5596812" lon="12.9660045"><ele>937.2</ele><time>2026-04-10T15:00:44.583Z</time></trkpt><trkpt lat="42.559739" lon="12.9659154"><ele>934.6</ele><time>2026-04-10T15:00:45.586Z</time></trkpt><trkpt lat="42.5598003" lon="12.965824"><ele>932.0</ele><time>2026-04-10T15:00:46.58Z</time></trkpt><trkpt lat="42.5598598" lon="12.9657212"><ele>932.0</ele><time>2026-04-10T15:00:47.574Z</time></trkpt><trkpt lat="42.5599319" lon="12.9656024"><ele>932.0</ele><time>2026-04-10T15:00:48.578Z</time></trkpt><trkpt lat="42.5600105" lon="12.9654713"><ele>932.0</ele><time>2026-04-10T15:00:49.573Z</time></trkpt><trkpt lat="42.5600982" lon="12.965341"><ele>932.0</ele><time>2026-04-10T15:00:50.576Z</time></trkpt><trkpt lat="42.5601651" lon="12.9652253"><ele>932.0000000000001</ele><time>2026-04-10T15:00:51.57Z</time></trkpt><trkpt lat="42.5602263" lon="12.9651251"><ele>932.0</ele><time>2026-04-10T15:00:52.566Z</time></trkpt><trkpt lat="42.5602723" lon="12.9650373"><ele>932.0</ele><time>2026-04-10T15:00:53.564Z</time></trkpt><trkpt lat="42.5603388" lon="12.9649221"><ele>932.0</ele><time>2026-04-10T15:00:55.568Z</time></trkpt><trkpt lat="42.5603802" lon="12.9648371"><ele>932.0000000000001</ele><time>2026-04-10T15:00:56.562Z</time></trkpt><trkpt lat="42.5604303" lon="12.9647678"><ele>932.0</ele><time>2026-04-10T15:00:57.571Z</time></trkpt><trkpt lat="42.5604866" lon="12.9647102"><ele>933.1428571428571</ele><time>2026-04-10T15:00:58.557Z</time></trkpt><trkpt lat="42.5605491" lon="12.9646711"><ele>934.2857142857142</ele><time>2026-04-10T15:00:59.565Z</time></trkpt><trkpt lat="42.5606103" lon="12.9646279"><ele>935.4285714285713</ele><time>2026-04-10T15:01:00.556Z</time></trkpt><trkpt lat="42.5606721" lon="12.9645914"><ele>936.5714285714286</ele><time>2026-04-10T15:01:01.56Z</time></trkpt><trkpt lat="42.5607348" lon="12.9645474"><ele>937.7142857142856</ele><time>2026-04-10T15:01:02.556Z</time></trkpt><trkpt lat="42.5607927" lon="12.964503"><ele>938.8571428571428</ele><time>2026-04-10T15:01:03.551Z</time></trkpt><trkpt lat="42.5608543" lon="12.9644733"><ele>940.0</ele><time>2026-04-10T15:01:04.563Z</time></trkpt><trkpt lat="42.5609181" lon="12.9644425"><ele>939.9999999999999</ele><time>2026-04-10T15:01:05.546Z</time></trkpt><trkpt lat="42.5609897" lon="12.9644239"><ele>940.0</ele><time>2026-04-10T15:01:06.548Z</time></trkpt><trkpt lat="42.5611187" lon="12.9644307"><ele>940.0</ele><time>2026-04-10T15:01:08.548Z</time></trkpt><trkpt lat="42.561186" lon="12.9644289"><ele>940.0</ele><time>2026-04-10T15:01:09.543Z</time></trkpt><trkpt lat="42.5612526" lon="12.964455"><ele>939.9999999999999</ele><time>2026-04-10T15:01:10.555Z</time></trkpt><trkpt lat="42.5613199" lon="12.9644668"><ele>940.0</ele><time>2026-04-10T15:01:11.54Z</time></trkpt><trkpt lat="42.5613885" lon="12.9644706"><ele>940.9999999999999</ele><time>2026-04-10T15:01:12.534Z</time></trkpt><trkpt lat="42.5614585" lon="12.9644578"><ele>942.0</ele><time>2026-04-10T15:01:13.53Z</time></trkpt><trkpt lat="42.561552" lon="12.9644267"><ele>943.0</ele><time>2026-04-10T15:01:15.541Z</time></trkpt><trkpt lat="42.5616288" lon="12.9643924"><ele>944.0</ele><time>2026-04-10T15:01:18.546Z</time></trkpt><trkpt lat="42.5617282" lon="12.964488"><ele>944.9999999999999</ele><time>2026-04-10T15:01:20.543Z</time></trkpt><trkpt lat="42.5617892" lon="12.9645497"><ele>946.0</ele><time>2026-04-10T15:01:21.542Z</time></trkpt><trkpt lat="42.5618468" lon="12.9646013"><ele>946.0</ele><time>2026-04-10T15:01:22.544Z</time></trkpt><trkpt lat="42.5619033" lon="12.9646447"><ele>945.9999999999999</ele><time>2026-04-10T15:01:23.545Z</time></trkpt><trkpt lat="42.5619694" lon="12.9647007"><ele>945.9999999999999</ele><time>2026-04-10T15:01:24.543Z</time></trkpt><trkpt lat="42.562104" lon="12.96482"><ele>946.0</ele><time>2026-04-10T15:01:26.552Z</time></trkpt><trkpt lat="42.5621779" lon="12.964877"><ele>946.0</ele><time>2026-04-10T15:01:27.554Z</time></trkpt><trkpt lat="42.5622566" lon="12.9649409"><ele>948.4</ele><time>2026-04-10T15:01:28.55Z</time></trkpt><trkpt lat="42.5623352" lon="12.9650087"><ele>950.8</ele><time>2026-04-10T15:01:29.554Z</time></trkpt><trkpt lat="42.5624213" lon="12.9650257"><ele>953.1999999999999</ele><time>2026-04-10T15:01:30.564Z</time></trkpt><trkpt lat="42.5625292" lon="12.9650321"><ele>955.5999999999999</ele><time>2026-04-10T15:01:31.56Z</time></trkpt><trkpt lat="42.5626384" lon="12.9650303"><ele>958.0</ele><time>2026-04-10T15:01:32.566Z</time></trkpt><trkpt lat="42.5627648" lon="12.9650141"><ele>958.5</ele><time>2026-04-10T15:01:33.567Z</time></trkpt><trkpt lat="42.5629008" lon="12.9650136"><ele>959.0</ele><time>2026-04-10T15:01:34.575Z</time></trkpt><trkpt lat="42.5630427" lon="12.9650167"><ele>959.5</ele><time>2026-04-10T15:01:35.589Z</time></trkpt><trkpt lat="42.5631754" lon="12.9650202"><ele>960.0</ele><time>2026-04-10T15:01:36.573Z</time></trkpt><trkpt lat="42.5633137" lon="12.9650232"><ele>960.0</ele><time>2026-04-10T15:01:37.577Z</time></trkpt><trkpt lat="42.5634344" lon="12.9650224"><ele>960.0</ele><time>2026-04-10T15:01:38.572Z</time></trkpt><trkpt lat="42.5635642" lon="12.9649945"><ele>960.0</ele><time>2026-04-10T15:01:39.572Z</time></trkpt><trkpt lat="42.5636886" lon="12.9649703"><ele>960.0</ele><time>2026-04-10T15:01:40.57Z</time></trkpt><trkpt lat="42.5637619" lon="12.964937"><ele>959.1666666666666</ele><time>2026-04-10T15:01:41.567Z</time></trkpt><trkpt lat="42.5638401" lon="12.9649239"><ele>958.3333333333333</ele><time>2026-04-10T15:01:42.571Z</time></trkpt><trkpt lat="42.5639127" lon="12.9648804"><ele>957.5</ele><time>2026-04-10T15:01:44.568Z</time></trkpt><trkpt lat="42.5639831" lon="12.9648912"><ele>956.6666666666666</ele><time>2026-04-10T15:01:47.594Z</time></trkpt><trkpt lat="42.5640617" lon="12.9647737"><ele>955.8333333333333</ele><time>2026-04-10T15:01:50.585Z</time></trkpt><trkpt lat="42.5641189" lon="12.9647143"><ele>955.0</ele><time>2026-04-10T15:01:51.576Z</time></trkpt><trkpt lat="42.5641975" lon="12.9646676"><ele>954.9999999999999</ele><time>2026-04-10T15:01:52.58Z</time></trkpt><trkpt lat="42.5642796" lon="12.964628"><ele>955.0</ele><time>2026-04-10T15:01:53.572Z</time></trkpt><trkpt lat="42.5643591" lon="12.9645751"><ele>955.0</ele><time>2026-04-10T15:01:54.581Z</time></trkpt><trkpt lat="42.5644392" lon="12.9645222"><ele>955.0</ele><time>2026-04-10T15:01:55.585Z</time></trkpt><trkpt lat="42.564511" lon="12.9644729"><ele>954.9999999999999</ele><time>2026-04-10T15:01:56.579Z</time></trkpt><trkpt lat="42.5645753" lon="12.9644331"><ele>955.0</ele><time>2026-04-10T15:01:57.583Z</time></trkpt><trkpt lat="42.5646415" lon="12.9644155"><ele>953.8333333333333</ele><time>2026-04-10T15:01:58.569Z</time></trkpt><trkpt lat="42.5647341" lon="12.9644095"><ele>952.6666666666666</ele><time>2026-04-10T15:02:00.582Z</time></trkpt><trkpt lat="42.5647999" lon="12.9644598"><ele>951.5</ele><time>2026-04-10T15:02:42.588Z</time></trkpt><trkpt lat="42.564891" lon="12.9645064"><ele>950.3333333333333</ele><time>2026-04-10T15:02:44.592Z</time></trkpt><trkpt lat="42.5649623" lon="12.9645162"><ele>949.1666666666666</ele><time>2026-04-10T15:02:45.587Z</time></trkpt><trkpt lat="42.565032" lon="12.9645157"><ele>948.0</ele><time>2026-04-10T15:02:46.582Z</time></trkpt><trkpt lat="42.5651028" lon="12.9644966"><ele>948.0</ele><time>2026-04-10T15:02:47.586Z</time></trkpt><trkpt lat="42.5651724" lon="12.9644634"><ele>948.0</ele><time>2026-04-10T15:02:48.582Z</time></trkpt><trkpt lat="42.5652476" lon="12.9644254"><ele>948.0</ele><time>2026-04-10T15:02:49.588Z</time></trkpt><trkpt lat="42.5653184" lon="12.9643775"><ele>948.0</ele><time>2026-04-10T15:02:50.579Z</time></trkpt><trkpt lat="42.5653729" lon="12.9643143"><ele>948.0</ele><time>2026-04-10T15:02:51.571Z</time></trkpt><trkpt lat="42.5654356" lon="12.9642341"><ele>948.0</ele><time>2026-04-10T15:02:52.578Z</time></trkpt><trkpt lat="42.5654851" lon="12.9641314"><ele>950.0</ele><time>2026-04-10T15:02:53.578Z</time></trkpt><trkpt lat="42.5655321" lon="12.9640435"><ele>952.0</ele><time>2026-04-10T15:02:54.583Z</time></trkpt><trkpt lat="42.565549" lon="12.9639251"><ele>954.0</ele><time>2026-04-10T15:02:55.577Z</time></trkpt><trkpt lat="42.5655615" lon="12.9638037"><ele>956.0</ele><time>2026-04-10T15:02:56.581Z</time></trkpt><trkpt lat="42.5655659" lon="12.963696"><ele>958.0</ele><time>2026-04-10T15:02:57.574Z</time></trkpt><trkpt lat="42.5655549" lon="12.9635991"><ele>960.0</ele><time>2026-04-10T15:02:58.585Z</time></trkpt><trkpt lat="42.5655344" lon="12.9634469"><ele>960.8</ele><time>2026-04-10T15:03:00.579Z</time></trkpt><trkpt lat="42.5655189" lon="12.9633074"><ele>961.6</ele><time>2026-04-10T15:03:02.59Z</time></trkpt><trkpt lat="42.5655064" lon="12.9631747"><ele>962.4000000000001</ele><time>2026-04-10T15:03:04.59Z</time></trkpt><trkpt lat="42.5654882" lon="12.9630555"><ele>963.2</ele><time>2026-04-10T15:03:06.581Z</time></trkpt><trkpt lat="42.5654644" lon="12.9629317"><ele>964.0</ele><time>2026-04-10T15:03:08.6Z</time></trkpt><trkpt lat="42.5654372" lon="12.9628204"><ele>963.9999999999999</ele><time>2026-04-10T15:03:10.592Z</time></trkpt><trkpt lat="42.5654667" lon="12.9627144"><ele>964.0</ele><time>2026-04-10T15:03:12.594Z</time></trkpt><trkpt lat="42.5655231" lon="12.9626228"><ele>964.0</ele><time>2026-04-10T15:03:15.602Z</time></trkpt><trkpt lat="42.5655927" lon="12.9625829"><ele>964.0</ele><time>2026-04-10T15:03:17.597Z</time></trkpt><trkpt lat="42.5656635" lon="12.9625534"><ele>963.9999999999999</ele><time>2026-04-10T15:03:20.576Z</time></trkpt><trkpt lat="42.5655986" lon="12.9625384"><ele>964.0</ele><time>2026-04-10T15:03:23.586Z</time></trkpt><trkpt lat="42.565534" lon="12.9625872"><ele>964.0</ele><time>2026-04-10T15:03:24.582Z</time></trkpt><trkpt lat="42.5654627" lon="12.9626263"><ele>964.0000000000001</ele><time>2026-04-10T15:03:25.583Z</time></trkpt><trkpt lat="42.5653846" lon="12.9626546"><ele>964.0000000000001</ele><time>2026-04-10T15:03:26.586Z</time></trkpt><trkpt lat="42.5652867" lon="12.9626467"><ele>964.0</ele><time>2026-04-10T15:03:27.579Z</time></trkpt><trkpt lat="42.5651916" lon="12.9626127"><ele>964.0</ele><time>2026-04-10T15:03:28.586Z</time></trkpt><trkpt lat="42.5650965" lon="12.9625492"><ele>965.25</ele><time>2026-04-10T15:03:29.576Z</time></trkpt><trkpt lat="42.5650032" lon="12.9624874"><ele>966.5</ele><time>2026-04-10T15:03:30.569Z</time></trkpt><trkpt lat="42.5648841" lon="12.9624322"><ele>967.75</ele><time>2026-04-10T15:03:31.565Z</time></trkpt><trkpt lat="42.5647496" lon="12.9624012"><ele>969.0</ele><time>2026-04-10T15:03:32.557Z</time></trkpt><trkpt lat="42.5646098" lon="12.9623818"><ele>970.0</ele><time>2026-04-10T15:03:33.56Z</time></trkpt><trkpt lat="42.5644698" lon="12.962371"><ele>971.0</ele><time>2026-04-10T15:03:34.565Z</time></trkpt><trkpt lat="42.5643294" lon="12.962357"><ele>972.0</ele><time>2026-04-10T15:03:35.562Z</time></trkpt><trkpt lat="42.5641842" lon="12.9623514"><ele>973.0</ele><time>2026-04-10T15:03:36.559Z</time></trkpt><trkpt lat="42.5640281" lon="12.9623457"><ele>973.0</ele><time>2026-04-10T15:03:37.562Z</time></trkpt><trkpt lat="42.5638949" lon="12.9623528"><ele>973.0</ele><time>2026-04-10T15:03:38.574Z</time></trkpt><trkpt lat="42.5637578" lon="12.9623768"><ele>973.0</ele><time>2026-04-10T15:03:39.583Z</time></trkpt><trkpt lat="42.5636238" lon="12.9624094"><ele>973.0</ele><time>2026-04-10T15:03:40.581Z</time></trkpt><trkpt lat="42.5634917" lon="12.9624293"><ele>973.2</ele><time>2026-04-10T15:03:41.573Z</time></trkpt><trkpt lat="42.5633796" lon="12.9624631"><ele>973.4</ele><time>2026-04-10T15:03:42.575Z</time></trkpt><trkpt lat="42.5632824" lon="12.9624555"><ele>973.6000000000001</ele><time>2026-04-10T15:03:43.57Z</time></trkpt><trkpt lat="42.5631891" lon="12.9624462"><ele>973.8000000000001</ele><time>2026-04-10T15:03:44.575Z</time></trkpt><trkpt lat="42.5630759" lon="12.9623997"><ele>974.0</ele><time>2026-04-10T15:03:45.568Z</time></trkpt><trkpt lat="42.5629727" lon="12.9623647"><ele>974.0</ele><time>2026-04-10T15:03:46.565Z</time></trkpt><trkpt lat="42.5628717" lon="12.9623156"><ele>974.0000000000001</ele><time>2026-04-10T15:03:47.565Z</time></trkpt><trkpt lat="42.5627854" lon="12.9622315"><ele>974.0000000000001</ele><time>2026-04-10T15:03:48.566Z</time></trkpt><trkpt lat="42.5627043" lon="12.9621214"><ele>974.0</ele><time>2026-04-10T15:03:49.575Z</time></trkpt><trkpt lat="42.5626412" lon="12.9620171"><ele>974.0</ele><time>2026-04-10T15:03:50.569Z</time></trkpt><trkpt lat="42.5626001" lon="12.9619176"><ele>974.3333333333334</ele><time>2026-04-10T15:03:51.577Z</time></trkpt><trkpt lat="42.5625687" lon="12.9618374"><ele>974.6666666666667</ele><time>2026-04-10T15:03:52.562Z</time></trkpt><trkpt lat="42.5624939" lon="12.961755"><ele>975.0</ele><time>2026-04-10T15:03:54.561Z</time></trkpt><trkpt lat="42.562413" lon="12.9618243"><ele>975.3333333333333</ele><time>2026-04-10T15:03:56.571Z</time></trkpt><trkpt lat="42.5623671" lon="12.9619011"><ele>975.6666666666666</ele><time>2026-04-10T15:03:57.561Z</time></trkpt><trkpt lat="42.562304" lon="12.9619991"><ele>976.0</ele><time>2026-04-10T15:03:58.558Z</time></trkpt><trkpt lat="42.5622354" lon="12.9621107"><ele>976.0</ele><time>2026-04-10T15:03:59.564Z</time></trkpt><trkpt lat="42.562171" lon="12.9622242"><ele>975.9999999999999</ele><time>2026-04-10T15:04:00.558Z</time></trkpt><trkpt lat="42.5621062" lon="12.962339"><ele>975.9999999999999</ele><time>2026-04-10T15:04:01.56Z</time></trkpt><trkpt lat="42.5620464" lon="12.9624515"><ele>976.0</ele><time>2026-04-10T15:04:02.554Z</time></trkpt><trkpt lat="42.5619895" lon="12.9625896"><ele>976.0</ele><time>2026-04-10T15:04:03.564Z</time></trkpt><trkpt lat="42.5619251" lon="12.9627184"><ele>977.25</ele><time>2026-04-10T15:04:04.548Z</time></trkpt><trkpt lat="42.5618652" lon="12.962833"><ele>978.5</ele><time>2026-04-10T15:04:05.545Z</time></trkpt><trkpt lat="42.5617965" lon="12.9629787"><ele>979.75</ele><time>2026-04-10T15:04:06.548Z</time></trkpt><trkpt lat="42.5617391" lon="12.9631208"><ele>981.0</ele><time>2026-04-10T15:04:07.541Z</time></trkpt><trkpt lat="42.561683" lon="12.9632335"><ele>981.0</ele><time>2026-04-10T15:04:08.54Z</time></trkpt><trkpt lat="42.5616368" lon="12.9633443"><ele>980.9999999999999</ele><time>2026-04-10T15:04:09.545Z</time></trkpt><trkpt lat="42.5616067" lon="12.9634485"><ele>980.9999999999999</ele><time>2026-04-10T15:04:10.549Z</time></trkpt><trkpt lat="42.5615797" lon="12.9635587"><ele>981.0</ele><time>2026-04-10T15:04:11.544Z</time></trkpt><trkpt lat="42.5617028" lon="12.9636698"><ele>981.0</ele><time>2026-04-10T15:04:18.556Z</time></trkpt><trkpt lat="42.5617263" lon="12.9637861"><ele>980.1428571428571</ele><time>2026-04-10T15:04:20.548Z</time></trkpt><trkpt lat="42.5617485" lon="12.9638735"><ele>979.2857142857142</ele><time>2026-04-10T15:04:22.554Z</time></trkpt><trkpt lat="42.5618202" lon="12.9638729"><ele>978.4285714285713</ele><time>2026-04-10T15:04:26.559Z</time></trkpt><trkpt lat="42.561858" lon="12.9637999"><ele>977.5714285714286</ele><time>2026-04-10T15:04:29.555Z</time></trkpt><trkpt lat="42.5617913" lon="12.9637596"><ele>976.7142857142856</ele><time>2026-04-10T15:04:44.566Z</time></trkpt><trkpt lat="42.5617198" lon="12.9637681"><ele>975.8571428571428</ele><time>2026-04-10T15:04:46.576Z</time></trkpt><trkpt lat="42.5616766" lon="12.9636916"><ele>975.0</ele><time>2026-04-10T15:05:03.585Z</time></trkpt><trkpt lat="42.5617133" lon="12.9636167"><ele>975.0</ele><time>2026-04-10T15:36:15.593Z</time></trkpt><trkpt lat="42.5617679" lon="12.9635666"><ele>975.0</ele><time>2026-04-10T15:36:17.593Z</time></trkpt><trkpt lat="42.5618272" lon="12.9634734"><ele>975.0</ele><time>2026-04-10T15:36:19.581Z</time></trkpt><trkpt lat="42.5619056" lon="12.9633978"><ele>975.0</ele><time>2026-04-10T15:36:21.57Z</time></trkpt><trkpt lat="42.5620152" lon="12.9633242"><ele>975.0</ele><time>2026-04-10T15:36:23.55Z</time></trkpt><trkpt lat="42.5621304" lon="12.9632822"><ele>976.0</ele><time>2026-04-10T15:36:25.543Z</time></trkpt><trkpt lat="42.5621986" lon="12.9632471"><ele>977.0</ele><time>2026-04-10T15:36:26.54Z</time></trkpt><trkpt lat="42.5623169" lon="12.9632351"><ele>978.0</ele><time>2026-04-10T15:36:27.541Z</time></trkpt><trkpt lat="42.5625083" lon="12.96316"><ele>979.0</ele><time>2026-04-10T15:36:29.552Z</time></trkpt><trkpt lat="42.5625909" lon="12.9631203"><ele>978.9999999999999</ele><time>2026-04-10T15:36:30.563Z</time></trkpt><trkpt lat="42.562676" lon="12.963083"><ele>979.0</ele><time>2026-04-10T15:36:31.563Z</time></trkpt><trkpt lat="42.5627652" lon="12.9630535"><ele>979.0</ele><time>2026-04-10T15:36:32.558Z</time></trkpt><trkpt lat="42.5628528" lon="12.9630321"><ele>979.0</ele><time>2026-04-10T15:36:33.555Z</time></trkpt><trkpt lat="42.562935" lon="12.9630189"><ele>978.9999999999999</ele><time>2026-04-10T15:36:34.557Z</time></trkpt><trkpt lat="42.5630202" lon="12.9630133"><ele>979.0</ele><time>2026-04-10T15:36:35.554Z</time></trkpt><trkpt lat="42.5631123" lon="12.9629743"><ele>978.9999999999999</ele><time>2026-04-10T15:36:36.565Z</time></trkpt><trkpt lat="42.5631936" lon="12.962913"><ele>979.0</ele><time>2026-04-10T15:36:37.558Z</time></trkpt><trkpt lat="42.5632524" lon="12.9628604"><ele>979.0</ele><time>2026-04-10T15:36:38.574Z</time></trkpt><trkpt lat="42.5633178" lon="12.9628163"><ele>979.0</ele><time>2026-04-10T15:36:39.564Z</time></trkpt><trkpt lat="42.5633796" lon="12.9627802"><ele>978.9999999999999</ele><time>2026-04-10T15:36:40.561Z</time></trkpt><trkpt lat="42.5634683" lon="12.9627318"><ele>979.0</ele><time>2026-04-10T15:36:42.569Z</time></trkpt><trkpt lat="42.5635046" lon="12.9626049"><ele>978.0</ele><time>2026-04-10T15:36:44.568Z</time></trkpt><trkpt lat="42.5634424" lon="12.9624968"><ele>977.0000000000001</ele><time>2026-04-10T15:36:49.589Z</time></trkpt><trkpt lat="42.5633826" lon="12.9624593"><ele>976.0000000000001</ele><time>2026-04-10T15:36:50.58Z</time></trkpt><trkpt lat="42.5633049" lon="12.9624352"><ele>975.0</ele><time>2026-04-10T15:36:51.599Z</time></trkpt><trkpt lat="42.5632039" lon="12.9624229"><ele>974.0</ele><time>2026-04-10T15:36:52.58Z</time></trkpt><trkpt lat="42.5629911" lon="12.9623673"><ele>974.0</ele><time>2026-04-10T15:36:54.581Z</time></trkpt><trkpt lat="42.5629008" lon="12.9623168"><ele>974.0000000000001</ele><time>2026-04-10T15:36:55.581Z</time></trkpt><trkpt lat="42.5628146" lon="12.9622384"><ele>974.0000000000001</ele><time>2026-04-10T15:36:56.593Z</time></trkpt><trkpt lat="42.5627238" lon="12.9621317"><ele>974.0</ele><time>2026-04-10T15:36:57.583Z</time></trkpt><trkpt lat="42.5626466" lon="12.9620398"><ele>974.0</ele><time>2026-04-10T15:36:58.59Z</time></trkpt><trkpt lat="42.5625873" lon="12.9619348"><ele>974.3333333333334</ele><time>2026-04-10T15:36:59.587Z</time></trkpt><trkpt lat="42.5625559" lon="12.9618296"><ele>974.6666666666667</ele><time>2026-04-10T15:37:00.585Z</time></trkpt><trkpt lat="42.562535" lon="12.961734"><ele>975.0</ele><time>2026-04-10T15:37:01.589Z</time></trkpt><trkpt lat="42.5625738" lon="12.9615897"><ele>975.3333333333333</ele><time>2026-04-10T15:37:03.589Z</time></trkpt><trkpt lat="42.5626324" lon="12.9615371"><ele>975.6666666666666</ele><time>2026-04-10T15:37:04.594Z</time></trkpt><trkpt lat="42.5627119" lon="12.9614531"><ele>976.0</ele><time>2026-04-10T15:37:05.589Z</time></trkpt><trkpt lat="42.5627962" lon="12.9613561"><ele>975.0</ele><time>2026-04-10T15:37:06.592Z</time></trkpt><trkpt lat="42.562877" lon="12.9612445"><ele>974.0</ele><time>2026-04-10T15:37:07.598Z</time></trkpt><trkpt lat="42.5629558" lon="12.961124"><ele>973.0</ele><time>2026-04-10T15:37:08.664Z</time></trkpt><trkpt lat="42.5630414" lon="12.9610128"><ele>972.0</ele><time>2026-04-10T15:37:09.683Z</time></trkpt><trkpt lat="42.5631364" lon="12.9609326"><ele>972.0</ele><time>2026-04-10T15:37:10.668Z</time></trkpt><trkpt lat="42.5632494" lon="12.9608823"><ele>972.0</ele><time>2026-04-10T15:37:11.681Z</time></trkpt><trkpt lat="42.5635119" lon="12.9609121"><ele>972.0</ele><time>2026-04-10T15:37:13.569Z</time></trkpt><trkpt lat="42.5636271" lon="12.9609874"><ele>972.2</ele><time>2026-04-10T15:37:14.575Z</time></trkpt><trkpt lat="42.5637379" lon="12.9610414"><ele>972.4000000000001</ele><time>2026-04-10T15:37:15.574Z</time></trkpt><trkpt lat="42.5638538" lon="12.9610488"><ele>972.5999999999999</ele><time>2026-04-10T15:37:16.576Z</time></trkpt><trkpt lat="42.5639553" lon="12.9610175"><ele>972.8</ele><time>2026-04-10T15:37:17.59Z</time></trkpt><trkpt lat="42.5640389" lon="12.9609299"><ele>973.0</ele><time>2026-04-10T15:37:18.592Z</time></trkpt><trkpt lat="42.5640913" lon="12.9608"><ele>973.0</ele><time>2026-04-10T15:37:19.593Z</time></trkpt><trkpt lat="42.5641221" lon="12.9606333"><ele>973.0</ele><time>2026-04-10T15:37:20.59Z</time></trkpt><trkpt lat="42.5641653" lon="12.960468"><ele>973.0</ele><time>2026-04-10T15:37:21.587Z</time></trkpt><trkpt lat="42.5642074" lon="12.960317"><ele>973.0</ele><time>2026-04-10T15:37:22.584Z</time></trkpt><trkpt lat="42.5642545" lon="12.9601655"><ele>973.0</ele><time>2026-04-10T15:37:23.588Z</time></trkpt><trkpt lat="42.564316" lon="12.9600361"><ele>973.0</ele><time>2026-04-10T15:37:24.584Z</time></trkpt><trkpt lat="42.5644027" lon="12.9599519"><ele>973.0</ele><time>2026-04-10T15:37:25.587Z</time></trkpt><trkpt lat="42.5645102" lon="12.9599072"><ele>973.0</ele><time>2026-04-10T15:37:26.586Z</time></trkpt><trkpt lat="42.5646233" lon="12.959887"><ele>973.0</ele><time>2026-04-10T15:37:27.597Z</time></trkpt><trkpt lat="42.5647407" lon="12.9598713"><ele>973.3333333333333</ele><time>2026-04-10T15:37:28.596Z</time></trkpt><trkpt lat="42.5648421" lon="12.9598481"><ele>973.6666666666666</ele><time>2026-04-10T15:37:29.594Z</time></trkpt><trkpt lat="42.5649332" lon="12.9598317"><ele>974.0</ele><time>2026-04-10T15:37:30.588Z</time></trkpt><trkpt lat="42.565018" lon="12.9598317"><ele>974.3333333333333</ele><time>2026-04-10T15:37:31.586Z</time></trkpt><trkpt lat="42.5650917" lon="12.9598489"><ele>974.6666666666666</ele><time>2026-04-10T15:37:32.594Z</time></trkpt><trkpt lat="42.5651685" lon="12.9598789"><ele>975.0</ele><time>2026-04-10T15:37:33.594Z</time></trkpt><trkpt lat="42.5652487" lon="12.9599491"><ele>973.75</ele><time>2026-04-10T15:37:34.594Z</time></trkpt><trkpt lat="42.5653191" lon="12.9600697"><ele>972.5</ele><time>2026-04-10T15:37:35.588Z</time></trkpt><trkpt lat="42.5653749" lon="12.9602253"><ele>971.25</ele><time>2026-04-10T15:37:36.602Z</time></trkpt><trkpt lat="42.5653965" lon="12.9604163"><ele>970.0</ele><time>2026-04-10T15:37:37.594Z</time></trkpt><trkpt lat="42.5654025" lon="12.9606091"><ele>969.25</ele><time>2026-04-10T15:37:38.592Z</time></trkpt><trkpt lat="42.5654185" lon="12.9608008"><ele>968.5</ele><time>2026-04-10T15:37:39.591Z</time></trkpt><trkpt lat="42.5654205" lon="12.9609963"><ele>967.75</ele><time>2026-04-10T15:37:40.593Z</time></trkpt><trkpt lat="42.5654139" lon="12.9611833"><ele>967.0</ele><time>2026-04-10T15:37:41.587Z</time></trkpt><trkpt lat="42.565393" lon="12.9613705"><ele>966.75</ele><time>2026-04-10T15:37:42.596Z</time></trkpt><trkpt lat="42.5653508" lon="12.9615383"><ele>966.5</ele><time>2026-04-10T15:37:43.59Z</time></trkpt><trkpt lat="42.5653198" lon="12.9617258"><ele>966.25</ele><time>2026-04-10T15:37:44.596Z</time></trkpt><trkpt lat="42.56529" lon="12.9618937"><ele>966.0</ele><time>2026-04-10T15:37:45.595Z</time></trkpt><trkpt lat="42.565274" lon="12.9620447"><ele>965.6666666666666</ele><time>2026-04-10T15:37:46.591Z</time></trkpt><trkpt lat="42.5652975" lon="12.9621537"><ele>965.3333333333333</ele><time>2026-04-10T15:37:47.591Z</time></trkpt><trkpt lat="42.5653431" lon="12.9622931"><ele>965.0</ele><time>2026-04-10T15:37:48.584Z</time></trkpt><trkpt lat="42.5653787" lon="12.9624043"><ele>964.6666666666666</ele><time>2026-04-10T15:37:49.585Z</time></trkpt><trkpt lat="42.5654281" lon="12.9624888"><ele>964.3333333333333</ele><time>2026-04-10T15:37:50.583Z</time></trkpt><trkpt lat="42.5654778" lon="12.9625625"><ele>964.0</ele><time>2026-04-10T15:37:51.572Z</time></trkpt><trkpt lat="42.5655808" lon="12.9626408"><ele>964.0</ele><time>2026-04-10T15:37:53.574Z</time></trkpt><trkpt lat="42.5656796" lon="12.9626484"><ele>964.0000000000001</ele><time>2026-04-10T15:37:54.576Z</time></trkpt><trkpt lat="42.5657912" lon="12.9626499"><ele>964.0000000000001</ele><time>2026-04-10T15:37:55.576Z</time></trkpt><trkpt lat="42.5659082" lon="12.9626332"><ele>964.0</ele><time>2026-04-10T15:37:56.573Z</time></trkpt><trkpt lat="42.5660233" lon="12.9626033"><ele>964.0</ele><time>2026-04-10T15:37:57.572Z</time></trkpt><trkpt lat="42.5661274" lon="12.9625818"><ele>963.6</ele><time>2026-04-10T15:37:58.572Z</time></trkpt><trkpt lat="42.5662345" lon="12.962564"><ele>963.2</ele><time>2026-04-10T15:37:59.572Z</time></trkpt><trkpt lat="42.566342" lon="12.962539"><ele>962.8000000000001</ele><time>2026-04-10T15:38:00.581Z</time></trkpt><trkpt lat="42.5664506" lon="12.9625172"><ele>962.4000000000001</ele><time>2026-04-10T15:38:01.591Z</time></trkpt><trkpt lat="42.5665629" lon="12.9625008"><ele>962.0</ele><time>2026-04-10T15:38:02.578Z</time></trkpt><trkpt lat="42.5666713" lon="12.9624821"><ele>962.0</ele><time>2026-04-10T15:38:03.583Z</time></trkpt><trkpt lat="42.5667832" lon="12.9624717"><ele>962.0</ele><time>2026-04-10T15:38:04.583Z</time></trkpt><trkpt lat="42.5669083" lon="12.9624526"><ele>962.0</ele><time>2026-04-10T15:38:05.582Z</time></trkpt><trkpt lat="42.5670315" lon="12.9624325"><ele>962.0</ele><time>2026-04-10T15:38:06.577Z</time></trkpt><trkpt lat="42.5671497" lon="12.9624207"><ele>961.5</ele><time>2026-04-10T15:38:07.58Z</time></trkpt><trkpt lat="42.567276" lon="12.9624089"><ele>961.0</ele><time>2026-04-10T15:38:08.564Z</time></trkpt><trkpt lat="42.5674128" lon="12.9623989"><ele>960.5</ele><time>2026-04-10T15:38:09.578Z</time></trkpt><trkpt lat="42.5675233" lon="12.9623743"><ele>960.0</ele><time>2026-04-10T15:38:10.579Z</time></trkpt><trkpt lat="42.5676235" lon="12.9623555"><ele>960.0</ele><time>2026-04-10T15:38:11.593Z</time></trkpt><trkpt lat="42.5677201" lon="12.9623318"><ele>960.0</ele><time>2026-04-10T15:38:12.582Z</time></trkpt><trkpt lat="42.5678068" lon="12.9623138"><ele>960.0</ele><time>2026-04-10T15:38:13.583Z</time></trkpt><trkpt lat="42.5678941" lon="12.9623005"><ele>960.0</ele><time>2026-04-10T15:38:14.582Z</time></trkpt><trkpt lat="42.5679752" lon="12.9622857"><ele>960.0</ele><time>2026-04-10T15:38:15.583Z</time></trkpt><trkpt lat="42.5680576" lon="12.9622633"><ele>960.0</ele><time>2026-04-10T15:38:16.585Z</time></trkpt><trkpt lat="42.5681432" lon="12.9622524"><ele>959.5</ele><time>2026-04-10T15:38:17.583Z</time></trkpt><trkpt lat="42.5682348" lon="12.9622406"><ele>959.0</ele><time>2026-04-10T15:38:18.584Z</time></trkpt><trkpt lat="42.5683449" lon="12.9622364"><ele>958.5</ele><time>2026-04-10T15:38:19.589Z</time></trkpt><trkpt lat="42.5684631" lon="12.9622318"><ele>958.0</ele><time>2026-04-10T15:38:20.58Z</time></trkpt><trkpt lat="42.5686024" lon="12.9622063"><ele>957.3333333333333</ele><time>2026-04-10T15:38:21.578Z</time></trkpt><trkpt lat="42.5687454" lon="12.9621782"><ele>956.6666666666667</ele><time>2026-04-10T15:38:22.585Z</time></trkpt><trkpt lat="42.5688952" lon="12.9621499"><ele>956.0</ele><time>2026-04-10T15:38:23.566Z</time></trkpt><trkpt lat="42.5690555" lon="12.9621268"><ele>956.0</ele><time>2026-04-10T15:38:24.576Z</time></trkpt><trkpt lat="42.5692054" lon="12.9620921"><ele>956.0</ele><time>2026-04-10T15:38:25.577Z</time></trkpt><trkpt lat="42.5693563" lon="12.9620751"><ele>956.0</ele><time>2026-04-10T15:38:26.577Z</time></trkpt><trkpt lat="42.5694711" lon="12.9620707"><ele>956.0</ele><time>2026-04-10T15:38:27.584Z</time></trkpt><trkpt lat="42.5696046" lon="12.9620552"><ele>955.5</ele><time>2026-04-10T15:38:28.589Z</time></trkpt><trkpt lat="42.5697184" lon="12.9620295"><ele>955.0</ele><time>2026-04-10T15:38:29.589Z</time></trkpt><trkpt lat="42.5698413" lon="12.9619974"><ele>954.5</ele><time>2026-04-10T15:38:30.589Z</time></trkpt><trkpt lat="42.5699694" lon="12.9619844"><ele>954.0</ele><time>2026-04-10T15:38:31.591Z</time></trkpt><trkpt lat="42.5701066" lon="12.9619484"><ele>954.0</ele><time>2026-04-10T15:38:32.58Z</time></trkpt><trkpt lat="42.5702816" lon="12.9619023"><ele>954.0</ele><time>2026-04-10T15:38:33.578Z</time></trkpt><trkpt lat="42.570445" lon="12.9619081"><ele>954.0</ele><time>2026-04-10T15:38:34.577Z</time></trkpt><trkpt lat="42.5706123" lon="12.9619232"><ele>953.0</ele><time>2026-04-10T15:38:35.579Z</time></trkpt><trkpt lat="42.5707293" lon="12.9619321"><ele>952.0</ele><time>2026-04-10T15:38:36.587Z</time></trkpt><trkpt lat="42.5708608" lon="12.9619077"><ele>951.0</ele><time>2026-04-10T15:38:37.591Z</time></trkpt><trkpt lat="42.5709872" lon="12.9618772"><ele>950.0</ele><time>2026-04-10T15:38:38.59Z</time></trkpt><trkpt lat="42.5711013" lon="12.9618521"><ele>950.0</ele><time>2026-04-10T15:38:39.588Z</time></trkpt><trkpt lat="42.5712161" lon="12.9618233"><ele>950.0</ele><time>2026-04-10T15:38:40.593Z</time></trkpt><trkpt lat="42.5713415" lon="12.9618165"><ele>950.0</ele><time>2026-04-10T15:38:41.588Z</time></trkpt><trkpt lat="42.5714565" lon="12.961855"><ele>950.0</ele><time>2026-04-10T15:38:42.599Z</time></trkpt><trkpt lat="42.5715708" lon="12.9619231"><ele>950.0</ele><time>2026-04-10T15:38:43.589Z</time></trkpt><trkpt lat="42.5716765" lon="12.9619876"><ele>950.0</ele><time>2026-04-10T15:38:44.585Z</time></trkpt><trkpt lat="42.5717714" lon="12.9620097"><ele>950.0</ele><time>2026-04-10T15:38:45.59Z</time></trkpt><trkpt lat="42.5718498" lon="12.9619793"><ele>950.0</ele><time>2026-04-10T15:38:46.585Z</time></trkpt><trkpt lat="42.571928" lon="12.9619002"><ele>950.0</ele><time>2026-04-10T15:38:47.585Z</time></trkpt><trkpt lat="42.5720059" lon="12.9617743"><ele>950.0</ele><time>2026-04-10T15:38:48.578Z</time></trkpt><trkpt lat="42.5720963" lon="12.9616748"><ele>950.0</ele><time>2026-04-10T15:38:49.587Z</time></trkpt><trkpt lat="42.5722282" lon="12.9615946"><ele>950.0</ele><time>2026-04-10T15:38:50.579Z</time></trkpt><trkpt lat="42.5723803" lon="12.9615423"><ele>950.0</ele><time>2026-04-10T15:38:51.584Z</time></trkpt><trkpt lat="42.5725494" lon="12.9615002"><ele>950.0</ele><time>2026-04-10T15:38:52.581Z</time></trkpt><trkpt lat="42.5727193" lon="12.961447"><ele>950.0</ele><time>2026-04-10T15:38:53.577Z</time></trkpt><trkpt lat="42.5729093" lon="12.9614087"><ele>950.0</ele><time>2026-04-10T15:38:54.583Z</time></trkpt><trkpt lat="42.5730968" lon="12.9613675"><ele>948.6666666666667</ele><time>2026-04-10T15:38:55.605Z</time></trkpt><trkpt lat="42.5732724" lon="12.9613195"><ele>947.3333333333333</ele><time>2026-04-10T15:38:56.597Z</time></trkpt><trkpt lat="42.5734651" lon="12.9612693"><ele>946.0</ele><time>2026-04-10T15:38:57.669Z</time></trkpt><trkpt lat="42.5736636" lon="12.9612154"><ele>945.6666666666666</ele><time>2026-04-10T15:38:58.677Z</time></trkpt><trkpt lat="42.5738656" lon="12.9611568"><ele>945.3333333333333</ele><time>2026-04-10T15:38:59.675Z</time></trkpt><trkpt lat="42.5740705" lon="12.9610954"><ele>945.0</ele><time>2026-04-10T15:39:00.67Z</time></trkpt><trkpt lat="42.5742796" lon="12.9610355"><ele>945.0</ele><time>2026-04-10T15:39:01.676Z</time></trkpt><trkpt lat="42.574491" lon="12.960972"><ele>945.0</ele><time>2026-04-10T15:39:02.672Z</time></trkpt><trkpt lat="42.5747118" lon="12.9609103"><ele>945.0</ele><time>2026-04-10T15:39:03.67Z</time></trkpt><trkpt lat="42.5749171" lon="12.9608531"><ele>944.6666666666667</ele><time>2026-04-10T15:39:04.67Z</time></trkpt><trkpt lat="42.5751199" lon="12.960795"><ele>944.3333333333334</ele><time>2026-04-10T15:39:05.678Z</time></trkpt><trkpt lat="42.5753212" lon="12.9607372"><ele>944.0</ele><time>2026-04-10T15:39:06.68Z</time></trkpt><trkpt lat="42.575722" lon="12.960632"><ele>943.0</ele><time>2026-04-10T15:39:08.681Z</time></trkpt><trkpt lat="42.5759179" lon="12.9605784"><ele>942.0</ele><time>2026-04-10T15:39:09.689Z</time></trkpt><trkpt lat="42.5763104" lon="12.9604709"><ele>941.6666666666667</ele><time>2026-04-10T15:39:11.679Z</time></trkpt><trkpt lat="42.5765117" lon="12.9604143"><ele>941.3333333333334</ele><time>2026-04-10T15:39:12.683Z</time></trkpt><trkpt lat="42.5767117" lon="12.96036"><ele>941.0</ele><time>2026-04-10T15:39:13.686Z</time></trkpt><trkpt lat="42.5769122" lon="12.9603052"><ele>939.6666666666667</ele><time>2026-04-10T15:39:14.678Z</time></trkpt><trkpt lat="42.5771128" lon="12.9602459"><ele>938.3333333333333</ele><time>2026-04-10T15:39:15.683Z</time></trkpt><trkpt lat="42.5773123" lon="12.9601866"><ele>937.0</ele><time>2026-04-10T15:39:16.588Z</time></trkpt><trkpt lat="42.5775278" lon="12.960123"><ele>937.0</ele><time>2026-04-10T15:39:17.595Z</time></trkpt><trkpt lat="42.5777452" lon="12.9600534"><ele>937.0</ele><time>2026-04-10T15:39:18.596Z</time></trkpt><trkpt lat="42.577965" lon="12.9599732"><ele>936.5</ele><time>2026-04-10T15:39:19.6Z</time></trkpt><trkpt lat="42.5782045" lon="12.9599069"><ele>936.0</ele><time>2026-04-10T15:39:20.594Z</time></trkpt><trkpt lat="42.5784342" lon="12.9598368"><ele>936.0</ele><time>2026-04-10T15:39:21.589Z</time></trkpt><trkpt lat="42.578662" lon="12.9597773"><ele>936.0</ele><time>2026-04-10T15:39:22.587Z</time></trkpt><trkpt lat="42.5788932" lon="12.9597108"><ele>935.6666666666667</ele><time>2026-04-10T15:39:23.591Z</time></trkpt><trkpt lat="42.5791077" lon="12.9596495"><ele>935.3333333333334</ele><time>2026-04-10T15:39:24.592Z</time></trkpt><trkpt lat="42.5792998" lon="12.9596017"><ele>935.0</ele><time>2026-04-10T15:39:25.596Z</time></trkpt><trkpt lat="42.5794861" lon="12.9595415"><ele>934.6666666666667</ele><time>2026-04-10T15:39:26.594Z</time></trkpt><trkpt lat="42.5796837" lon="12.9594685"><ele>934.3333333333333</ele><time>2026-04-10T15:39:27.586Z</time></trkpt><trkpt lat="42.57989" lon="12.9594146"><ele>934.0</ele><time>2026-04-10T15:39:28.584Z</time></trkpt><trkpt lat="42.5801275" lon="12.9593555"><ele>934.0</ele><time>2026-04-10T15:39:29.587Z</time></trkpt><trkpt lat="42.5803405" lon="12.9592948"><ele>934.0</ele><time>2026-04-10T15:39:30.586Z</time></trkpt><trkpt lat="42.5805606" lon="12.9592509"><ele>934.0</ele><time>2026-04-10T15:39:31.59Z</time></trkpt><trkpt lat="42.5807685" lon="12.9591819"><ele>933.5</ele><time>2026-04-10T15:39:32.588Z</time></trkpt><trkpt lat="42.5809916" lon="12.9591279"><ele>933.0</ele><time>2026-04-10T15:39:33.578Z</time></trkpt><trkpt lat="42.5812294" lon="12.9590797"><ele>932.3333333333333</ele><time>2026-04-10T15:39:34.578Z</time></trkpt><trkpt lat="42.5814358" lon="12.9590159"><ele>931.6666666666666</ele><time>2026-04-10T15:39:35.594Z</time></trkpt><trkpt lat="42.5816482" lon="12.9589429"><ele>931.0</ele><time>2026-04-10T15:39:36.599Z</time></trkpt><trkpt lat="42.5818912" lon="12.9588743"><ele>930.0</ele><time>2026-04-10T15:39:37.598Z</time></trkpt><trkpt lat="42.5821544" lon="12.9588038"><ele>929.0</ele><time>2026-04-10T15:39:38.607Z</time></trkpt><trkpt lat="42.5826718" lon="12.9586527"><ele>928.0</ele><time>2026-04-10T15:39:40.612Z</time></trkpt><trkpt lat="42.5829463" lon="12.958586"><ele>927.0</ele><time>2026-04-10T15:39:41.609Z</time></trkpt><trkpt lat="42.5832314" lon="12.9585117"><ele>927.0</ele><time>2026-04-10T15:39:42.61Z</time></trkpt><trkpt lat="42.5835134" lon="12.9584328"><ele>927.0</ele><time>2026-04-10T15:39:43.615Z</time></trkpt><trkpt lat="42.5837969" lon="12.9583539"><ele>927.0</ele><time>2026-04-10T15:39:44.62Z</time></trkpt><trkpt lat="42.584089" lon="12.9582608"><ele>927.0</ele><time>2026-04-10T15:39:45.601Z</time></trkpt><trkpt lat="42.5843867" lon="12.9581773"><ele>926.0</ele><time>2026-04-10T15:39:46.606Z</time></trkpt><trkpt lat="42.5846864" lon="12.9580897"><ele>925.0</ele><time>2026-04-10T15:39:47.606Z</time></trkpt><trkpt lat="42.5849875" lon="12.9580345"><ele>925.0</ele><time>2026-04-10T15:39:48.602Z</time></trkpt><trkpt lat="42.5852794" lon="12.9579448"><ele>925.0</ele><time>2026-04-10T15:39:49.602Z</time></trkpt><trkpt lat="42.5858718" lon="12.9577639"><ele>924.5</ele><time>2026-04-10T15:39:51.594Z</time></trkpt><trkpt lat="42.5861655" lon="12.9576765"><ele>924.0</ele><time>2026-04-10T15:39:52.602Z</time></trkpt><trkpt lat="42.5864681" lon="12.9576007"><ele>922.0</ele><time>2026-04-10T15:39:53.604Z</time></trkpt><trkpt lat="42.5867627" lon="12.957515"><ele>920.0</ele><time>2026-04-10T15:39:54.602Z</time></trkpt><trkpt lat="42.5870645" lon="12.9574147"><ele>919.0</ele><time>2026-04-10T15:39:55.603Z</time></trkpt><trkpt lat="42.5873525" lon="12.9573288"><ele>918.0</ele><time>2026-04-10T15:39:56.604Z</time></trkpt><trkpt lat="42.5876508" lon="12.9572524"><ele>917.0</ele><time>2026-04-10T15:39:57.602Z</time></trkpt><trkpt lat="42.5879549" lon="12.9571736"><ele>916.0</ele><time>2026-04-10T15:39:58.608Z</time></trkpt><trkpt lat="42.5882612" lon="12.9570836"><ele>916.0</ele><time>2026-04-10T15:39:59.605Z</time></trkpt><trkpt lat="42.5885603" lon="12.95701"><ele>916.0</ele><time>2026-04-10T15:40:00.598Z</time></trkpt><trkpt lat="42.5888376" lon="12.9569283"><ele>915.0</ele><time>2026-04-10T15:40:01.602Z</time></trkpt><trkpt lat="42.5891415" lon="12.9568408"><ele>914.0</ele><time>2026-04-10T15:40:02.598Z</time></trkpt><trkpt lat="42.5894344" lon="12.9567474"><ele>913.5</ele><time>2026-04-10T15:40:03.597Z</time></trkpt><trkpt lat="42.5897314" lon="12.9566667"><ele>913.0</ele><time>2026-04-10T15:40:04.596Z</time></trkpt><trkpt lat="42.5900224" lon="12.9565925"><ele>913.0</ele><time>2026-04-10T15:40:05.596Z</time></trkpt><trkpt lat="42.5903238" lon="12.95651"><ele>913.0</ele><time>2026-04-10T15:40:06.601Z</time></trkpt><trkpt lat="42.5906132" lon="12.9564339"><ele>912.0</ele><time>2026-04-10T15:40:07.596Z</time></trkpt><trkpt lat="42.590905" lon="12.9563609"><ele>911.0</ele><time>2026-04-10T15:40:08.593Z</time></trkpt><trkpt lat="42.5912064" lon="12.9562885"><ele>910.0</ele><time>2026-04-10T15:40:09.596Z</time></trkpt><trkpt lat="42.5915028" lon="12.9561965"><ele>909.0</ele><time>2026-04-10T15:40:10.596Z</time></trkpt><trkpt lat="42.5917899" lon="12.9561121"><ele>907.5</ele><time>2026-04-10T15:40:11.607Z</time></trkpt><trkpt lat="42.5920779" lon="12.9560191"><ele>906.0</ele><time>2026-04-10T15:40:12.602Z</time></trkpt><trkpt lat="42.5923766" lon="12.9559344"><ele>906.0</ele><time>2026-04-10T15:40:13.602Z</time></trkpt><trkpt lat="42.592685" lon="12.9558453"><ele>906.0</ele><time>2026-04-10T15:40:14.602Z</time></trkpt><trkpt lat="42.5929869" lon="12.955765"><ele>906.0</ele><time>2026-04-10T15:40:15.61Z</time></trkpt><trkpt lat="42.5932776" lon="12.9556853"><ele>906.0</ele><time>2026-04-10T15:40:16.6Z</time></trkpt><trkpt lat="42.5935741" lon="12.9556022"><ele>906.0</ele><time>2026-04-10T15:40:17.598Z</time></trkpt><trkpt lat="42.5938629" lon="12.9555199"><ele>906.0</ele><time>2026-04-10T15:40:18.604Z</time></trkpt><trkpt lat="42.594154" lon="12.9554459"><ele>906.0</ele><time>2026-04-10T15:40:19.599Z</time></trkpt><trkpt lat="42.5944399" lon="12.9553625"><ele>906.0</ele><time>2026-04-10T15:40:20.597Z</time></trkpt><trkpt lat="42.5947263" lon="12.9552771"><ele>905.5</ele><time>2026-04-10T15:40:21.601Z</time></trkpt><trkpt lat="42.5950019" lon="12.9551953"><ele>905.0</ele><time>2026-04-10T15:40:22.597Z</time></trkpt><trkpt lat="42.5952706" lon="12.9551256"><ele>904.5</ele><time>2026-04-10T15:40:23.602Z</time></trkpt><trkpt lat="42.595529" lon="12.955043"><ele>904.0</ele><time>2026-04-10T15:40:24.597Z</time></trkpt><trkpt lat="42.5957935" lon="12.9549657"><ele>904.0</ele><time>2026-04-10T15:40:25.599Z</time></trkpt><trkpt lat="42.5960477" lon="12.9549017"><ele>904.0</ele><time>2026-04-10T15:40:26.6Z</time></trkpt><trkpt lat="42.5962785" lon="12.9548306"><ele>903.0</ele><time>2026-04-10T15:40:27.596Z</time></trkpt><trkpt lat="42.5965071" lon="12.9547644"><ele>902.0</ele><time>2026-04-10T15:40:28.598Z</time></trkpt><trkpt lat="42.5967353" lon="12.9547124"><ele>902.0</ele><time>2026-04-10T15:40:29.592Z</time></trkpt><trkpt lat="42.5969753" lon="12.9546754"><ele>902.0</ele><time>2026-04-10T15:40:30.587Z</time></trkpt><trkpt lat="42.5972085" lon="12.9546423"><ele>901.6666666666667</ele><time>2026-04-10T15:40:31.593Z</time></trkpt><trkpt lat="42.5974258" lon="12.9546556"><ele>901.3333333333333</ele><time>2026-04-10T15:40:32.584Z</time></trkpt><trkpt lat="42.5976563" lon="12.9546756"><ele>901.0</ele><time>2026-04-10T15:40:33.589Z</time></trkpt><trkpt lat="42.5978669" lon="12.9547075"><ele>900.6666666666666</ele><time>2026-04-10T15:40:34.593Z</time></trkpt><trkpt lat="42.5980656" lon="12.9547405"><ele>900.3333333333333</ele><time>2026-04-10T15:40:35.597Z</time></trkpt><trkpt lat="42.5982751" lon="12.9547571"><ele>900.0</ele><time>2026-04-10T15:40:36.595Z</time></trkpt><trkpt lat="42.5984445" lon="12.9547529"><ele>900.0</ele><time>2026-04-10T15:40:37.592Z</time></trkpt><trkpt lat="42.5986377" lon="12.9547328"><ele>900.0</ele><time>2026-04-10T15:40:38.593Z</time></trkpt><trkpt lat="42.5988034" lon="12.9546982"><ele>900.0</ele><time>2026-04-10T15:40:39.597Z</time></trkpt><trkpt lat="42.5989526" lon="12.9546431"><ele>901.0</ele><time>2026-04-10T15:40:40.594Z</time></trkpt><trkpt lat="42.5991233" lon="12.9545703"><ele>902.0</ele><time>2026-04-10T15:40:41.592Z</time></trkpt><trkpt lat="42.5992931" lon="12.954475"><ele>903.0</ele><time>2026-04-10T15:40:42.585Z</time></trkpt><trkpt lat="42.5994516" lon="12.954281"><ele>907.3333333333333</ele><time>2026-04-10T15:40:43.583Z</time></trkpt><trkpt lat="42.5995924" lon="12.9540674"><ele>911.6666666666666</ele><time>2026-04-10T15:40:44.576Z</time></trkpt><trkpt lat="42.5997486" lon="12.9538463"><ele>916.0</ele><time>2026-04-10T15:40:45.579Z</time></trkpt><trkpt lat="42.5999041" lon="12.9536337"><ele>916.0</ele><time>2026-04-10T15:40:46.594Z</time></trkpt><trkpt lat="42.6000788" lon="12.9534378"><ele>916.0</ele><time>2026-04-10T15:40:47.584Z</time></trkpt><trkpt lat="42.600244" lon="12.9532422"><ele>916.0</ele><time>2026-04-10T15:40:48.592Z</time></trkpt><trkpt lat="42.6004192" lon="12.9530513"><ele>917.5</ele><time>2026-04-10T15:40:49.588Z</time></trkpt><trkpt lat="42.6006002" lon="12.9528528"><ele>919.0</ele><time>2026-04-10T15:40:50.589Z</time></trkpt><trkpt lat="42.6007901" lon="12.952667"><ele>916.0</ele><time>2026-04-10T15:40:51.66Z</time></trkpt><trkpt lat="42.6009943" lon="12.9524978"><ele>913.0</ele><time>2026-04-10T15:40:52.663Z</time></trkpt><trkpt lat="42.6012011" lon="12.9523328"><ele>913.0</ele><time>2026-04-10T15:40:53.666Z</time></trkpt><trkpt lat="42.601405" lon="12.9521615"><ele>913.0</ele><time>2026-04-10T15:40:54.663Z</time></trkpt><trkpt lat="42.6016022" lon="12.9519792"><ele>913.0</ele><time>2026-04-10T15:40:55.659Z</time></trkpt><trkpt lat="42.6017933" lon="12.9517802"><ele>913.0</ele><time>2026-04-10T15:40:56.656Z</time></trkpt><trkpt lat="42.6019785" lon="12.9515673"><ele>913.5</ele><time>2026-04-10T15:40:57.662Z</time></trkpt><trkpt lat="42.6021472" lon="12.9513388"><ele>914.0</ele><time>2026-04-10T15:40:58.666Z</time></trkpt><trkpt lat="42.6023029" lon="12.9511063"><ele>914.0</ele><time>2026-04-10T15:40:59.676Z</time></trkpt><trkpt lat="42.6024425" lon="12.950876"><ele>914.0</ele><time>2026-04-10T15:41:00.671Z</time></trkpt><trkpt lat="42.6026224" lon="12.9506826"><ele>914.0</ele><time>2026-04-10T15:41:01.676Z</time></trkpt><trkpt lat="42.6028096" lon="12.9505024"><ele>913.5</ele><time>2026-04-10T15:41:02.673Z</time></trkpt><trkpt lat="42.603004" lon="12.9503348"><ele>913.0</ele><time>2026-04-10T15:41:03.657Z</time></trkpt><trkpt lat="42.6031999" lon="12.9501744"><ele>903.0</ele><time>2026-04-10T15:41:04.66Z</time></trkpt><trkpt lat="42.6033975" lon="12.9500153"><ele>893.0</ele><time>2026-04-10T15:41:05.659Z</time></trkpt><trkpt lat="42.6036006" lon="12.9498656"><ele>895.5</ele><time>2026-04-10T15:41:06.659Z</time></trkpt><trkpt lat="42.6038137" lon="12.9497244"><ele>898.0</ele><time>2026-04-10T15:41:07.667Z</time></trkpt><trkpt lat="42.6040346" lon="12.9495996"><ele>898.0</ele><time>2026-04-10T15:41:08.664Z</time></trkpt><trkpt lat="42.6042746" lon="12.9494862"><ele>898.0</ele><time>2026-04-10T15:41:09.674Z</time></trkpt><trkpt lat="42.6045195" lon="12.9494138"><ele>900.0</ele><time>2026-04-10T15:41:10.667Z</time></trkpt><trkpt lat="42.6047722" lon="12.9493727"><ele>902.0</ele><time>2026-04-10T15:41:11.653Z</time></trkpt><trkpt lat="42.605027" lon="12.9493682"><ele>902.0</ele><time>2026-04-10T15:41:12.651Z</time></trkpt><trkpt lat="42.6053108" lon="12.9493878"><ele>902.0</ele><time>2026-04-10T15:41:13.655Z</time></trkpt><trkpt lat="42.605554" lon="12.9493485"><ele>903.0</ele><time>2026-04-10T15:41:14.652Z</time></trkpt><trkpt lat="42.6058095" lon="12.9492943"><ele>904.0</ele><time>2026-04-10T15:41:15.667Z</time></trkpt><trkpt lat="42.6060648" lon="12.9492706"><ele>903.5</ele><time>2026-04-10T15:41:16.593Z</time></trkpt><trkpt lat="42.6062978" lon="12.9492383"><ele>903.0</ele><time>2026-04-10T15:41:17.588Z</time></trkpt><trkpt lat="42.6065306" lon="12.9492964"><ele>903.0</ele><time>2026-04-10T15:41:18.587Z</time></trkpt><trkpt lat="42.6067372" lon="12.9493028"><ele>903.0</ele><time>2026-04-10T15:41:19.594Z</time></trkpt><trkpt lat="42.6069562" lon="12.9492694"><ele>903.0</ele><time>2026-04-10T15:41:20.587Z</time></trkpt><trkpt lat="42.6071765" lon="12.9492199"><ele>896.6666666666667</ele><time>2026-04-10T15:41:21.579Z</time></trkpt><trkpt lat="42.6073807" lon="12.9491769"><ele>890.3333333333334</ele><time>2026-04-10T15:41:22.576Z</time></trkpt><trkpt lat="42.6075794" lon="12.9491051"><ele>884.0</ele><time>2026-04-10T15:41:23.582Z</time></trkpt><trkpt lat="42.6077628" lon="12.9490945"><ele>882.3333333333334</ele><time>2026-04-10T15:41:24.59Z</time></trkpt><trkpt lat="42.6079227" lon="12.9491578"><ele>880.6666666666667</ele><time>2026-04-10T15:41:25.588Z</time></trkpt><trkpt lat="42.6080647" lon="12.9492729"><ele>879.0</ele><time>2026-04-10T15:41:26.578Z</time></trkpt><trkpt lat="42.6081884" lon="12.949374"><ele>885.6666666666667</ele><time>2026-04-10T15:41:27.576Z</time></trkpt><trkpt lat="42.6083281" lon="12.9494163"><ele>892.3333333333334</ele><time>2026-04-10T15:41:28.574Z</time></trkpt><trkpt lat="42.6085185" lon="12.9494192"><ele>899.0</ele><time>2026-04-10T15:41:29.581Z</time></trkpt><trkpt lat="42.6087222" lon="12.9493377"><ele>900.3333333333334</ele><time>2026-04-10T15:41:30.577Z</time></trkpt><trkpt lat="42.6089097" lon="12.9492424"><ele>901.6666666666667</ele><time>2026-04-10T15:41:31.569Z</time></trkpt><trkpt lat="42.6091099" lon="12.9491371"><ele>903.0</ele><time>2026-04-10T15:41:32.584Z</time></trkpt><trkpt lat="42.6093028" lon="12.949059"><ele>895.6666666666667</ele><time>2026-04-10T15:41:33.589Z</time></trkpt><trkpt lat="42.6094781" lon="12.9489533"><ele>888.3333333333334</ele><time>2026-04-10T15:41:34.583Z</time></trkpt><trkpt lat="42.6096329" lon="12.9488673"><ele>881.0</ele><time>2026-04-10T15:41:35.586Z</time></trkpt><trkpt lat="42.6097688" lon="12.9488109"><ele>881.0</ele><time>2026-04-10T15:41:36.585Z</time></trkpt><trkpt lat="42.6100382" lon="12.9488668"><ele>881.0</ele><time>2026-04-10T15:41:38.587Z</time></trkpt><trkpt lat="42.6101838" lon="12.9490307"><ele>881.3333333333334</ele><time>2026-04-10T15:41:39.583Z</time></trkpt><trkpt lat="42.6103327" lon="12.9491813"><ele>881.6666666666667</ele><time>2026-04-10T15:41:40.579Z</time></trkpt><trkpt lat="42.610491" lon="12.9493218"><ele>882.0</ele><time>2026-04-10T15:41:41.572Z</time></trkpt><trkpt lat="42.6106423" lon="12.9494813"><ele>882.0</ele><time>2026-04-10T15:41:42.57Z</time></trkpt><trkpt lat="42.6108058" lon="12.9496037"><ele>882.0</ele><time>2026-04-10T15:41:43.568Z</time></trkpt><trkpt lat="42.61097" lon="12.9496988"><ele>882.0</ele><time>2026-04-10T15:41:44.571Z</time></trkpt><trkpt lat="42.6111528" lon="12.9497369"><ele>880.6666666666667</ele><time>2026-04-10T15:41:45.58Z</time></trkpt><trkpt lat="42.6113479" lon="12.9497299"><ele>879.3333333333334</ele><time>2026-04-10T15:41:46.584Z</time></trkpt><trkpt lat="42.6115429" lon="12.9497687"><ele>878.0</ele><time>2026-04-10T15:41:47.581Z</time></trkpt><trkpt lat="42.6117252" lon="12.949906"><ele>879.0</ele><time>2026-04-10T15:41:48.581Z</time></trkpt><trkpt lat="42.6118683" lon="12.9500626"><ele>880.0</ele><time>2026-04-10T15:41:49.577Z</time></trkpt><trkpt lat="42.6120378" lon="12.9502298"><ele>881.0</ele><time>2026-04-10T15:41:50.572Z</time></trkpt><trkpt lat="42.6121958" lon="12.9503839"><ele>881.0</ele><time>2026-04-10T15:41:51.58Z</time></trkpt><trkpt lat="42.6123892" lon="12.9505066"><ele>881.0</ele><time>2026-04-10T15:41:52.58Z</time></trkpt><trkpt lat="42.6125923" lon="12.9505771"><ele>881.0</ele><time>2026-04-10T15:41:53.576Z</time></trkpt><trkpt lat="42.6128086" lon="12.9505972"><ele>881.0</ele><time>2026-04-10T15:41:54.572Z</time></trkpt><trkpt lat="42.6130445" lon="12.9505755"><ele>881.0</ele><time>2026-04-10T15:41:55.586Z</time></trkpt><trkpt lat="42.6132968" lon="12.9505466"><ele>881.0</ele><time>2026-04-10T15:41:56.576Z</time></trkpt><trkpt lat="42.6135707" lon="12.9504858"><ele>881.0</ele><time>2026-04-10T15:41:57.574Z</time></trkpt><trkpt lat="42.613869" lon="12.9504254"><ele>883.0</ele><time>2026-04-10T15:41:58.592Z</time></trkpt><trkpt lat="42.6143319" lon="12.9503266"><ele>883.5</ele><time>2026-04-10T15:42:00.585Z</time></trkpt><trkpt lat="42.614584" lon="12.9502553"><ele>884.0</ele><time>2026-04-10T15:42:01.585Z</time></trkpt><trkpt lat="42.6148448" lon="12.9502044"><ele>884.0</ele><time>2026-04-10T15:42:02.581Z</time></trkpt><trkpt lat="42.6150641" lon="12.9501723"><ele>884.0</ele><time>2026-04-10T15:42:03.578Z</time></trkpt><trkpt lat="42.6152999" lon="12.9501372"><ele>882.6666666666667</ele><time>2026-04-10T15:42:04.581Z</time></trkpt><trkpt lat="42.6155125" lon="12.950133"><ele>881.3333333333333</ele><time>2026-04-10T15:42:05.577Z</time></trkpt><trkpt lat="42.6157237" lon="12.950121"><ele>880.0</ele><time>2026-04-10T15:42:06.573Z</time></trkpt><trkpt lat="42.6159196" lon="12.9501005"><ele>880.0</ele><time>2026-04-10T15:42:07.572Z</time></trkpt><trkpt lat="42.6161299" lon="12.9500593"><ele>880.0</ele><time>2026-04-10T15:42:08.576Z</time></trkpt><trkpt lat="42.6163283" lon="12.949954"><ele>880.0</ele><time>2026-04-10T15:42:09.576Z</time></trkpt><trkpt lat="42.6165327" lon="12.9498531"><ele>872.0</ele><time>2026-04-10T15:42:10.584Z</time></trkpt><trkpt lat="42.6167215" lon="12.9497674"><ele>864.0</ele><time>2026-04-10T15:42:11.579Z</time></trkpt><trkpt lat="42.6169447" lon="12.9497885"><ele>856.0</ele><time>2026-04-10T15:42:12.578Z</time></trkpt><trkpt lat="42.6171629" lon="12.9497654"><ele>855.6666666666666</ele><time>2026-04-10T15:42:13.588Z</time></trkpt><trkpt lat="42.6173839" lon="12.9497669"><ele>855.3333333333333</ele><time>2026-04-10T15:42:14.586Z</time></trkpt><trkpt lat="42.6176082" lon="12.9497751"><ele>855.0</ele><time>2026-04-10T15:42:15.596Z</time></trkpt><trkpt lat="42.6178278" lon="12.9497718"><ele>857.0</ele><time>2026-04-10T15:42:16.586Z</time></trkpt><trkpt lat="42.6180409" lon="12.9497337"><ele>859.0</ele><time>2026-04-10T15:42:17.577Z</time></trkpt><trkpt lat="42.6182393" lon="12.9496253"><ele>861.0</ele><time>2026-04-10T15:42:18.594Z</time></trkpt><trkpt lat="42.6184444" lon="12.9494631"><ele>861.0</ele><time>2026-04-10T15:42:19.579Z</time></trkpt><trkpt lat="42.6185973" lon="12.9492766"><ele>861.0</ele><time>2026-04-10T15:42:20.58Z</time></trkpt><trkpt lat="42.6189481" lon="12.9489852"><ele>862.0</ele><time>2026-04-10T15:42:22.573Z</time></trkpt><trkpt lat="42.6191265" lon="12.9488421"><ele>863.0</ele><time>2026-04-10T15:42:23.575Z</time></trkpt><trkpt lat="42.6193064" lon="12.9487262"><ele>864.0</ele><time>2026-04-10T15:42:24.57Z</time></trkpt><trkpt lat="42.6194964" lon="12.9486306"><ele>864.0</ele><time>2026-04-10T15:42:25.579Z</time></trkpt><trkpt lat="42.6197302" lon="12.9485882"><ele>864.0</ele><time>2026-04-10T15:42:26.579Z</time></trkpt><trkpt lat="42.6199397" lon="12.9485911"><ele>864.0</ele><time>2026-04-10T15:42:27.576Z</time></trkpt><trkpt lat="42.6201666" lon="12.9485767"><ele>864.3333333333333</ele><time>2026-04-10T15:42:28.582Z</time></trkpt><trkpt lat="42.6203835" lon="12.9485427"><ele>864.6666666666666</ele><time>2026-04-10T15:42:29.583Z</time></trkpt><trkpt lat="42.6206047" lon="12.9484881"><ele>865.0</ele><time>2026-04-10T15:42:30.578Z</time></trkpt><trkpt lat="42.6208368" lon="12.9484096"><ele>857.0</ele><time>2026-04-10T15:42:31.577Z</time></trkpt><trkpt lat="42.6210646" lon="12.948315"><ele>849.0</ele><time>2026-04-10T15:42:32.577Z</time></trkpt><trkpt lat="42.6212945" lon="12.94821"><ele>849.0</ele><time>2026-04-10T15:42:33.583Z</time></trkpt><trkpt lat="42.6215295" lon="12.9481018"><ele>849.0</ele><time>2026-04-10T15:42:34.587Z</time></trkpt><trkpt lat="42.621736" lon="12.9480039"><ele>849.0</ele><time>2026-04-10T15:42:35.583Z</time></trkpt><trkpt lat="42.6219464" lon="12.9479161"><ele>849.0</ele><time>2026-04-10T15:42:36.585Z</time></trkpt><trkpt lat="42.6221689" lon="12.9478676"><ele>849.0</ele><time>2026-04-10T15:42:37.577Z</time></trkpt><trkpt lat="42.6223953" lon="12.9478521"><ele>849.3333333333333</ele><time>2026-04-10T15:42:38.584Z</time></trkpt><trkpt lat="42.6226149" lon="12.9478481"><ele>849.6666666666666</ele><time>2026-04-10T15:42:39.585Z</time></trkpt><trkpt lat="42.6228359" lon="12.9478544"><ele>850.0</ele><time>2026-04-10T15:42:40.586Z</time></trkpt><trkpt lat="42.6230729" lon="12.9478483"><ele>850.0</ele><time>2026-04-10T15:42:41.586Z</time></trkpt><trkpt lat="42.6232923" lon="12.9478544"><ele>850.0</ele><time>2026-04-10T15:42:42.589Z</time></trkpt><trkpt lat="42.6235155" lon="12.9478614"><ele>850.0</ele><time>2026-04-10T15:42:43.586Z</time></trkpt><trkpt lat="42.6237363" lon="12.9478886"><ele>848.0</ele><time>2026-04-10T15:42:44.583Z</time></trkpt><trkpt lat="42.623951" lon="12.9479548"><ele>846.0</ele><time>2026-04-10T15:42:45.59Z</time></trkpt><trkpt lat="42.6241659" lon="12.9480225"><ele>844.0</ele><time>2026-04-10T15:42:46.591Z</time></trkpt><trkpt lat="42.6243688" lon="12.9480808"><ele>842.3333333333333</ele><time>2026-04-10T15:42:47.585Z</time></trkpt><trkpt lat="42.6245662" lon="12.9481235"><ele>840.6666666666667</ele><time>2026-04-10T15:42:48.586Z</time></trkpt><trkpt lat="42.6247629" lon="12.9481538"><ele>839.0</ele><time>2026-04-10T15:42:49.599Z</time></trkpt><trkpt lat="42.624974" lon="12.9481765"><ele>839.0</ele><time>2026-04-10T15:42:50.585Z</time></trkpt><trkpt lat="42.6251858" lon="12.9482104"><ele>839.0</ele><time>2026-04-10T15:42:51.586Z</time></trkpt><trkpt lat="42.6254262" lon="12.9482297"><ele>839.0</ele><time>2026-04-10T15:42:52.583Z</time></trkpt><trkpt lat="42.6256508" lon="12.9482368"><ele>839.0</ele><time>2026-04-10T15:42:53.579Z</time></trkpt><trkpt lat="42.6258885" lon="12.9482061"><ele>839.0</ele><time>2026-04-10T15:42:54.575Z</time></trkpt><trkpt lat="42.6261322" lon="12.9481288"><ele>839.0</ele><time>2026-04-10T15:42:55.583Z</time></trkpt><trkpt lat="42.6263783" lon="12.9480759"><ele>836.6666666666667</ele><time>2026-04-10T15:42:56.586Z</time></trkpt><trkpt lat="42.6265853" lon="12.948046"><ele>834.3333333333333</ele><time>2026-04-10T15:42:57.576Z</time></trkpt><trkpt lat="42.6267801" lon="12.9480442"><ele>832.0</ele><time>2026-04-10T15:42:58.578Z</time></trkpt><trkpt lat="42.6269731" lon="12.9480965"><ele>829.3333333333333</ele><time>2026-04-10T15:42:59.572Z</time></trkpt><trkpt lat="42.6271605" lon="12.9482051"><ele>826.6666666666667</ele><time>2026-04-10T15:43:00.577Z</time></trkpt><trkpt lat="42.6273413" lon="12.948317"><ele>824.0</ele><time>2026-04-10T15:43:01.587Z</time></trkpt><trkpt lat="42.6274999" lon="12.9484525"><ele>828.3333333333334</ele><time>2026-04-10T15:43:02.581Z</time></trkpt><trkpt lat="42.6276787" lon="12.9485323"><ele>832.6666666666667</ele><time>2026-04-10T15:43:03.578Z</time></trkpt><trkpt lat="42.6278757" lon="12.9485741"><ele>837.0</ele><time>2026-04-10T15:43:04.571Z</time></trkpt><trkpt lat="42.6280757" lon="12.9485442"><ele>837.0</ele><time>2026-04-10T15:43:05.575Z</time></trkpt><trkpt lat="42.6282856" lon="12.9484214"><ele>837.0</ele><time>2026-04-10T15:43:06.56Z</time></trkpt><trkpt lat="42.6285048" lon="12.9482877"><ele>830.3333333333333</ele><time>2026-04-10T15:43:07.563Z</time></trkpt><trkpt lat="42.6287141" lon="12.9481944"><ele>823.6666666666666</ele><time>2026-04-10T15:43:08.572Z</time></trkpt><trkpt lat="42.6289124" lon="12.9481347"><ele>817.0</ele><time>2026-04-10T15:43:09.573Z</time></trkpt><trkpt lat="42.6291092" lon="12.9480921"><ele>817.0</ele><time>2026-04-10T15:43:10.583Z</time></trkpt><trkpt lat="42.6292946" lon="12.9481135"><ele>817.0</ele><time>2026-04-10T15:43:11.579Z</time></trkpt><trkpt lat="42.6295107" lon="12.9481963"><ele>817.0</ele><time>2026-04-10T15:43:12.567Z</time></trkpt><trkpt lat="42.6296917" lon="12.9483047"><ele>817.5</ele><time>2026-04-10T15:43:13.57Z</time></trkpt><trkpt lat="42.6298526" lon="12.9484991"><ele>818.0</ele><time>2026-04-10T15:43:14.57Z</time></trkpt><trkpt lat="42.630036" lon="12.9487103"><ele>818.0</ele><time>2026-04-10T15:43:15.575Z</time></trkpt><trkpt lat="42.6301812" lon="12.9489212"><ele>818.0</ele><time>2026-04-10T15:43:16.572Z</time></trkpt><trkpt lat="42.6303064" lon="12.9491747"><ele>818.0</ele><time>2026-04-10T15:43:17.582Z</time></trkpt><trkpt lat="42.6303924" lon="12.949447"><ele>818.0</ele><time>2026-04-10T15:43:18.578Z</time></trkpt><trkpt lat="42.6304666" lon="12.9496981"><ele>818.0</ele><time>2026-04-10T15:43:19.577Z</time></trkpt><trkpt lat="42.6305701" lon="12.9499346"><ele>818.0</ele><time>2026-04-10T15:43:20.583Z</time></trkpt><trkpt lat="42.630687" lon="12.9501386"><ele>818.0</ele><time>2026-04-10T15:43:21.575Z</time></trkpt><trkpt lat="42.6307838" lon="12.9503307"><ele>818.0</ele><time>2026-04-10T15:43:22.569Z</time></trkpt><trkpt lat="42.6309212" lon="12.9505164"><ele>818.0</ele><time>2026-04-10T15:43:23.569Z</time></trkpt><trkpt lat="42.631029" lon="12.9507297"><ele>820.6666666666667</ele><time>2026-04-10T15:43:24.577Z</time></trkpt><trkpt lat="42.631094" lon="12.9509517"><ele>823.3333333333333</ele><time>2026-04-10T15:43:25.569Z</time></trkpt><trkpt lat="42.6311278" lon="12.9511834"><ele>826.0</ele><time>2026-04-10T15:43:26.57Z</time></trkpt><trkpt lat="42.6311296" lon="12.9514185"><ele>821.0</ele><time>2026-04-10T15:43:27.592Z</time></trkpt><trkpt lat="42.6311594" lon="12.9516252"><ele>816.0</ele><time>2026-04-10T15:43:28.583Z</time></trkpt><trkpt lat="42.6312667" lon="12.9518183"><ele>811.0</ele><time>2026-04-10T15:43:29.579Z</time></trkpt><trkpt lat="42.6314111" lon="12.9519802"><ele>811.0</ele><time>2026-04-10T15:43:30.576Z</time></trkpt><trkpt lat="42.631544" lon="12.9521326"><ele>811.0</ele><time>2026-04-10T15:43:31.579Z</time></trkpt><trkpt lat="42.6316887" lon="12.9522473"><ele>811.0</ele><time>2026-04-10T15:43:32.576Z</time></trkpt><trkpt lat="42.6318056" lon="12.9523113"><ele>811.0</ele><time>2026-04-10T15:43:33.58Z</time></trkpt><trkpt lat="42.6319488" lon="12.9523201"><ele>811.0</ele><time>2026-04-10T15:43:34.585Z</time></trkpt><trkpt lat="42.63209" lon="12.9522398"><ele>811.0</ele><time>2026-04-10T15:43:35.581Z</time></trkpt><trkpt lat="42.6322428" lon="12.9521042"><ele>811.6666666666666</ele><time>2026-04-10T15:43:36.579Z</time></trkpt><trkpt lat="42.6323752" lon="12.9519807"><ele>812.3333333333333</ele><time>2026-04-10T15:43:37.58Z</time></trkpt><trkpt lat="42.6325041" lon="12.9519321"><ele>813.0</ele><time>2026-04-10T15:43:38.583Z</time></trkpt><trkpt lat="42.6326617" lon="12.9520378"><ele>813.0</ele><time>2026-04-10T15:43:39.587Z</time></trkpt><trkpt lat="42.6327867" lon="12.9521613"><ele>813.0</ele><time>2026-04-10T15:43:40.58Z</time></trkpt><trkpt lat="42.6328794" lon="12.9523564"><ele>813.0</ele><time>2026-04-10T15:43:41.569Z</time></trkpt><trkpt lat="42.6330125" lon="12.9525309"><ele>814.3333333333333</ele><time>2026-04-10T15:43:42.581Z</time></trkpt><trkpt lat="42.6331461" lon="12.9527264"><ele>815.6666666666666</ele><time>2026-04-10T15:43:43.577Z</time></trkpt><trkpt lat="42.6333044" lon="12.9528711"><ele>817.0</ele><time>2026-04-10T15:43:44.585Z</time></trkpt><trkpt lat="42.6335262" lon="12.9529744"><ele>808.5</ele><time>2026-04-10T15:43:45.582Z</time></trkpt><trkpt lat="42.6337546" lon="12.9530784"><ele>800.0</ele><time>2026-04-10T15:43:46.587Z</time></trkpt><trkpt lat="42.6340091" lon="12.9532126"><ele>800.0</ele><time>2026-04-10T15:43:47.593Z</time></trkpt><trkpt lat="42.6342591" lon="12.9533438"><ele>800.0</ele><time>2026-04-10T15:43:48.596Z</time></trkpt><trkpt lat="42.6345179" lon="12.9534851"><ele>805.0</ele><time>2026-04-10T15:43:49.598Z</time></trkpt><trkpt lat="42.6347656" lon="12.9536033"><ele>810.0</ele><time>2026-04-10T15:43:50.593Z</time></trkpt><trkpt lat="42.6349919" lon="12.9537112"><ele>810.0</ele><time>2026-04-10T15:43:51.605Z</time></trkpt><trkpt lat="42.6352348" lon="12.9537871"><ele>810.0</ele><time>2026-04-10T15:43:52.585Z</time></trkpt><trkpt lat="42.635493" lon="12.9538111"><ele>808.0</ele><time>2026-04-10T15:43:53.587Z</time></trkpt><trkpt lat="42.635725" lon="12.9537998"><ele>806.0</ele><time>2026-04-10T15:43:54.585Z</time></trkpt><trkpt lat="42.635995" lon="12.9537655"><ele>802.5</ele><time>2026-04-10T15:43:55.583Z</time></trkpt><trkpt lat="42.6362753" lon="12.953789"><ele>799.0</ele><time>2026-04-10T15:43:56.588Z</time></trkpt><trkpt lat="42.6365242" lon="12.9538195"><ele>799.0</ele><time>2026-04-10T15:43:57.591Z</time></trkpt><trkpt lat="42.6367728" lon="12.9538578"><ele>799.0</ele><time>2026-04-10T15:43:58.6Z</time></trkpt><trkpt lat="42.637007" lon="12.953925"><ele>798.0</ele><time>2026-04-10T15:43:59.597Z</time></trkpt><trkpt lat="42.6372076" lon="12.9539362"><ele>797.0</ele><time>2026-04-10T15:44:00.588Z</time></trkpt><trkpt lat="42.6374065" lon="12.9539306"><ele>796.0</ele><time>2026-04-10T15:44:01.588Z</time></trkpt><trkpt lat="42.637597" lon="12.9539058"><ele>796.0</ele><time>2026-04-10T15:44:02.596Z</time></trkpt><trkpt lat="42.6377736" lon="12.9538596"><ele>796.0</ele><time>2026-04-10T15:44:03.592Z</time></trkpt><trkpt lat="42.6379412" lon="12.9538346"><ele>796.0</ele><time>2026-04-10T15:44:04.59Z</time></trkpt><trkpt lat="42.6380836" lon="12.9537687"><ele>790.0</ele><time>2026-04-10T15:44:05.591Z</time></trkpt><trkpt lat="42.6381989" lon="12.9536132"><ele>784.0</ele><time>2026-04-10T15:44:06.59Z</time></trkpt><trkpt lat="42.6384033" lon="12.9532147"><ele>782.0</ele><time>2026-04-10T15:44:08.586Z</time></trkpt><trkpt lat="42.6384921" lon="12.9530156"><ele>780.0</ele><time>2026-04-10T15:44:09.585Z</time></trkpt><trkpt lat="42.6385797" lon="12.952849"><ele>778.0</ele><time>2026-04-10T15:44:10.596Z</time></trkpt><trkpt lat="42.6386598" lon="12.952683"><ele>777.0</ele><time>2026-04-10T15:44:11.672Z</time></trkpt><trkpt lat="42.6387324" lon="12.9525555"><ele>776.0</ele><time>2026-04-10T15:44:12.673Z</time></trkpt><trkpt lat="42.6388359" lon="12.9524277"><ele>775.0</ele><time>2026-04-10T15:44:13.585Z</time></trkpt><trkpt lat="42.6389349" lon="12.9523499"><ele>774.0</ele><time>2026-04-10T15:44:14.581Z</time></trkpt><trkpt lat="42.6390977" lon="12.9523501"><ele>775.3333333333333</ele><time>2026-04-10T15:44:15.581Z</time></trkpt><trkpt lat="42.6392551" lon="12.9523943"><ele>776.6666666666666</ele><time>2026-04-10T15:44:16.57Z</time></trkpt><trkpt lat="42.6394152" lon="12.9524976"><ele>778.0</ele><time>2026-04-10T15:44:17.572Z</time></trkpt><trkpt lat="42.6395779" lon="12.952627"><ele>778.0</ele><time>2026-04-10T15:44:18.566Z</time></trkpt><trkpt lat="42.6397363" lon="12.9527204"><ele>778.0</ele><time>2026-04-10T15:44:19.577Z</time></trkpt><trkpt lat="42.639881" lon="12.9528417"><ele>778.0</ele><time>2026-04-10T15:44:20.568Z</time></trkpt><trkpt lat="42.6400201" lon="12.9529234"><ele>778.0</ele><time>2026-04-10T15:44:21.573Z</time></trkpt><trkpt lat="42.6401772" lon="12.9529847"><ele>778.0</ele><time>2026-04-10T15:44:22.576Z</time></trkpt><trkpt lat="42.6403374" lon="12.9530111"><ele>778.0</ele><time>2026-04-10T15:44:23.569Z</time></trkpt><trkpt lat="42.6404885" lon="12.953018"><ele>778.75</ele><time>2026-04-10T15:44:24.568Z</time></trkpt><trkpt lat="42.6406398" lon="12.9529332"><ele>779.5</ele><time>2026-04-10T15:44:25.584Z</time></trkpt><trkpt lat="42.6407675" lon="12.9528551"><ele>780.25</ele><time>2026-04-10T15:44:26.589Z</time></trkpt><trkpt lat="42.6408945" lon="12.9528076"><ele>781.0</ele><time>2026-04-10T15:44:27.581Z</time></trkpt><trkpt lat="42.6410282" lon="12.9527692"><ele>784.5</ele><time>2026-04-10T15:44:28.586Z</time></trkpt><trkpt lat="42.6413169" lon="12.9528536"><ele>788.0</ele><time>2026-04-10T15:44:30.592Z</time></trkpt><trkpt lat="42.6414583" lon="12.9529901"><ele>788.0</ele><time>2026-04-10T15:44:31.587Z</time></trkpt><trkpt lat="42.6415547" lon="12.9531533"><ele>788.0</ele><time>2026-04-10T15:44:32.578Z</time></trkpt><trkpt lat="42.6416628" lon="12.9533288"><ele>788.0</ele><time>2026-04-10T15:44:33.582Z</time></trkpt><trkpt lat="42.6417592" lon="12.9535167"><ele>787.3333333333334</ele><time>2026-04-10T15:44:34.578Z</time></trkpt><trkpt lat="42.6418633" lon="12.9536984"><ele>786.6666666666667</ele><time>2026-04-10T15:44:35.579Z</time></trkpt><trkpt lat="42.6419783" lon="12.9538719"><ele>786.0</ele><time>2026-04-10T15:44:36.576Z</time></trkpt><trkpt lat="42.6420827" lon="12.9540126"><ele>786.0</ele><time>2026-04-10T15:44:37.574Z</time></trkpt><trkpt lat="42.6421933" lon="12.9541328"><ele>786.0</ele><time>2026-04-10T15:44:38.576Z</time></trkpt><trkpt lat="42.642303" lon="12.9542034"><ele>786.0</ele><time>2026-04-10T15:44:39.572Z</time></trkpt><trkpt lat="42.6424069" lon="12.9542526"><ele>786.0</ele><time>2026-04-10T15:44:40.572Z</time></trkpt><trkpt lat="42.6425093" lon="12.9542864"><ele>784.8</ele><time>2026-04-10T15:44:41.574Z</time></trkpt><trkpt lat="42.6426289" lon="12.9543002"><ele>783.5999999999999</ele><time>2026-04-10T15:44:42.57Z</time></trkpt><trkpt lat="42.6427354" lon="12.9543261"><ele>782.4</ele><time>2026-04-10T15:44:43.58Z</time></trkpt><trkpt lat="42.6428273" lon="12.9543562"><ele>781.2</ele><time>2026-04-10T15:44:44.582Z</time></trkpt><trkpt lat="42.6429114" lon="12.9543784"><ele>780.0</ele><time>2026-04-10T15:44:45.586Z</time></trkpt><trkpt lat="42.6429882" lon="12.9543915"><ele>780.0</ele><time>2026-04-10T15:44:46.586Z</time></trkpt><trkpt lat="42.6430672" lon="12.9544064"><ele>780.0</ele><time>2026-04-10T15:44:47.583Z</time></trkpt><trkpt lat="42.6431433" lon="12.9544264"><ele>780.0</ele><time>2026-04-10T15:44:48.59Z</time></trkpt><trkpt lat="42.6432102" lon="12.9544427"><ele>780.0</ele><time>2026-04-10T15:44:49.594Z</time></trkpt><trkpt lat="42.6432746" lon="12.9544599"><ele>780.0</ele><time>2026-04-10T15:44:50.588Z</time></trkpt><trkpt lat="42.6433386" lon="12.9544721"><ele>780.0</ele><time>2026-04-10T15:44:51.587Z</time></trkpt><trkpt lat="42.6434159" lon="12.9544889"><ele>780.0</ele><time>2026-04-10T15:44:52.584Z</time></trkpt><trkpt lat="42.6434867" lon="12.95451"><ele>780.0</ele><time>2026-04-10T15:44:53.599Z</time></trkpt><trkpt lat="42.6436052" lon="12.9545506"><ele>780.0</ele><time>2026-04-10T15:44:55.587Z</time></trkpt><trkpt lat="42.6436684" lon="12.9545737"><ele>780.0</ele><time>2026-04-10T15:44:56.585Z</time></trkpt><trkpt lat="42.6437474" lon="12.9546084"><ele>780.0</ele><time>2026-04-10T15:44:57.585Z</time></trkpt><trkpt lat="42.6438335" lon="12.9546496"><ele>780.0</ele><time>2026-04-10T15:44:58.585Z</time></trkpt><trkpt lat="42.643919" lon="12.9547027"><ele>781.0</ele><time>2026-04-10T15:44:59.587Z</time></trkpt><trkpt lat="42.6439927" lon="12.9547533"><ele>782.0</ele><time>2026-04-10T15:45:00.585Z</time></trkpt><trkpt lat="42.6440652" lon="12.9548002"><ele>783.0</ele><time>2026-04-10T15:45:01.581Z</time></trkpt><trkpt lat="42.6441201" lon="12.954846"><ele>784.0</ele><time>2026-04-10T15:45:02.577Z</time></trkpt><trkpt lat="42.6442071" lon="12.9549162"><ele>785.0</ele><time>2026-04-10T15:45:04.569Z</time></trkpt><trkpt lat="42.6442636" lon="12.954965"><ele>786.0</ele><time>2026-04-10T15:45:06.574Z</time></trkpt><trkpt lat="42.6443228" lon="12.9549946"><ele>786.0</ele><time>2026-04-10T15:51:22.591Z</time></trkpt><trkpt lat="42.6444013" lon="12.9550228"><ele>786.0</ele><time>2026-04-10T15:51:24.579Z</time></trkpt><trkpt lat="42.6444668" lon="12.9550042"><ele>786.0</ele><time>2026-04-10T15:51:25.578Z</time></trkpt><trkpt lat="42.6445386" lon="12.9549753"><ele>786.0</ele><time>2026-04-10T15:51:26.582Z</time></trkpt><trkpt lat="42.6446262" lon="12.9549281"><ele>786.0</ele><time>2026-04-10T15:51:27.568Z</time></trkpt><trkpt lat="42.6447095" lon="12.9549321"><ele>786.0</ele><time>2026-04-10T15:51:28.581Z</time></trkpt><trkpt lat="42.6448009" lon="12.9550049"><ele>784.4</ele><time>2026-04-10T15:51:29.569Z</time></trkpt><trkpt lat="42.6448932" lon="12.9550841"><ele>782.8</ele><time>2026-04-10T15:51:30.57Z</time></trkpt><trkpt lat="42.6449758" lon="12.9551755"><ele>781.1999999999999</ele><time>2026-04-10T15:51:31.579Z</time></trkpt><trkpt lat="42.6450647" lon="12.9552517"><ele>779.5999999999999</ele><time>2026-04-10T15:51:32.572Z</time></trkpt><trkpt lat="42.6451683" lon="12.9553065"><ele>778.0</ele><time>2026-04-10T15:51:33.572Z</time></trkpt><trkpt lat="42.6452815" lon="12.9553335"><ele>778.0</ele><time>2026-04-10T15:51:34.579Z</time></trkpt><trkpt lat="42.6454097" lon="12.9553437"><ele>778.0</ele><time>2026-04-10T15:51:35.571Z</time></trkpt><trkpt lat="42.6455407" lon="12.9553254"><ele>778.0</ele><time>2026-04-10T15:51:36.572Z</time></trkpt><trkpt lat="42.6456768" lon="12.9553109"><ele>778.0</ele><time>2026-04-10T15:51:37.574Z</time></trkpt><trkpt lat="42.645822" lon="12.9552932"><ele>778.0</ele><time>2026-04-10T15:51:38.574Z</time></trkpt><trkpt lat="42.6459631" lon="12.9552655"><ele>778.0</ele><time>2026-04-10T15:51:39.57Z</time></trkpt><trkpt lat="42.6461257" lon="12.955252"><ele>778.0</ele><time>2026-04-10T15:51:40.573Z</time></trkpt><trkpt lat="42.6462973" lon="12.955237"><ele>778.6666666666666</ele><time>2026-04-10T15:51:41.575Z</time></trkpt><trkpt lat="42.6464694" lon="12.955217"><ele>779.3333333333333</ele><time>2026-04-10T15:51:42.574Z</time></trkpt><trkpt lat="42.6466558" lon="12.9551887"><ele>780.0</ele><time>2026-04-10T15:51:43.572Z</time></trkpt><trkpt lat="42.6468454" lon="12.9551637"><ele>779.0</ele><time>2026-04-10T15:51:44.576Z</time></trkpt><trkpt lat="42.647028" lon="12.9551473"><ele>778.0</ele><time>2026-04-10T15:51:45.577Z</time></trkpt><trkpt lat="42.6472092" lon="12.9551237"><ele>777.0</ele><time>2026-04-10T15:51:46.576Z</time></trkpt><trkpt lat="42.6473907" lon="12.9551188"><ele>777.0</ele><time>2026-04-10T15:51:47.573Z</time></trkpt><trkpt lat="42.6475658" lon="12.9551054"><ele>777.0</ele><time>2026-04-10T15:51:48.576Z</time></trkpt><trkpt lat="42.6477605" lon="12.9550909"><ele>777.0</ele><time>2026-04-10T15:51:49.574Z</time></trkpt><trkpt lat="42.6479461" lon="12.9550743"><ele>776.6666666666667</ele><time>2026-04-10T15:51:50.571Z</time></trkpt><trkpt lat="42.6481349" lon="12.9550514"><ele>776.3333333333334</ele><time>2026-04-10T15:51:51.574Z</time></trkpt><trkpt lat="42.6483063" lon="12.9550466"><ele>776.0</ele><time>2026-04-10T15:51:52.575Z</time></trkpt><trkpt lat="42.6485029" lon="12.9550404"><ele>778.6666666666667</ele><time>2026-04-10T15:51:53.573Z</time></trkpt><trkpt lat="42.648691" lon="12.9550521"><ele>781.3333333333333</ele><time>2026-04-10T15:51:54.574Z</time></trkpt><trkpt lat="42.6488896" lon="12.9550618"><ele>784.0</ele><time>2026-04-10T15:51:55.57Z</time></trkpt><trkpt lat="42.6490767" lon="12.9550708"><ele>784.0</ele><time>2026-04-10T15:51:56.575Z</time></trkpt><trkpt lat="42.6492596" lon="12.9550969"><ele>784.0</ele><time>2026-04-10T15:51:57.572Z</time></trkpt><trkpt lat="42.649448" lon="12.955135"><ele>784.0</ele><time>2026-04-10T15:51:58.575Z</time></trkpt><trkpt lat="42.6496161" lon="12.9551912"><ele>790.0</ele><time>2026-04-10T15:51:59.572Z</time></trkpt><trkpt lat="42.6497972" lon="12.9552408"><ele>796.0</ele><time>2026-04-10T15:52:00.572Z</time></trkpt><trkpt lat="42.6499662" lon="12.9553649"><ele>802.0</ele><time>2026-04-10T15:52:01.566Z</time></trkpt><trkpt lat="42.6501211" lon="12.9554882"><ele>802.0</ele><time>2026-04-10T15:52:02.577Z</time></trkpt><trkpt lat="42.6502665" lon="12.9556473"><ele>802.0</ele><time>2026-04-10T15:52:03.573Z</time></trkpt><trkpt lat="42.6504165" lon="12.9557923"><ele>802.0</ele><time>2026-04-10T15:52:04.572Z</time></trkpt><trkpt lat="42.6505675" lon="12.955937"><ele>800.3333333333333</ele><time>2026-04-10T15:52:05.579Z</time></trkpt><trkpt lat="42.6507315" lon="12.9560739"><ele>798.6666666666667</ele><time>2026-04-10T15:52:06.571Z</time></trkpt><trkpt lat="42.650878" lon="12.9561971"><ele>797.0</ele><time>2026-04-10T15:52:07.571Z</time></trkpt><trkpt lat="42.6510144" lon="12.9562976"><ele>802.0</ele><time>2026-04-10T15:52:08.578Z</time></trkpt><trkpt lat="42.6511334" lon="12.9563824"><ele>807.0</ele><time>2026-04-10T15:52:09.576Z</time></trkpt><trkpt lat="42.6512334" lon="12.9564483"><ele>812.0</ele><time>2026-04-10T15:52:10.583Z</time></trkpt><trkpt lat="42.6513333" lon="12.9564099"><ele>817.0</ele><time>2026-04-10T15:52:12.581Z</time></trkpt><trkpt lat="42.6513126" lon="12.9563197"><ele>822.0</ele><time>2026-04-10T15:52:13.577Z</time></trkpt><trkpt lat="42.6512934" lon="12.9562158"><ele>822.0</ele><time>2026-04-10T15:52:14.576Z</time></trkpt><trkpt lat="42.6512426" lon="12.9561194"><ele>822.0</ele><time>2026-04-10T15:52:15.58Z</time></trkpt><trkpt lat="42.6511529" lon="12.9560523"><ele>822.0</ele><time>2026-04-10T15:52:16.571Z</time></trkpt><trkpt lat="42.6510305" lon="12.9559909"><ele>822.0</ele><time>2026-04-10T15:52:17.573Z</time></trkpt><trkpt lat="42.6508975" lon="12.955916"><ele>825.0</ele><time>2026-04-10T15:52:18.587Z</time></trkpt><trkpt lat="42.6507651" lon="12.9558257"><ele>828.0</ele><time>2026-04-10T15:52:19.585Z</time></trkpt><trkpt lat="42.6504872" lon="12.9555755"><ele>828.0</ele><time>2026-04-10T15:52:21.579Z</time></trkpt><trkpt lat="42.6503622" lon="12.9554268"><ele>828.0</ele><time>2026-04-10T15:52:22.58Z</time></trkpt><trkpt lat="42.6502339" lon="12.9552208"><ele>828.0</ele><time>2026-04-10T15:52:23.58Z</time></trkpt><trkpt lat="42.6500956" lon="12.9550369"><ele>829.0</ele><time>2026-04-10T15:52:24.583Z</time></trkpt><trkpt lat="42.6499382" lon="12.9548817"><ele>830.0</ele><time>2026-04-10T15:52:25.582Z</time></trkpt><trkpt lat="42.6498058" lon="12.9547285"><ele>831.0</ele><time>2026-04-10T15:52:26.582Z</time></trkpt><trkpt lat="42.6496584" lon="12.954572"><ele>831.0</ele><time>2026-04-10T15:52:27.586Z</time></trkpt><trkpt lat="42.6495225" lon="12.9544068"><ele>831.0</ele><time>2026-04-10T15:52:28.584Z</time></trkpt><trkpt lat="42.6493835" lon="12.954268"><ele>831.0</ele><time>2026-04-10T15:52:29.587Z</time></trkpt><trkpt lat="42.649229" lon="12.9541722"><ele>835.0</ele><time>2026-04-10T15:52:30.583Z</time></trkpt><trkpt lat="42.649059" lon="12.9541361"><ele>839.0</ele><time>2026-04-10T15:52:31.589Z</time></trkpt><trkpt lat="42.6488508" lon="12.9541285"><ele>843.0</ele><time>2026-04-10T15:52:32.586Z</time></trkpt><trkpt lat="42.6486572" lon="12.9541211"><ele>843.0</ele><time>2026-04-10T15:52:33.597Z</time></trkpt><trkpt lat="42.6484615" lon="12.9541229"><ele>843.0</ele><time>2026-04-10T15:52:34.589Z</time></trkpt><trkpt lat="42.6482818" lon="12.9540903"><ele>843.0</ele><time>2026-04-10T15:52:35.589Z</time></trkpt><trkpt lat="42.6481114" lon="12.9540739"><ele>843.0</ele><time>2026-04-10T15:52:36.596Z</time></trkpt><trkpt lat="42.6479235" lon="12.9540719"><ele>843.0</ele><time>2026-04-10T15:52:37.599Z</time></trkpt><trkpt lat="42.6477363" lon="12.9540689"><ele>843.0</ele><time>2026-04-10T15:52:38.591Z</time></trkpt><trkpt lat="42.6475761" lon="12.9540014"><ele>843.0</ele><time>2026-04-10T15:52:39.594Z</time></trkpt><trkpt lat="42.6473964" lon="12.9539664"><ele>843.0</ele><time>2026-04-10T15:52:40.592Z</time></trkpt><trkpt lat="42.6472381" lon="12.9539275"><ele>843.0</ele><time>2026-04-10T15:52:41.591Z</time></trkpt><trkpt lat="42.6470741" lon="12.9538664"><ele>843.3333333333333</ele><time>2026-04-10T15:52:42.598Z</time></trkpt><trkpt lat="42.6469271" lon="12.9538132"><ele>843.6666666666666</ele><time>2026-04-10T15:52:43.588Z</time></trkpt><trkpt lat="42.6467746" lon="12.9538081"><ele>844.0</ele><time>2026-04-10T15:52:44.588Z</time></trkpt><trkpt lat="42.6466107" lon="12.9538445"><ele>844.0</ele><time>2026-04-10T15:52:45.594Z</time></trkpt><trkpt lat="42.6464359" lon="12.9538179"><ele>844.0</ele><time>2026-04-10T15:52:46.591Z</time></trkpt><trkpt lat="42.6462665" lon="12.9537812"><ele>844.0</ele><time>2026-04-10T15:52:47.608Z</time></trkpt><trkpt lat="42.646125" lon="12.9537045"><ele>843.0</ele><time>2026-04-10T15:52:48.595Z</time></trkpt><trkpt lat="42.645988" lon="12.953673"><ele>842.0</ele><time>2026-04-10T15:52:49.601Z</time></trkpt><trkpt lat="42.6457993" lon="12.9536773"><ele>841.0</ele><time>2026-04-10T15:52:50.6Z</time></trkpt><trkpt lat="42.6456475" lon="12.9536427"><ele>841.0</ele><time>2026-04-10T15:52:51.592Z</time></trkpt><trkpt lat="42.6455199" lon="12.9535627"><ele>841.0</ele><time>2026-04-10T15:52:52.595Z</time></trkpt><trkpt lat="42.6453846" lon="12.9534202"><ele>841.0</ele><time>2026-04-10T15:52:53.595Z</time></trkpt><trkpt lat="42.6452451" lon="12.9533083"><ele>848.3333333333333</ele><time>2026-04-10T15:52:54.597Z</time></trkpt><trkpt lat="42.6450811" lon="12.9532569"><ele>855.6666666666667</ele><time>2026-04-10T15:52:55.598Z</time></trkpt><trkpt lat="42.6449438" lon="12.9531191"><ele>863.0</ele><time>2026-04-10T15:52:56.596Z</time></trkpt><trkpt lat="42.6448009" lon="12.953007"><ele>863.0</ele><time>2026-04-10T15:52:57.616Z</time></trkpt><trkpt lat="42.6446707" lon="12.9528878"><ele>863.0</ele><time>2026-04-10T15:52:58.677Z</time></trkpt><trkpt lat="42.6445408" lon="12.952777"><ele>863.0</ele><time>2026-04-10T15:52:59.678Z</time></trkpt><trkpt lat="42.6444185" lon="12.952676"><ele>863.25</ele><time>2026-04-10T15:53:00.682Z</time></trkpt><trkpt lat="42.6443114" lon="12.9525736"><ele>863.5</ele><time>2026-04-10T15:53:01.677Z</time></trkpt><trkpt lat="42.6442177" lon="12.9524423"><ele>863.75</ele><time>2026-04-10T15:53:02.668Z</time></trkpt><trkpt lat="42.6441393" lon="12.9522826"><ele>864.0</ele><time>2026-04-10T15:53:03.675Z</time></trkpt><trkpt lat="42.6440703" lon="12.9521167"><ele>864.0</ele><time>2026-04-10T15:53:04.662Z</time></trkpt><trkpt lat="42.6440029" lon="12.9519455"><ele>864.0</ele><time>2026-04-10T15:53:05.659Z</time></trkpt><trkpt lat="42.6439379" lon="12.9517768"><ele>864.0</ele><time>2026-04-10T15:53:06.666Z</time></trkpt><trkpt lat="42.6438766" lon="12.9516188"><ele>864.0</ele><time>2026-04-10T15:53:07.681Z</time></trkpt><trkpt lat="42.6438233" lon="12.9514755"><ele>867.6666666666666</ele><time>2026-04-10T15:53:08.67Z</time></trkpt><trkpt lat="42.6437947" lon="12.95135"><ele>871.3333333333333</ele><time>2026-04-10T15:53:09.671Z</time></trkpt><trkpt lat="42.643786" lon="12.9512035"><ele>875.0</ele><time>2026-04-10T15:53:10.575Z</time></trkpt><trkpt lat="42.6438335" lon="12.9511288"><ele>878.6666666666666</ele><time>2026-04-10T15:53:11.578Z</time></trkpt><trkpt lat="42.6439081" lon="12.9511836"><ele>882.3333333333333</ele><time>2026-04-10T15:53:12.595Z</time></trkpt><trkpt lat="42.6439371" lon="12.9512643"><ele>886.0</ele><time>2026-04-10T15:53:13.581Z</time></trkpt><trkpt lat="42.6439622" lon="12.9513872"><ele>886.0</ele><time>2026-04-10T15:53:14.57Z</time></trkpt><trkpt lat="42.6439831" lon="12.9515108"><ele>886.0</ele><time>2026-04-10T15:53:15.57Z</time></trkpt><trkpt lat="42.6440241" lon="12.9516416"><ele>886.0</ele><time>2026-04-10T15:53:16.571Z</time></trkpt><trkpt lat="42.644068" lon="12.9518179"><ele>886.0</ele><time>2026-04-10T15:53:17.575Z</time></trkpt><trkpt lat="42.644135" lon="12.9519855"><ele>887.6666666666666</ele><time>2026-04-10T15:53:18.574Z</time></trkpt><trkpt lat="42.6442254" lon="12.9521297"><ele>889.3333333333333</ele><time>2026-04-10T15:53:19.575Z</time></trkpt><trkpt lat="42.6443405" lon="12.9522711"><ele>891.0</ele><time>2026-04-10T15:53:20.576Z</time></trkpt><trkpt lat="42.6445139" lon="12.952409"><ele>891.0</ele><time>2026-04-10T15:53:21.577Z</time></trkpt><trkpt lat="42.6446912" lon="12.9524202"><ele>891.0</ele><time>2026-04-10T15:53:22.577Z</time></trkpt><trkpt lat="42.6448561" lon="12.9524836"><ele>891.0</ele><time>2026-04-10T15:53:23.572Z</time></trkpt><trkpt lat="42.6450394" lon="12.9525249"><ele>891.0</ele><time>2026-04-10T15:53:24.581Z</time></trkpt><trkpt lat="42.6452024" lon="12.9525301"><ele>891.0</ele><time>2026-04-10T15:53:25.572Z</time></trkpt><trkpt lat="42.645384" lon="12.9525341"><ele>891.0</ele><time>2026-04-10T15:53:26.58Z</time></trkpt><trkpt lat="42.6455571" lon="12.9525241"><ele>893.0</ele><time>2026-04-10T15:53:27.575Z</time></trkpt><trkpt lat="42.6457203" lon="12.9524862"><ele>895.0</ele><time>2026-04-10T15:53:28.574Z</time></trkpt><trkpt lat="42.6459104" lon="12.9524221"><ele>897.0</ele><time>2026-04-10T15:53:29.581Z</time></trkpt><trkpt lat="42.6460862" lon="12.9523806"><ele>898.6666666666667</ele><time>2026-04-10T15:53:30.574Z</time></trkpt><trkpt lat="42.6462831" lon="12.9523484"><ele>900.3333333333334</ele><time>2026-04-10T15:53:31.574Z</time></trkpt><trkpt lat="42.6464477" lon="12.9523737"><ele>902.0</ele><time>2026-04-10T15:53:32.572Z</time></trkpt><trkpt lat="42.6465946" lon="12.9524307"><ele>902.0</ele><time>2026-04-10T15:53:33.573Z</time></trkpt><trkpt lat="42.646727" lon="12.9524918"><ele>902.0</ele><time>2026-04-10T15:53:34.578Z</time></trkpt><trkpt lat="42.6468665" lon="12.952509"><ele>902.0</ele><time>2026-04-10T15:53:35.578Z</time></trkpt><trkpt lat="42.6470127" lon="12.9524717"><ele>902.0</ele><time>2026-04-10T15:53:36.576Z</time></trkpt><trkpt lat="42.647135" lon="12.9523961"><ele>901.3333333333334</ele><time>2026-04-10T15:53:37.574Z</time></trkpt><trkpt lat="42.6472788" lon="12.9522741"><ele>900.6666666666667</ele><time>2026-04-10T15:53:38.583Z</time></trkpt><trkpt lat="42.6474661" lon="12.9522058"><ele>900.0</ele><time>2026-04-10T15:53:39.576Z</time></trkpt><trkpt lat="42.6476452" lon="12.9521491"><ele>898.6666666666667</ele><time>2026-04-10T15:53:40.573Z</time></trkpt><trkpt lat="42.6478037" lon="12.9520378"><ele>897.3333333333334</ele><time>2026-04-10T15:53:41.571Z</time></trkpt><trkpt lat="42.6479715" lon="12.9519321"><ele>896.0</ele><time>2026-04-10T15:53:42.574Z</time></trkpt><trkpt lat="42.6481476" lon="12.9518126"><ele>903.3333333333334</ele><time>2026-04-10T15:53:43.573Z</time></trkpt><trkpt lat="42.648307" lon="12.9516808"><ele>910.6666666666667</ele><time>2026-04-10T15:53:44.568Z</time></trkpt><trkpt lat="42.6484448" lon="12.9516029"><ele>918.0</ele><time>2026-04-10T15:53:45.576Z</time></trkpt><trkpt lat="42.6486001" lon="12.9515758"><ele>919.6666666666667</ele><time>2026-04-10T15:53:46.575Z</time></trkpt><trkpt lat="42.6487701" lon="12.9516331"><ele>921.3333333333334</ele><time>2026-04-10T15:53:47.566Z</time></trkpt><trkpt lat="42.6489237" lon="12.9516768"><ele>923.0</ele><time>2026-04-10T15:53:48.559Z</time></trkpt><trkpt lat="42.6491069" lon="12.9516772"><ele>923.0</ele><time>2026-04-10T15:53:49.562Z</time></trkpt><trkpt lat="42.6492616" lon="12.9515959"><ele>923.0</ele><time>2026-04-10T15:53:50.569Z</time></trkpt><trkpt lat="42.6494287" lon="12.951538"><ele>923.0</ele><time>2026-04-10T15:53:51.574Z</time></trkpt><trkpt lat="42.6495973" lon="12.9514842"><ele>925.3333333333334</ele><time>2026-04-10T15:53:52.577Z</time></trkpt><trkpt lat="42.6497584" lon="12.9514548"><ele>927.6666666666667</ele><time>2026-04-10T15:53:53.572Z</time></trkpt><trkpt lat="42.6499205" lon="12.9514477"><ele>930.0</ele><time>2026-04-10T15:53:54.568Z</time></trkpt><trkpt lat="42.6501076" lon="12.951469"><ele>930.0</ele><time>2026-04-10T15:53:55.572Z</time></trkpt><trkpt lat="42.6502703" lon="12.9515418"><ele>930.0</ele><time>2026-04-10T15:53:56.57Z</time></trkpt><trkpt lat="42.6503999" lon="12.9516026"><ele>930.0</ele><time>2026-04-10T15:53:57.565Z</time></trkpt><trkpt lat="42.6504923" lon="12.9516861"><ele>930.0</ele><time>2026-04-10T15:53:58.565Z</time></trkpt><trkpt lat="42.6505604" lon="12.9518051"><ele>929.5</ele><time>2026-04-10T15:53:59.566Z</time></trkpt><trkpt lat="42.6506478" lon="12.9519288"><ele>929.0</ele><time>2026-04-10T15:54:00.572Z</time></trkpt><trkpt lat="42.6507162" lon="12.9520569"><ele>928.5</ele><time>2026-04-10T15:54:01.575Z</time></trkpt><trkpt lat="42.6507976" lon="12.9521777"><ele>928.0</ele><time>2026-04-10T15:54:02.57Z</time></trkpt><trkpt lat="42.650851" lon="12.9522742"><ele>927.9999999999999</ele><time>2026-04-10T15:54:03.575Z</time></trkpt><trkpt lat="42.6509338" lon="12.9523309"><ele>928.0</ele><time>2026-04-10T15:54:05.565Z</time></trkpt><trkpt lat="42.6509826" lon="12.9522412"><ele>928.0</ele><time>2026-04-10T15:54:07.566Z</time></trkpt><trkpt lat="42.6509809" lon="12.9521409"><ele>928.0</ele><time>2026-04-10T15:54:08.571Z</time></trkpt><trkpt lat="42.6509637" lon="12.9520082"><ele>927.9999999999999</ele><time>2026-04-10T15:54:09.58Z</time></trkpt><trkpt lat="42.6509518" lon="12.9518819"><ele>928.0</ele><time>2026-04-10T15:54:10.568Z</time></trkpt><trkpt lat="42.6509398" lon="12.9517626"><ele>930.2857142857144</ele><time>2026-04-10T15:54:11.578Z</time></trkpt><trkpt lat="42.6509088" lon="12.9516515"><ele>932.5714285714287</ele><time>2026-04-10T15:54:12.568Z</time></trkpt><trkpt lat="42.650864" lon="12.9515645"><ele>934.8571428571429</ele><time>2026-04-10T15:54:13.572Z</time></trkpt><trkpt lat="42.650809" lon="12.9514854"><ele>937.1428571428572</ele><time>2026-04-10T15:54:15.575Z</time></trkpt><trkpt lat="42.6507721" lon="12.9514099"><ele>939.4285714285716</ele><time>2026-04-10T15:54:18.591Z</time></trkpt><trkpt lat="42.6507161" lon="12.9513583"><ele>941.7142857142857</ele><time>2026-04-10T15:54:25.602Z</time></trkpt><trkpt lat="42.6506552" lon="12.9513351"><ele>944.0</ele><time>2026-04-10T15:54:27.605Z</time></trkpt><trkpt lat="42.6505782" lon="12.9513154"><ele>944.0</ele><time>2026-04-10T15:54:29.605Z</time></trkpt><trkpt lat="42.6504826" lon="12.9512695"><ele>944.0</ele><time>2026-04-10T15:54:31.597Z</time></trkpt><trkpt lat="42.6504232" lon="12.9512346"><ele>944.0</ele><time>2026-04-10T15:54:32.595Z</time></trkpt><trkpt lat="42.6503608" lon="12.9512041"><ele>944.0</ele><time>2026-04-10T15:54:33.599Z</time></trkpt><trkpt lat="42.6502996" lon="12.9511652"><ele>944.0</ele><time>2026-04-10T15:54:34.596Z</time></trkpt><trkpt lat="42.6502292" lon="12.9511306"><ele>944.0</ele><time>2026-04-10T15:54:35.597Z</time></trkpt><trkpt lat="42.6501615" lon="12.9510915"><ele>944.0</ele><time>2026-04-10T15:54:36.605Z</time></trkpt><trkpt lat="42.6501002" lon="12.9510577"><ele>942.6</ele><time>2026-04-10T15:54:37.599Z</time></trkpt><trkpt lat="42.6500004" lon="12.9510061"><ele>941.2</ele><time>2026-04-10T15:54:39.607Z</time></trkpt><trkpt lat="42.649897" lon="12.9509615"><ele>939.8000000000001</ele><time>2026-04-10T15:54:41.607Z</time></trkpt><trkpt lat="42.6498083" lon="12.9509077"><ele>938.4000000000001</ele><time>2026-04-10T15:54:43.596Z</time></trkpt><trkpt lat="42.6497168" lon="12.9508612"><ele>937.0</ele><time>2026-04-10T15:54:45.602Z</time></trkpt><trkpt lat="42.649608" lon="12.9507701"><ele>936.9999999999999</ele><time>2026-04-10T15:54:47.609Z</time></trkpt><trkpt lat="42.6495484" lon="12.9507044"><ele>937.0</ele><time>2026-04-10T15:54:48.602Z</time></trkpt><trkpt lat="42.6494946" lon="12.9506278"><ele>937.0</ele><time>2026-04-10T15:54:49.612Z</time></trkpt><trkpt lat="42.649446" lon="12.9505568"><ele>937.0</ele><time>2026-04-10T15:54:50.608Z</time></trkpt><trkpt lat="42.6493683" lon="12.9504202"><ele>936.9999999999999</ele><time>2026-04-10T15:54:52.612Z</time></trkpt><trkpt lat="42.6493203" lon="12.9503556"><ele>937.0</ele><time>2026-04-10T15:54:53.606Z</time></trkpt><trkpt lat="42.6492342" lon="12.950224"><ele>936.4999999999999</ele><time>2026-04-10T15:54:55.601Z</time></trkpt><trkpt lat="42.6491794" lon="12.9501531"><ele>936.0</ele><time>2026-04-10T15:54:56.599Z</time></trkpt><trkpt lat="42.649105" lon="12.9501033"><ele>935.5</ele><time>2026-04-10T15:54:57.592Z</time></trkpt><trkpt lat="42.6490379" lon="12.9500601"><ele>935.0</ele><time>2026-04-10T15:54:58.601Z</time></trkpt><trkpt lat="42.6489734" lon="12.9500307"><ele>934.4999999999999</ele><time>2026-04-10T15:54:59.601Z</time></trkpt><trkpt lat="42.6489048" lon="12.9500028"><ele>934.0</ele><time>2026-04-10T15:55:00.599Z</time></trkpt><trkpt lat="42.6488321" lon="12.9499667"><ele>932.8000000000001</ele><time>2026-04-10T15:55:01.602Z</time></trkpt><trkpt lat="42.6487592" lon="12.9499237"><ele>931.6000000000001</ele><time>2026-04-10T15:55:02.593Z</time></trkpt><trkpt lat="42.6486793" lon="12.9498594"><ele>930.4</ele><time>2026-04-10T15:55:03.598Z</time></trkpt><trkpt lat="42.6485939" lon="12.9498045"><ele>929.2</ele><time>2026-04-10T15:55:04.596Z</time></trkpt><trkpt lat="42.6485081" lon="12.9497434"><ele>928.0</ele><time>2026-04-10T15:55:05.6Z</time></trkpt><trkpt lat="42.6484245" lon="12.9496873"><ele>927.2</ele><time>2026-04-10T15:55:06.598Z</time></trkpt><trkpt lat="42.6483476" lon="12.9496191"><ele>926.4</ele><time>2026-04-10T15:55:07.597Z</time></trkpt><trkpt lat="42.6482723" lon="12.9495445"><ele>925.6000000000001</ele><time>2026-04-10T15:55:08.595Z</time></trkpt><trkpt lat="42.6481994" lon="12.9494591"><ele>924.8000000000001</ele><time>2026-04-10T15:55:09.599Z</time></trkpt><trkpt lat="42.6481188" lon="12.9493722"><ele>924.0</ele><time>2026-04-10T15:55:10.606Z</time></trkpt><trkpt lat="42.6480313" lon="12.9493045"><ele>924.0</ele><time>2026-04-10T15:55:11.594Z</time></trkpt><trkpt lat="42.6479517" lon="12.949271"><ele>924.0000000000001</ele><time>2026-04-10T15:55:12.595Z</time></trkpt><trkpt lat="42.6478729" lon="12.9492465"><ele>924.0000000000001</ele><time>2026-04-10T15:55:13.593Z</time></trkpt><trkpt lat="42.6477864" lon="12.9492196"><ele>924.0</ele><time>2026-04-10T15:55:14.59Z</time></trkpt><trkpt lat="42.6476963" lon="12.9491717"><ele>924.0</ele><time>2026-04-10T15:55:15.595Z</time></trkpt><trkpt lat="42.6476016" lon="12.9490987"><ele>922.0</ele><time>2026-04-10T15:55:16.586Z</time></trkpt><trkpt lat="42.6475108" lon="12.9490263"><ele>920.0000000000001</ele><time>2026-04-10T15:55:17.597Z</time></trkpt><trkpt lat="42.6474416" lon="12.9489363"><ele>918.0000000000001</ele><time>2026-04-10T15:55:18.59Z</time></trkpt><trkpt lat="42.6473884" lon="12.9488416"><ele>916.0</ele><time>2026-04-10T15:55:19.59Z</time></trkpt><trkpt lat="42.6473417" lon="12.94874"><ele>914.0</ele><time>2026-04-10T15:55:20.587Z</time></trkpt><trkpt lat="42.6473202" lon="12.9486428"><ele>914.0</ele><time>2026-04-10T15:55:21.583Z</time></trkpt><trkpt lat="42.6473333" lon="12.9485336"><ele>914.0000000000001</ele><time>2026-04-10T15:55:22.575Z</time></trkpt><trkpt lat="42.6473773" lon="12.9484069"><ele>914.0000000000001</ele><time>2026-04-10T15:55:23.577Z</time></trkpt><trkpt lat="42.6474349" lon="12.9482735"><ele>914.0</ele><time>2026-04-10T15:55:24.581Z</time></trkpt><trkpt lat="42.6474869" lon="12.9481317"><ele>914.0</ele><time>2026-04-10T15:55:25.571Z</time></trkpt><trkpt lat="42.6475313" lon="12.9479677"><ele>912.75</ele><time>2026-04-10T15:55:26.591Z</time></trkpt><trkpt lat="42.6475642" lon="12.9477807"><ele>911.5</ele><time>2026-04-10T15:55:27.584Z</time></trkpt><trkpt lat="42.6475901" lon="12.9475892"><ele>910.25</ele><time>2026-04-10T15:55:28.585Z</time></trkpt><trkpt lat="42.647617" lon="12.9473973"><ele>909.0</ele><time>2026-04-10T15:55:29.588Z</time></trkpt><trkpt lat="42.6476257" lon="12.9472061"><ele>908.0</ele><time>2026-04-10T15:55:30.589Z</time></trkpt><trkpt lat="42.6476377" lon="12.9470133"><ele>907.0</ele><time>2026-04-10T15:55:31.585Z</time></trkpt><trkpt lat="42.6476539" lon="12.9468348"><ele>906.0</ele><time>2026-04-10T15:55:32.578Z</time></trkpt><trkpt lat="42.6476695" lon="12.9466841"><ele>905.0</ele><time>2026-04-10T15:55:33.581Z</time></trkpt><trkpt lat="42.6476805" lon="12.9465502"><ele>903.75</ele><time>2026-04-10T15:55:34.592Z</time></trkpt><trkpt lat="42.6476874" lon="12.946407"><ele>902.5</ele><time>2026-04-10T15:55:35.588Z</time></trkpt><trkpt lat="42.647705" lon="12.9462444"><ele>901.25</ele><time>2026-04-10T15:55:36.587Z</time></trkpt><trkpt lat="42.6477277" lon="12.9460729"><ele>900.0</ele><time>2026-04-10T15:55:37.596Z</time></trkpt><trkpt lat="42.6477591" lon="12.9458723"><ele>900.0</ele><time>2026-04-10T15:55:38.601Z</time></trkpt><trkpt lat="42.6477914" lon="12.9456544"><ele>900.0</ele><time>2026-04-10T15:55:39.589Z</time></trkpt><trkpt lat="42.6478317" lon="12.9454267"><ele>900.0</ele><time>2026-04-10T15:55:40.604Z</time></trkpt><trkpt lat="42.6478665" lon="12.9452242"><ele>899.0</ele><time>2026-04-10T15:55:41.612Z</time></trkpt><trkpt lat="42.6479017" lon="12.9450238"><ele>898.0</ele><time>2026-04-10T15:55:42.597Z</time></trkpt><trkpt lat="42.6479467" lon="12.9448337"><ele>897.0</ele><time>2026-04-10T15:55:43.6Z</time></trkpt><trkpt lat="42.6480212" lon="12.9446618"><ele>896.0</ele><time>2026-04-10T15:55:44.601Z</time></trkpt><trkpt lat="42.6481017" lon="12.9444877"><ele>896.0</ele><time>2026-04-10T15:55:45.606Z</time></trkpt><trkpt lat="42.6481862" lon="12.9443004"><ele>896.0</ele><time>2026-04-10T15:55:46.603Z</time></trkpt><trkpt lat="42.6482766" lon="12.9441065"><ele>896.0</ele><time>2026-04-10T15:55:47.599Z</time></trkpt><trkpt lat="42.6483796" lon="12.9439346"><ele>896.3333333333334</ele><time>2026-04-10T15:55:48.608Z</time></trkpt><trkpt lat="42.648495" lon="12.9437487"><ele>896.6666666666667</ele><time>2026-04-10T15:55:49.613Z</time></trkpt><trkpt lat="42.6485851" lon="12.9435564"><ele>897.0</ele><time>2026-04-10T15:55:50.6Z</time></trkpt><trkpt lat="42.6486772" lon="12.9433722"><ele>897.0</ele><time>2026-04-10T15:55:51.599Z</time></trkpt><trkpt lat="42.6487485" lon="12.9431921"><ele>897.0</ele><time>2026-04-10T15:55:52.59Z</time></trkpt><trkpt lat="42.6488085" lon="12.9430074"><ele>897.0</ele><time>2026-04-10T15:55:53.597Z</time></trkpt><trkpt lat="42.6488191" lon="12.9428049"><ele>897.0</ele><time>2026-04-10T15:55:54.598Z</time></trkpt><trkpt lat="42.6488307" lon="12.9426073"><ele>898.0</ele><time>2026-04-10T15:55:55.591Z</time></trkpt><trkpt lat="42.6488175" lon="12.9424038"><ele>899.0</ele><time>2026-04-10T15:55:56.605Z</time></trkpt><trkpt lat="42.6488008" lon="12.9421739"><ele>900.0</ele><time>2026-04-10T15:55:57.609Z</time></trkpt><trkpt lat="42.6487805" lon="12.9419416"><ele>900.0</ele><time>2026-04-10T15:55:58.607Z</time></trkpt><trkpt lat="42.6487736" lon="12.9417197"><ele>900.0</ele><time>2026-04-10T15:55:59.604Z</time></trkpt><trkpt lat="42.6487612" lon="12.9415027"><ele>900.0</ele><time>2026-04-10T15:56:00.607Z</time></trkpt><trkpt lat="42.6487234" lon="12.9412749"><ele>900.0</ele><time>2026-04-10T15:56:01.606Z</time></trkpt><trkpt lat="42.6486733" lon="12.941053"><ele>900.0</ele><time>2026-04-10T15:56:02.61Z</time></trkpt><trkpt lat="42.6486199" lon="12.9408656"><ele>900.0</ele><time>2026-04-10T15:56:03.605Z</time></trkpt><trkpt lat="42.648569" lon="12.9406886"><ele>900.0</ele><time>2026-04-10T15:56:04.609Z</time></trkpt><trkpt lat="42.6485277" lon="12.9405098"><ele>900.0</ele><time>2026-04-10T15:56:05.606Z</time></trkpt><trkpt lat="42.6484908" lon="12.9403523"><ele>900.0</ele><time>2026-04-10T15:56:06.6Z</time></trkpt><trkpt lat="42.6484648" lon="12.9401966"><ele>900.0</ele><time>2026-04-10T15:56:07.606Z</time></trkpt><trkpt lat="42.648449" lon="12.9400488"><ele>900.0</ele><time>2026-04-10T15:56:08.607Z</time></trkpt><trkpt lat="42.648449" lon="12.9399027"><ele>900.0</ele><time>2026-04-10T15:56:09.607Z</time></trkpt><trkpt lat="42.6484481" lon="12.9397367"><ele>900.0</ele><time>2026-04-10T15:56:10.61Z</time></trkpt><trkpt lat="42.6484531" lon="12.9395527"><ele>900.0</ele><time>2026-04-10T15:56:11.607Z</time></trkpt><trkpt lat="42.6484479" lon="12.9393501"><ele>902.0</ele><time>2026-04-10T15:56:12.617Z</time></trkpt><trkpt lat="42.6484493" lon="12.9391467"><ele>904.0</ele><time>2026-04-10T15:56:13.604Z</time></trkpt><trkpt lat="42.6484446" lon="12.9389442"><ele>906.0</ele><time>2026-04-10T15:56:14.611Z</time></trkpt><trkpt lat="42.6484476" lon="12.9387345"><ele>906.0</ele><time>2026-04-10T15:56:15.609Z</time></trkpt><trkpt lat="42.6484615" lon="12.9385187"><ele>906.0</ele><time>2026-04-10T15:56:16.609Z</time></trkpt><trkpt lat="42.6484697" lon="12.9383019"><ele>906.0</ele><time>2026-04-10T15:56:17.601Z</time></trkpt><trkpt lat="42.6484863" lon="12.9380847"><ele>907.0</ele><time>2026-04-10T15:56:18.602Z</time></trkpt><trkpt lat="42.6485227" lon="12.9378724"><ele>908.0</ele><time>2026-04-10T15:56:19.611Z</time></trkpt><trkpt lat="42.6485648" lon="12.9376634"><ele>909.0</ele><time>2026-04-10T15:56:20.603Z</time></trkpt><trkpt lat="42.6486108" lon="12.9374595"><ele>907.6666666666667</ele><time>2026-04-10T15:56:21.608Z</time></trkpt><trkpt lat="42.6486626" lon="12.9372245"><ele>906.3333333333334</ele><time>2026-04-10T15:56:22.61Z</time></trkpt><trkpt lat="42.6486743" lon="12.9369926"><ele>905.0</ele><time>2026-04-10T15:56:23.605Z</time></trkpt><trkpt lat="42.6486662" lon="12.9368059"><ele>908.5</ele><time>2026-04-10T15:56:24.596Z</time></trkpt><trkpt lat="42.6486161" lon="12.9366147"><ele>912.0</ele><time>2026-04-10T15:56:25.585Z</time></trkpt><trkpt lat="42.6485541" lon="12.9364207"><ele>915.5</ele><time>2026-04-10T15:56:26.593Z</time></trkpt><trkpt lat="42.6485018" lon="12.9362464"><ele>919.0</ele><time>2026-04-10T15:56:27.589Z</time></trkpt><trkpt lat="42.6483774" lon="12.9360877"><ele>919.0</ele><time>2026-04-10T15:56:28.595Z</time></trkpt><trkpt lat="42.6482953" lon="12.9359082"><ele>919.0</ele><time>2026-04-10T15:56:29.596Z</time></trkpt><trkpt lat="42.6482752" lon="12.9357261"><ele>919.0</ele><time>2026-04-10T15:56:30.6Z</time></trkpt><trkpt lat="42.6482725" lon="12.9355389"><ele>919.0</ele><time>2026-04-10T15:56:31.596Z</time></trkpt><trkpt lat="42.6482698" lon="12.9353374"><ele>920.0</ele><time>2026-04-10T15:56:32.594Z</time></trkpt><trkpt lat="42.6482896" lon="12.9351063"><ele>921.0</ele><time>2026-04-10T15:56:33.602Z</time></trkpt><trkpt lat="42.6482987" lon="12.9348878"><ele>922.0</ele><time>2026-04-10T15:56:34.595Z</time></trkpt><trkpt lat="42.6483351" lon="12.934646"><ele>922.6666666666666</ele><time>2026-04-10T15:56:35.607Z</time></trkpt><trkpt lat="42.6483775" lon="12.9344107"><ele>923.3333333333333</ele><time>2026-04-10T15:56:36.604Z</time></trkpt><trkpt lat="42.6484224" lon="12.9341813"><ele>924.0</ele><time>2026-04-10T15:56:37.607Z</time></trkpt><trkpt lat="42.6484641" lon="12.9339739"><ele>925.3333333333333</ele><time>2026-04-10T15:56:38.604Z</time></trkpt><trkpt lat="42.6484939" lon="12.9337657"><ele>926.6666666666666</ele><time>2026-04-10T15:56:39.6Z</time></trkpt><trkpt lat="42.6485496" lon="12.9335907"><ele>928.0</ele><time>2026-04-10T15:56:40.602Z</time></trkpt><trkpt lat="42.6487797" lon="12.9333517"><ele>930.6666666666666</ele><time>2026-04-10T15:56:42.598Z</time></trkpt><trkpt lat="42.6489212" lon="12.9332359"><ele>933.3333333333333</ele><time>2026-04-10T15:56:43.607Z</time></trkpt><trkpt lat="42.6490628" lon="12.9331453"><ele>936.0</ele><time>2026-04-10T15:56:44.599Z</time></trkpt><trkpt lat="42.6491968" lon="12.9330328"><ele>936.0</ele><time>2026-04-10T15:56:45.604Z</time></trkpt><trkpt lat="42.6493251" lon="12.932912"><ele>936.0</ele><time>2026-04-10T15:56:46.594Z</time></trkpt><trkpt lat="42.6494341" lon="12.9327577"><ele>936.0</ele><time>2026-04-10T15:56:47.583Z</time></trkpt><trkpt lat="42.6495056" lon="12.9325901"><ele>937.6666666666667</ele><time>2026-04-10T15:56:48.598Z</time></trkpt><trkpt lat="42.6495823" lon="12.9323987"><ele>939.3333333333334</ele><time>2026-04-10T15:56:49.606Z</time></trkpt><trkpt lat="42.6496631" lon="12.9322063"><ele>941.0</ele><time>2026-04-10T15:56:50.607Z</time></trkpt><trkpt lat="42.6497371" lon="12.9319973"><ele>941.0</ele><time>2026-04-10T15:56:51.609Z</time></trkpt><trkpt lat="42.6498142" lon="12.9317863"><ele>941.0</ele><time>2026-04-10T15:56:52.604Z</time></trkpt><trkpt lat="42.6499161" lon="12.9315636"><ele>941.0</ele><time>2026-04-10T15:56:53.606Z</time></trkpt><trkpt lat="42.6499773" lon="12.9313739"><ele>943.75</ele><time>2026-04-10T15:56:54.602Z</time></trkpt><trkpt lat="42.6500513" lon="12.9311891"><ele>946.5</ele><time>2026-04-10T15:56:55.609Z</time></trkpt><trkpt lat="42.6501266" lon="12.9310073"><ele>949.25</ele><time>2026-04-10T15:56:56.603Z</time></trkpt><trkpt lat="42.650198" lon="12.9308758"><ele>952.0</ele><time>2026-04-10T15:56:57.596Z</time></trkpt><trkpt lat="42.6502799" lon="12.9307566"><ele>956.0</ele><time>2026-04-10T15:56:58.597Z</time></trkpt><trkpt lat="42.650355" lon="12.9306494"><ele>960.0</ele><time>2026-04-10T15:56:59.604Z</time></trkpt><trkpt lat="42.6504509" lon="12.9305897"><ele>964.0</ele><time>2026-04-10T15:57:00.586Z</time></trkpt><trkpt lat="42.6505313" lon="12.9305879"><ele>968.0</ele><time>2026-04-10T15:57:01.599Z</time></trkpt><trkpt lat="42.6506317" lon="12.9306152"><ele>972.0</ele><time>2026-04-10T15:57:02.583Z</time></trkpt><trkpt lat="42.6507365" lon="12.9306552"><ele>972.0</ele><time>2026-04-10T15:57:03.581Z</time></trkpt><trkpt lat="42.6508461" lon="12.9307349"><ele>972.0</ele><time>2026-04-10T15:57:04.576Z</time></trkpt><trkpt lat="42.6509573" lon="12.9308274"><ele>972.0</ele><time>2026-04-10T15:57:05.581Z</time></trkpt><trkpt lat="42.6510602" lon="12.9309432"><ele>972.0</ele><time>2026-04-10T15:57:06.581Z</time></trkpt><trkpt lat="42.6511563" lon="12.9310841"><ele>973.75</ele><time>2026-04-10T15:57:07.587Z</time></trkpt><trkpt lat="42.6512524" lon="12.9312236"><ele>975.5</ele><time>2026-04-10T15:57:08.603Z</time></trkpt><trkpt lat="42.6513603" lon="12.9313507"><ele>977.25</ele><time>2026-04-10T15:57:09.594Z</time></trkpt><trkpt lat="42.6514574" lon="12.9314516"><ele>979.0</ele><time>2026-04-10T15:57:10.595Z</time></trkpt><trkpt lat="42.6515408" lon="12.9315344"><ele>979.0</ele><time>2026-04-10T15:57:11.584Z</time></trkpt><trkpt lat="42.6516249" lon="12.9315672"><ele>979.0000000000001</ele><time>2026-04-10T15:57:12.594Z</time></trkpt><trkpt lat="42.6517394" lon="12.9314789"><ele>979.0000000000001</ele><time>2026-04-10T15:57:14.592Z</time></trkpt><trkpt lat="42.6517474" lon="12.9313722"><ele>979.0</ele><time>2026-04-10T15:57:15.58Z</time></trkpt><trkpt lat="42.6517125" lon="12.9312456"><ele>979.0</ele><time>2026-04-10T15:57:16.583Z</time></trkpt><trkpt lat="42.6516519" lon="12.9311667"><ele>979.0</ele><time>2026-04-10T15:57:17.571Z</time></trkpt><trkpt lat="42.6515713" lon="12.9310742"><ele>979.0</ele><time>2026-04-10T15:57:18.575Z</time></trkpt><trkpt lat="42.6514638" lon="12.9309906"><ele>979.0</ele><time>2026-04-10T15:57:19.578Z</time></trkpt><trkpt lat="42.6513417" lon="12.9308841"><ele>979.0</ele><time>2026-04-10T15:57:20.586Z</time></trkpt><trkpt lat="42.6512271" lon="12.9307601"><ele>976.6666666666666</ele><time>2026-04-10T15:57:21.592Z</time></trkpt><trkpt lat="42.6511272" lon="12.9306057"><ele>974.3333333333333</ele><time>2026-04-10T15:57:22.584Z</time></trkpt><trkpt lat="42.6510225" lon="12.9304301"><ele>972.0</ele><time>2026-04-10T15:57:23.585Z</time></trkpt><trkpt lat="42.6509368" lon="12.9302185"><ele>976.0</ele><time>2026-04-10T15:57:24.586Z</time></trkpt><trkpt lat="42.6508317" lon="12.930016"><ele>980.0</ele><time>2026-04-10T15:57:25.587Z</time></trkpt><trkpt lat="42.6507336" lon="12.9298622"><ele>984.0</ele><time>2026-04-10T15:57:26.591Z</time></trkpt><trkpt lat="42.6506361" lon="12.9297223"><ele>984.0</ele><time>2026-04-10T15:57:27.584Z</time></trkpt><trkpt lat="42.6505496" lon="12.9296115"><ele>984.0000000000001</ele><time>2026-04-10T15:57:28.587Z</time></trkpt><trkpt lat="42.6504822" lon="12.9294768"><ele>984.0000000000001</ele><time>2026-04-10T15:57:29.587Z</time></trkpt><trkpt lat="42.6504423" lon="12.9293717"><ele>984.0</ele><time>2026-04-10T15:57:30.605Z</time></trkpt><trkpt lat="42.6504092" lon="12.929257"><ele>984.0</ele><time>2026-04-10T15:57:31.6Z</time></trkpt><trkpt lat="42.6503761" lon="12.9291447"><ele>986.4000000000001</ele><time>2026-04-10T15:57:32.593Z</time></trkpt><trkpt lat="42.6503929" lon="12.9290089"><ele>988.8000000000001</ele><time>2026-04-10T15:57:33.597Z</time></trkpt><trkpt lat="42.6504363" lon="12.928886"><ele>991.1999999999999</ele><time>2026-04-10T15:57:34.595Z</time></trkpt><trkpt lat="42.6504783" lon="12.9287751"><ele>993.5999999999999</ele><time>2026-04-10T15:57:35.591Z</time></trkpt><trkpt lat="42.6505448" lon="12.9286842"><ele>996.0</ele><time>2026-04-10T15:57:36.593Z</time></trkpt><trkpt lat="42.6505959" lon="12.928605"><ele>996.0</ele><time>2026-04-10T15:57:37.588Z</time></trkpt><trkpt lat="42.6506215" lon="12.9285033"><ele>995.9999999999999</ele><time>2026-04-10T15:57:38.581Z</time></trkpt><trkpt lat="42.6506348" lon="12.928372"><ele>995.9999999999999</ele><time>2026-04-10T15:57:39.577Z</time></trkpt><trkpt lat="42.6506295" lon="12.9282393"><ele>996.0</ele><time>2026-04-10T15:57:40.575Z</time></trkpt><trkpt lat="42.6505972" lon="12.9280995"><ele>996.0</ele><time>2026-04-10T15:57:41.577Z</time></trkpt><trkpt lat="42.6505592" lon="12.9279496"><ele>997.5999999999999</ele><time>2026-04-10T15:57:42.586Z</time></trkpt><trkpt lat="42.6505151" lon="12.9278159"><ele>999.1999999999999</ele><time>2026-04-10T15:57:43.579Z</time></trkpt><trkpt lat="42.6504872" lon="12.9277092"><ele>1000.8000000000001</ele><time>2026-04-10T15:57:44.587Z</time></trkpt><trkpt lat="42.6504903" lon="12.9275882"><ele>1002.4000000000001</ele><time>2026-04-10T15:57:45.589Z</time></trkpt><trkpt lat="42.6505025" lon="12.9274703"><ele>1004.0</ele><time>2026-04-10T15:57:46.584Z</time></trkpt><trkpt lat="42.6505089" lon="12.9273453"><ele>1006.4000000000001</ele><time>2026-04-10T15:57:47.581Z</time></trkpt><trkpt lat="42.6505108" lon="12.9272165"><ele>1008.8000000000001</ele><time>2026-04-10T15:57:48.58Z</time></trkpt><trkpt lat="42.6504832" lon="12.9270734"><ele>1011.1999999999999</ele><time>2026-04-10T15:57:49.588Z</time></trkpt><trkpt lat="42.6504316" lon="12.9269322"><ele>1013.5999999999999</ele><time>2026-04-10T15:57:50.574Z</time></trkpt><trkpt lat="42.6503805" lon="12.9267769"><ele>1016.0</ele><time>2026-04-10T15:57:51.573Z</time></trkpt><trkpt lat="42.6503272" lon="12.9266146"><ele>1013.75</ele><time>2026-04-10T15:57:52.572Z</time></trkpt><trkpt lat="42.6502645" lon="12.926463"><ele>1011.5</ele><time>2026-04-10T15:57:53.577Z</time></trkpt><trkpt lat="42.6501998" lon="12.9263172"><ele>1009.25</ele><time>2026-04-10T15:57:54.571Z</time></trkpt><trkpt lat="42.6501359" lon="12.9261902"><ele>1007.0</ele><time>2026-04-10T15:57:55.566Z</time></trkpt><trkpt lat="42.6500973" lon="12.9260514"><ele>1007.0</ele><time>2026-04-10T15:57:56.569Z</time></trkpt><trkpt lat="42.6500286" lon="12.925905"><ele>1007.0</ele><time>2026-04-10T15:57:57.571Z</time></trkpt><trkpt lat="42.6499675" lon="12.9257594"><ele>1007.0</ele><time>2026-04-10T15:57:58.574Z</time></trkpt><trkpt lat="42.6498994" lon="12.925633"><ele>1007.0</ele><time>2026-04-10T15:57:59.575Z</time></trkpt><trkpt lat="42.6498231" lon="12.9255008"><ele>1011.5</ele><time>2026-04-10T15:58:00.564Z</time></trkpt><trkpt lat="42.6497608" lon="12.9253492"><ele>1016.0</ele><time>2026-04-10T15:58:01.573Z</time></trkpt><trkpt lat="42.6497097" lon="12.9252003"><ele>1020.5</ele><time>2026-04-10T15:58:02.577Z</time></trkpt><trkpt lat="42.6496526" lon="12.9250647"><ele>1025.0</ele><time>2026-04-10T15:58:03.571Z</time></trkpt><trkpt lat="42.6495959" lon="12.9249444"><ele>1030.2</ele><time>2026-04-10T15:58:04.573Z</time></trkpt><trkpt lat="42.6495355" lon="12.9248388"><ele>1035.4</ele><time>2026-04-10T15:58:05.569Z</time></trkpt><trkpt lat="42.6494827" lon="12.9247312"><ele>1040.6</ele><time>2026-04-10T15:58:06.575Z</time></trkpt><trkpt lat="42.6494438" lon="12.9246166"><ele>1045.8</ele><time>2026-04-10T15:58:07.571Z</time></trkpt><trkpt lat="42.6494204" lon="12.9244913"><ele>1051.0</ele><time>2026-04-10T15:58:08.574Z</time></trkpt><trkpt lat="42.6494073" lon="12.9243679"><ele>1044.6</ele><time>2026-04-10T15:58:09.58Z</time></trkpt><trkpt lat="42.6493922" lon="12.9242425"><ele>1038.1999999999998</ele><time>2026-04-10T15:58:10.572Z</time></trkpt><trkpt lat="42.6493689" lon="12.924116"><ele>1031.8000000000002</ele><time>2026-04-10T15:58:11.584Z</time></trkpt><trkpt lat="42.6493492" lon="12.9239742"><ele>1025.4</ele><time>2026-04-10T15:58:12.577Z</time></trkpt><trkpt lat="42.6493389" lon="12.9238122"><ele>1019.0</ele><time>2026-04-10T15:58:13.582Z</time></trkpt><trkpt lat="42.6493424" lon="12.9236447"><ele>1019.0</ele><time>2026-04-10T15:58:14.575Z</time></trkpt><trkpt lat="42.6493652" lon="12.9234811"><ele>1019.0</ele><time>2026-04-10T15:58:15.569Z</time></trkpt><trkpt lat="42.6493912" lon="12.9233131"><ele>1019.0</ele><time>2026-04-10T15:58:16.572Z</time></trkpt><trkpt lat="42.6494297" lon="12.9231399"><ele>1019.0</ele><time>2026-04-10T15:58:17.564Z</time></trkpt><trkpt lat="42.6494697" lon="12.9229689"><ele>1031.4</ele><time>2026-04-10T15:58:18.563Z</time></trkpt><trkpt lat="42.6495112" lon="12.9228217"><ele>1043.8000000000002</ele><time>2026-04-10T15:58:19.56Z</time></trkpt><trkpt lat="42.6495597" lon="12.9226803"><ele>1056.1999999999998</ele><time>2026-04-10T15:58:20.554Z</time></trkpt><trkpt lat="42.649621" lon="12.9225697"><ele>1068.6</ele><time>2026-04-10T15:58:21.554Z</time></trkpt><trkpt lat="42.6496913" lon="12.9224865"><ele>1081.0</ele><time>2026-04-10T15:58:22.552Z</time></trkpt><trkpt lat="42.649756" lon="12.9224291"><ele>1081.2</ele><time>2026-04-10T15:58:23.552Z</time></trkpt><trkpt lat="42.6498138" lon="12.9223356"><ele>1081.3999999999999</ele><time>2026-04-10T15:58:25.554Z</time></trkpt><trkpt lat="42.6497675" lon="12.9222517"><ele>1081.6</ele><time>2026-04-10T15:58:27.556Z</time></trkpt><trkpt lat="42.6497142" lon="12.9222042"><ele>1081.8</ele><time>2026-04-10T15:58:28.554Z</time></trkpt><trkpt lat="42.6496077" lon="12.9221487"><ele>1082.0</ele><time>2026-04-10T15:58:29.558Z</time></trkpt><trkpt lat="42.6494769" lon="12.9221109"><ele>1072.25</ele><time>2026-04-10T15:58:30.55Z</time></trkpt><trkpt lat="42.6493695" lon="12.9220919"><ele>1062.5</ele><time>2026-04-10T15:58:31.558Z</time></trkpt><trkpt lat="42.6492291" lon="12.9221033"><ele>1052.75</ele><time>2026-04-10T15:58:32.557Z</time></trkpt><trkpt lat="42.6490684" lon="12.922138"><ele>1043.0</ele><time>2026-04-10T15:58:33.555Z</time></trkpt><trkpt lat="42.6489009" lon="12.9221315"><ele>1043.0</ele><time>2026-04-10T15:58:34.559Z</time></trkpt><trkpt lat="42.6487585" lon="12.9221001"><ele>1043.0</ele><time>2026-04-10T15:58:35.552Z</time></trkpt><trkpt lat="42.648622" lon="12.9220649"><ele>1043.0</ele><time>2026-04-10T15:58:36.557Z</time></trkpt><trkpt lat="42.6485201" lon="12.9220122"><ele>1043.0</ele><time>2026-04-10T15:58:37.554Z</time></trkpt><trkpt lat="42.6484351" lon="12.9219436"><ele>1045.25</ele><time>2026-04-10T15:58:38.55Z</time></trkpt><trkpt lat="42.6483527" lon="12.9218557"><ele>1047.5</ele><time>2026-04-10T15:58:39.551Z</time></trkpt><trkpt lat="42.6482777" lon="12.9217449"><ele>1049.75</ele><time>2026-04-10T15:58:40.565Z</time></trkpt><trkpt lat="42.6481898" lon="12.9216179"><ele>1052.0</ele><time>2026-04-10T15:58:41.563Z</time></trkpt><trkpt lat="42.6481173" lon="12.921463"><ele>1052.0</ele><time>2026-04-10T15:58:42.568Z</time></trkpt><trkpt lat="42.6480677" lon="12.9212963"><ele>1052.0</ele><time>2026-04-10T15:58:43.577Z</time></trkpt><trkpt lat="42.648039" lon="12.9211311"><ele>1052.0</ele><time>2026-04-10T15:58:44.577Z</time></trkpt><trkpt lat="42.6480287" lon="12.9209729"><ele>1052.0</ele><time>2026-04-10T15:58:45.575Z</time></trkpt><trkpt lat="42.6480385" lon="12.920822"><ele>1057.5</ele><time>2026-04-10T15:58:46.575Z</time></trkpt><trkpt lat="42.6480584" lon="12.9206753"><ele>1063.0</ele><time>2026-04-10T15:58:47.582Z</time></trkpt><trkpt lat="42.6480643" lon="12.9205245"><ele>1068.5</ele><time>2026-04-10T15:58:48.57Z</time></trkpt><trkpt lat="42.6480647" lon="12.9203682"><ele>1074.0</ele><time>2026-04-10T15:58:49.58Z</time></trkpt><trkpt lat="42.6480607" lon="12.9202037"><ele>1076.4</ele><time>2026-04-10T15:58:50.566Z</time></trkpt><trkpt lat="42.6480486" lon="12.9200525"><ele>1078.8000000000002</ele><time>2026-04-10T15:58:51.567Z</time></trkpt><trkpt lat="42.6480306" lon="12.9199249"><ele>1081.1999999999998</ele><time>2026-04-10T15:58:52.558Z</time></trkpt><trkpt lat="42.648001" lon="12.9198098"><ele>1083.6</ele><time>2026-04-10T15:58:53.562Z</time></trkpt><trkpt lat="42.6478899" lon="12.9197711"><ele>1086.0</ele><time>2026-04-10T15:58:55.567Z</time></trkpt><trkpt lat="42.6478142" lon="12.9197648"><ele>1081.6</ele><time>2026-04-10T15:58:56.569Z</time></trkpt><trkpt lat="42.6477205" lon="12.9197278"><ele>1077.1999999999998</ele><time>2026-04-10T15:58:57.576Z</time></trkpt><trkpt lat="42.6476136" lon="12.9197045"><ele>1072.8000000000002</ele><time>2026-04-10T15:58:58.573Z</time></trkpt><trkpt lat="42.647494" lon="12.9196995"><ele>1068.4</ele><time>2026-04-10T15:58:59.569Z</time></trkpt><trkpt lat="42.6473826" lon="12.9197017"><ele>1064.0</ele><time>2026-04-10T15:59:00.566Z</time></trkpt><trkpt lat="42.6472686" lon="12.9197361"><ele>1064.0</ele><time>2026-04-10T15:59:01.566Z</time></trkpt><trkpt lat="42.6471621" lon="12.9197665"><ele>1064.0</ele><time>2026-04-10T15:59:02.571Z</time></trkpt><trkpt lat="42.6470535" lon="12.9197976"><ele>1064.0</ele><time>2026-04-10T15:59:03.576Z</time></trkpt><trkpt lat="42.6469663" lon="12.9197861"><ele>1064.0</ele><time>2026-04-10T15:59:04.57Z</time></trkpt><trkpt lat="42.6468977" lon="12.9197321"><ele>1064.0</ele><time>2026-04-10T15:59:05.568Z</time></trkpt><trkpt lat="42.6468308" lon="12.9196821"><ele>1062.3333333333335</ele><time>2026-04-10T15:59:06.569Z</time></trkpt><trkpt lat="42.6467933" lon="12.9195997"><ele>1060.6666666666667</ele><time>2026-04-10T15:59:07.571Z</time></trkpt><trkpt lat="42.6467596" lon="12.919498"><ele>1059.0</ele><time>2026-04-10T15:59:08.576Z</time></trkpt><trkpt lat="42.646747" lon="12.9193772"><ele>1057.3333333333333</ele><time>2026-04-10T15:59:09.58Z</time></trkpt><trkpt lat="42.6467446" lon="12.9192693"><ele>1055.6666666666665</ele><time>2026-04-10T15:59:10.573Z</time></trkpt><trkpt lat="42.6467304" lon="12.9191702"><ele>1054.0</ele><time>2026-04-10T15:59:11.58Z</time></trkpt><trkpt lat="42.6466927" lon="12.9190713"><ele>1058.4</ele><time>2026-04-10T15:59:12.565Z</time></trkpt><trkpt lat="42.6466464" lon="12.9189851"><ele>1062.8000000000002</ele><time>2026-04-10T15:59:13.572Z</time></trkpt><trkpt lat="42.6466336" lon="12.9188464"><ele>1067.1999999999998</ele><time>2026-04-10T15:59:15.582Z</time></trkpt><trkpt lat="42.6467071" lon="12.9187524"><ele>1071.6</ele><time>2026-04-10T15:59:17.59Z</time></trkpt><trkpt lat="42.646796" lon="12.9186938"><ele>1076.0</ele><time>2026-04-10T15:59:19.593Z</time></trkpt><trkpt lat="42.64691" lon="12.9187027"><ele>1078.4285714285716</ele><time>2026-04-10T15:59:21.58Z</time></trkpt><trkpt lat="42.6469786" lon="12.9187317"><ele>1080.857142857143</ele><time>2026-04-10T15:59:22.581Z</time></trkpt><trkpt lat="42.6470513" lon="12.9187653"><ele>1083.2857142857142</ele><time>2026-04-10T15:59:23.586Z</time></trkpt><trkpt lat="42.6471233" lon="12.9187883"><ele>1085.7142857142858</ele><time>2026-04-10T15:59:24.59Z</time></trkpt><trkpt lat="42.6471954" lon="12.9188182"><ele>1088.142857142857</ele><time>2026-04-10T15:59:25.583Z</time></trkpt><trkpt lat="42.6472628" lon="12.9188468"><ele>1090.5714285714287</ele><time>2026-04-10T15:59:26.594Z</time></trkpt><trkpt lat="42.6473273" lon="12.9188924"><ele>1093.0</ele><time>2026-04-10T15:59:27.583Z</time></trkpt><trkpt lat="42.647409" lon="12.9189596"><ele>1093.0</ele><time>2026-04-10T15:59:29.587Z</time></trkpt><trkpt lat="42.6475122" lon="12.9189184"><ele>1093.0</ele><time>2026-04-10T15:59:31.589Z</time></trkpt><trkpt lat="42.6475757" lon="12.9187969"><ele>1093.0</ele><time>2026-04-10T15:59:33.588Z</time></trkpt><trkpt lat="42.6476062" lon="12.9187175"><ele>1093.0</ele><time>2026-04-10T15:59:35.595Z</time></trkpt><trkpt lat="42.6476414" lon="12.9186229"><ele>1093.0</ele><time>2026-04-10T15:59:37.599Z</time></trkpt><trkpt lat="42.6477089" lon="12.9185712"><ele>1093.0</ele><time>2026-04-10T15:59:39.598Z</time></trkpt><trkpt lat="42.6477832" lon="12.9185134"><ele>1094.6666666666665</ele><time>2026-04-10T15:59:41.594Z</time></trkpt><trkpt lat="42.6478627" lon="12.9184452"><ele>1096.3333333333333</ele><time>2026-04-10T15:59:43.575Z</time></trkpt><trkpt lat="42.647986" lon="12.918391"><ele>1098.0</ele><time>2026-04-10T15:59:45.572Z</time></trkpt><trkpt lat="42.6480604" lon="12.9183738"><ele>1099.6666666666667</ele><time>2026-04-10T15:59:46.57Z</time></trkpt><trkpt lat="42.6481245" lon="12.9183628"><ele>1101.3333333333335</ele><time>2026-04-10T15:59:47.574Z</time></trkpt><trkpt lat="42.6481898" lon="12.9183467"><ele>1103.0</ele><time>2026-04-10T15:59:48.573Z</time></trkpt><trkpt lat="42.6482564" lon="12.9183144"><ele>1104.1666666666667</ele><time>2026-04-10T15:59:49.571Z</time></trkpt><trkpt lat="42.6483296" lon="12.9182793"><ele>1105.3333333333335</ele><time>2026-04-10T15:59:50.568Z</time></trkpt><trkpt lat="42.6484549" lon="12.9182323"><ele>1106.5</ele><time>2026-04-10T15:59:52.569Z</time></trkpt><trkpt lat="42.6485157" lon="12.918204"><ele>1107.6666666666667</ele><time>2026-04-10T15:59:53.573Z</time></trkpt><trkpt lat="42.6485949" lon="12.9181754"><ele>1108.8333333333333</ele><time>2026-04-10T15:59:54.568Z</time></trkpt><trkpt lat="42.6486696" lon="12.9181491"><ele>1110.0</ele><time>2026-04-10T15:59:55.57Z</time></trkpt><trkpt lat="42.6487361" lon="12.9181218"><ele>1116.1666666666667</ele><time>2026-04-10T15:59:56.54Z</time></trkpt><trkpt lat="42.648807" lon="12.9180957"><ele>1122.3333333333333</ele><time>2026-04-10T15:59:57.525Z</time></trkpt><trkpt lat="42.6488786" lon="12.9180534"><ele>1128.5</ele><time>2026-04-10T15:59:58.538Z</time></trkpt><trkpt lat="42.6489496" lon="12.9180052"><ele>1134.6666666666665</ele><time>2026-04-10T15:59:59.536Z</time></trkpt><trkpt lat="42.649028" lon="12.9179463"><ele>1140.8333333333333</ele><time>2026-04-10T16:00:00.529Z</time></trkpt><trkpt lat="42.6491061" lon="12.9178769"><ele>1147.0</ele><time>2026-04-10T16:00:01.523Z</time></trkpt><trkpt lat="42.6491765" lon="12.917808"><ele>1147.0</ele><time>2026-04-10T16:00:02.523Z</time></trkpt><trkpt lat="42.6492538" lon="12.9177315"><ele>1147.0</ele><time>2026-04-10T16:00:03.524Z</time></trkpt><trkpt lat="42.6493519" lon="12.9176737"><ele>1147.0</ele><time>2026-04-10T16:00:04.524Z</time></trkpt><trkpt lat="42.6494496" lon="12.9176219"><ele>1147.0</ele><time>2026-04-10T16:00:05.518Z</time></trkpt><trkpt lat="42.6495598" lon="12.9175649"><ele>1147.0</ele><time>2026-04-10T16:00:06.514Z</time></trkpt><trkpt lat="42.6496667" lon="12.917481"><ele>1150.5</ele><time>2026-04-10T16:00:07.52Z</time></trkpt><trkpt lat="42.6497634" lon="12.9173972"><ele>1154.0</ele><time>2026-04-10T16:00:08.525Z</time></trkpt><trkpt lat="42.6498701" lon="12.9173151"><ele>1157.5</ele><time>2026-04-10T16:00:09.521Z</time></trkpt><trkpt lat="42.6499781" lon="12.9172428"><ele>1161.0</ele><time>2026-04-10T16:00:10.522Z</time></trkpt><trkpt lat="42.6500878" lon="12.9171765"><ele>1161.0</ele><time>2026-04-10T16:00:11.52Z</time></trkpt><trkpt lat="42.6501922" lon="12.9171096"><ele>1161.0</ele><time>2026-04-10T16:00:12.515Z</time></trkpt><trkpt lat="42.6503038" lon="12.9170424"><ele>1161.0</ele><time>2026-04-10T16:00:13.504Z</time></trkpt><trkpt lat="42.6504173" lon="12.9169833"><ele>1161.0</ele><time>2026-04-10T16:00:14.512Z</time></trkpt><trkpt lat="42.6505353" lon="12.9169302"><ele>1162.0</ele><time>2026-04-10T16:00:15.516Z</time></trkpt><trkpt lat="42.6506463" lon="12.9168697"><ele>1163.0</ele><time>2026-04-10T16:00:16.509Z</time></trkpt><trkpt lat="42.6507427" lon="12.9167861"><ele>1164.0</ele><time>2026-04-10T16:00:17.506Z</time></trkpt><trkpt lat="42.6508447" lon="12.9166991"><ele>1165.0</ele><time>2026-04-10T16:00:18.51Z</time></trkpt><trkpt lat="42.6509276" lon="12.9166178"><ele>1165.0</ele><time>2026-04-10T16:00:19.508Z</time></trkpt><trkpt lat="42.6510028" lon="12.916557"><ele>1165.0</ele><time>2026-04-10T16:00:20.507Z</time></trkpt><trkpt lat="42.6510668" lon="12.9165326"><ele>1165.0</ele><time>2026-04-10T16:00:21.52Z</time></trkpt><trkpt lat="42.651132" lon="12.91649"><ele>1165.0</ele><time>2026-04-10T16:00:22.513Z</time></trkpt><trkpt lat="42.6511939" lon="12.9164219"><ele>1165.0</ele><time>2026-04-10T16:00:23.521Z</time></trkpt><trkpt lat="42.6512566" lon="12.9163309"><ele>1165.0</ele><time>2026-04-10T16:00:24.515Z</time></trkpt><trkpt lat="42.6513231" lon="12.9162253"><ele>1167.6</ele><time>2026-04-10T16:00:25.521Z</time></trkpt><trkpt lat="42.6513982" lon="12.9161271"><ele>1170.2</ele><time>2026-04-10T16:00:26.53Z</time></trkpt><trkpt lat="42.6514818" lon="12.9160286"><ele>1172.8</ele><time>2026-04-10T16:00:27.524Z</time></trkpt><trkpt lat="42.6515651" lon="12.9159235"><ele>1175.4</ele><time>2026-04-10T16:00:28.529Z</time></trkpt><trkpt lat="42.6516407" lon="12.9158143"><ele>1178.0</ele><time>2026-04-10T16:00:29.522Z</time></trkpt><trkpt lat="42.6516988" lon="12.9156891"><ele>1178.0</ele><time>2026-04-10T16:00:30.523Z</time></trkpt><trkpt lat="42.6517536" lon="12.9155692"><ele>1178.0</ele><time>2026-04-10T16:00:31.528Z</time></trkpt><trkpt lat="42.6518174" lon="12.9154767"><ele>1178.0</ele><time>2026-04-10T16:00:32.523Z</time></trkpt><trkpt lat="42.6518923" lon="12.9153985"><ele>1178.0</ele><time>2026-04-10T16:00:33.527Z</time></trkpt><trkpt lat="42.6519744" lon="12.9152991"><ele>1178.0</ele><time>2026-04-10T16:00:34.522Z</time></trkpt><trkpt lat="42.6520556" lon="12.9151898"><ele>1182.25</ele><time>2026-04-10T16:00:35.52Z</time></trkpt><trkpt lat="42.6521414" lon="12.9150832"><ele>1186.5</ele><time>2026-04-10T16:00:36.52Z</time></trkpt><trkpt lat="42.6522403" lon="12.9149712"><ele>1190.75</ele><time>2026-04-10T16:00:37.518Z</time></trkpt><trkpt lat="42.6523261" lon="12.9148628"><ele>1195.0</ele><time>2026-04-10T16:00:38.521Z</time></trkpt><trkpt lat="42.6523973" lon="12.9147519"><ele>1195.0</ele><time>2026-04-10T16:00:39.515Z</time></trkpt><trkpt lat="42.6524393" lon="12.9146541"><ele>1195.0</ele><time>2026-04-10T16:00:40.521Z</time></trkpt><trkpt lat="42.6524873" lon="12.9145702"><ele>1195.0</ele><time>2026-04-10T16:00:41.523Z</time></trkpt><trkpt lat="42.6525521" lon="12.9144975"><ele>1195.0</ele><time>2026-04-10T16:00:42.522Z</time></trkpt><trkpt lat="42.6526302" lon="12.9144325"><ele>1195.0</ele><time>2026-04-10T16:00:43.522Z</time></trkpt><trkpt lat="42.6527097" lon="12.9143745"><ele>1195.0</ele><time>2026-04-10T16:00:44.519Z</time></trkpt><trkpt lat="42.6527818" lon="12.9143106"><ele>1199.6</ele><time>2026-04-10T16:00:45.524Z</time></trkpt><trkpt lat="42.6528449" lon="12.9142194"><ele>1204.2</ele><time>2026-04-10T16:00:46.523Z</time></trkpt><trkpt lat="42.6529009" lon="12.9140965"><ele>1208.8</ele><time>2026-04-10T16:00:47.52Z</time></trkpt><trkpt lat="42.652946" lon="12.9139662"><ele>1213.4</ele><time>2026-04-10T16:00:48.525Z</time></trkpt><trkpt lat="42.6529934" lon="12.9138496"><ele>1218.0</ele><time>2026-04-10T16:00:49.525Z</time></trkpt><trkpt lat="42.6530494" lon="12.9137458"><ele>1218.0</ele><time>2026-04-10T16:00:50.52Z</time></trkpt><trkpt lat="42.6531103" lon="12.913651"><ele>1218.0</ele><time>2026-04-10T16:00:51.525Z</time></trkpt><trkpt lat="42.6531738" lon="12.9135695"><ele>1218.0</ele><time>2026-04-10T16:00:52.535Z</time></trkpt><trkpt lat="42.653226" lon="12.9134916"><ele>1218.0</ele><time>2026-04-10T16:00:53.522Z</time></trkpt><trkpt lat="42.6532692" lon="12.9134045"><ele>1218.0</ele><time>2026-04-10T16:00:54.521Z</time></trkpt><trkpt lat="42.6533083" lon="12.9133113"><ele>1218.0</ele><time>2026-04-10T16:00:55.525Z</time></trkpt><trkpt lat="42.6533503" lon="12.9132184"><ele>1219.142857142857</ele><time>2026-04-10T16:00:56.526Z</time></trkpt><trkpt lat="42.6533982" lon="12.9131373"><ele>1220.2857142857142</ele><time>2026-04-10T16:00:57.523Z</time></trkpt><trkpt lat="42.6534503" lon="12.9130596"><ele>1221.4285714285716</ele><time>2026-04-10T16:00:58.525Z</time></trkpt><trkpt lat="42.6535026" lon="12.9129907"><ele>1222.5714285714284</ele><time>2026-04-10T16:00:59.526Z</time></trkpt><trkpt lat="42.6535535" lon="12.9129206"><ele>1223.7142857142858</ele><time>2026-04-10T16:01:00.527Z</time></trkpt><trkpt lat="42.6535912" lon="12.9128511"><ele>1224.857142857143</ele><time>2026-04-10T16:01:01.53Z</time></trkpt><trkpt lat="42.6536182" lon="12.9127677"><ele>1226.0</ele><time>2026-04-10T16:01:02.524Z</time></trkpt><trkpt lat="42.653639" lon="12.9126707"><ele>1226.0</ele><time>2026-04-10T16:01:03.524Z</time></trkpt><trkpt lat="42.6536657" lon="12.912575"><ele>1226.0</ele><time>2026-04-10T16:01:04.521Z</time></trkpt><trkpt lat="42.6536961" lon="12.9124727"><ele>1226.0</ele><time>2026-04-10T16:01:05.518Z</time></trkpt><trkpt lat="42.6537488" lon="12.9123862"><ele>1226.0</ele><time>2026-04-10T16:01:06.519Z</time></trkpt><trkpt lat="42.6538138" lon="12.9123011"><ele>1226.0</ele><time>2026-04-10T16:01:07.527Z</time></trkpt><trkpt lat="42.6538863" lon="12.9122263"><ele>1226.0</ele><time>2026-04-10T16:01:08.522Z</time></trkpt><trkpt lat="42.6539533" lon="12.9121505"><ele>1225.8</ele><time>2026-04-10T16:01:09.524Z</time></trkpt><trkpt lat="42.6540405" lon="12.9120889"><ele>1225.6</ele><time>2026-04-10T16:01:10.524Z</time></trkpt><trkpt lat="42.654138" lon="12.9120368"><ele>1225.4</ele><time>2026-04-10T16:01:11.522Z</time></trkpt><trkpt lat="42.654228" lon="12.9119789"><ele>1225.2</ele><time>2026-04-10T16:01:12.52Z</time></trkpt><trkpt lat="42.6542928" lon="12.9119116"><ele>1225.0</ele><time>2026-04-10T16:01:13.518Z</time></trkpt><trkpt lat="42.6543255" lon="12.9118249"><ele>1226.5</ele><time>2026-04-10T16:01:14.523Z</time></trkpt><trkpt lat="42.654341" lon="12.9117223"><ele>1228.0</ele><time>2026-04-10T16:01:15.52Z</time></trkpt><trkpt lat="42.6543646" lon="12.9116281"><ele>1229.5</ele><time>2026-04-10T16:01:16.521Z</time></trkpt><trkpt lat="42.6544039" lon="12.9115547"><ele>1231.0</ele><time>2026-04-10T16:01:17.517Z</time></trkpt><trkpt lat="42.654457" lon="12.9114828"><ele>1232.5</ele><time>2026-04-10T16:01:18.523Z</time></trkpt><trkpt lat="42.6545149" lon="12.9114052"><ele>1234.0</ele><time>2026-04-10T16:01:19.525Z</time></trkpt><trkpt lat="42.6545728" lon="12.9113292"><ele>1236.0</ele><time>2026-04-10T16:01:20.523Z</time></trkpt><trkpt lat="42.654636" lon="12.911264"><ele>1238.0</ele><time>2026-04-10T16:01:21.527Z</time></trkpt><trkpt lat="42.6547081" lon="12.9112378"><ele>1240.0</ele><time>2026-04-10T16:01:22.519Z</time></trkpt><trkpt lat="42.654778" lon="12.9112423"><ele>1242.0</ele><time>2026-04-10T16:01:23.523Z</time></trkpt><trkpt lat="42.6548491" lon="12.9112509"><ele>1244.0</ele><time>2026-04-10T16:01:24.524Z</time></trkpt><trkpt lat="42.6549268" lon="12.9112334"><ele>1246.0</ele><time>2026-04-10T16:01:25.516Z</time></trkpt><trkpt lat="42.655013" lon="12.9111895"><ele>1246.0</ele><time>2026-04-10T16:01:26.52Z</time></trkpt><trkpt lat="42.6551019" lon="12.9111273"><ele>1246.0</ele><time>2026-04-10T16:01:27.525Z</time></trkpt><trkpt lat="42.6551952" lon="12.9110639"><ele>1246.0</ele><time>2026-04-10T16:01:28.531Z</time></trkpt><trkpt lat="42.655288" lon="12.9110129"><ele>1246.0</ele><time>2026-04-10T16:01:29.523Z</time></trkpt><trkpt lat="42.65538" lon="12.9109753"><ele>1246.0</ele><time>2026-04-10T16:01:30.525Z</time></trkpt><trkpt lat="42.6554562" lon="12.9109496"><ele>1249.6666666666665</ele><time>2026-04-10T16:01:31.526Z</time></trkpt><trkpt lat="42.6555303" lon="12.9109484"><ele>1253.3333333333333</ele><time>2026-04-10T16:01:32.516Z</time></trkpt><trkpt lat="42.6556117" lon="12.9109686"><ele>1257.0</ele><time>2026-04-10T16:01:33.522Z</time></trkpt><trkpt lat="42.6556818" lon="12.9110086"><ele>1260.6666666666667</ele><time>2026-04-10T16:01:34.527Z</time></trkpt><trkpt lat="42.655733" lon="12.9110748"><ele>1264.3333333333335</ele><time>2026-04-10T16:01:35.52Z</time></trkpt><trkpt lat="42.6557565" lon="12.911164"><ele>1268.0</ele><time>2026-04-10T16:01:36.527Z</time></trkpt><trkpt lat="42.6557526" lon="12.9112753"><ele>1268.0</ele><time>2026-04-10T16:01:37.525Z</time></trkpt><trkpt lat="42.6557227" lon="12.9113994"><ele>1268.0</ele><time>2026-04-10T16:01:38.526Z</time></trkpt><trkpt lat="42.6556768" lon="12.9115266"><ele>1268.0</ele><time>2026-04-10T16:01:39.532Z</time></trkpt><trkpt lat="42.6556235" lon="12.9116484"><ele>1268.0</ele><time>2026-04-10T16:01:40.535Z</time></trkpt><trkpt lat="42.6555855" lon="12.9117763"><ele>1268.0</ele><time>2026-04-10T16:01:41.531Z</time></trkpt><trkpt lat="42.6555669" lon="12.9119091"><ele>1269.0</ele><time>2026-04-10T16:01:42.526Z</time></trkpt><trkpt lat="42.6555683" lon="12.912055"><ele>1270.0</ele><time>2026-04-10T16:01:43.533Z</time></trkpt><trkpt lat="42.6555792" lon="12.9122071"><ele>1271.0</ele><time>2026-04-10T16:01:44.534Z</time></trkpt><trkpt lat="42.6555859" lon="12.912349"><ele>1272.0</ele><time>2026-04-10T16:01:45.54Z</time></trkpt><trkpt lat="42.6555919" lon="12.9124814"><ele>1273.0</ele><time>2026-04-10T16:01:46.793Z</time></trkpt><trkpt lat="42.6555976" lon="12.912702"><ele>1273.6666666666665</ele><time>2026-04-10T16:01:48.596Z</time></trkpt><trkpt lat="42.6556044" lon="12.912822"><ele>1274.3333333333333</ele><time>2026-04-10T16:01:49.607Z</time></trkpt><trkpt lat="42.6556274" lon="12.9129369"><ele>1275.0</ele><time>2026-04-10T16:01:50.608Z</time></trkpt><trkpt lat="42.6556523" lon="12.9130368"><ele>1275.6666666666667</ele><time>2026-04-10T16:01:51.595Z</time></trkpt><trkpt lat="42.6556645" lon="12.9131274"><ele>1276.3333333333335</ele><time>2026-04-10T16:01:52.604Z</time></trkpt><trkpt lat="42.6556591" lon="12.9132157"><ele>1277.0</ele><time>2026-04-10T16:01:53.595Z</time></trkpt><trkpt lat="42.6556374" lon="12.9133059"><ele>1277.5</ele><time>2026-04-10T16:01:54.589Z</time></trkpt><trkpt lat="42.6556097" lon="12.913409"><ele>1278.0</ele><time>2026-04-10T16:01:55.59Z</time></trkpt><trkpt lat="42.6555895" lon="12.9135273"><ele>1278.5</ele><time>2026-04-10T16:01:56.598Z</time></trkpt><trkpt lat="42.6555768" lon="12.9136533"><ele>1279.0</ele><time>2026-04-10T16:01:57.588Z</time></trkpt><trkpt lat="42.6555667" lon="12.9137782"><ele>1279.5</ele><time>2026-04-10T16:01:58.59Z</time></trkpt><trkpt lat="42.655572" lon="12.9138962"><ele>1280.0</ele><time>2026-04-10T16:01:59.578Z</time></trkpt><trkpt lat="42.6555971" lon="12.9140019"><ele>1280.0</ele><time>2026-04-10T16:02:00.576Z</time></trkpt><trkpt lat="42.6556148" lon="12.9141142"><ele>1280.0</ele><time>2026-04-10T16:02:01.579Z</time></trkpt><trkpt lat="42.6556147" lon="12.9142392"><ele>1280.0</ele><time>2026-04-10T16:02:02.571Z</time></trkpt><trkpt lat="42.6555929" lon="12.9143734"><ele>1280.0</ele><time>2026-04-10T16:02:03.583Z</time></trkpt><trkpt lat="42.6555289" lon="12.914516"><ele>1280.0</ele><time>2026-04-10T16:02:04.593Z</time></trkpt><trkpt lat="42.6554407" lon="12.9146462"><ele>1280.75</ele><time>2026-04-10T16:02:05.584Z</time></trkpt><trkpt lat="42.6553371" lon="12.914732"><ele>1281.5</ele><time>2026-04-10T16:02:06.578Z</time></trkpt><trkpt lat="42.6552281" lon="12.9148278"><ele>1282.25</ele><time>2026-04-10T16:02:07.591Z</time></trkpt><trkpt lat="42.6551121" lon="12.9149168"><ele>1283.0</ele><time>2026-04-10T16:02:08.586Z</time></trkpt><trkpt lat="42.655011" lon="12.9150033"><ele>1279.8333333333335</ele><time>2026-04-10T16:02:09.587Z</time></trkpt><trkpt lat="42.654923" lon="12.9150506"><ele>1276.6666666666667</ele><time>2026-04-10T16:02:10.6Z</time></trkpt><trkpt lat="42.6548485" lon="12.9151037"><ele>1273.5</ele><time>2026-04-10T16:02:11.596Z</time></trkpt><trkpt lat="42.6547881" lon="12.9151708"><ele>1270.3333333333333</ele><time>2026-04-10T16:02:12.591Z</time></trkpt><trkpt lat="42.6547395" lon="12.9152723"><ele>1267.1666666666665</ele><time>2026-04-10T16:02:13.585Z</time></trkpt><trkpt lat="42.6547193" lon="12.9153895"><ele>1264.0</ele><time>2026-04-10T16:02:14.59Z</time></trkpt><trkpt lat="42.6547237" lon="12.9155091"><ele>1264.0</ele><time>2026-04-10T16:02:15.579Z</time></trkpt><trkpt lat="42.6547486" lon="12.9156168"><ele>1264.0</ele><time>2026-04-10T16:02:16.601Z</time></trkpt><trkpt lat="42.6547665" lon="12.9157248"><ele>1264.0</ele><time>2026-04-10T16:02:17.587Z</time></trkpt><trkpt lat="42.6547823" lon="12.9158208"><ele>1264.0</ele><time>2026-04-10T16:02:18.59Z</time></trkpt><trkpt lat="42.6548143" lon="12.9159609"><ele>1264.0</ele><time>2026-04-10T16:02:20.58Z</time></trkpt><trkpt lat="42.6548553" lon="12.9160435"><ele>1264.0</ele><time>2026-04-10T16:03:02.586Z</time></trkpt><trkpt lat="42.6548657" lon="12.9162049"><ele>1264.4</ele><time>2026-04-10T16:03:04.589Z</time></trkpt><trkpt lat="42.6548805" lon="12.9163338"><ele>1264.8000000000002</ele><time>2026-04-10T16:03:05.595Z</time></trkpt><trkpt lat="42.6548943" lon="12.9164698"><ele>1265.1999999999998</ele><time>2026-04-10T16:03:06.595Z</time></trkpt><trkpt lat="42.6549143" lon="12.9166222"><ele>1265.6</ele><time>2026-04-10T16:03:07.587Z</time></trkpt><trkpt lat="42.6549145" lon="12.916769"><ele>1266.0</ele><time>2026-04-10T16:03:08.591Z</time></trkpt><trkpt lat="42.6548994" lon="12.9169025"><ele>1267.1666666666667</ele><time>2026-04-10T16:03:09.588Z</time></trkpt><trkpt lat="42.6548623" lon="12.9170075"><ele>1268.3333333333333</ele><time>2026-04-10T16:03:10.592Z</time></trkpt><trkpt lat="42.6548011" lon="12.9170986"><ele>1269.5</ele><time>2026-04-10T16:03:11.586Z</time></trkpt><trkpt lat="42.6547313" lon="12.9171874"><ele>1270.6666666666665</ele><time>2026-04-10T16:03:12.597Z</time></trkpt><trkpt lat="42.6546713" lon="12.9172625"><ele>1271.8333333333333</ele><time>2026-04-10T16:03:13.585Z</time></trkpt><trkpt lat="42.654623" lon="12.9173367"><ele>1273.0</ele><time>2026-04-10T16:03:14.583Z</time></trkpt><trkpt lat="42.6546056" lon="12.9175029"><ele>1272.5</ele><time>2026-04-10T16:03:16.594Z</time></trkpt><trkpt lat="42.6546439" lon="12.9175854"><ele>1272.0</ele><time>2026-04-10T16:03:17.61Z</time></trkpt><trkpt lat="42.6547015" lon="12.9176753"><ele>1271.5</ele><time>2026-04-10T16:03:18.627Z</time></trkpt><trkpt lat="42.6547734" lon="12.9177535"><ele>1271.0</ele><time>2026-04-10T16:03:19.618Z</time></trkpt><trkpt lat="42.6548428" lon="12.9178357"><ele>1270.5</ele><time>2026-04-10T16:03:20.612Z</time></trkpt><trkpt lat="42.6549185" lon="12.9179243"><ele>1270.0</ele><time>2026-04-10T16:03:21.601Z</time></trkpt><trkpt lat="42.6549921" lon="12.9180219"><ele>1270.0</ele><time>2026-04-10T16:03:22.6Z</time></trkpt><trkpt lat="42.6550717" lon="12.9181303"><ele>1270.0</ele><time>2026-04-10T16:03:23.593Z</time></trkpt><trkpt lat="42.6551411" lon="12.9182468"><ele>1270.0</ele><time>2026-04-10T16:03:24.594Z</time></trkpt><trkpt lat="42.6552117" lon="12.9183415"><ele>1270.0</ele><time>2026-04-10T16:03:25.596Z</time></trkpt><trkpt lat="42.65528" lon="12.9184483"><ele>1270.0</ele><time>2026-04-10T16:03:26.598Z</time></trkpt><trkpt lat="42.6553473" lon="12.9185598"><ele>1275.8</ele><time>2026-04-10T16:03:27.586Z</time></trkpt><trkpt lat="42.6554135" lon="12.9186772"><ele>1281.6</ele><time>2026-04-10T16:03:28.598Z</time></trkpt><trkpt lat="42.6554615" lon="12.9188092"><ele>1287.4</ele><time>2026-04-10T16:03:29.596Z</time></trkpt><trkpt lat="42.6554982" lon="12.918946"><ele>1293.2</ele><time>2026-04-10T16:03:30.591Z</time></trkpt><trkpt lat="42.6555217" lon="12.9190819"><ele>1299.0</ele><time>2026-04-10T16:03:31.603Z</time></trkpt><trkpt lat="42.6555565" lon="12.9192215"><ele>1299.0</ele><time>2026-04-10T16:03:32.591Z</time></trkpt><trkpt lat="42.655608" lon="12.9193313"><ele>1299.0</ele><time>2026-04-10T16:03:33.599Z</time></trkpt><trkpt lat="42.6556765" lon="12.9194031"><ele>1299.0</ele><time>2026-04-10T16:03:34.593Z</time></trkpt><trkpt lat="42.6557384" lon="12.919438"><ele>1299.0</ele><time>2026-04-10T16:03:35.586Z</time></trkpt><trkpt lat="42.6558584" lon="12.919509"><ele>1299.0</ele><time>2026-04-10T16:03:37.587Z</time></trkpt><trkpt lat="42.6559139" lon="12.9195601"><ele>1299.0</ele><time>2026-04-10T16:03:38.589Z</time></trkpt><trkpt lat="42.6559565" lon="12.9196289"><ele>1299.0</ele><time>2026-04-10T16:03:39.593Z</time></trkpt><trkpt lat="42.6559799" lon="12.9197405"><ele>1299.0</ele><time>2026-04-10T16:03:40.594Z</time></trkpt><trkpt lat="42.6560011" lon="12.9198766"><ele>1299.0</ele><time>2026-04-10T16:03:41.592Z</time></trkpt><trkpt lat="42.6560124" lon="12.9200164"><ele>1299.0</ele><time>2026-04-10T16:03:42.596Z</time></trkpt><trkpt lat="42.6560271" lon="12.92016"><ele>1299.0</ele><time>2026-04-10T16:03:43.597Z</time></trkpt><trkpt lat="42.656042" lon="12.9202799"><ele>1298.857142857143</ele><time>2026-04-10T16:03:44.596Z</time></trkpt><trkpt lat="42.6560428" lon="12.9203729"><ele>1298.7142857142858</ele><time>2026-04-10T16:03:45.596Z</time></trkpt><trkpt lat="42.6560338" lon="12.9204672"><ele>1298.5714285714284</ele><time>2026-04-10T16:03:46.611Z</time></trkpt><trkpt lat="42.6560201" lon="12.9205666"><ele>1298.4285714285716</ele><time>2026-04-10T16:03:47.616Z</time></trkpt><trkpt lat="42.6560148" lon="12.9206689"><ele>1298.2857142857142</ele><time>2026-04-10T16:03:48.614Z</time></trkpt><trkpt lat="42.6560179" lon="12.9207704"><ele>1298.142857142857</ele><time>2026-04-10T16:03:49.622Z</time></trkpt><trkpt lat="42.6560266" lon="12.9208664"><ele>1298.0</ele><time>2026-04-10T16:03:50.616Z</time></trkpt><trkpt lat="42.6560917" lon="12.9209864"><ele>1299.4</ele><time>2026-04-10T16:03:52.608Z</time></trkpt><trkpt lat="42.6562172" lon="12.9210571"><ele>1300.8000000000002</ele><time>2026-04-10T16:03:54.595Z</time></trkpt><trkpt lat="42.6563001" lon="12.9210678"><ele>1302.2</ele><time>2026-04-10T16:03:55.594Z</time></trkpt><trkpt lat="42.6563756" lon="12.9210797"><ele>1303.6</ele><time>2026-04-10T16:03:56.595Z</time></trkpt><trkpt lat="42.656459" lon="12.9211083"><ele>1305.0</ele><time>2026-04-10T16:03:57.596Z</time></trkpt><trkpt lat="42.6565373" lon="12.9211338"><ele>1305.0</ele><time>2026-04-10T16:03:58.599Z</time></trkpt><trkpt lat="42.6566239" lon="12.9211425"><ele>1305.0</ele><time>2026-04-10T16:03:59.601Z</time></trkpt><trkpt lat="42.6567069" lon="12.9211473"><ele>1305.0</ele><time>2026-04-10T16:04:00.603Z</time></trkpt><trkpt lat="42.6567832" lon="12.9211553"><ele>1305.0</ele><time>2026-04-10T16:04:01.602Z</time></trkpt><trkpt lat="42.6568624" lon="12.9211655"><ele>1305.0</ele><time>2026-04-10T16:04:02.602Z</time></trkpt><trkpt lat="42.6569392" lon="12.9211546"><ele>1305.0</ele><time>2026-04-10T16:04:03.599Z</time></trkpt><trkpt lat="42.6570137" lon="12.9211223"><ele>1302.4</ele><time>2026-04-10T16:04:04.594Z</time></trkpt><trkpt lat="42.6570878" lon="12.921065"><ele>1299.8</ele><time>2026-04-10T16:04:05.609Z</time></trkpt><trkpt lat="42.6571685" lon="12.9209969"><ele>1297.1999999999998</ele><time>2026-04-10T16:04:06.598Z</time></trkpt><trkpt lat="42.6572602" lon="12.9209137"><ele>1294.6</ele><time>2026-04-10T16:04:07.586Z</time></trkpt><trkpt lat="42.6573502" lon="12.9208473"><ele>1292.0</ele><time>2026-04-10T16:04:08.582Z</time></trkpt><trkpt lat="42.6574419" lon="12.9207906"><ele>1292.6666666666667</ele><time>2026-04-10T16:04:09.571Z</time></trkpt><trkpt lat="42.6575268" lon="12.9207349"><ele>1293.3333333333335</ele><time>2026-04-10T16:04:10.573Z</time></trkpt><trkpt lat="42.6576079" lon="12.9206755"><ele>1294.0</ele><time>2026-04-10T16:04:11.566Z</time></trkpt><trkpt lat="42.6576713" lon="12.920618"><ele>1294.6666666666667</ele><time>2026-04-10T16:04:12.558Z</time></trkpt><trkpt lat="42.6577238" lon="12.9205664"><ele>1295.3333333333333</ele><time>2026-04-10T16:04:13.554Z</time></trkpt><trkpt lat="42.6577993" lon="12.9205224"><ele>1296.0</ele><time>2026-04-10T16:04:15.556Z</time></trkpt><trkpt lat="42.6579145" lon="12.9204941"><ele>1296.0</ele><time>2026-04-10T16:04:17.572Z</time></trkpt><trkpt lat="42.6580018" lon="12.9204683"><ele>1296.0</ele><time>2026-04-10T16:04:18.564Z</time></trkpt><trkpt lat="42.6580876" lon="12.9204582"><ele>1296.0</ele><time>2026-04-10T16:04:19.572Z</time></trkpt><trkpt lat="42.6581688" lon="12.9204461"><ele>1296.0</ele><time>2026-04-10T16:04:20.582Z</time></trkpt><trkpt lat="42.6582638" lon="12.9204429"><ele>1296.0</ele><time>2026-04-10T16:04:21.569Z</time></trkpt><trkpt lat="42.658347" lon="12.9204498"><ele>1296.0</ele><time>2026-04-10T16:04:22.575Z</time></trkpt><trkpt lat="42.658424" lon="12.920445"><ele>1296.0</ele><time>2026-04-10T16:04:23.565Z</time></trkpt><trkpt lat="42.6584978" lon="12.9204227"><ele>1296.0</ele><time>2026-04-10T16:04:24.574Z</time></trkpt><trkpt lat="42.6585691" lon="12.9203788"><ele>1296.0</ele><time>2026-04-10T16:04:25.572Z</time></trkpt><trkpt lat="42.6586549" lon="12.9203236"><ele>1296.0</ele><time>2026-04-10T16:04:26.573Z</time></trkpt><trkpt lat="42.6587434" lon="12.9202558"><ele>1296.0</ele><time>2026-04-10T16:04:27.58Z</time></trkpt><trkpt lat="42.6588494" lon="12.9202042"><ele>1300.5</ele><time>2026-04-10T16:04:28.574Z</time></trkpt><trkpt lat="42.658962" lon="12.9201462"><ele>1305.0</ele><time>2026-04-10T16:04:29.578Z</time></trkpt><trkpt lat="42.6590784" lon="12.9200818"><ele>1309.5</ele><time>2026-04-10T16:04:30.574Z</time></trkpt><trkpt lat="42.6592146" lon="12.9200035"><ele>1314.0</ele><time>2026-04-10T16:04:31.574Z</time></trkpt><trkpt lat="42.6593479" lon="12.9199727"><ele>1308.75</ele><time>2026-04-10T16:04:32.569Z</time></trkpt><trkpt lat="42.6594692" lon="12.9199412"><ele>1303.5</ele><time>2026-04-10T16:04:33.568Z</time></trkpt><trkpt lat="42.6595896" lon="12.9199002"><ele>1298.25</ele><time>2026-04-10T16:04:34.581Z</time></trkpt><trkpt lat="42.6597034" lon="12.9198679"><ele>1293.0</ele><time>2026-04-10T16:04:35.572Z</time></trkpt><trkpt lat="42.6598106" lon="12.9198435"><ele>1293.0</ele><time>2026-04-10T16:04:36.567Z</time></trkpt><trkpt lat="42.6599052" lon="12.9198025"><ele>1293.0</ele><time>2026-04-10T16:04:37.565Z</time></trkpt><trkpt lat="42.6599918" lon="12.9197662"><ele>1293.0</ele><time>2026-04-10T16:04:38.572Z</time></trkpt><trkpt lat="42.6600744" lon="12.9197264"><ele>1293.0</ele><time>2026-04-10T16:04:39.566Z</time></trkpt><trkpt lat="42.6601669" lon="12.9196767"><ele>1293.0</ele><time>2026-04-10T16:04:40.558Z</time></trkpt><trkpt lat="42.6602533" lon="12.9196017"><ele>1289.2</ele><time>2026-04-10T16:04:41.565Z</time></trkpt><trkpt lat="42.6603551" lon="12.9195114"><ele>1285.4</ele><time>2026-04-10T16:04:42.567Z</time></trkpt><trkpt lat="42.6604424" lon="12.919454"><ele>1281.6000000000001</ele><time>2026-04-10T16:04:43.559Z</time></trkpt><trkpt lat="42.6605457" lon="12.9194229"><ele>1277.8000000000002</ele><time>2026-04-10T16:04:44.562Z</time></trkpt><trkpt lat="42.6606436" lon="12.9193761"><ele>1274.0</ele><time>2026-04-10T16:04:45.562Z</time></trkpt><trkpt lat="42.6607317" lon="12.9193337"><ele>1274.0</ele><time>2026-04-10T16:04:46.566Z</time></trkpt><trkpt lat="42.6608213" lon="12.9192877"><ele>1274.0</ele><time>2026-04-10T16:04:47.562Z</time></trkpt><trkpt lat="42.6609267" lon="12.9192743"><ele>1274.0</ele><time>2026-04-10T16:04:48.56Z</time></trkpt><trkpt lat="42.6610154" lon="12.9192523"><ele>1274.0</ele><time>2026-04-10T16:04:49.56Z</time></trkpt><trkpt lat="42.6611042" lon="12.919236"><ele>1274.0</ele><time>2026-04-10T16:04:50.567Z</time></trkpt><trkpt lat="42.6611978" lon="12.9192121"><ele>1278.0</ele><time>2026-04-10T16:04:51.575Z</time></trkpt><trkpt lat="42.6612998" lon="12.9192001"><ele>1282.0</ele><time>2026-04-10T16:04:52.558Z</time></trkpt><trkpt lat="42.6614014" lon="12.9191839"><ele>1286.0</ele><time>2026-04-10T16:04:53.569Z</time></trkpt><trkpt lat="42.6615012" lon="12.9191387"><ele>1290.0</ele><time>2026-04-10T16:04:54.563Z</time></trkpt><trkpt lat="42.6616011" lon="12.91908"><ele>1294.0</ele><time>2026-04-10T16:04:55.57Z</time></trkpt><trkpt lat="42.6617052" lon="12.9190216"><ele>1294.0</ele><time>2026-04-10T16:04:56.572Z</time></trkpt><trkpt lat="42.6618021" lon="12.9189788"><ele>1294.0</ele><time>2026-04-10T16:04:57.569Z</time></trkpt><trkpt lat="42.6618975" lon="12.9189741"><ele>1294.0</ele><time>2026-04-10T16:04:58.572Z</time></trkpt><trkpt lat="42.6619943" lon="12.9190051"><ele>1294.0</ele><time>2026-04-10T16:04:59.565Z</time></trkpt><trkpt lat="42.6620834" lon="12.9190497"><ele>1294.0</ele><time>2026-04-10T16:05:00.573Z</time></trkpt><trkpt lat="42.662172" lon="12.9190978"><ele>1295.2</ele><time>2026-04-10T16:05:01.576Z</time></trkpt><trkpt lat="42.662276" lon="12.9191529"><ele>1296.4</ele><time>2026-04-10T16:05:02.576Z</time></trkpt><trkpt lat="42.6623752" lon="12.9192279"><ele>1297.6</ele><time>2026-04-10T16:05:03.576Z</time></trkpt><trkpt lat="42.6624717" lon="12.9193112"><ele>1298.8</ele><time>2026-04-10T16:05:04.579Z</time></trkpt><trkpt lat="42.6625465" lon="12.9194038"><ele>1300.0</ele><time>2026-04-10T16:05:05.576Z</time></trkpt><trkpt lat="42.6626252" lon="12.9194886"><ele>1300.0</ele><time>2026-04-10T16:05:06.584Z</time></trkpt><trkpt lat="42.6627081" lon="12.9195624"><ele>1300.0</ele><time>2026-04-10T16:05:07.579Z</time></trkpt><trkpt lat="42.6627878" lon="12.9196162"><ele>1300.0</ele><time>2026-04-10T16:05:08.585Z</time></trkpt><trkpt lat="42.6628493" lon="12.9196572"><ele>1300.0</ele><time>2026-04-10T16:05:09.585Z</time></trkpt><trkpt lat="42.6629507" lon="12.9196421"><ele>1300.0</ele><time>2026-04-10T16:05:11.573Z</time></trkpt><trkpt lat="42.6630456" lon="12.9195594"><ele>1300.3333333333333</ele><time>2026-04-10T16:05:13.566Z</time></trkpt><trkpt lat="42.663099" lon="12.9194918"><ele>1300.6666666666665</ele><time>2026-04-10T16:05:14.57Z</time></trkpt><trkpt lat="42.663153" lon="12.919407"><ele>1301.0</ele><time>2026-04-10T16:05:15.567Z</time></trkpt><trkpt lat="42.6632083" lon="12.9193326"><ele>1301.3333333333333</ele><time>2026-04-10T16:05:16.568Z</time></trkpt><trkpt lat="42.6632612" lon="12.9192146"><ele>1301.6666666666667</ele><time>2026-04-10T16:05:17.565Z</time></trkpt><trkpt lat="42.663302" lon="12.9191016"><ele>1302.0</ele><time>2026-04-10T16:05:18.56Z</time></trkpt><trkpt lat="42.6633349" lon="12.9189767"><ele>1302.1999999999998</ele><time>2026-04-10T16:05:19.56Z</time></trkpt><trkpt lat="42.6633496" lon="12.9188434"><ele>1302.4</ele><time>2026-04-10T16:05:20.56Z</time></trkpt><trkpt lat="42.6633592" lon="12.9187112"><ele>1302.6</ele><time>2026-04-10T16:05:21.552Z</time></trkpt><trkpt lat="42.6634144" lon="12.9185925"><ele>1302.8000000000002</ele><time>2026-04-10T16:05:22.561Z</time></trkpt><trkpt lat="42.6634898" lon="12.9185104"><ele>1303.0</ele><time>2026-04-10T16:05:23.559Z</time></trkpt><trkpt lat="42.6635848" lon="12.9184384"><ele>1300.5</ele><time>2026-04-10T16:05:24.566Z</time></trkpt><trkpt lat="42.663659" lon="12.9183856"><ele>1298.0</ele><time>2026-04-10T16:05:25.565Z</time></trkpt><trkpt lat="42.6637278" lon="12.9183551"><ele>1295.5</ele><time>2026-04-10T16:05:26.566Z</time></trkpt><trkpt lat="42.6637964" lon="12.9183272"><ele>1293.0</ele><time>2026-04-10T16:05:27.571Z</time></trkpt><trkpt lat="42.6638729" lon="12.9183045"><ele>1290.5</ele><time>2026-04-10T16:05:28.57Z</time></trkpt><trkpt lat="42.6639404" lon="12.9182716"><ele>1288.0</ele><time>2026-04-10T16:05:29.57Z</time></trkpt><trkpt lat="42.6640139" lon="12.9181571"><ele>1288.0</ele><time>2026-04-10T16:05:31.57Z</time></trkpt><trkpt lat="42.6640404" lon="12.9180727"><ele>1288.0</ele><time>2026-04-10T16:05:32.571Z</time></trkpt><trkpt lat="42.6640559" lon="12.9179572"><ele>1288.0</ele><time>2026-04-10T16:05:33.567Z</time></trkpt><trkpt lat="42.6640928" lon="12.9178523"><ele>1288.0</ele><time>2026-04-10T16:05:34.566Z</time></trkpt><trkpt lat="42.6641515" lon="12.9177887"><ele>1288.0</ele><time>2026-04-10T16:05:35.571Z</time></trkpt><trkpt lat="42.6642376" lon="12.9177212"><ele>1288.0</ele><time>2026-04-10T16:05:37.572Z</time></trkpt><trkpt lat="42.6643066" lon="12.9176071"><ele>1285.5</ele><time>2026-04-10T16:05:39.557Z</time></trkpt><trkpt lat="42.6643469" lon="12.9175269"><ele>1283.0</ele><time>2026-04-10T16:05:40.56Z</time></trkpt><trkpt lat="42.6643839" lon="12.9174479"><ele>1280.5</ele><time>2026-04-10T16:05:41.562Z</time></trkpt><trkpt lat="42.6644437" lon="12.917387"><ele>1278.0</ele><time>2026-04-10T16:05:42.564Z</time></trkpt><trkpt lat="42.6645275" lon="12.9173237"><ele>1275.5</ele><time>2026-04-10T16:05:43.562Z</time></trkpt><trkpt lat="42.6646155" lon="12.9172608"><ele>1273.0</ele><time>2026-04-10T16:05:44.567Z</time></trkpt><trkpt lat="42.664709" lon="12.9172148"><ele>1273.0</ele><time>2026-04-10T16:05:45.563Z</time></trkpt><trkpt lat="42.6648011" lon="12.9171639"><ele>1273.0</ele><time>2026-04-10T16:05:46.562Z</time></trkpt><trkpt lat="42.6649195" lon="12.9171111"><ele>1273.0</ele><time>2026-04-10T16:05:47.572Z</time></trkpt><trkpt lat="42.6649951" lon="12.9169996"><ele>1273.0</ele><time>2026-04-10T16:05:48.571Z</time></trkpt><trkpt lat="42.6650423" lon="12.9168872"><ele>1273.0</ele><time>2026-04-10T16:05:49.567Z</time></trkpt><trkpt lat="42.6650819" lon="12.9167785"><ele>1271.5</ele><time>2026-04-10T16:05:50.569Z</time></trkpt><trkpt lat="42.6651334" lon="12.9167007"><ele>1270.0</ele><time>2026-04-10T16:05:51.564Z</time></trkpt><trkpt lat="42.6652155" lon="12.9166524"><ele>1268.5</ele><time>2026-04-10T16:05:52.564Z</time></trkpt><trkpt lat="42.6652863" lon="12.9166158"><ele>1267.0</ele><time>2026-04-10T16:05:53.584Z</time></trkpt><trkpt lat="42.6653409" lon="12.9165628"><ele>1265.5</ele><time>2026-04-10T16:05:54.577Z</time></trkpt><trkpt lat="42.6653809" lon="12.9164713"><ele>1264.0</ele><time>2026-04-10T16:05:55.575Z</time></trkpt><trkpt lat="42.6654281" lon="12.9163477"><ele>1264.0</ele><time>2026-04-10T16:05:56.577Z</time></trkpt><trkpt lat="42.6654652" lon="12.9162119"><ele>1264.0</ele><time>2026-04-10T16:05:57.577Z</time></trkpt><trkpt lat="42.6655407" lon="12.9161016"><ele>1264.0</ele><time>2026-04-10T16:05:58.581Z</time></trkpt><trkpt lat="42.6656202" lon="12.9160149"><ele>1264.0</ele><time>2026-04-10T16:05:59.574Z</time></trkpt><trkpt lat="42.6656945" lon="12.915916"><ele>1264.0</ele><time>2026-04-10T16:06:00.577Z</time></trkpt><trkpt lat="42.6657776" lon="12.9158"><ele>1265.0</ele><time>2026-04-10T16:06:01.575Z</time></trkpt><trkpt lat="42.6658448" lon="12.9156838"><ele>1266.0</ele><time>2026-04-10T16:06:02.572Z</time></trkpt><trkpt lat="42.6659024" lon="12.9155819"><ele>1267.0</ele><time>2026-04-10T16:06:03.57Z</time></trkpt><trkpt lat="42.6659571" lon="12.9154801"><ele>1268.0</ele><time>2026-04-10T16:06:04.574Z</time></trkpt><trkpt lat="42.6659826" lon="12.9153826"><ele>1269.0</ele><time>2026-04-10T16:06:05.577Z</time></trkpt><trkpt lat="42.6659879" lon="12.915271"><ele>1269.0</ele><time>2026-04-10T16:06:06.566Z</time></trkpt><trkpt lat="42.6659778" lon="12.9151366"><ele>1269.0</ele><time>2026-04-10T16:06:07.562Z</time></trkpt><trkpt lat="42.6659771" lon="12.9149978"><ele>1269.0</ele><time>2026-04-10T16:06:08.578Z</time></trkpt><trkpt lat="42.665989" lon="12.9148572"><ele>1269.0</ele><time>2026-04-10T16:06:09.576Z</time></trkpt><trkpt lat="42.66601" lon="12.9147351"><ele>1269.0</ele><time>2026-04-10T16:06:10.578Z</time></trkpt><trkpt lat="42.6660604" lon="12.9146309"><ele>1267.3333333333333</ele><time>2026-04-10T16:06:11.586Z</time></trkpt><trkpt lat="42.6661301" lon="12.9145142"><ele>1265.6666666666667</ele><time>2026-04-10T16:06:12.579Z</time></trkpt><trkpt lat="42.6661805" lon="12.9144235"><ele>1264.0</ele><time>2026-04-10T16:06:13.585Z</time></trkpt><trkpt lat="42.666244" lon="12.9143345"><ele>1262.3333333333335</ele><time>2026-04-10T16:06:14.576Z</time></trkpt><trkpt lat="42.6663029" lon="12.9142558"><ele>1260.6666666666667</ele><time>2026-04-10T16:06:15.576Z</time></trkpt><trkpt lat="42.6663545" lon="12.9142"><ele>1259.0</ele><time>2026-04-10T16:06:16.581Z</time></trkpt><trkpt lat="42.6664455" lon="12.9140948"><ele>1259.0</ele><time>2026-04-10T16:06:18.581Z</time></trkpt><trkpt lat="42.6665595" lon="12.9140283"><ele>1259.0</ele><time>2026-04-10T16:06:20.585Z</time></trkpt><trkpt lat="42.6666432" lon="12.9139391"><ele>1259.0</ele><time>2026-04-10T16:06:22.578Z</time></trkpt><trkpt lat="42.6666761" lon="12.9138601"><ele>1259.0</ele><time>2026-04-10T16:06:23.578Z</time></trkpt><trkpt lat="42.666723" lon="12.9137722"><ele>1259.0</ele><time>2026-04-10T16:06:24.598Z</time></trkpt><trkpt lat="42.6667724" lon="12.9136795"><ele>1259.0</ele><time>2026-04-10T16:06:25.582Z</time></trkpt><trkpt lat="42.6668266" lon="12.9135809"><ele>1259.0</ele><time>2026-04-10T16:06:26.593Z</time></trkpt><trkpt lat="42.6668914" lon="12.9134596"><ele>1259.0</ele><time>2026-04-10T16:06:27.583Z</time></trkpt><trkpt lat="42.6669763" lon="12.913353"><ele>1259.0</ele><time>2026-04-10T16:06:28.586Z</time></trkpt><trkpt lat="42.667077" lon="12.9132804"><ele>1259.0</ele><time>2026-04-10T16:06:29.577Z</time></trkpt><trkpt lat="42.6671752" lon="12.9132386"><ele>1257.8</ele><time>2026-04-10T16:06:30.588Z</time></trkpt><trkpt lat="42.6672736" lon="12.9132004"><ele>1256.6000000000001</ele><time>2026-04-10T16:06:31.585Z</time></trkpt><trkpt lat="42.6673596" lon="12.9131475"><ele>1255.4</ele><time>2026-04-10T16:06:32.581Z</time></trkpt><trkpt lat="42.6674211" lon="12.9130908"><ele>1254.2</ele><time>2026-04-10T16:06:33.583Z</time></trkpt><trkpt lat="42.6674519" lon="12.9129544"><ele>1253.0</ele><time>2026-04-10T16:06:35.573Z</time></trkpt><trkpt lat="42.6674411" lon="12.9128546"><ele>1253.0</ele><time>2026-04-10T16:06:36.586Z</time></trkpt><trkpt lat="42.6674125" lon="12.9127764"><ele>1253.0</ele><time>2026-04-10T16:06:37.581Z</time></trkpt><trkpt lat="42.6673887" lon="12.9126032"><ele>1253.0</ele><time>2026-04-10T16:06:39.582Z</time></trkpt><trkpt lat="42.6673995" lon="12.9125051"><ele>1253.0</ele><time>2026-04-10T16:06:40.582Z</time></trkpt><trkpt lat="42.6674176" lon="12.9124052"><ele>1253.0</ele><time>2026-04-10T16:06:41.584Z</time></trkpt><trkpt lat="42.6674507" lon="12.9122842"><ele>1253.0</ele><time>2026-04-10T16:06:42.585Z</time></trkpt><trkpt lat="42.6674976" lon="12.9121427"><ele>1253.0</ele><time>2026-04-10T16:06:43.58Z</time></trkpt><trkpt lat="42.6675544" lon="12.9120039"><ele>1253.0</ele><time>2026-04-10T16:06:44.574Z</time></trkpt><trkpt lat="42.6676277" lon="12.9118557"><ele>1253.0</ele><time>2026-04-10T16:06:45.574Z</time></trkpt><trkpt lat="42.6677036" lon="12.911707"><ele>1253.0</ele><time>2026-04-10T16:06:46.573Z</time></trkpt><trkpt lat="42.6677787" lon="12.911541"><ele>1256.0</ele><time>2026-04-10T16:06:47.573Z</time></trkpt><trkpt lat="42.6678431" lon="12.9113658"><ele>1259.0</ele><time>2026-04-10T16:06:48.567Z</time></trkpt><trkpt lat="42.6678991" lon="12.9111646"><ele>1262.0</ele><time>2026-04-10T16:06:49.57Z</time></trkpt><trkpt lat="42.6679558" lon="12.9109636"><ele>1260.3333333333335</ele><time>2026-04-10T16:06:50.568Z</time></trkpt><trkpt lat="42.6679941" lon="12.9107206"><ele>1258.6666666666667</ele><time>2026-04-10T16:06:51.568Z</time></trkpt><trkpt lat="42.6680609" lon="12.9105004"><ele>1257.0</ele><time>2026-04-10T16:06:52.574Z</time></trkpt><trkpt lat="42.6681128" lon="12.9102625"><ele>1254.6666666666667</ele><time>2026-04-10T16:06:53.56Z</time></trkpt><trkpt lat="42.6681604" lon="12.9100105"><ele>1252.3333333333335</ele><time>2026-04-10T16:06:54.569Z</time></trkpt><trkpt lat="42.6682036" lon="12.9097867"><ele>1250.0</ele><time>2026-04-10T16:06:55.562Z</time></trkpt><trkpt lat="42.6682486" lon="12.9095925"><ele>1250.0</ele><time>2026-04-10T16:06:56.565Z</time></trkpt><trkpt lat="42.6682895" lon="12.9094086"><ele>1250.0</ele><time>2026-04-10T16:06:57.573Z</time></trkpt><trkpt lat="42.6683663" lon="12.9092389"><ele>1250.0</ele><time>2026-04-10T16:06:58.571Z</time></trkpt><trkpt lat="42.6684296" lon="12.9090761"><ele>1250.0</ele><time>2026-04-10T16:06:59.574Z</time></trkpt><trkpt lat="42.6684878" lon="12.9089074"><ele>1248.3333333333335</ele><time>2026-04-10T16:07:00.581Z</time></trkpt><trkpt lat="42.6685341" lon="12.9087367"><ele>1246.6666666666667</ele><time>2026-04-10T16:07:01.581Z</time></trkpt><trkpt lat="42.6685787" lon="12.9085089"><ele>1245.0</ele><time>2026-04-10T16:07:02.581Z</time></trkpt><trkpt lat="42.6686247" lon="12.9082916"><ele>1248.3333333333333</ele><time>2026-04-10T16:07:03.583Z</time></trkpt><trkpt lat="42.6686711" lon="12.9080772"><ele>1251.6666666666665</ele><time>2026-04-10T16:07:04.583Z</time></trkpt><trkpt lat="42.6687162" lon="12.9078783"><ele>1255.0</ele><time>2026-04-10T16:07:05.584Z</time></trkpt><trkpt lat="42.6687533" lon="12.9076751"><ele>1254.5</ele><time>2026-04-10T16:07:06.582Z</time></trkpt><trkpt lat="42.6687877" lon="12.9074863"><ele>1254.0</ele><time>2026-04-10T16:07:07.581Z</time></trkpt><trkpt lat="42.6687959" lon="12.9073025"><ele>1253.5</ele><time>2026-04-10T16:07:08.58Z</time></trkpt><trkpt lat="42.6688111" lon="12.9071264"><ele>1253.0</ele><time>2026-04-10T16:07:09.572Z</time></trkpt><trkpt lat="42.6688253" lon="12.9069236"><ele>1253.0</ele><time>2026-04-10T16:07:10.569Z</time></trkpt><trkpt lat="42.6687927" lon="12.906751"><ele>1253.0</ele><time>2026-04-10T16:07:11.568Z</time></trkpt><trkpt lat="42.6687542" lon="12.9066039"><ele>1253.0</ele><time>2026-04-10T16:07:12.567Z</time></trkpt><trkpt lat="42.6687245" lon="12.9064683"><ele>1253.0</ele><time>2026-04-10T16:07:13.575Z</time></trkpt><trkpt lat="42.6686839" lon="12.9063765"><ele>1253.0</ele><time>2026-04-10T16:07:14.577Z</time></trkpt><trkpt lat="42.668659" lon="12.906265"><ele>1252.3333333333335</ele><time>2026-04-10T16:07:15.577Z</time></trkpt><trkpt lat="42.6686411" lon="12.9060924"><ele>1251.6666666666667</ele><time>2026-04-10T16:07:17.574Z</time></trkpt><trkpt lat="42.6686235" lon="12.9059923"><ele>1251.0</ele><time>2026-04-10T16:07:18.578Z</time></trkpt><trkpt lat="42.6686063" lon="12.9058923"><ele>1250.3333333333333</ele><time>2026-04-10T16:07:19.569Z</time></trkpt><trkpt lat="42.6685926" lon="12.9057778"><ele>1249.6666666666665</ele><time>2026-04-10T16:07:20.579Z</time></trkpt><trkpt lat="42.6686053" lon="12.9056846"><ele>1249.0</ele><time>2026-04-10T16:07:21.568Z</time></trkpt><trkpt lat="42.6686541" lon="12.9055784"><ele>1248.0</ele><time>2026-04-10T16:07:23.581Z</time></trkpt><trkpt lat="42.6686816" lon="12.9054517"><ele>1247.0</ele><time>2026-04-10T16:07:44.581Z</time></trkpt><trkpt lat="42.6687544" lon="12.9052656"><ele>1246.0</ele><time>2026-04-10T16:07:46.588Z</time></trkpt><trkpt lat="42.6687888" lon="12.9051277"><ele>1245.0</ele><time>2026-04-10T16:07:47.576Z</time></trkpt><trkpt lat="42.6688159" lon="12.9049543"><ele>1242.3333333333333</ele><time>2026-04-10T16:07:48.568Z</time></trkpt><trkpt lat="42.6688509" lon="12.9047458"><ele>1239.6666666666665</ele><time>2026-04-10T16:07:49.568Z</time></trkpt><trkpt lat="42.6689103" lon="12.9045198"><ele>1237.0</ele><time>2026-04-10T16:07:50.566Z</time></trkpt><trkpt lat="42.6689971" lon="12.9042146"><ele>1235.8</ele><time>2026-04-10T16:07:51.563Z</time></trkpt><trkpt lat="42.6690372" lon="12.9039894"><ele>1234.6</ele><time>2026-04-10T16:07:52.56Z</time></trkpt><trkpt lat="42.6690763" lon="12.9038758"><ele>1233.3999999999999</ele><time>2026-04-10T16:07:53.57Z</time></trkpt><trkpt lat="42.669075" lon="12.9037502"><ele>1232.2</ele><time>2026-04-10T16:07:54.566Z</time></trkpt><trkpt lat="42.6690827" lon="12.9036242"><ele>1231.0</ele><time>2026-04-10T16:07:55.569Z</time></trkpt><trkpt lat="42.6691243" lon="12.9034848"><ele>1229.8</ele><time>2026-04-10T16:07:56.583Z</time></trkpt><trkpt lat="42.6691753" lon="12.9033587"><ele>1228.6</ele><time>2026-04-10T16:07:57.572Z</time></trkpt><trkpt lat="42.6692331" lon="12.903248"><ele>1227.4</ele><time>2026-04-10T16:07:58.577Z</time></trkpt><trkpt lat="42.6692796" lon="12.9031463"><ele>1226.2</ele><time>2026-04-10T16:07:59.559Z</time></trkpt><trkpt lat="42.6693407" lon="12.9030471"><ele>1225.0</ele><time>2026-04-10T16:08:00.562Z</time></trkpt><trkpt lat="42.6693986" lon="12.9029652"><ele>1226.0</ele><time>2026-04-10T16:08:01.558Z</time></trkpt><trkpt lat="42.669458" lon="12.9028898"><ele>1227.0</ele><time>2026-04-10T16:08:02.558Z</time></trkpt><trkpt lat="42.6695172" lon="12.902828"><ele>1228.0</ele><time>2026-04-10T16:08:03.556Z</time></trkpt><trkpt lat="42.6695858" lon="12.9027773"><ele>1229.0</ele><time>2026-04-10T16:08:04.559Z</time></trkpt><trkpt lat="42.6696718" lon="12.9027496"><ele>1230.0</ele><time>2026-04-10T16:08:05.56Z</time></trkpt><trkpt lat="42.669755" lon="12.9027435"><ele>1231.0</ele><time>2026-04-10T16:08:06.552Z</time></trkpt><trkpt lat="42.6698344" lon="12.9026984"><ele>1231.0</ele><time>2026-04-10T16:08:07.558Z</time></trkpt><trkpt lat="42.669896" lon="12.9027175"><ele>1231.0</ele><time>2026-04-10T16:08:32.584Z</time></trkpt><trkpt lat="42.6699779" lon="12.9027079"><ele>1231.0</ele><time>2026-04-10T16:08:34.576Z</time></trkpt><trkpt lat="42.6700426" lon="12.9027105"><ele>1231.0</ele><time>2026-04-10T16:08:35.568Z</time></trkpt><trkpt lat="42.6701196" lon="12.9026877"><ele>1231.0</ele><time>2026-04-10T16:08:36.571Z</time></trkpt><trkpt lat="42.6702061" lon="12.9026879"><ele>1231.0</ele><time>2026-04-10T16:08:37.572Z</time></trkpt><trkpt lat="42.6702823" lon="12.9026942"><ele>1230.3333333333333</ele><time>2026-04-10T16:08:38.574Z</time></trkpt><trkpt lat="42.6703491" lon="12.9026913"><ele>1229.6666666666665</ele><time>2026-04-10T16:08:39.58Z</time></trkpt><trkpt lat="42.6704146" lon="12.9026992"><ele>1229.0</ele><time>2026-04-10T16:08:40.58Z</time></trkpt><trkpt lat="42.670518" lon="12.9027219"><ele>1228.3333333333333</ele><time>2026-04-10T16:08:42.581Z</time></trkpt><trkpt lat="42.6706" lon="12.9027594"><ele>1227.6666666666667</ele><time>2026-04-10T16:08:44.58Z</time></trkpt><trkpt lat="42.6706657" lon="12.9028027"><ele>1227.0</ele><time>2026-04-10T16:08:46.587Z</time></trkpt><trkpt lat="42.6705912" lon="12.9027501"><ele>1227.0</ele><time>2026-04-10T16:08:53.586Z</time></trkpt><trkpt lat="42.670492" lon="12.9027214"><ele>1227.0</ele><time>2026-04-10T16:08:55.566Z</time></trkpt><trkpt lat="42.6703998" lon="12.9026982"><ele>1227.0</ele><time>2026-04-10T16:08:56.57Z</time></trkpt><trkpt lat="42.6702872" lon="12.9026909"><ele>1227.0</ele><time>2026-04-10T16:08:57.577Z</time></trkpt><trkpt lat="42.6701478" lon="12.9026846"><ele>1227.0</ele><time>2026-04-10T16:08:58.582Z</time></trkpt><trkpt lat="42.6700021" lon="12.90268"><ele>1227.8</ele><time>2026-04-10T16:08:59.567Z</time></trkpt><trkpt lat="42.6698625" lon="12.9026993"><ele>1228.6</ele><time>2026-04-10T16:09:00.57Z</time></trkpt><trkpt lat="42.6697529" lon="12.902732"><ele>1229.3999999999999</ele><time>2026-04-10T16:09:01.57Z</time></trkpt><trkpt lat="42.6696744" lon="12.9027417"><ele>1230.2</ele><time>2026-04-10T16:09:02.563Z</time></trkpt><trkpt lat="42.6695656" lon="12.9027353"><ele>1231.0</ele><time>2026-04-10T16:09:04.55Z</time></trkpt><trkpt lat="42.6696341" lon="12.9025953"><ele>1228.8</ele><time>2026-04-10T16:09:07.547Z</time></trkpt><trkpt lat="42.6696941" lon="12.9025188"><ele>1226.6</ele><time>2026-04-10T16:09:08.552Z</time></trkpt><trkpt lat="42.6697641" lon="12.9024321"><ele>1224.4</ele><time>2026-04-10T16:09:09.549Z</time></trkpt><trkpt lat="42.6698346" lon="12.902343"><ele>1222.2</ele><time>2026-04-10T16:09:10.554Z</time></trkpt><trkpt lat="42.6698954" lon="12.9022577"><ele>1220.0</ele><time>2026-04-10T16:09:11.554Z</time></trkpt><trkpt lat="42.6699636" lon="12.9021793"><ele>1220.0</ele><time>2026-04-10T16:09:12.553Z</time></trkpt><trkpt lat="42.67003" lon="12.9021111"><ele>1220.0</ele><time>2026-04-10T16:09:13.553Z</time></trkpt><trkpt lat="42.6700934" lon="12.902047"><ele>1220.0</ele><time>2026-04-10T16:09:14.553Z</time></trkpt><trkpt lat="42.6701533" lon="12.9019888"><ele>1220.0</ele><time>2026-04-10T16:09:15.558Z</time></trkpt><trkpt lat="42.6702683" lon="12.901899"><ele>1220.0</ele><time>2026-04-10T16:09:17.559Z</time></trkpt><trkpt lat="42.6703722" lon="12.901846"><ele>1218.8333333333335</ele><time>2026-04-10T16:09:19.577Z</time></trkpt><trkpt lat="42.670444" lon="12.9018078"><ele>1217.6666666666667</ele><time>2026-04-10T16:09:21.585Z</time></trkpt><trkpt lat="42.6705258" lon="12.9017396"><ele>1216.5</ele><time>2026-04-10T16:09:24.575Z</time></trkpt><trkpt lat="42.6705801" lon="12.9016199"><ele>1215.3333333333333</ele><time>2026-04-10T16:09:26.576Z</time></trkpt><trkpt lat="42.670598" lon="12.9015376"><ele>1214.1666666666665</ele><time>2026-04-10T16:09:27.568Z</time></trkpt><trkpt lat="42.6706174" lon="12.9014494"><ele>1213.0</ele><time>2026-04-10T16:09:28.573Z</time></trkpt><trkpt lat="42.670641" lon="12.9013549"><ele>1212.2</ele><time>2026-04-10T16:09:29.584Z</time></trkpt><trkpt lat="42.6706655" lon="12.9012497"><ele>1211.4</ele><time>2026-04-10T16:09:30.57Z</time></trkpt><trkpt lat="42.6706972" lon="12.9011286"><ele>1210.6000000000001</ele><time>2026-04-10T16:09:31.589Z</time></trkpt><trkpt lat="42.6707523" lon="12.9009989"><ele>1209.8</ele><time>2026-04-10T16:09:32.572Z</time></trkpt><trkpt lat="42.6708298" lon="12.9008487"><ele>1209.0</ele><time>2026-04-10T16:09:33.57Z</time></trkpt><trkpt lat="42.6709139" lon="12.9007027"><ele>1208.4</ele><time>2026-04-10T16:09:34.574Z</time></trkpt><trkpt lat="42.6709954" lon="12.9005704"><ele>1207.8000000000002</ele><time>2026-04-10T16:09:35.557Z</time></trkpt><trkpt lat="42.6710699" lon="12.9004627"><ele>1207.1999999999998</ele><time>2026-04-10T16:09:36.557Z</time></trkpt><trkpt lat="42.671138" lon="12.9003661"><ele>1206.6</ele><time>2026-04-10T16:09:37.55Z</time></trkpt><trkpt lat="42.6711949" lon="12.9002772"><ele>1206.0</ele><time>2026-04-10T16:09:38.548Z</time></trkpt><trkpt lat="42.6712505" lon="12.9001934"><ele>1206.3333333333333</ele><time>2026-04-10T16:09:39.547Z</time></trkpt><trkpt lat="42.6712772" lon="12.9000688"><ele>1206.6666666666667</ele><time>2026-04-10T16:09:41.544Z</time></trkpt><trkpt lat="42.6712323" lon="12.8999394"><ele>1207.0</ele><time>2026-04-10T16:09:43.547Z</time></trkpt><trkpt lat="42.6711982" lon="12.8998589"><ele>1207.3333333333335</ele><time>2026-04-10T16:09:44.544Z</time></trkpt><trkpt lat="42.6711661" lon="12.8997791"><ele>1207.6666666666667</ele><time>2026-04-10T16:09:45.543Z</time></trkpt><trkpt lat="42.671115" lon="12.899641"><ele>1208.0</ele><time>2026-04-10T16:09:47.55Z</time></trkpt><trkpt lat="42.6710819" lon="12.8995539"><ele>1208.0</ele><time>2026-04-10T16:09:48.547Z</time></trkpt><trkpt lat="42.6710458" lon="12.8994444"><ele>1208.0</ele><time>2026-04-10T16:09:49.553Z</time></trkpt><trkpt lat="42.6710101" lon="12.8993422"><ele>1208.0</ele><time>2026-04-10T16:09:50.55Z</time></trkpt><trkpt lat="42.6709536" lon="12.8992299"><ele>1208.0</ele><time>2026-04-10T16:09:51.553Z</time></trkpt><trkpt lat="42.6708984" lon="12.8991405"><ele>1208.0</ele><time>2026-04-10T16:09:52.555Z</time></trkpt><trkpt lat="42.670829" lon="12.8990371"><ele>1208.6</ele><time>2026-04-10T16:09:53.555Z</time></trkpt><trkpt lat="42.6707795" lon="12.8989223"><ele>1209.1999999999998</ele><time>2026-04-10T16:09:54.553Z</time></trkpt><trkpt lat="42.6707339" lon="12.8987951"><ele>1209.8</ele><time>2026-04-10T16:09:55.551Z</time></trkpt><trkpt lat="42.6706846" lon="12.8986594"><ele>1210.3999999999999</ele><time>2026-04-10T16:09:56.545Z</time></trkpt><trkpt lat="42.670668" lon="12.8985147"><ele>1211.0</ele><time>2026-04-10T16:09:57.54Z</time></trkpt><trkpt lat="42.6706594" lon="12.8983704"><ele>1211.25</ele><time>2026-04-10T16:09:58.545Z</time></trkpt><trkpt lat="42.6706551" lon="12.8982234"><ele>1211.5</ele><time>2026-04-10T16:09:59.544Z</time></trkpt><trkpt lat="42.6706676" lon="12.8980724"><ele>1211.75</ele><time>2026-04-10T16:10:00.562Z</time></trkpt><trkpt lat="42.670686" lon="12.897913"><ele>1212.0</ele><time>2026-04-10T16:10:01.555Z</time></trkpt><trkpt lat="42.670706" lon="12.8977336"><ele>1211.0</ele><time>2026-04-10T16:10:02.571Z</time></trkpt><trkpt lat="42.6707354" lon="12.897534"><ele>1210.0</ele><time>2026-04-10T16:10:03.561Z</time></trkpt><trkpt lat="42.6707764" lon="12.8973141"><ele>1209.0</ele><time>2026-04-10T16:10:04.563Z</time></trkpt><trkpt lat="42.6708208" lon="12.897105"><ele>1209.0</ele><time>2026-04-10T16:10:05.564Z</time></trkpt><trkpt lat="42.6708566" lon="12.8969264"><ele>1209.0</ele><time>2026-04-10T16:10:06.561Z</time></trkpt><trkpt lat="42.6708814" lon="12.8967608"><ele>1209.0</ele><time>2026-04-10T16:10:07.571Z</time></trkpt><trkpt lat="42.6708981" lon="12.8965988"><ele>1209.0</ele><time>2026-04-10T16:10:08.568Z</time></trkpt><trkpt lat="42.6709077" lon="12.8964298"><ele>1209.2</ele><time>2026-04-10T16:10:09.569Z</time></trkpt><trkpt lat="42.6709287" lon="12.8962812"><ele>1209.4</ele><time>2026-04-10T16:10:10.576Z</time></trkpt><trkpt lat="42.6709611" lon="12.8961633"><ele>1209.6</ele><time>2026-04-10T16:10:11.572Z</time></trkpt><trkpt lat="42.6710128" lon="12.8960329"><ele>1209.8</ele><time>2026-04-10T16:10:12.576Z</time></trkpt><trkpt lat="42.6710479" lon="12.8959108"><ele>1210.0</ele><time>2026-04-10T16:10:13.577Z</time></trkpt><trkpt lat="42.6710748" lon="12.8957911"><ele>1208.0</ele><time>2026-04-10T16:10:14.581Z</time></trkpt><trkpt lat="42.6711178" lon="12.8956773"><ele>1206.0</ele><time>2026-04-10T16:10:15.58Z</time></trkpt><trkpt lat="42.671166" lon="12.8955763"><ele>1204.0</ele><time>2026-04-10T16:10:16.581Z</time></trkpt><trkpt lat="42.6712164" lon="12.8954884"><ele>1202.0</ele><time>2026-04-10T16:10:17.582Z</time></trkpt><trkpt lat="42.6712739" lon="12.8953981"><ele>1200.0</ele><time>2026-04-10T16:10:18.582Z</time></trkpt><trkpt lat="42.6713264" lon="12.8953003"><ele>1198.0</ele><time>2026-04-10T16:10:19.579Z</time></trkpt><trkpt lat="42.6713678" lon="12.8951956"><ele>1196.2</ele><time>2026-04-10T16:10:20.584Z</time></trkpt><trkpt lat="42.6713939" lon="12.895083"><ele>1194.4</ele><time>2026-04-10T16:10:21.578Z</time></trkpt><trkpt lat="42.6714211" lon="12.8949681"><ele>1192.6000000000001</ele><time>2026-04-10T16:10:22.583Z</time></trkpt><trkpt lat="42.6714494" lon="12.8948406"><ele>1190.8</ele><time>2026-04-10T16:10:23.587Z</time></trkpt><trkpt lat="42.671478" lon="12.8947093"><ele>1189.0</ele><time>2026-04-10T16:10:24.583Z</time></trkpt><trkpt lat="42.6714854" lon="12.894581"><ele>1189.0</ele><time>2026-04-10T16:10:25.577Z</time></trkpt><trkpt lat="42.6714861" lon="12.8944402"><ele>1189.0</ele><time>2026-04-10T16:10:26.581Z</time></trkpt><trkpt lat="42.6714622" lon="12.8942851"><ele>1189.0</ele><time>2026-04-10T16:10:27.574Z</time></trkpt><trkpt lat="42.6714215" lon="12.8941163"><ele>1189.0</ele><time>2026-04-10T16:10:28.581Z</time></trkpt><trkpt lat="42.6713857" lon="12.8939416"><ele>1187.25</ele><time>2026-04-10T16:10:29.58Z</time></trkpt><trkpt lat="42.6713448" lon="12.8937865"><ele>1185.5</ele><time>2026-04-10T16:10:30.576Z</time></trkpt><trkpt lat="42.671298" lon="12.8936498"><ele>1183.75</ele><time>2026-04-10T16:10:31.591Z</time></trkpt><trkpt lat="42.6712451" lon="12.8935057"><ele>1182.0</ele><time>2026-04-10T16:10:32.576Z</time></trkpt><trkpt lat="42.6711869" lon="12.8933417"><ele>1182.0</ele><time>2026-04-10T16:10:33.58Z</time></trkpt><trkpt lat="42.6711355" lon="12.893164"><ele>1182.0</ele><time>2026-04-10T16:10:34.574Z</time></trkpt><trkpt lat="42.6710614" lon="12.892966"><ele>1182.0</ele><time>2026-04-10T16:10:35.571Z</time></trkpt><trkpt lat="42.6710216" lon="12.892765"><ele>1186.6666666666667</ele><time>2026-04-10T16:10:36.573Z</time></trkpt><trkpt lat="42.6709669" lon="12.892555"><ele>1191.3333333333335</ele><time>2026-04-10T16:10:37.569Z</time></trkpt><trkpt lat="42.6709239" lon="12.8923404"><ele>1196.0</ele><time>2026-04-10T16:10:38.567Z</time></trkpt><trkpt lat="42.6708818" lon="12.8921377"><ele>1196.0</ele><time>2026-04-10T16:10:39.564Z</time></trkpt><trkpt lat="42.670833" lon="12.8919048"><ele>1196.0</ele><time>2026-04-10T16:10:40.56Z</time></trkpt><trkpt lat="42.6707827" lon="12.8916944"><ele>1196.0</ele><time>2026-04-10T16:10:41.564Z</time></trkpt><trkpt lat="42.6707392" lon="12.8915032"><ele>1193.25</ele><time>2026-04-10T16:10:42.564Z</time></trkpt><trkpt lat="42.6706923" lon="12.8913271"><ele>1190.5</ele><time>2026-04-10T16:10:43.567Z</time></trkpt><trkpt lat="42.6706627" lon="12.8911577"><ele>1187.75</ele><time>2026-04-10T16:10:44.564Z</time></trkpt><trkpt lat="42.670644" lon="12.8909944"><ele>1185.0</ele><time>2026-04-10T16:10:45.559Z</time></trkpt><trkpt lat="42.6706554" lon="12.890857"><ele>1183.0</ele><time>2026-04-10T16:10:46.573Z</time></trkpt><trkpt lat="42.6706539" lon="12.8907326"><ele>1181.0</ele><time>2026-04-10T16:10:47.574Z</time></trkpt><trkpt lat="42.6706453" lon="12.8905901"><ele>1179.0</ele><time>2026-04-10T16:10:48.569Z</time></trkpt><trkpt lat="42.6705991" lon="12.8904378"><ele>1177.0</ele><time>2026-04-10T16:10:49.565Z</time></trkpt><trkpt lat="42.670543" lon="12.8902735"><ele>1177.0</ele><time>2026-04-10T16:10:50.576Z</time></trkpt><trkpt lat="42.6704988" lon="12.8901117"><ele>1177.0</ele><time>2026-04-10T16:10:51.564Z</time></trkpt><trkpt lat="42.6704631" lon="12.8899415"><ele>1177.0</ele><time>2026-04-10T16:10:52.567Z</time></trkpt><trkpt lat="42.6704567" lon="12.8897659"><ele>1177.0</ele><time>2026-04-10T16:10:53.566Z</time></trkpt><trkpt lat="42.6704578" lon="12.8896026"><ele>1176.8</ele><time>2026-04-10T16:10:54.567Z</time></trkpt><trkpt lat="42.6704604" lon="12.889452"><ele>1176.6</ele><time>2026-04-10T16:10:55.568Z</time></trkpt><trkpt lat="42.6704507" lon="12.8893165"><ele>1176.3999999999999</ele><time>2026-04-10T16:10:56.567Z</time></trkpt><trkpt lat="42.6704376" lon="12.8891836"><ele>1176.2</ele><time>2026-04-10T16:10:57.57Z</time></trkpt><trkpt lat="42.6704166" lon="12.889039"><ele>1176.0</ele><time>2026-04-10T16:10:58.565Z</time></trkpt><trkpt lat="42.6703794" lon="12.8889035"><ele>1176.25</ele><time>2026-04-10T16:10:59.56Z</time></trkpt><trkpt lat="42.6702891" lon="12.8887755"><ele>1176.5</ele><time>2026-04-10T16:11:00.562Z</time></trkpt><trkpt lat="42.6702048" lon="12.8886374"><ele>1176.75</ele><time>2026-04-10T16:11:01.559Z</time></trkpt><trkpt lat="42.6701388" lon="12.888479"><ele>1177.0</ele><time>2026-04-10T16:11:02.588Z</time></trkpt><trkpt lat="42.6700993" lon="12.8883084"><ele>1177.0</ele><time>2026-04-10T16:11:03.563Z</time></trkpt><trkpt lat="42.6700715" lon="12.8881386"><ele>1177.0</ele><time>2026-04-10T16:11:04.573Z</time></trkpt><trkpt lat="42.6700378" lon="12.8879858"><ele>1177.0</ele><time>2026-04-10T16:11:05.564Z</time></trkpt><trkpt lat="42.6699965" lon="12.887848"><ele>1177.0</ele><time>2026-04-10T16:11:06.563Z</time></trkpt><trkpt lat="42.6699539" lon="12.8877258"><ele>1177.0</ele><time>2026-04-10T16:11:07.565Z</time></trkpt><trkpt lat="42.669907" lon="12.8876137"><ele>1177.0</ele><time>2026-04-10T16:11:08.56Z</time></trkpt><trkpt lat="42.6698567" lon="12.8875033"><ele>1177.0</ele><time>2026-04-10T16:11:09.558Z</time></trkpt><trkpt lat="42.669799" lon="12.8873864"><ele>1177.0</ele><time>2026-04-10T16:11:10.554Z</time></trkpt><trkpt lat="42.6697503" lon="12.8872672"><ele>1177.0</ele><time>2026-04-10T16:11:11.558Z</time></trkpt><trkpt lat="42.66973" lon="12.8871484"><ele>1175.8</ele><time>2026-04-10T16:11:12.563Z</time></trkpt><trkpt lat="42.6697164" lon="12.8870338"><ele>1174.6</ele><time>2026-04-10T16:11:13.56Z</time></trkpt><trkpt lat="42.6696906" lon="12.8869096"><ele>1173.3999999999999</ele><time>2026-04-10T16:11:14.563Z</time></trkpt><trkpt lat="42.6696541" lon="12.8867645"><ele>1172.2</ele><time>2026-04-10T16:11:15.556Z</time></trkpt><trkpt lat="42.6696472" lon="12.8865936"><ele>1171.0</ele><time>2026-04-10T16:11:16.562Z</time></trkpt><trkpt lat="42.6696492" lon="12.8864277"><ele>1171.0</ele><time>2026-04-10T16:11:17.569Z</time></trkpt><trkpt lat="42.6696523" lon="12.8862793"><ele>1171.0</ele><time>2026-04-10T16:11:18.564Z</time></trkpt><trkpt lat="42.6696335" lon="12.8861385"><ele>1171.0</ele><time>2026-04-10T16:11:19.569Z</time></trkpt><trkpt lat="42.6696006" lon="12.8860055"><ele>1171.0</ele><time>2026-04-10T16:11:20.57Z</time></trkpt><trkpt lat="42.6695422" lon="12.8858792"><ele>1171.0</ele><time>2026-04-10T16:11:21.559Z</time></trkpt><trkpt lat="42.6694638" lon="12.8857489"><ele>1172.0</ele><time>2026-04-10T16:11:22.57Z</time></trkpt><trkpt lat="42.6693578" lon="12.8856241"><ele>1173.0</ele><time>2026-04-10T16:11:23.562Z</time></trkpt><trkpt lat="42.6692459" lon="12.885504"><ele>1174.0</ele><time>2026-04-10T16:11:24.559Z</time></trkpt><trkpt lat="42.6691007" lon="12.8853934"><ele>1175.0</ele><time>2026-04-10T16:11:25.557Z</time></trkpt><trkpt lat="42.6690031" lon="12.885267"><ele>1172.75</ele><time>2026-04-10T16:11:26.562Z</time></trkpt><trkpt lat="42.6689536" lon="12.8850886"><ele>1170.5</ele><time>2026-04-10T16:11:27.555Z</time></trkpt><trkpt lat="42.668858" lon="12.8849176"><ele>1168.25</ele><time>2026-04-10T16:11:28.558Z</time></trkpt><trkpt lat="42.6688494" lon="12.8847125"><ele>1166.0</ele><time>2026-04-10T16:11:29.552Z</time></trkpt><trkpt lat="42.6688195" lon="12.8845058"><ele>1166.0</ele><time>2026-04-10T16:11:30.555Z</time></trkpt><trkpt lat="42.6688177" lon="12.8843216"><ele>1166.0</ele><time>2026-04-10T16:11:31.555Z</time></trkpt><trkpt lat="42.6688015" lon="12.8841737"><ele>1166.0</ele><time>2026-04-10T16:11:32.562Z</time></trkpt><trkpt lat="42.6687727" lon="12.8839998"><ele>1166.0</ele><time>2026-04-10T16:11:33.548Z</time></trkpt><trkpt lat="42.668763" lon="12.883908"><ele>1166.0</ele><time>2026-04-10T16:11:34.546Z</time></trkpt><trkpt lat="42.6687074" lon="12.8837996"><ele>1165.5</ele><time>2026-04-10T16:11:35.552Z</time></trkpt><trkpt lat="42.6686292" lon="12.8836706"><ele>1165.0</ele><time>2026-04-10T16:11:36.547Z</time></trkpt><trkpt lat="42.6685522" lon="12.8835419"><ele>1164.5</ele><time>2026-04-10T16:11:37.541Z</time></trkpt><trkpt lat="42.668475" lon="12.8834076"><ele>1164.0</ele><time>2026-04-10T16:11:38.545Z</time></trkpt><trkpt lat="42.6684036" lon="12.8832656"><ele>1164.0</ele><time>2026-04-10T16:11:39.544Z</time></trkpt><trkpt lat="42.6683237" lon="12.8831093"><ele>1164.0</ele><time>2026-04-10T16:11:40.546Z</time></trkpt><trkpt lat="42.6682572" lon="12.8829515"><ele>1164.0</ele><time>2026-04-10T16:11:41.546Z</time></trkpt><trkpt lat="42.6682239" lon="12.8827572"><ele>1164.0</ele><time>2026-04-10T16:11:42.546Z</time></trkpt><trkpt lat="42.6682049" lon="12.8825452"><ele>1163.3333333333333</ele><time>2026-04-10T16:11:43.544Z</time></trkpt><trkpt lat="42.6682382" lon="12.8822962"><ele>1162.6666666666665</ele><time>2026-04-10T16:11:44.544Z</time></trkpt><trkpt lat="42.6682129" lon="12.8820448"><ele>1162.0</ele><time>2026-04-10T16:11:45.549Z</time></trkpt><trkpt lat="42.6681867" lon="12.8818515"><ele>1161.0</ele><time>2026-04-10T16:11:46.548Z</time></trkpt><trkpt lat="42.668178" lon="12.8815971"><ele>1160.0</ele><time>2026-04-10T16:11:47.552Z</time></trkpt><trkpt lat="42.6681744" lon="12.8813193"><ele>1159.0</ele><time>2026-04-10T16:11:48.551Z</time></trkpt><trkpt lat="42.6681878" lon="12.8811135"><ele>1159.0</ele><time>2026-04-10T16:11:49.548Z</time></trkpt><trkpt lat="42.6682117" lon="12.8809385"><ele>1159.0</ele><time>2026-04-10T16:11:50.55Z</time></trkpt><trkpt lat="42.668174" lon="12.8807746"><ele>1159.0</ele><time>2026-04-10T16:11:51.552Z</time></trkpt><trkpt lat="42.6682097" lon="12.8806221"><ele>1159.0</ele><time>2026-04-10T16:11:52.548Z</time></trkpt><trkpt lat="42.6683002" lon="12.8805024"><ele>1157.8</ele><time>2026-04-10T16:11:53.543Z</time></trkpt><trkpt lat="42.6683261" lon="12.8803733"><ele>1156.6000000000001</ele><time>2026-04-10T16:11:54.554Z</time></trkpt><trkpt lat="42.6683924" lon="12.8802327"><ele>1155.4</ele><time>2026-04-10T16:11:55.556Z</time></trkpt><trkpt lat="42.6683737" lon="12.8801063"><ele>1154.2</ele><time>2026-04-10T16:11:56.563Z</time></trkpt><trkpt lat="42.6683109" lon="12.8800218"><ele>1153.0</ele><time>2026-04-10T16:11:57.555Z</time></trkpt><trkpt lat="42.6682883" lon="12.8799385"><ele>1151.8</ele><time>2026-04-10T16:11:58.557Z</time></trkpt><trkpt lat="42.6682871" lon="12.8798209"><ele>1150.6</ele><time>2026-04-10T16:11:59.561Z</time></trkpt><trkpt lat="42.6682504" lon="12.8797025"><ele>1149.4</ele><time>2026-04-10T16:12:00.557Z</time></trkpt><trkpt lat="42.6682118" lon="12.8795382"><ele>1148.2</ele><time>2026-04-10T16:12:01.564Z</time></trkpt><trkpt lat="42.6681661" lon="12.8793775"><ele>1147.0</ele><time>2026-04-10T16:12:02.558Z</time></trkpt><trkpt lat="42.6681573" lon="12.8792219"><ele>1145.75</ele><time>2026-04-10T16:12:03.57Z</time></trkpt><trkpt lat="42.6681368" lon="12.8790491"><ele>1144.5</ele><time>2026-04-10T16:12:04.57Z</time></trkpt><trkpt lat="42.6681266" lon="12.8788859"><ele>1143.25</ele><time>2026-04-10T16:12:05.573Z</time></trkpt><trkpt lat="42.6681239" lon="12.8787236"><ele>1142.0</ele><time>2026-04-10T16:12:06.572Z</time></trkpt><trkpt lat="42.6681224" lon="12.8785618"><ele>1141.25</ele><time>2026-04-10T16:12:07.572Z</time></trkpt><trkpt lat="42.6681273" lon="12.8783925"><ele>1140.5</ele><time>2026-04-10T16:12:08.572Z</time></trkpt><trkpt lat="42.6681548" lon="12.8782156"><ele>1139.75</ele><time>2026-04-10T16:12:09.571Z</time></trkpt><trkpt lat="42.6681959" lon="12.8780126"><ele>1139.0</ele><time>2026-04-10T16:12:10.572Z</time></trkpt><trkpt lat="42.6682508" lon="12.8778091"><ele>1137.75</ele><time>2026-04-10T16:12:11.564Z</time></trkpt><trkpt lat="42.6683025" lon="12.8776012"><ele>1136.5</ele><time>2026-04-10T16:12:12.571Z</time></trkpt><trkpt lat="42.6683414" lon="12.8774058"><ele>1135.25</ele><time>2026-04-10T16:12:13.562Z</time></trkpt><trkpt lat="42.6683287" lon="12.8772268"><ele>1134.0</ele><time>2026-04-10T16:12:14.564Z</time></trkpt><trkpt lat="42.6683054" lon="12.8770355"><ele>1134.0</ele><time>2026-04-10T16:12:15.564Z</time></trkpt><trkpt lat="42.6682938" lon="12.876841"><ele>1134.0</ele><time>2026-04-10T16:12:16.569Z</time></trkpt><trkpt lat="42.6682954" lon="12.8766753"><ele>1134.0</ele><time>2026-04-10T16:12:17.563Z</time></trkpt><trkpt lat="42.6683129" lon="12.8764876"><ele>1134.0</ele><time>2026-04-10T16:12:18.562Z</time></trkpt><trkpt lat="42.6683272" lon="12.8763114"><ele>1132.4</ele><time>2026-04-10T16:12:19.565Z</time></trkpt><trkpt lat="42.668343" lon="12.8761416"><ele>1130.8000000000002</ele><time>2026-04-10T16:12:20.565Z</time></trkpt><trkpt lat="42.6683721" lon="12.8759984"><ele>1129.1999999999998</ele><time>2026-04-10T16:12:21.562Z</time></trkpt><trkpt lat="42.6683589" lon="12.8758842"><ele>1127.6</ele><time>2026-04-10T16:12:22.563Z</time></trkpt><trkpt lat="42.6683173" lon="12.8758077"><ele>1126.0</ele><time>2026-04-10T16:12:23.563Z</time></trkpt><trkpt lat="42.6682766" lon="12.8757111"><ele>1124.3333333333333</ele><time>2026-04-10T16:12:24.565Z</time></trkpt><trkpt lat="42.6682525" lon="12.8756047"><ele>1122.6666666666665</ele><time>2026-04-10T16:12:25.566Z</time></trkpt><trkpt lat="42.6682421" lon="12.8754899"><ele>1121.0</ele><time>2026-04-10T16:12:26.564Z</time></trkpt><trkpt lat="42.6682418" lon="12.8753677"><ele>1119.3333333333333</ele><time>2026-04-10T16:12:27.567Z</time></trkpt><trkpt lat="42.6682357" lon="12.8752484"><ele>1117.6666666666667</ele><time>2026-04-10T16:12:28.565Z</time></trkpt><trkpt lat="42.6682355" lon="12.875131"><ele>1116.0</ele><time>2026-04-10T16:12:29.563Z</time></trkpt><trkpt lat="42.6682517" lon="12.8749881"><ele>1113.6666666666667</ele><time>2026-04-10T16:12:30.558Z</time></trkpt><trkpt lat="42.6682957" lon="12.8748159"><ele>1111.3333333333335</ele><time>2026-04-10T16:12:31.565Z</time></trkpt><trkpt lat="42.6683473" lon="12.8746178"><ele>1109.0</ele><time>2026-04-10T16:12:32.566Z</time></trkpt><trkpt lat="42.6684122" lon="12.874406"><ele>1107.0</ele><time>2026-04-10T16:12:33.557Z</time></trkpt><trkpt lat="42.6684545" lon="12.8741972"><ele>1105.0</ele><time>2026-04-10T16:12:34.569Z</time></trkpt><trkpt lat="42.6684882" lon="12.8740014"><ele>1103.0</ele><time>2026-04-10T16:12:35.559Z</time></trkpt><trkpt lat="42.6685211" lon="12.87383"><ele>1101.0</ele><time>2026-04-10T16:12:36.565Z</time></trkpt><trkpt lat="42.6685702" lon="12.8736834"><ele>1106.3333333333333</ele><time>2026-04-10T16:12:37.556Z</time></trkpt><trkpt lat="42.6686349" lon="12.8735768"><ele>1111.6666666666667</ele><time>2026-04-10T16:12:38.559Z</time></trkpt><trkpt lat="42.6687078" lon="12.8735099"><ele>1117.0</ele><time>2026-04-10T16:12:39.555Z</time></trkpt><trkpt lat="42.6687852" lon="12.8734624"><ele>1122.3333333333335</ele><time>2026-04-10T16:12:40.553Z</time></trkpt><trkpt lat="42.6688658" lon="12.8734126"><ele>1127.6666666666667</ele><time>2026-04-10T16:12:41.554Z</time></trkpt><trkpt lat="42.6689312" lon="12.8733652"><ele>1133.0</ele><time>2026-04-10T16:12:42.556Z</time></trkpt><trkpt lat="42.6688526" lon="12.8733091"><ele>1133.0</ele><time>2026-04-10T16:12:46.563Z</time></trkpt><trkpt lat="42.6687742" lon="12.8732844"><ele>1133.0</ele><time>2026-04-10T16:12:47.563Z</time></trkpt><trkpt lat="42.6686949" lon="12.8732232"><ele>1133.0</ele><time>2026-04-10T16:12:48.559Z</time></trkpt><trkpt lat="42.6686176" lon="12.873137"><ele>1133.0</ele><time>2026-04-10T16:12:49.565Z</time></trkpt><trkpt lat="42.6685567" lon="12.8730329"><ele>1133.0</ele><time>2026-04-10T16:12:50.564Z</time></trkpt><trkpt lat="42.668514" lon="12.8729159"><ele>1126.5</ele><time>2026-04-10T16:12:51.567Z</time></trkpt><trkpt lat="42.6684961" lon="12.8727828"><ele>1120.0</ele><time>2026-04-10T16:12:52.565Z</time></trkpt><trkpt lat="42.6684817" lon="12.8726289"><ele>1113.5</ele><time>2026-04-10T16:12:53.568Z</time></trkpt><trkpt lat="42.6684944" lon="12.8724456"><ele>1107.0</ele><time>2026-04-10T16:12:54.567Z</time></trkpt><trkpt lat="42.6685197" lon="12.8722412"><ele>1107.0</ele><time>2026-04-10T16:12:55.566Z</time></trkpt><trkpt lat="42.6685561" lon="12.8720262"><ele>1107.0</ele><time>2026-04-10T16:12:56.566Z</time></trkpt><trkpt lat="42.6686087" lon="12.8717986"><ele>1107.0</ele><time>2026-04-10T16:12:57.571Z</time></trkpt><trkpt lat="42.6686447" lon="12.8715669"><ele>1118.5</ele><time>2026-04-10T16:12:58.571Z</time></trkpt><trkpt lat="42.6686808" lon="12.8713524"><ele>1130.0</ele><time>2026-04-10T16:12:59.568Z</time></trkpt><trkpt lat="42.6687257" lon="12.8711844"><ele>1141.5</ele><time>2026-04-10T16:13:00.568Z</time></trkpt><trkpt lat="42.6687299" lon="12.8710055"><ele>1153.0</ele><time>2026-04-10T16:13:01.581Z</time></trkpt><trkpt lat="42.6687318" lon="12.8708259"><ele>1154.5</ele><time>2026-04-10T16:13:02.575Z</time></trkpt><trkpt lat="42.6687022" lon="12.8706629"><ele>1156.0</ele><time>2026-04-10T16:13:03.567Z</time></trkpt><trkpt lat="42.6686569" lon="12.8704884"><ele>1157.5</ele><time>2026-04-10T16:13:04.563Z</time></trkpt><trkpt lat="42.668594" lon="12.8703271"><ele>1159.0</ele><time>2026-04-10T16:13:05.578Z</time></trkpt><trkpt lat="42.6685149" lon="12.8701648"><ele>1148.0</ele><time>2026-04-10T16:13:06.575Z</time></trkpt><trkpt lat="42.6684495" lon="12.8700513"><ele>1137.0</ele><time>2026-04-10T16:13:07.58Z</time></trkpt><trkpt lat="42.6683862" lon="12.8699173"><ele>1126.0</ele><time>2026-04-10T16:13:08.575Z</time></trkpt><trkpt lat="42.6683414" lon="12.8697629"><ele>1115.0</ele><time>2026-04-10T16:13:09.574Z</time></trkpt><trkpt lat="42.6683055" lon="12.869628"><ele>1115.0</ele><time>2026-04-10T16:13:10.571Z</time></trkpt><trkpt lat="42.6682876" lon="12.8694624"><ele>1115.0</ele><time>2026-04-10T16:13:11.573Z</time></trkpt><trkpt lat="42.6682746" lon="12.8692747"><ele>1115.0</ele><time>2026-04-10T16:13:12.571Z</time></trkpt><trkpt lat="42.6682684" lon="12.8690585"><ele>1115.0</ele><time>2026-04-10T16:13:13.577Z</time></trkpt><trkpt lat="42.6682594" lon="12.8688142"><ele>1117.6666666666667</ele><time>2026-04-10T16:13:14.577Z</time></trkpt><trkpt lat="42.6682429" lon="12.8685599"><ele>1120.3333333333333</ele><time>2026-04-10T16:13:15.579Z</time></trkpt><trkpt lat="42.668235" lon="12.8683414"><ele>1123.0</ele><time>2026-04-10T16:13:16.581Z</time></trkpt><trkpt lat="42.6682273" lon="12.8681431"><ele>1123.6</ele><time>2026-04-10T16:13:17.579Z</time></trkpt><trkpt lat="42.6682191" lon="12.8679599"><ele>1124.1999999999998</ele><time>2026-04-10T16:13:18.579Z</time></trkpt><trkpt lat="42.6682096" lon="12.8678039"><ele>1124.8</ele><time>2026-04-10T16:13:19.572Z</time></trkpt><trkpt lat="42.6681839" lon="12.8676632"><ele>1125.3999999999999</ele><time>2026-04-10T16:13:20.581Z</time></trkpt><trkpt lat="42.6681428" lon="12.8675581"><ele>1126.0</ele><time>2026-04-10T16:13:21.587Z</time></trkpt><trkpt lat="42.6680831" lon="12.8674897"><ele>1127.2</ele><time>2026-04-10T16:13:22.581Z</time></trkpt><trkpt lat="42.6680182" lon="12.8673877"><ele>1128.3999999999999</ele><time>2026-04-10T16:13:23.576Z</time></trkpt><trkpt lat="42.6679822" lon="12.8672439"><ele>1129.6</ele><time>2026-04-10T16:13:24.585Z</time></trkpt><trkpt lat="42.6679762" lon="12.867098"><ele>1130.8</ele><time>2026-04-10T16:13:25.586Z</time></trkpt><trkpt lat="42.6679733" lon="12.8669405"><ele>1132.0</ele><time>2026-04-10T16:13:26.579Z</time></trkpt><trkpt lat="42.6679766" lon="12.866771"><ele>1132.0</ele><time>2026-04-10T16:13:27.586Z</time></trkpt><trkpt lat="42.6679878" lon="12.8665878"><ele>1132.0</ele><time>2026-04-10T16:13:28.591Z</time></trkpt><trkpt lat="42.6680072" lon="12.8663931"><ele>1132.0</ele><time>2026-04-10T16:13:29.593Z</time></trkpt><trkpt lat="42.6680405" lon="12.8661853"><ele>1132.0</ele><time>2026-04-10T16:13:30.596Z</time></trkpt><trkpt lat="42.6680722" lon="12.865986"><ele>1127.75</ele><time>2026-04-10T16:13:31.595Z</time></trkpt><trkpt lat="42.6681117" lon="12.8658161"><ele>1123.5</ele><time>2026-04-10T16:13:32.584Z</time></trkpt><trkpt lat="42.6681607" lon="12.8656761"><ele>1119.25</ele><time>2026-04-10T16:13:33.586Z</time></trkpt><trkpt lat="42.6682127" lon="12.8655319"><ele>1115.0</ele><time>2026-04-10T16:13:34.586Z</time></trkpt><trkpt lat="42.6682784" lon="12.8653588"><ele>1115.0</ele><time>2026-04-10T16:13:35.585Z</time></trkpt><trkpt lat="42.6683519" lon="12.8651676"><ele>1115.0</ele><time>2026-04-10T16:13:36.597Z</time></trkpt><trkpt lat="42.6684263" lon="12.8649609"><ele>1115.0</ele><time>2026-04-10T16:13:37.578Z</time></trkpt><trkpt lat="42.6684863" lon="12.864786"><ele>1111.6</ele><time>2026-04-10T16:13:38.574Z</time></trkpt><trkpt lat="42.6685518" lon="12.8646578"><ele>1108.2</ele><time>2026-04-10T16:13:39.571Z</time></trkpt><trkpt lat="42.6686064" lon="12.864564"><ele>1104.8</ele><time>2026-04-10T16:13:40.548Z</time></trkpt><trkpt lat="42.6685904" lon="12.8644048"><ele>1101.4</ele><time>2026-04-10T16:13:43.557Z</time></trkpt><trkpt lat="42.6685257" lon="12.8642703"><ele>1098.0</ele><time>2026-04-10T16:13:44.56Z</time></trkpt><trkpt lat="42.6684754" lon="12.8641289"><ele>1097.8333333333333</ele><time>2026-04-10T16:13:45.557Z</time></trkpt><trkpt lat="42.6684321" lon="12.8639968"><ele>1097.6666666666667</ele><time>2026-04-10T16:13:46.562Z</time></trkpt><trkpt lat="42.6684099" lon="12.863883"><ele>1097.5</ele><time>2026-04-10T16:13:47.561Z</time></trkpt><trkpt lat="42.6684047" lon="12.8637677"><ele>1097.3333333333335</ele><time>2026-04-10T16:13:48.576Z</time></trkpt><trkpt lat="42.668426" lon="12.8636688"><ele>1097.1666666666667</ele><time>2026-04-10T16:13:49.574Z</time></trkpt><trkpt lat="42.6684783" lon="12.863566"><ele>1097.0</ele><time>2026-04-10T16:13:50.565Z</time></trkpt><trkpt lat="42.668539" lon="12.8634735"><ele>1098.4</ele><time>2026-04-10T16:13:51.569Z</time></trkpt><trkpt lat="42.6686232" lon="12.8634056"><ele>1099.8000000000002</ele><time>2026-04-10T16:13:52.576Z</time></trkpt><trkpt lat="42.6687016" lon="12.8633577"><ele>1101.2</ele><time>2026-04-10T16:13:53.576Z</time></trkpt><trkpt lat="42.6687901" lon="12.8633249"><ele>1102.6000000000001</ele><time>2026-04-10T16:13:54.575Z</time></trkpt><trkpt lat="42.668893" lon="12.8633435"><ele>1104.0</ele><time>2026-04-10T16:13:55.587Z</time></trkpt><trkpt lat="42.6690037" lon="12.8633506"><ele>1104.0</ele><time>2026-04-10T16:13:56.579Z</time></trkpt><trkpt lat="42.669123" lon="12.8633283"><ele>1104.0</ele><time>2026-04-10T16:13:57.579Z</time></trkpt><trkpt lat="42.6692399" lon="12.863277"><ele>1104.0</ele><time>2026-04-10T16:13:58.57Z</time></trkpt><trkpt lat="42.6693591" lon="12.8631978"><ele>1104.0</ele><time>2026-04-10T16:13:59.571Z</time></trkpt><trkpt lat="42.6694546" lon="12.8631098"><ele>1103.8</ele><time>2026-04-10T16:14:00.57Z</time></trkpt><trkpt lat="42.6695257" lon="12.8630252"><ele>1103.6000000000001</ele><time>2026-04-10T16:14:01.563Z</time></trkpt><trkpt lat="42.6695749" lon="12.8628912"><ele>1103.4</ele><time>2026-04-10T16:14:02.57Z</time></trkpt><trkpt lat="42.6696183" lon="12.8627572"><ele>1103.2</ele><time>2026-04-10T16:14:03.567Z</time></trkpt><trkpt lat="42.6696764" lon="12.8626276"><ele>1103.0</ele><time>2026-04-10T16:14:04.562Z</time></trkpt><trkpt lat="42.6697575" lon="12.8625224"><ele>1103.0</ele><time>2026-04-10T16:14:05.564Z</time></trkpt><trkpt lat="42.669855" lon="12.8624395"><ele>1103.0</ele><time>2026-04-10T16:14:06.56Z</time></trkpt><trkpt lat="42.6699737" lon="12.862339"><ele>1103.0</ele><time>2026-04-10T16:14:07.569Z</time></trkpt><trkpt lat="42.6700859" lon="12.8622387"><ele>1103.0</ele><time>2026-04-10T16:14:08.562Z</time></trkpt><trkpt lat="42.6701962" lon="12.8621265"><ele>1107.4</ele><time>2026-04-10T16:14:09.562Z</time></trkpt><trkpt lat="42.6703067" lon="12.8620364"><ele>1111.8</ele><time>2026-04-10T16:14:10.552Z</time></trkpt><trkpt lat="42.6704131" lon="12.8619581"><ele>1116.2</ele><time>2026-04-10T16:14:11.54Z</time></trkpt><trkpt lat="42.6705096" lon="12.8618979"><ele>1120.6</ele><time>2026-04-10T16:14:12.538Z</time></trkpt><trkpt lat="42.6705785" lon="12.861853"><ele>1125.0</ele><time>2026-04-10T16:14:13.53Z</time></trkpt><trkpt lat="42.6705268" lon="12.8617437"><ele>1126.25</ele><time>2026-04-10T16:14:18.554Z</time></trkpt><trkpt lat="42.6704481" lon="12.8616658"><ele>1127.5</ele><time>2026-04-10T16:14:19.561Z</time></trkpt><trkpt lat="42.6703497" lon="12.8615673"><ele>1128.75</ele><time>2026-04-10T16:14:20.562Z</time></trkpt><trkpt lat="42.6702398" lon="12.8614381"><ele>1130.0</ele><time>2026-04-10T16:14:21.561Z</time></trkpt><trkpt lat="42.670108" lon="12.8612937"><ele>1126.3333333333335</ele><time>2026-04-10T16:14:22.558Z</time></trkpt><trkpt lat="42.6699798" lon="12.8611522"><ele>1122.6666666666667</ele><time>2026-04-10T16:14:23.554Z</time></trkpt><trkpt lat="42.6698386" lon="12.8610134"><ele>1119.0</ele><time>2026-04-10T16:14:24.56Z</time></trkpt><trkpt lat="42.6696737" lon="12.8608565"><ele>1119.0</ele><time>2026-04-10T16:14:25.556Z</time></trkpt><trkpt lat="42.6695268" lon="12.8607061"><ele>1119.0</ele><time>2026-04-10T16:14:26.552Z</time></trkpt><trkpt lat="42.669399" lon="12.8605899"><ele>1119.0</ele><time>2026-04-10T16:14:27.561Z</time></trkpt><trkpt lat="42.669304" lon="12.860496"><ele>1114.0</ele><time>2026-04-10T16:14:28.557Z</time></trkpt><trkpt lat="42.6692177" lon="12.8603794"><ele>1109.0</ele><time>2026-04-10T16:14:29.557Z</time></trkpt><trkpt lat="42.6691411" lon="12.8602773"><ele>1104.0</ele><time>2026-04-10T16:14:30.554Z</time></trkpt><trkpt lat="42.6690758" lon="12.8601304"><ele>1099.0</ele><time>2026-04-10T16:14:31.556Z</time></trkpt><trkpt lat="42.6690392" lon="12.8599839"><ele>1099.0</ele><time>2026-04-10T16:14:32.56Z</time></trkpt><trkpt lat="42.6690286" lon="12.8598115"><ele>1099.0</ele><time>2026-04-10T16:14:33.559Z</time></trkpt><trkpt lat="42.6690087" lon="12.8596409"><ele>1099.0</ele><time>2026-04-10T16:14:34.565Z</time></trkpt><trkpt lat="42.6689768" lon="12.8594399"><ele>1099.0</ele><time>2026-04-10T16:14:35.56Z</time></trkpt><trkpt lat="42.6689544" lon="12.8592052"><ele>1100.0</ele><time>2026-04-10T16:14:36.56Z</time></trkpt><trkpt lat="42.6689225" lon="12.8589886"><ele>1101.0</ele><time>2026-04-10T16:14:37.565Z</time></trkpt><trkpt lat="42.668922" lon="12.8587992"><ele>1102.0</ele><time>2026-04-10T16:14:38.577Z</time></trkpt><trkpt lat="42.6689236" lon="12.8586254"><ele>1103.0</ele><time>2026-04-10T16:14:39.567Z</time></trkpt><trkpt lat="42.6689357" lon="12.8584917"><ele>1103.0000000000002</ele><time>2026-04-10T16:14:40.568Z</time></trkpt><trkpt lat="42.6689285" lon="12.8583867"><ele>1103.0</ele><time>2026-04-10T16:14:41.572Z</time></trkpt><trkpt lat="42.6688856" lon="12.85831"><ele>1103.0</ele><time>2026-04-10T16:14:42.568Z</time></trkpt><trkpt lat="42.6688258" lon="12.8582343"><ele>1103.0</ele><time>2026-04-10T16:14:43.564Z</time></trkpt><trkpt lat="42.6687656" lon="12.858162"><ele>1103.0</ele><time>2026-04-10T16:14:44.601Z</time></trkpt><trkpt lat="42.6687392" lon="12.8580829"><ele>1103.0000000000002</ele><time>2026-04-10T16:14:45.584Z</time></trkpt><trkpt lat="42.6687396" lon="12.8579918"><ele>1103.0</ele><time>2026-04-10T16:14:46.588Z</time></trkpt><trkpt lat="42.6687558" lon="12.8578902"><ele>1103.0</ele><time>2026-04-10T16:14:47.594Z</time></trkpt><trkpt lat="42.668813" lon="12.8577712"><ele>1103.0</ele><time>2026-04-10T16:14:48.589Z</time></trkpt><trkpt lat="42.6688788" lon="12.8576461"><ele>1103.0</ele><time>2026-04-10T16:14:49.586Z</time></trkpt><trkpt lat="42.6689668" lon="12.8575257"><ele>1103.0</ele><time>2026-04-10T16:14:50.59Z</time></trkpt><trkpt lat="42.6690472" lon="12.8574288"><ele>1100.3333333333335</ele><time>2026-04-10T16:14:51.605Z</time></trkpt><trkpt lat="42.6691118" lon="12.8573735"><ele>1097.6666666666667</ele><time>2026-04-10T16:14:52.59Z</time></trkpt><trkpt lat="42.6691912" lon="12.8573274"><ele>1095.0</ele><time>2026-04-10T16:14:54.605Z</time></trkpt><trkpt lat="42.6691354" lon="12.8572814"><ele>1092.3333333333333</ele><time>2026-04-10T16:14:58.601Z</time></trkpt><trkpt lat="42.6690504" lon="12.8573835"><ele>1089.6666666666665</ele><time>2026-04-10T16:15:00.598Z</time></trkpt><trkpt lat="42.6689772" lon="12.8574572"><ele>1087.0</ele><time>2026-04-10T16:15:01.585Z</time></trkpt><trkpt lat="42.6688946" lon="12.8575401"><ele>1087.0</ele><time>2026-04-10T16:15:02.584Z</time></trkpt><trkpt lat="42.6688058" lon="12.8576104"><ele>1087.0</ele><time>2026-04-10T16:15:03.574Z</time></trkpt><trkpt lat="42.6687163" lon="12.8576402"><ele>1087.0</ele><time>2026-04-10T16:15:04.581Z</time></trkpt><trkpt lat="42.6686497" lon="12.8576294"><ele>1087.0</ele><time>2026-04-10T16:15:05.577Z</time></trkpt><trkpt lat="42.668589" lon="12.857532"><ele>1087.0</ele><time>2026-04-10T16:15:07.574Z</time></trkpt><trkpt lat="42.6686522" lon="12.8574371"><ele>1087.0</ele><time>2026-04-10T16:15:09.597Z</time></trkpt><trkpt lat="42.6687197" lon="12.8573908"><ele>1087.0</ele><time>2026-04-10T16:15:10.575Z</time></trkpt><trkpt lat="42.6688109" lon="12.8573128"><ele>1087.0</ele><time>2026-04-10T16:15:11.575Z</time></trkpt><trkpt lat="42.6689178" lon="12.8572024"><ele>1087.0</ele><time>2026-04-10T16:15:12.568Z</time></trkpt><trkpt lat="42.6690395" lon="12.8570694"><ele>1087.0</ele><time>2026-04-10T16:15:13.56Z</time></trkpt><trkpt lat="42.6691803" lon="12.856922"><ele>1087.0</ele><time>2026-04-10T16:15:14.568Z</time></trkpt><trkpt lat="42.6693244" lon="12.8567675"><ele>1087.0</ele><time>2026-04-10T16:15:15.569Z</time></trkpt><trkpt lat="42.6694735" lon="12.856617"><ele>1086.6666666666665</ele><time>2026-04-10T16:15:16.585Z</time></trkpt><trkpt lat="42.6696082" lon="12.8564676"><ele>1086.3333333333333</ele><time>2026-04-10T16:15:17.586Z</time></trkpt><trkpt lat="42.6697283" lon="12.8563207"><ele>1086.0</ele><time>2026-04-10T16:15:18.589Z</time></trkpt><trkpt lat="42.6698424" lon="12.8561678"><ele>1086.0</ele><time>2026-04-10T16:15:19.588Z</time></trkpt><trkpt lat="42.6699557" lon="12.8560232"><ele>1086.0</ele><time>2026-04-10T16:15:20.594Z</time></trkpt><trkpt lat="42.6700599" lon="12.8558853"><ele>1086.0</ele><time>2026-04-10T16:15:21.591Z</time></trkpt><trkpt lat="42.6701393" lon="12.8557279"><ele>1086.0</ele><time>2026-04-10T16:15:22.594Z</time></trkpt><trkpt lat="42.6702054" lon="12.8555744"><ele>1086.25</ele><time>2026-04-10T16:15:23.588Z</time></trkpt><trkpt lat="42.6702672" lon="12.8554216"><ele>1086.5</ele><time>2026-04-10T16:15:24.593Z</time></trkpt><trkpt lat="42.6703324" lon="12.8552773"><ele>1086.75</ele><time>2026-04-10T16:15:25.597Z</time></trkpt><trkpt lat="42.670395" lon="12.8551328"><ele>1087.0</ele><time>2026-04-10T16:15:26.588Z</time></trkpt><trkpt lat="42.6704511" lon="12.8549737"><ele>1080.0</ele><time>2026-04-10T16:15:27.595Z</time></trkpt><trkpt lat="42.6705186" lon="12.8548126"><ele>1073.0</ele><time>2026-04-10T16:15:28.59Z</time></trkpt><trkpt lat="42.6705901" lon="12.8546587"><ele>1066.0</ele><time>2026-04-10T16:15:29.591Z</time></trkpt><trkpt lat="42.6706672" lon="12.8545206"><ele>1059.0</ele><time>2026-04-10T16:15:30.598Z</time></trkpt><trkpt lat="42.6707494" lon="12.8543977"><ele>1059.0</ele><time>2026-04-10T16:15:31.594Z</time></trkpt><trkpt lat="42.6708364" lon="12.8542949"><ele>1059.0</ele><time>2026-04-10T16:15:32.604Z</time></trkpt><trkpt lat="42.6709281" lon="12.85423"><ele>1059.0</ele><time>2026-04-10T16:15:33.585Z</time></trkpt><trkpt lat="42.6710247" lon="12.854196"><ele>1059.0</ele><time>2026-04-10T16:15:34.594Z</time></trkpt><trkpt lat="42.6711231" lon="12.8542078"><ele>1059.0</ele><time>2026-04-10T16:15:35.591Z</time></trkpt><trkpt lat="42.6712217" lon="12.8542556"><ele>1059.5</ele><time>2026-04-10T16:15:36.589Z</time></trkpt><trkpt lat="42.6713239" lon="12.8543267"><ele>1060.0</ele><time>2026-04-10T16:15:37.584Z</time></trkpt><trkpt lat="42.6714303" lon="12.8543977"><ele>1060.5</ele><time>2026-04-10T16:15:38.586Z</time></trkpt><trkpt lat="42.6715608" lon="12.8544754"><ele>1061.0</ele><time>2026-04-10T16:15:39.577Z</time></trkpt><trkpt lat="42.6716905" lon="12.8545498"><ele>1061.0</ele><time>2026-04-10T16:15:40.601Z</time></trkpt><trkpt lat="42.671802" lon="12.8546172"><ele>1061.0</ele><time>2026-04-10T16:15:41.576Z</time></trkpt><trkpt lat="42.6718957" lon="12.8546756"><ele>1061.0</ele><time>2026-04-10T16:15:42.591Z</time></trkpt><trkpt lat="42.6719576" lon="12.8547077"><ele>1061.0</ele><time>2026-04-10T16:15:43.582Z</time></trkpt><trkpt lat="42.6720229" lon="12.854713"><ele>1061.0</ele><time>2026-04-10T16:15:46.597Z</time></trkpt><trkpt lat="42.6721046" lon="12.8547332"><ele>1061.0</ele><time>2026-04-10T16:19:22.602Z</time></trkpt><trkpt lat="42.672233" lon="12.8547255"><ele>1059.25</ele><time>2026-04-10T16:19:24.596Z</time></trkpt><trkpt lat="42.6723569" lon="12.8547038"><ele>1057.5</ele><time>2026-04-10T16:19:25.591Z</time></trkpt><trkpt lat="42.6724883" lon="12.8546828"><ele>1055.75</ele><time>2026-04-10T16:19:26.591Z</time></trkpt><trkpt lat="42.6726174" lon="12.8546832"><ele>1054.0</ele><time>2026-04-10T16:19:27.588Z</time></trkpt><trkpt lat="42.6727443" lon="12.8546889"><ele>1050.75</ele><time>2026-04-10T16:19:28.599Z</time></trkpt><trkpt lat="42.6728645" lon="12.8546997"><ele>1047.5</ele><time>2026-04-10T16:19:29.601Z</time></trkpt><trkpt lat="42.6729883" lon="12.8546992"><ele>1044.25</ele><time>2026-04-10T16:19:30.6Z</time></trkpt><trkpt lat="42.6731047" lon="12.8546975"><ele>1041.0</ele><time>2026-04-10T16:19:31.598Z</time></trkpt><trkpt lat="42.6732256" lon="12.8547089"><ele>1041.0</ele><time>2026-04-10T16:19:32.602Z</time></trkpt><trkpt lat="42.6733429" lon="12.8547382"><ele>1041.0</ele><time>2026-04-10T16:19:33.588Z</time></trkpt><trkpt lat="42.6734511" lon="12.8547959"><ele>1041.0</ele><time>2026-04-10T16:19:34.589Z</time></trkpt><trkpt lat="42.6735452" lon="12.8548693"><ele>1041.0</ele><time>2026-04-10T16:19:35.587Z</time></trkpt><trkpt lat="42.6736367" lon="12.8549667"><ele>1038.0</ele><time>2026-04-10T16:19:36.593Z</time></trkpt><trkpt lat="42.6737151" lon="12.8550765"><ele>1035.0</ele><time>2026-04-10T16:19:37.589Z</time></trkpt><trkpt lat="42.6737925" lon="12.8551968"><ele>1032.0</ele><time>2026-04-10T16:19:38.592Z</time></trkpt><trkpt lat="42.6738752" lon="12.8553258"><ele>1029.0</ele><time>2026-04-10T16:19:39.593Z</time></trkpt><trkpt lat="42.6739608" lon="12.8554294"><ele>1034.3333333333333</ele><time>2026-04-10T16:19:40.584Z</time></trkpt><trkpt lat="42.6740304" lon="12.8555029"><ele>1039.6666666666667</ele><time>2026-04-10T16:19:41.581Z</time></trkpt><trkpt lat="42.6740921" lon="12.8555475"><ele>1045.0</ele><time>2026-04-10T16:19:42.569Z</time></trkpt><trkpt lat="42.6741567" lon="12.8555693"><ele>1050.3333333333335</ele><time>2026-04-10T16:19:43.593Z</time></trkpt><trkpt lat="42.6742229" lon="12.8555466"><ele>1055.6666666666667</ele><time>2026-04-10T16:19:44.584Z</time></trkpt><trkpt lat="42.6742845" lon="12.8554694"><ele>1061.0</ele><time>2026-04-10T16:19:45.577Z</time></trkpt><trkpt lat="42.6743319" lon="12.8553826"><ele>1061.0</ele><time>2026-04-10T16:19:46.581Z</time></trkpt><trkpt lat="42.6743781" lon="12.8552601"><ele>1061.0</ele><time>2026-04-10T16:19:47.595Z</time></trkpt><trkpt lat="42.6744339" lon="12.8551543"><ele>1061.0</ele><time>2026-04-10T16:19:48.576Z</time></trkpt><trkpt lat="42.6744881" lon="12.8550483"><ele>1061.0</ele><time>2026-04-10T16:19:49.59Z</time></trkpt><trkpt lat="42.6745512" lon="12.8550064"><ele>1061.0</ele><time>2026-04-10T16:19:50.585Z</time></trkpt><trkpt lat="42.6746199" lon="12.8549743"><ele>1061.0</ele><time>2026-04-10T16:19:51.585Z</time></trkpt><trkpt lat="42.6746802" lon="12.8549199"><ele>1060.5</ele><time>2026-04-10T16:19:52.576Z</time></trkpt><trkpt lat="42.6747185" lon="12.8548381"><ele>1060.0</ele><time>2026-04-10T16:19:53.581Z</time></trkpt><trkpt lat="42.6747349" lon="12.854727"><ele>1059.5</ele><time>2026-04-10T16:19:54.579Z</time></trkpt><trkpt lat="42.674744" lon="12.8546136"><ele>1059.0</ele><time>2026-04-10T16:19:55.578Z</time></trkpt><trkpt lat="42.6747791" lon="12.8545159"><ele>1058.5</ele><time>2026-04-10T16:19:56.576Z</time></trkpt><trkpt lat="42.6748931" lon="12.8544663"><ele>1058.0</ele><time>2026-04-10T16:19:58.583Z</time></trkpt><trkpt lat="42.6749552" lon="12.8543976"><ele>1058.0</ele><time>2026-04-10T16:19:59.573Z</time></trkpt><trkpt lat="42.6750122" lon="12.8543009"><ele>1058.0</ele><time>2026-04-10T16:20:00.585Z</time></trkpt><trkpt lat="42.6750517" lon="12.8541797"><ele>1058.0</ele><time>2026-04-10T16:20:01.577Z</time></trkpt><trkpt lat="42.6750747" lon="12.8540313"><ele>1058.0</ele><time>2026-04-10T16:20:02.579Z</time></trkpt><trkpt lat="42.6751199" lon="12.8538755"><ele>1058.0</ele><time>2026-04-10T16:20:03.577Z</time></trkpt><trkpt lat="42.6751914" lon="12.8537131"><ele>1058.25</ele><time>2026-04-10T16:20:04.577Z</time></trkpt><trkpt lat="42.675272" lon="12.8535842"><ele>1058.5</ele><time>2026-04-10T16:20:05.579Z</time></trkpt><trkpt lat="42.675359" lon="12.8534796"><ele>1058.75</ele><time>2026-04-10T16:20:06.573Z</time></trkpt><trkpt lat="42.6754275" lon="12.8533601"><ele>1059.0</ele><time>2026-04-10T16:20:07.575Z</time></trkpt><trkpt lat="42.675476" lon="12.8532292"><ele>1052.4</ele><time>2026-04-10T16:20:08.573Z</time></trkpt><trkpt lat="42.6755264" lon="12.8531208"><ele>1045.8000000000002</ele><time>2026-04-10T16:20:09.574Z</time></trkpt><trkpt lat="42.6756006" lon="12.8530708"><ele>1039.1999999999998</ele><time>2026-04-10T16:20:10.582Z</time></trkpt><trkpt lat="42.6756968" lon="12.8530541"><ele>1032.6</ele><time>2026-04-10T16:20:11.575Z</time></trkpt><trkpt lat="42.6758105" lon="12.8530558"><ele>1026.0</ele><time>2026-04-10T16:20:12.577Z</time></trkpt><trkpt lat="42.6759173" lon="12.853061"><ele>1026.0</ele><time>2026-04-10T16:20:13.583Z</time></trkpt><trkpt lat="42.6760179" lon="12.8530895"><ele>1026.0</ele><time>2026-04-10T16:20:14.577Z</time></trkpt><trkpt lat="42.6761064" lon="12.853134"><ele>1026.0</ele><time>2026-04-10T16:20:15.577Z</time></trkpt><trkpt lat="42.6762216" lon="12.8531397"><ele>1026.0</ele><time>2026-04-10T16:20:17.575Z</time></trkpt><trkpt lat="42.6763181" lon="12.8530932"><ele>1026.0</ele><time>2026-04-10T16:20:19.557Z</time></trkpt><trkpt lat="42.6763652" lon="12.8529235"><ele>1025.3333333333333</ele><time>2026-04-10T16:20:21.579Z</time></trkpt><trkpt lat="42.6763612" lon="12.852794"><ele>1024.6666666666667</ele><time>2026-04-10T16:20:22.584Z</time></trkpt><trkpt lat="42.6763633" lon="12.8526784"><ele>1024.0</ele><time>2026-04-10T16:20:23.581Z</time></trkpt><trkpt lat="42.6763856" lon="12.8525782"><ele>1023.3333333333334</ele><time>2026-04-10T16:20:24.58Z</time></trkpt><trkpt lat="42.6764288" lon="12.8524921"><ele>1022.6666666666667</ele><time>2026-04-10T16:20:25.576Z</time></trkpt><trkpt lat="42.6764765" lon="12.8524243"><ele>1022.0</ele><time>2026-04-10T16:20:26.583Z</time></trkpt><trkpt lat="42.6765441" lon="12.8523562"><ele>1022.0</ele><time>2026-04-10T16:20:27.579Z</time></trkpt><trkpt lat="42.6766149" lon="12.8522702"><ele>1022.0</ele><time>2026-04-10T16:20:28.581Z</time></trkpt><trkpt lat="42.6766772" lon="12.8521601"><ele>1022.0</ele><time>2026-04-10T16:20:29.582Z</time></trkpt><trkpt lat="42.6767351" lon="12.8520466"><ele>1022.0</ele><time>2026-04-10T16:20:30.58Z</time></trkpt><trkpt lat="42.6767664" lon="12.8518738"><ele>1022.0</ele><time>2026-04-10T16:20:31.584Z</time></trkpt><trkpt lat="42.6768028" lon="12.8516823"><ele>1029.6666666666667</ele><time>2026-04-10T16:20:32.577Z</time></trkpt><trkpt lat="42.6768558" lon="12.8514755"><ele>1037.3333333333333</ele><time>2026-04-10T16:20:33.572Z</time></trkpt><trkpt lat="42.6769149" lon="12.8512645"><ele>1045.0</ele><time>2026-04-10T16:20:34.572Z</time></trkpt><trkpt lat="42.6769619" lon="12.8510431"><ele>1038.75</ele><time>2026-04-10T16:20:35.575Z</time></trkpt><trkpt lat="42.6770213" lon="12.8508111"><ele>1032.5</ele><time>2026-04-10T16:20:36.585Z</time></trkpt><trkpt lat="42.6770514" lon="12.8506399"><ele>1026.25</ele><time>2026-04-10T16:20:37.573Z</time></trkpt><trkpt lat="42.6770603" lon="12.8504925"><ele>1020.0</ele><time>2026-04-10T16:20:38.563Z</time></trkpt><trkpt lat="42.6770415" lon="12.8503224"><ele>1020.0</ele><time>2026-04-10T16:20:39.565Z</time></trkpt><trkpt lat="42.6770066" lon="12.8501388"><ele>1020.0</ele><time>2026-04-10T16:20:40.573Z</time></trkpt><trkpt lat="42.6769902" lon="12.8499772"><ele>1020.0</ele><time>2026-04-10T16:20:41.575Z</time></trkpt><trkpt lat="42.6769766" lon="12.8498177"><ele>1020.0</ele><time>2026-04-10T16:20:42.576Z</time></trkpt><trkpt lat="42.6770018" lon="12.849655"><ele>1015.0</ele><time>2026-04-10T16:20:43.575Z</time></trkpt><trkpt lat="42.6770635" lon="12.8494642"><ele>1010.0</ele><time>2026-04-10T16:20:44.579Z</time></trkpt><trkpt lat="42.6770868" lon="12.8492892"><ele>1005.0</ele><time>2026-04-10T16:20:45.579Z</time></trkpt><trkpt lat="42.6771199" lon="12.8491284"><ele>1000.0</ele><time>2026-04-10T16:20:46.588Z</time></trkpt><trkpt lat="42.6771485" lon="12.8489599"><ele>994.25</ele><time>2026-04-10T16:20:47.585Z</time></trkpt><trkpt lat="42.6771725" lon="12.8487871"><ele>988.5</ele><time>2026-04-10T16:20:48.599Z</time></trkpt><trkpt lat="42.6771865" lon="12.8486027"><ele>982.75</ele><time>2026-04-10T16:20:49.595Z</time></trkpt><trkpt lat="42.6772065" lon="12.8484087"><ele>977.0</ele><time>2026-04-10T16:20:50.596Z</time></trkpt><trkpt lat="42.6772278" lon="12.8482211"><ele>972.8</ele><time>2026-04-10T16:20:51.602Z</time></trkpt><trkpt lat="42.6772469" lon="12.8480484"><ele>968.6</ele><time>2026-04-10T16:20:52.59Z</time></trkpt><trkpt lat="42.6772703" lon="12.8478926"><ele>964.3999999999999</ele><time>2026-04-10T16:20:53.587Z</time></trkpt><trkpt lat="42.6772963" lon="12.847753"><ele>960.1999999999999</ele><time>2026-04-10T16:20:54.589Z</time></trkpt><trkpt lat="42.6773119" lon="12.8476452"><ele>956.0</ele><time>2026-04-10T16:20:55.58Z</time></trkpt><trkpt lat="42.6773268" lon="12.8475602"><ele>952.5</ele><time>2026-04-10T16:20:56.596Z</time></trkpt><trkpt lat="42.677337" lon="12.8473995"><ele>949.0</ele><time>2026-04-10T16:20:58.597Z</time></trkpt><trkpt lat="42.6773455" lon="12.8472327"><ele>945.5</ele><time>2026-04-10T16:21:00.598Z</time></trkpt><trkpt lat="42.677373" lon="12.8470906"><ele>942.0</ele><time>2026-04-10T16:21:02.586Z</time></trkpt><trkpt lat="42.6774318" lon="12.8469802"><ele>942.0</ele><time>2026-04-10T16:21:04.583Z</time></trkpt><trkpt lat="42.6775167" lon="12.8469671"><ele>942.0</ele><time>2026-04-10T16:21:06.596Z</time></trkpt><trkpt lat="42.6774668" lon="12.8470554"><ele>942.0</ele><time>2026-04-10T16:21:17.585Z</time></trkpt><trkpt lat="42.6774069" lon="12.847163"><ele>942.0</ele><time>2026-04-10T16:21:19.585Z</time></trkpt><trkpt lat="42.677365" lon="12.8472519"><ele>942.0</ele><time>2026-04-10T16:21:20.567Z</time></trkpt><trkpt lat="42.6773502" lon="12.8473527"><ele>942.0</ele><time>2026-04-10T16:21:21.574Z</time></trkpt><trkpt lat="42.6773426" lon="12.8474972"><ele>945.5</ele><time>2026-04-10T16:21:22.57Z</time></trkpt><trkpt lat="42.6773053" lon="12.8476475"><ele>949.0</ele><time>2026-04-10T16:21:23.575Z</time></trkpt><trkpt lat="42.6772644" lon="12.847796"><ele>952.5</ele><time>2026-04-10T16:21:24.582Z</time></trkpt><trkpt lat="42.6772348" lon="12.8479514"><ele>956.0</ele><time>2026-04-10T16:21:25.584Z</time></trkpt><trkpt lat="42.6771794" lon="12.8480916"><ele>956.0</ele><time>2026-04-10T16:21:26.59Z</time></trkpt><trkpt lat="42.6771425" lon="12.8482319"><ele>955.9999999999999</ele><time>2026-04-10T16:21:27.574Z</time></trkpt><trkpt lat="42.6771233" lon="12.8483606"><ele>955.9999999999999</ele><time>2026-04-10T16:21:28.574Z</time></trkpt><trkpt lat="42.6771081" lon="12.8484708"><ele>956.0</ele><time>2026-04-10T16:21:29.582Z</time></trkpt><trkpt lat="42.677104" lon="12.8485664"><ele>956.0</ele><time>2026-04-10T16:21:30.574Z</time></trkpt><trkpt lat="42.6770704" lon="12.848696"><ele>959.5000000000001</ele><time>2026-04-10T16:21:32.579Z</time></trkpt><trkpt lat="42.6770295" lon="12.8487957"><ele>963.0</ele><time>2026-04-10T16:21:34.57Z</time></trkpt><trkpt lat="42.6769728" lon="12.848888"><ele>966.5</ele><time>2026-04-10T16:21:36.576Z</time></trkpt><trkpt lat="42.6768798" lon="12.848952"><ele>970.0</ele><time>2026-04-10T16:21:38.567Z</time></trkpt><trkpt lat="42.6768135" lon="12.848945"><ele>973.5000000000001</ele><time>2026-04-10T16:21:39.58Z</time></trkpt><trkpt lat="42.6767443" lon="12.8488898"><ele>977.0</ele><time>2026-04-10T16:21:40.58Z</time></trkpt><trkpt lat="42.6767144" lon="12.8488006"><ele>964.75</ele><time>2026-04-10T16:21:41.582Z</time></trkpt><trkpt lat="42.6767165" lon="12.8486698"><ele>952.5</ele><time>2026-04-10T16:21:42.571Z</time></trkpt><trkpt lat="42.6767398" lon="12.8485119"><ele>940.25</ele><time>2026-04-10T16:21:43.577Z</time></trkpt><trkpt lat="42.6767768" lon="12.848346"><ele>928.0</ele><time>2026-04-10T16:21:44.598Z</time></trkpt><trkpt lat="42.6769037" lon="12.8479872"><ele>932.6666666666666</ele><time>2026-04-10T16:21:46.6Z</time></trkpt><trkpt lat="42.6769807" lon="12.8477785"><ele>937.3333333333333</ele><time>2026-04-10T16:21:47.593Z</time></trkpt><trkpt lat="42.6770111" lon="12.847562"><ele>942.0</ele><time>2026-04-10T16:21:48.591Z</time></trkpt><trkpt lat="42.6770359" lon="12.8473502"><ele>942.0</ele><time>2026-04-10T16:21:49.588Z</time></trkpt><trkpt lat="42.6770725" lon="12.8471779"><ele>942.0</ele><time>2026-04-10T16:21:50.596Z</time></trkpt><trkpt lat="42.6770804" lon="12.8469876"><ele>942.0</ele><time>2026-04-10T16:21:51.588Z</time></trkpt><trkpt lat="42.6771018" lon="12.8468196"><ele>942.0</ele><time>2026-04-10T16:21:52.595Z</time></trkpt><trkpt lat="42.6771297" lon="12.8466192"><ele>939.0</ele><time>2026-04-10T16:21:53.595Z</time></trkpt><trkpt lat="42.6771609" lon="12.8464125"><ele>936.0</ele><time>2026-04-10T16:21:54.671Z</time></trkpt><trkpt lat="42.6771869" lon="12.8462187"><ele>933.0</ele><time>2026-04-10T16:21:55.672Z</time></trkpt><trkpt lat="42.677214" lon="12.8460185"><ele>929.75</ele><time>2026-04-10T16:21:56.686Z</time></trkpt><trkpt lat="42.6772406" lon="12.8458238"><ele>926.5</ele><time>2026-04-10T16:21:57.673Z</time></trkpt><trkpt lat="42.6772726" lon="12.8456307"><ele>923.25</ele><time>2026-04-10T16:21:58.666Z</time></trkpt><trkpt lat="42.6773116" lon="12.8454439"><ele>920.0</ele><time>2026-04-10T16:21:59.673Z</time></trkpt><trkpt lat="42.6773508" lon="12.8452671"><ele>913.75</ele><time>2026-04-10T16:22:00.677Z</time></trkpt><trkpt lat="42.6773971" lon="12.8451089"><ele>907.5</ele><time>2026-04-10T16:22:01.679Z</time></trkpt><trkpt lat="42.6774704" lon="12.8449464"><ele>901.25</ele><time>2026-04-10T16:22:02.668Z</time></trkpt><trkpt lat="42.6775872" lon="12.844783"><ele>895.0</ele><time>2026-04-10T16:22:03.669Z</time></trkpt><trkpt lat="42.6777301" lon="12.8446785"><ele>892.25</ele><time>2026-04-10T16:22:04.661Z</time></trkpt><trkpt lat="42.6778249" lon="12.8446713"><ele>889.5</ele><time>2026-04-10T16:22:05.657Z</time></trkpt><trkpt lat="42.6779179" lon="12.8447937"><ele>886.75</ele><time>2026-04-10T16:22:06.669Z</time></trkpt><trkpt lat="42.6780259" lon="12.8448909"><ele>884.0</ele><time>2026-04-10T16:22:07.663Z</time></trkpt><trkpt lat="42.6780926" lon="12.8450114"><ele>884.0000000000001</ele><time>2026-04-10T16:22:08.666Z</time></trkpt><trkpt lat="42.6781277" lon="12.845117"><ele>884.0</ele><time>2026-04-10T16:22:09.579Z</time></trkpt><trkpt lat="42.6781534" lon="12.8452353"><ele>884.0</ele><time>2026-04-10T16:22:10.567Z</time></trkpt><trkpt lat="42.6781846" lon="12.8453378"><ele>884.0</ele><time>2026-04-10T16:22:11.571Z</time></trkpt><trkpt lat="42.6782578" lon="12.8453535"><ele>884.0000000000001</ele><time>2026-04-10T16:22:12.573Z</time></trkpt><trkpt lat="42.6783335" lon="12.8452953"><ele>884.0</ele><time>2026-04-10T16:22:13.581Z</time></trkpt><trkpt lat="42.6783717" lon="12.8451909"><ele>884.0</ele><time>2026-04-10T16:22:14.584Z</time></trkpt><trkpt lat="42.6783766" lon="12.8450626"><ele>884.0</ele><time>2026-04-10T16:22:15.581Z</time></trkpt><trkpt lat="42.6783442" lon="12.8449265"><ele>884.0</ele><time>2026-04-10T16:22:16.585Z</time></trkpt><trkpt lat="42.6782765" lon="12.8447782"><ele>884.0</ele><time>2026-04-10T16:22:17.588Z</time></trkpt><trkpt lat="42.6781648" lon="12.8446115"><ele>884.0</ele><time>2026-04-10T16:22:18.587Z</time></trkpt><trkpt lat="42.6780118" lon="12.8444141"><ele>884.0</ele><time>2026-04-10T16:22:19.591Z</time></trkpt><trkpt lat="42.67792" lon="12.844227"><ele>884.0</ele><time>2026-04-10T16:22:20.593Z</time></trkpt><trkpt lat="42.6777972" lon="12.8440651"><ele>882.0</ele><time>2026-04-10T16:22:21.598Z</time></trkpt><trkpt lat="42.677723" lon="12.8439989"><ele>880.0</ele><time>2026-04-10T16:22:22.592Z</time></trkpt><trkpt lat="42.677625" lon="12.844034"><ele>878.0</ele><time>2026-04-10T16:22:23.585Z</time></trkpt><trkpt lat="42.6775006" lon="12.8440511"><ele>876.0</ele><time>2026-04-10T16:22:24.579Z</time></trkpt><trkpt lat="42.6773759" lon="12.8441239"><ele>876.0</ele><time>2026-04-10T16:22:25.576Z</time></trkpt><trkpt lat="42.677258" lon="12.8442369"><ele>876.0</ele><time>2026-04-10T16:22:26.578Z</time></trkpt><trkpt lat="42.67716" lon="12.8443961"><ele>876.0</ele><time>2026-04-10T16:22:27.575Z</time></trkpt><trkpt lat="42.6770662" lon="12.8445796"><ele>875.6666666666667</ele><time>2026-04-10T16:22:28.59Z</time></trkpt><trkpt lat="42.6769641" lon="12.8447805"><ele>875.3333333333334</ele><time>2026-04-10T16:22:29.592Z</time></trkpt><trkpt lat="42.6768864" lon="12.8449787"><ele>875.0</ele><time>2026-04-10T16:22:30.588Z</time></trkpt><trkpt lat="42.6768086" lon="12.8451565"><ele>875.0</ele><time>2026-04-10T16:22:31.596Z</time></trkpt><trkpt lat="42.6767273" lon="12.8453223"><ele>875.0</ele><time>2026-04-10T16:22:32.593Z</time></trkpt><trkpt lat="42.6766557" lon="12.845508"><ele>875.0</ele><time>2026-04-10T16:22:33.596Z</time></trkpt><trkpt lat="42.6765741" lon="12.8456681"><ele>875.0</ele><time>2026-04-10T16:22:34.59Z</time></trkpt><trkpt lat="42.6764964" lon="12.8458289"><ele>879.3333333333334</ele><time>2026-04-10T16:22:35.589Z</time></trkpt><trkpt lat="42.6764257" lon="12.8460205"><ele>883.6666666666667</ele><time>2026-04-10T16:22:36.587Z</time></trkpt><trkpt lat="42.6763673" lon="12.8462083"><ele>888.0</ele><time>2026-04-10T16:22:37.586Z</time></trkpt><trkpt lat="42.6763405" lon="12.8464225"><ele>888.0</ele><time>2026-04-10T16:22:38.576Z</time></trkpt><trkpt lat="42.6763514" lon="12.8465928"><ele>888.0</ele><time>2026-04-10T16:22:39.571Z</time></trkpt><trkpt lat="42.6763998" lon="12.8467353"><ele>888.0</ele><time>2026-04-10T16:22:40.571Z</time></trkpt><trkpt lat="42.6763605" lon="12.8468477"><ele>888.0</ele><time>2026-04-10T16:22:41.567Z</time></trkpt><trkpt lat="42.676279" lon="12.8468866"><ele>888.0</ele><time>2026-04-10T16:22:42.565Z</time></trkpt><trkpt lat="42.6762019" lon="12.8468538"><ele>888.0</ele><time>2026-04-10T16:22:43.556Z</time></trkpt><trkpt lat="42.6761479" lon="12.8468024"><ele>888.0</ele><time>2026-04-10T16:22:44.573Z</time></trkpt><trkpt lat="42.6761025" lon="12.8465828"><ele>888.0</ele><time>2026-04-10T16:22:46.575Z</time></trkpt><trkpt lat="42.6761338" lon="12.8463762"><ele>888.0</ele><time>2026-04-10T16:22:47.572Z</time></trkpt><trkpt lat="42.6761647" lon="12.8461503"><ele>883.6666666666667</ele><time>2026-04-10T16:22:48.575Z</time></trkpt><trkpt lat="42.6762154" lon="12.8459043"><ele>879.3333333333334</ele><time>2026-04-10T16:22:49.573Z</time></trkpt><trkpt lat="42.6762544" lon="12.8455913"><ele>875.0</ele><time>2026-04-10T16:22:50.577Z</time></trkpt><trkpt lat="42.6763086" lon="12.8453061"><ele>869.0</ele><time>2026-04-10T16:22:51.575Z</time></trkpt><trkpt lat="42.6763587" lon="12.8450501"><ele>863.0</ele><time>2026-04-10T16:22:52.587Z</time></trkpt><trkpt lat="42.6763936" lon="12.844786"><ele>857.0</ele><time>2026-04-10T16:22:53.573Z</time></trkpt><trkpt lat="42.6764299" lon="12.8445084"><ele>852.0</ele><time>2026-04-10T16:22:54.58Z</time></trkpt><trkpt lat="42.6764747" lon="12.8442538"><ele>847.0</ele><time>2026-04-10T16:22:55.579Z</time></trkpt><trkpt lat="42.6765053" lon="12.8439778"><ele>842.0</ele><time>2026-04-10T16:22:56.576Z</time></trkpt><trkpt lat="42.6765491" lon="12.8437349"><ele>842.0</ele><time>2026-04-10T16:22:57.578Z</time></trkpt><trkpt lat="42.6765877" lon="12.8435026"><ele>842.0</ele><time>2026-04-10T16:22:58.579Z</time></trkpt><trkpt lat="42.6766391" lon="12.8432908"><ele>842.0</ele><time>2026-04-10T16:22:59.576Z</time></trkpt><trkpt lat="42.6766708" lon="12.8430779"><ele>835.3333333333334</ele><time>2026-04-10T16:23:00.586Z</time></trkpt><trkpt lat="42.6767219" lon="12.8428565"><ele>828.6666666666667</ele><time>2026-04-10T16:23:01.589Z</time></trkpt><trkpt lat="42.6767547" lon="12.8426524"><ele>822.0</ele><time>2026-04-10T16:23:02.588Z</time></trkpt><trkpt lat="42.6767831" lon="12.842464"><ele>818.5</ele><time>2026-04-10T16:23:03.59Z</time></trkpt><trkpt lat="42.6768058" lon="12.8422737"><ele>815.0</ele><time>2026-04-10T16:23:04.59Z</time></trkpt><trkpt lat="42.6768227" lon="12.8420863"><ele>811.5</ele><time>2026-04-10T16:23:05.593Z</time></trkpt><trkpt lat="42.6768116" lon="12.8419149"><ele>808.0</ele><time>2026-04-10T16:23:06.589Z</time></trkpt><trkpt lat="42.6768169" lon="12.841742"><ele>808.5</ele><time>2026-04-10T16:23:07.585Z</time></trkpt><trkpt lat="42.6768511" lon="12.8416061"><ele>809.0</ele><time>2026-04-10T16:23:08.584Z</time></trkpt><trkpt lat="42.6769467" lon="12.8414933"><ele>809.5</ele><time>2026-04-10T16:23:09.582Z</time></trkpt><trkpt lat="42.6770638" lon="12.841416"><ele>810.0</ele><time>2026-04-10T16:23:10.578Z</time></trkpt><trkpt lat="42.6771839" lon="12.8413897"><ele>810.0</ele><time>2026-04-10T16:23:11.588Z</time></trkpt><trkpt lat="42.6772995" lon="12.8413776"><ele>810.0</ele><time>2026-04-10T16:23:12.585Z</time></trkpt><trkpt lat="42.6774107" lon="12.8413592"><ele>810.0</ele><time>2026-04-10T16:23:13.584Z</time></trkpt><trkpt lat="42.677533" lon="12.8413837"><ele>810.0</ele><time>2026-04-10T16:23:14.58Z</time></trkpt><trkpt lat="42.677663" lon="12.8414354"><ele>804.0</ele><time>2026-04-10T16:23:15.58Z</time></trkpt><trkpt lat="42.6777833" lon="12.8414894"><ele>798.0</ele><time>2026-04-10T16:23:16.591Z</time></trkpt><trkpt lat="42.6778998" lon="12.8415385"><ele>792.0</ele><time>2026-04-10T16:23:17.584Z</time></trkpt><trkpt lat="42.6780184" lon="12.8416082"><ele>786.0</ele><time>2026-04-10T16:23:18.584Z</time></trkpt><trkpt lat="42.678143" lon="12.8417127"><ele>793.0</ele><time>2026-04-10T16:23:19.584Z</time></trkpt><trkpt lat="42.6782798" lon="12.8418301"><ele>800.0</ele><time>2026-04-10T16:23:20.58Z</time></trkpt><trkpt lat="42.6783875" lon="12.8419521"><ele>807.0</ele><time>2026-04-10T16:23:21.588Z</time></trkpt><trkpt lat="42.6784874" lon="12.8420934"><ele>814.0</ele><time>2026-04-10T16:23:22.585Z</time></trkpt><trkpt lat="42.6785643" lon="12.8422387"><ele>807.1666666666666</ele><time>2026-04-10T16:23:23.59Z</time></trkpt><trkpt lat="42.6786198" lon="12.842377"><ele>800.3333333333333</ele><time>2026-04-10T16:23:24.582Z</time></trkpt><trkpt lat="42.678667" lon="12.8424797"><ele>793.5</ele><time>2026-04-10T16:23:25.575Z</time></trkpt><trkpt lat="42.6787315" lon="12.8425548"><ele>786.6666666666667</ele><time>2026-04-10T16:23:26.584Z</time></trkpt><trkpt lat="42.6788018" lon="12.8425855"><ele>779.8333333333334</ele><time>2026-04-10T16:23:27.571Z</time></trkpt><trkpt lat="42.6788693" lon="12.8425375"><ele>773.0</ele><time>2026-04-10T16:23:28.564Z</time></trkpt><trkpt lat="42.6789088" lon="12.8424416"><ele>773.0</ele><time>2026-04-10T16:23:29.564Z</time></trkpt><trkpt lat="42.6788985" lon="12.8423238"><ele>773.0</ele><time>2026-04-10T16:23:30.564Z</time></trkpt><trkpt lat="42.6788453" lon="12.8421873"><ele>773.0</ele><time>2026-04-10T16:23:31.561Z</time></trkpt><trkpt lat="42.678775" lon="12.8420364"><ele>773.0</ele><time>2026-04-10T16:23:32.56Z</time></trkpt><trkpt lat="42.6786724" lon="12.8418735"><ele>777.3333333333334</ele><time>2026-04-10T16:23:33.571Z</time></trkpt><trkpt lat="42.6785379" lon="12.8417071"><ele>781.6666666666667</ele><time>2026-04-10T16:23:34.569Z</time></trkpt><trkpt lat="42.6783563" lon="12.8414755"><ele>786.0</ele><time>2026-04-10T16:23:35.584Z</time></trkpt><trkpt lat="42.6782089" lon="12.8412513"><ele>786.0</ele><time>2026-04-10T16:23:36.58Z</time></trkpt><trkpt lat="42.6780467" lon="12.8410437"><ele>786.0</ele><time>2026-04-10T16:23:37.58Z</time></trkpt><trkpt lat="42.6779291" lon="12.8408936"><ele>786.0</ele><time>2026-04-10T16:23:38.58Z</time></trkpt><trkpt lat="42.6778425" lon="12.84076"><ele>785.75</ele><time>2026-04-10T16:23:39.575Z</time></trkpt><trkpt lat="42.6777018" lon="12.8406478"><ele>785.5</ele><time>2026-04-10T16:23:40.581Z</time></trkpt><trkpt lat="42.6776063" lon="12.8405507"><ele>785.25</ele><time>2026-04-10T16:23:41.583Z</time></trkpt><trkpt lat="42.6775092" lon="12.8404308"><ele>785.0</ele><time>2026-04-10T16:23:42.59Z</time></trkpt><trkpt lat="42.6774023" lon="12.8403095"><ele>785.0</ele><time>2026-04-10T16:23:43.587Z</time></trkpt><trkpt lat="42.6773069" lon="12.8401498"><ele>785.0</ele><time>2026-04-10T16:23:44.583Z</time></trkpt><trkpt lat="42.677286" lon="12.8400182"><ele>785.0</ele><time>2026-04-10T16:23:45.587Z</time></trkpt><trkpt lat="42.6772511" lon="12.8398469"><ele>785.0</ele><time>2026-04-10T16:23:46.591Z</time></trkpt><trkpt lat="42.6772259" lon="12.8396637"><ele>779.0</ele><time>2026-04-10T16:23:47.595Z</time></trkpt><trkpt lat="42.6772041" lon="12.8394915"><ele>773.0</ele><time>2026-04-10T16:23:48.592Z</time></trkpt><trkpt lat="42.6772349" lon="12.8393249"><ele>767.0</ele><time>2026-04-10T16:23:49.592Z</time></trkpt><trkpt lat="42.6772612" lon="12.8391835"><ele>761.0</ele><time>2026-04-10T16:23:50.594Z</time></trkpt><trkpt lat="42.6772847" lon="12.8390625"><ele>757.8</ele><time>2026-04-10T16:23:51.596Z</time></trkpt><trkpt lat="42.6772651" lon="12.8389299"><ele>754.5999999999999</ele><time>2026-04-10T16:23:52.597Z</time></trkpt><trkpt lat="42.6772205" lon="12.8388206"><ele>751.4</ele><time>2026-04-10T16:23:53.592Z</time></trkpt><trkpt lat="42.6771518" lon="12.8387498"><ele>748.2</ele><time>2026-04-10T16:23:54.602Z</time></trkpt><trkpt lat="42.6770524" lon="12.8387309"><ele>745.0</ele><time>2026-04-10T16:23:55.586Z</time></trkpt><trkpt lat="42.6769392" lon="12.8387477"><ele>744.25</ele><time>2026-04-10T16:23:56.589Z</time></trkpt><trkpt lat="42.6768448" lon="12.8388189"><ele>743.5</ele><time>2026-04-10T16:23:57.595Z</time></trkpt><trkpt lat="42.6767788" lon="12.8389321"><ele>742.75</ele><time>2026-04-10T16:23:58.586Z</time></trkpt><trkpt lat="42.6767645" lon="12.8390851"><ele>742.0</ele><time>2026-04-10T16:23:59.586Z</time></trkpt><trkpt lat="42.6767804" lon="12.8392574"><ele>744.0</ele><time>2026-04-10T16:24:00.574Z</time></trkpt><trkpt lat="42.676804" lon="12.8394232"><ele>746.0</ele><time>2026-04-10T16:24:01.575Z</time></trkpt><trkpt lat="42.6768081" lon="12.8395755"><ele>748.0</ele><time>2026-04-10T16:24:02.569Z</time></trkpt><trkpt lat="42.6768053" lon="12.8397274"><ele>750.0</ele><time>2026-04-10T16:24:03.571Z</time></trkpt><trkpt lat="42.6767834" lon="12.8398522"><ele>752.0</ele><time>2026-04-10T16:24:04.564Z</time></trkpt><trkpt lat="42.6767277" lon="12.8399158"><ele>752.0</ele><time>2026-04-10T16:24:05.57Z</time></trkpt><trkpt lat="42.6766591" lon="12.8399078"><ele>752.0</ele><time>2026-04-10T16:24:06.572Z</time></trkpt><trkpt lat="42.6765881" lon="12.8397825"><ele>752.0</ele><time>2026-04-10T16:24:08.58Z</time></trkpt><trkpt lat="42.6765711" lon="12.8396623"><ele>752.0</ele><time>2026-04-10T16:24:09.577Z</time></trkpt><trkpt lat="42.6765775" lon="12.8395164"><ele>752.0</ele><time>2026-04-10T16:24:10.578Z</time></trkpt><trkpt lat="42.6765867" lon="12.8393154"><ele>748.6666666666666</ele><time>2026-04-10T16:24:11.586Z</time></trkpt><trkpt lat="42.6765902" lon="12.8390837"><ele>745.3333333333334</ele><time>2026-04-10T16:24:12.583Z</time></trkpt><trkpt lat="42.6765803" lon="12.8388399"><ele>742.0</ele><time>2026-04-10T16:24:13.585Z</time></trkpt><trkpt lat="42.6765282" lon="12.8385163"><ele>739.3333333333334</ele><time>2026-04-10T16:24:14.59Z</time></trkpt><trkpt lat="42.6764955" lon="12.8382246"><ele>736.6666666666666</ele><time>2026-04-10T16:24:15.588Z</time></trkpt><trkpt lat="42.6765348" lon="12.8380096"><ele>734.0</ele><time>2026-04-10T16:24:16.591Z</time></trkpt><trkpt lat="42.6766235" lon="12.8378394"><ele>734.0</ele><time>2026-04-10T16:24:17.585Z</time></trkpt><trkpt lat="42.6767298" lon="12.8377341"><ele>734.0</ele><time>2026-04-10T16:24:18.593Z</time></trkpt><trkpt lat="42.6768196" lon="12.8376935"><ele>734.0</ele><time>2026-04-10T16:24:19.588Z</time></trkpt><trkpt lat="42.6769113" lon="12.8377154"><ele>734.0</ele><time>2026-04-10T16:24:20.589Z</time></trkpt><trkpt lat="42.6770253" lon="12.8378075"><ele>733.2</ele><time>2026-04-10T16:24:21.587Z</time></trkpt><trkpt lat="42.6771209" lon="12.837835"><ele>732.4000000000001</ele><time>2026-04-10T16:24:22.575Z</time></trkpt><trkpt lat="42.6772452" lon="12.8378308"><ele>731.6</ele><time>2026-04-10T16:24:23.575Z</time></trkpt><trkpt lat="42.6773393" lon="12.8377806"><ele>730.8</ele><time>2026-04-10T16:24:24.578Z</time></trkpt><trkpt lat="42.6773914" lon="12.8377306"><ele>730.0</ele><time>2026-04-10T16:24:25.584Z</time></trkpt><trkpt lat="42.6774212" lon="12.8376039"><ele>727.5</ele><time>2026-04-10T16:24:26.586Z</time></trkpt><trkpt lat="42.677407" lon="12.8374556"><ele>725.0</ele><time>2026-04-10T16:24:27.59Z</time></trkpt><trkpt lat="42.6773556" lon="12.8373056"><ele>722.5</ele><time>2026-04-10T16:24:28.582Z</time></trkpt><trkpt lat="42.6772576" lon="12.8372126"><ele>720.0</ele><time>2026-04-10T16:24:29.566Z</time></trkpt><trkpt lat="42.6771144" lon="12.8371518"><ele>720.0</ele><time>2026-04-10T16:24:30.57Z</time></trkpt><trkpt lat="42.676964" lon="12.8371038"><ele>720.0</ele><time>2026-04-10T16:24:31.579Z</time></trkpt><trkpt lat="42.6768149" lon="12.8370722"><ele>720.0</ele><time>2026-04-10T16:24:32.575Z</time></trkpt><trkpt lat="42.6766819" lon="12.8370847"><ele>720.0</ele><time>2026-04-10T16:24:33.572Z</time></trkpt><trkpt lat="42.6765533" lon="12.837126"><ele>720.75</ele><time>2026-04-10T16:24:34.563Z</time></trkpt><trkpt lat="42.6764111" lon="12.8372104"><ele>721.5</ele><time>2026-04-10T16:24:35.569Z</time></trkpt><trkpt lat="42.6763281" lon="12.8373459"><ele>722.25</ele><time>2026-04-10T16:24:36.576Z</time></trkpt><trkpt lat="42.6762705" lon="12.8375032"><ele>723.0</ele><time>2026-04-10T16:24:37.561Z</time></trkpt><trkpt lat="42.6761976" lon="12.8376562"><ele>725.2</ele><time>2026-04-10T16:24:38.556Z</time></trkpt><trkpt lat="42.6761231" lon="12.8377781"><ele>727.4</ele><time>2026-04-10T16:24:39.571Z</time></trkpt><trkpt lat="42.6760445" lon="12.8378287"><ele>729.6</ele><time>2026-04-10T16:24:40.576Z</time></trkpt><trkpt lat="42.6759867" lon="12.8377272"><ele>731.8000000000001</ele><time>2026-04-10T16:24:42.582Z</time></trkpt><trkpt lat="42.6759949" lon="12.8375932"><ele>734.0</ele><time>2026-04-10T16:24:43.583Z</time></trkpt><trkpt lat="42.6760412" lon="12.8374409"><ele>731.25</ele><time>2026-04-10T16:24:44.583Z</time></trkpt><trkpt lat="42.6761075" lon="12.8372976"><ele>728.5</ele><time>2026-04-10T16:24:45.581Z</time></trkpt><trkpt lat="42.6761595" lon="12.8371367"><ele>725.75</ele><time>2026-04-10T16:24:46.568Z</time></trkpt><trkpt lat="42.6762037" lon="12.836973"><ele>723.0</ele><time>2026-04-10T16:24:47.579Z</time></trkpt><trkpt lat="42.676249" lon="12.8368039"><ele>719.75</ele><time>2026-04-10T16:24:48.576Z</time></trkpt><trkpt lat="42.6762696" lon="12.836631"><ele>716.5</ele><time>2026-04-10T16:24:49.581Z</time></trkpt><trkpt lat="42.6762797" lon="12.8364732"><ele>713.25</ele><time>2026-04-10T16:24:50.579Z</time></trkpt><trkpt lat="42.6762922" lon="12.8363276"><ele>710.0</ele><time>2026-04-10T16:24:51.577Z</time></trkpt><trkpt lat="42.6763175" lon="12.8361834"><ele>710.0</ele><time>2026-04-10T16:24:52.569Z</time></trkpt><trkpt lat="42.6763574" lon="12.8360501"><ele>710.0</ele><time>2026-04-10T16:24:53.574Z</time></trkpt><trkpt lat="42.6764225" lon="12.8359569"><ele>710.0</ele><time>2026-04-10T16:24:54.577Z</time></trkpt><trkpt lat="42.6765175" lon="12.8358854"><ele>710.0</ele><time>2026-04-10T16:24:55.578Z</time></trkpt><trkpt lat="42.6766418" lon="12.835859"><ele>710.0</ele><time>2026-04-10T16:24:56.585Z</time></trkpt><trkpt lat="42.6767835" lon="12.8358757"><ele>707.3333333333333</ele><time>2026-04-10T16:24:57.566Z</time></trkpt><trkpt lat="42.6769387" lon="12.8359542"><ele>704.6666666666666</ele><time>2026-04-10T16:24:58.573Z</time></trkpt><trkpt lat="42.6771064" lon="12.8360837"><ele>702.0</ele><time>2026-04-10T16:24:59.564Z</time></trkpt><trkpt lat="42.6772387" lon="12.836224"><ele>702.0</ele><time>2026-04-10T16:25:00.567Z</time></trkpt><trkpt lat="42.6773674" lon="12.8363437"><ele>702.0</ele><time>2026-04-10T16:25:01.571Z</time></trkpt><trkpt lat="42.6774661" lon="12.8364216"><ele>702.0</ele><time>2026-04-10T16:25:02.573Z</time></trkpt><trkpt lat="42.6775609" lon="12.8364533"><ele>702.0</ele><time>2026-04-10T16:25:03.58Z</time></trkpt><trkpt lat="42.6776473" lon="12.8364394"><ele>702.0</ele><time>2026-04-10T16:25:04.602Z</time></trkpt><trkpt lat="42.6777202" lon="12.8363902"><ele>702.0</ele><time>2026-04-10T16:25:05.575Z</time></trkpt><trkpt lat="42.6777598" lon="12.8363163"><ele>702.0</ele><time>2026-04-10T16:25:06.582Z</time></trkpt><trkpt lat="42.6777426" lon="12.8362078"><ele>702.0</ele><time>2026-04-10T16:25:07.589Z</time></trkpt><trkpt lat="42.6776645" lon="12.8361017"><ele>702.0</ele><time>2026-04-10T16:25:08.582Z</time></trkpt><trkpt lat="42.6775442" lon="12.8360276"><ele>702.0</ele><time>2026-04-10T16:25:09.581Z</time></trkpt><trkpt lat="42.6774048" lon="12.8359706"><ele>702.0</ele><time>2026-04-10T16:25:10.574Z</time></trkpt><trkpt lat="42.6772749" lon="12.8358917"><ele>702.0</ele><time>2026-04-10T16:25:11.572Z</time></trkpt><trkpt lat="42.677161" lon="12.8357722"><ele>702.0</ele><time>2026-04-10T16:25:12.583Z</time></trkpt><trkpt lat="42.6770976" lon="12.8356193"><ele>696.0</ele><time>2026-04-10T16:25:13.59Z</time></trkpt><trkpt lat="42.6770536" lon="12.8354625"><ele>690.0</ele><time>2026-04-10T16:25:14.581Z</time></trkpt><trkpt lat="42.6770274" lon="12.8352606"><ele>684.0</ele><time>2026-04-10T16:25:15.576Z</time></trkpt><trkpt lat="42.6769876" lon="12.8350807"><ele>678.0</ele><time>2026-04-10T16:25:16.575Z</time></trkpt><trkpt lat="42.6769215" lon="12.83491"><ele>677.75</ele><time>2026-04-10T16:25:17.58Z</time></trkpt><trkpt lat="42.67683" lon="12.8347707"><ele>677.5</ele><time>2026-04-10T16:25:18.58Z</time></trkpt><trkpt lat="42.6767059" lon="12.8346839"><ele>677.25</ele><time>2026-04-10T16:25:19.581Z</time></trkpt><trkpt lat="42.6765474" lon="12.8346111"><ele>677.0</ele><time>2026-04-10T16:25:20.583Z</time></trkpt><trkpt lat="42.6763459" lon="12.8345677"><ele>677.0</ele><time>2026-04-10T16:25:21.577Z</time></trkpt><trkpt lat="42.6761301" lon="12.8345981"><ele>677.0</ele><time>2026-04-10T16:25:22.572Z</time></trkpt><trkpt lat="42.6759869" lon="12.8346787"><ele>677.0</ele><time>2026-04-10T16:25:23.573Z</time></trkpt><trkpt lat="42.6757855" lon="12.8347848"><ele>673.6666666666666</ele><time>2026-04-10T16:25:24.569Z</time></trkpt><trkpt lat="42.6756371" lon="12.8348185"><ele>670.3333333333334</ele><time>2026-04-10T16:25:25.577Z</time></trkpt><trkpt lat="42.6754934" lon="12.8349107"><ele>667.0</ele><time>2026-04-10T16:25:26.576Z</time></trkpt><trkpt lat="42.6753593" lon="12.8349976"><ele>664.25</ele><time>2026-04-10T16:25:27.579Z</time></trkpt><trkpt lat="42.6752356" lon="12.8351031"><ele>661.5</ele><time>2026-04-10T16:25:28.568Z</time></trkpt><trkpt lat="42.6751536" lon="12.8352306"><ele>658.75</ele><time>2026-04-10T16:25:29.594Z</time></trkpt><trkpt lat="42.6750786" lon="12.8353588"><ele>656.0</ele><time>2026-04-10T16:25:30.588Z</time></trkpt><trkpt lat="42.6750207" lon="12.8354029"><ele>656.0</ele><time>2026-04-10T16:25:31.58Z</time></trkpt><trkpt lat="42.6749378" lon="12.8353404"><ele>656.0</ele><time>2026-04-10T16:25:32.591Z</time></trkpt><trkpt lat="42.6749136" lon="12.8351771"><ele>656.0</ele><time>2026-04-10T16:25:33.585Z</time></trkpt><trkpt lat="42.6748786" lon="12.8349841"><ele>656.0</ele><time>2026-04-10T16:25:34.579Z</time></trkpt><trkpt lat="42.6749342" lon="12.8348599"><ele>653.5</ele><time>2026-04-10T16:25:35.588Z</time></trkpt><trkpt lat="42.6750155" lon="12.834733"><ele>651.0</ele><time>2026-04-10T16:25:36.577Z</time></trkpt><trkpt lat="42.6751113" lon="12.8346063"><ele>648.5</ele><time>2026-04-10T16:25:37.574Z</time></trkpt><trkpt lat="42.6752209" lon="12.83449"><ele>646.0</ele><time>2026-04-10T16:25:38.573Z</time></trkpt><trkpt lat="42.6753393" lon="12.834353"><ele>643.6666666666667</ele><time>2026-04-10T16:25:39.565Z</time></trkpt><trkpt lat="42.6754549" lon="12.834193"><ele>641.3333333333334</ele><time>2026-04-10T16:25:40.572Z</time></trkpt><trkpt lat="42.6755892" lon="12.8340653"><ele>639.0</ele><time>2026-04-10T16:25:41.57Z</time></trkpt><trkpt lat="42.6757508" lon="12.8339361"><ele>639.0</ele><time>2026-04-10T16:25:42.579Z</time></trkpt><trkpt lat="42.6758757" lon="12.8338086"><ele>639.0</ele><time>2026-04-10T16:25:43.57Z</time></trkpt><trkpt lat="42.6760226" lon="12.833677"><ele>639.0</ele><time>2026-04-10T16:25:44.573Z</time></trkpt><trkpt lat="42.6761817" lon="12.8335579"><ele>631.6666666666666</ele><time>2026-04-10T16:25:45.576Z</time></trkpt><trkpt lat="42.6763225" lon="12.833459"><ele>624.3333333333333</ele><time>2026-04-10T16:25:46.585Z</time></trkpt><trkpt lat="42.6764759" lon="12.8333671"><ele>617.0</ele><time>2026-04-10T16:25:47.583Z</time></trkpt><trkpt lat="42.6766585" lon="12.8333079"><ele>617.0</ele><time>2026-04-10T16:25:48.582Z</time></trkpt><trkpt lat="42.6767829" lon="12.833256"><ele>617.0</ele><time>2026-04-10T16:25:49.586Z</time></trkpt><trkpt lat="42.6769213" lon="12.8332426"><ele>617.0</ele><time>2026-04-10T16:25:50.585Z</time></trkpt><trkpt lat="42.6770527" lon="12.833257"><ele>617.0</ele><time>2026-04-10T16:25:51.579Z</time></trkpt><trkpt lat="42.6771771" lon="12.8333053"><ele>616.0</ele><time>2026-04-10T16:25:52.593Z</time></trkpt><trkpt lat="42.6772933" lon="12.8333416"><ele>615.0</ele><time>2026-04-10T16:25:53.584Z</time></trkpt><trkpt lat="42.6773921" lon="12.8334145"><ele>614.0</ele><time>2026-04-10T16:25:54.592Z</time></trkpt><trkpt lat="42.6774976" lon="12.8334438"><ele>613.0</ele><time>2026-04-10T16:25:55.583Z</time></trkpt><trkpt lat="42.677605" lon="12.8334238"><ele>612.0</ele><time>2026-04-10T16:25:56.59Z</time></trkpt><trkpt lat="42.6776877" lon="12.8333706"><ele>612.0</ele><time>2026-04-10T16:25:57.595Z</time></trkpt><trkpt lat="42.6777398" lon="12.8332791"><ele>612.0</ele><time>2026-04-10T16:25:58.591Z</time></trkpt><trkpt lat="42.6777553" lon="12.8331751"><ele>612.0</ele><time>2026-04-10T16:25:59.598Z</time></trkpt><trkpt lat="42.6777227" lon="12.8330647"><ele>612.0</ele><time>2026-04-10T16:26:00.589Z</time></trkpt><trkpt lat="42.6776545" lon="12.8329551"><ele>612.0</ele><time>2026-04-10T16:26:01.592Z</time></trkpt><trkpt lat="42.6775433" lon="12.8328914"><ele>612.0</ele><time>2026-04-10T16:26:02.581Z</time></trkpt><trkpt lat="42.6773957" lon="12.832853"><ele>612.0</ele><time>2026-04-10T16:26:03.591Z</time></trkpt><trkpt lat="42.6772313" lon="12.8328384"><ele>612.0</ele><time>2026-04-10T16:26:04.578Z</time></trkpt><trkpt lat="42.6770552" lon="12.8328231"><ele>614.5</ele><time>2026-04-10T16:26:05.59Z</time></trkpt><trkpt lat="42.6767872" lon="12.8328269"><ele>617.0</ele><time>2026-04-10T16:26:06.585Z</time></trkpt><trkpt lat="42.676524" lon="12.8328289"><ele>617.0</ele><time>2026-04-10T16:26:07.584Z</time></trkpt><trkpt lat="42.6762906" lon="12.8328691"><ele>617.0</ele><time>2026-04-10T16:26:08.583Z</time></trkpt><trkpt lat="42.6760909" lon="12.83291"><ele>617.0</ele><time>2026-04-10T16:26:09.579Z</time></trkpt><trkpt lat="42.6759136" lon="12.832975"><ele>611.6666666666666</ele><time>2026-04-10T16:26:10.579Z</time></trkpt><trkpt lat="42.6757353" lon="12.8330476"><ele>606.3333333333334</ele><time>2026-04-10T16:26:11.576Z</time></trkpt><trkpt lat="42.6755472" lon="12.833097"><ele>601.0</ele><time>2026-04-10T16:26:12.577Z</time></trkpt><trkpt lat="42.6753602" lon="12.8331348"><ele>595.6666666666667</ele><time>2026-04-10T16:26:13.575Z</time></trkpt><trkpt lat="42.6751604" lon="12.8332044"><ele>590.3333333333334</ele><time>2026-04-10T16:26:14.582Z</time></trkpt><trkpt lat="42.6749696" lon="12.8332379"><ele>585.0</ele><time>2026-04-10T16:26:15.575Z</time></trkpt><trkpt lat="42.6748096" lon="12.8332479"><ele>585.0</ele><time>2026-04-10T16:26:16.58Z</time></trkpt><trkpt lat="42.6746584" lon="12.8332602"><ele>585.0</ele><time>2026-04-10T16:26:17.581Z</time></trkpt><trkpt lat="42.6745056" lon="12.833254"><ele>585.0</ele><time>2026-04-10T16:26:18.576Z</time></trkpt><trkpt lat="42.6743329" lon="12.8332489"><ele>580.5</ele><time>2026-04-10T16:26:19.58Z</time></trkpt><trkpt lat="42.6741778" lon="12.8332753"><ele>576.0</ele><time>2026-04-10T16:26:20.575Z</time></trkpt><trkpt lat="42.674033" lon="12.8333012"><ele>571.5</ele><time>2026-04-10T16:26:21.581Z</time></trkpt><trkpt lat="42.6739362" lon="12.8333268"><ele>567.0</ele><time>2026-04-10T16:26:22.588Z</time></trkpt><trkpt lat="42.6738547" lon="12.8333272"><ele>567.0</ele><time>2026-04-10T16:26:23.584Z</time></trkpt><trkpt lat="42.6737773" lon="12.8333118"><ele>567.0</ele><time>2026-04-10T16:26:24.584Z</time></trkpt><trkpt lat="42.6737523" lon="12.8332282"><ele>567.0</ele><time>2026-04-10T16:26:25.593Z</time></trkpt><trkpt lat="42.6737673" lon="12.8331031"><ele>567.0</ele><time>2026-04-10T16:26:26.581Z</time></trkpt><trkpt lat="42.673828" lon="12.8330032"><ele>567.0</ele><time>2026-04-10T16:26:27.587Z</time></trkpt><trkpt lat="42.6738925" lon="12.8329477"><ele>567.0</ele><time>2026-04-10T16:26:28.579Z</time></trkpt><trkpt lat="42.6740012" lon="12.8329348"><ele>567.0</ele><time>2026-04-10T16:26:29.589Z</time></trkpt><trkpt lat="42.6741248" lon="12.8329213"><ele>567.0</ele><time>2026-04-10T16:26:30.592Z</time></trkpt><trkpt lat="42.6742724" lon="12.8328933"><ele>567.0</ele><time>2026-04-10T16:26:31.577Z</time></trkpt><trkpt lat="42.6744302" lon="12.8328603"><ele>567.0</ele><time>2026-04-10T16:26:32.588Z</time></trkpt><trkpt lat="42.6746123" lon="12.8327926"><ele>573.0</ele><time>2026-04-10T16:26:33.584Z</time></trkpt><trkpt lat="42.6747634" lon="12.8327321"><ele>579.0</ele><time>2026-04-10T16:26:34.584Z</time></trkpt><trkpt lat="42.6749165" lon="12.8326359"><ele>585.0</ele><time>2026-04-10T16:26:35.582Z</time></trkpt><trkpt lat="42.6750837" lon="12.8325955"><ele>577.3333333333334</ele><time>2026-04-10T16:26:36.58Z</time></trkpt><trkpt lat="42.6752283" lon="12.8324753"><ele>569.6666666666667</ele><time>2026-04-10T16:26:37.583Z</time></trkpt><trkpt lat="42.6753869" lon="12.8323522"><ele>562.0</ele><time>2026-04-10T16:26:38.577Z</time></trkpt><trkpt lat="42.6755443" lon="12.8322217"><ele>562.0</ele><time>2026-04-10T16:26:39.58Z</time></trkpt><trkpt lat="42.6756937" lon="12.8320949"><ele>562.0</ele><time>2026-04-10T16:26:40.583Z</time></trkpt><trkpt lat="42.6758437" lon="12.8319966"><ele>562.0</ele><time>2026-04-10T16:26:41.587Z</time></trkpt><trkpt lat="42.6759923" lon="12.8318733"><ele>556.6666666666667</ele><time>2026-04-10T16:26:42.586Z</time></trkpt><trkpt lat="42.6761351" lon="12.8317547"><ele>551.3333333333334</ele><time>2026-04-10T16:26:43.586Z</time></trkpt><trkpt lat="42.6762724" lon="12.8316225"><ele>546.0</ele><time>2026-04-10T16:26:44.594Z</time></trkpt><trkpt lat="42.6764244" lon="12.8315059"><ele>546.0</ele><time>2026-04-10T16:26:45.59Z</time></trkpt><trkpt lat="42.6765608" lon="12.8313812"><ele>546.0</ele><time>2026-04-10T16:26:46.602Z</time></trkpt><trkpt lat="42.6766941" lon="12.8312356"><ele>546.0</ele><time>2026-04-10T16:26:47.675Z</time></trkpt><trkpt lat="42.6768323" lon="12.8311051"><ele>544.3333333333334</ele><time>2026-04-10T16:26:48.663Z</time></trkpt><trkpt lat="42.6769517" lon="12.8309239"><ele>542.6666666666667</ele><time>2026-04-10T16:26:49.668Z</time></trkpt><trkpt lat="42.6770657" lon="12.8307288"><ele>541.0</ele><time>2026-04-10T16:26:50.656Z</time></trkpt><trkpt lat="42.6771818" lon="12.8305309"><ele>541.0</ele><time>2026-04-10T16:26:51.659Z</time></trkpt><trkpt lat="42.677294" lon="12.8303418"><ele>541.0</ele><time>2026-04-10T16:26:52.66Z</time></trkpt><trkpt lat="42.6774095" lon="12.8301588"><ele>541.0</ele><time>2026-04-10T16:26:53.654Z</time></trkpt><trkpt lat="42.6775206" lon="12.8299727"><ele>537.0</ele><time>2026-04-10T16:26:54.678Z</time></trkpt><trkpt lat="42.6776385" lon="12.8297994"><ele>533.0</ele><time>2026-04-10T16:26:55.671Z</time></trkpt><trkpt lat="42.6777666" lon="12.82964"><ele>529.0</ele><time>2026-04-10T16:26:56.667Z</time></trkpt><trkpt lat="42.6779007" lon="12.8295002"><ele>523.6666666666667</ele><time>2026-04-10T16:26:57.668Z</time></trkpt><trkpt lat="42.6779885" lon="12.8292886"><ele>518.3333333333334</ele><time>2026-04-10T16:26:58.665Z</time></trkpt><trkpt lat="42.6781205" lon="12.8291629"><ele>513.0</ele><time>2026-04-10T16:26:59.662Z</time></trkpt><trkpt lat="42.6782392" lon="12.8290468"><ele>513.0</ele><time>2026-04-10T16:27:00.664Z</time></trkpt><trkpt lat="42.6783393" lon="12.8289335"><ele>513.0</ele><time>2026-04-10T16:27:01.655Z</time></trkpt><trkpt lat="42.6784282" lon="12.8288307"><ele>513.0</ele><time>2026-04-10T16:27:02.645Z</time></trkpt><trkpt lat="42.6785026" lon="12.8287381"><ele>513.0</ele><time>2026-04-10T16:27:03.629Z</time></trkpt><trkpt lat="42.678562" lon="12.8286599"><ele>513.0</ele><time>2026-04-10T16:27:04.637Z</time></trkpt><trkpt lat="42.6786072" lon="12.8285923"><ele>510.2</ele><time>2026-04-10T16:27:05.646Z</time></trkpt><trkpt lat="42.6786563" lon="12.8284939"><ele>507.4</ele><time>2026-04-10T16:27:07.659Z</time></trkpt><trkpt lat="42.6785758" lon="12.8283449"><ele>504.59999999999997</ele><time>2026-04-10T16:27:10.679Z</time></trkpt><trkpt lat="42.6785056" lon="12.828246"><ele>501.79999999999995</ele><time>2026-04-10T16:27:13.682Z</time></trkpt><trkpt lat="42.6784051" lon="12.8281487"><ele>499.0</ele><time>2026-04-10T16:27:28.677Z</time></trkpt><trkpt lat="42.6783328" lon="12.8280859"><ele>499.0</ele><time>2026-04-10T16:27:29.664Z</time></trkpt><trkpt lat="42.6782414" lon="12.8280603"><ele>499.0</ele><time>2026-04-10T16:27:30.669Z</time></trkpt><trkpt lat="42.6781387" lon="12.8280855"><ele>499.0</ele><time>2026-04-10T16:27:31.675Z</time></trkpt><trkpt lat="42.6780273" lon="12.8281511"><ele>499.0</ele><time>2026-04-10T16:27:32.648Z</time></trkpt><trkpt lat="42.6779217" lon="12.8282445"><ele>499.0</ele><time>2026-04-10T16:27:33.646Z</time></trkpt><trkpt lat="42.6778136" lon="12.8283511"><ele>498.5</ele><time>2026-04-10T16:27:34.645Z</time></trkpt><trkpt lat="42.6776947" lon="12.8284706"><ele>498.0</ele><time>2026-04-10T16:27:35.642Z</time></trkpt><trkpt lat="42.6776408" lon="12.8284249"><ele>497.5</ele><time>2026-04-10T16:27:36.654Z</time></trkpt><trkpt lat="42.6775281" lon="12.8285442"><ele>497.0</ele><time>2026-04-10T16:27:37.648Z</time></trkpt><trkpt lat="42.6774135" lon="12.8286865"><ele>497.0</ele><time>2026-04-10T16:27:38.652Z</time></trkpt><trkpt lat="42.6773003" lon="12.8288444"><ele>497.0</ele><time>2026-04-10T16:27:39.659Z</time></trkpt><trkpt lat="42.677182" lon="12.8290111"><ele>497.0</ele><time>2026-04-10T16:27:40.659Z</time></trkpt><trkpt lat="42.6770627" lon="12.8291849"><ele>490.0</ele><time>2026-04-10T16:27:41.661Z</time></trkpt><trkpt lat="42.6769358" lon="12.8293607"><ele>483.0</ele><time>2026-04-10T16:27:42.664Z</time></trkpt><trkpt lat="42.6766862" lon="12.8297126"><ele>483.0</ele><time>2026-04-10T16:27:44.659Z</time></trkpt><trkpt lat="42.6765559" lon="12.8298791"><ele>483.0</ele><time>2026-04-10T16:27:45.658Z</time></trkpt><trkpt lat="42.6764341" lon="12.8300449"><ele>483.0</ele><time>2026-04-10T16:27:46.659Z</time></trkpt><trkpt lat="42.6763173" lon="12.8302045"><ele>482.33333333333337</ele><time>2026-04-10T16:27:47.663Z</time></trkpt><trkpt lat="42.6762018" lon="12.8303417"><ele>481.6666666666667</ele><time>2026-04-10T16:27:48.659Z</time></trkpt><trkpt lat="42.6760636" lon="12.8304166"><ele>481.0</ele><time>2026-04-10T16:27:49.655Z</time></trkpt><trkpt lat="42.6759164" lon="12.8304539"><ele>481.0</ele><time>2026-04-10T16:27:50.648Z</time></trkpt><trkpt lat="42.6757651" lon="12.8304796"><ele>481.0</ele><time>2026-04-10T16:27:51.645Z</time></trkpt><trkpt lat="42.6756132" lon="12.8305021"><ele>481.0</ele><time>2026-04-10T16:27:52.65Z</time></trkpt><trkpt lat="42.6754544" lon="12.8305305"><ele>481.0</ele><time>2026-04-10T16:27:53.646Z</time></trkpt><trkpt lat="42.6752938" lon="12.8305793"><ele>481.0</ele><time>2026-04-10T16:27:54.665Z</time></trkpt><trkpt lat="42.6751669" lon="12.8306672"><ele>481.0</ele><time>2026-04-10T16:27:55.652Z</time></trkpt><trkpt lat="42.6750698" lon="12.8307911"><ele>481.0</ele><time>2026-04-10T16:27:56.653Z</time></trkpt><trkpt lat="42.6749159" lon="12.8307828"><ele>475.75</ele><time>2026-04-10T16:27:57.554Z</time></trkpt><trkpt lat="42.6748205" lon="12.8308947"><ele>470.5</ele><time>2026-04-10T16:27:58.555Z</time></trkpt><trkpt lat="42.674693" lon="12.8309373"><ele>465.25</ele><time>2026-04-10T16:27:59.554Z</time></trkpt><trkpt lat="42.6745613" lon="12.8309421"><ele>460.0</ele><time>2026-04-10T16:28:00.557Z</time></trkpt><trkpt lat="42.6744372" lon="12.8309221"><ele>458.6666666666667</ele><time>2026-04-10T16:28:01.57Z</time></trkpt><trkpt lat="42.674305" lon="12.8308673"><ele>457.33333333333337</ele><time>2026-04-10T16:28:02.58Z</time></trkpt><trkpt lat="42.6741755" lon="12.8307377"><ele>456.0</ele><time>2026-04-10T16:28:03.565Z</time></trkpt><trkpt lat="42.6740434" lon="12.8306207"><ele>456.0</ele><time>2026-04-10T16:28:04.565Z</time></trkpt><trkpt lat="42.6739122" lon="12.8305127"><ele>456.0</ele><time>2026-04-10T16:28:05.565Z</time></trkpt><trkpt lat="42.6737526" lon="12.8304474"><ele>456.0</ele><time>2026-04-10T16:28:06.561Z</time></trkpt><trkpt lat="42.6735945" lon="12.8303747"><ele>457.66666666666663</ele><time>2026-04-10T16:28:07.564Z</time></trkpt><trkpt lat="42.6734267" lon="12.8303056"><ele>459.3333333333333</ele><time>2026-04-10T16:28:08.562Z</time></trkpt><trkpt lat="42.6732444" lon="12.8302522"><ele>461.0</ele><time>2026-04-10T16:28:09.561Z</time></trkpt><trkpt lat="42.6730695" lon="12.8302457"><ele>461.0</ele><time>2026-04-10T16:28:10.563Z</time></trkpt><trkpt lat="42.6728907" lon="12.8302135"><ele>461.0</ele><time>2026-04-10T16:28:11.567Z</time></trkpt><trkpt lat="42.6727125" lon="12.8301775"><ele>461.0</ele><time>2026-04-10T16:28:12.566Z</time></trkpt><trkpt lat="42.6725418" lon="12.8301436"><ele>458.3333333333333</ele><time>2026-04-10T16:28:13.571Z</time></trkpt><trkpt lat="42.672374" lon="12.830103"><ele>455.66666666666663</ele><time>2026-04-10T16:28:14.568Z</time></trkpt><trkpt lat="42.6722061" lon="12.8301131"><ele>453.0</ele><time>2026-04-10T16:28:15.575Z</time></trkpt><trkpt lat="42.6720536" lon="12.8301626"><ele>446.59999999999997</ele><time>2026-04-10T16:28:16.575Z</time></trkpt><trkpt lat="42.6719288" lon="12.8302236"><ele>440.19999999999993</ele><time>2026-04-10T16:28:17.575Z</time></trkpt><trkpt lat="42.6718493" lon="12.8302785"><ele>433.8</ele><time>2026-04-10T16:28:18.576Z</time></trkpt><trkpt lat="42.6717827" lon="12.830322"><ele>427.4</ele><time>2026-04-10T16:28:19.57Z</time></trkpt><trkpt lat="42.671725" lon="12.8301901"><ele>421.0</ele><time>2026-04-10T16:28:21.578Z</time></trkpt><trkpt lat="42.6717379" lon="12.8300571"><ele>421.20000000000005</ele><time>2026-04-10T16:28:22.578Z</time></trkpt><trkpt lat="42.6717941" lon="12.8299954"><ele>421.40000000000003</ele><time>2026-04-10T16:28:23.574Z</time></trkpt><trkpt lat="42.6718943" lon="12.8299596"><ele>421.6</ele><time>2026-04-10T16:28:24.57Z</time></trkpt><trkpt lat="42.6720091" lon="12.8299404"><ele>421.8</ele><time>2026-04-10T16:28:25.57Z</time></trkpt><trkpt lat="42.6721509" lon="12.829934"><ele>422.0</ele><time>2026-04-10T16:28:26.564Z</time></trkpt><trkpt lat="42.6723123" lon="12.8299207"><ele>422.0</ele><time>2026-04-10T16:28:27.57Z</time></trkpt><trkpt lat="42.6725078" lon="12.8299053"><ele>422.0</ele><time>2026-04-10T16:28:28.57Z</time></trkpt><trkpt lat="42.6726964" lon="12.8299132"><ele>422.0</ele><time>2026-04-10T16:28:29.576Z</time></trkpt><trkpt lat="42.6728945" lon="12.8299095"><ele>420.66666666666663</ele><time>2026-04-10T16:28:30.572Z</time></trkpt><trkpt lat="42.6730736" lon="12.8298905"><ele>419.33333333333337</ele><time>2026-04-10T16:28:31.571Z</time></trkpt><trkpt lat="42.6732626" lon="12.829866"><ele>418.0</ele><time>2026-04-10T16:28:32.572Z</time></trkpt><trkpt lat="42.6734425" lon="12.8298398"><ele>416.33333333333337</ele><time>2026-04-10T16:28:33.582Z</time></trkpt><trkpt lat="42.6736145" lon="12.8298527"><ele>414.66666666666663</ele><time>2026-04-10T16:28:34.577Z</time></trkpt><trkpt lat="42.6737889" lon="12.8298548"><ele>413.0</ele><time>2026-04-10T16:28:35.571Z</time></trkpt><trkpt lat="42.6739486" lon="12.8298846"><ele>413.0</ele><time>2026-04-10T16:28:36.569Z</time></trkpt><trkpt lat="42.6741314" lon="12.8298934"><ele>413.0</ele><time>2026-04-10T16:28:37.566Z</time></trkpt><trkpt lat="42.6742628" lon="12.8298759"><ele>413.0</ele><time>2026-04-10T16:28:38.569Z</time></trkpt><trkpt lat="42.6744203" lon="12.8298501"><ele>415.4</ele><time>2026-04-10T16:28:39.565Z</time></trkpt><trkpt lat="42.6745522" lon="12.8298416"><ele>417.79999999999995</ele><time>2026-04-10T16:28:40.562Z</time></trkpt><trkpt lat="42.6746273" lon="12.8297686"><ele>420.2</ele><time>2026-04-10T16:28:41.564Z</time></trkpt><trkpt lat="42.6747161" lon="12.8296877"><ele>422.6</ele><time>2026-04-10T16:28:42.569Z</time></trkpt><trkpt lat="42.6747482" lon="12.8295904"><ele>425.0</ele><time>2026-04-10T16:28:43.572Z</time></trkpt><trkpt lat="42.6747578" lon="12.8294743"><ele>425.0</ele><time>2026-04-10T16:28:44.574Z</time></trkpt><trkpt lat="42.6747844" lon="12.8293714"><ele>425.0</ele><time>2026-04-10T16:28:45.567Z</time></trkpt><trkpt lat="42.6748866" lon="12.8292852"><ele>425.0</ele><time>2026-04-10T16:28:46.576Z</time></trkpt><trkpt lat="42.6749725" lon="12.8292025"><ele>425.0</ele><time>2026-04-10T16:28:47.575Z</time></trkpt><trkpt lat="42.6750771" lon="12.8291395"><ele>425.0</ele><time>2026-04-10T16:28:48.572Z</time></trkpt><trkpt lat="42.67519" lon="12.8290929"><ele>421.8</ele><time>2026-04-10T16:28:49.567Z</time></trkpt><trkpt lat="42.6753015" lon="12.8290549"><ele>418.6</ele><time>2026-04-10T16:28:50.569Z</time></trkpt><trkpt lat="42.6754099" lon="12.8290399"><ele>415.4</ele><time>2026-04-10T16:28:51.578Z</time></trkpt><trkpt lat="42.6755214" lon="12.8290327"><ele>412.2</ele><time>2026-04-10T16:28:52.569Z</time></trkpt><trkpt lat="42.6756314" lon="12.8289954"><ele>409.0</ele><time>2026-04-10T16:28:53.568Z</time></trkpt><trkpt lat="42.6757218" lon="12.8289106"><ele>409.0</ele><time>2026-04-10T16:28:54.565Z</time></trkpt><trkpt lat="42.6758044" lon="12.828785"><ele>409.0</ele><time>2026-04-10T16:28:55.571Z</time></trkpt><trkpt lat="42.6758667" lon="12.8286004"><ele>409.0</ele><time>2026-04-10T16:28:56.571Z</time></trkpt><trkpt lat="42.6759262" lon="12.8284146"><ele>409.0</ele><time>2026-04-10T16:28:57.575Z</time></trkpt><trkpt lat="42.6759803" lon="12.8281824"><ele>405.33333333333337</ele><time>2026-04-10T16:28:58.57Z</time></trkpt><trkpt lat="42.6760467" lon="12.827965"><ele>401.66666666666663</ele><time>2026-04-10T16:28:59.577Z</time></trkpt><trkpt lat="42.676114" lon="12.8277426"><ele>398.0</ele><time>2026-04-10T16:29:00.573Z</time></trkpt><trkpt lat="42.6762111" lon="12.8275224"><ele>398.0</ele><time>2026-04-10T16:29:01.569Z</time></trkpt><trkpt lat="42.6762484" lon="12.8272871"><ele>398.0</ele><time>2026-04-10T16:29:02.573Z</time></trkpt><trkpt lat="42.6763043" lon="12.827071"><ele>398.0</ele><time>2026-04-10T16:29:03.571Z</time></trkpt><trkpt lat="42.6763703" lon="12.8268438"><ele>389.3333333333333</ele><time>2026-04-10T16:29:04.59Z</time></trkpt><trkpt lat="42.6764153" lon="12.8266091"><ele>380.66666666666663</ele><time>2026-04-10T16:29:05.584Z</time></trkpt><trkpt lat="42.6764753" lon="12.826385"><ele>372.0</ele><time>2026-04-10T16:29:06.575Z</time></trkpt><trkpt lat="42.6765658" lon="12.8261721"><ele>372.0</ele><time>2026-04-10T16:29:07.575Z</time></trkpt><trkpt lat="42.6766647" lon="12.8259826"><ele>372.0</ele><time>2026-04-10T16:29:08.57Z</time></trkpt><trkpt lat="42.6767807" lon="12.825814"><ele>372.0</ele><time>2026-04-10T16:29:09.567Z</time></trkpt><trkpt lat="42.6769089" lon="12.825674"><ele>371.6666666666667</ele><time>2026-04-10T16:29:10.56Z</time></trkpt><trkpt lat="42.6770694" lon="12.8255582"><ele>371.33333333333337</ele><time>2026-04-10T16:29:11.566Z</time></trkpt><trkpt lat="42.67724" lon="12.825424"><ele>371.0</ele><time>2026-04-10T16:29:12.571Z</time></trkpt><trkpt lat="42.6774134" lon="12.8252898"><ele>371.0</ele><time>2026-04-10T16:29:13.569Z</time></trkpt><trkpt lat="42.6775894" lon="12.8251571"><ele>371.0</ele><time>2026-04-10T16:29:14.569Z</time></trkpt><trkpt lat="42.6777574" lon="12.8250502"><ele>371.0</ele><time>2026-04-10T16:29:15.57Z</time></trkpt><trkpt lat="42.677925" lon="12.8249636"><ele>367.33333333333337</ele><time>2026-04-10T16:29:16.57Z</time></trkpt><trkpt lat="42.6780837" lon="12.8248225"><ele>363.6666666666667</ele><time>2026-04-10T16:29:17.571Z</time></trkpt><trkpt lat="42.6782149" lon="12.824643"><ele>360.0</ele><time>2026-04-10T16:29:18.565Z</time></trkpt><trkpt lat="42.6783406" lon="12.8244477"><ele>352.3333333333333</ele><time>2026-04-10T16:29:19.573Z</time></trkpt><trkpt lat="42.6784738" lon="12.8242714"><ele>344.66666666666663</ele><time>2026-04-10T16:29:20.573Z</time></trkpt><trkpt lat="42.6786182" lon="12.8240975"><ele>337.0</ele><time>2026-04-10T16:29:21.581Z</time></trkpt><trkpt lat="42.6787731" lon="12.823991"><ele>337.0</ele><time>2026-04-10T16:29:22.57Z</time></trkpt><trkpt lat="42.6789292" lon="12.823884"><ele>337.0</ele><time>2026-04-10T16:29:23.571Z</time></trkpt><trkpt lat="42.6791024" lon="12.82382"><ele>337.0</ele><time>2026-04-10T16:29:24.579Z</time></trkpt><trkpt lat="42.6792752" lon="12.8237569"><ele>337.0</ele><time>2026-04-10T16:29:25.57Z</time></trkpt><trkpt lat="42.6794677" lon="12.8237355"><ele>337.0</ele><time>2026-04-10T16:29:26.575Z</time></trkpt><trkpt lat="42.6796496" lon="12.8236845"><ele>337.0</ele><time>2026-04-10T16:29:27.574Z</time></trkpt><trkpt lat="42.679832" lon="12.823637"><ele>337.0</ele><time>2026-04-10T16:29:28.566Z</time></trkpt><trkpt lat="42.6800031" lon="12.8235921"><ele>337.0</ele><time>2026-04-10T16:29:29.568Z</time></trkpt><trkpt lat="42.6801614" lon="12.8234943"><ele>337.0</ele><time>2026-04-10T16:29:30.565Z</time></trkpt><trkpt lat="42.680294" lon="12.8233584"><ele>330.66666666666663</ele><time>2026-04-10T16:29:31.571Z</time></trkpt><trkpt lat="42.6804376" lon="12.823187"><ele>324.3333333333333</ele><time>2026-04-10T16:29:32.575Z</time></trkpt><trkpt lat="42.6805671" lon="12.8230207"><ele>318.0</ele><time>2026-04-10T16:29:33.568Z</time></trkpt><trkpt lat="42.6806937" lon="12.822841"><ele>318.0</ele><time>2026-04-10T16:29:34.569Z</time></trkpt><trkpt lat="42.6808178" lon="12.8226673"><ele>318.0</ele><time>2026-04-10T16:29:35.59Z</time></trkpt><trkpt lat="42.6809489" lon="12.8225341"><ele>318.0</ele><time>2026-04-10T16:29:36.579Z</time></trkpt><trkpt lat="42.6811005" lon="12.8224164"><ele>314.75</ele><time>2026-04-10T16:29:37.568Z</time></trkpt><trkpt lat="42.681232" lon="12.8223216"><ele>311.5</ele><time>2026-04-10T16:29:38.573Z</time></trkpt><trkpt lat="42.6813756" lon="12.8222395"><ele>308.25</ele><time>2026-04-10T16:29:39.578Z</time></trkpt><trkpt lat="42.6815092" lon="12.8221698"><ele>305.0</ele><time>2026-04-10T16:29:40.575Z</time></trkpt><trkpt lat="42.681613" lon="12.8220313"><ele>305.0</ele><time>2026-04-10T16:29:41.571Z</time></trkpt><trkpt lat="42.6816626" lon="12.8218366"><ele>305.0</ele><time>2026-04-10T16:29:42.572Z</time></trkpt><trkpt lat="42.6817258" lon="12.8216141"><ele>305.0</ele><time>2026-04-10T16:29:43.574Z</time></trkpt><trkpt lat="42.681792" lon="12.8213963"><ele>302.5</ele><time>2026-04-10T16:29:44.576Z</time></trkpt><trkpt lat="42.6818552" lon="12.8212006"><ele>300.0</ele><time>2026-04-10T16:29:45.576Z</time></trkpt><trkpt lat="42.6819287" lon="12.8210349"><ele>297.5</ele><time>2026-04-10T16:29:46.578Z</time></trkpt><trkpt lat="42.681983" lon="12.8208704"><ele>295.0</ele><time>2026-04-10T16:29:47.578Z</time></trkpt><trkpt lat="42.6820681" lon="12.8207249"><ele>292.0</ele><time>2026-04-10T16:29:48.574Z</time></trkpt><trkpt lat="42.6821581" lon="12.8206012"><ele>289.0</ele><time>2026-04-10T16:29:49.578Z</time></trkpt><trkpt lat="42.682282" lon="12.8205085"><ele>286.0</ele><time>2026-04-10T16:29:50.577Z</time></trkpt><trkpt lat="42.6824464" lon="12.8204899"><ele>283.0</ele><time>2026-04-10T16:29:51.575Z</time></trkpt><trkpt lat="42.6826124" lon="12.8204895"><ele>280.66666666666663</ele><time>2026-04-10T16:29:52.583Z</time></trkpt><trkpt lat="42.6827882" lon="12.8204651"><ele>278.3333333333333</ele><time>2026-04-10T16:29:53.588Z</time></trkpt><trkpt lat="42.6829562" lon="12.8204358"><ele>276.0</ele><time>2026-04-10T16:29:54.584Z</time></trkpt><trkpt lat="42.683116" lon="12.8204245"><ele>276.0</ele><time>2026-04-10T16:29:55.595Z</time></trkpt><trkpt lat="42.683278" lon="12.8203965"><ele>276.0</ele><time>2026-04-10T16:29:56.587Z</time></trkpt><trkpt lat="42.6834609" lon="12.8203713"><ele>276.0</ele><time>2026-04-10T16:29:57.593Z</time></trkpt><trkpt lat="42.6836098" lon="12.8203528"><ele>276.0</ele><time>2026-04-10T16:29:58.594Z</time></trkpt><trkpt lat="42.6837605" lon="12.8203365"><ele>276.0</ele><time>2026-04-10T16:29:59.595Z</time></trkpt><trkpt lat="42.6839034" lon="12.8203243"><ele>276.0</ele><time>2026-04-10T16:30:00.595Z</time></trkpt><trkpt lat="42.6840361" lon="12.8203239"><ele>276.0</ele><time>2026-04-10T16:30:01.585Z</time></trkpt><trkpt lat="42.684137" lon="12.8203047"><ele>276.0</ele><time>2026-04-10T16:30:02.583Z</time></trkpt><trkpt lat="42.68424" lon="12.8202655"><ele>276.0</ele><time>2026-04-10T16:30:03.573Z</time></trkpt><trkpt lat="42.6843509" lon="12.8202259"><ele>276.0</ele><time>2026-04-10T16:30:04.57Z</time></trkpt><trkpt lat="42.6844596" lon="12.8201975"><ele>276.0</ele><time>2026-04-10T16:30:05.593Z</time></trkpt><trkpt lat="42.6845435" lon="12.8201905"><ele>276.0</ele><time>2026-04-10T16:30:06.58Z</time></trkpt><trkpt lat="42.6846302" lon="12.820178"><ele>274.8</ele><time>2026-04-10T16:30:07.585Z</time></trkpt><trkpt lat="42.6847349" lon="12.8201317"><ele>273.6</ele><time>2026-04-10T16:30:08.577Z</time></trkpt><trkpt lat="42.6848442" lon="12.8200902"><ele>272.4</ele><time>2026-04-10T16:30:09.575Z</time></trkpt><trkpt lat="42.6849295" lon="12.8199981"><ele>271.2</ele><time>2026-04-10T16:30:10.583Z</time></trkpt><trkpt lat="42.6850029" lon="12.8198812"><ele>270.0</ele><time>2026-04-10T16:30:11.588Z</time></trkpt><trkpt lat="42.6850801" lon="12.8197596"><ele>270.0</ele><time>2026-04-10T16:30:12.586Z</time></trkpt><trkpt lat="42.68515" lon="12.8196438"><ele>270.0</ele><time>2026-04-10T16:30:13.587Z</time></trkpt><trkpt lat="42.6852192" lon="12.8195136"><ele>270.0</ele><time>2026-04-10T16:30:14.59Z</time></trkpt><trkpt lat="42.6852923" lon="12.8193704"><ele>270.0</ele><time>2026-04-10T16:30:15.586Z</time></trkpt><trkpt lat="42.685377" lon="12.8192289"><ele>271.0</ele><time>2026-04-10T16:30:16.592Z</time></trkpt><trkpt lat="42.6854609" lon="12.8190815"><ele>272.0</ele><time>2026-04-10T16:30:17.584Z</time></trkpt><trkpt lat="42.6855285" lon="12.8189175"><ele>273.0</ele><time>2026-04-10T16:30:18.578Z</time></trkpt><trkpt lat="42.6855523" lon="12.8187464"><ele>274.0</ele><time>2026-04-10T16:30:19.582Z</time></trkpt><trkpt lat="42.6855658" lon="12.8185741"><ele>274.0</ele><time>2026-04-10T16:30:20.583Z</time></trkpt><trkpt lat="42.6856032" lon="12.818452"><ele>274.0</ele><time>2026-04-10T16:30:21.579Z</time></trkpt><trkpt lat="42.6856552" lon="12.8183522"><ele>274.0</ele><time>2026-04-10T16:30:22.586Z</time></trkpt><trkpt lat="42.6857105" lon="12.8182699"><ele>274.0</ele><time>2026-04-10T16:30:24.59Z</time></trkpt><trkpt lat="42.685724" lon="12.8181211"><ele>274.0</ele><time>2026-04-10T16:30:26.591Z</time></trkpt><trkpt lat="42.6857312" lon="12.8180315"><ele>274.0</ele><time>2026-04-10T16:30:27.59Z</time></trkpt><trkpt lat="42.6857515" lon="12.8179245"><ele>274.0</ele><time>2026-04-10T16:30:28.577Z</time></trkpt><trkpt lat="42.6857677" lon="12.8177954"><ele>274.0</ele><time>2026-04-10T16:30:29.576Z</time></trkpt><trkpt lat="42.6857799" lon="12.817638"><ele>274.0</ele><time>2026-04-10T16:30:30.575Z</time></trkpt><trkpt lat="42.6857921" lon="12.8174754"><ele>274.0</ele><time>2026-04-10T16:30:31.574Z</time></trkpt><trkpt lat="42.685818" lon="12.8173127"><ele>276.25</ele><time>2026-04-10T16:30:32.574Z</time></trkpt><trkpt lat="42.6858519" lon="12.8171374"><ele>278.5</ele><time>2026-04-10T16:30:33.562Z</time></trkpt><trkpt lat="42.6859162" lon="12.8169821"><ele>280.75</ele><time>2026-04-10T16:30:34.565Z</time></trkpt><trkpt lat="42.6859814" lon="12.8168275"><ele>283.0</ele><time>2026-04-10T16:30:35.566Z</time></trkpt><trkpt lat="42.6860628" lon="12.8166666"><ele>282.25</ele><time>2026-04-10T16:30:36.58Z</time></trkpt><trkpt lat="42.6861489" lon="12.8165278"><ele>281.5</ele><time>2026-04-10T16:30:37.575Z</time></trkpt><trkpt lat="42.6862133" lon="12.8163446"><ele>280.75</ele><time>2026-04-10T16:30:38.574Z</time></trkpt><trkpt lat="42.6863089" lon="12.8161968"><ele>280.0</ele><time>2026-04-10T16:30:39.574Z</time></trkpt><trkpt lat="42.686396" lon="12.8160477"><ele>280.0</ele><time>2026-04-10T16:30:40.578Z</time></trkpt><trkpt lat="42.6864734" lon="12.8158999"><ele>280.0</ele><time>2026-04-10T16:30:41.579Z</time></trkpt><trkpt lat="42.686535" lon="12.8157622"><ele>280.0</ele><time>2026-04-10T16:30:42.577Z</time></trkpt><trkpt lat="42.6866034" lon="12.8155966"><ele>280.0</ele><time>2026-04-10T16:30:43.577Z</time></trkpt><trkpt lat="42.686654" lon="12.8154548"><ele>280.0</ele><time>2026-04-10T16:30:44.577Z</time></trkpt><trkpt lat="42.6867119" lon="12.8152885"><ele>280.0</ele><time>2026-04-10T16:30:45.575Z</time></trkpt><trkpt lat="42.6867715" lon="12.8151353"><ele>280.0</ele><time>2026-04-10T16:30:46.576Z</time></trkpt><trkpt lat="42.6868252" lon="12.8149947"><ele>280.0</ele><time>2026-04-10T16:30:47.581Z</time></trkpt><trkpt lat="42.6868643" lon="12.8148363"><ele>280.3333333333333</ele><time>2026-04-10T16:30:48.573Z</time></trkpt><trkpt lat="42.6868935" lon="12.8146977"><ele>280.66666666666663</ele><time>2026-04-10T16:30:49.578Z</time></trkpt><trkpt lat="42.6869246" lon="12.8145744"><ele>281.0</ele><time>2026-04-10T16:30:50.575Z</time></trkpt><trkpt lat="42.6869433" lon="12.8144632"><ele>281.3333333333333</ele><time>2026-04-10T16:30:51.574Z</time></trkpt><trkpt lat="42.6869628" lon="12.8143646"><ele>281.6666666666667</ele><time>2026-04-10T16:30:52.575Z</time></trkpt><trkpt lat="42.6869643" lon="12.8142662"><ele>282.0</ele><time>2026-04-10T16:30:53.571Z</time></trkpt><trkpt lat="42.6869219" lon="12.8141568"><ele>284.25</ele><time>2026-04-10T16:30:55.567Z</time></trkpt><trkpt lat="42.6867651" lon="12.8141472"><ele>286.5</ele><time>2026-04-10T16:30:57.575Z</time></trkpt><trkpt lat="42.6866144" lon="12.8141475"><ele>288.75</ele><time>2026-04-10T16:30:58.566Z</time></trkpt><trkpt lat="42.6864752" lon="12.8141641"><ele>291.0</ele><time>2026-04-10T16:30:59.571Z</time></trkpt><trkpt lat="42.6863297" lon="12.8142054"><ele>291.0</ele><time>2026-04-10T16:31:00.569Z</time></trkpt><trkpt lat="42.6861917" lon="12.8142852"><ele>291.0</ele><time>2026-04-10T16:31:01.56Z</time></trkpt><trkpt lat="42.6860754" lon="12.8143864"><ele>291.0</ele><time>2026-04-10T16:31:02.557Z</time></trkpt><trkpt lat="42.6860023" lon="12.814521"><ele>291.0</ele><time>2026-04-10T16:31:03.553Z</time></trkpt><trkpt lat="42.6859637" lon="12.814679"><ele>293.25</ele><time>2026-04-10T16:31:04.557Z</time></trkpt><trkpt lat="42.6859193" lon="12.8148458"><ele>295.5</ele><time>2026-04-10T16:31:05.56Z</time></trkpt><trkpt lat="42.6858484" lon="12.8149663"><ele>297.75</ele><time>2026-04-10T16:31:06.563Z</time></trkpt><trkpt lat="42.6857485" lon="12.8150283"><ele>300.0</ele><time>2026-04-10T16:31:07.568Z</time></trkpt><trkpt lat="42.6856306" lon="12.815078"><ele>298.25</ele><time>2026-04-10T16:31:08.565Z</time></trkpt><trkpt lat="42.6855274" lon="12.8151565"><ele>296.5</ele><time>2026-04-10T16:31:09.555Z</time></trkpt><trkpt lat="42.685435" lon="12.8152611"><ele>294.75</ele><time>2026-04-10T16:31:10.556Z</time></trkpt><trkpt lat="42.685365" lon="12.8153983"><ele>293.0</ele><time>2026-04-10T16:31:11.554Z</time></trkpt><trkpt lat="42.6853166" lon="12.815558"><ele>293.0</ele><time>2026-04-10T16:31:12.555Z</time></trkpt><trkpt lat="42.6852854" lon="12.8157131"><ele>293.0</ele><time>2026-04-10T16:31:13.558Z</time></trkpt><trkpt lat="42.6852588" lon="12.8158739"><ele>293.0</ele><time>2026-04-10T16:31:14.569Z</time></trkpt><trkpt lat="42.6852574" lon="12.8160495"><ele>293.0</ele><time>2026-04-10T16:31:15.57Z</time></trkpt><trkpt lat="42.6852496" lon="12.8162179"><ele>296.1666666666667</ele><time>2026-04-10T16:31:16.573Z</time></trkpt><trkpt lat="42.685241" lon="12.8163577"><ele>299.33333333333337</ele><time>2026-04-10T16:31:17.574Z</time></trkpt><trkpt lat="42.685214" lon="12.8164548"><ele>302.5</ele><time>2026-04-10T16:31:18.577Z</time></trkpt><trkpt lat="42.6851679" lon="12.81652"><ele>305.6666666666667</ele><time>2026-04-10T16:31:19.585Z</time></trkpt><trkpt lat="42.6851029" lon="12.8165517"><ele>308.8333333333333</ele><time>2026-04-10T16:31:21.593Z</time></trkpt><trkpt lat="42.68507" lon="12.8164138"><ele>312.0</ele><time>2026-04-10T16:31:24.601Z</time></trkpt><trkpt lat="42.6850905" lon="12.8163077"><ele>312.0</ele><time>2026-04-10T16:31:26.595Z</time></trkpt><trkpt lat="42.6850931" lon="12.8161671"><ele>312.0</ele><time>2026-04-10T16:31:28.589Z</time></trkpt><trkpt lat="42.6850751" lon="12.8160518"><ele>312.0</ele><time>2026-04-10T16:31:29.586Z</time></trkpt><trkpt lat="42.6850444" lon="12.8159148"><ele>312.0</ele><time>2026-04-10T16:31:30.583Z</time></trkpt><trkpt lat="42.6850186" lon="12.8157593"><ele>312.0</ele><time>2026-04-10T16:31:31.58Z</time></trkpt><trkpt lat="42.6850089" lon="12.815597"><ele>313.1666666666667</ele><time>2026-04-10T16:31:32.584Z</time></trkpt><trkpt lat="42.6850125" lon="12.8154555"><ele>314.3333333333333</ele><time>2026-04-10T16:31:33.58Z</time></trkpt><trkpt lat="42.6850271" lon="12.8153541"><ele>315.5</ele><time>2026-04-10T16:31:34.578Z</time></trkpt><trkpt lat="42.6850065" lon="12.8152085"><ele>316.66666666666663</ele><time>2026-04-10T16:31:36.582Z</time></trkpt><trkpt lat="42.6849785" lon="12.8151158"><ele>317.8333333333333</ele><time>2026-04-10T16:31:37.587Z</time></trkpt><trkpt lat="42.6849486" lon="12.8150392"><ele>319.0</ele><time>2026-04-10T16:31:38.597Z</time></trkpt><trkpt lat="42.6849312" lon="12.814955"><ele>320.3333333333333</ele><time>2026-04-10T16:31:39.59Z</time></trkpt><trkpt lat="42.6849297" lon="12.8148576"><ele>321.66666666666663</ele><time>2026-04-10T16:31:40.584Z</time></trkpt><trkpt lat="42.684963" lon="12.8146981"><ele>323.0</ele><time>2026-04-10T16:31:42.587Z</time></trkpt><trkpt lat="42.6849984" lon="12.8146258"><ele>324.3333333333333</ele><time>2026-04-10T16:31:43.59Z</time></trkpt><trkpt lat="42.6850548" lon="12.8145614"><ele>325.6666666666667</ele><time>2026-04-10T16:31:44.572Z</time></trkpt><trkpt lat="42.6851178" lon="12.8144867"><ele>327.0</ele><time>2026-04-10T16:31:45.584Z</time></trkpt><trkpt lat="42.6851878" lon="12.8144038"><ele>325.5</ele><time>2026-04-10T16:31:46.58Z</time></trkpt><trkpt lat="42.6852644" lon="12.8143249"><ele>324.0</ele><time>2026-04-10T16:31:47.583Z</time></trkpt><trkpt lat="42.6853415" lon="12.8142555"><ele>322.5</ele><time>2026-04-10T16:31:48.588Z</time></trkpt><trkpt lat="42.6854137" lon="12.8141937"><ele>321.0</ele><time>2026-04-10T16:31:49.584Z</time></trkpt><trkpt lat="42.6854857" lon="12.8141424"><ele>319.5</ele><time>2026-04-10T16:31:50.577Z</time></trkpt><trkpt lat="42.6855331" lon="12.814071"><ele>318.0</ele><time>2026-04-10T16:31:51.582Z</time></trkpt><trkpt lat="42.685512" lon="12.8139276"><ele>318.0</ele><time>2026-04-10T16:31:53.574Z</time></trkpt><trkpt lat="42.6854606" lon="12.8137405"><ele>318.0</ele><time>2026-04-10T16:31:55.578Z</time></trkpt><trkpt lat="42.6854431" lon="12.8136257"><ele>318.0</ele><time>2026-04-10T16:31:56.579Z</time></trkpt><trkpt lat="42.6854354" lon="12.8134978"><ele>318.0</ele><time>2026-04-10T16:31:57.586Z</time></trkpt><trkpt lat="42.6854299" lon="12.8133818"><ele>318.0</ele><time>2026-04-10T16:31:58.576Z</time></trkpt><trkpt lat="42.6854289" lon="12.8132907"><ele>318.8</ele><time>2026-04-10T16:31:59.576Z</time></trkpt><trkpt lat="42.6855101" lon="12.81317"><ele>319.6</ele><time>2026-04-10T16:32:01.576Z</time></trkpt><trkpt lat="42.6856148" lon="12.8130851"><ele>320.40000000000003</ele><time>2026-04-10T16:32:03.581Z</time></trkpt><trkpt lat="42.685659" lon="12.8130229"><ele>321.20000000000005</ele><time>2026-04-10T16:32:04.584Z</time></trkpt><trkpt lat="42.6857013" lon="12.8128746"><ele>322.0</ele><time>2026-04-10T16:32:06.581Z</time></trkpt><trkpt lat="42.6857346" lon="12.8127884"><ele>322.0</ele><time>2026-04-10T16:32:07.582Z</time></trkpt><trkpt lat="42.6857622" lon="12.812697"><ele>322.0</ele><time>2026-04-10T16:32:08.585Z</time></trkpt><trkpt lat="42.685789" lon="12.8125961"><ele>322.0</ele><time>2026-04-10T16:32:09.595Z</time></trkpt><trkpt lat="42.6858018" lon="12.8125067"><ele>322.0</ele><time>2026-04-10T16:32:10.587Z</time></trkpt><trkpt lat="42.685799" lon="12.8123977"><ele>322.0</ele><time>2026-04-10T16:32:11.577Z</time></trkpt><trkpt lat="42.6857807" lon="12.8122917"><ele>322.0</ele><time>2026-04-10T16:32:12.579Z</time></trkpt><trkpt lat="42.6857491" lon="12.8121804"><ele>321.3333333333333</ele><time>2026-04-10T16:32:13.574Z</time></trkpt><trkpt lat="42.6856924" lon="12.8120936"><ele>320.66666666666663</ele><time>2026-04-10T16:32:14.583Z</time></trkpt><trkpt lat="42.6856248" lon="12.8120008"><ele>320.0</ele><time>2026-04-10T16:32:15.576Z</time></trkpt><trkpt lat="42.6855708" lon="12.8119227"><ele>319.3333333333333</ele><time>2026-04-10T16:32:16.578Z</time></trkpt><trkpt lat="42.6855189" lon="12.8118356"><ele>318.6666666666667</ele><time>2026-04-10T16:32:17.575Z</time></trkpt><trkpt lat="42.6854537" lon="12.8117427"><ele>318.0</ele><time>2026-04-10T16:32:18.579Z</time></trkpt><trkpt lat="42.6853685" lon="12.8116427"><ele>317.8</ele><time>2026-04-10T16:32:19.587Z</time></trkpt><trkpt lat="42.6852874" lon="12.8115418"><ele>317.6</ele><time>2026-04-10T16:32:20.585Z</time></trkpt><trkpt lat="42.6852039" lon="12.8114522"><ele>317.4</ele><time>2026-04-10T16:32:21.586Z</time></trkpt><trkpt lat="42.6851297" lon="12.8113651"><ele>317.2</ele><time>2026-04-10T16:32:22.576Z</time></trkpt><trkpt lat="42.685063" lon="12.8112794"><ele>317.0</ele><time>2026-04-10T16:32:23.577Z</time></trkpt><trkpt lat="42.6850061" lon="12.8111731"><ele>317.0</ele><time>2026-04-10T16:32:24.574Z</time></trkpt><trkpt lat="42.6849952" lon="12.8110797"><ele>317.0</ele><time>2026-04-10T16:32:25.582Z</time></trkpt><trkpt lat="42.6849821" lon="12.8109831"><ele>317.0</ele><time>2026-04-10T16:32:26.587Z</time></trkpt><trkpt lat="42.684968" lon="12.8108943"><ele>317.0</ele><time>2026-04-10T16:32:27.582Z</time></trkpt><trkpt lat="42.6849279" lon="12.8107812"><ele>317.0</ele><time>2026-04-10T16:32:29.574Z</time></trkpt><trkpt lat="42.6848661" lon="12.8106971"><ele>317.0</ele><time>2026-04-10T16:32:31.579Z</time></trkpt><trkpt lat="42.6847752" lon="12.8105644"><ele>319.0</ele><time>2026-04-10T16:32:33.593Z</time></trkpt><trkpt lat="42.6847416" lon="12.8104583"><ele>321.0</ele><time>2026-04-10T16:32:34.585Z</time></trkpt><trkpt lat="42.6847282" lon="12.8103545"><ele>323.0</ele><time>2026-04-10T16:32:35.589Z</time></trkpt><trkpt lat="42.6847093" lon="12.8102561"><ele>325.0</ele><time>2026-04-10T16:32:36.587Z</time></trkpt><trkpt lat="42.6846651" lon="12.8101062"><ele>327.0</ele><time>2026-04-10T16:32:38.589Z</time></trkpt><trkpt lat="42.6846025" lon="12.8100038"><ele>328.3333333333333</ele><time>2026-04-10T16:32:40.6Z</time></trkpt><trkpt lat="42.6845576" lon="12.8099236"><ele>329.6666666666667</ele><time>2026-04-10T16:32:42.589Z</time></trkpt><trkpt lat="42.684562" lon="12.809838"><ele>331.0</ele><time>2026-04-10T16:32:53.589Z</time></trkpt><trkpt lat="42.684588" lon="12.8096714"><ele>332.33333333333337</ele><time>2026-04-10T16:32:55.574Z</time></trkpt><trkpt lat="42.6845952" lon="12.8095498"><ele>333.6666666666667</ele><time>2026-04-10T16:32:56.578Z</time></trkpt><trkpt lat="42.6846026" lon="12.8094309"><ele>335.0</ele><time>2026-04-10T16:32:57.573Z</time></trkpt><trkpt lat="42.684624" lon="12.8093336"><ele>335.83333333333337</ele><time>2026-04-10T16:32:58.571Z</time></trkpt><trkpt lat="42.6846349" lon="12.8092404"><ele>336.6666666666667</ele><time>2026-04-10T16:33:01.581Z</time></trkpt><trkpt lat="42.6846992" lon="12.8091147"><ele>337.5</ele><time>2026-04-10T16:33:06.586Z</time></trkpt><trkpt lat="42.6847352" lon="12.8090294"><ele>338.3333333333333</ele><time>2026-04-10T16:33:07.578Z</time></trkpt><trkpt lat="42.6847617" lon="12.8089423"><ele>339.16666666666663</ele><time>2026-04-10T16:33:08.576Z</time></trkpt><trkpt lat="42.6847834" lon="12.8088498"><ele>340.0</ele><time>2026-04-10T16:33:09.574Z</time></trkpt><trkpt lat="42.6847903" lon="12.8087598"><ele>340.0</ele><time>2026-04-10T16:33:10.577Z</time></trkpt><trkpt lat="42.684754" lon="12.8086096"><ele>340.0</ele><time>2026-04-10T16:33:12.581Z</time></trkpt><trkpt lat="42.6847436" lon="12.8084461"><ele>340.0</ele><time>2026-04-10T16:33:14.584Z</time></trkpt><trkpt lat="42.6847693" lon="12.8083296"><ele>340.0</ele><time>2026-04-10T16:33:16.591Z</time></trkpt><trkpt lat="42.6848309" lon="12.8082512"><ele>340.0</ele><time>2026-04-10T16:33:18.599Z</time></trkpt><trkpt lat="42.6849067" lon="12.8081445"><ele>341.8</ele><time>2026-04-10T16:33:20.6Z</time></trkpt><trkpt lat="42.6849744" lon="12.8080542"><ele>343.6</ele><time>2026-04-10T16:33:22.58Z</time></trkpt><trkpt lat="42.6850049" lon="12.8079624"><ele>345.4</ele><time>2026-04-10T16:33:25.58Z</time></trkpt><trkpt lat="42.6849819" lon="12.8078269"><ele>347.2</ele><time>2026-04-10T16:33:27.588Z</time></trkpt><trkpt lat="42.6849306" lon="12.8077181"><ele>349.0</ele><time>2026-04-10T16:33:29.58Z</time></trkpt><trkpt lat="42.6848411" lon="12.8076099"><ele>349.3333333333333</ele><time>2026-04-10T16:33:31.587Z</time></trkpt><trkpt lat="42.6847991" lon="12.8075382"><ele>349.66666666666663</ele><time>2026-04-10T16:33:32.585Z</time></trkpt><trkpt lat="42.6847484" lon="12.8073791"><ele>350.0</ele><time>2026-04-10T16:33:34.575Z</time></trkpt><trkpt lat="42.6847216" lon="12.8072887"><ele>350.3333333333333</ele><time>2026-04-10T16:33:35.579Z</time></trkpt><trkpt lat="42.6846884" lon="12.807195"><ele>350.6666666666667</ele><time>2026-04-10T16:33:36.583Z</time></trkpt><trkpt lat="42.6846469" lon="12.8071099"><ele>351.0</ele><time>2026-04-10T16:33:37.583Z</time></trkpt><trkpt lat="42.6846159" lon="12.8070238"><ele>351.0</ele><time>2026-04-10T16:33:38.584Z</time></trkpt><trkpt lat="42.6845848" lon="12.8069279"><ele>351.0</ele><time>2026-04-10T16:33:39.581Z</time></trkpt><trkpt lat="42.6845572" lon="12.8068202"><ele>351.0</ele><time>2026-04-10T16:33:40.58Z</time></trkpt><trkpt lat="42.6845282" lon="12.8067165"><ele>351.0</ele><time>2026-04-10T16:33:41.578Z</time></trkpt><trkpt lat="42.6844851" lon="12.8066253"><ele>351.0</ele><time>2026-04-10T16:33:42.59Z</time></trkpt><trkpt lat="42.6844571" lon="12.8065368"><ele>351.0</ele><time>2026-04-10T16:33:43.587Z</time></trkpt><trkpt lat="42.6844361" lon="12.8064494"><ele>351.8333333333333</ele><time>2026-04-10T16:33:44.587Z</time></trkpt><trkpt lat="42.6844146" lon="12.8063616"><ele>352.6666666666667</ele><time>2026-04-10T16:33:45.584Z</time></trkpt><trkpt lat="42.6843846" lon="12.8062566"><ele>353.5</ele><time>2026-04-10T16:33:46.586Z</time></trkpt><trkpt lat="42.6843506" lon="12.8061553"><ele>354.33333333333337</ele><time>2026-04-10T16:33:47.584Z</time></trkpt><trkpt lat="42.6843131" lon="12.806074"><ele>355.1666666666667</ele><time>2026-04-10T16:33:48.588Z</time></trkpt><trkpt lat="42.6842754" lon="12.8059283"><ele>356.0</ele><time>2026-04-10T16:33:50.583Z</time></trkpt><trkpt lat="42.6842858" lon="12.8057759"><ele>356.8</ele><time>2026-04-10T16:33:52.584Z</time></trkpt><trkpt lat="42.684328" lon="12.8056312"><ele>357.6</ele><time>2026-04-10T16:33:54.586Z</time></trkpt><trkpt lat="42.6844001" lon="12.8055497"><ele>358.4</ele><time>2026-04-10T16:33:56.59Z</time></trkpt><trkpt lat="42.6844974" lon="12.8055243"><ele>359.2</ele><time>2026-04-10T16:33:58.59Z</time></trkpt><trkpt lat="42.6846086" lon="12.8054987"><ele>360.0</ele><time>2026-04-10T16:34:00.581Z</time></trkpt><trkpt lat="42.6846885" lon="12.8054805"><ele>360.0</ele><time>2026-04-10T16:34:01.574Z</time></trkpt><trkpt lat="42.6847608" lon="12.8054785"><ele>360.0</ele><time>2026-04-10T16:34:02.569Z</time></trkpt><trkpt lat="42.6848406" lon="12.8054919"><ele>360.0</ele><time>2026-04-10T16:34:03.561Z</time></trkpt><trkpt lat="42.6849309" lon="12.8055382"><ele>360.0</ele><time>2026-04-10T16:34:04.569Z</time></trkpt><trkpt lat="42.6850019" lon="12.805571"><ele>360.0</ele><time>2026-04-10T16:34:05.579Z</time></trkpt><trkpt lat="42.6850847" lon="12.805594"><ele>360.0</ele><time>2026-04-10T16:34:06.573Z</time></trkpt><trkpt lat="42.6851947" lon="12.8055705"><ele>360.0</ele><time>2026-04-10T16:34:08.58Z</time></trkpt><trkpt lat="42.6852419" lon="12.8054907"><ele>360.0</ele><time>2026-04-10T16:34:10.595Z</time></trkpt><trkpt lat="42.6852921" lon="12.8053361"><ele>360.0</ele><time>2026-04-10T16:34:12.584Z</time></trkpt><trkpt lat="42.6853247" lon="12.8052504"><ele>360.0</ele><time>2026-04-10T16:34:13.599Z</time></trkpt><trkpt lat="42.685369" lon="12.8051552"><ele>360.0</ele><time>2026-04-10T16:34:14.58Z</time></trkpt><trkpt lat="42.6854083" lon="12.8050502"><ele>360.0</ele><time>2026-04-10T16:34:15.572Z</time></trkpt><trkpt lat="42.6854464" lon="12.8049435"><ele>356.1666666666667</ele><time>2026-04-10T16:34:16.573Z</time></trkpt><trkpt lat="42.6854719" lon="12.804846"><ele>352.3333333333333</ele><time>2026-04-10T16:34:17.57Z</time></trkpt><trkpt lat="42.6854925" lon="12.8047388"><ele>348.5</ele><time>2026-04-10T16:34:18.573Z</time></trkpt><trkpt lat="42.6855003" lon="12.8046316"><ele>344.66666666666663</ele><time>2026-04-10T16:34:19.562Z</time></trkpt><trkpt lat="42.6854703" lon="12.8045192"><ele>340.8333333333333</ele><time>2026-04-10T16:34:20.562Z</time></trkpt><trkpt lat="42.6854282" lon="12.8044237"><ele>337.0</ele><time>2026-04-10T16:34:21.554Z</time></trkpt><trkpt lat="42.6853943" lon="12.8043475"><ele>339.3333333333333</ele><time>2026-04-10T16:34:22.554Z</time></trkpt><trkpt lat="42.6854257" lon="12.8042609"><ele>341.66666666666663</ele><time>2026-04-10T16:34:24.553Z</time></trkpt><trkpt lat="42.6854888" lon="12.804211"><ele>344.0</ele><time>2026-04-10T16:34:25.557Z</time></trkpt><trkpt lat="42.6855577" lon="12.8041443"><ele>346.3333333333333</ele><time>2026-04-10T16:34:26.557Z</time></trkpt><trkpt lat="42.6856309" lon="12.8040734"><ele>348.6666666666667</ele><time>2026-04-10T16:34:27.553Z</time></trkpt><trkpt lat="42.6857177" lon="12.803983"><ele>351.0</ele><time>2026-04-10T16:34:28.551Z</time></trkpt><trkpt lat="42.6858058" lon="12.8039042"><ele>351.0</ele><time>2026-04-10T16:34:29.556Z</time></trkpt><trkpt lat="42.6858776" lon="12.8038021"><ele>351.0</ele><time>2026-04-10T16:34:30.556Z</time></trkpt><trkpt lat="42.6859627" lon="12.8037169"><ele>351.0</ele><time>2026-04-10T16:34:31.552Z</time></trkpt><trkpt lat="42.6860505" lon="12.803644"><ele>351.0</ele><time>2026-04-10T16:34:32.554Z</time></trkpt><trkpt lat="42.6861386" lon="12.803564"><ele>351.0</ele><time>2026-04-10T16:34:33.553Z</time></trkpt><trkpt lat="42.6862277" lon="12.8034885"><ele>348.6</ele><time>2026-04-10T16:34:34.562Z</time></trkpt><trkpt lat="42.6863121" lon="12.8034211"><ele>346.20000000000005</ele><time>2026-04-10T16:34:35.566Z</time></trkpt><trkpt lat="42.6863911" lon="12.8033518"><ele>343.79999999999995</ele><time>2026-04-10T16:34:36.565Z</time></trkpt><trkpt lat="42.6864765" lon="12.8033003"><ele>341.4</ele><time>2026-04-10T16:34:37.565Z</time></trkpt><trkpt lat="42.686558" lon="12.8032312"><ele>339.0</ele><time>2026-04-10T16:34:38.565Z</time></trkpt><trkpt lat="42.6866425" lon="12.8031715"><ele>339.0</ele><time>2026-04-10T16:34:39.569Z</time></trkpt><trkpt lat="42.6867213" lon="12.8031234"><ele>339.0</ele><time>2026-04-10T16:34:40.566Z</time></trkpt><trkpt lat="42.6867932" lon="12.8030704"><ele>339.0</ele><time>2026-04-10T16:34:41.568Z</time></trkpt><trkpt lat="42.6868852" lon="12.8030229"><ele>339.0</ele><time>2026-04-10T16:34:42.566Z</time></trkpt><trkpt lat="42.6869515" lon="12.8029701"><ele>339.0</ele><time>2026-04-10T16:34:43.577Z</time></trkpt><trkpt lat="42.6870381" lon="12.8028666"><ele>337.0</ele><time>2026-04-10T16:34:45.582Z</time></trkpt><trkpt lat="42.6870757" lon="12.8027675"><ele>335.0</ele><time>2026-04-10T16:34:47.576Z</time></trkpt><trkpt lat="42.6871144" lon="12.8026552"><ele>333.0</ele><time>2026-04-10T16:34:49.577Z</time></trkpt><trkpt lat="42.6871881" lon="12.8025575"><ele>331.0</ele><time>2026-04-10T16:34:51.579Z</time></trkpt><trkpt lat="42.6872124" lon="12.8024565"><ele>329.0</ele><time>2026-04-10T16:34:52.583Z</time></trkpt><trkpt lat="42.6872536" lon="12.8023344"><ele>329.0</ele><time>2026-04-10T16:34:53.58Z</time></trkpt><trkpt lat="42.6873175" lon="12.8022243"><ele>329.0</ele><time>2026-04-10T16:34:54.582Z</time></trkpt><trkpt lat="42.6873842" lon="12.802119"><ele>329.0</ele><time>2026-04-10T16:34:55.582Z</time></trkpt><trkpt lat="42.6874691" lon="12.8020311"><ele>329.0</ele><time>2026-04-10T16:34:56.581Z</time></trkpt><trkpt lat="42.6875543" lon="12.8019391"><ele>329.0</ele><time>2026-04-10T16:34:57.579Z</time></trkpt><trkpt lat="42.6876343" lon="12.8018339"><ele>331.0</ele><time>2026-04-10T16:34:58.581Z</time></trkpt><trkpt lat="42.6877216" lon="12.8017155"><ele>333.0</ele><time>2026-04-10T16:34:59.579Z</time></trkpt><trkpt lat="42.6878064" lon="12.8015823"><ele>335.0</ele><time>2026-04-10T16:35:00.58Z</time></trkpt><trkpt lat="42.6879068" lon="12.8014668"><ele>337.0</ele><time>2026-04-10T16:35:01.578Z</time></trkpt><trkpt lat="42.6880122" lon="12.8013572"><ele>341.75</ele><time>2026-04-10T16:35:02.579Z</time></trkpt><trkpt lat="42.6881036" lon="12.8012329"><ele>346.5</ele><time>2026-04-10T16:35:03.572Z</time></trkpt><trkpt lat="42.6881822" lon="12.8010979"><ele>351.25</ele><time>2026-04-10T16:35:04.564Z</time></trkpt><trkpt lat="42.6882411" lon="12.8009476"><ele>356.0</ele><time>2026-04-10T16:35:05.563Z</time></trkpt><trkpt lat="42.6882933" lon="12.800789"><ele>356.25</ele><time>2026-04-10T16:35:06.566Z</time></trkpt><trkpt lat="42.6883417" lon="12.8006289"><ele>356.5</ele><time>2026-04-10T16:35:07.565Z</time></trkpt><trkpt lat="42.6883749" lon="12.8004614"><ele>356.75</ele><time>2026-04-10T16:35:08.563Z</time></trkpt><trkpt lat="42.6883833" lon="12.800285"><ele>357.0</ele><time>2026-04-10T16:35:09.558Z</time></trkpt><trkpt lat="42.6883639" lon="12.8001152"><ele>360.0</ele><time>2026-04-10T16:35:10.559Z</time></trkpt><trkpt lat="42.6883566" lon="12.7999421"><ele>363.0</ele><time>2026-04-10T16:35:11.562Z</time></trkpt><trkpt lat="42.6883752" lon="12.7997524"><ele>366.0</ele><time>2026-04-10T16:35:12.556Z</time></trkpt><trkpt lat="42.6884074" lon="12.7995661"><ele>369.0</ele><time>2026-04-10T16:35:13.55Z</time></trkpt><trkpt lat="42.6884371" lon="12.7993722"><ele>368.5</ele><time>2026-04-10T16:35:14.561Z</time></trkpt><trkpt lat="42.6884828" lon="12.7991926"><ele>368.0</ele><time>2026-04-10T16:35:15.556Z</time></trkpt><trkpt lat="42.6885752" lon="12.7990454"><ele>367.5</ele><time>2026-04-10T16:35:16.556Z</time></trkpt><trkpt lat="42.6886646" lon="12.7988582"><ele>367.0</ele><time>2026-04-10T16:35:17.555Z</time></trkpt><trkpt lat="42.6887186" lon="12.7986819"><ele>367.0</ele><time>2026-04-10T16:35:18.554Z</time></trkpt><trkpt lat="42.6887613" lon="12.7985034"><ele>367.0</ele><time>2026-04-10T16:35:19.566Z</time></trkpt><trkpt lat="42.6888362" lon="12.798335"><ele>367.0</ele><time>2026-04-10T16:35:20.566Z</time></trkpt><trkpt lat="42.6888505" lon="12.7981575"><ele>367.0</ele><time>2026-04-10T16:35:21.566Z</time></trkpt><trkpt lat="42.6889256" lon="12.7980049"><ele>364.8</ele><time>2026-04-10T16:35:22.567Z</time></trkpt><trkpt lat="42.6890212" lon="12.7979089"><ele>362.6</ele><time>2026-04-10T16:35:23.57Z</time></trkpt><trkpt lat="42.689131" lon="12.7978441"><ele>360.40000000000003</ele><time>2026-04-10T16:35:24.574Z</time></trkpt><trkpt lat="42.6892315" lon="12.7977931"><ele>358.20000000000005</ele><time>2026-04-10T16:35:25.572Z</time></trkpt><trkpt lat="42.6893297" lon="12.7977628"><ele>356.0</ele><time>2026-04-10T16:35:26.572Z</time></trkpt><trkpt lat="42.6893744" lon="12.7976305"><ele>355.83333333333337</ele><time>2026-04-10T16:35:27.568Z</time></trkpt><trkpt lat="42.68939" lon="12.7974909"><ele>355.6666666666667</ele><time>2026-04-10T16:35:28.579Z</time></trkpt><trkpt lat="42.6894043" lon="12.797377"><ele>355.5</ele><time>2026-04-10T16:35:29.577Z</time></trkpt><trkpt lat="42.6894288" lon="12.7972692"><ele>355.3333333333333</ele><time>2026-04-10T16:35:30.573Z</time></trkpt><trkpt lat="42.6894568" lon="12.7971633"><ele>355.16666666666663</ele><time>2026-04-10T16:35:31.565Z</time></trkpt><trkpt lat="42.6894947" lon="12.7970529"><ele>355.0</ele><time>2026-04-10T16:35:32.573Z</time></trkpt><trkpt lat="42.6895498" lon="12.7969539"><ele>357.3333333333333</ele><time>2026-04-10T16:35:33.571Z</time></trkpt><trkpt lat="42.6895941" lon="12.7968628"><ele>359.66666666666663</ele><time>2026-04-10T16:35:34.571Z</time></trkpt><trkpt lat="42.6896213" lon="12.7967718"><ele>362.0</ele><time>2026-04-10T16:35:35.575Z</time></trkpt><trkpt lat="42.6896351" lon="12.7966481"><ele>364.3333333333333</ele><time>2026-04-10T16:35:36.565Z</time></trkpt><trkpt lat="42.6896687" lon="12.796524"><ele>366.6666666666667</ele><time>2026-04-10T16:35:37.567Z</time></trkpt><trkpt lat="42.689694" lon="12.7964115"><ele>369.0</ele><time>2026-04-10T16:35:38.565Z</time></trkpt><trkpt lat="42.6897159" lon="12.7963221"><ele>369.0</ele><time>2026-04-10T16:35:39.568Z</time></trkpt><trkpt lat="42.6896223" lon="12.7961939"><ele>369.0</ele><time>2026-04-10T16:35:42.574Z</time></trkpt><trkpt lat="42.6895533" lon="12.7961721"><ele>369.0</ele><time>2026-04-10T16:35:43.572Z</time></trkpt><trkpt lat="42.6894638" lon="12.7961703"><ele>369.0</ele><time>2026-04-10T16:35:44.569Z</time></trkpt><trkpt lat="42.6893594" lon="12.7961876"><ele>369.0</ele><time>2026-04-10T16:35:45.58Z</time></trkpt><trkpt lat="42.6892556" lon="12.7962221"><ele>367.4</ele><time>2026-04-10T16:35:46.578Z</time></trkpt><trkpt lat="42.6891461" lon="12.796263"><ele>365.79999999999995</ele><time>2026-04-10T16:35:47.568Z</time></trkpt><trkpt lat="42.6890413" lon="12.7962791"><ele>364.20000000000005</ele><time>2026-04-10T16:35:48.568Z</time></trkpt><trkpt lat="42.6889496" lon="12.7962559"><ele>362.6</ele><time>2026-04-10T16:35:49.584Z</time></trkpt><trkpt lat="42.6888866" lon="12.7961717"><ele>361.0</ele><time>2026-04-10T16:35:50.578Z</time></trkpt><trkpt lat="42.6888454" lon="12.7960566"><ele>362.0</ele><time>2026-04-10T16:35:51.564Z</time></trkpt><trkpt lat="42.688811" lon="12.7959195"><ele>363.0</ele><time>2026-04-10T16:35:52.565Z</time></trkpt><trkpt lat="42.6887992" lon="12.7957719"><ele>364.0</ele><time>2026-04-10T16:35:53.567Z</time></trkpt><trkpt lat="42.6888068" lon="12.7956222"><ele>365.0</ele><time>2026-04-10T16:35:54.573Z</time></trkpt><trkpt lat="42.6888565" lon="12.7954818"><ele>366.0</ele><time>2026-04-10T16:35:55.565Z</time></trkpt><trkpt lat="42.6889064" lon="12.7953542"><ele>366.0</ele><time>2026-04-10T16:35:56.57Z</time></trkpt><trkpt lat="42.6889595" lon="12.7952266"><ele>366.0</ele><time>2026-04-10T16:35:57.575Z</time></trkpt><trkpt lat="42.689014" lon="12.7951002"><ele>366.0</ele><time>2026-04-10T16:35:58.569Z</time></trkpt><trkpt lat="42.6890902" lon="12.7949889"><ele>366.0</ele><time>2026-04-10T16:35:59.58Z</time></trkpt><trkpt lat="42.6891724" lon="12.7948835"><ele>366.0</ele><time>2026-04-10T16:36:00.565Z</time></trkpt><trkpt lat="42.6892595" lon="12.7947844"><ele>368.4</ele><time>2026-04-10T16:36:01.567Z</time></trkpt><trkpt lat="42.6893414" lon="12.7946863"><ele>370.8</ele><time>2026-04-10T16:36:02.562Z</time></trkpt><trkpt lat="42.6894201" lon="12.7945737"><ele>373.2</ele><time>2026-04-10T16:36:03.563Z</time></trkpt><trkpt lat="42.6894647" lon="12.7944377"><ele>375.59999999999997</ele><time>2026-04-10T16:36:04.569Z</time></trkpt><trkpt lat="42.6894834" lon="12.7943122"><ele>378.0</ele><time>2026-04-10T16:36:05.569Z</time></trkpt><trkpt lat="42.689481" lon="12.7941714"><ele>382.25</ele><time>2026-04-10T16:36:06.559Z</time></trkpt><trkpt lat="42.6894438" lon="12.7940119"><ele>386.5</ele><time>2026-04-10T16:36:07.561Z</time></trkpt><trkpt lat="42.6893931" lon="12.7938376"><ele>390.75</ele><time>2026-04-10T16:36:08.556Z</time></trkpt><trkpt lat="42.6893567" lon="12.7936635"><ele>395.0</ele><time>2026-04-10T16:36:09.555Z</time></trkpt><trkpt lat="42.6893173" lon="12.7934897"><ele>396.6</ele><time>2026-04-10T16:36:10.557Z</time></trkpt><trkpt lat="42.6893208" lon="12.7933728"><ele>398.2</ele><time>2026-04-10T16:36:11.55Z</time></trkpt><trkpt lat="42.6893546" lon="12.7932748"><ele>399.79999999999995</ele><time>2026-04-10T16:36:13.571Z</time></trkpt><trkpt lat="42.6892517" lon="12.7934127"><ele>401.4</ele><time>2026-04-10T16:36:16.579Z</time></trkpt><trkpt lat="42.6892127" lon="12.7935512"><ele>403.0</ele><time>2026-04-10T16:36:17.571Z</time></trkpt><trkpt lat="42.6891929" lon="12.7937657"><ele>403.0</ele><time>2026-04-10T16:36:18.559Z</time></trkpt><trkpt lat="42.6892118" lon="12.7939783"><ele>403.0</ele><time>2026-04-10T16:36:19.564Z</time></trkpt><trkpt lat="42.6892112" lon="12.7941915"><ele>403.0</ele><time>2026-04-10T16:36:20.561Z</time></trkpt><trkpt lat="42.6892346" lon="12.7943643"><ele>403.0</ele><time>2026-04-10T16:36:21.569Z</time></trkpt><trkpt lat="42.6892649" lon="12.7944847"><ele>403.0</ele><time>2026-04-10T16:36:22.57Z</time></trkpt><trkpt lat="42.6892411" lon="12.7945928"><ele>403.0</ele><time>2026-04-10T16:36:24.583Z</time></trkpt><trkpt lat="42.689188" lon="12.7944828"><ele>403.0</ele><time>2026-04-10T16:36:26.573Z</time></trkpt><trkpt lat="42.6891629" lon="12.7943512"><ele>403.0</ele><time>2026-04-10T16:36:27.569Z</time></trkpt><trkpt lat="42.6891346" lon="12.7941946"><ele>403.0</ele><time>2026-04-10T16:36:28.568Z</time></trkpt><trkpt lat="42.6890938" lon="12.7940244"><ele>403.0</ele><time>2026-04-10T16:36:29.57Z</time></trkpt><trkpt lat="42.6890436" lon="12.7938318"><ele>403.0</ele><time>2026-04-10T16:36:30.574Z</time></trkpt><trkpt lat="42.6890162" lon="12.7936398"><ele>403.0</ele><time>2026-04-10T16:36:31.571Z</time></trkpt><trkpt lat="42.6890152" lon="12.7934571"><ele>403.0</ele><time>2026-04-10T16:36:32.559Z</time></trkpt><trkpt lat="42.6890258" lon="12.7932898"><ele>406.59999999999997</ele><time>2026-04-10T16:36:33.559Z</time></trkpt><trkpt lat="42.6890436" lon="12.7931253"><ele>410.2</ele><time>2026-04-10T16:36:34.565Z</time></trkpt><trkpt lat="42.6890852" lon="12.7929624"><ele>413.8</ele><time>2026-04-10T16:36:36.563Z</time></trkpt><trkpt lat="42.6890345" lon="12.7930362"><ele>417.4</ele><time>2026-04-10T16:36:39.562Z</time></trkpt><trkpt lat="42.6889965" lon="12.7931832"><ele>421.0</ele><time>2026-04-10T16:36:40.563Z</time></trkpt><trkpt lat="42.688959" lon="12.7933395"><ele>416.5</ele><time>2026-04-10T16:36:41.557Z</time></trkpt><trkpt lat="42.688911" lon="12.7935587"><ele>412.0</ele><time>2026-04-10T16:36:42.569Z</time></trkpt><trkpt lat="42.688867" lon="12.7937584"><ele>407.5</ele><time>2026-04-10T16:36:43.578Z</time></trkpt><trkpt lat="42.6888349" lon="12.7939132"><ele>403.0</ele><time>2026-04-10T16:36:44.58Z</time></trkpt><trkpt lat="42.6887708" lon="12.7939693"><ele>403.00000000000006</ele><time>2026-04-10T16:36:46.582Z</time></trkpt><trkpt lat="42.6887685" lon="12.7938241"><ele>403.0</ele><time>2026-04-10T16:36:48.567Z</time></trkpt><trkpt lat="42.6887796" lon="12.7937162"><ele>403.0</ele><time>2026-04-10T16:36:49.569Z</time></trkpt><trkpt lat="42.6887867" lon="12.7935993"><ele>403.0</ele><time>2026-04-10T16:36:50.572Z</time></trkpt><trkpt lat="42.6887837" lon="12.7935117"><ele>403.00000000000006</ele><time>2026-04-10T16:36:51.577Z</time></trkpt><trkpt lat="42.688742" lon="12.7934046"><ele>403.0</ele><time>2026-04-10T16:36:53.587Z</time></trkpt><trkpt lat="42.6886749" lon="12.7933558"><ele>408.2</ele><time>2026-04-10T16:36:54.59Z</time></trkpt><trkpt lat="42.6885904" lon="12.7933096"><ele>413.4</ele><time>2026-04-10T16:36:55.575Z</time></trkpt><trkpt lat="42.6884997" lon="12.7932566"><ele>418.59999999999997</ele><time>2026-04-10T16:36:56.583Z</time></trkpt><trkpt lat="42.688392" lon="12.7931947"><ele>423.79999999999995</ele><time>2026-04-10T16:36:57.572Z</time></trkpt><trkpt lat="42.6882775" lon="12.7931322"><ele>429.0</ele><time>2026-04-10T16:36:58.571Z</time></trkpt><trkpt lat="42.6881429" lon="12.7930866"><ele>429.0</ele><time>2026-04-10T16:36:59.573Z</time></trkpt><trkpt lat="42.6879935" lon="12.793056"><ele>429.0</ele><time>2026-04-10T16:37:00.58Z</time></trkpt><trkpt lat="42.6878454" lon="12.7930391"><ele>429.0</ele><time>2026-04-10T16:37:01.584Z</time></trkpt><trkpt lat="42.6876989" lon="12.7930235"><ele>429.0</ele><time>2026-04-10T16:37:02.587Z</time></trkpt><trkpt lat="42.687572" lon="12.7930052"><ele>430.0</ele><time>2026-04-10T16:37:03.581Z</time></trkpt><trkpt lat="42.6874532" lon="12.7930024"><ele>431.0</ele><time>2026-04-10T16:37:04.58Z</time></trkpt><trkpt lat="42.6873886" lon="12.7930202"><ele>432.0</ele><time>2026-04-10T16:37:05.577Z</time></trkpt><trkpt lat="42.6873096" lon="12.7930681"><ele>433.0</ele><time>2026-04-10T16:37:06.572Z</time></trkpt><trkpt lat="42.6872338" lon="12.7931812"><ele>434.0</ele><time>2026-04-10T16:37:07.561Z</time></trkpt><trkpt lat="42.6872709" lon="12.7933456"><ele>432.75</ele><time>2026-04-10T16:37:08.565Z</time></trkpt><trkpt lat="42.6872455" lon="12.7935276"><ele>431.5</ele><time>2026-04-10T16:37:09.578Z</time></trkpt><trkpt lat="42.6872265" lon="12.7937097"><ele>430.25</ele><time>2026-04-10T16:37:10.58Z</time></trkpt><trkpt lat="42.6872031" lon="12.7939002"><ele>429.0</ele><time>2026-04-10T16:37:11.572Z</time></trkpt><trkpt lat="42.6871732" lon="12.7940876"><ele>429.0</ele><time>2026-04-10T16:37:12.58Z</time></trkpt><trkpt lat="42.6871494" lon="12.7942803"><ele>429.0</ele><time>2026-04-10T16:37:13.575Z</time></trkpt><trkpt lat="42.6871365" lon="12.7944395"><ele>429.0</ele><time>2026-04-10T16:37:14.574Z</time></trkpt><trkpt lat="42.6871864" lon="12.7946547"><ele>429.0</ele><time>2026-04-10T16:37:15.568Z</time></trkpt><trkpt lat="42.6872454" lon="12.7948239"><ele>432.25</ele><time>2026-04-10T16:37:16.571Z</time></trkpt><trkpt lat="42.6873279" lon="12.7949616"><ele>435.5</ele><time>2026-04-10T16:37:17.564Z</time></trkpt><trkpt lat="42.6874311" lon="12.7950871"><ele>438.75</ele><time>2026-04-10T16:37:18.575Z</time></trkpt><trkpt lat="42.6875534" lon="12.7952427"><ele>442.0</ele><time>2026-04-10T16:37:19.576Z</time></trkpt><trkpt lat="42.6876374" lon="12.795351"><ele>444.20000000000005</ele><time>2026-04-10T16:37:20.567Z</time></trkpt><trkpt lat="42.6877055" lon="12.7954953"><ele>446.40000000000003</ele><time>2026-04-10T16:37:21.562Z</time></trkpt><trkpt lat="42.6877615" lon="12.7956335"><ele>448.59999999999997</ele><time>2026-04-10T16:37:22.572Z</time></trkpt><trkpt lat="42.6877963" lon="12.795757"><ele>450.79999999999995</ele><time>2026-04-10T16:37:23.564Z</time></trkpt><trkpt lat="42.6877909" lon="12.7958925"><ele>453.0</ele><time>2026-04-10T16:37:24.58Z</time></trkpt><trkpt lat="42.6877677" lon="12.7960352"><ele>452.0</ele><time>2026-04-10T16:37:25.585Z</time></trkpt><trkpt lat="42.6877008" lon="12.7961537"><ele>451.0</ele><time>2026-04-10T16:37:26.58Z</time></trkpt><trkpt lat="42.6876182" lon="12.7962586"><ele>450.0</ele><time>2026-04-10T16:37:27.573Z</time></trkpt><trkpt lat="42.6875437" lon="12.7963647"><ele>449.0</ele><time>2026-04-10T16:37:28.581Z</time></trkpt><trkpt lat="42.6874389" lon="12.796463"><ele>449.0</ele><time>2026-04-10T16:37:29.589Z</time></trkpt><trkpt lat="42.6873605" lon="12.7965593"><ele>449.0</ele><time>2026-04-10T16:37:30.587Z</time></trkpt><trkpt lat="42.6872912" lon="12.7966616"><ele>449.0</ele><time>2026-04-10T16:37:31.585Z</time></trkpt><trkpt lat="42.6872339" lon="12.7967703"><ele>449.0</ele><time>2026-04-10T16:37:32.576Z</time></trkpt><trkpt lat="42.6871914" lon="12.796894"><ele>449.0</ele><time>2026-04-10T16:37:33.578Z</time></trkpt><trkpt lat="42.6871556" lon="12.7970113"><ele>449.99999999999994</ele><time>2026-04-10T16:37:34.575Z</time></trkpt><trkpt lat="42.6871398" lon="12.7971181"><ele>451.0</ele><time>2026-04-10T16:37:35.574Z</time></trkpt><trkpt lat="42.6870661" lon="12.7972089"><ele>452.0</ele><time>2026-04-10T16:37:37.58Z</time></trkpt><trkpt lat="42.6869959" lon="12.7972262"><ele>453.0</ele><time>2026-04-10T16:37:38.587Z</time></trkpt><trkpt lat="42.686921" lon="12.7972658"><ele>453.99999999999994</ele><time>2026-04-10T16:37:39.577Z</time></trkpt><trkpt lat="42.6868467" lon="12.7973184"><ele>455.0</ele><time>2026-04-10T16:37:40.575Z</time></trkpt><trkpt lat="42.6867812" lon="12.7973923"><ele>455.0</ele><time>2026-04-10T16:37:41.576Z</time></trkpt><trkpt lat="42.6867368" lon="12.7975202"><ele>455.0</ele><time>2026-04-10T16:37:42.583Z</time></trkpt><trkpt lat="42.6866824" lon="12.7976083"><ele>455.0</ele><time>2026-04-10T16:37:43.585Z</time></trkpt><trkpt lat="42.6866176" lon="12.797687"><ele>455.0</ele><time>2026-04-10T16:37:45.593Z</time></trkpt><trkpt lat="42.6865733" lon="12.797551"><ele>455.0</ele><time>2026-04-10T16:37:47.593Z</time></trkpt><trkpt lat="42.6865649" lon="12.7974021"><ele>455.0</ele><time>2026-04-10T16:37:48.58Z</time></trkpt><trkpt lat="42.686541" lon="12.7972366"><ele>455.0</ele><time>2026-04-10T16:37:49.594Z</time></trkpt><trkpt lat="42.6865067" lon="12.7970642"><ele>455.0</ele><time>2026-04-10T16:37:50.583Z</time></trkpt><trkpt lat="42.6864898" lon="12.7968957"><ele>455.0</ele><time>2026-04-10T16:37:51.576Z</time></trkpt><trkpt lat="42.6865188" lon="12.7967378"><ele>456.8</ele><time>2026-04-10T16:37:52.584Z</time></trkpt><trkpt lat="42.6865659" lon="12.7965935"><ele>458.6</ele><time>2026-04-10T16:37:53.579Z</time></trkpt><trkpt lat="42.6865959" lon="12.7964601"><ele>460.4</ele><time>2026-04-10T16:37:54.576Z</time></trkpt><trkpt lat="42.6866183" lon="12.7963444"><ele>462.2</ele><time>2026-04-10T16:37:55.567Z</time></trkpt><trkpt lat="42.6865468" lon="12.7962019"><ele>464.0</ele><time>2026-04-10T16:37:57.582Z</time></trkpt><trkpt lat="42.6864645" lon="12.7961524"><ele>464.0</ele><time>2026-04-10T16:37:58.582Z</time></trkpt><trkpt lat="42.6863719" lon="12.7961161"><ele>464.0</ele><time>2026-04-10T16:37:59.573Z</time></trkpt><trkpt lat="42.686273" lon="12.7960812"><ele>464.0</ele><time>2026-04-10T16:38:00.591Z</time></trkpt><trkpt lat="42.6861745" lon="12.7960347"><ele>464.0</ele><time>2026-04-10T16:38:01.584Z</time></trkpt><trkpt lat="42.6860934" lon="12.7959765"><ele>464.0</ele><time>2026-04-10T16:38:02.583Z</time></trkpt><trkpt lat="42.6860112" lon="12.7959232"><ele>466.2</ele><time>2026-04-10T16:38:03.585Z</time></trkpt><trkpt lat="42.6859356" lon="12.7958676"><ele>468.4</ele><time>2026-04-10T16:38:04.589Z</time></trkpt><trkpt lat="42.6858663" lon="12.7958107"><ele>470.6</ele><time>2026-04-10T16:38:05.582Z</time></trkpt><trkpt lat="42.685809" lon="12.7957532"><ele>472.8</ele><time>2026-04-10T16:38:06.587Z</time></trkpt><trkpt lat="42.6857472" lon="12.7955884"><ele>475.0</ele><time>2026-04-10T16:38:08.581Z</time></trkpt><trkpt lat="42.685752" lon="12.7954859"><ele>475.0</ele><time>2026-04-10T16:38:09.582Z</time></trkpt><trkpt lat="42.6857724" lon="12.795373"><ele>475.0</ele><time>2026-04-10T16:38:10.591Z</time></trkpt><trkpt lat="42.6858138" lon="12.7952362"><ele>475.0</ele><time>2026-04-10T16:38:11.592Z</time></trkpt><trkpt lat="42.6858644" lon="12.7951046"><ele>475.0</ele><time>2026-04-10T16:38:12.586Z</time></trkpt><trkpt lat="42.6859288" lon="12.7949832"><ele>475.0</ele><time>2026-04-10T16:38:13.581Z</time></trkpt><trkpt lat="42.6860144" lon="12.7948839"><ele>473.83333333333337</ele><time>2026-04-10T16:38:14.579Z</time></trkpt><trkpt lat="42.6861007" lon="12.7948081"><ele>472.6666666666667</ele><time>2026-04-10T16:38:15.592Z</time></trkpt><trkpt lat="42.6861745" lon="12.7947349"><ele>471.5</ele><time>2026-04-10T16:38:16.587Z</time></trkpt><trkpt lat="42.6862463" lon="12.7946718"><ele>470.33333333333337</ele><time>2026-04-10T16:38:17.583Z</time></trkpt><trkpt lat="42.6862896" lon="12.7945843"><ele>469.1666666666667</ele><time>2026-04-10T16:38:18.58Z</time></trkpt><trkpt lat="42.6863334" lon="12.7945013"><ele>468.0</ele><time>2026-04-10T16:38:19.584Z</time></trkpt><trkpt lat="42.6862829" lon="12.7943542"><ele>466.4</ele><time>2026-04-10T16:38:21.579Z</time></trkpt><trkpt lat="42.6862122" lon="12.7942646"><ele>464.79999999999995</ele><time>2026-04-10T16:38:22.575Z</time></trkpt><trkpt lat="42.6861453" lon="12.7941806"><ele>463.2</ele><time>2026-04-10T16:38:23.56Z</time></trkpt><trkpt lat="42.6860619" lon="12.7940902"><ele>461.6</ele><time>2026-04-10T16:38:24.582Z</time></trkpt><trkpt lat="42.6859732" lon="12.7940058"><ele>460.0</ele><time>2026-04-10T16:38:25.579Z</time></trkpt><trkpt lat="42.6858775" lon="12.7939332"><ele>464.0</ele><time>2026-04-10T16:38:26.573Z</time></trkpt><trkpt lat="42.6857679" lon="12.7938543"><ele>468.0</ele><time>2026-04-10T16:38:27.576Z</time></trkpt><trkpt lat="42.6856582" lon="12.7937641"><ele>472.0</ele><time>2026-04-10T16:38:28.58Z</time></trkpt><trkpt lat="42.6855519" lon="12.7936771"><ele>476.0</ele><time>2026-04-10T16:38:29.582Z</time></trkpt><trkpt lat="42.685458" lon="12.7935673"><ele>475.20000000000005</ele><time>2026-04-10T16:38:30.594Z</time></trkpt><trkpt lat="42.6853839" lon="12.7934535"><ele>474.40000000000003</ele><time>2026-04-10T16:38:31.577Z</time></trkpt><trkpt lat="42.6853322" lon="12.7933206"><ele>473.6</ele><time>2026-04-10T16:38:32.574Z</time></trkpt><trkpt lat="42.6853078" lon="12.7932053"><ele>472.8</ele><time>2026-04-10T16:38:33.571Z</time></trkpt><trkpt lat="42.6852672" lon="12.7931205"><ele>472.0</ele><time>2026-04-10T16:38:34.579Z</time></trkpt><trkpt lat="42.6851817" lon="12.7930339"><ele>473.33333333333337</ele><time>2026-04-10T16:38:36.574Z</time></trkpt><trkpt lat="42.6851087" lon="12.7930217"><ele>474.6666666666667</ele><time>2026-04-10T16:38:37.581Z</time></trkpt><trkpt lat="42.6850457" lon="12.7930068"><ele>476.0</ele><time>2026-04-10T16:38:38.582Z</time></trkpt><trkpt lat="42.6849774" lon="12.7928696"><ele>477.33333333333337</ele><time>2026-04-10T16:38:40.584Z</time></trkpt><trkpt lat="42.684957" lon="12.792765"><ele>478.6666666666667</ele><time>2026-04-10T16:38:41.578Z</time></trkpt><trkpt lat="42.6849428" lon="12.7926399"><ele>480.0</ele><time>2026-04-10T16:38:42.584Z</time></trkpt><trkpt lat="42.6849259" lon="12.7924968"><ele>482.75</ele><time>2026-04-10T16:38:43.582Z</time></trkpt><trkpt lat="42.6849373" lon="12.7923392"><ele>485.5</ele><time>2026-04-10T16:38:44.576Z</time></trkpt><trkpt lat="42.6849641" lon="12.7921668"><ele>488.25</ele><time>2026-04-10T16:38:45.571Z</time></trkpt><trkpt lat="42.6849956" lon="12.7920149"><ele>491.0</ele><time>2026-04-10T16:38:46.585Z</time></trkpt><trkpt lat="42.685051" lon="12.7918838"><ele>493.20000000000005</ele><time>2026-04-10T16:38:47.576Z</time></trkpt><trkpt lat="42.6851187" lon="12.7917556"><ele>495.40000000000003</ele><time>2026-04-10T16:38:48.576Z</time></trkpt><trkpt lat="42.6851862" lon="12.7916534"><ele>497.6</ele><time>2026-04-10T16:38:49.569Z</time></trkpt><trkpt lat="42.6852703" lon="12.7915939"><ele>499.8</ele><time>2026-04-10T16:38:50.578Z</time></trkpt><trkpt lat="42.6853502" lon="12.791545"><ele>502.0</ele><time>2026-04-10T16:38:51.596Z</time></trkpt><trkpt lat="42.6854128" lon="12.7915018"><ele>502.0</ele><time>2026-04-10T16:38:52.577Z</time></trkpt><trkpt lat="42.6854867" lon="12.7914709"><ele>502.0</ele><time>2026-04-10T16:38:53.577Z</time></trkpt><trkpt lat="42.6853434" lon="12.7915136"><ele>502.0</ele><time>2026-04-10T16:38:57.572Z</time></trkpt><trkpt lat="42.6852113" lon="12.7915704"><ele>502.0</ele><time>2026-04-10T16:38:58.579Z</time></trkpt><trkpt lat="42.6850616" lon="12.7916163"><ele>503.25</ele><time>2026-04-10T16:38:59.578Z</time></trkpt><trkpt lat="42.6849251" lon="12.7916699"><ele>504.5</ele><time>2026-04-10T16:39:00.583Z</time></trkpt><trkpt lat="42.6847816" lon="12.7917319"><ele>505.75</ele><time>2026-04-10T16:39:01.581Z</time></trkpt><trkpt lat="42.6846436" lon="12.7918105"><ele>507.0</ele><time>2026-04-10T16:39:02.578Z</time></trkpt><trkpt lat="42.6845118" lon="12.7918913"><ele>504.5</ele><time>2026-04-10T16:39:03.583Z</time></trkpt><trkpt lat="42.6843822" lon="12.7919346"><ele>502.0</ele><time>2026-04-10T16:39:04.581Z</time></trkpt><trkpt lat="42.6842404" lon="12.7919665"><ele>499.5</ele><time>2026-04-10T16:39:05.59Z</time></trkpt><trkpt lat="42.6841109" lon="12.7919952"><ele>497.0</ele><time>2026-04-10T16:39:06.581Z</time></trkpt><trkpt lat="42.6839809" lon="12.7920111"><ele>497.0</ele><time>2026-04-10T16:39:07.574Z</time></trkpt><trkpt lat="42.6838702" lon="12.7920161"><ele>497.00000000000006</ele><time>2026-04-10T16:39:08.575Z</time></trkpt><trkpt lat="42.6837748" lon="12.7920105"><ele>497.00000000000006</ele><time>2026-04-10T16:39:09.574Z</time></trkpt><trkpt lat="42.683689" lon="12.7919853"><ele>497.0</ele><time>2026-04-10T16:39:10.577Z</time></trkpt><trkpt lat="42.6835895" lon="12.791953"><ele>497.0</ele><time>2026-04-10T16:39:11.578Z</time></trkpt><trkpt lat="42.6834887" lon="12.7918827"><ele>502.75</ele><time>2026-04-10T16:39:12.568Z</time></trkpt><trkpt lat="42.6833818" lon="12.7918028"><ele>508.5</ele><time>2026-04-10T16:39:13.579Z</time></trkpt><trkpt lat="42.6832635" lon="12.7917109"><ele>514.25</ele><time>2026-04-10T16:39:14.587Z</time></trkpt><trkpt lat="42.6831425" lon="12.7916362"><ele>520.0</ele><time>2026-04-10T16:39:15.594Z</time></trkpt><trkpt lat="42.6830219" lon="12.7915554"><ele>520.0</ele><time>2026-04-10T16:39:16.589Z</time></trkpt><trkpt lat="42.6829139" lon="12.7914806"><ele>520.0</ele><time>2026-04-10T16:39:17.598Z</time></trkpt><trkpt lat="42.6828072" lon="12.7913966"><ele>520.0</ele><time>2026-04-10T16:39:18.59Z</time></trkpt><trkpt lat="42.6826933" lon="12.7913313"><ele>520.0</ele><time>2026-04-10T16:39:19.578Z</time></trkpt><trkpt lat="42.6825716" lon="12.7912882"><ele>520.25</ele><time>2026-04-10T16:39:20.582Z</time></trkpt><trkpt lat="42.6824525" lon="12.7912834"><ele>520.5</ele><time>2026-04-10T16:39:21.59Z</time></trkpt><trkpt lat="42.6823314" lon="12.7912975"><ele>520.75</ele><time>2026-04-10T16:39:22.572Z</time></trkpt><trkpt lat="42.6822173" lon="12.7913156"><ele>521.0</ele><time>2026-04-10T16:39:23.59Z</time></trkpt><trkpt lat="42.6821051" lon="12.7913568"><ele>521.0</ele><time>2026-04-10T16:39:24.579Z</time></trkpt><trkpt lat="42.6820059" lon="12.7913685"><ele>521.0</ele><time>2026-04-10T16:39:25.573Z</time></trkpt><trkpt lat="42.6819383" lon="12.7913713"><ele>521.0</ele><time>2026-04-10T16:39:26.588Z</time></trkpt><trkpt lat="42.6819381" lon="12.7912452"><ele>521.0</ele><time>2026-04-10T16:39:28.599Z</time></trkpt><trkpt lat="42.6819891" lon="12.791149"><ele>521.0</ele><time>2026-04-10T16:39:29.58Z</time></trkpt><trkpt lat="42.6820648" lon="12.7911021"><ele>521.0</ele><time>2026-04-10T16:39:30.576Z</time></trkpt><trkpt lat="42.6821624" lon="12.7910868"><ele>521.0</ele><time>2026-04-10T16:39:31.57Z</time></trkpt><trkpt lat="42.6822675" lon="12.7910912"><ele>521.0</ele><time>2026-04-10T16:39:32.558Z</time></trkpt><trkpt lat="42.6823947" lon="12.7911019"><ele>521.0</ele><time>2026-04-10T16:39:33.563Z</time></trkpt><trkpt lat="42.6825331" lon="12.7910856"><ele>521.0</ele><time>2026-04-10T16:39:34.565Z</time></trkpt><trkpt lat="42.6826791" lon="12.7910568"><ele>520.75</ele><time>2026-04-10T16:39:35.567Z</time></trkpt><trkpt lat="42.6828024" lon="12.7910241"><ele>520.5</ele><time>2026-04-10T16:39:36.568Z</time></trkpt><trkpt lat="42.6829368" lon="12.790999"><ele>520.25</ele><time>2026-04-10T16:39:37.571Z</time></trkpt><trkpt lat="42.683048" lon="12.7909804"><ele>520.0</ele><time>2026-04-10T16:39:38.568Z</time></trkpt><trkpt lat="42.683151" lon="12.7909886"><ele>525.6</ele><time>2026-04-10T16:39:39.582Z</time></trkpt><trkpt lat="42.6832264" lon="12.790965"><ele>531.2</ele><time>2026-04-10T16:39:40.573Z</time></trkpt><trkpt lat="42.6833174" lon="12.7909371"><ele>536.8</ele><time>2026-04-10T16:39:41.57Z</time></trkpt><trkpt lat="42.683419" lon="12.7908941"><ele>542.4</ele><time>2026-04-10T16:39:42.57Z</time></trkpt><trkpt lat="42.6835263" lon="12.7908549"><ele>548.0</ele><time>2026-04-10T16:39:43.567Z</time></trkpt><trkpt lat="42.6836517" lon="12.7908371"><ele>548.0</ele><time>2026-04-10T16:39:44.57Z</time></trkpt><trkpt lat="42.68379" lon="12.790823"><ele>548.0</ele><time>2026-04-10T16:39:45.571Z</time></trkpt><trkpt lat="42.6839301" lon="12.7908283"><ele>548.0</ele><time>2026-04-10T16:39:46.568Z</time></trkpt><trkpt lat="42.6840648" lon="12.7908203"><ele>548.0</ele><time>2026-04-10T16:39:47.58Z</time></trkpt><trkpt lat="42.6842095" lon="12.7908099"><ele>548.0</ele><time>2026-04-10T16:39:48.577Z</time></trkpt><trkpt lat="42.6843335" lon="12.7907728"><ele>548.0</ele><time>2026-04-10T16:39:49.579Z</time></trkpt><trkpt lat="42.6844527" lon="12.7907174"><ele>548.0</ele><time>2026-04-10T16:39:50.579Z</time></trkpt><trkpt lat="42.6845539" lon="12.7906527"><ele>548.0</ele><time>2026-04-10T16:39:51.58Z</time></trkpt><trkpt lat="42.6846563" lon="12.790586"><ele>548.4</ele><time>2026-04-10T16:39:52.583Z</time></trkpt><trkpt lat="42.6847523" lon="12.790538"><ele>548.8</ele><time>2026-04-10T16:39:53.571Z</time></trkpt><trkpt lat="42.6848464" lon="12.7904727"><ele>549.2</ele><time>2026-04-10T16:39:54.566Z</time></trkpt><trkpt lat="42.6849321" lon="12.7904207"><ele>549.6</ele><time>2026-04-10T16:39:55.556Z</time></trkpt><trkpt lat="42.6849373" lon="12.7903312"><ele>550.0</ele><time>2026-04-10T16:39:57.579Z</time></trkpt><trkpt lat="42.6847925" lon="12.7903396"><ele>550.0</ele><time>2026-04-10T16:39:59.56Z</time></trkpt><trkpt lat="42.6846837" lon="12.7903763"><ele>550.0</ele><time>2026-04-10T16:40:00.582Z</time></trkpt><trkpt lat="42.6845643" lon="12.7904194"><ele>550.0</ele><time>2026-04-10T16:40:01.581Z</time></trkpt><trkpt lat="42.6844513" lon="12.7904622"><ele>550.0</ele><time>2026-04-10T16:40:02.578Z</time></trkpt><trkpt lat="42.6843303" lon="12.7904488"><ele>549.5</ele><time>2026-04-10T16:40:03.584Z</time></trkpt><trkpt lat="42.684223" lon="12.7904107"><ele>549.0</ele><time>2026-04-10T16:40:04.59Z</time></trkpt><trkpt lat="42.684097" lon="12.790369"><ele>548.5</ele><time>2026-04-10T16:40:05.588Z</time></trkpt><trkpt lat="42.6839767" lon="12.790311"><ele>548.0</ele><time>2026-04-10T16:40:06.587Z</time></trkpt><trkpt lat="42.6838585" lon="12.7902461"><ele>548.0</ele><time>2026-04-10T16:40:07.596Z</time></trkpt><trkpt lat="42.683738" lon="12.790184"><ele>548.0</ele><time>2026-04-10T16:40:08.593Z</time></trkpt><trkpt lat="42.6836209" lon="12.7901069"><ele>548.0</ele><time>2026-04-10T16:40:09.597Z</time></trkpt><trkpt lat="42.6835023" lon="12.7900474"><ele>548.0</ele><time>2026-04-10T16:40:10.594Z</time></trkpt><trkpt lat="42.6833724" lon="12.7900024"><ele>555.5</ele><time>2026-04-10T16:40:11.583Z</time></trkpt><trkpt lat="42.6832398" lon="12.7899911"><ele>563.0</ele><time>2026-04-10T16:40:12.588Z</time></trkpt><trkpt lat="42.6831149" lon="12.7899952"><ele>570.5</ele><time>2026-04-10T16:40:13.586Z</time></trkpt><trkpt lat="42.6829865" lon="12.7900017"><ele>578.0</ele><time>2026-04-10T16:40:14.592Z</time></trkpt><trkpt lat="42.6828666" lon="12.7900259"><ele>578.25</ele><time>2026-04-10T16:40:15.585Z</time></trkpt><trkpt lat="42.6827429" lon="12.7900257"><ele>578.5</ele><time>2026-04-10T16:40:16.582Z</time></trkpt><trkpt lat="42.6826208" lon="12.7900141"><ele>578.75</ele><time>2026-04-10T16:40:17.589Z</time></trkpt><trkpt lat="42.6825026" lon="12.7899793"><ele>579.0</ele><time>2026-04-10T16:40:18.591Z</time></trkpt><trkpt lat="42.6823834" lon="12.7899457"><ele>579.0</ele><time>2026-04-10T16:40:19.584Z</time></trkpt><trkpt lat="42.6822628" lon="12.7899398"><ele>579.0</ele><time>2026-04-10T16:40:20.588Z</time></trkpt><trkpt lat="42.6821484" lon="12.7899487"><ele>579.0</ele><time>2026-04-10T16:40:21.588Z</time></trkpt><trkpt lat="42.6820466" lon="12.7899519"><ele>579.0</ele><time>2026-04-10T16:40:22.589Z</time></trkpt><trkpt lat="42.6819537" lon="12.7899438"><ele>579.0</ele><time>2026-04-10T16:40:23.594Z</time></trkpt><trkpt lat="42.6818696" lon="12.7899189"><ele>578.4</ele><time>2026-04-10T16:40:24.599Z</time></trkpt><trkpt lat="42.6817967" lon="12.7898745"><ele>577.8</ele><time>2026-04-10T16:40:25.585Z</time></trkpt><trkpt lat="42.6817275" lon="12.7898023"><ele>577.2</ele><time>2026-04-10T16:40:26.588Z</time></trkpt><trkpt lat="42.6816627" lon="12.7897044"><ele>576.6</ele><time>2026-04-10T16:40:27.577Z</time></trkpt><trkpt lat="42.6815962" lon="12.7895926"><ele>576.0</ele><time>2026-04-10T16:40:28.587Z</time></trkpt><trkpt lat="42.6815251" lon="12.7894877"><ele>576.0</ele><time>2026-04-10T16:40:29.585Z</time></trkpt><trkpt lat="42.6814353" lon="12.7894014"><ele>576.0</ele><time>2026-04-10T16:40:30.589Z</time></trkpt><trkpt lat="42.6813195" lon="12.7893498"><ele>576.0</ele><time>2026-04-10T16:40:31.58Z</time></trkpt><trkpt lat="42.6811834" lon="12.7893241"><ele>576.0</ele><time>2026-04-10T16:40:32.581Z</time></trkpt><trkpt lat="42.6810437" lon="12.7893325"><ele>572.75</ele><time>2026-04-10T16:40:33.583Z</time></trkpt><trkpt lat="42.6809186" lon="12.7893431"><ele>569.5</ele><time>2026-04-10T16:40:34.581Z</time></trkpt><trkpt lat="42.6807962" lon="12.7893211"><ele>566.25</ele><time>2026-04-10T16:40:35.587Z</time></trkpt><trkpt lat="42.680677" lon="12.7892772"><ele>563.0</ele><time>2026-04-10T16:40:36.584Z</time></trkpt><trkpt lat="42.680563" lon="12.78922"><ele>567.0</ele><time>2026-04-10T16:40:37.585Z</time></trkpt><trkpt lat="42.6804608" lon="12.7891687"><ele>571.0</ele><time>2026-04-10T16:40:38.577Z</time></trkpt><trkpt lat="42.6803678" lon="12.7891125"><ele>575.0</ele><time>2026-04-10T16:40:39.576Z</time></trkpt><trkpt lat="42.6802829" lon="12.789056"><ele>579.0</ele><time>2026-04-10T16:40:40.579Z</time></trkpt><trkpt lat="42.6802094" lon="12.7889772"><ele>583.0</ele><time>2026-04-10T16:40:41.588Z</time></trkpt><trkpt lat="42.6801433" lon="12.7888715"><ele>583.0</ele><time>2026-04-10T16:40:42.589Z</time></trkpt><trkpt lat="42.6800759" lon="12.7887424"><ele>583.0</ele><time>2026-04-10T16:40:43.59Z</time></trkpt><trkpt lat="42.6800068" lon="12.7886096"><ele>583.0</ele><time>2026-04-10T16:40:44.602Z</time></trkpt><trkpt lat="42.6799365" lon="12.7884859"><ele>583.0</ele><time>2026-04-10T16:40:45.594Z</time></trkpt><trkpt lat="42.6798595" lon="12.7883748"><ele>588.5</ele><time>2026-04-10T16:40:46.588Z</time></trkpt><trkpt lat="42.6797679" lon="12.7882871"><ele>594.0</ele><time>2026-04-10T16:40:47.587Z</time></trkpt><trkpt lat="42.679663" lon="12.7882214"><ele>599.5</ele><time>2026-04-10T16:40:48.586Z</time></trkpt><trkpt lat="42.6795493" lon="12.7881767"><ele>605.0</ele><time>2026-04-10T16:40:49.584Z</time></trkpt><trkpt lat="42.6794393" lon="12.7881471"><ele>604.0</ele><time>2026-04-10T16:40:50.587Z</time></trkpt><trkpt lat="42.6793363" lon="12.788121"><ele>603.0</ele><time>2026-04-10T16:40:51.589Z</time></trkpt><trkpt lat="42.6792418" lon="12.7880824"><ele>602.0</ele><time>2026-04-10T16:40:52.593Z</time></trkpt><trkpt lat="42.6791578" lon="12.78803"><ele>601.0</ele><time>2026-04-10T16:40:53.596Z</time></trkpt><trkpt lat="42.6790858" lon="12.7879692"><ele>600.0</ele><time>2026-04-10T16:40:54.602Z</time></trkpt><trkpt lat="42.6790381" lon="12.7878841"><ele>600.0</ele><time>2026-04-10T16:40:55.586Z</time></trkpt><trkpt lat="42.6790013" lon="12.7877992"><ele>600.0</ele><time>2026-04-10T16:40:56.581Z</time></trkpt><trkpt lat="42.6789676" lon="12.7877137"><ele>600.0</ele><time>2026-04-10T16:40:57.574Z</time></trkpt><trkpt lat="42.6789026" lon="12.787602"><ele>600.0</ele><time>2026-04-10T16:40:59.579Z</time></trkpt><trkpt lat="42.6788174" lon="12.7876662"><ele>600.0</ele><time>2026-04-10T16:41:01.576Z</time></trkpt><trkpt lat="42.6787638" lon="12.7877413"><ele>600.0</ele><time>2026-04-10T16:41:02.573Z</time></trkpt><trkpt lat="42.6787075" lon="12.7878228"><ele>599.9999999999999</ele><time>2026-04-10T16:41:03.572Z</time></trkpt><trkpt lat="42.6786436" lon="12.7878657"><ele>600.0</ele><time>2026-04-10T16:41:04.57Z</time></trkpt><trkpt lat="42.6785781" lon="12.7878469"><ele>600.0</ele><time>2026-04-10T16:41:05.58Z</time></trkpt><trkpt lat="42.6785149" lon="12.7878095"><ele>600.0</ele><time>2026-04-10T16:41:06.582Z</time></trkpt><trkpt lat="42.6784513" lon="12.7877704"><ele>600.0</ele><time>2026-04-10T16:41:07.577Z</time></trkpt><trkpt lat="42.678388" lon="12.7877307"><ele>599.9999999999999</ele><time>2026-04-10T16:41:08.59Z</time></trkpt><trkpt lat="42.6783159" lon="12.7876891"><ele>600.0</ele><time>2026-04-10T16:41:09.585Z</time></trkpt><trkpt lat="42.6782438" lon="12.7876467"><ele>604.8333333333334</ele><time>2026-04-10T16:41:10.585Z</time></trkpt><trkpt lat="42.6781751" lon="12.7876115"><ele>609.6666666666666</ele><time>2026-04-10T16:41:11.589Z</time></trkpt><trkpt lat="42.678101" lon="12.7875818"><ele>614.5</ele><time>2026-04-10T16:41:12.596Z</time></trkpt><trkpt lat="42.6780203" lon="12.787573"><ele>619.3333333333333</ele><time>2026-04-10T16:41:13.591Z</time></trkpt><trkpt lat="42.6779421" lon="12.7875704"><ele>624.1666666666666</ele><time>2026-04-10T16:41:14.592Z</time></trkpt><trkpt lat="42.6778643" lon="12.7875632"><ele>629.0</ele><time>2026-04-10T16:41:15.591Z</time></trkpt><trkpt lat="42.677792" lon="12.7875362"><ele>628.1666666666666</ele><time>2026-04-10T16:41:16.594Z</time></trkpt><trkpt lat="42.677721" lon="12.7874965"><ele>627.3333333333333</ele><time>2026-04-10T16:41:17.602Z</time></trkpt><trkpt lat="42.6776502" lon="12.7874389"><ele>626.5</ele><time>2026-04-10T16:41:18.596Z</time></trkpt><trkpt lat="42.6775838" lon="12.7873711"><ele>625.6666666666666</ele><time>2026-04-10T16:41:19.595Z</time></trkpt><trkpt lat="42.67751" lon="12.7873134"><ele>624.8333333333334</ele><time>2026-04-10T16:41:20.594Z</time></trkpt><trkpt lat="42.6774246" lon="12.7872529"><ele>624.0</ele><time>2026-04-10T16:41:21.588Z</time></trkpt><trkpt lat="42.6773394" lon="12.7871871"><ele>624.0</ele><time>2026-04-10T16:41:22.598Z</time></trkpt><trkpt lat="42.677257" lon="12.7871049"><ele>624.0</ele><time>2026-04-10T16:41:23.593Z</time></trkpt><trkpt lat="42.6771545" lon="12.7870388"><ele>624.0</ele><time>2026-04-10T16:41:24.598Z</time></trkpt><trkpt lat="42.6770421" lon="12.786989"><ele>624.0</ele><time>2026-04-10T16:41:25.601Z</time></trkpt><trkpt lat="42.6769234" lon="12.7869515"><ele>626.4</ele><time>2026-04-10T16:41:26.603Z</time></trkpt><trkpt lat="42.6768293" lon="12.7869062"><ele>628.8</ele><time>2026-04-10T16:41:27.582Z</time></trkpt><trkpt lat="42.6767406" lon="12.7868643"><ele>631.2</ele><time>2026-04-10T16:41:28.594Z</time></trkpt><trkpt lat="42.6766607" lon="12.7868145"><ele>633.6</ele><time>2026-04-10T16:41:29.594Z</time></trkpt><trkpt lat="42.6765893" lon="12.7867503"><ele>636.0</ele><time>2026-04-10T16:41:30.59Z</time></trkpt><trkpt lat="42.6765285" lon="12.7866741"><ele>640.8333333333334</ele><time>2026-04-10T16:41:31.592Z</time></trkpt><trkpt lat="42.6764844" lon="12.786579"><ele>645.6666666666666</ele><time>2026-04-10T16:41:32.584Z</time></trkpt><trkpt lat="42.6764532" lon="12.7864794"><ele>650.5</ele><time>2026-04-10T16:41:33.586Z</time></trkpt><trkpt lat="42.676422" lon="12.7863792"><ele>655.3333333333333</ele><time>2026-04-10T16:41:34.576Z</time></trkpt><trkpt lat="42.6763896" lon="12.7862992"><ele>660.1666666666666</ele><time>2026-04-10T16:41:35.566Z</time></trkpt><trkpt lat="42.6763157" lon="12.7862253"><ele>665.0</ele><time>2026-04-10T16:41:37.568Z</time></trkpt><trkpt lat="42.6762314" lon="12.7863509"><ele>665.0</ele><time>2026-04-10T16:41:39.568Z</time></trkpt><trkpt lat="42.676186" lon="12.7864683"><ele>665.0</ele><time>2026-04-10T16:41:40.566Z</time></trkpt><trkpt lat="42.6761297" lon="12.7865883"><ele>665.0</ele><time>2026-04-10T16:41:41.567Z</time></trkpt><trkpt lat="42.6760572" lon="12.7867332"><ele>665.0</ele><time>2026-04-10T16:41:42.575Z</time></trkpt><trkpt lat="42.6759671" lon="12.7868454"><ele>665.0</ele><time>2026-04-10T16:41:43.575Z</time></trkpt><trkpt lat="42.6758848" lon="12.7869664"><ele>665.0</ele><time>2026-04-10T16:41:44.58Z</time></trkpt><trkpt lat="42.6758021" lon="12.787075"><ele>665.0</ele><time>2026-04-10T16:41:45.576Z</time></trkpt><trkpt lat="42.6757182" lon="12.7871782"><ele>665.0</ele><time>2026-04-10T16:41:46.59Z</time></trkpt><trkpt lat="42.675638" lon="12.7872541"><ele>665.0</ele><time>2026-04-10T16:41:47.59Z</time></trkpt><trkpt lat="42.6755697" lon="12.7872908"><ele>665.0</ele><time>2026-04-10T16:41:48.592Z</time></trkpt><trkpt lat="42.6755014" lon="12.7872816"><ele>665.0</ele><time>2026-04-10T16:41:49.595Z</time></trkpt><trkpt lat="42.6754453" lon="12.7871891"><ele>665.0</ele><time>2026-04-10T16:41:51.591Z</time></trkpt><trkpt lat="42.6754703" lon="12.7870926"><ele>665.0</ele><time>2026-04-10T16:41:52.585Z</time></trkpt><trkpt lat="42.6755169" lon="12.786991"><ele>665.0</ele><time>2026-04-10T16:41:53.57Z</time></trkpt><trkpt lat="42.6755849" lon="12.7868732"><ele>665.0</ele><time>2026-04-10T16:41:54.581Z</time></trkpt><trkpt lat="42.6756648" lon="12.7867441"><ele>667.75</ele><time>2026-04-10T16:41:55.581Z</time></trkpt><trkpt lat="42.6757433" lon="12.7865988"><ele>670.5</ele><time>2026-04-10T16:41:56.595Z</time></trkpt><trkpt lat="42.6758165" lon="12.7864551"><ele>673.25</ele><time>2026-04-10T16:41:57.586Z</time></trkpt><trkpt lat="42.6758956" lon="12.7863131"><ele>676.0</ele><time>2026-04-10T16:41:58.588Z</time></trkpt><trkpt lat="42.6759649" lon="12.7861866"><ele>676.0</ele><time>2026-04-10T16:41:59.587Z</time></trkpt><trkpt lat="42.6760211" lon="12.7860609"><ele>676.0</ele><time>2026-04-10T16:42:00.587Z</time></trkpt><trkpt lat="42.67604" lon="12.785929"><ele>676.0</ele><time>2026-04-10T16:42:01.573Z</time></trkpt><trkpt lat="42.6760514" lon="12.7858113"><ele>676.0</ele><time>2026-04-10T16:42:02.582Z</time></trkpt><trkpt lat="42.6760693" lon="12.7856943"><ele>676.0</ele><time>2026-04-10T16:42:03.577Z</time></trkpt><trkpt lat="42.6761144" lon="12.7856297"><ele>676.0</ele><time>2026-04-10T16:42:04.58Z</time></trkpt><trkpt lat="42.6762365" lon="12.785583"><ele>679.8</ele><time>2026-04-10T16:42:06.576Z</time></trkpt><trkpt lat="42.6763229" lon="12.7856236"><ele>683.5999999999999</ele><time>2026-04-10T16:42:07.571Z</time></trkpt><trkpt lat="42.676404" lon="12.7856768"><ele>687.4</ele><time>2026-04-10T16:42:08.565Z</time></trkpt><trkpt lat="42.6764955" lon="12.7857422"><ele>691.2</ele><time>2026-04-10T16:42:09.569Z</time></trkpt><trkpt lat="42.6766127" lon="12.7858299"><ele>695.0</ele><time>2026-04-10T16:42:10.58Z</time></trkpt><trkpt lat="42.6767328" lon="12.7859079"><ele>695.0</ele><time>2026-04-10T16:42:11.576Z</time></trkpt><trkpt lat="42.6768561" lon="12.7859501"><ele>695.0</ele><time>2026-04-10T16:42:12.582Z</time></trkpt><trkpt lat="42.6769627" lon="12.785963"><ele>695.0</ele><time>2026-04-10T16:42:13.592Z</time></trkpt><trkpt lat="42.6770478" lon="12.7859326"><ele>695.0</ele><time>2026-04-10T16:42:14.586Z</time></trkpt><trkpt lat="42.6770913" lon="12.7858287"><ele>695.0</ele><time>2026-04-10T16:42:16.59Z</time></trkpt><trkpt lat="42.6769738" lon="12.7857585"><ele>695.0</ele><time>2026-04-10T16:42:18.588Z</time></trkpt><trkpt lat="42.676852" lon="12.7857355"><ele>695.0</ele><time>2026-04-10T16:42:19.57Z</time></trkpt><trkpt lat="42.6767141" lon="12.7856935"><ele>695.0</ele><time>2026-04-10T16:42:20.584Z</time></trkpt><trkpt lat="42.6765734" lon="12.7856254"><ele>695.0</ele><time>2026-04-10T16:42:21.58Z</time></trkpt><trkpt lat="42.6764476" lon="12.7855461"><ele>695.0</ele><time>2026-04-10T16:42:22.584Z</time></trkpt><trkpt lat="42.6763454" lon="12.7854676"><ele>695.0</ele><time>2026-04-10T16:42:23.593Z</time></trkpt><trkpt lat="42.6762668" lon="12.7853891"><ele>695.0</ele><time>2026-04-10T16:42:24.589Z</time></trkpt><trkpt lat="42.6762039" lon="12.7853015"><ele>695.0</ele><time>2026-04-10T16:42:25.591Z</time></trkpt><trkpt lat="42.676141" lon="12.7852482"><ele>695.0</ele><time>2026-04-10T16:42:26.585Z</time></trkpt><trkpt lat="42.6760352" lon="12.785236"><ele>695.75</ele><time>2026-04-10T16:42:28.575Z</time></trkpt><trkpt lat="42.6759302" lon="12.7852987"><ele>696.5</ele><time>2026-04-10T16:42:30.579Z</time></trkpt><trkpt lat="42.6758592" lon="12.7853992"><ele>697.25</ele><time>2026-04-10T16:42:31.559Z</time></trkpt><trkpt lat="42.6757768" lon="12.7855588"><ele>698.0</ele><time>2026-04-10T16:42:32.59Z</time></trkpt><trkpt lat="42.6756644" lon="12.7857179"><ele>698.0</ele><time>2026-04-10T16:42:33.584Z</time></trkpt><trkpt lat="42.6755489" lon="12.7858923"><ele>698.0</ele><time>2026-04-10T16:42:34.589Z</time></trkpt><trkpt lat="42.6754445" lon="12.7860447"><ele>698.0</ele><time>2026-04-10T16:42:35.586Z</time></trkpt><trkpt lat="42.6753519" lon="12.786155"><ele>698.0</ele><time>2026-04-10T16:42:36.594Z</time></trkpt><trkpt lat="42.6752629" lon="12.7862202"><ele>697.8333333333333</ele><time>2026-04-10T16:42:37.597Z</time></trkpt><trkpt lat="42.6751695" lon="12.786237"><ele>697.6666666666666</ele><time>2026-04-10T16:42:38.6Z</time></trkpt><trkpt lat="42.6750777" lon="12.7862178"><ele>697.5</ele><time>2026-04-10T16:42:39.6Z</time></trkpt><trkpt lat="42.6750089" lon="12.7861545"><ele>697.3333333333334</ele><time>2026-04-10T16:42:40.605Z</time></trkpt><trkpt lat="42.6749679" lon="12.7860476"><ele>697.1666666666667</ele><time>2026-04-10T16:42:41.602Z</time></trkpt><trkpt lat="42.6749484" lon="12.7859516"><ele>697.0</ele><time>2026-04-10T16:42:42.589Z</time></trkpt><trkpt lat="42.6749771" lon="12.7858344"><ele>697.1666666666667</ele><time>2026-04-10T16:42:43.581Z</time></trkpt><trkpt lat="42.6750243" lon="12.7857482"><ele>697.3333333333334</ele><time>2026-04-10T16:42:44.581Z</time></trkpt><trkpt lat="42.6750876" lon="12.7856943"><ele>697.5</ele><time>2026-04-10T16:42:45.576Z</time></trkpt><trkpt lat="42.6751674" lon="12.785641"><ele>697.6666666666666</ele><time>2026-04-10T16:42:46.575Z</time></trkpt><trkpt lat="42.6752332" lon="12.7855711"><ele>697.8333333333333</ele><time>2026-04-10T16:42:47.577Z</time></trkpt><trkpt lat="42.6752797" lon="12.7854757"><ele>698.0</ele><time>2026-04-10T16:42:48.575Z</time></trkpt><trkpt lat="42.6752794" lon="12.7853635"><ele>702.4</ele><time>2026-04-10T16:42:49.581Z</time></trkpt><trkpt lat="42.6752629" lon="12.7852732"><ele>706.8</ele><time>2026-04-10T16:42:50.578Z</time></trkpt><trkpt lat="42.6751631" lon="12.7851765"><ele>711.2</ele><time>2026-04-10T16:42:52.581Z</time></trkpt><trkpt lat="42.6750862" lon="12.7852073"><ele>715.6</ele><time>2026-04-10T16:42:53.578Z</time></trkpt><trkpt lat="42.6749904" lon="12.7852756"><ele>720.0</ele><time>2026-04-10T16:42:54.58Z</time></trkpt><trkpt lat="42.6748971" lon="12.7853537"><ele>720.0</ele><time>2026-04-10T16:42:55.58Z</time></trkpt><trkpt lat="42.6748003" lon="12.785401"><ele>720.0</ele><time>2026-04-10T16:42:56.581Z</time></trkpt><trkpt lat="42.6747054" lon="12.7853996"><ele>720.0</ele><time>2026-04-10T16:42:57.574Z</time></trkpt><trkpt lat="42.6745901" lon="12.7853849"><ele>720.0</ele><time>2026-04-10T16:42:58.598Z</time></trkpt><trkpt lat="42.6744741" lon="12.7853771"><ele>720.0</ele><time>2026-04-10T16:42:59.593Z</time></trkpt><trkpt lat="42.6743525" lon="12.7853818"><ele>721.75</ele><time>2026-04-10T16:43:00.585Z</time></trkpt><trkpt lat="42.6742331" lon="12.7853764"><ele>723.5</ele><time>2026-04-10T16:43:01.595Z</time></trkpt><trkpt lat="42.6741006" lon="12.7853714"><ele>725.25</ele><time>2026-04-10T16:43:02.589Z</time></trkpt><trkpt lat="42.6739578" lon="12.7853557"><ele>727.0</ele><time>2026-04-10T16:43:03.587Z</time></trkpt><trkpt lat="42.6738127" lon="12.7853418"><ele>727.0</ele><time>2026-04-10T16:43:04.592Z</time></trkpt><trkpt lat="42.6736708" lon="12.7853394"><ele>727.0</ele><time>2026-04-10T16:43:05.585Z</time></trkpt><trkpt lat="42.6735233" lon="12.7853367"><ele>727.0</ele><time>2026-04-10T16:43:06.591Z</time></trkpt><trkpt lat="42.6733858" lon="12.7853482"><ele>727.0</ele><time>2026-04-10T16:43:07.58Z</time></trkpt><trkpt lat="42.6732623" lon="12.7853566"><ele>730.75</ele><time>2026-04-10T16:43:08.592Z</time></trkpt><trkpt lat="42.6731323" lon="12.7853798"><ele>734.5</ele><time>2026-04-10T16:43:09.597Z</time></trkpt><trkpt lat="42.673017" lon="12.7854324"><ele>738.25</ele><time>2026-04-10T16:43:10.585Z</time></trkpt><trkpt lat="42.6729046" lon="12.7855056"><ele>742.0</ele><time>2026-04-10T16:43:11.588Z</time></trkpt><trkpt lat="42.6727765" lon="12.7855682"><ele>744.0</ele><time>2026-04-10T16:43:12.593Z</time></trkpt><trkpt lat="42.6726543" lon="12.785603"><ele>746.0</ele><time>2026-04-10T16:43:13.588Z</time></trkpt><trkpt lat="42.6725509" lon="12.7856181"><ele>748.0</ele><time>2026-04-10T16:43:14.59Z</time></trkpt><trkpt lat="42.6724797" lon="12.785614"><ele>750.0</ele><time>2026-04-10T16:43:15.584Z</time></trkpt><trkpt lat="42.6724125" lon="12.7855015"><ele>752.0</ele><time>2026-04-10T16:43:17.6Z</time></trkpt><trkpt lat="42.6724218" lon="12.7854109"><ele>752.0</ele><time>2026-04-10T16:43:18.587Z</time></trkpt><trkpt lat="42.6724728" lon="12.7853137"><ele>752.0</ele><time>2026-04-10T16:43:19.592Z</time></trkpt><trkpt lat="42.6725651" lon="12.7852281"><ele>752.0</ele><time>2026-04-10T16:43:20.582Z</time></trkpt><trkpt lat="42.672675" lon="12.7851459"><ele>752.0</ele><time>2026-04-10T16:43:21.577Z</time></trkpt><trkpt lat="42.6727851" lon="12.785047"><ele>754.0</ele><time>2026-04-10T16:43:22.58Z</time></trkpt><trkpt lat="42.6728926" lon="12.7849293"><ele>756.0</ele><time>2026-04-10T16:43:23.593Z</time></trkpt><trkpt lat="42.6730023" lon="12.7848196"><ele>758.0</ele><time>2026-04-10T16:43:24.585Z</time></trkpt><trkpt lat="42.6731283" lon="12.784732"><ele>760.0</ele><time>2026-04-10T16:43:25.585Z</time></trkpt><trkpt lat="42.6732579" lon="12.7846577"><ele>760.0</ele><time>2026-04-10T16:43:26.596Z</time></trkpt><trkpt lat="42.6733889" lon="12.7845875"><ele>760.0</ele><time>2026-04-10T16:43:27.589Z</time></trkpt><trkpt lat="42.6735199" lon="12.7844926"><ele>760.0</ele><time>2026-04-10T16:43:28.588Z</time></trkpt><trkpt lat="42.6736374" lon="12.7843571"><ele>760.0</ele><time>2026-04-10T16:43:29.612Z</time></trkpt><trkpt lat="42.6737468" lon="12.7842599"><ele>764.0</ele><time>2026-04-10T16:43:30.594Z</time></trkpt><trkpt lat="42.6738375" lon="12.784139"><ele>768.0</ele><time>2026-04-10T16:43:31.594Z</time></trkpt><trkpt lat="42.6739171" lon="12.7840409"><ele>772.0</ele><time>2026-04-10T16:43:32.582Z</time></trkpt><trkpt lat="42.6740156" lon="12.7839811"><ele>776.0</ele><time>2026-04-10T16:43:33.58Z</time></trkpt><trkpt lat="42.6741148" lon="12.7838888"><ele>776.0</ele><time>2026-04-10T16:43:35.57Z</time></trkpt><trkpt lat="42.6740723" lon="12.7837783"><ele>776.0</ele><time>2026-04-10T16:43:38.558Z</time></trkpt><trkpt lat="42.6739719" lon="12.7837936"><ele>776.0</ele><time>2026-04-10T16:43:39.575Z</time></trkpt><trkpt lat="42.673855" lon="12.7838371"><ele>776.0</ele><time>2026-04-10T16:43:40.566Z</time></trkpt><trkpt lat="42.6737456" lon="12.7838855"><ele>776.0</ele><time>2026-04-10T16:43:41.563Z</time></trkpt><trkpt lat="42.6736181" lon="12.7839011"><ele>777.0</ele><time>2026-04-10T16:43:42.567Z</time></trkpt><trkpt lat="42.6734944" lon="12.7838838"><ele>778.0</ele><time>2026-04-10T16:43:43.573Z</time></trkpt><trkpt lat="42.6733768" lon="12.7838182"><ele>779.0</ele><time>2026-04-10T16:43:44.579Z</time></trkpt><trkpt lat="42.6732663" lon="12.7837119"><ele>780.0</ele><time>2026-04-10T16:43:45.573Z</time></trkpt><trkpt lat="42.6731535" lon="12.7835997"><ele>784.25</ele><time>2026-04-10T16:43:46.581Z</time></trkpt><trkpt lat="42.6730457" lon="12.7834806"><ele>788.5</ele><time>2026-04-10T16:43:47.574Z</time></trkpt><trkpt lat="42.6729346" lon="12.7833761"><ele>792.75</ele><time>2026-04-10T16:43:48.582Z</time></trkpt><trkpt lat="42.6728012" lon="12.7833014"><ele>797.0</ele><time>2026-04-10T16:43:49.584Z</time></trkpt><trkpt lat="42.672663" lon="12.7832371"><ele>797.0</ele><time>2026-04-10T16:43:50.576Z</time></trkpt><trkpt lat="42.6725094" lon="12.7832182"><ele>797.0</ele><time>2026-04-10T16:43:51.577Z</time></trkpt><trkpt lat="42.6723283" lon="12.7832195"><ele>797.0</ele><time>2026-04-10T16:43:52.579Z</time></trkpt><trkpt lat="42.6721711" lon="12.7831956"><ele>797.0</ele><time>2026-04-10T16:43:53.578Z</time></trkpt><trkpt lat="42.6720155" lon="12.78316"><ele>797.0</ele><time>2026-04-10T16:43:54.579Z</time></trkpt><trkpt lat="42.6718665" lon="12.7831188"><ele>797.0</ele><time>2026-04-10T16:43:55.575Z</time></trkpt><trkpt lat="42.6717231" lon="12.7831194"><ele>799.3333333333334</ele><time>2026-04-10T16:43:56.572Z</time></trkpt><trkpt lat="42.6715699" lon="12.7831885"><ele>801.6666666666667</ele><time>2026-04-10T16:43:57.572Z</time></trkpt><trkpt lat="42.6714158" lon="12.7832664"><ele>804.0</ele><time>2026-04-10T16:43:58.572Z</time></trkpt><trkpt lat="42.6712744" lon="12.783336"><ele>804.0</ele><time>2026-04-10T16:43:59.586Z</time></trkpt><trkpt lat="42.6711455" lon="12.7833657"><ele>804.0</ele><time>2026-04-10T16:44:00.575Z</time></trkpt><trkpt lat="42.6709949" lon="12.7833882"><ele>804.0</ele><time>2026-04-10T16:44:01.572Z</time></trkpt><trkpt lat="42.6708534" lon="12.7833922"><ele>804.0</ele><time>2026-04-10T16:44:02.573Z</time></trkpt><trkpt lat="42.6707098" lon="12.7833681"><ele>808.0</ele><time>2026-04-10T16:44:03.582Z</time></trkpt><trkpt lat="42.6705734" lon="12.7833442"><ele>812.0</ele><time>2026-04-10T16:44:04.572Z</time></trkpt><trkpt lat="42.6704312" lon="12.783338"><ele>816.0</ele><time>2026-04-10T16:44:05.586Z</time></trkpt><trkpt lat="42.670299" lon="12.7833409"><ele>820.0</ele><time>2026-04-10T16:44:06.577Z</time></trkpt><trkpt lat="42.6702045" lon="12.7832976"><ele>821.8</ele><time>2026-04-10T16:44:07.574Z</time></trkpt><trkpt lat="42.6701222" lon="12.7832429"><ele>823.6</ele><time>2026-04-10T16:44:08.578Z</time></trkpt><trkpt lat="42.6700274" lon="12.7832651"><ele>825.4000000000001</ele><time>2026-04-10T16:44:09.582Z</time></trkpt><trkpt lat="42.6699449" lon="12.7833362"><ele>827.2</ele><time>2026-04-10T16:44:10.577Z</time></trkpt><trkpt lat="42.6698554" lon="12.783421"><ele>829.0</ele><time>2026-04-10T16:44:11.575Z</time></trkpt><trkpt lat="42.669786" lon="12.7835076"><ele>828.3333333333333</ele><time>2026-04-10T16:44:12.573Z</time></trkpt><trkpt lat="42.6697301" lon="12.7835874"><ele>827.6666666666666</ele><time>2026-04-10T16:44:13.567Z</time></trkpt><trkpt lat="42.6696976" lon="12.7836739"><ele>827.0</ele><time>2026-04-10T16:44:14.568Z</time></trkpt><trkpt lat="42.6697007" lon="12.7837631"><ele>826.3333333333333</ele><time>2026-04-10T16:44:15.567Z</time></trkpt><trkpt lat="42.6697427" lon="12.7838641"><ele>825.6666666666666</ele><time>2026-04-10T16:44:16.563Z</time></trkpt><trkpt lat="42.6697935" lon="12.7839668"><ele>825.0</ele><time>2026-04-10T16:44:17.569Z</time></trkpt><trkpt lat="42.6698498" lon="12.7840656"><ele>825.0</ele><time>2026-04-10T16:44:18.564Z</time></trkpt><trkpt lat="42.6698803" lon="12.7841869"><ele>825.0</ele><time>2026-04-10T16:44:19.566Z</time></trkpt><trkpt lat="42.6698932" lon="12.7843204"><ele>825.0</ele><time>2026-04-10T16:44:20.568Z</time></trkpt><trkpt lat="42.6698895" lon="12.7844352"><ele>825.0</ele><time>2026-04-10T16:44:21.569Z</time></trkpt><trkpt lat="42.669893" lon="12.7845345"><ele>825.0</ele><time>2026-04-10T16:44:22.567Z</time></trkpt><trkpt lat="42.669787" lon="12.7846351"><ele>826.0</ele><time>2026-04-10T16:44:24.588Z</time></trkpt><trkpt lat="42.669689" lon="12.7846647"><ele>827.0</ele><time>2026-04-10T16:44:25.576Z</time></trkpt><trkpt lat="42.6695735" lon="12.7846873"><ele>828.0</ele><time>2026-04-10T16:44:26.581Z</time></trkpt><trkpt lat="42.669469" lon="12.7846938"><ele>829.0</ele><time>2026-04-10T16:44:27.58Z</time></trkpt><trkpt lat="42.6693471" lon="12.7846541"><ele>830.0</ele><time>2026-04-10T16:44:28.588Z</time></trkpt><trkpt lat="42.6692255" lon="12.7845926"><ele>830.0</ele><time>2026-04-10T16:44:29.598Z</time></trkpt><trkpt lat="42.6691221" lon="12.7845508"><ele>830.0</ele><time>2026-04-10T16:44:30.602Z</time></trkpt><trkpt lat="42.6690205" lon="12.7845226"><ele>830.0</ele><time>2026-04-10T16:44:31.588Z</time></trkpt><trkpt lat="42.6689339" lon="12.7845155"><ele>830.0</ele><time>2026-04-10T16:44:32.602Z</time></trkpt><trkpt lat="42.6688404" lon="12.7845168"><ele>830.0</ele><time>2026-04-10T16:44:33.59Z</time></trkpt><trkpt lat="42.6687386" lon="12.7845067"><ele>830.0</ele><time>2026-04-10T16:44:34.598Z</time></trkpt><trkpt lat="42.6686221" lon="12.7844927"><ele>830.0</ele><time>2026-04-10T16:44:35.593Z</time></trkpt><trkpt lat="42.6685027" lon="12.7844892"><ele>830.0</ele><time>2026-04-10T16:44:36.592Z</time></trkpt><trkpt lat="42.6683725" lon="12.7844923"><ele>830.0</ele><time>2026-04-10T16:44:37.596Z</time></trkpt><trkpt lat="42.6682376" lon="12.7845014"><ele>827.3333333333334</ele><time>2026-04-10T16:44:38.589Z</time></trkpt><trkpt lat="42.6680844" lon="12.7845119"><ele>824.6666666666667</ele><time>2026-04-10T16:44:39.598Z</time></trkpt><trkpt lat="42.6679232" lon="12.7845403"><ele>822.0</ele><time>2026-04-10T16:44:40.589Z</time></trkpt><trkpt lat="42.6677703" lon="12.7845507"><ele>820.25</ele><time>2026-04-10T16:44:41.59Z</time></trkpt><trkpt lat="42.6676263" lon="12.7845657"><ele>818.5</ele><time>2026-04-10T16:44:42.594Z</time></trkpt><trkpt lat="42.6674904" lon="12.7845767"><ele>816.75</ele><time>2026-04-10T16:44:43.59Z</time></trkpt><trkpt lat="42.6673416" lon="12.7845735"><ele>815.0</ele><time>2026-04-10T16:44:44.591Z</time></trkpt><trkpt lat="42.6671819" lon="12.7845764"><ele>815.0</ele><time>2026-04-10T16:44:45.591Z</time></trkpt><trkpt lat="42.6670235" lon="12.7845757"><ele>815.0</ele><time>2026-04-10T16:44:46.594Z</time></trkpt><trkpt lat="42.6668724" lon="12.7845449"><ele>815.0</ele><time>2026-04-10T16:44:47.592Z</time></trkpt><trkpt lat="42.6667183" lon="12.7845383"><ele>815.0</ele><time>2026-04-10T16:44:48.586Z</time></trkpt><trkpt lat="42.6665792" lon="12.7845035"><ele>815.0</ele><time>2026-04-10T16:44:49.586Z</time></trkpt><trkpt lat="42.6664528" lon="12.7844163"><ele>815.0</ele><time>2026-04-10T16:44:50.581Z</time></trkpt><trkpt lat="42.6663256" lon="12.7843204"><ele>815.0</ele><time>2026-04-10T16:44:51.584Z</time></trkpt><trkpt lat="42.6662287" lon="12.7842122"><ele>815.0</ele><time>2026-04-10T16:44:52.583Z</time></trkpt><trkpt lat="42.6661467" lon="12.7840797"><ele>815.0</ele><time>2026-04-10T16:44:53.589Z</time></trkpt><trkpt lat="42.6660804" lon="12.7839255"><ele>815.0</ele><time>2026-04-10T16:44:54.592Z</time></trkpt><trkpt lat="42.6660287" lon="12.7837888"><ele>815.0</ele><time>2026-04-10T16:44:55.589Z</time></trkpt><trkpt lat="42.665961" lon="12.7836627"><ele>811.0</ele><time>2026-04-10T16:44:56.584Z</time></trkpt><trkpt lat="42.6658916" lon="12.7836262"><ele>807.0</ele><time>2026-04-10T16:44:57.584Z</time></trkpt><trkpt lat="42.665806" lon="12.7836253"><ele>803.0</ele><time>2026-04-10T16:44:58.581Z</time></trkpt><trkpt lat="42.6656873" lon="12.7836135"><ele>799.0</ele><time>2026-04-10T16:44:59.573Z</time></trkpt><trkpt lat="42.6655537" lon="12.7836406"><ele>795.0</ele><time>2026-04-10T16:45:00.577Z</time></trkpt><trkpt lat="42.6654191" lon="12.7836893"><ele>795.0</ele><time>2026-04-10T16:45:01.555Z</time></trkpt><trkpt lat="42.6652794" lon="12.7837082"><ele>795.0</ele><time>2026-04-10T16:45:02.539Z</time></trkpt><trkpt lat="42.6651398" lon="12.7836822"><ele>795.0</ele><time>2026-04-10T16:45:03.541Z</time></trkpt><trkpt lat="42.6650111" lon="12.7836365"><ele>795.0</ele><time>2026-04-10T16:45:04.54Z</time></trkpt><trkpt lat="42.6648931" lon="12.7835557"><ele>794.5</ele><time>2026-04-10T16:45:05.552Z</time></trkpt><trkpt lat="42.6647789" lon="12.7834563"><ele>794.0</ele><time>2026-04-10T16:45:06.549Z</time></trkpt><trkpt lat="42.6646689" lon="12.783344"><ele>793.5</ele><time>2026-04-10T16:45:07.55Z</time></trkpt><trkpt lat="42.6645603" lon="12.7832264"><ele>793.0</ele><time>2026-04-10T16:45:08.547Z</time></trkpt><trkpt lat="42.6644465" lon="12.7831506"><ele>789.25</ele><time>2026-04-10T16:45:09.547Z</time></trkpt><trkpt lat="42.6643185" lon="12.7831698"><ele>785.5</ele><time>2026-04-10T16:45:10.545Z</time></trkpt><trkpt lat="42.6641779" lon="12.7832363"><ele>781.75</ele><time>2026-04-10T16:45:11.542Z</time></trkpt><trkpt lat="42.6640374" lon="12.7832863"><ele>778.0</ele><time>2026-04-10T16:45:12.541Z</time></trkpt><trkpt lat="42.6639188" lon="12.7832915"><ele>778.0</ele><time>2026-04-10T16:45:13.544Z</time></trkpt><trkpt lat="42.6638409" lon="12.7832411"><ele>778.0</ele><time>2026-04-10T16:45:14.541Z</time></trkpt><trkpt lat="42.6637598" lon="12.7831876"><ele>778.0</ele><time>2026-04-10T16:45:15.536Z</time></trkpt><trkpt lat="42.663691" lon="12.783094"><ele>778.0</ele><time>2026-04-10T16:45:16.543Z</time></trkpt><trkpt lat="42.6636438" lon="12.7829894"><ele>778.0</ele><time>2026-04-10T16:45:17.543Z</time></trkpt><trkpt lat="42.6636069" lon="12.7828805"><ele>775.25</ele><time>2026-04-10T16:45:18.541Z</time></trkpt><trkpt lat="42.6635816" lon="12.7827285"><ele>772.5</ele><time>2026-04-10T16:45:19.547Z</time></trkpt><trkpt lat="42.6635461" lon="12.7825575"><ele>769.75</ele><time>2026-04-10T16:45:20.538Z</time></trkpt><trkpt lat="42.6634932" lon="12.7824166"><ele>767.0</ele><time>2026-04-10T16:45:21.533Z</time></trkpt><trkpt lat="42.6634222" lon="12.7822921"><ele>767.0</ele><time>2026-04-10T16:45:22.532Z</time></trkpt><trkpt lat="42.6633303" lon="12.7821961"><ele>767.0</ele><time>2026-04-10T16:45:23.531Z</time></trkpt><trkpt lat="42.6632279" lon="12.7821032"><ele>767.0</ele><time>2026-04-10T16:45:24.552Z</time></trkpt><trkpt lat="42.6631096" lon="12.7820102"><ele>767.0</ele><time>2026-04-10T16:45:25.545Z</time></trkpt><trkpt lat="42.6629787" lon="12.7819376"><ele>767.0</ele><time>2026-04-10T16:45:26.548Z</time></trkpt><trkpt lat="42.6628389" lon="12.78189"><ele>767.0</ele><time>2026-04-10T16:45:27.543Z</time></trkpt><trkpt lat="42.662696" lon="12.7818591"><ele>767.0</ele><time>2026-04-10T16:45:28.546Z</time></trkpt><trkpt lat="42.6625519" lon="12.7818965"><ele>767.0</ele><time>2026-04-10T16:45:29.543Z</time></trkpt><trkpt lat="42.6624152" lon="12.7819789"><ele>762.75</ele><time>2026-04-10T16:45:30.54Z</time></trkpt><trkpt lat="42.6622813" lon="12.7820685"><ele>758.5</ele><time>2026-04-10T16:45:31.554Z</time></trkpt><trkpt lat="42.6621467" lon="12.7821062"><ele>754.25</ele><time>2026-04-10T16:45:32.561Z</time></trkpt><trkpt lat="42.6619991" lon="12.7821518"><ele>750.0</ele><time>2026-04-10T16:45:33.551Z</time></trkpt><trkpt lat="42.6618406" lon="12.7822003"><ele>750.0</ele><time>2026-04-10T16:45:34.555Z</time></trkpt><trkpt lat="42.6616958" lon="12.7822846"><ele>750.0</ele><time>2026-04-10T16:45:35.551Z</time></trkpt><trkpt lat="42.6615563" lon="12.7823505"><ele>750.0</ele><time>2026-04-10T16:45:36.555Z</time></trkpt><trkpt lat="42.6613958" lon="12.7823842"><ele>750.0</ele><time>2026-04-10T16:45:37.55Z</time></trkpt><trkpt lat="42.6612467" lon="12.7823734"><ele>750.0</ele><time>2026-04-10T16:45:38.551Z</time></trkpt><trkpt lat="42.6610884" lon="12.7823485"><ele>750.0</ele><time>2026-04-10T16:45:39.55Z</time></trkpt><trkpt lat="42.6609236" lon="12.7823242"><ele>751.3333333333334</ele><time>2026-04-10T16:45:40.554Z</time></trkpt><trkpt lat="42.6607425" lon="12.7823195"><ele>752.6666666666667</ele><time>2026-04-10T16:45:41.551Z</time></trkpt><trkpt lat="42.6605473" lon="12.7823391"><ele>754.0</ele><time>2026-04-10T16:45:42.549Z</time></trkpt><trkpt lat="42.6603584" lon="12.78238"><ele>755.3333333333334</ele><time>2026-04-10T16:45:43.553Z</time></trkpt><trkpt lat="42.6601829" lon="12.7823844"><ele>756.6666666666666</ele><time>2026-04-10T16:45:44.554Z</time></trkpt><trkpt lat="42.6600112" lon="12.7823799"><ele>758.0</ele><time>2026-04-10T16:45:45.558Z</time></trkpt><trkpt lat="42.6598587" lon="12.7823813"><ele>758.0</ele><time>2026-04-10T16:45:46.56Z</time></trkpt><trkpt lat="42.6597148" lon="12.7824068"><ele>758.0</ele><time>2026-04-10T16:45:47.549Z</time></trkpt><trkpt lat="42.6595845" lon="12.7825086"><ele>758.0</ele><time>2026-04-10T16:45:48.543Z</time></trkpt><trkpt lat="42.6594633" lon="12.7826649"><ele>759.25</ele><time>2026-04-10T16:45:49.547Z</time></trkpt><trkpt lat="42.6593823" lon="12.7828601"><ele>760.5</ele><time>2026-04-10T16:45:50.552Z</time></trkpt><trkpt lat="42.6593418" lon="12.7830628"><ele>761.75</ele><time>2026-04-10T16:45:51.537Z</time></trkpt><trkpt lat="42.6593286" lon="12.7832304"><ele>763.0</ele><time>2026-04-10T16:45:52.536Z</time></trkpt><trkpt lat="42.6592917" lon="12.7833773"><ele>763.0</ele><time>2026-04-10T16:45:53.539Z</time></trkpt><trkpt lat="42.6591902" lon="12.783485"><ele>763.0</ele><time>2026-04-10T16:45:54.545Z</time></trkpt><trkpt lat="42.6590627" lon="12.7835641"><ele>763.0</ele><time>2026-04-10T16:45:55.547Z</time></trkpt><trkpt lat="42.6589498" lon="12.7836305"><ele>763.0</ele><time>2026-04-10T16:45:56.549Z</time></trkpt><trkpt lat="42.658798" lon="12.7836989"><ele>761.25</ele><time>2026-04-10T16:45:57.551Z</time></trkpt><trkpt lat="42.6586648" lon="12.7837765"><ele>759.5</ele><time>2026-04-10T16:45:58.57Z</time></trkpt><trkpt lat="42.6585175" lon="12.7838282"><ele>757.75</ele><time>2026-04-10T16:45:59.56Z</time></trkpt><trkpt lat="42.6583731" lon="12.7838455"><ele>756.0</ele><time>2026-04-10T16:46:00.561Z</time></trkpt><trkpt lat="42.6582404" lon="12.7838174"><ele>756.0</ele><time>2026-04-10T16:46:01.557Z</time></trkpt><trkpt lat="42.6580836" lon="12.783771"><ele>756.0</ele><time>2026-04-10T16:46:02.553Z</time></trkpt><trkpt lat="42.6579504" lon="12.7836629"><ele>756.0</ele><time>2026-04-10T16:46:03.566Z</time></trkpt><trkpt lat="42.6578424" lon="12.7835271"><ele>754.6666666666666</ele><time>2026-04-10T16:46:04.556Z</time></trkpt><trkpt lat="42.657758" lon="12.7833473"><ele>753.3333333333333</ele><time>2026-04-10T16:46:05.565Z</time></trkpt><trkpt lat="42.6576528" lon="12.7831563"><ele>752.0</ele><time>2026-04-10T16:46:06.559Z</time></trkpt><trkpt lat="42.6575474" lon="12.7829692"><ele>752.0</ele><time>2026-04-10T16:46:07.559Z</time></trkpt><trkpt lat="42.6574305" lon="12.7827592"><ele>752.0</ele><time>2026-04-10T16:46:08.566Z</time></trkpt><trkpt lat="42.6573326" lon="12.7825869"><ele>752.0</ele><time>2026-04-10T16:46:09.564Z</time></trkpt><trkpt lat="42.6572121" lon="12.7824598"><ele>754.25</ele><time>2026-04-10T16:46:10.564Z</time></trkpt><trkpt lat="42.6570843" lon="12.782328"><ele>756.5</ele><time>2026-04-10T16:46:11.564Z</time></trkpt><trkpt lat="42.656962" lon="12.7822594"><ele>758.75</ele><time>2026-04-10T16:46:12.555Z</time></trkpt><trkpt lat="42.6568247" lon="12.7821965"><ele>761.0</ele><time>2026-04-10T16:46:13.56Z</time></trkpt><trkpt lat="42.6566775" lon="12.7821741"><ele>761.0</ele><time>2026-04-10T16:46:14.558Z</time></trkpt><trkpt lat="42.6565316" lon="12.782204"><ele>761.0</ele><time>2026-04-10T16:46:15.57Z</time></trkpt><trkpt lat="42.656364" lon="12.7822699"><ele>761.0</ele><time>2026-04-10T16:46:16.562Z</time></trkpt><trkpt lat="42.6562158" lon="12.7823629"><ele>763.0</ele><time>2026-04-10T16:46:17.563Z</time></trkpt><trkpt lat="42.6560715" lon="12.7824778"><ele>765.0</ele><time>2026-04-10T16:46:18.569Z</time></trkpt><trkpt lat="42.6559016" lon="12.782555"><ele>767.0</ele><time>2026-04-10T16:46:19.572Z</time></trkpt><trkpt lat="42.6557374" lon="12.7826062"><ele>767.0</ele><time>2026-04-10T16:46:20.565Z</time></trkpt><trkpt lat="42.6555779" lon="12.7826228"><ele>767.0</ele><time>2026-04-10T16:46:21.569Z</time></trkpt><trkpt lat="42.6554439" lon="12.7826005"><ele>767.0</ele><time>2026-04-10T16:46:22.57Z</time></trkpt><trkpt lat="42.6553136" lon="12.7825377"><ele>767.0</ele><time>2026-04-10T16:46:23.562Z</time></trkpt><trkpt lat="42.655181" lon="12.7824469"><ele>765.25</ele><time>2026-04-10T16:46:24.567Z</time></trkpt><trkpt lat="42.6550385" lon="12.7823587"><ele>763.5</ele><time>2026-04-10T16:46:25.57Z</time></trkpt><trkpt lat="42.6549024" lon="12.7822997"><ele>761.75</ele><time>2026-04-10T16:46:26.567Z</time></trkpt><trkpt lat="42.6547788" lon="12.7822352"><ele>760.0</ele><time>2026-04-10T16:46:27.569Z</time></trkpt><trkpt lat="42.6546523" lon="12.7821484"><ele>760.0</ele><time>2026-04-10T16:46:28.574Z</time></trkpt><trkpt lat="42.6545252" lon="12.7820703"><ele>760.0</ele><time>2026-04-10T16:46:29.572Z</time></trkpt><trkpt lat="42.6543852" lon="12.7819948"><ele>760.0</ele><time>2026-04-10T16:46:30.576Z</time></trkpt><trkpt lat="42.6542444" lon="12.7819555"><ele>760.0</ele><time>2026-04-10T16:46:31.57Z</time></trkpt><trkpt lat="42.6541035" lon="12.7819039"><ele>759.6666666666667</ele><time>2026-04-10T16:46:32.568Z</time></trkpt><trkpt lat="42.6539536" lon="12.7818647"><ele>759.3333333333334</ele><time>2026-04-10T16:46:33.57Z</time></trkpt><trkpt lat="42.653729" lon="12.7818338"><ele>759.0</ele><time>2026-04-10T16:46:34.605Z</time></trkpt><trkpt lat="42.6536038" lon="12.7818061"><ele>759.0</ele><time>2026-04-10T16:46:35.641Z</time></trkpt><trkpt lat="42.6534675" lon="12.7817854"><ele>759.0</ele><time>2026-04-10T16:46:36.654Z</time></trkpt><trkpt lat="42.6533286" lon="12.7817749"><ele>759.0</ele><time>2026-04-10T16:46:37.643Z</time></trkpt><trkpt lat="42.6531872" lon="12.7817686"><ele>759.0</ele><time>2026-04-10T16:46:38.634Z</time></trkpt><trkpt lat="42.6530488" lon="12.7817685"><ele>759.0</ele><time>2026-04-10T16:46:39.644Z</time></trkpt><trkpt lat="42.6529097" lon="12.7817762"><ele>759.0</ele><time>2026-04-10T16:46:40.64Z</time></trkpt><trkpt lat="42.6527733" lon="12.7817949"><ele>759.0</ele><time>2026-04-10T16:46:41.639Z</time></trkpt><trkpt lat="42.6526402" lon="12.781831"><ele>759.0</ele><time>2026-04-10T16:46:42.638Z</time></trkpt><trkpt lat="42.6525085" lon="12.7818853"><ele>745.3333333333334</ele><time>2026-04-10T16:46:43.641Z</time></trkpt><trkpt lat="42.6523673" lon="12.7819443"><ele>731.6666666666667</ele><time>2026-04-10T16:46:44.631Z</time></trkpt><trkpt lat="42.6522188" lon="12.7820397"><ele>718.0</ele><time>2026-04-10T16:46:45.631Z</time></trkpt><trkpt lat="42.6520687" lon="12.782057"><ele>716.0</ele><time>2026-04-10T16:46:46.632Z</time></trkpt><trkpt lat="42.6519212" lon="12.7820335"><ele>714.0</ele><time>2026-04-10T16:46:47.631Z</time></trkpt><trkpt lat="42.6517912" lon="12.7819786"><ele>712.0</ele><time>2026-04-10T16:46:48.64Z</time></trkpt><trkpt lat="42.6516642" lon="12.7819038"><ele>710.0</ele><time>2026-04-10T16:46:49.647Z</time></trkpt><trkpt lat="42.6515387" lon="12.7818218"><ele>710.25</ele><time>2026-04-10T16:46:50.638Z</time></trkpt><trkpt lat="42.6514131" lon="12.7817373"><ele>710.5</ele><time>2026-04-10T16:46:51.634Z</time></trkpt><trkpt lat="42.6512851" lon="12.7816542"><ele>710.75</ele><time>2026-04-10T16:46:52.637Z</time></trkpt><trkpt lat="42.6511504" lon="12.7815667"><ele>711.0</ele><time>2026-04-10T16:46:53.635Z</time></trkpt><trkpt lat="42.6510069" lon="12.781487"><ele>711.0</ele><time>2026-04-10T16:46:54.647Z</time></trkpt><trkpt lat="42.6508597" lon="12.7814197"><ele>711.0</ele><time>2026-04-10T16:46:55.645Z</time></trkpt><trkpt lat="42.6507124" lon="12.7813717"><ele>711.0</ele><time>2026-04-10T16:46:56.641Z</time></trkpt><trkpt lat="42.6505641" lon="12.7813337"><ele>711.0</ele><time>2026-04-10T16:46:57.647Z</time></trkpt><trkpt lat="42.6504254" lon="12.7813102"><ele>711.0</ele><time>2026-04-10T16:46:58.555Z</time></trkpt><trkpt lat="42.6502939" lon="12.7812392"><ele>711.0</ele><time>2026-04-10T16:46:59.556Z</time></trkpt><trkpt lat="42.6501705" lon="12.7811428"><ele>711.0</ele><time>2026-04-10T16:47:00.553Z</time></trkpt><trkpt lat="42.6500304" lon="12.7810233"><ele>709.0</ele><time>2026-04-10T16:47:01.56Z</time></trkpt><trkpt lat="42.6499082" lon="12.7808816"><ele>707.0</ele><time>2026-04-10T16:47:02.557Z</time></trkpt><trkpt lat="42.6497875" lon="12.7807437"><ele>705.0</ele><time>2026-04-10T16:47:03.554Z</time></trkpt><trkpt lat="42.6496689" lon="12.7806293"><ele>705.0</ele><time>2026-04-10T16:47:04.555Z</time></trkpt><trkpt lat="42.6495603" lon="12.7804815"><ele>705.0</ele><time>2026-04-10T16:47:05.566Z</time></trkpt><trkpt lat="42.6494577" lon="12.7803271"><ele>705.0</ele><time>2026-04-10T16:47:06.557Z</time></trkpt><trkpt lat="42.6493712" lon="12.7801501"><ele>699.6666666666666</ele><time>2026-04-10T16:47:07.559Z</time></trkpt><trkpt lat="42.649256" lon="12.7800267"><ele>694.3333333333333</ele><time>2026-04-10T16:47:08.559Z</time></trkpt><trkpt lat="42.6491101" lon="12.7799287"><ele>689.0</ele><time>2026-04-10T16:47:09.551Z</time></trkpt><trkpt lat="42.6489648" lon="12.7798611"><ele>689.0</ele><time>2026-04-10T16:47:10.556Z</time></trkpt><trkpt lat="42.6488165" lon="12.7798065"><ele>689.0</ele><time>2026-04-10T16:47:11.551Z</time></trkpt><trkpt lat="42.648673" lon="12.7797617"><ele>689.0</ele><time>2026-04-10T16:47:12.554Z</time></trkpt><trkpt lat="42.6485435" lon="12.7797011"><ele>689.0</ele><time>2026-04-10T16:47:13.551Z</time></trkpt><trkpt lat="42.6484257" lon="12.7795998"><ele>685.3333333333333</ele><time>2026-04-10T16:47:14.555Z</time></trkpt><trkpt lat="42.6483066" lon="12.7794787"><ele>681.6666666666666</ele><time>2026-04-10T16:47:15.558Z</time></trkpt><trkpt lat="42.6482057" lon="12.7793357"><ele>678.0</ele><time>2026-04-10T16:47:16.561Z</time></trkpt><trkpt lat="42.6480961" lon="12.7791812"><ele>678.0</ele><time>2026-04-10T16:47:17.565Z</time></trkpt><trkpt lat="42.6479888" lon="12.7790306"><ele>678.0</ele><time>2026-04-10T16:47:18.568Z</time></trkpt><trkpt lat="42.6478875" lon="12.778895"><ele>678.0</ele><time>2026-04-10T16:47:19.568Z</time></trkpt><trkpt lat="42.6478028" lon="12.7787463"><ele>678.0</ele><time>2026-04-10T16:47:20.564Z</time></trkpt><trkpt lat="42.6477414" lon="12.7785666"><ele>670.5</ele><time>2026-04-10T16:47:21.569Z</time></trkpt><trkpt lat="42.6476957" lon="12.7783773"><ele>663.0</ele><time>2026-04-10T16:47:22.558Z</time></trkpt><trkpt lat="42.6476699" lon="12.7782187"><ele>655.5</ele><time>2026-04-10T16:47:23.56Z</time></trkpt><trkpt lat="42.6476727" lon="12.7780442"><ele>648.0</ele><time>2026-04-10T16:47:24.554Z</time></trkpt><trkpt lat="42.64772" lon="12.7778784"><ele>648.0</ele><time>2026-04-10T16:47:25.553Z</time></trkpt><trkpt lat="42.6477891" lon="12.7777576"><ele>648.0</ele><time>2026-04-10T16:47:26.551Z</time></trkpt><trkpt lat="42.6478067" lon="12.7776467"><ele>648.0</ele><time>2026-04-10T16:47:27.556Z</time></trkpt><trkpt lat="42.6477849" lon="12.7775385"><ele>648.0</ele><time>2026-04-10T16:47:28.539Z</time></trkpt><trkpt lat="42.6477214" lon="12.7774768"><ele>648.0</ele><time>2026-04-10T16:47:29.551Z</time></trkpt><trkpt lat="42.6476126" lon="12.7774859"><ele>648.0</ele><time>2026-04-10T16:47:31.548Z</time></trkpt><trkpt lat="42.6475451" lon="12.7775544"><ele>648.0</ele><time>2026-04-10T16:47:32.541Z</time></trkpt><trkpt lat="42.6474844" lon="12.7776694"><ele>648.0</ele><time>2026-04-10T16:47:33.548Z</time></trkpt><trkpt lat="42.6474072" lon="12.7778232"><ele>648.0</ele><time>2026-04-10T16:47:34.552Z</time></trkpt><trkpt lat="42.6473452" lon="12.7780047"><ele>648.0</ele><time>2026-04-10T16:47:35.55Z</time></trkpt><trkpt lat="42.6472909" lon="12.7782101"><ele>648.0</ele><time>2026-04-10T16:47:36.565Z</time></trkpt><trkpt lat="42.6472454" lon="12.7784404"><ele>648.0</ele><time>2026-04-10T16:47:37.556Z</time></trkpt><trkpt lat="42.6472205" lon="12.7786706"><ele>647.5</ele><time>2026-04-10T16:47:38.563Z</time></trkpt><trkpt lat="42.6471902" lon="12.7788789"><ele>647.0</ele><time>2026-04-10T16:47:39.561Z</time></trkpt><trkpt lat="42.6471784" lon="12.7790823"><ele>646.5</ele><time>2026-04-10T16:47:40.561Z</time></trkpt><trkpt lat="42.6471425" lon="12.7792634"><ele>646.0</ele><time>2026-04-10T16:47:41.565Z</time></trkpt><trkpt lat="42.6471371" lon="12.7794648"><ele>644.5999999999999</ele><time>2026-04-10T16:47:42.562Z</time></trkpt><trkpt lat="42.6471194" lon="12.7796613"><ele>643.1999999999999</ele><time>2026-04-10T16:47:43.565Z</time></trkpt><trkpt lat="42.6470868" lon="12.7798061"><ele>641.8</ele><time>2026-04-10T16:47:44.548Z</time></trkpt><trkpt lat="42.6470863" lon="12.7799149"><ele>640.4</ele><time>2026-04-10T16:47:45.553Z</time></trkpt><trkpt lat="42.6470762" lon="12.7800108"><ele>639.0</ele><time>2026-04-10T16:47:46.551Z</time></trkpt><trkpt lat="42.6470703" lon="12.7801144"><ele>639.0</ele><time>2026-04-10T16:47:48.556Z</time></trkpt><trkpt lat="42.6469635" lon="12.7800959"><ele>639.0</ele><time>2026-04-10T16:47:50.561Z</time></trkpt><trkpt lat="42.6469214" lon="12.7799964"><ele>639.0</ele><time>2026-04-10T16:47:51.551Z</time></trkpt><trkpt lat="42.6468822" lon="12.7798516"><ele>639.0</ele><time>2026-04-10T16:47:52.56Z</time></trkpt><trkpt lat="42.6468612" lon="12.7796628"><ele>639.0</ele><time>2026-04-10T16:47:53.552Z</time></trkpt><trkpt lat="42.6468265" lon="12.7794334"><ele>628.6666666666666</ele><time>2026-04-10T16:47:54.543Z</time></trkpt><trkpt lat="42.6467764" lon="12.779194"><ele>618.3333333333333</ele><time>2026-04-10T16:47:55.544Z</time></trkpt><trkpt lat="42.646729" lon="12.778959"><ele>608.0</ele><time>2026-04-10T16:47:56.548Z</time></trkpt><trkpt lat="42.6466587" lon="12.7787668"><ele>608.0</ele><time>2026-04-10T16:47:57.55Z</time></trkpt><trkpt lat="42.6466057" lon="12.7785789"><ele>608.0</ele><time>2026-04-10T16:47:58.55Z</time></trkpt><trkpt lat="42.6465952" lon="12.778363"><ele>608.0</ele><time>2026-04-10T16:47:59.553Z</time></trkpt><trkpt lat="42.6465928" lon="12.7781443"><ele>607.6666666666666</ele><time>2026-04-10T16:48:00.554Z</time></trkpt><trkpt lat="42.6465848" lon="12.777931"><ele>607.3333333333334</ele><time>2026-04-10T16:48:01.555Z</time></trkpt><trkpt lat="42.6465703" lon="12.7777039"><ele>607.0</ele><time>2026-04-10T16:48:02.55Z</time></trkpt><trkpt lat="42.6465507" lon="12.7774857"><ele>607.0</ele><time>2026-04-10T16:48:03.551Z</time></trkpt><trkpt lat="42.6465025" lon="12.7772982"><ele>607.0</ele><time>2026-04-10T16:48:04.551Z</time></trkpt><trkpt lat="42.6464561" lon="12.7771013"><ele>607.0</ele><time>2026-04-10T16:48:05.55Z</time></trkpt><trkpt lat="42.6464133" lon="12.7769015"><ele>607.0</ele><time>2026-04-10T16:48:06.555Z</time></trkpt><trkpt lat="42.6463751" lon="12.7766941"><ele>607.0</ele><time>2026-04-10T16:48:07.574Z</time></trkpt><trkpt lat="42.6463638" lon="12.7765"><ele>607.0</ele><time>2026-04-10T16:48:08.547Z</time></trkpt><trkpt lat="42.6463559" lon="12.7762844"><ele>607.0</ele><time>2026-04-10T16:48:09.552Z</time></trkpt><trkpt lat="42.6463712" lon="12.7760659"><ele>607.0</ele><time>2026-04-10T16:48:10.552Z</time></trkpt><trkpt lat="42.6464013" lon="12.7758567"><ele>607.0</ele><time>2026-04-10T16:48:11.553Z</time></trkpt><trkpt lat="42.6464033" lon="12.7756493"><ele>605.3333333333334</ele><time>2026-04-10T16:48:12.556Z</time></trkpt><trkpt lat="42.6463912" lon="12.775435"><ele>603.6666666666666</ele><time>2026-04-10T16:48:13.555Z</time></trkpt><trkpt lat="42.6463775" lon="12.7752231"><ele>602.0</ele><time>2026-04-10T16:48:14.555Z</time></trkpt><trkpt lat="42.6463724" lon="12.7750057"><ele>599.25</ele><time>2026-04-10T16:48:15.554Z</time></trkpt><trkpt lat="42.6463455" lon="12.7748008"><ele>596.5</ele><time>2026-04-10T16:48:16.556Z</time></trkpt><trkpt lat="42.6463112" lon="12.7746029"><ele>593.75</ele><time>2026-04-10T16:48:17.55Z</time></trkpt><trkpt lat="42.6462827" lon="12.7744439"><ele>591.0</ele><time>2026-04-10T16:48:18.548Z</time></trkpt><trkpt lat="42.6462626" lon="12.7742854"><ele>589.8</ele><time>2026-04-10T16:48:19.558Z</time></trkpt><trkpt lat="42.646255" lon="12.7741277"><ele>588.6</ele><time>2026-04-10T16:48:20.555Z</time></trkpt><trkpt lat="42.6462525" lon="12.7739806"><ele>587.4</ele><time>2026-04-10T16:48:21.558Z</time></trkpt><trkpt lat="42.6462606" lon="12.7738607"><ele>586.2</ele><time>2026-04-10T16:48:22.552Z</time></trkpt><trkpt lat="42.6462806" lon="12.7737458"><ele>585.0</ele><time>2026-04-10T16:48:23.546Z</time></trkpt><trkpt lat="42.6462847" lon="12.7736452"><ele>584.5714285714286</ele><time>2026-04-10T16:48:24.548Z</time></trkpt><trkpt lat="42.6462959" lon="12.7735182"><ele>584.1428571428571</ele><time>2026-04-10T16:48:26.546Z</time></trkpt><trkpt lat="42.6462998" lon="12.7734325"><ele>583.7142857142857</ele><time>2026-04-10T16:48:28.556Z</time></trkpt><trkpt lat="42.6463043" lon="12.7733365"><ele>583.2857142857142</ele><time>2026-04-10T16:48:30.559Z</time></trkpt><trkpt lat="42.6463211" lon="12.7732525"><ele>582.8571428571428</ele><time>2026-04-10T16:48:31.554Z</time></trkpt><trkpt lat="42.6463409" lon="12.773168"><ele>582.4285714285714</ele><time>2026-04-10T16:48:32.551Z</time></trkpt><trkpt lat="42.6463515" lon="12.7730834"><ele>582.0</ele><time>2026-04-10T16:48:33.554Z</time></trkpt><trkpt lat="42.6463657" lon="12.7729991"><ele>582.0</ele><time>2026-04-10T16:48:34.555Z</time></trkpt><trkpt lat="42.6463993" lon="12.7728252"><ele>582.0</ele><time>2026-04-10T16:48:36.556Z</time></trkpt><trkpt lat="42.6464199" lon="12.7727107"><ele>582.0</ele><time>2026-04-10T16:48:37.561Z</time></trkpt><trkpt lat="42.6464394" lon="12.7725796"><ele>582.0</ele><time>2026-04-10T16:48:38.547Z</time></trkpt><trkpt lat="42.6464736" lon="12.7724293"><ele>582.0</ele><time>2026-04-10T16:48:39.548Z</time></trkpt><trkpt lat="42.6465215" lon="12.7722661"><ele>577.5</ele><time>2026-04-10T16:48:40.554Z</time></trkpt><trkpt lat="42.6465744" lon="12.7721146"><ele>573.0</ele><time>2026-04-10T16:48:41.541Z</time></trkpt><trkpt lat="42.6466442" lon="12.7719778"><ele>568.5</ele><time>2026-04-10T16:48:42.542Z</time></trkpt><trkpt lat="42.6467421" lon="12.7718686"><ele>564.0</ele><time>2026-04-10T16:48:43.537Z</time></trkpt><trkpt lat="42.6468578" lon="12.7717933"><ele>562.25</ele><time>2026-04-10T16:48:44.541Z</time></trkpt><trkpt lat="42.6469889" lon="12.7717504"><ele>560.5</ele><time>2026-04-10T16:48:45.537Z</time></trkpt><trkpt lat="42.647127" lon="12.7717409"><ele>558.75</ele><time>2026-04-10T16:48:46.545Z</time></trkpt><trkpt lat="42.6472528" lon="12.7717316"><ele>557.0</ele><time>2026-04-10T16:48:47.538Z</time></trkpt><trkpt lat="42.6473699" lon="12.7717209"><ele>557.0</ele><time>2026-04-10T16:48:48.531Z</time></trkpt><trkpt lat="42.6474825" lon="12.7716913"><ele>557.0</ele><time>2026-04-10T16:48:49.531Z</time></trkpt><trkpt lat="42.6475771" lon="12.7716315"><ele>557.0</ele><time>2026-04-10T16:48:50.543Z</time></trkpt><trkpt lat="42.64765" lon="12.7715578"><ele>557.0</ele><time>2026-04-10T16:48:51.553Z</time></trkpt><trkpt lat="42.6476807" lon="12.7714677"><ele>557.0</ele><time>2026-04-10T16:48:52.546Z</time></trkpt><trkpt lat="42.6476651" lon="12.7713535"><ele>557.0</ele><time>2026-04-10T16:48:53.541Z</time></trkpt><trkpt lat="42.6476062" lon="12.7712419"><ele>557.0</ele><time>2026-04-10T16:48:54.541Z</time></trkpt><trkpt lat="42.6475226" lon="12.7711354"><ele>557.0</ele><time>2026-04-10T16:48:55.536Z</time></trkpt><trkpt lat="42.6474046" lon="12.7710103"><ele>557.0</ele><time>2026-04-10T16:48:56.539Z</time></trkpt><trkpt lat="42.6473189" lon="12.7708911"><ele>564.3333333333333</ele><time>2026-04-10T16:48:57.548Z</time></trkpt><trkpt lat="42.6472442" lon="12.7707401"><ele>571.6666666666666</ele><time>2026-04-10T16:48:58.554Z</time></trkpt><trkpt lat="42.6471491" lon="12.7705793"><ele>579.0</ele><time>2026-04-10T16:48:59.551Z</time></trkpt><trkpt lat="42.6470089" lon="12.7703993"><ele>579.0</ele><time>2026-04-10T16:49:00.553Z</time></trkpt><trkpt lat="42.64698" lon="12.7702284"><ele>579.0</ele><time>2026-04-10T16:49:01.557Z</time></trkpt><trkpt lat="42.6469755" lon="12.7700538"><ele>579.0</ele><time>2026-04-10T16:49:02.553Z</time></trkpt><trkpt lat="42.6469978" lon="12.7699072"><ele>579.0</ele><time>2026-04-10T16:49:03.557Z</time></trkpt><trkpt lat="42.6470368" lon="12.769758"><ele>580.25</ele><time>2026-04-10T16:49:04.562Z</time></trkpt><trkpt lat="42.647092" lon="12.76961"><ele>581.5</ele><time>2026-04-10T16:49:05.562Z</time></trkpt><trkpt lat="42.6471483" lon="12.7694407"><ele>582.75</ele><time>2026-04-10T16:49:06.564Z</time></trkpt><trkpt lat="42.6472035" lon="12.7692938"><ele>584.0</ele><time>2026-04-10T16:49:07.566Z</time></trkpt><trkpt lat="42.6472695" lon="12.7691477"><ele>584.0</ele><time>2026-04-10T16:49:08.587Z</time></trkpt><trkpt lat="42.6473269" lon="12.7689975"><ele>584.0</ele><time>2026-04-10T16:49:09.567Z</time></trkpt><trkpt lat="42.6473668" lon="12.7688442"><ele>584.0</ele><time>2026-04-10T16:49:10.57Z</time></trkpt><trkpt lat="42.6473999" lon="12.7686838"><ele>584.0</ele><time>2026-04-10T16:49:11.572Z</time></trkpt><trkpt lat="42.6474238" lon="12.7685187"><ele>581.75</ele><time>2026-04-10T16:49:12.569Z</time></trkpt><trkpt lat="42.6474642" lon="12.7683524"><ele>579.5</ele><time>2026-04-10T16:49:13.572Z</time></trkpt><trkpt lat="42.647517" lon="12.7681769"><ele>577.25</ele><time>2026-04-10T16:49:14.575Z</time></trkpt><trkpt lat="42.6475635" lon="12.7680001"><ele>575.0</ele><time>2026-04-10T16:49:15.571Z</time></trkpt><trkpt lat="42.6475999" lon="12.7678077"><ele>572.0</ele><time>2026-04-10T16:49:16.567Z</time></trkpt><trkpt lat="42.6476382" lon="12.7676112"><ele>569.0</ele><time>2026-04-10T16:49:17.573Z</time></trkpt><trkpt lat="42.6476806" lon="12.7674045"><ele>566.0</ele><time>2026-04-10T16:49:18.577Z</time></trkpt><trkpt lat="42.6477304" lon="12.7671974"><ele>566.0</ele><time>2026-04-10T16:49:19.577Z</time></trkpt><trkpt lat="42.647782" lon="12.7669971"><ele>566.0</ele><time>2026-04-10T16:49:20.58Z</time></trkpt><trkpt lat="42.6478291" lon="12.7667931"><ele>566.0</ele><time>2026-04-10T16:49:21.58Z</time></trkpt><trkpt lat="42.6478909" lon="12.7665893"><ele>572.5</ele><time>2026-04-10T16:49:22.575Z</time></trkpt><trkpt lat="42.6479277" lon="12.7663821"><ele>579.0</ele><time>2026-04-10T16:49:23.578Z</time></trkpt><trkpt lat="42.6479638" lon="12.7661945"><ele>585.5</ele><time>2026-04-10T16:49:24.576Z</time></trkpt><trkpt lat="42.6479948" lon="12.76602"><ele>592.0</ele><time>2026-04-10T16:49:25.58Z</time></trkpt><trkpt lat="42.6480501" lon="12.7658309"><ele>592.0</ele><time>2026-04-10T16:49:26.578Z</time></trkpt><trkpt lat="42.6481407" lon="12.7656358"><ele>592.0</ele><time>2026-04-10T16:49:27.576Z</time></trkpt><trkpt lat="42.6482055" lon="12.7654156"><ele>592.0</ele><time>2026-04-10T16:49:28.58Z</time></trkpt><trkpt lat="42.6483065" lon="12.7652523"><ele>590.5</ele><time>2026-04-10T16:49:29.576Z</time></trkpt><trkpt lat="42.6483774" lon="12.7650853"><ele>589.0</ele><time>2026-04-10T16:49:30.579Z</time></trkpt><trkpt lat="42.6484393" lon="12.7649161"><ele>587.5</ele><time>2026-04-10T16:49:31.577Z</time></trkpt><trkpt lat="42.6484866" lon="12.764756"><ele>586.0</ele><time>2026-04-10T16:49:32.572Z</time></trkpt><trkpt lat="42.6485153" lon="12.764596"><ele>586.0</ele><time>2026-04-10T16:49:33.568Z</time></trkpt><trkpt lat="42.6484767" lon="12.7644288"><ele>586.0</ele><time>2026-04-10T16:49:34.576Z</time></trkpt><trkpt lat="42.6484059" lon="12.7642451"><ele>586.0</ele><time>2026-04-10T16:49:35.565Z</time></trkpt><trkpt lat="42.6483183" lon="12.7640624"><ele>586.0</ele><time>2026-04-10T16:49:36.573Z</time></trkpt><trkpt lat="42.6482603" lon="12.7638556"><ele>586.0</ele><time>2026-04-10T16:49:37.56Z</time></trkpt><trkpt lat="42.648215" lon="12.7636171"><ele>586.0</ele><time>2026-04-10T16:49:38.567Z</time></trkpt><trkpt lat="42.6481773" lon="12.7633806"><ele>586.0</ele><time>2026-04-10T16:49:39.581Z</time></trkpt><trkpt lat="42.6481537" lon="12.7631414"><ele>586.6666666666667</ele><time>2026-04-10T16:49:40.571Z</time></trkpt><trkpt lat="42.6480998" lon="12.7629054"><ele>587.3333333333334</ele><time>2026-04-10T16:49:41.576Z</time></trkpt><trkpt lat="42.6480199" lon="12.7626575"><ele>588.0</ele><time>2026-04-10T16:49:42.564Z</time></trkpt><trkpt lat="42.6479318" lon="12.7624305"><ele>585.0</ele><time>2026-04-10T16:49:43.564Z</time></trkpt><trkpt lat="42.6478539" lon="12.7622179"><ele>582.0</ele><time>2026-04-10T16:49:44.565Z</time></trkpt><trkpt lat="42.6477869" lon="12.7620321"><ele>579.0</ele><time>2026-04-10T16:49:45.568Z</time></trkpt><trkpt lat="42.6477469" lon="12.7618067"><ele>579.0</ele><time>2026-04-10T16:49:46.557Z</time></trkpt><trkpt lat="42.6477394" lon="12.7616017"><ele>579.0</ele><time>2026-04-10T16:49:47.56Z</time></trkpt><trkpt lat="42.6477356" lon="12.7613912"><ele>579.0</ele><time>2026-04-10T16:49:48.559Z</time></trkpt><trkpt lat="42.6477745" lon="12.7611649"><ele>582.0</ele><time>2026-04-10T16:49:49.569Z</time></trkpt><trkpt lat="42.6477988" lon="12.7609455"><ele>585.0</ele><time>2026-04-10T16:49:50.56Z</time></trkpt><trkpt lat="42.6477683" lon="12.7607775"><ele>588.0</ele><time>2026-04-10T16:49:51.557Z</time></trkpt><trkpt lat="42.6476772" lon="12.7606307"><ele>591.0</ele><time>2026-04-10T16:49:52.554Z</time></trkpt><trkpt lat="42.6475779" lon="12.7605195"><ele>591.0</ele><time>2026-04-10T16:49:53.559Z</time></trkpt><trkpt lat="42.6474755" lon="12.7604102"><ele>591.0</ele><time>2026-04-10T16:49:54.556Z</time></trkpt><trkpt lat="42.6473873" lon="12.7602835"><ele>591.0</ele><time>2026-04-10T16:49:55.557Z</time></trkpt><trkpt lat="42.6473524" lon="12.7600893"><ele>591.0</ele><time>2026-04-10T16:49:56.556Z</time></trkpt><trkpt lat="42.6473305" lon="12.7598857"><ele>592.4</ele><time>2026-04-10T16:49:57.556Z</time></trkpt><trkpt lat="42.6473241" lon="12.759717"><ele>593.8</ele><time>2026-04-10T16:49:58.563Z</time></trkpt><trkpt lat="42.6473437" lon="12.7595849"><ele>595.1999999999999</ele><time>2026-04-10T16:49:59.562Z</time></trkpt><trkpt lat="42.6473949" lon="12.7594856"><ele>596.6</ele><time>2026-04-10T16:50:00.571Z</time></trkpt><trkpt lat="42.6474588" lon="12.7594198"><ele>598.0</ele><time>2026-04-10T16:50:01.557Z</time></trkpt><trkpt lat="42.6475377" lon="12.7593744"><ele>598.0</ele><time>2026-04-10T16:50:02.551Z</time></trkpt><trkpt lat="42.6476489" lon="12.7593495"><ele>598.0</ele><time>2026-04-10T16:50:03.56Z</time></trkpt><trkpt lat="42.6477936" lon="12.7593123"><ele>598.0</ele><time>2026-04-10T16:50:04.554Z</time></trkpt><trkpt lat="42.6479304" lon="12.7592385"><ele>598.0</ele><time>2026-04-10T16:50:05.565Z</time></trkpt><trkpt lat="42.6480839" lon="12.7591501"><ele>598.0</ele><time>2026-04-10T16:50:06.556Z</time></trkpt><trkpt lat="42.6482262" lon="12.7591001"><ele>598.0</ele><time>2026-04-10T16:50:07.558Z</time></trkpt><trkpt lat="42.6483641" lon="12.7590533"><ele>598.0</ele><time>2026-04-10T16:50:08.554Z</time></trkpt><trkpt lat="42.6485032" lon="12.7590085"><ele>598.0</ele><time>2026-04-10T16:50:09.556Z</time></trkpt><trkpt lat="42.6486671" lon="12.75901"><ele>606.0</ele><time>2026-04-10T16:50:10.569Z</time></trkpt><trkpt lat="42.6488124" lon="12.7589565"><ele>614.0</ele><time>2026-04-10T16:50:11.552Z</time></trkpt><trkpt lat="42.6489524" lon="12.7589261"><ele>622.0</ele><time>2026-04-10T16:50:12.569Z</time></trkpt><trkpt lat="42.6491161" lon="12.7588742"><ele>622.0</ele><time>2026-04-10T16:50:13.552Z</time></trkpt><trkpt lat="42.6492621" lon="12.7588118"><ele>622.0</ele><time>2026-04-10T16:50:14.556Z</time></trkpt><trkpt lat="42.6494033" lon="12.7587225"><ele>622.0</ele><time>2026-04-10T16:50:15.559Z</time></trkpt><trkpt lat="42.6495269" lon="12.7586394"><ele>622.0</ele><time>2026-04-10T16:50:16.557Z</time></trkpt><trkpt lat="42.6496583" lon="12.7585306"><ele>619.3333333333334</ele><time>2026-04-10T16:50:17.558Z</time></trkpt><trkpt lat="42.6497981" lon="12.7584297"><ele>616.6666666666666</ele><time>2026-04-10T16:50:18.554Z</time></trkpt><trkpt lat="42.6499061" lon="12.7582793"><ele>614.0</ele><time>2026-04-10T16:50:19.554Z</time></trkpt><trkpt lat="42.6500213" lon="12.758106"><ele>614.0</ele><time>2026-04-10T16:50:20.56Z</time></trkpt><trkpt lat="42.650124" lon="12.7579347"><ele>614.0</ele><time>2026-04-10T16:50:21.558Z</time></trkpt><trkpt lat="42.6502303" lon="12.7577767"><ele>614.0</ele><time>2026-04-10T16:50:22.56Z</time></trkpt><trkpt lat="42.6503531" lon="12.7576458"><ele>619.5</ele><time>2026-04-10T16:50:23.559Z</time></trkpt><trkpt lat="42.6504421" lon="12.7575494"><ele>625.0</ele><time>2026-04-10T16:50:24.555Z</time></trkpt><trkpt lat="42.650552" lon="12.7574756"><ele>630.5</ele><time>2026-04-10T16:50:25.555Z</time></trkpt><trkpt lat="42.6506311" lon="12.7573807"><ele>636.0</ele><time>2026-04-10T16:50:26.552Z</time></trkpt><trkpt lat="42.6506953" lon="12.7572218"><ele>636.0</ele><time>2026-04-10T16:50:27.549Z</time></trkpt><trkpt lat="42.6507603" lon="12.7570956"><ele>636.0</ele><time>2026-04-10T16:50:28.552Z</time></trkpt><trkpt lat="42.6507863" lon="12.7569514"><ele>636.0</ele><time>2026-04-10T16:50:29.549Z</time></trkpt><trkpt lat="42.6507878" lon="12.7568194"><ele>636.0</ele><time>2026-04-10T16:50:30.553Z</time></trkpt><trkpt lat="42.6507796" lon="12.7566941"><ele>636.0</ele><time>2026-04-10T16:50:31.558Z</time></trkpt><trkpt lat="42.6507277" lon="12.756604"><ele>635.8</ele><time>2026-04-10T16:50:32.555Z</time></trkpt><trkpt lat="42.6506602" lon="12.7565317"><ele>635.6</ele><time>2026-04-10T16:50:33.555Z</time></trkpt><trkpt lat="42.6505862" lon="12.7565082"><ele>635.4</ele><time>2026-04-10T16:50:34.553Z</time></trkpt><trkpt lat="42.6504814" lon="12.7565674"><ele>635.2</ele><time>2026-04-10T16:50:35.553Z</time></trkpt><trkpt lat="42.6503574" lon="12.7566487"><ele>635.0</ele><time>2026-04-10T16:50:36.55Z</time></trkpt><trkpt lat="42.650235" lon="12.7567177"><ele>634.3333333333333</ele><time>2026-04-10T16:50:37.547Z</time></trkpt><trkpt lat="42.6500818" lon="12.7567548"><ele>633.6666666666666</ele><time>2026-04-10T16:50:38.55Z</time></trkpt><trkpt lat="42.6499231" lon="12.7567853"><ele>633.0</ele><time>2026-04-10T16:50:39.549Z</time></trkpt><trkpt lat="42.6497567" lon="12.7568523"><ele>623.0</ele><time>2026-04-10T16:50:40.555Z</time></trkpt><trkpt lat="42.6495977" lon="12.7569106"><ele>613.0</ele><time>2026-04-10T16:50:41.566Z</time></trkpt><trkpt lat="42.6494315" lon="12.7569645"><ele>603.0</ele><time>2026-04-10T16:50:42.552Z</time></trkpt><trkpt lat="42.6492675" lon="12.7569717"><ele>602.3333333333334</ele><time>2026-04-10T16:50:43.555Z</time></trkpt><trkpt lat="42.6491067" lon="12.7569244"><ele>601.6666666666667</ele><time>2026-04-10T16:50:44.553Z</time></trkpt><trkpt lat="42.6489554" lon="12.7568341"><ele>601.0</ele><time>2026-04-10T16:50:45.556Z</time></trkpt><trkpt lat="42.6487967" lon="12.7567543"><ele>609.0</ele><time>2026-04-10T16:50:46.628Z</time></trkpt><trkpt lat="42.648645" lon="12.7566506"><ele>617.0</ele><time>2026-04-10T16:50:47.631Z</time></trkpt><trkpt lat="42.6484968" lon="12.7565274"><ele>625.0</ele><time>2026-04-10T16:50:48.633Z</time></trkpt><trkpt lat="42.6483431" lon="12.7564077"><ele>625.0</ele><time>2026-04-10T16:50:49.623Z</time></trkpt><trkpt lat="42.6481857" lon="12.7562873"><ele>625.0</ele><time>2026-04-10T16:50:50.626Z</time></trkpt><trkpt lat="42.6480269" lon="12.7561627"><ele>625.0</ele><time>2026-04-10T16:50:51.624Z</time></trkpt><trkpt lat="42.6478665" lon="12.7560364"><ele>628.3333333333334</ele><time>2026-04-10T16:50:52.627Z</time></trkpt><trkpt lat="42.6477092" lon="12.7559102"><ele>631.6666666666666</ele><time>2026-04-10T16:50:53.641Z</time></trkpt><trkpt lat="42.6475521" lon="12.7557822"><ele>635.0</ele><time>2026-04-10T16:50:54.642Z</time></trkpt><trkpt lat="42.6473949" lon="12.7556509"><ele>635.0</ele><time>2026-04-10T16:50:55.644Z</time></trkpt><trkpt lat="42.647238" lon="12.7555201"><ele>635.0</ele><time>2026-04-10T16:50:56.641Z</time></trkpt><trkpt lat="42.6471019" lon="12.7553804"><ele>635.0</ele><time>2026-04-10T16:50:57.639Z</time></trkpt><trkpt lat="42.6469577" lon="12.7552577"><ele>635.5</ele><time>2026-04-10T16:50:58.644Z</time></trkpt><trkpt lat="42.6468262" lon="12.7551437"><ele>636.0</ele><time>2026-04-10T16:50:59.644Z</time></trkpt><trkpt lat="42.6467056" lon="12.755042"><ele>636.5</ele><time>2026-04-10T16:51:00.645Z</time></trkpt><trkpt lat="42.6465917" lon="12.7549483"><ele>637.0</ele><time>2026-04-10T16:51:01.652Z</time></trkpt><trkpt lat="42.6464777" lon="12.754853"><ele>637.0</ele><time>2026-04-10T16:51:02.64Z</time></trkpt><trkpt lat="42.6463858" lon="12.754746"><ele>637.0</ele><time>2026-04-10T16:51:03.637Z</time></trkpt><trkpt lat="42.6463187" lon="12.7546163"><ele>637.0</ele><time>2026-04-10T16:51:04.634Z</time></trkpt><trkpt lat="42.6462574" lon="12.7544479"><ele>637.0</ele><time>2026-04-10T16:51:05.629Z</time></trkpt><trkpt lat="42.6462013" lon="12.7542691"><ele>637.5</ele><time>2026-04-10T16:51:06.63Z</time></trkpt><trkpt lat="42.646149" lon="12.7540878"><ele>638.0</ele><time>2026-04-10T16:51:07.632Z</time></trkpt><trkpt lat="42.6460969" lon="12.7539018"><ele>638.5</ele><time>2026-04-10T16:51:08.632Z</time></trkpt><trkpt lat="42.6460479" lon="12.7537095"><ele>639.0</ele><time>2026-04-10T16:51:09.644Z</time></trkpt><trkpt lat="42.646002" lon="12.7535195"><ele>639.0</ele><time>2026-04-10T16:51:10.645Z</time></trkpt><trkpt lat="42.6459594" lon="12.7533343"><ele>639.0</ele><time>2026-04-10T16:51:11.649Z</time></trkpt><trkpt lat="42.6459211" lon="12.7531664"><ele>639.0</ele><time>2026-04-10T16:51:12.654Z</time></trkpt><trkpt lat="42.6458824" lon="12.7530118"><ele>639.0</ele><time>2026-04-10T16:51:13.64Z</time></trkpt><trkpt lat="42.645848" lon="12.752873"><ele>639.0</ele><time>2026-04-10T16:51:14.648Z</time></trkpt><trkpt lat="42.6458159" lon="12.7527425"><ele>639.0</ele><time>2026-04-10T16:51:15.642Z</time></trkpt><trkpt lat="42.6457883" lon="12.752626"><ele>639.0</ele><time>2026-04-10T16:51:16.64Z</time></trkpt><trkpt lat="42.6457614" lon="12.7525296"><ele>639.0</ele><time>2026-04-10T16:51:17.64Z</time></trkpt><trkpt lat="42.6457333" lon="12.7524433"><ele>639.0</ele><time>2026-04-10T16:51:18.643Z</time></trkpt><trkpt lat="42.6456664" lon="12.7522984"><ele>641.8</ele><time>2026-04-10T16:51:20.554Z</time></trkpt><trkpt lat="42.6456239" lon="12.7522219"><ele>644.5999999999999</ele><time>2026-04-10T16:51:21.548Z</time></trkpt><trkpt lat="42.6455676" lon="12.7521308"><ele>647.4</ele><time>2026-04-10T16:51:22.551Z</time></trkpt><trkpt lat="42.6454969" lon="12.7520337"><ele>650.1999999999999</ele><time>2026-04-10T16:51:23.542Z</time></trkpt><trkpt lat="42.6454086" lon="12.7519319"><ele>653.0</ele><time>2026-04-10T16:51:24.548Z</time></trkpt><trkpt lat="42.6453106" lon="12.7518219"><ele>653.5</ele><time>2026-04-10T16:51:25.545Z</time></trkpt><trkpt lat="42.6452091" lon="12.7517043"><ele>654.0</ele><time>2026-04-10T16:51:26.551Z</time></trkpt><trkpt lat="42.6450972" lon="12.7515774"><ele>654.5</ele><time>2026-04-10T16:51:27.552Z</time></trkpt><trkpt lat="42.6449801" lon="12.7514537"><ele>655.0</ele><time>2026-04-10T16:51:28.558Z</time></trkpt><trkpt lat="42.6448579" lon="12.7513266"><ele>655.0</ele><time>2026-04-10T16:51:29.551Z</time></trkpt><trkpt lat="42.6447291" lon="12.7511941"><ele>655.0</ele><time>2026-04-10T16:51:30.555Z</time></trkpt><trkpt lat="42.6445928" lon="12.7510795"><ele>655.0</ele><time>2026-04-10T16:51:31.552Z</time></trkpt><trkpt lat="42.6444662" lon="12.7509641"><ele>659.6666666666667</ele><time>2026-04-10T16:51:32.55Z</time></trkpt><trkpt lat="42.6443373" lon="12.7508325"><ele>664.3333333333334</ele><time>2026-04-10T16:51:33.548Z</time></trkpt><trkpt lat="42.6442109" lon="12.7506949"><ele>669.0</ele><time>2026-04-10T16:51:34.548Z</time></trkpt><trkpt lat="42.6440591" lon="12.7505838"><ele>669.0</ele><time>2026-04-10T16:51:35.547Z</time></trkpt><trkpt lat="42.6439397" lon="12.7504643"><ele>669.0</ele><time>2026-04-10T16:51:36.542Z</time></trkpt><trkpt lat="42.6438158" lon="12.750407"><ele>669.0</ele><time>2026-04-10T16:51:37.546Z</time></trkpt><trkpt lat="42.6436803" lon="12.7503358"><ele>669.0</ele><time>2026-04-10T16:51:38.544Z</time></trkpt><trkpt lat="42.6435132" lon="12.7503083"><ele>667.3333333333334</ele><time>2026-04-10T16:51:39.544Z</time></trkpt><trkpt lat="42.6433399" lon="12.7503161"><ele>665.6666666666667</ele><time>2026-04-10T16:51:40.55Z</time></trkpt><trkpt lat="42.6431513" lon="12.7503491"><ele>664.0</ele><time>2026-04-10T16:51:41.548Z</time></trkpt><trkpt lat="42.6429669" lon="12.7503622"><ele>664.0</ele><time>2026-04-10T16:51:42.546Z</time></trkpt><trkpt lat="42.6428034" lon="12.7503662"><ele>664.0</ele><time>2026-04-10T16:51:43.558Z</time></trkpt><trkpt lat="42.6426297" lon="12.7504124"><ele>664.0</ele><time>2026-04-10T16:51:44.545Z</time></trkpt><trkpt lat="42.6424357" lon="12.7504382"><ele>666.25</ele><time>2026-04-10T16:51:45.552Z</time></trkpt><trkpt lat="42.642255" lon="12.7504747"><ele>668.5</ele><time>2026-04-10T16:51:46.541Z</time></trkpt><trkpt lat="42.6421374" lon="12.7505297"><ele>670.75</ele><time>2026-04-10T16:51:47.54Z</time></trkpt><trkpt lat="42.6420467" lon="12.7506179"><ele>673.0</ele><time>2026-04-10T16:51:48.539Z</time></trkpt><trkpt lat="42.6419602" lon="12.7507538"><ele>674.0</ele><time>2026-04-10T16:51:49.538Z</time></trkpt><trkpt lat="42.6418354" lon="12.7508857"><ele>675.0</ele><time>2026-04-10T16:51:50.538Z</time></trkpt><trkpt lat="42.6417317" lon="12.7510451"><ele>676.0</ele><time>2026-04-10T16:51:51.538Z</time></trkpt><trkpt lat="42.6416456" lon="12.7511642"><ele>677.0</ele><time>2026-04-10T16:51:52.544Z</time></trkpt><trkpt lat="42.6415307" lon="12.751255"><ele>677.0</ele><time>2026-04-10T16:51:53.543Z</time></trkpt><trkpt lat="42.6413973" lon="12.7513163"><ele>677.0</ele><time>2026-04-10T16:51:54.545Z</time></trkpt><trkpt lat="42.6412685" lon="12.7514059"><ele>677.0</ele><time>2026-04-10T16:51:55.548Z</time></trkpt><trkpt lat="42.6411517" lon="12.7514963"><ele>677.0</ele><time>2026-04-10T16:51:56.544Z</time></trkpt><trkpt lat="42.64103" lon="12.7515508"><ele>676.25</ele><time>2026-04-10T16:51:57.551Z</time></trkpt><trkpt lat="42.6408761" lon="12.7516558"><ele>675.5</ele><time>2026-04-10T16:51:58.545Z</time></trkpt><trkpt lat="42.6407545" lon="12.7517349"><ele>674.75</ele><time>2026-04-10T16:51:59.547Z</time></trkpt><trkpt lat="42.6406421" lon="12.7518258"><ele>674.0</ele><time>2026-04-10T16:52:00.546Z</time></trkpt><trkpt lat="42.6405101" lon="12.7518893"><ele>674.0</ele><time>2026-04-10T16:52:01.549Z</time></trkpt><trkpt lat="42.6403723" lon="12.7519255"><ele>674.0</ele><time>2026-04-10T16:52:02.556Z</time></trkpt><trkpt lat="42.6402189" lon="12.7519548"><ele>674.0</ele><time>2026-04-10T16:52:03.555Z</time></trkpt><trkpt lat="42.6401116" lon="12.7519652"><ele>674.0</ele><time>2026-04-10T16:52:04.557Z</time></trkpt><trkpt lat="42.6399866" lon="12.751973"><ele>681.0</ele><time>2026-04-10T16:52:05.552Z</time></trkpt><trkpt lat="42.6398842" lon="12.7519658"><ele>688.0</ele><time>2026-04-10T16:52:06.551Z</time></trkpt><trkpt lat="42.6397856" lon="12.7519378"><ele>695.0</ele><time>2026-04-10T16:52:07.552Z</time></trkpt><trkpt lat="42.6397013" lon="12.7518713"><ele>702.0</ele><time>2026-04-10T16:52:08.55Z</time></trkpt><trkpt lat="42.6396333" lon="12.7517672"><ele>709.0</ele><time>2026-04-10T16:52:09.548Z</time></trkpt><trkpt lat="42.6395817" lon="12.7516246"><ele>710.0</ele><time>2026-04-10T16:52:10.555Z</time></trkpt><trkpt lat="42.6395419" lon="12.7514384"><ele>711.0</ele><time>2026-04-10T16:52:11.551Z</time></trkpt><trkpt lat="42.63951" lon="12.7512279"><ele>712.0</ele><time>2026-04-10T16:52:12.548Z</time></trkpt><trkpt lat="42.6394458" lon="12.7509934"><ele>712.0</ele><time>2026-04-10T16:52:13.561Z</time></trkpt><trkpt lat="42.6393937" lon="12.7507692"><ele>712.0</ele><time>2026-04-10T16:52:14.568Z</time></trkpt><trkpt lat="42.6393185" lon="12.7505843"><ele>712.0</ele><time>2026-04-10T16:52:15.562Z</time></trkpt><trkpt lat="42.6392468" lon="12.7504031"><ele>713.6666666666667</ele><time>2026-04-10T16:52:16.566Z</time></trkpt><trkpt lat="42.6391882" lon="12.750199"><ele>715.3333333333334</ele><time>2026-04-10T16:52:17.559Z</time></trkpt><trkpt lat="42.6391404" lon="12.7499706"><ele>717.0</ele><time>2026-04-10T16:52:18.555Z</time></trkpt><trkpt lat="42.639102" lon="12.7497467"><ele>717.0</ele><time>2026-04-10T16:52:19.558Z</time></trkpt><trkpt lat="42.6390832" lon="12.7495008"><ele>717.0</ele><time>2026-04-10T16:52:20.562Z</time></trkpt><trkpt lat="42.6390591" lon="12.7492426"><ele>717.0</ele><time>2026-04-10T16:52:21.556Z</time></trkpt><trkpt lat="42.6390347" lon="12.7489846"><ele>718.0</ele><time>2026-04-10T16:52:22.554Z</time></trkpt><trkpt lat="42.6390088" lon="12.7487375"><ele>719.0</ele><time>2026-04-10T16:52:23.554Z</time></trkpt><trkpt lat="42.638979" lon="12.748502"><ele>720.0</ele><time>2026-04-10T16:52:24.551Z</time></trkpt><trkpt lat="42.638965" lon="12.7482922"><ele>720.75</ele><time>2026-04-10T16:52:25.543Z</time></trkpt><trkpt lat="42.638943" lon="12.7480957"><ele>721.5</ele><time>2026-04-10T16:52:26.541Z</time></trkpt><trkpt lat="42.6389251" lon="12.7479176"><ele>722.25</ele><time>2026-04-10T16:52:27.543Z</time></trkpt><trkpt lat="42.6389133" lon="12.7477397"><ele>723.0</ele><time>2026-04-10T16:52:28.538Z</time></trkpt><trkpt lat="42.6389399" lon="12.7475907"><ele>723.0</ele><time>2026-04-10T16:52:29.54Z</time></trkpt><trkpt lat="42.6390182" lon="12.7474527"><ele>723.0</ele><time>2026-04-10T16:52:30.537Z</time></trkpt><trkpt lat="42.6391222" lon="12.7473525"><ele>723.0</ele><time>2026-04-10T16:52:31.535Z</time></trkpt><trkpt lat="42.6392391" lon="12.7472892"><ele>723.0</ele><time>2026-04-10T16:52:32.534Z</time></trkpt><trkpt lat="42.6393693" lon="12.7472435"><ele>721.0</ele><time>2026-04-10T16:52:33.525Z</time></trkpt><trkpt lat="42.6395057" lon="12.747271"><ele>719.0</ele><time>2026-04-10T16:52:34.54Z</time></trkpt><trkpt lat="42.6396542" lon="12.7473616"><ele>717.0</ele><time>2026-04-10T16:52:35.54Z</time></trkpt><trkpt lat="42.6397953" lon="12.7474629"><ele>717.0</ele><time>2026-04-10T16:52:36.547Z</time></trkpt><trkpt lat="42.6399873" lon="12.7476444"><ele>717.0</ele><time>2026-04-10T16:52:37.541Z</time></trkpt><trkpt lat="42.6401109" lon="12.7478651"><ele>717.0</ele><time>2026-04-10T16:52:38.544Z</time></trkpt><trkpt lat="42.6402251" lon="12.7480689"><ele>715.3333333333334</ele><time>2026-04-10T16:52:39.544Z</time></trkpt><trkpt lat="42.6402957" lon="12.748283"><ele>713.6666666666667</ele><time>2026-04-10T16:52:40.544Z</time></trkpt><trkpt lat="42.6403778" lon="12.7484788"><ele>712.0</ele><time>2026-04-10T16:52:41.542Z</time></trkpt><trkpt lat="42.6405007" lon="12.74866"><ele>718.6666666666667</ele><time>2026-04-10T16:52:42.541Z</time></trkpt><trkpt lat="42.6406196" lon="12.7488242"><ele>725.3333333333334</ele><time>2026-04-10T16:52:43.538Z</time></trkpt><trkpt lat="42.6407463" lon="12.7489612"><ele>732.0</ele><time>2026-04-10T16:52:44.538Z</time></trkpt><trkpt lat="42.6409027" lon="12.7490622"><ele>732.0</ele><time>2026-04-10T16:52:45.568Z</time></trkpt><trkpt lat="42.6410534" lon="12.7491696"><ele>732.0</ele><time>2026-04-10T16:52:46.549Z</time></trkpt><trkpt lat="42.6411819" lon="12.7492902"><ele>732.0</ele><time>2026-04-10T16:52:47.552Z</time></trkpt><trkpt lat="42.6413203" lon="12.7494325"><ele>731.25</ele><time>2026-04-10T16:52:48.543Z</time></trkpt><trkpt lat="42.6414119" lon="12.7495872"><ele>730.5</ele><time>2026-04-10T16:52:49.545Z</time></trkpt><trkpt lat="42.6414979" lon="12.749709"><ele>729.75</ele><time>2026-04-10T16:52:50.546Z</time></trkpt><trkpt lat="42.6416069" lon="12.749762"><ele>729.0</ele><time>2026-04-10T16:52:51.544Z</time></trkpt><trkpt lat="42.6417204" lon="12.7497866"><ele>729.0</ele><time>2026-04-10T16:52:52.546Z</time></trkpt><trkpt lat="42.6418415" lon="12.7497394"><ele>729.0</ele><time>2026-04-10T16:52:53.538Z</time></trkpt><trkpt lat="42.6419703" lon="12.7496875"><ele>729.0</ele><time>2026-04-10T16:52:54.546Z</time></trkpt><trkpt lat="42.6420903" lon="12.7495765"><ele>729.0</ele><time>2026-04-10T16:52:55.547Z</time></trkpt><trkpt lat="42.6421854" lon="12.7494457"><ele>730.75</ele><time>2026-04-10T16:52:56.541Z</time></trkpt><trkpt lat="42.6422564" lon="12.7493038"><ele>732.5</ele><time>2026-04-10T16:52:57.552Z</time></trkpt><trkpt lat="42.6423077" lon="12.7491318"><ele>734.25</ele><time>2026-04-10T16:52:58.547Z</time></trkpt><trkpt lat="42.6423283" lon="12.7489399"><ele>736.0</ele><time>2026-04-10T16:52:59.551Z</time></trkpt><trkpt lat="42.6423471" lon="12.7487631"><ele>736.0</ele><time>2026-04-10T16:53:00.544Z</time></trkpt><trkpt lat="42.642363" lon="12.7486127"><ele>736.0</ele><time>2026-04-10T16:53:01.551Z</time></trkpt><trkpt lat="42.6424023" lon="12.7484939"><ele>736.0</ele><time>2026-04-10T16:53:02.544Z</time></trkpt><trkpt lat="42.6424546" lon="12.7484134"><ele>736.0</ele><time>2026-04-10T16:53:03.545Z</time></trkpt><trkpt lat="42.6425364" lon="12.7483742"><ele>736.0</ele><time>2026-04-10T16:53:04.548Z</time></trkpt><trkpt lat="42.6426342" lon="12.7483488"><ele>735.25</ele><time>2026-04-10T16:53:05.544Z</time></trkpt><trkpt lat="42.642753" lon="12.7483439"><ele>734.5</ele><time>2026-04-10T16:53:06.533Z</time></trkpt><trkpt lat="42.6429025" lon="12.7483629"><ele>733.75</ele><time>2026-04-10T16:53:07.54Z</time></trkpt><trkpt lat="42.6430526" lon="12.7483734"><ele>733.0</ele><time>2026-04-10T16:53:08.54Z</time></trkpt><trkpt lat="42.6432037" lon="12.7483415"><ele>736.6666666666667</ele><time>2026-04-10T16:53:09.538Z</time></trkpt><trkpt lat="42.6433377" lon="12.74825"><ele>740.3333333333334</ele><time>2026-04-10T16:53:10.533Z</time></trkpt><trkpt lat="42.6435043" lon="12.7481807"><ele>744.0</ele><time>2026-04-10T16:53:11.54Z</time></trkpt><trkpt lat="42.6436535" lon="12.7481251"><ele>748.0</ele><time>2026-04-10T16:53:12.54Z</time></trkpt><trkpt lat="42.6437676" lon="12.7480162"><ele>752.0</ele><time>2026-04-10T16:53:13.537Z</time></trkpt><trkpt lat="42.643825" lon="12.7478624"><ele>756.0</ele><time>2026-04-10T16:53:14.538Z</time></trkpt><trkpt lat="42.6438876" lon="12.7476893"><ele>760.0</ele><time>2026-04-10T16:53:15.549Z</time></trkpt><trkpt lat="42.6439515" lon="12.7474897"><ele>760.0</ele><time>2026-04-10T16:53:16.543Z</time></trkpt><trkpt lat="42.6440183" lon="12.7472947"><ele>760.0</ele><time>2026-04-10T16:53:17.546Z</time></trkpt><trkpt lat="42.6441068" lon="12.7471267"><ele>760.0</ele><time>2026-04-10T16:53:18.549Z</time></trkpt><trkpt lat="42.6442456" lon="12.7469602"><ele>763.0</ele><time>2026-04-10T16:53:19.548Z</time></trkpt><trkpt lat="42.6443667" lon="12.7468094"><ele>766.0</ele><time>2026-04-10T16:53:20.556Z</time></trkpt><trkpt lat="42.6444915" lon="12.7466517"><ele>769.0</ele><time>2026-04-10T16:53:21.552Z</time></trkpt><trkpt lat="42.6446555" lon="12.7465407"><ele>769.0</ele><time>2026-04-10T16:53:22.549Z</time></trkpt><trkpt lat="42.6447748" lon="12.7464497"><ele>769.0</ele><time>2026-04-10T16:53:23.543Z</time></trkpt><trkpt lat="42.6449042" lon="12.7463745"><ele>769.0</ele><time>2026-04-10T16:53:24.546Z</time></trkpt><trkpt lat="42.6450673" lon="12.7463334"><ele>769.0</ele><time>2026-04-10T16:53:25.544Z</time></trkpt><trkpt lat="42.6452074" lon="12.7463282"><ele>767.5</ele><time>2026-04-10T16:53:26.547Z</time></trkpt><trkpt lat="42.6453413" lon="12.7463661"><ele>766.0</ele><time>2026-04-10T16:53:27.546Z</time></trkpt><trkpt lat="42.6454903" lon="12.7464601"><ele>764.5</ele><time>2026-04-10T16:53:28.542Z</time></trkpt><trkpt lat="42.6455967" lon="12.7465819"><ele>763.0</ele><time>2026-04-10T16:53:29.55Z</time></trkpt><trkpt lat="42.6457138" lon="12.7467251"><ele>767.6666666666667</ele><time>2026-04-10T16:53:30.552Z</time></trkpt><trkpt lat="42.6458122" lon="12.7468864"><ele>772.3333333333334</ele><time>2026-04-10T16:53:31.549Z</time></trkpt><trkpt lat="42.6458998" lon="12.7470796"><ele>777.0</ele><time>2026-04-10T16:53:32.54Z</time></trkpt><trkpt lat="42.6459424" lon="12.7473257"><ele>777.0</ele><time>2026-04-10T16:53:33.543Z</time></trkpt><trkpt lat="42.6459656" lon="12.7475588"><ele>777.0</ele><time>2026-04-10T16:53:34.55Z</time></trkpt><trkpt lat="42.6459666" lon="12.7477723"><ele>777.0</ele><time>2026-04-10T16:53:35.547Z</time></trkpt><trkpt lat="42.6459354" lon="12.7479523"><ele>777.4000000000001</ele><time>2026-04-10T16:53:36.547Z</time></trkpt><trkpt lat="42.6458698" lon="12.7480971"><ele>777.8000000000001</ele><time>2026-04-10T16:53:37.55Z</time></trkpt><trkpt lat="42.6458064" lon="12.7482345"><ele>778.2</ele><time>2026-04-10T16:53:38.551Z</time></trkpt><trkpt lat="42.6457656" lon="12.7483773"><ele>778.6</ele><time>2026-04-10T16:53:39.552Z</time></trkpt><trkpt lat="42.6457725" lon="12.7484958"><ele>779.0</ele><time>2026-04-10T16:53:40.551Z</time></trkpt><trkpt lat="42.6458219" lon="12.7485973"><ele>778.5</ele><time>2026-04-10T16:53:41.551Z</time></trkpt><trkpt lat="42.6459066" lon="12.7487002"><ele>778.0</ele><time>2026-04-10T16:53:42.548Z</time></trkpt><trkpt lat="42.6460245" lon="12.7487628"><ele>777.5</ele><time>2026-04-10T16:53:43.549Z</time></trkpt><trkpt lat="42.6461697" lon="12.7488151"><ele>777.0</ele><time>2026-04-10T16:53:44.547Z</time></trkpt><trkpt lat="42.6463258" lon="12.7489078"><ele>777.0</ele><time>2026-04-10T16:53:45.548Z</time></trkpt><trkpt lat="42.6464783" lon="12.7490418"><ele>777.0</ele><time>2026-04-10T16:53:46.558Z</time></trkpt><trkpt lat="42.6465994" lon="12.7492167"><ele>777.0</ele><time>2026-04-10T16:53:47.552Z</time></trkpt><trkpt lat="42.6466925" lon="12.7493842"><ele>778.5</ele><time>2026-04-10T16:53:48.554Z</time></trkpt><trkpt lat="42.6467869" lon="12.7495262"><ele>780.0</ele><time>2026-04-10T16:53:49.552Z</time></trkpt><trkpt lat="42.64689" lon="12.7496392"><ele>781.5</ele><time>2026-04-10T16:53:50.546Z</time></trkpt><trkpt lat="42.6469896" lon="12.7497177"><ele>783.0</ele><time>2026-04-10T16:53:51.539Z</time></trkpt><trkpt lat="42.6471225" lon="12.7497506"><ele>787.0</ele><time>2026-04-10T16:53:52.547Z</time></trkpt><trkpt lat="42.647275" lon="12.7497565"><ele>791.0</ele><time>2026-04-10T16:53:53.543Z</time></trkpt><trkpt lat="42.6474585" lon="12.7496647"><ele>795.0</ele><time>2026-04-10T16:53:54.54Z</time></trkpt><trkpt lat="42.6476603" lon="12.749525"><ele>791.0</ele><time>2026-04-10T16:53:55.539Z</time></trkpt><trkpt lat="42.6478562" lon="12.7493846"><ele>787.0</ele><time>2026-04-10T16:53:56.532Z</time></trkpt><trkpt lat="42.6480469" lon="12.7492523"><ele>783.0</ele><time>2026-04-10T16:53:57.534Z</time></trkpt><trkpt lat="42.648226" lon="12.7491684"><ele>783.0</ele><time>2026-04-10T16:53:58.54Z</time></trkpt><trkpt lat="42.6483837" lon="12.7491004"><ele>783.0</ele><time>2026-04-10T16:53:59.544Z</time></trkpt><trkpt lat="42.6485637" lon="12.7490321"><ele>783.0</ele><time>2026-04-10T16:54:00.544Z</time></trkpt><trkpt lat="42.6487409" lon="12.7489455"><ele>778.6666666666667</ele><time>2026-04-10T16:54:01.544Z</time></trkpt><trkpt lat="42.6489415" lon="12.7488309"><ele>774.3333333333334</ele><time>2026-04-10T16:54:02.533Z</time></trkpt><trkpt lat="42.6491095" lon="12.7486881"><ele>770.0</ele><time>2026-04-10T16:54:03.536Z</time></trkpt><trkpt lat="42.6492484" lon="12.7485214"><ele>770.0</ele><time>2026-04-10T16:54:04.538Z</time></trkpt><trkpt lat="42.6493699" lon="12.7483442"><ele>770.0</ele><time>2026-04-10T16:54:05.539Z</time></trkpt><trkpt lat="42.6494776" lon="12.7481812"><ele>770.0</ele><time>2026-04-10T16:54:06.537Z</time></trkpt><trkpt lat="42.6495863" lon="12.7480313"><ele>773.75</ele><time>2026-04-10T16:54:07.545Z</time></trkpt><trkpt lat="42.6497068" lon="12.7479232"><ele>777.5</ele><time>2026-04-10T16:54:08.54Z</time></trkpt><trkpt lat="42.6498325" lon="12.7478713"><ele>781.25</ele><time>2026-04-10T16:54:09.538Z</time></trkpt><trkpt lat="42.6499671" lon="12.7478688"><ele>785.0</ele><time>2026-04-10T16:54:10.536Z</time></trkpt><trkpt lat="42.6500992" lon="12.7478997"><ele>785.0</ele><time>2026-04-10T16:54:11.538Z</time></trkpt><trkpt lat="42.6502232" lon="12.7479613"><ele>785.0</ele><time>2026-04-10T16:54:12.536Z</time></trkpt><trkpt lat="42.6503247" lon="12.7480264"><ele>785.0</ele><time>2026-04-10T16:54:13.537Z</time></trkpt><trkpt lat="42.6504836" lon="12.7480888"><ele>785.0</ele><time>2026-04-10T16:54:14.533Z</time></trkpt><trkpt lat="42.6506917" lon="12.7481388"><ele>786.0</ele><time>2026-04-10T16:54:15.537Z</time></trkpt><trkpt lat="42.6508981" lon="12.7481476"><ele>787.0</ele><time>2026-04-10T16:54:16.547Z</time></trkpt><trkpt lat="42.6510732" lon="12.7481261"><ele>788.0</ele><time>2026-04-10T16:54:17.559Z</time></trkpt><trkpt lat="42.6512682" lon="12.7481218"><ele>785.0</ele><time>2026-04-10T16:54:18.54Z</time></trkpt><trkpt lat="42.6514553" lon="12.7481572"><ele>782.0</ele><time>2026-04-10T16:54:19.537Z</time></trkpt><trkpt lat="42.6516465" lon="12.7482415"><ele>779.0</ele><time>2026-04-10T16:54:20.53Z</time></trkpt><trkpt lat="42.6518742" lon="12.74836"><ele>774.5</ele><time>2026-04-10T16:54:21.533Z</time></trkpt><trkpt lat="42.652114" lon="12.748467"><ele>770.0</ele><time>2026-04-10T16:54:22.538Z</time></trkpt><trkpt lat="42.6523483" lon="12.7485607"><ele>782.0</ele><time>2026-04-10T16:54:23.536Z</time></trkpt><trkpt lat="42.6525762" lon="12.7486204"><ele>794.0</ele><time>2026-04-10T16:54:24.534Z</time></trkpt><trkpt lat="42.6527949" lon="12.7486612"><ele>794.0</ele><time>2026-04-10T16:54:25.536Z</time></trkpt><trkpt lat="42.6530037" lon="12.7487295"><ele>794.0</ele><time>2026-04-10T16:54:26.538Z</time></trkpt><trkpt lat="42.6532108" lon="12.7488121"><ele>794.0</ele><time>2026-04-10T16:54:27.539Z</time></trkpt><trkpt lat="42.6534278" lon="12.7489113"><ele>788.0</ele><time>2026-04-10T16:54:28.54Z</time></trkpt><trkpt lat="42.6536459" lon="12.7490378"><ele>782.0</ele><time>2026-04-10T16:54:29.539Z</time></trkpt><trkpt lat="42.6538517" lon="12.7491569"><ele>782.0</ele><time>2026-04-10T16:54:30.534Z</time></trkpt><trkpt lat="42.654062" lon="12.7492948"><ele>782.0</ele><time>2026-04-10T16:54:31.532Z</time></trkpt><trkpt lat="42.654257" lon="12.7493995"><ele>782.0</ele><time>2026-04-10T16:54:32.53Z</time></trkpt><trkpt lat="42.6544197" lon="12.7494974"><ele>785.0</ele><time>2026-04-10T16:54:33.528Z</time></trkpt><trkpt lat="42.6545503" lon="12.7495958"><ele>788.0</ele><time>2026-04-10T16:54:34.538Z</time></trkpt><trkpt lat="42.654693" lon="12.7497249"><ele>791.0</ele><time>2026-04-10T16:54:35.542Z</time></trkpt><trkpt lat="42.6548438" lon="12.7498996"><ele>791.0</ele><time>2026-04-10T16:54:36.55Z</time></trkpt><trkpt lat="42.6549834" lon="12.7501063"><ele>791.0</ele><time>2026-04-10T16:54:37.545Z</time></trkpt><trkpt lat="42.6551278" lon="12.7502984"><ele>791.0</ele><time>2026-04-10T16:54:38.546Z</time></trkpt><trkpt lat="42.655266" lon="12.7504697"><ele>789.6666666666667</ele><time>2026-04-10T16:54:39.542Z</time></trkpt><trkpt lat="42.6553901" lon="12.7506139"><ele>788.3333333333333</ele><time>2026-04-10T16:54:40.541Z</time></trkpt><trkpt lat="42.6554912" lon="12.7507846"><ele>787.0</ele><time>2026-04-10T16:54:41.543Z</time></trkpt><trkpt lat="42.6555637" lon="12.7509666"><ele>793.5</ele><time>2026-04-10T16:54:42.536Z</time></trkpt><trkpt lat="42.6556025" lon="12.7511397"><ele>800.0</ele><time>2026-04-10T16:54:43.54Z</time></trkpt><trkpt lat="42.6556665" lon="12.7512975"><ele>806.5</ele><time>2026-04-10T16:54:44.533Z</time></trkpt><trkpt lat="42.6557319" lon="12.7514099"><ele>813.0</ele><time>2026-04-10T16:54:45.536Z</time></trkpt><trkpt lat="42.6558177" lon="12.7514789"><ele>813.0</ele><time>2026-04-10T16:54:46.537Z</time></trkpt><trkpt lat="42.6559164" lon="12.7514878"><ele>813.0</ele><time>2026-04-10T16:54:47.532Z</time></trkpt><trkpt lat="42.6560498" lon="12.7514787"><ele>813.0</ele><time>2026-04-10T16:54:48.54Z</time></trkpt><trkpt lat="42.6561967" lon="12.7514572"><ele>813.0</ele><time>2026-04-10T16:54:49.54Z</time></trkpt><trkpt lat="42.6563541" lon="12.7514202"><ele>815.0</ele><time>2026-04-10T16:54:50.542Z</time></trkpt><trkpt lat="42.6565614" lon="12.7513653"><ele>817.0</ele><time>2026-04-10T16:54:51.533Z</time></trkpt><trkpt lat="42.6568015" lon="12.7513276"><ele>816.5</ele><time>2026-04-10T16:54:52.526Z</time></trkpt><trkpt lat="42.6570768" lon="12.7512325"><ele>816.0</ele><time>2026-04-10T16:54:53.536Z</time></trkpt><trkpt lat="42.6573389" lon="12.7511968"><ele>816.0</ele><time>2026-04-10T16:54:54.534Z</time></trkpt><trkpt lat="42.6575572" lon="12.7511475"><ele>816.0</ele><time>2026-04-10T16:54:55.533Z</time></trkpt><trkpt lat="42.6577546" lon="12.7511134"><ele>816.0</ele><time>2026-04-10T16:54:56.531Z</time></trkpt><trkpt lat="42.6579816" lon="12.751121"><ele>816.0</ele><time>2026-04-10T16:54:57.531Z</time></trkpt><trkpt lat="42.6581941" lon="12.7511421"><ele>816.0</ele><time>2026-04-10T16:54:58.537Z</time></trkpt><trkpt lat="42.6583611" lon="12.7511501"><ele>816.0</ele><time>2026-04-10T16:54:59.538Z</time></trkpt><trkpt lat="42.6585231" lon="12.7511582"><ele>816.0</ele><time>2026-04-10T16:55:00.539Z</time></trkpt><trkpt lat="42.6587077" lon="12.7511644"><ele>816.0</ele><time>2026-04-10T16:55:01.536Z</time></trkpt><trkpt lat="42.6588943" lon="12.7511152"><ele>816.0</ele><time>2026-04-10T16:55:02.539Z</time></trkpt><trkpt lat="42.6590598" lon="12.751075"><ele>816.0</ele><time>2026-04-10T16:55:03.534Z</time></trkpt><trkpt lat="42.6592391" lon="12.751067"><ele>816.0</ele><time>2026-04-10T16:55:04.539Z</time></trkpt><trkpt lat="42.6593787" lon="12.7510468"><ele>816.0</ele><time>2026-04-10T16:55:05.54Z</time></trkpt><trkpt lat="42.6594899" lon="12.7510154"><ele>816.0</ele><time>2026-04-10T16:55:06.542Z</time></trkpt><trkpt lat="42.6595957" lon="12.7509613"><ele>810.75</ele><time>2026-04-10T16:55:07.543Z</time></trkpt><trkpt lat="42.6596951" lon="12.7508697"><ele>805.5</ele><time>2026-04-10T16:55:08.531Z</time></trkpt><trkpt lat="42.6597849" lon="12.7507257"><ele>800.25</ele><time>2026-04-10T16:55:09.537Z</time></trkpt><trkpt lat="42.6598548" lon="12.7505366"><ele>795.0</ele><time>2026-04-10T16:55:10.539Z</time></trkpt><trkpt lat="42.6599076" lon="12.7502609"><ele>790.6666666666667</ele><time>2026-04-10T16:55:11.538Z</time></trkpt><trkpt lat="42.6599674" lon="12.74998"><ele>786.3333333333334</ele><time>2026-04-10T16:55:12.54Z</time></trkpt><trkpt lat="42.6600367" lon="12.7497268"><ele>782.0</ele><time>2026-04-10T16:55:13.541Z</time></trkpt><trkpt lat="42.6601127" lon="12.7494966"><ele>782.0</ele><time>2026-04-10T16:55:14.54Z</time></trkpt><trkpt lat="42.6602025" lon="12.7492908"><ele>782.0</ele><time>2026-04-10T16:55:15.541Z</time></trkpt><trkpt lat="42.660305" lon="12.7491265"><ele>782.0</ele><time>2026-04-10T16:55:16.544Z</time></trkpt><trkpt lat="42.6604074" lon="12.7489993"><ele>782.0</ele><time>2026-04-10T16:55:17.539Z</time></trkpt><trkpt lat="42.6604973" lon="12.7488963"><ele>782.0</ele><time>2026-04-10T16:55:18.54Z</time></trkpt><trkpt lat="42.6605989" lon="12.7488378"><ele>782.0</ele><time>2026-04-10T16:55:19.552Z</time></trkpt><trkpt lat="42.660684" lon="12.7488073"><ele>782.0</ele><time>2026-04-10T16:55:20.538Z</time></trkpt><trkpt lat="42.660767" lon="12.7488246"><ele>782.0</ele><time>2026-04-10T16:55:21.549Z</time></trkpt><trkpt lat="42.6608382" lon="12.7488713"><ele>782.0</ele><time>2026-04-10T16:55:22.538Z</time></trkpt><trkpt lat="42.660946" lon="12.7489836"><ele>782.0</ele><time>2026-04-10T16:55:23.534Z</time></trkpt><trkpt lat="42.6610826" lon="12.7491801"><ele>782.0</ele><time>2026-04-10T16:55:24.538Z</time></trkpt><trkpt lat="42.6612018" lon="12.7493633"><ele>784.25</ele><time>2026-04-10T16:55:25.538Z</time></trkpt><trkpt lat="42.6613001" lon="12.7494986"><ele>786.5</ele><time>2026-04-10T16:55:26.529Z</time></trkpt><trkpt lat="42.6614012" lon="12.7496072"><ele>788.75</ele><time>2026-04-10T16:55:27.531Z</time></trkpt><trkpt lat="42.6615317" lon="12.7496956"><ele>791.0</ele><time>2026-04-10T16:55:28.529Z</time></trkpt><trkpt lat="42.6616682" lon="12.7497287"><ele>791.0</ele><time>2026-04-10T16:55:29.534Z</time></trkpt><trkpt lat="42.6618243" lon="12.74971"><ele>791.0</ele><time>2026-04-10T16:55:30.53Z</time></trkpt><trkpt lat="42.661981" lon="12.7496436"><ele>791.0</ele><time>2026-04-10T16:55:31.528Z</time></trkpt><trkpt lat="42.6621562" lon="12.749506"><ele>786.0</ele><time>2026-04-10T16:55:32.527Z</time></trkpt><trkpt lat="42.6623163" lon="12.7493641"><ele>781.0</ele><time>2026-04-10T16:55:33.532Z</time></trkpt><trkpt lat="42.6624559" lon="12.7492183"><ele>776.0</ele><time>2026-04-10T16:55:34.532Z</time></trkpt><trkpt lat="42.6625514" lon="12.7490702"><ele>776.0</ele><time>2026-04-10T16:55:35.534Z</time></trkpt><trkpt lat="42.6626222" lon="12.7489041"><ele>776.0</ele><time>2026-04-10T16:55:36.529Z</time></trkpt><trkpt lat="42.6626593" lon="12.7487312"><ele>776.0</ele><time>2026-04-10T16:55:37.529Z</time></trkpt><trkpt lat="42.662622" lon="12.7484878"><ele>773.0</ele><time>2026-04-10T16:55:38.534Z</time></trkpt><trkpt lat="42.6625753" lon="12.7481981"><ele>770.0</ele><time>2026-04-10T16:55:39.534Z</time></trkpt><trkpt lat="42.6625292" lon="12.7479513"><ele>767.0</ele><time>2026-04-10T16:55:40.533Z</time></trkpt><trkpt lat="42.6625055" lon="12.7477123"><ele>765.3333333333333</ele><time>2026-04-10T16:55:41.531Z</time></trkpt><trkpt lat="42.6624994" lon="12.7474557"><ele>763.6666666666666</ele><time>2026-04-10T16:55:42.53Z</time></trkpt><trkpt lat="42.6625361" lon="12.747194"><ele>762.0</ele><time>2026-04-10T16:55:43.531Z</time></trkpt><trkpt lat="42.6625561" lon="12.7469353"><ele>762.6666666666666</ele><time>2026-04-10T16:55:44.525Z</time></trkpt><trkpt lat="42.6625428" lon="12.7466879"><ele>763.3333333333333</ele><time>2026-04-10T16:55:45.531Z</time></trkpt><trkpt lat="42.6625097" lon="12.746472"><ele>764.0</ele><time>2026-04-10T16:55:46.537Z</time></trkpt><trkpt lat="42.662457" lon="12.7462706"><ele>765.6666666666666</ele><time>2026-04-10T16:55:47.533Z</time></trkpt><trkpt lat="42.6623515" lon="12.7460449"><ele>767.3333333333333</ele><time>2026-04-10T16:55:48.537Z</time></trkpt><trkpt lat="42.6622131" lon="12.7458132"><ele>769.0</ele><time>2026-04-10T16:55:49.539Z</time></trkpt><trkpt lat="42.6620834" lon="12.7455899"><ele>769.0</ele><time>2026-04-10T16:55:50.55Z</time></trkpt><trkpt lat="42.6619748" lon="12.7453713"><ele>769.0</ele><time>2026-04-10T16:55:51.533Z</time></trkpt><trkpt lat="42.661894" lon="12.74512"><ele>769.0</ele><time>2026-04-10T16:55:52.541Z</time></trkpt><trkpt lat="42.661823" lon="12.7448715"><ele>756.3333333333333</ele><time>2026-04-10T16:55:53.545Z</time></trkpt><trkpt lat="42.6617568" lon="12.744641"><ele>743.6666666666666</ele><time>2026-04-10T16:55:54.541Z</time></trkpt><trkpt lat="42.6616868" lon="12.7444212"><ele>731.0</ele><time>2026-04-10T16:55:55.541Z</time></trkpt><trkpt lat="42.6616442" lon="12.744218"><ele>731.0</ele><time>2026-04-10T16:55:56.543Z</time></trkpt><trkpt lat="42.6616114" lon="12.7440112"><ele>731.0</ele><time>2026-04-10T16:55:57.548Z</time></trkpt><trkpt lat="42.6615941" lon="12.7438007"><ele>731.0</ele><time>2026-04-10T16:55:58.549Z</time></trkpt><trkpt lat="42.661599" lon="12.7435921"><ele>727.6666666666666</ele><time>2026-04-10T16:55:59.544Z</time></trkpt><trkpt lat="42.6616619" lon="12.7434297"><ele>724.3333333333334</ele><time>2026-04-10T16:56:00.55Z</time></trkpt><trkpt lat="42.6617149" lon="12.7432364"><ele>721.0</ele><time>2026-04-10T16:56:01.541Z</time></trkpt><trkpt lat="42.6618349" lon="12.7430352"><ele>723.3333333333334</ele><time>2026-04-10T16:56:02.543Z</time></trkpt><trkpt lat="42.6619843" lon="12.742817"><ele>725.6666666666666</ele><time>2026-04-10T16:56:03.541Z</time></trkpt><trkpt lat="42.6621164" lon="12.7425906"><ele>728.0</ele><time>2026-04-10T16:56:04.54Z</time></trkpt><trkpt lat="42.6622234" lon="12.7423661"><ele>728.0</ele><time>2026-04-10T16:56:05.539Z</time></trkpt><trkpt lat="42.6623162" lon="12.7421612"><ele>728.0</ele><time>2026-04-10T16:56:06.536Z</time></trkpt><trkpt lat="42.6624046" lon="12.7419706"><ele>728.0</ele><time>2026-04-10T16:56:07.538Z</time></trkpt><trkpt lat="42.6624899" lon="12.7418165"><ele>721.75</ele><time>2026-04-10T16:56:08.533Z</time></trkpt><trkpt lat="42.6625589" lon="12.7416734"><ele>715.5</ele><time>2026-04-10T16:56:09.53Z</time></trkpt><trkpt lat="42.6626572" lon="12.7415977"><ele>709.25</ele><time>2026-04-10T16:56:10.533Z</time></trkpt><trkpt lat="42.6627847" lon="12.7415479"><ele>703.0</ele><time>2026-04-10T16:56:11.536Z</time></trkpt><trkpt lat="42.6629157" lon="12.7415482"><ele>703.0</ele><time>2026-04-10T16:56:12.532Z</time></trkpt><trkpt lat="42.663047" lon="12.7415626"><ele>703.0</ele><time>2026-04-10T16:56:13.532Z</time></trkpt><trkpt lat="42.6631977" lon="12.7416137"><ele>703.0</ele><time>2026-04-10T16:56:14.533Z</time></trkpt><trkpt lat="42.6633511" lon="12.7416555"><ele>703.0</ele><time>2026-04-10T16:56:15.536Z</time></trkpt><trkpt lat="42.6635581" lon="12.7417575"><ele>706.3333333333334</ele><time>2026-04-10T16:56:16.54Z</time></trkpt><trkpt lat="42.6637292" lon="12.7418178"><ele>709.6666666666666</ele><time>2026-04-10T16:56:17.535Z</time></trkpt><trkpt lat="42.6639159" lon="12.7419247"><ele>713.0</ele><time>2026-04-10T16:56:18.536Z</time></trkpt><trkpt lat="42.6641134" lon="12.7420622"><ele>713.0</ele><time>2026-04-10T16:56:19.544Z</time></trkpt><trkpt lat="42.66428" lon="12.7422347"><ele>713.0</ele><time>2026-04-10T16:56:20.54Z</time></trkpt><trkpt lat="42.6644418" lon="12.7423999"><ele>713.0</ele><time>2026-04-10T16:56:21.546Z</time></trkpt><trkpt lat="42.6645633" lon="12.7425388"><ele>710.25</ele><time>2026-04-10T16:56:22.539Z</time></trkpt><trkpt lat="42.6646615" lon="12.7426445"><ele>707.5</ele><time>2026-04-10T16:56:23.537Z</time></trkpt><trkpt lat="42.6647562" lon="12.7427763"><ele>704.75</ele><time>2026-04-10T16:56:24.537Z</time></trkpt><trkpt lat="42.6648609" lon="12.7428901"><ele>702.0</ele><time>2026-04-10T16:56:25.538Z</time></trkpt><trkpt lat="42.6649765" lon="12.742972"><ele>702.0</ele><time>2026-04-10T16:56:26.54Z</time></trkpt><trkpt lat="42.6651427" lon="12.7430375"><ele>702.0</ele><time>2026-04-10T16:56:27.539Z</time></trkpt><trkpt lat="42.6652807" lon="12.7430994"><ele>702.0</ele><time>2026-04-10T16:56:28.539Z</time></trkpt><trkpt lat="42.6654187" lon="12.7431417"><ele>693.3333333333334</ele><time>2026-04-10T16:56:29.545Z</time></trkpt><trkpt lat="42.6655473" lon="12.7431782"><ele>684.6666666666667</ele><time>2026-04-10T16:56:30.545Z</time></trkpt><trkpt lat="42.6656877" lon="12.7432873"><ele>676.0</ele><time>2026-04-10T16:56:31.549Z</time></trkpt><trkpt lat="42.6658395" lon="12.7434504"><ele>680.3333333333334</ele><time>2026-04-10T16:56:32.543Z</time></trkpt><trkpt lat="42.6659471" lon="12.743623"><ele>684.6666666666666</ele><time>2026-04-10T16:56:33.543Z</time></trkpt><trkpt lat="42.6660379" lon="12.7438322"><ele>689.0</ele><time>2026-04-10T16:56:34.545Z</time></trkpt><trkpt lat="42.6661369" lon="12.7441124"><ele>683.3333333333333</ele><time>2026-04-10T16:56:35.532Z</time></trkpt><trkpt lat="42.6662138" lon="12.7443666"><ele>677.6666666666666</ele><time>2026-04-10T16:56:36.539Z</time></trkpt><trkpt lat="42.6662825" lon="12.7445847"><ele>672.0</ele><time>2026-04-10T16:56:37.536Z</time></trkpt><trkpt lat="42.6663771" lon="12.7447876"><ele>672.0</ele><time>2026-04-10T16:56:38.526Z</time></trkpt><trkpt lat="42.6664308" lon="12.7449753"><ele>672.0</ele><time>2026-04-10T16:56:39.524Z</time></trkpt><trkpt lat="42.6665426" lon="12.7451453"><ele>672.0</ele><time>2026-04-10T16:56:40.527Z</time></trkpt><trkpt lat="42.666603" lon="12.7452635"><ele>672.0</ele><time>2026-04-10T16:56:41.523Z</time></trkpt><trkpt lat="42.6666635" lon="12.7453551"><ele>674.0</ele><time>2026-04-10T16:56:42.525Z</time></trkpt><trkpt lat="42.6667675" lon="12.7454492"><ele>676.0</ele><time>2026-04-10T16:56:43.531Z</time></trkpt><trkpt lat="42.6668496" lon="12.7454872"><ele>678.0</ele><time>2026-04-10T16:56:45.531Z</time></trkpt><trkpt lat="42.6668836" lon="12.745403"><ele>680.0</ele><time>2026-04-10T16:56:46.535Z</time></trkpt><trkpt lat="42.6669407" lon="12.7452769"><ele>682.0</ele><time>2026-04-10T16:56:47.539Z</time></trkpt><trkpt lat="42.6670098" lon="12.7451323"><ele>682.0</ele><time>2026-04-10T16:56:48.537Z</time></trkpt><trkpt lat="42.667071" lon="12.7449987"><ele>682.0</ele><time>2026-04-10T16:56:49.53Z</time></trkpt><trkpt lat="42.6671198" lon="12.7448354"><ele>682.0</ele><time>2026-04-10T16:56:50.534Z</time></trkpt><trkpt lat="42.6671794" lon="12.7446876"><ele>682.0</ele><time>2026-04-10T16:56:51.53Z</time></trkpt><trkpt lat="42.6672576" lon="12.7445505"><ele>682.0</ele><time>2026-04-10T16:56:52.547Z</time></trkpt><trkpt lat="42.667354" lon="12.7444461"><ele>682.0</ele><time>2026-04-10T16:56:53.528Z</time></trkpt><trkpt lat="42.6674543" lon="12.7443456"><ele>682.0</ele><time>2026-04-10T16:56:54.533Z</time></trkpt><trkpt lat="42.6675535" lon="12.7442394"><ele>682.0</ele><time>2026-04-10T16:56:55.524Z</time></trkpt><trkpt lat="42.6676074" lon="12.7440747"><ele>676.3333333333334</ele><time>2026-04-10T16:56:56.527Z</time></trkpt><trkpt lat="42.6676754" lon="12.7438786"><ele>670.6666666666666</ele><time>2026-04-10T16:56:57.532Z</time></trkpt><trkpt lat="42.6677022" lon="12.743668"><ele>665.0</ele><time>2026-04-10T16:56:58.529Z</time></trkpt><trkpt lat="42.6676707" lon="12.7434329"><ele>664.6666666666666</ele><time>2026-04-10T16:56:59.524Z</time></trkpt><trkpt lat="42.6676063" lon="12.7431956"><ele>664.3333333333334</ele><time>2026-04-10T16:57:00.525Z</time></trkpt><trkpt lat="42.6675308" lon="12.7429383"><ele>664.0</ele><time>2026-04-10T16:57:01.524Z</time></trkpt><trkpt lat="42.6674437" lon="12.7426757"><ele>667.6666666666667</ele><time>2026-04-10T16:57:02.521Z</time></trkpt><trkpt lat="42.6673364" lon="12.7424078"><ele>671.3333333333334</ele><time>2026-04-10T16:57:03.533Z</time></trkpt><trkpt lat="42.6672313" lon="12.7421406"><ele>675.0</ele><time>2026-04-10T16:57:04.536Z</time></trkpt><trkpt lat="42.6671407" lon="12.7418838"><ele>678.75</ele><time>2026-04-10T16:57:05.534Z</time></trkpt><trkpt lat="42.6670604" lon="12.7416771"><ele>682.5</ele><time>2026-04-10T16:57:06.532Z</time></trkpt><trkpt lat="42.6670294" lon="12.7415377"><ele>686.25</ele><time>2026-04-10T16:57:07.54Z</time></trkpt><trkpt lat="42.6669683" lon="12.7413864"><ele>690.0</ele><time>2026-04-10T16:57:08.544Z</time></trkpt><trkpt lat="42.6668542" lon="12.7412519"><ele>684.6666666666666</ele><time>2026-04-10T16:57:09.535Z</time></trkpt><trkpt lat="42.6667084" lon="12.7410482"><ele>679.3333333333333</ele><time>2026-04-10T16:57:10.543Z</time></trkpt><trkpt lat="42.6665615" lon="12.7408286"><ele>674.0</ele><time>2026-04-10T16:57:11.532Z</time></trkpt><trkpt lat="42.6664103" lon="12.740569"><ele>674.0</ele><time>2026-04-10T16:57:12.536Z</time></trkpt><trkpt lat="42.6662768" lon="12.7403187"><ele>674.0</ele><time>2026-04-10T16:57:13.538Z</time></trkpt><trkpt lat="42.6661241" lon="12.7400693"><ele>667.5</ele><time>2026-04-10T16:57:14.537Z</time></trkpt><trkpt lat="42.6659425" lon="12.7398166"><ele>661.0</ele><time>2026-04-10T16:57:15.54Z</time></trkpt><trkpt lat="42.6657593" lon="12.7395541"><ele>675.0</ele><time>2026-04-10T16:57:16.541Z</time></trkpt><trkpt lat="42.6655886" lon="12.7392612"><ele>689.0</ele><time>2026-04-10T16:57:17.542Z</time></trkpt><trkpt lat="42.6654424" lon="12.7389575"><ele>689.0</ele><time>2026-04-10T16:57:18.543Z</time></trkpt><trkpt lat="42.6652911" lon="12.7386839"><ele>689.0</ele><time>2026-04-10T16:57:19.548Z</time></trkpt><trkpt lat="42.6651325" lon="12.7384217"><ele>681.0</ele><time>2026-04-10T16:57:20.551Z</time></trkpt><trkpt lat="42.6649856" lon="12.738148"><ele>673.0</ele><time>2026-04-10T16:57:21.556Z</time></trkpt><trkpt lat="42.664848" lon="12.7378915"><ele>674.5</ele><time>2026-04-10T16:57:22.544Z</time></trkpt><trkpt lat="42.664749" lon="12.7376918"><ele>676.0</ele><time>2026-04-10T16:57:23.572Z</time></trkpt><trkpt lat="42.6646556" lon="12.7375153"><ele>677.5</ele><time>2026-04-10T16:57:24.545Z</time></trkpt><trkpt lat="42.6646035" lon="12.7374283"><ele>679.0</ele><time>2026-04-10T16:57:25.55Z</time></trkpt><trkpt lat="42.6645242" lon="12.7373381"><ele>679.0</ele><time>2026-04-10T16:57:26.539Z</time></trkpt><trkpt lat="42.6644795" lon="12.7372716"><ele>679.0</ele><time>2026-04-10T16:57:27.55Z</time></trkpt><trkpt lat="42.6644274" lon="12.7371616"><ele>679.0</ele><time>2026-04-10T16:57:29.557Z</time></trkpt><trkpt lat="42.6643497" lon="12.737118"><ele>679.0</ele><time>2026-04-10T16:57:31.559Z</time></trkpt><trkpt lat="42.6643799" lon="12.7371932"><ele>679.0</ele><time>2026-04-10T17:08:44.605Z</time></trkpt><trkpt lat="42.664449" lon="12.7371362"><ele>679.0</ele><time>2026-04-10T17:08:47.601Z</time></trkpt><trkpt lat="42.6645317" lon="12.737062"><ele>679.0</ele><time>2026-04-10T17:08:49.597Z</time></trkpt><trkpt lat="42.6645954" lon="12.7369777"><ele>679.0</ele><time>2026-04-10T17:08:51.588Z</time></trkpt><trkpt lat="42.6645915" lon="12.736864"><ele>679.0</ele><time>2026-04-10T17:08:53.58Z</time></trkpt><trkpt lat="42.6645367" lon="12.7367209"><ele>679.0</ele><time>2026-04-10T17:08:55.569Z</time></trkpt><trkpt lat="42.6645022" lon="12.7366138"><ele>679.0</ele><time>2026-04-10T17:08:56.573Z</time></trkpt><trkpt lat="42.6644656" lon="12.7364988"><ele>679.4000000000001</ele><time>2026-04-10T17:08:57.576Z</time></trkpt><trkpt lat="42.6644317" lon="12.7363769"><ele>679.8</ele><time>2026-04-10T17:08:58.569Z</time></trkpt><trkpt lat="42.6644001" lon="12.7362312"><ele>680.2</ele><time>2026-04-10T17:08:59.573Z</time></trkpt><trkpt lat="42.6643756" lon="12.7360805"><ele>680.5999999999999</ele><time>2026-04-10T17:09:00.562Z</time></trkpt><trkpt lat="42.6643568" lon="12.735911"><ele>681.0</ele><time>2026-04-10T17:09:01.567Z</time></trkpt><trkpt lat="42.664341" lon="12.7357834"><ele>680.0</ele><time>2026-04-10T17:09:02.556Z</time></trkpt><trkpt lat="42.6643023" lon="12.7356459"><ele>679.0</ele><time>2026-04-10T17:09:03.571Z</time></trkpt><trkpt lat="42.6642565" lon="12.7355357"><ele>678.0</ele><time>2026-04-10T17:09:04.567Z</time></trkpt><trkpt lat="42.6642336" lon="12.7354474"><ele>677.0</ele><time>2026-04-10T17:09:05.576Z</time></trkpt><trkpt lat="42.6642967" lon="12.7353091"><ele>676.0</ele><time>2026-04-10T17:09:07.584Z</time></trkpt><trkpt lat="42.6643617" lon="12.7352517"><ele>674.25</ele><time>2026-04-10T17:09:08.585Z</time></trkpt><trkpt lat="42.6644425" lon="12.735162"><ele>672.5</ele><time>2026-04-10T17:09:09.58Z</time></trkpt><trkpt lat="42.6645277" lon="12.735049"><ele>670.75</ele><time>2026-04-10T17:09:10.583Z</time></trkpt><trkpt lat="42.6645849" lon="12.7348962"><ele>669.0</ele><time>2026-04-10T17:09:11.579Z</time></trkpt><trkpt lat="42.6646178" lon="12.7347518"><ele>669.0</ele><time>2026-04-10T17:09:12.585Z</time></trkpt><trkpt lat="42.6646403" lon="12.7346498"><ele>669.0</ele><time>2026-04-10T17:09:13.595Z</time></trkpt><trkpt lat="42.6646357" lon="12.7344973"><ele>669.0</ele><time>2026-04-10T17:09:15.599Z</time></trkpt><trkpt lat="42.6645921" lon="12.7343599"><ele>669.0</ele><time>2026-04-10T17:09:17.596Z</time></trkpt><trkpt lat="42.6645679" lon="12.7341843"><ele>669.0</ele><time>2026-04-10T17:09:19.598Z</time></trkpt><trkpt lat="42.6645847" lon="12.7340752"><ele>669.8000000000001</ele><time>2026-04-10T17:09:20.597Z</time></trkpt><trkpt lat="42.6646159" lon="12.7339537"><ele>670.6</ele><time>2026-04-10T17:09:21.593Z</time></trkpt><trkpt lat="42.664641" lon="12.7338125"><ele>671.4</ele><time>2026-04-10T17:09:22.592Z</time></trkpt><trkpt lat="42.6646732" lon="12.7336681"><ele>672.2</ele><time>2026-04-10T17:09:23.592Z</time></trkpt><trkpt lat="42.6647094" lon="12.7335332"><ele>673.0</ele><time>2026-04-10T17:09:24.591Z</time></trkpt><trkpt lat="42.6647312" lon="12.7333811"><ele>673.0</ele><time>2026-04-10T17:09:25.593Z</time></trkpt><trkpt lat="42.664757" lon="12.7332209"><ele>673.0</ele><time>2026-04-10T17:09:26.582Z</time></trkpt><trkpt lat="42.6648088" lon="12.7330604"><ele>673.0</ele><time>2026-04-10T17:09:27.585Z</time></trkpt><trkpt lat="42.6648657" lon="12.7328915"><ele>673.0</ele><time>2026-04-10T17:09:28.579Z</time></trkpt><trkpt lat="42.6649332" lon="12.7327438"><ele>672.25</ele><time>2026-04-10T17:09:29.584Z</time></trkpt><trkpt lat="42.665016" lon="12.7326316"><ele>671.5</ele><time>2026-04-10T17:09:30.581Z</time></trkpt><trkpt lat="42.6650942" lon="12.7325257"><ele>670.75</ele><time>2026-04-10T17:09:31.58Z</time></trkpt><trkpt lat="42.6651697" lon="12.7324128"><ele>670.0</ele><time>2026-04-10T17:09:32.579Z</time></trkpt><trkpt lat="42.6652409" lon="12.7322753"><ele>669.6</ele><time>2026-04-10T17:09:33.576Z</time></trkpt><trkpt lat="42.6652965" lon="12.7321342"><ele>669.2</ele><time>2026-04-10T17:09:34.585Z</time></trkpt><trkpt lat="42.6653518" lon="12.7320111"><ele>668.8</ele><time>2026-04-10T17:09:35.582Z</time></trkpt><trkpt lat="42.6653934" lon="12.7318686"><ele>668.4</ele><time>2026-04-10T17:09:36.585Z</time></trkpt><trkpt lat="42.6654262" lon="12.7317362"><ele>668.0</ele><time>2026-04-10T17:09:37.586Z</time></trkpt><trkpt lat="42.6654437" lon="12.731603"><ele>669.8333333333333</ele><time>2026-04-10T17:09:38.595Z</time></trkpt><trkpt lat="42.6654616" lon="12.7314734"><ele>671.6666666666666</ele><time>2026-04-10T17:09:39.598Z</time></trkpt><trkpt lat="42.6654808" lon="12.731339"><ele>673.5</ele><time>2026-04-10T17:09:40.596Z</time></trkpt><trkpt lat="42.6655004" lon="12.7312148"><ele>675.3333333333334</ele><time>2026-04-10T17:09:41.6Z</time></trkpt><trkpt lat="42.6655144" lon="12.7311152"><ele>677.1666666666667</ele><time>2026-04-10T17:09:42.593Z</time></trkpt><trkpt lat="42.6655271" lon="12.7310085"><ele>679.0</ele><time>2026-04-10T17:09:43.595Z</time></trkpt><trkpt lat="42.665545" lon="12.7309087"><ele>681.0</ele><time>2026-04-10T17:09:44.605Z</time></trkpt><trkpt lat="42.6655688" lon="12.7308019"><ele>683.0</ele><time>2026-04-10T17:09:45.591Z</time></trkpt><trkpt lat="42.6655774" lon="12.7306874"><ele>685.0</ele><time>2026-04-10T17:09:46.603Z</time></trkpt><trkpt lat="42.6655832" lon="12.7305903"><ele>687.0</ele><time>2026-04-10T17:09:47.595Z</time></trkpt><trkpt lat="42.6655939" lon="12.7305021"><ele>689.0</ele><time>2026-04-10T17:09:48.589Z</time></trkpt><trkpt lat="42.6656009" lon="12.7304141"><ele>691.0</ele><time>2026-04-10T17:09:49.594Z</time></trkpt><trkpt lat="42.6656156" lon="12.7303098"><ele>693.0</ele><time>2026-04-10T17:09:50.591Z</time></trkpt><trkpt lat="42.6656396" lon="12.7301955"><ele>693.0</ele><time>2026-04-10T17:09:51.595Z</time></trkpt><trkpt lat="42.6656634" lon="12.7300664"><ele>693.0</ele><time>2026-04-10T17:09:52.593Z</time></trkpt><trkpt lat="42.6656948" lon="12.7299358"><ele>693.0</ele><time>2026-04-10T17:09:53.582Z</time></trkpt><trkpt lat="42.665733" lon="12.7297856"><ele>693.0</ele><time>2026-04-10T17:09:54.584Z</time></trkpt><trkpt lat="42.6657613" lon="12.729644"><ele>693.0</ele><time>2026-04-10T17:09:55.59Z</time></trkpt><trkpt lat="42.6657843" lon="12.7295085"><ele>693.0</ele><time>2026-04-10T17:09:56.586Z</time></trkpt><trkpt lat="42.6658122" lon="12.7294001"><ele>693.0</ele><time>2026-04-10T17:09:57.593Z</time></trkpt><trkpt lat="42.6658517" lon="12.7292764"><ele>693.0</ele><time>2026-04-10T17:09:58.592Z</time></trkpt><trkpt lat="42.6658999" lon="12.7291353"><ele>693.0</ele><time>2026-04-10T17:09:59.594Z</time></trkpt><trkpt lat="42.6659652" lon="12.7290085"><ele>693.0</ele><time>2026-04-10T17:10:00.59Z</time></trkpt><trkpt lat="42.6660205" lon="12.7288788"><ele>691.4</ele><time>2026-04-10T17:10:01.591Z</time></trkpt><trkpt lat="42.6660768" lon="12.728752"><ele>689.8</ele><time>2026-04-10T17:10:02.59Z</time></trkpt><trkpt lat="42.6661348" lon="12.7286197"><ele>688.2</ele><time>2026-04-10T17:10:03.573Z</time></trkpt><trkpt lat="42.6661813" lon="12.7284825"><ele>686.6</ele><time>2026-04-10T17:10:04.587Z</time></trkpt><trkpt lat="42.6662218" lon="12.7283403"><ele>685.0</ele><time>2026-04-10T17:10:05.584Z</time></trkpt><trkpt lat="42.6662663" lon="12.7282034"><ele>681.8</ele><time>2026-04-10T17:10:06.584Z</time></trkpt><trkpt lat="42.6663006" lon="12.7280557"><ele>678.6</ele><time>2026-04-10T17:10:07.585Z</time></trkpt><trkpt lat="42.6663319" lon="12.7279066"><ele>675.4000000000001</ele><time>2026-04-10T17:10:08.584Z</time></trkpt><trkpt lat="42.6663405" lon="12.7277739"><ele>672.2</ele><time>2026-04-10T17:10:09.583Z</time></trkpt><trkpt lat="42.6663447" lon="12.7276666"><ele>669.0</ele><time>2026-04-10T17:10:10.583Z</time></trkpt><trkpt lat="42.6663354" lon="12.7275643"><ele>667.8333333333334</ele><time>2026-04-10T17:10:11.586Z</time></trkpt><trkpt lat="42.6663064" lon="12.7274568"><ele>666.6666666666666</ele><time>2026-04-10T17:10:12.577Z</time></trkpt><trkpt lat="42.666255" lon="12.727375"><ele>665.5</ele><time>2026-04-10T17:10:13.587Z</time></trkpt><trkpt lat="42.6661782" lon="12.7272869"><ele>664.3333333333333</ele><time>2026-04-10T17:10:14.579Z</time></trkpt><trkpt lat="42.6661013" lon="12.7272152"><ele>663.1666666666666</ele><time>2026-04-10T17:10:15.585Z</time></trkpt><trkpt lat="42.6660301" lon="12.7271578"><ele>662.0</ele><time>2026-04-10T17:10:16.581Z</time></trkpt><trkpt lat="42.6659663" lon="12.7271135"><ele>665.2</ele><time>2026-04-10T17:10:17.584Z</time></trkpt><trkpt lat="42.6658724" lon="12.7270782"><ele>668.4000000000001</ele><time>2026-04-10T17:10:19.574Z</time></trkpt><trkpt lat="42.6658009" lon="12.7271853"><ele>671.5999999999999</ele><time>2026-04-10T17:10:21.572Z</time></trkpt><trkpt lat="42.6657703" lon="12.7273012"><ele>674.8</ele><time>2026-04-10T17:10:22.569Z</time></trkpt><trkpt lat="42.6657438" lon="12.7274178"><ele>678.0</ele><time>2026-04-10T17:10:23.567Z</time></trkpt><trkpt lat="42.665709" lon="12.7275226"><ele>678.0</ele><time>2026-04-10T17:10:24.586Z</time></trkpt><trkpt lat="42.6656728" lon="12.7276345"><ele>678.0</ele><time>2026-04-10T17:10:25.58Z</time></trkpt><trkpt lat="42.6656319" lon="12.7277219"><ele>678.0</ele><time>2026-04-10T17:10:26.573Z</time></trkpt><trkpt lat="42.6655767" lon="12.7277639"><ele>678.0</ele><time>2026-04-10T17:10:27.574Z</time></trkpt><trkpt lat="42.6654687" lon="12.7278149"><ele>678.0</ele><time>2026-04-10T17:10:29.584Z</time></trkpt><trkpt lat="42.6653997" lon="12.7278394"><ele>678.0</ele><time>2026-04-10T17:10:30.575Z</time></trkpt><trkpt lat="42.6653184" lon="12.7278684"><ele>678.4</ele><time>2026-04-10T17:10:31.587Z</time></trkpt><trkpt lat="42.6652279" lon="12.7278847"><ele>678.8</ele><time>2026-04-10T17:10:32.583Z</time></trkpt><trkpt lat="42.6651261" lon="12.7278738"><ele>679.2</ele><time>2026-04-10T17:10:33.585Z</time></trkpt><trkpt lat="42.6650303" lon="12.727817"><ele>679.6</ele><time>2026-04-10T17:10:34.583Z</time></trkpt><trkpt lat="42.6649497" lon="12.7277294"><ele>680.0</ele><time>2026-04-10T17:10:35.589Z</time></trkpt><trkpt lat="42.6648912" lon="12.7275987"><ele>680.0</ele><time>2026-04-10T17:10:36.597Z</time></trkpt><trkpt lat="42.6648637" lon="12.7274505"><ele>680.0</ele><time>2026-04-10T17:10:37.592Z</time></trkpt><trkpt lat="42.6648865" lon="12.7272983"><ele>680.0</ele><time>2026-04-10T17:10:38.589Z</time></trkpt><trkpt lat="42.6649472" lon="12.7271783"><ele>680.0</ele><time>2026-04-10T17:10:39.595Z</time></trkpt><trkpt lat="42.6650405" lon="12.7270633"><ele>680.0</ele><time>2026-04-10T17:10:40.591Z</time></trkpt><trkpt lat="42.6651208" lon="12.7269268"><ele>680.0</ele><time>2026-04-10T17:10:41.589Z</time></trkpt><trkpt lat="42.6651938" lon="12.726778"><ele>680.0</ele><time>2026-04-10T17:10:42.587Z</time></trkpt><trkpt lat="42.6652298" lon="12.7266166"><ele>680.0</ele><time>2026-04-10T17:10:43.581Z</time></trkpt><trkpt lat="42.6652486" lon="12.7264274"><ele>682.3333333333333</ele><time>2026-04-10T17:10:44.588Z</time></trkpt><trkpt lat="42.6652487" lon="12.726231"><ele>684.6666666666666</ele><time>2026-04-10T17:10:45.579Z</time></trkpt><trkpt lat="42.6652257" lon="12.7260334"><ele>687.0</ele><time>2026-04-10T17:10:46.599Z</time></trkpt><trkpt lat="42.6651913" lon="12.725808"><ele>690.25</ele><time>2026-04-10T17:10:47.594Z</time></trkpt><trkpt lat="42.6651934" lon="12.7256119"><ele>693.5</ele><time>2026-04-10T17:10:48.591Z</time></trkpt><trkpt lat="42.6651876" lon="12.725444"><ele>696.75</ele><time>2026-04-10T17:10:49.586Z</time></trkpt><trkpt lat="42.6651304" lon="12.7252862"><ele>700.0</ele><time>2026-04-10T17:10:50.58Z</time></trkpt><trkpt lat="42.6650615" lon="12.7251624"><ele>703.0</ele><time>2026-04-10T17:10:51.579Z</time></trkpt><trkpt lat="42.6649656" lon="12.7250772"><ele>706.0</ele><time>2026-04-10T17:10:52.58Z</time></trkpt><trkpt lat="42.6648752" lon="12.724991"><ele>709.0</ele><time>2026-04-10T17:10:53.594Z</time></trkpt><trkpt lat="42.6647915" lon="12.724892"><ele>712.0</ele><time>2026-04-10T17:10:54.593Z</time></trkpt><trkpt lat="42.6647132" lon="12.7247578"><ele>712.0</ele><time>2026-04-10T17:10:55.583Z</time></trkpt><trkpt lat="42.6646553" lon="12.7245951"><ele>712.0</ele><time>2026-04-10T17:10:56.581Z</time></trkpt><trkpt lat="42.6646287" lon="12.7243888"><ele>712.0</ele><time>2026-04-10T17:10:57.583Z</time></trkpt><trkpt lat="42.6646051" lon="12.72419"><ele>712.0</ele><time>2026-04-10T17:10:58.586Z</time></trkpt><trkpt lat="42.6645612" lon="12.7239865"><ele>714.3333333333334</ele><time>2026-04-10T17:10:59.577Z</time></trkpt><trkpt lat="42.664492" lon="12.7237532"><ele>716.6666666666666</ele><time>2026-04-10T17:11:00.584Z</time></trkpt><trkpt lat="42.6644167" lon="12.7235485"><ele>719.0</ele><time>2026-04-10T17:11:01.589Z</time></trkpt><trkpt lat="42.6643239" lon="12.7233621"><ele>719.6666666666666</ele><time>2026-04-10T17:11:02.578Z</time></trkpt><trkpt lat="42.6642066" lon="12.7232051"><ele>720.3333333333334</ele><time>2026-04-10T17:11:03.598Z</time></trkpt><trkpt lat="42.6640856" lon="12.7230555"><ele>721.0</ele><time>2026-04-10T17:11:04.588Z</time></trkpt><trkpt lat="42.6639714" lon="12.7229315"><ele>721.0</ele><time>2026-04-10T17:11:05.593Z</time></trkpt><trkpt lat="42.6638422" lon="12.7228241"><ele>721.0</ele><time>2026-04-10T17:11:06.595Z</time></trkpt><trkpt lat="42.6637124" lon="12.7227258"><ele>721.0</ele><time>2026-04-10T17:11:07.596Z</time></trkpt><trkpt lat="42.6635661" lon="12.7226966"><ele>721.0</ele><time>2026-04-10T17:11:08.585Z</time></trkpt><trkpt lat="42.6634261" lon="12.7226841"><ele>724.0</ele><time>2026-04-10T17:11:09.587Z</time></trkpt><trkpt lat="42.6632934" lon="12.7227566"><ele>727.0</ele><time>2026-04-10T17:11:10.599Z</time></trkpt><trkpt lat="42.6631821" lon="12.7228801"><ele>730.0</ele><time>2026-04-10T17:11:11.582Z</time></trkpt><trkpt lat="42.6630418" lon="12.7229891"><ele>733.0</ele><time>2026-04-10T17:11:12.584Z</time></trkpt><trkpt lat="42.6629611" lon="12.7230778"><ele>733.0</ele><time>2026-04-10T17:11:13.576Z</time></trkpt><trkpt lat="42.662879" lon="12.7231361"><ele>733.0</ele><time>2026-04-10T17:11:14.574Z</time></trkpt><trkpt lat="42.6627979" lon="12.7231312"><ele>733.0</ele><time>2026-04-10T17:11:15.578Z</time></trkpt><trkpt lat="42.6627166" lon="12.7230938"><ele>733.0</ele><time>2026-04-10T17:11:16.578Z</time></trkpt><trkpt lat="42.662624" lon="12.7230085"><ele>733.0</ele><time>2026-04-10T17:11:17.607Z</time></trkpt><trkpt lat="42.6625371" lon="12.7228753"><ele>739.3333333333334</ele><time>2026-04-10T17:11:18.581Z</time></trkpt><trkpt lat="42.6624665" lon="12.7226938"><ele>745.6666666666666</ele><time>2026-04-10T17:11:19.583Z</time></trkpt><trkpt lat="42.6624143" lon="12.7225053"><ele>752.0</ele><time>2026-04-10T17:11:20.587Z</time></trkpt><trkpt lat="42.6623782" lon="12.7222872"><ele>752.0</ele><time>2026-04-10T17:11:21.576Z</time></trkpt><trkpt lat="42.6623501" lon="12.7220315"><ele>752.0</ele><time>2026-04-10T17:11:22.578Z</time></trkpt><trkpt lat="42.662276" lon="12.7218218"><ele>752.0</ele><time>2026-04-10T17:11:23.568Z</time></trkpt><trkpt lat="42.6621995" lon="12.7216069"><ele>753.6666666666666</ele><time>2026-04-10T17:11:24.569Z</time></trkpt><trkpt lat="42.6621451" lon="12.7213746"><ele>755.3333333333334</ele><time>2026-04-10T17:11:25.576Z</time></trkpt><trkpt lat="42.6620745" lon="12.7211688"><ele>757.0</ele><time>2026-04-10T17:11:26.573Z</time></trkpt><trkpt lat="42.6619942" lon="12.7209472"><ele>759.6666666666667</ele><time>2026-04-10T17:11:27.573Z</time></trkpt><trkpt lat="42.661893" lon="12.720751"><ele>762.3333333333334</ele><time>2026-04-10T17:11:28.576Z</time></trkpt><trkpt lat="42.661789" lon="12.7205854"><ele>765.0</ele><time>2026-04-10T17:11:29.578Z</time></trkpt><trkpt lat="42.6616915" lon="12.7204522"><ele>765.0</ele><time>2026-04-10T17:11:30.592Z</time></trkpt><trkpt lat="42.6616434" lon="12.7202992"><ele>765.0</ele><time>2026-04-10T17:11:31.592Z</time></trkpt><trkpt lat="42.6616509" lon="12.7201366"><ele>765.0</ele><time>2026-04-10T17:11:32.581Z</time></trkpt><trkpt lat="42.661719" lon="12.7199919"><ele>765.0</ele><time>2026-04-10T17:11:33.576Z</time></trkpt><trkpt lat="42.6617748" lon="12.7198148"><ele>769.75</ele><time>2026-04-10T17:11:34.574Z</time></trkpt><trkpt lat="42.6618138" lon="12.7196309"><ele>774.5</ele><time>2026-04-10T17:11:35.589Z</time></trkpt><trkpt lat="42.6617956" lon="12.7194415"><ele>779.25</ele><time>2026-04-10T17:11:36.584Z</time></trkpt><trkpt lat="42.6617293" lon="12.7192375"><ele>784.0</ele><time>2026-04-10T17:11:37.576Z</time></trkpt><trkpt lat="42.6616765" lon="12.7190359"><ele>785.25</ele><time>2026-04-10T17:11:38.576Z</time></trkpt><trkpt lat="42.6616028" lon="12.7188436"><ele>786.5</ele><time>2026-04-10T17:11:39.57Z</time></trkpt><trkpt lat="42.661519" lon="12.7187261"><ele>787.75</ele><time>2026-04-10T17:11:40.584Z</time></trkpt><trkpt lat="42.6614258" lon="12.7185754"><ele>789.0</ele><time>2026-04-10T17:11:41.575Z</time></trkpt><trkpt lat="42.6613102" lon="12.7185145"><ele>786.25</ele><time>2026-04-10T17:11:42.575Z</time></trkpt><trkpt lat="42.6611692" lon="12.7184799"><ele>783.5</ele><time>2026-04-10T17:11:43.576Z</time></trkpt><trkpt lat="42.6610113" lon="12.7183803"><ele>780.75</ele><time>2026-04-10T17:11:44.573Z</time></trkpt><trkpt lat="42.6608999" lon="12.718287"><ele>778.0</ele><time>2026-04-10T17:11:45.576Z</time></trkpt><trkpt lat="42.660833" lon="12.7181334"><ele>784.5</ele><time>2026-04-10T17:11:46.577Z</time></trkpt><trkpt lat="42.6607917" lon="12.7179656"><ele>791.0</ele><time>2026-04-10T17:11:47.578Z</time></trkpt><trkpt lat="42.6607828" lon="12.7177287"><ele>797.5</ele><time>2026-04-10T17:11:48.571Z</time></trkpt><trkpt lat="42.6607528" lon="12.7175525"><ele>804.0</ele><time>2026-04-10T17:11:49.571Z</time></trkpt><trkpt lat="42.6606513" lon="12.7174013"><ele>804.25</ele><time>2026-04-10T17:11:50.593Z</time></trkpt><trkpt lat="42.6605734" lon="12.7172546"><ele>804.5</ele><time>2026-04-10T17:11:51.574Z</time></trkpt><trkpt lat="42.6605191" lon="12.7170647"><ele>804.75</ele><time>2026-04-10T17:11:52.573Z</time></trkpt><trkpt lat="42.6604493" lon="12.7169235"><ele>805.0</ele><time>2026-04-10T17:11:53.577Z</time></trkpt><trkpt lat="42.6605186" lon="12.7166611"><ele>806.0</ele><time>2026-04-10T17:11:54.58Z</time></trkpt><trkpt lat="42.6605386" lon="12.7163919"><ele>807.0</ele><time>2026-04-10T17:11:55.577Z</time></trkpt><trkpt lat="42.6604745" lon="12.7161917"><ele>808.0</ele><time>2026-04-10T17:11:56.572Z</time></trkpt><trkpt lat="42.6604199" lon="12.7160298"><ele>808.5</ele><time>2026-04-10T17:11:57.582Z</time></trkpt><trkpt lat="42.6603202" lon="12.7158693"><ele>809.0</ele><time>2026-04-10T17:11:58.585Z</time></trkpt><trkpt lat="42.6602545" lon="12.7157495"><ele>809.5</ele><time>2026-04-10T17:11:59.576Z</time></trkpt><trkpt lat="42.660306" lon="12.7156014"><ele>810.0</ele><time>2026-04-10T17:12:00.583Z</time></trkpt><trkpt lat="42.660375" lon="12.7154431"><ele>810.0</ele><time>2026-04-10T17:12:01.581Z</time></trkpt><trkpt lat="42.6604227" lon="12.7153088"><ele>810.0</ele><time>2026-04-10T17:12:02.568Z</time></trkpt><trkpt lat="42.6604918" lon="12.7151761"><ele>810.0</ele><time>2026-04-10T17:12:03.574Z</time></trkpt><trkpt lat="42.6605311" lon="12.7150366"><ele>810.0</ele><time>2026-04-10T17:12:04.578Z</time></trkpt><trkpt lat="42.6605732" lon="12.7148912"><ele>810.2</ele><time>2026-04-10T17:12:05.57Z</time></trkpt><trkpt lat="42.6605871" lon="12.7147424"><ele>810.4</ele><time>2026-04-10T17:12:06.582Z</time></trkpt><trkpt lat="42.6605924" lon="12.7145932"><ele>810.5999999999999</ele><time>2026-04-10T17:12:07.581Z</time></trkpt><trkpt lat="42.6605947" lon="12.7144459"><ele>810.8</ele><time>2026-04-10T17:12:08.584Z</time></trkpt><trkpt lat="42.6606138" lon="12.7142887"><ele>811.0</ele><time>2026-04-10T17:12:09.583Z</time></trkpt><trkpt lat="42.6606397" lon="12.7141184"><ele>810.25</ele><time>2026-04-10T17:12:10.586Z</time></trkpt><trkpt lat="42.6606682" lon="12.7139432"><ele>809.5</ele><time>2026-04-10T17:12:11.594Z</time></trkpt><trkpt lat="42.6607152" lon="12.7137648"><ele>808.75</ele><time>2026-04-10T17:12:12.582Z</time></trkpt><trkpt lat="42.6608065" lon="12.7136279"><ele>808.0</ele><time>2026-04-10T17:12:13.58Z</time></trkpt><trkpt lat="42.6609145" lon="12.713536"><ele>808.25</ele><time>2026-04-10T17:12:14.582Z</time></trkpt><trkpt lat="42.6610315" lon="12.7134375"><ele>808.5</ele><time>2026-04-10T17:12:15.577Z</time></trkpt><trkpt lat="42.6611256" lon="12.7133339"><ele>808.75</ele><time>2026-04-10T17:12:16.577Z</time></trkpt><trkpt lat="42.6611804" lon="12.7131727"><ele>809.0</ele><time>2026-04-10T17:12:17.581Z</time></trkpt><trkpt lat="42.6612304" lon="12.713002"><ele>809.0</ele><time>2026-04-10T17:12:18.58Z</time></trkpt><trkpt lat="42.6612662" lon="12.7128387"><ele>809.0</ele><time>2026-04-10T17:12:19.585Z</time></trkpt><trkpt lat="42.6613256" lon="12.7126685"><ele>809.0</ele><time>2026-04-10T17:12:20.588Z</time></trkpt><trkpt lat="42.6614223" lon="12.7125435"><ele>809.0</ele><time>2026-04-10T17:12:21.593Z</time></trkpt><trkpt lat="42.6615422" lon="12.7124526"><ele>805.25</ele><time>2026-04-10T17:12:22.579Z</time></trkpt><trkpt lat="42.6616849" lon="12.7123869"><ele>801.5</ele><time>2026-04-10T17:12:23.579Z</time></trkpt><trkpt lat="42.6617999" lon="12.7123533"><ele>797.75</ele><time>2026-04-10T17:12:24.572Z</time></trkpt><trkpt lat="42.6618606" lon="12.7122717"><ele>794.0</ele><time>2026-04-10T17:12:25.567Z</time></trkpt><trkpt lat="42.6618486" lon="12.7121422"><ele>794.0</ele><time>2026-04-10T17:12:26.56Z</time></trkpt><trkpt lat="42.6618028" lon="12.7119966"><ele>794.0</ele><time>2026-04-10T17:12:27.56Z</time></trkpt><trkpt lat="42.6617285" lon="12.7118234"><ele>794.0</ele><time>2026-04-10T17:12:28.562Z</time></trkpt><trkpt lat="42.661626" lon="12.7116731"><ele>794.0</ele><time>2026-04-10T17:12:29.569Z</time></trkpt><trkpt lat="42.6614951" lon="12.71155"><ele>796.6666666666667</ele><time>2026-04-10T17:12:30.56Z</time></trkpt><trkpt lat="42.6612922" lon="12.7114169"><ele>799.3333333333333</ele><time>2026-04-10T17:12:31.585Z</time></trkpt><trkpt lat="42.6611508" lon="12.7112736"><ele>802.0</ele><time>2026-04-10T17:12:32.563Z</time></trkpt><trkpt lat="42.6609809" lon="12.7111354"><ele>801.0</ele><time>2026-04-10T17:12:33.562Z</time></trkpt><trkpt lat="42.6608615" lon="12.7110001"><ele>800.0</ele><time>2026-04-10T17:12:34.558Z</time></trkpt><trkpt lat="42.6607235" lon="12.7108971"><ele>799.0</ele><time>2026-04-10T17:12:35.582Z</time></trkpt><trkpt lat="42.660589" lon="12.7108387"><ele>799.0</ele><time>2026-04-10T17:12:36.575Z</time></trkpt><trkpt lat="42.6604355" lon="12.7108295"><ele>799.0</ele><time>2026-04-10T17:12:37.587Z</time></trkpt><trkpt lat="42.6602735" lon="12.7108302"><ele>799.0</ele><time>2026-04-10T17:12:38.59Z</time></trkpt><trkpt lat="42.6601214" lon="12.710771"><ele>792.0</ele><time>2026-04-10T17:12:39.595Z</time></trkpt><trkpt lat="42.6599184" lon="12.7106914"><ele>785.0</ele><time>2026-04-10T17:12:40.593Z</time></trkpt><trkpt lat="42.6597303" lon="12.7106893"><ele>778.0</ele><time>2026-04-10T17:12:41.594Z</time></trkpt><trkpt lat="42.6595705" lon="12.710663"><ele>778.0</ele><time>2026-04-10T17:12:42.584Z</time></trkpt><trkpt lat="42.6594913" lon="12.7105723"><ele>778.0</ele><time>2026-04-10T17:12:43.581Z</time></trkpt><trkpt lat="42.6593817" lon="12.7104064"><ele>778.0</ele><time>2026-04-10T17:12:44.585Z</time></trkpt><trkpt lat="42.6593747" lon="12.7102568"><ele>778.0</ele><time>2026-04-10T17:12:45.588Z</time></trkpt><trkpt lat="42.6593752" lon="12.7100819"><ele>779.25</ele><time>2026-04-10T17:12:46.578Z</time></trkpt><trkpt lat="42.6594014" lon="12.7099368"><ele>780.5</ele><time>2026-04-10T17:12:47.573Z</time></trkpt><trkpt lat="42.6593328" lon="12.7097868"><ele>781.75</ele><time>2026-04-10T17:12:48.58Z</time></trkpt><trkpt lat="42.6592511" lon="12.7097069"><ele>783.0</ele><time>2026-04-10T17:12:49.592Z</time></trkpt><trkpt lat="42.6591438" lon="12.7096667"><ele>783.0</ele><time>2026-04-10T17:12:50.581Z</time></trkpt><trkpt lat="42.6590251" lon="12.7096307"><ele>783.0</ele><time>2026-04-10T17:12:51.59Z</time></trkpt><trkpt lat="42.658886" lon="12.7096132"><ele>783.0</ele><time>2026-04-10T17:12:52.576Z</time></trkpt><trkpt lat="42.6587544" lon="12.7096153"><ele>783.0</ele><time>2026-04-10T17:12:53.573Z</time></trkpt><trkpt lat="42.6586216" lon="12.7097142"><ele>780.25</ele><time>2026-04-10T17:12:54.575Z</time></trkpt><trkpt lat="42.658492" lon="12.7098639"><ele>777.5</ele><time>2026-04-10T17:12:55.589Z</time></trkpt><trkpt lat="42.6584395" lon="12.709981"><ele>774.75</ele><time>2026-04-10T17:12:56.589Z</time></trkpt><trkpt lat="42.658353" lon="12.7099677"><ele>772.0</ele><time>2026-04-10T17:12:57.597Z</time></trkpt><trkpt lat="42.6582633" lon="12.7099087"><ele>772.0</ele><time>2026-04-10T17:12:58.6Z</time></trkpt><trkpt lat="42.6581796" lon="12.7097991"><ele>772.0</ele><time>2026-04-10T17:12:59.606Z</time></trkpt><trkpt lat="42.6580998" lon="12.7096406"><ele>772.0</ele><time>2026-04-10T17:13:00.596Z</time></trkpt><trkpt lat="42.6580182" lon="12.7094231"><ele>772.0</ele><time>2026-04-10T17:13:01.615Z</time></trkpt><trkpt lat="42.657968" lon="12.7092187"><ele>776.0</ele><time>2026-04-10T17:13:02.6Z</time></trkpt><trkpt lat="42.6579223" lon="12.708996"><ele>780.0</ele><time>2026-04-10T17:13:03.597Z</time></trkpt><trkpt lat="42.6579168" lon="12.7088049"><ele>784.0</ele><time>2026-04-10T17:13:04.6Z</time></trkpt><trkpt lat="42.6579614" lon="12.7086164"><ele>784.75</ele><time>2026-04-10T17:13:05.584Z</time></trkpt><trkpt lat="42.6579851" lon="12.7084649"><ele>785.5</ele><time>2026-04-10T17:13:06.579Z</time></trkpt><trkpt lat="42.6579568" lon="12.708315"><ele>786.25</ele><time>2026-04-10T17:13:07.582Z</time></trkpt><trkpt lat="42.6579004" lon="12.7082091"><ele>787.0</ele><time>2026-04-10T17:13:08.574Z</time></trkpt><trkpt lat="42.6577551" lon="12.7081627"><ele>783.75</ele><time>2026-04-10T17:13:09.574Z</time></trkpt><trkpt lat="42.6576206" lon="12.7081538"><ele>780.5</ele><time>2026-04-10T17:13:10.572Z</time></trkpt><trkpt lat="42.6575124" lon="12.708122"><ele>777.25</ele><time>2026-04-10T17:13:11.585Z</time></trkpt><trkpt lat="42.6574035" lon="12.7080483"><ele>774.0</ele><time>2026-04-10T17:13:12.576Z</time></trkpt><trkpt lat="42.6573083" lon="12.707917"><ele>774.0</ele><time>2026-04-10T17:13:13.586Z</time></trkpt><trkpt lat="42.6572529" lon="12.7077729"><ele>774.0</ele><time>2026-04-10T17:13:14.58Z</time></trkpt><trkpt lat="42.6571974" lon="12.707614"><ele>774.0</ele><time>2026-04-10T17:13:15.584Z</time></trkpt><trkpt lat="42.6571586" lon="12.7074418"><ele>774.0</ele><time>2026-04-10T17:13:16.587Z</time></trkpt><trkpt lat="42.65714" lon="12.7072635"><ele>775.0</ele><time>2026-04-10T17:13:17.578Z</time></trkpt><trkpt lat="42.6571446" lon="12.7070485"><ele>776.0</ele><time>2026-04-10T17:13:18.583Z</time></trkpt><trkpt lat="42.6571777" lon="12.7068196"><ele>777.0</ele><time>2026-04-10T17:13:19.587Z</time></trkpt><trkpt lat="42.6571889" lon="12.7065624"><ele>777.0</ele><time>2026-04-10T17:13:20.599Z</time></trkpt><trkpt lat="42.6571939" lon="12.7063445"><ele>777.0</ele><time>2026-04-10T17:13:21.596Z</time></trkpt><trkpt lat="42.6572146" lon="12.7061411"><ele>777.0</ele><time>2026-04-10T17:13:22.588Z</time></trkpt><trkpt lat="42.6571808" lon="12.7059098"><ele>777.3333333333333</ele><time>2026-04-10T17:13:23.583Z</time></trkpt><trkpt lat="42.6571556" lon="12.7057039"><ele>777.6666666666666</ele><time>2026-04-10T17:13:24.578Z</time></trkpt><trkpt lat="42.6570857" lon="12.7055096"><ele>778.0</ele><time>2026-04-10T17:13:25.573Z</time></trkpt><trkpt lat="42.6569936" lon="12.7053272"><ele>771.0</ele><time>2026-04-10T17:13:26.57Z</time></trkpt><trkpt lat="42.6568691" lon="12.7052035"><ele>764.0</ele><time>2026-04-10T17:13:27.57Z</time></trkpt><trkpt lat="42.6566969" lon="12.7051341"><ele>757.0</ele><time>2026-04-10T17:13:28.579Z</time></trkpt><trkpt lat="42.6565086" lon="12.7050583"><ele>757.0</ele><time>2026-04-10T17:13:29.574Z</time></trkpt><trkpt lat="42.6563554" lon="12.7049501"><ele>757.0</ele><time>2026-04-10T17:13:30.566Z</time></trkpt><trkpt lat="42.6561894" lon="12.7048262"><ele>757.0</ele><time>2026-04-10T17:13:31.586Z</time></trkpt><trkpt lat="42.6560635" lon="12.7047877"><ele>757.0</ele><time>2026-04-10T17:13:32.572Z</time></trkpt><trkpt lat="42.6559223" lon="12.7047636"><ele>757.0</ele><time>2026-04-10T17:13:33.569Z</time></trkpt><trkpt lat="42.6557882" lon="12.7047333"><ele>757.0</ele><time>2026-04-10T17:13:34.568Z</time></trkpt><trkpt lat="42.6557133" lon="12.7046909"><ele>757.0</ele><time>2026-04-10T17:13:35.574Z</time></trkpt><trkpt lat="42.6556647" lon="12.7045908"><ele>757.0</ele><time>2026-04-10T17:13:36.575Z</time></trkpt><trkpt lat="42.6556445" lon="12.7044512"><ele>756.5</ele><time>2026-04-10T17:13:37.574Z</time></trkpt><trkpt lat="42.6555564" lon="12.7043315"><ele>756.0</ele><time>2026-04-10T17:13:38.571Z</time></trkpt><trkpt lat="42.6554615" lon="12.7042605"><ele>755.5</ele><time>2026-04-10T17:13:39.569Z</time></trkpt><trkpt lat="42.6553483" lon="12.7042206"><ele>755.0</ele><time>2026-04-10T17:13:40.567Z</time></trkpt><trkpt lat="42.6552261" lon="12.7042085"><ele>755.0</ele><time>2026-04-10T17:13:41.586Z</time></trkpt><trkpt lat="42.6550619" lon="12.7042318"><ele>755.0</ele><time>2026-04-10T17:13:42.578Z</time></trkpt><trkpt lat="42.6548713" lon="12.7042549"><ele>755.0</ele><time>2026-04-10T17:13:43.578Z</time></trkpt><trkpt lat="42.654651" lon="12.7042857"><ele>755.0</ele><time>2026-04-10T17:13:44.576Z</time></trkpt><trkpt lat="42.6544884" lon="12.7043082"><ele>755.0</ele><time>2026-04-10T17:13:45.589Z</time></trkpt><trkpt lat="42.654332" lon="12.7043087"><ele>755.0</ele><time>2026-04-10T17:13:46.582Z</time></trkpt><trkpt lat="42.6542006" lon="12.7042867"><ele>755.25</ele><time>2026-04-10T17:13:47.582Z</time></trkpt><trkpt lat="42.6540888" lon="12.7042244"><ele>755.5</ele><time>2026-04-10T17:13:48.58Z</time></trkpt><trkpt lat="42.6539726" lon="12.7041137"><ele>755.75</ele><time>2026-04-10T17:13:49.588Z</time></trkpt><trkpt lat="42.6538422" lon="12.7039849"><ele>756.0</ele><time>2026-04-10T17:13:50.585Z</time></trkpt><trkpt lat="42.6537068" lon="12.7038894"><ele>757.0</ele><time>2026-04-10T17:13:51.604Z</time></trkpt><trkpt lat="42.6535505" lon="12.7037597"><ele>758.0</ele><time>2026-04-10T17:13:52.583Z</time></trkpt><trkpt lat="42.6534017" lon="12.7036511"><ele>759.0</ele><time>2026-04-10T17:13:53.589Z</time></trkpt><trkpt lat="42.6532608" lon="12.7035444"><ele>761.0</ele><time>2026-04-10T17:13:54.586Z</time></trkpt><trkpt lat="42.6531354" lon="12.7034616"><ele>763.0</ele><time>2026-04-10T17:13:55.587Z</time></trkpt><trkpt lat="42.6530413" lon="12.7033547"><ele>765.0</ele><time>2026-04-10T17:13:56.577Z</time></trkpt><trkpt lat="42.6529521" lon="12.7032533"><ele>767.0</ele><time>2026-04-10T17:13:57.581Z</time></trkpt><trkpt lat="42.6529065" lon="12.703128"><ele>767.0</ele><time>2026-04-10T17:13:58.582Z</time></trkpt><trkpt lat="42.6528642" lon="12.7029992"><ele>767.0</ele><time>2026-04-10T17:13:59.586Z</time></trkpt><trkpt lat="42.6528463" lon="12.7028587"><ele>767.0</ele><time>2026-04-10T17:14:00.583Z</time></trkpt><trkpt lat="42.6528192" lon="12.7026931"><ele>767.0</ele><time>2026-04-10T17:14:01.61Z</time></trkpt><trkpt lat="42.6527998" lon="12.7025545"><ele>767.0</ele><time>2026-04-10T17:14:02.587Z</time></trkpt><trkpt lat="42.6527746" lon="12.7024077"><ele>766.75</ele><time>2026-04-10T17:14:03.587Z</time></trkpt><trkpt lat="42.6527545" lon="12.7022569"><ele>766.5</ele><time>2026-04-10T17:14:04.585Z</time></trkpt><trkpt lat="42.6527503" lon="12.7021013"><ele>766.25</ele><time>2026-04-10T17:14:05.586Z</time></trkpt><trkpt lat="42.6527579" lon="12.7019376"><ele>766.0</ele><time>2026-04-10T17:14:06.58Z</time></trkpt><trkpt lat="42.6527614" lon="12.7017729"><ele>766.0</ele><time>2026-04-10T17:14:07.588Z</time></trkpt><trkpt lat="42.6527659" lon="12.7016087"><ele>766.0</ele><time>2026-04-10T17:14:08.582Z</time></trkpt><trkpt lat="42.6527664" lon="12.7014524"><ele>766.0</ele><time>2026-04-10T17:14:09.592Z</time></trkpt><trkpt lat="42.6527698" lon="12.7012942"><ele>766.0</ele><time>2026-04-10T17:14:10.588Z</time></trkpt><trkpt lat="42.6527668" lon="12.7011327"><ele>766.0</ele><time>2026-04-10T17:14:11.596Z</time></trkpt><trkpt lat="42.6527719" lon="12.7009728"><ele>766.0</ele><time>2026-04-10T17:14:12.586Z</time></trkpt><trkpt lat="42.6527873" lon="12.7008152"><ele>766.0</ele><time>2026-04-10T17:14:13.584Z</time></trkpt><trkpt lat="42.6528031" lon="12.7006628"><ele>766.0</ele><time>2026-04-10T17:14:14.584Z</time></trkpt><trkpt lat="42.6528093" lon="12.7005069"><ele>768.8</ele><time>2026-04-10T17:14:15.58Z</time></trkpt><trkpt lat="42.6528181" lon="12.7003574"><ele>771.5999999999999</ele><time>2026-04-10T17:14:16.587Z</time></trkpt><trkpt lat="42.6528367" lon="12.7002091"><ele>774.4</ele><time>2026-04-10T17:14:17.58Z</time></trkpt><trkpt lat="42.6528571" lon="12.7000689"><ele>777.2</ele><time>2026-04-10T17:14:18.584Z</time></trkpt><trkpt lat="42.6528672" lon="12.6999239"><ele>780.0</ele><time>2026-04-10T17:14:19.583Z</time></trkpt><trkpt lat="42.6528504" lon="12.6997776"><ele>780.0</ele><time>2026-04-10T17:14:20.577Z</time></trkpt><trkpt lat="42.6528108" lon="12.6996349"><ele>780.0</ele><time>2026-04-10T17:14:21.584Z</time></trkpt><trkpt lat="42.6527531" lon="12.6995055"><ele>780.0</ele><time>2026-04-10T17:14:22.58Z</time></trkpt><trkpt lat="42.6526724" lon="12.6993786"><ele>780.0</ele><time>2026-04-10T17:14:23.583Z</time></trkpt><trkpt lat="42.6526129" lon="12.6992394"><ele>778.5</ele><time>2026-04-10T17:14:24.595Z</time></trkpt><trkpt lat="42.6526011" lon="12.6990905"><ele>777.0</ele><time>2026-04-10T17:14:25.585Z</time></trkpt><trkpt lat="42.6526327" lon="12.698945"><ele>775.5</ele><time>2026-04-10T17:14:26.585Z</time></trkpt><trkpt lat="42.6526728" lon="12.6987853"><ele>774.0</ele><time>2026-04-10T17:14:27.579Z</time></trkpt><trkpt lat="42.6527343" lon="12.6986191"><ele>774.5</ele><time>2026-04-10T17:14:28.576Z</time></trkpt><trkpt lat="42.6527824" lon="12.6984416"><ele>775.0</ele><time>2026-04-10T17:14:29.568Z</time></trkpt><trkpt lat="42.6528281" lon="12.6982511"><ele>775.5</ele><time>2026-04-10T17:14:30.569Z</time></trkpt><trkpt lat="42.6528667" lon="12.6980649"><ele>776.0</ele><time>2026-04-10T17:14:31.592Z</time></trkpt><trkpt lat="42.6528878" lon="12.6978713"><ele>777.75</ele><time>2026-04-10T17:14:32.57Z</time></trkpt><trkpt lat="42.6528864" lon="12.6976948"><ele>779.5</ele><time>2026-04-10T17:14:33.569Z</time></trkpt><trkpt lat="42.6528955" lon="12.6975253"><ele>781.25</ele><time>2026-04-10T17:14:34.573Z</time></trkpt><trkpt lat="42.6529431" lon="12.6973636"><ele>783.0</ele><time>2026-04-10T17:14:35.575Z</time></trkpt><trkpt lat="42.6529913" lon="12.6972058"><ele>783.0</ele><time>2026-04-10T17:14:36.575Z</time></trkpt><trkpt lat="42.653038" lon="12.6970579"><ele>783.0</ele><time>2026-04-10T17:14:37.576Z</time></trkpt><trkpt lat="42.6531262" lon="12.6968928"><ele>783.0</ele><time>2026-04-10T17:14:38.58Z</time></trkpt><trkpt lat="42.6532228" lon="12.696721"><ele>783.0</ele><time>2026-04-10T17:14:39.584Z</time></trkpt><trkpt lat="42.6533138" lon="12.6965848"><ele>782.75</ele><time>2026-04-10T17:14:40.588Z</time></trkpt><trkpt lat="42.6534175" lon="12.696454"><ele>782.5</ele><time>2026-04-10T17:14:41.593Z</time></trkpt><trkpt lat="42.6535208" lon="12.6963422"><ele>782.25</ele><time>2026-04-10T17:14:42.581Z</time></trkpt><trkpt lat="42.6535674" lon="12.6962048"><ele>782.0</ele><time>2026-04-10T17:14:43.586Z</time></trkpt><trkpt lat="42.6536034" lon="12.6960406"><ele>783.75</ele><time>2026-04-10T17:14:44.584Z</time></trkpt><trkpt lat="42.6536389" lon="12.6958895"><ele>785.5</ele><time>2026-04-10T17:14:45.583Z</time></trkpt><trkpt lat="42.6536744" lon="12.6957296"><ele>787.25</ele><time>2026-04-10T17:14:46.577Z</time></trkpt><trkpt lat="42.6536962" lon="12.6955659"><ele>789.0</ele><time>2026-04-10T17:14:47.584Z</time></trkpt><trkpt lat="42.6536969" lon="12.6953925"><ele>787.25</ele><time>2026-04-10T17:14:48.652Z</time></trkpt><trkpt lat="42.6536839" lon="12.6951882"><ele>785.5</ele><time>2026-04-10T17:14:49.665Z</time></trkpt><trkpt lat="42.6536599" lon="12.6950128"><ele>783.75</ele><time>2026-04-10T17:14:50.679Z</time></trkpt><trkpt lat="42.6536339" lon="12.6948566"><ele>782.0</ele><time>2026-04-10T17:14:51.677Z</time></trkpt><trkpt lat="42.6536077" lon="12.6947019"><ele>782.0</ele><time>2026-04-10T17:14:52.687Z</time></trkpt><trkpt lat="42.6535404" lon="12.6945331"><ele>782.0</ele><time>2026-04-10T17:14:53.686Z</time></trkpt><trkpt lat="42.6535343" lon="12.6943824"><ele>782.0</ele><time>2026-04-10T17:14:54.677Z</time></trkpt><trkpt lat="42.6535251" lon="12.6942225"><ele>782.0</ele><time>2026-04-10T17:14:55.681Z</time></trkpt><trkpt lat="42.6535341" lon="12.6940768"><ele>782.5</ele><time>2026-04-10T17:14:56.667Z</time></trkpt><trkpt lat="42.6535559" lon="12.6939427"><ele>783.0</ele><time>2026-04-10T17:14:57.666Z</time></trkpt><trkpt lat="42.6535816" lon="12.6938313"><ele>783.5</ele><time>2026-04-10T17:14:58.653Z</time></trkpt><trkpt lat="42.6536082" lon="12.6937153"><ele>784.0</ele><time>2026-04-10T17:14:59.657Z</time></trkpt><trkpt lat="42.6536435" lon="12.6934489"><ele>786.0</ele><time>2026-04-10T17:15:01.658Z</time></trkpt><trkpt lat="42.6536631" lon="12.6933634"><ele>788.0</ele><time>2026-04-10T17:15:02.671Z</time></trkpt><trkpt lat="42.6537069" lon="12.6932881"><ele>790.0</ele><time>2026-04-10T17:15:03.664Z</time></trkpt><trkpt lat="42.6537586" lon="12.6932065"><ele>792.0</ele><time>2026-04-10T17:15:04.663Z</time></trkpt><trkpt lat="42.6538232" lon="12.6931621"><ele>794.0</ele><time>2026-04-10T17:15:05.667Z</time></trkpt><trkpt lat="42.6538988" lon="12.6931725"><ele>796.0</ele><time>2026-04-10T17:15:06.664Z</time></trkpt><trkpt lat="42.6539678" lon="12.6932374"><ele>798.0</ele><time>2026-04-10T17:15:07.66Z</time></trkpt><trkpt lat="42.654055" lon="12.6933337"><ele>798.0</ele><time>2026-04-10T17:15:09.651Z</time></trkpt><trkpt lat="42.6541449" lon="12.6934026"><ele>798.0</ele><time>2026-04-10T17:15:10.663Z</time></trkpt><trkpt lat="42.6542261" lon="12.6934538"><ele>798.0</ele><time>2026-04-10T17:15:11.67Z</time></trkpt><trkpt lat="42.6542828" lon="12.6935104"><ele>798.0</ele><time>2026-04-10T17:15:12.589Z</time></trkpt><trkpt lat="42.6543483" lon="12.6934787"><ele>798.0</ele><time>2026-04-10T17:15:13.589Z</time></trkpt><trkpt lat="42.654418" lon="12.6933735"><ele>798.0</ele><time>2026-04-10T17:15:14.587Z</time></trkpt><trkpt lat="42.6544547" lon="12.693227"><ele>796.5999999999999</ele><time>2026-04-10T17:15:15.582Z</time></trkpt><trkpt lat="42.6544837" lon="12.6930739"><ele>795.1999999999999</ele><time>2026-04-10T17:15:16.58Z</time></trkpt><trkpt lat="42.6544931" lon="12.692921"><ele>793.8</ele><time>2026-04-10T17:15:17.575Z</time></trkpt><trkpt lat="42.6544833" lon="12.6927889"><ele>792.4</ele><time>2026-04-10T17:15:18.581Z</time></trkpt><trkpt lat="42.6544428" lon="12.692669"><ele>791.0</ele><time>2026-04-10T17:15:19.572Z</time></trkpt><trkpt lat="42.6544012" lon="12.6925789"><ele>794.1999999999999</ele><time>2026-04-10T17:15:20.565Z</time></trkpt><trkpt lat="42.6543268" lon="12.6924722"><ele>797.4</ele><time>2026-04-10T17:15:21.585Z</time></trkpt><trkpt lat="42.6542819" lon="12.6923767"><ele>800.6</ele><time>2026-04-10T17:15:22.585Z</time></trkpt><trkpt lat="42.6543171" lon="12.6922099"><ele>803.8</ele><time>2026-04-10T17:15:24.599Z</time></trkpt><trkpt lat="42.6543717" lon="12.6921175"><ele>807.0</ele><time>2026-04-10T17:15:25.585Z</time></trkpt><trkpt lat="42.6544787" lon="12.6919455"><ele>809.3333333333334</ele><time>2026-04-10T17:15:27.585Z</time></trkpt><trkpt lat="42.6545272" lon="12.6918587"><ele>811.6666666666667</ele><time>2026-04-10T17:15:28.59Z</time></trkpt><trkpt lat="42.6545498" lon="12.6917681"><ele>814.0</ele><time>2026-04-10T17:15:29.586Z</time></trkpt><trkpt lat="42.6545514" lon="12.6916757"><ele>816.3333333333334</ele><time>2026-04-10T17:15:30.582Z</time></trkpt><trkpt lat="42.6545155" lon="12.69152"><ele>818.6666666666667</ele><time>2026-04-10T17:15:32.576Z</time></trkpt><trkpt lat="42.6544862" lon="12.691387"><ele>821.0</ele><time>2026-04-10T17:15:34.574Z</time></trkpt><trkpt lat="42.6544872" lon="12.691283"><ele>821.0000000000001</ele><time>2026-04-10T17:15:37.571Z</time></trkpt><trkpt lat="42.6545561" lon="12.6912654"><ele>821.0</ele><time>2026-04-10T17:15:39.574Z</time></trkpt><trkpt lat="42.6546592" lon="12.6912983"><ele>821.0</ele><time>2026-04-10T17:15:41.569Z</time></trkpt><trkpt lat="42.6547281" lon="12.6913305"><ele>821.0</ele><time>2026-04-10T17:15:48.58Z</time></trkpt><trkpt lat="42.6547979" lon="12.6913469"><ele>821.0000000000001</ele><time>2026-04-10T17:15:50.583Z</time></trkpt><trkpt lat="42.6548758" lon="12.6913671"><ele>821.0</ele><time>2026-04-10T17:15:51.564Z</time></trkpt><trkpt lat="42.6549749" lon="12.6913896"><ele>821.0</ele><time>2026-04-10T17:15:52.564Z</time></trkpt><trkpt lat="42.6550992" lon="12.6914332"><ele>821.0</ele><time>2026-04-10T17:15:53.568Z</time></trkpt><trkpt lat="42.6552142" lon="12.6914725"><ele>821.0</ele><time>2026-04-10T17:15:54.571Z</time></trkpt><trkpt lat="42.6553236" lon="12.6915039"><ele>821.0</ele><time>2026-04-10T17:15:55.579Z</time></trkpt><trkpt lat="42.6554161" lon="12.6915268"><ele>819.8333333333334</ele><time>2026-04-10T17:15:56.569Z</time></trkpt><trkpt lat="42.655493" lon="12.6915559"><ele>818.6666666666667</ele><time>2026-04-10T17:15:57.561Z</time></trkpt><trkpt lat="42.6555728" lon="12.6915771"><ele>817.5</ele><time>2026-04-10T17:15:58.563Z</time></trkpt><trkpt lat="42.6556545" lon="12.6916183"><ele>816.3333333333333</ele><time>2026-04-10T17:15:59.571Z</time></trkpt><trkpt lat="42.6557237" lon="12.6916517"><ele>815.1666666666666</ele><time>2026-04-10T17:16:00.578Z</time></trkpt><trkpt lat="42.6558024" lon="12.691743"><ele>814.0</ele><time>2026-04-10T17:16:02.593Z</time></trkpt><trkpt lat="42.6558318" lon="12.6918193"><ele>814.0</ele><time>2026-04-10T17:16:05.59Z</time></trkpt><trkpt lat="42.6557783" lon="12.6917495"><ele>814.0</ele><time>2026-04-10T17:16:12.592Z</time></trkpt><trkpt lat="42.6557342" lon="12.691643"><ele>814.0</ele><time>2026-04-10T17:16:14.583Z</time></trkpt><trkpt lat="42.6556274" lon="12.6915894"><ele>814.0</ele><time>2026-04-10T17:16:16.588Z</time></trkpt><trkpt lat="42.6555466" lon="12.6915924"><ele>814.0</ele><time>2026-04-10T17:16:17.589Z</time></trkpt><trkpt lat="42.655455" lon="12.6915792"><ele>813.9999999999999</ele><time>2026-04-10T17:16:18.579Z</time></trkpt><trkpt lat="42.6553645" lon="12.691548"><ele>814.0</ele><time>2026-04-10T17:16:19.583Z</time></trkpt><trkpt lat="42.6552856" lon="12.6915164"><ele>814.0</ele><time>2026-04-10T17:16:20.579Z</time></trkpt><trkpt lat="42.6552019" lon="12.6914832"><ele>814.0</ele><time>2026-04-10T17:16:21.565Z</time></trkpt><trkpt lat="42.6551209" lon="12.6914553"><ele>813.9999999999999</ele><time>2026-04-10T17:16:22.57Z</time></trkpt><trkpt lat="42.6550454" lon="12.6914271"><ele>814.0</ele><time>2026-04-10T17:16:23.569Z</time></trkpt><trkpt lat="42.6549749" lon="12.6914159"><ele>813.6</ele><time>2026-04-10T17:16:24.568Z</time></trkpt><trkpt lat="42.6549067" lon="12.691393"><ele>813.2</ele><time>2026-04-10T17:16:25.571Z</time></trkpt><trkpt lat="42.6548075" lon="12.6913553"><ele>812.8000000000001</ele><time>2026-04-10T17:16:27.572Z</time></trkpt><trkpt lat="42.6547222" lon="12.6913034"><ele>812.4000000000001</ele><time>2026-04-10T17:16:30.583Z</time></trkpt><trkpt lat="42.6547311" lon="12.6912036"><ele>812.0</ele><time>2026-04-10T17:16:32.576Z</time></trkpt><trkpt lat="42.6547574" lon="12.6910392"><ele>812.0000000000001</ele><time>2026-04-10T17:16:34.574Z</time></trkpt><trkpt lat="42.6547713" lon="12.6909353"><ele>812.0</ele><time>2026-04-10T17:16:35.58Z</time></trkpt><trkpt lat="42.6547921" lon="12.6908254"><ele>812.0</ele><time>2026-04-10T17:16:36.576Z</time></trkpt><trkpt lat="42.6548121" lon="12.6907201"><ele>812.0</ele><time>2026-04-10T17:16:37.586Z</time></trkpt><trkpt lat="42.6548197" lon="12.6906103"><ele>812.0000000000001</ele><time>2026-04-10T17:16:38.584Z</time></trkpt><trkpt lat="42.6548205" lon="12.6905089"><ele>812.0</ele><time>2026-04-10T17:16:39.58Z</time></trkpt><trkpt lat="42.6548188" lon="12.6903846"><ele>812.0000000000001</ele><time>2026-04-10T17:16:41.583Z</time></trkpt><trkpt lat="42.6548374" lon="12.6902832"><ele>812.0</ele><time>2026-04-10T17:16:56.591Z</time></trkpt><trkpt lat="42.6548615" lon="12.6901827"><ele>812.0</ele><time>2026-04-10T17:16:58.597Z</time></trkpt><trkpt lat="42.6549118" lon="12.6901045"><ele>812.0</ele><time>2026-04-10T17:17:00.586Z</time></trkpt><trkpt lat="42.6549971" lon="12.6900528"><ele>812.0000000000001</ele><time>2026-04-10T17:17:02.594Z</time></trkpt><trkpt lat="42.6550798" lon="12.6899845"><ele>812.0</ele><time>2026-04-10T17:17:04.592Z</time></trkpt><trkpt lat="42.6551221" lon="12.6899166"><ele>810.1666666666667</ele><time>2026-04-10T17:17:07.598Z</time></trkpt><trkpt lat="42.6550653" lon="12.6898444"><ele>808.3333333333334</ele><time>2026-04-10T17:17:09.598Z</time></trkpt><trkpt lat="42.6550037" lon="12.6898228"><ele>806.5</ele><time>2026-04-10T17:17:10.599Z</time></trkpt><trkpt lat="42.6549358" lon="12.6898117"><ele>804.6666666666667</ele><time>2026-04-10T17:17:11.59Z</time></trkpt><trkpt lat="42.6548461" lon="12.689782"><ele>802.8333333333334</ele><time>2026-04-10T17:17:13.585Z</time></trkpt><trkpt lat="42.6548257" lon="12.6897004"><ele>801.0</ele><time>2026-04-10T17:17:15.593Z</time></trkpt><trkpt lat="42.6548799" lon="12.6895984"><ele>801.0</ele><time>2026-04-10T17:17:17.596Z</time></trkpt><trkpt lat="42.6549386" lon="12.6895647"><ele>801.0</ele><time>2026-04-10T17:17:18.586Z</time></trkpt><trkpt lat="42.6549987" lon="12.6895325"><ele>801.0</ele><time>2026-04-10T17:17:19.583Z</time></trkpt><trkpt lat="42.655138" lon="12.6895074"><ele>801.0</ele><time>2026-04-10T17:17:21.581Z</time></trkpt><trkpt lat="42.655224" lon="12.6894816"><ele>801.0</ele><time>2026-04-10T17:17:22.584Z</time></trkpt><trkpt lat="42.6553107" lon="12.6894372"><ele>800.8333333333334</ele><time>2026-04-10T17:17:23.578Z</time></trkpt><trkpt lat="42.6554013" lon="12.6893815"><ele>800.6666666666667</ele><time>2026-04-10T17:17:24.584Z</time></trkpt><trkpt lat="42.6554859" lon="12.6893284"><ele>800.5</ele><time>2026-04-10T17:17:25.585Z</time></trkpt><trkpt lat="42.6555536" lon="12.6892759"><ele>800.3333333333334</ele><time>2026-04-10T17:17:26.583Z</time></trkpt><trkpt lat="42.6556096" lon="12.689225"><ele>800.1666666666667</ele><time>2026-04-10T17:17:27.581Z</time></trkpt><trkpt lat="42.6556647" lon="12.6891554"><ele>800.0</ele><time>2026-04-10T17:17:28.596Z</time></trkpt><trkpt lat="42.6557021" lon="12.6889724"><ele>800.0000000000001</ele><time>2026-04-10T17:17:30.585Z</time></trkpt><trkpt lat="42.6557052" lon="12.688886"><ele>800.0</ele><time>2026-04-10T17:17:31.579Z</time></trkpt><trkpt lat="42.6556979" lon="12.6887815"><ele>800.0</ele><time>2026-04-10T17:17:32.572Z</time></trkpt><trkpt lat="42.6556569" lon="12.6886916"><ele>800.0</ele><time>2026-04-10T17:17:33.569Z</time></trkpt><trkpt lat="42.6555788" lon="12.6885766"><ele>800.0000000000001</ele><time>2026-04-10T17:17:35.574Z</time></trkpt><trkpt lat="42.6555365" lon="12.6884398"><ele>800.0</ele><time>2026-04-10T17:17:37.576Z</time></trkpt><trkpt lat="42.6555964" lon="12.6883351"><ele>802.2</ele><time>2026-04-10T17:17:39.575Z</time></trkpt><trkpt lat="42.6556994" lon="12.6882346"><ele>804.4</ele><time>2026-04-10T17:17:41.577Z</time></trkpt><trkpt lat="42.6557952" lon="12.6882136"><ele>806.5999999999999</ele><time>2026-04-10T17:17:42.578Z</time></trkpt><trkpt lat="42.6558936" lon="12.6881862"><ele>808.8</ele><time>2026-04-10T17:17:43.582Z</time></trkpt><trkpt lat="42.6559889" lon="12.6881803"><ele>811.0</ele><time>2026-04-10T17:17:44.583Z</time></trkpt><trkpt lat="42.6560804" lon="12.6881899"><ele>810.6666666666666</ele><time>2026-04-10T17:17:45.588Z</time></trkpt><trkpt lat="42.6561519" lon="12.6881933"><ele>810.3333333333333</ele><time>2026-04-10T17:17:46.586Z</time></trkpt><trkpt lat="42.6562275" lon="12.6881943"><ele>810.0</ele><time>2026-04-10T17:17:47.59Z</time></trkpt><trkpt lat="42.6563003" lon="12.6881908"><ele>809.6666666666667</ele><time>2026-04-10T17:17:48.59Z</time></trkpt><trkpt lat="42.6563962" lon="12.6881286"><ele>809.3333333333334</ele><time>2026-04-10T17:17:50.592Z</time></trkpt><trkpt lat="42.6564828" lon="12.6881261"><ele>809.0</ele><time>2026-04-10T17:18:00.606Z</time></trkpt><trkpt lat="42.6565553" lon="12.6882125"><ele>809.0000000000001</ele><time>2026-04-10T17:18:02.597Z</time></trkpt><trkpt lat="42.6565856" lon="12.6882894"><ele>809.0</ele><time>2026-04-10T17:18:03.592Z</time></trkpt><trkpt lat="42.6566069" lon="12.6883772"><ele>809.0</ele><time>2026-04-10T17:18:04.585Z</time></trkpt><trkpt lat="42.6566202" lon="12.6884869"><ele>809.0</ele><time>2026-04-10T17:18:05.591Z</time></trkpt><trkpt lat="42.6566216" lon="12.6886081"><ele>809.0000000000001</ele><time>2026-04-10T17:18:06.596Z</time></trkpt><trkpt lat="42.6566276" lon="12.6887273"><ele>809.0</ele><time>2026-04-10T17:18:07.6Z</time></trkpt><trkpt lat="42.6566449" lon="12.6888524"><ele>807.3333333333334</ele><time>2026-04-10T17:18:08.599Z</time></trkpt><trkpt lat="42.6566712" lon="12.6889676"><ele>805.6666666666667</ele><time>2026-04-10T17:18:09.593Z</time></trkpt><trkpt lat="42.6567082" lon="12.6890732"><ele>804.0</ele><time>2026-04-10T17:18:10.588Z</time></trkpt><trkpt lat="42.6567534" lon="12.6891533"><ele>802.3333333333333</ele><time>2026-04-10T17:18:11.592Z</time></trkpt><trkpt lat="42.6567894" lon="12.68923"><ele>800.6666666666666</ele><time>2026-04-10T17:18:12.596Z</time></trkpt><trkpt lat="42.656824" lon="12.6893143"><ele>799.0</ele><time>2026-04-10T17:18:13.59Z</time></trkpt><trkpt lat="42.6568546" lon="12.6894067"><ele>798.9999999999999</ele><time>2026-04-10T17:18:14.588Z</time></trkpt><trkpt lat="42.6568912" lon="12.6895007"><ele>799.0</ele><time>2026-04-10T17:18:15.589Z</time></trkpt><trkpt lat="42.6569317" lon="12.6895813"><ele>799.0</ele><time>2026-04-10T17:18:16.589Z</time></trkpt><trkpt lat="42.6569852" lon="12.6896673"><ele>799.0</ele><time>2026-04-10T17:18:17.588Z</time></trkpt><trkpt lat="42.6570235" lon="12.6897697"><ele>798.9999999999999</ele><time>2026-04-10T17:18:18.585Z</time></trkpt><trkpt lat="42.6570479" lon="12.6898806"><ele>799.0</ele><time>2026-04-10T17:18:19.584Z</time></trkpt><trkpt lat="42.6570722" lon="12.6899943"><ele>798.9999999999999</ele><time>2026-04-10T17:18:20.586Z</time></trkpt><trkpt lat="42.6570904" lon="12.6901131"><ele>799.0</ele><time>2026-04-10T17:18:21.58Z</time></trkpt><trkpt lat="42.6570893" lon="12.6902278"><ele>799.0</ele><time>2026-04-10T17:18:22.569Z</time></trkpt><trkpt lat="42.6570655" lon="12.6903377"><ele>799.0</ele><time>2026-04-10T17:18:23.565Z</time></trkpt><trkpt lat="42.657007" lon="12.6904292"><ele>798.9999999999999</ele><time>2026-04-10T17:18:24.578Z</time></trkpt><trkpt lat="42.6569336" lon="12.6904714"><ele>799.0</ele><time>2026-04-10T17:18:25.576Z</time></trkpt><trkpt lat="42.65685" lon="12.6904924"><ele>797.4000000000001</ele><time>2026-04-10T17:18:26.573Z</time></trkpt><trkpt lat="42.6567753" lon="12.690514"><ele>795.8</ele><time>2026-04-10T17:18:27.571Z</time></trkpt><trkpt lat="42.6567129" lon="12.6905591"><ele>794.2</ele><time>2026-04-10T17:18:28.576Z</time></trkpt><trkpt lat="42.6566903" lon="12.6906553"><ele>792.5999999999999</ele><time>2026-04-10T17:18:30.582Z</time></trkpt><trkpt lat="42.6567822" lon="12.6908249"><ele>791.0</ele><time>2026-04-10T17:18:32.573Z</time></trkpt><trkpt lat="42.6568301" lon="12.6909231"><ele>791.0</ele><time>2026-04-10T17:18:33.582Z</time></trkpt><trkpt lat="42.6568592" lon="12.6910257"><ele>791.0</ele><time>2026-04-10T17:18:34.581Z</time></trkpt><trkpt lat="42.6568862" lon="12.6911467"><ele>791.0</ele><time>2026-04-10T17:18:35.581Z</time></trkpt><trkpt lat="42.6569181" lon="12.6912681"><ele>791.0</ele><time>2026-04-10T17:18:36.581Z</time></trkpt><trkpt lat="42.6569505" lon="12.6913947"><ele>791.0</ele><time>2026-04-10T17:18:37.58Z</time></trkpt><trkpt lat="42.6569711" lon="12.6915181"><ele>789.3333333333334</ele><time>2026-04-10T17:18:38.577Z</time></trkpt><trkpt lat="42.6569991" lon="12.6916365"><ele>787.6666666666667</ele><time>2026-04-10T17:18:39.581Z</time></trkpt><trkpt lat="42.6570126" lon="12.6917362"><ele>786.0</ele><time>2026-04-10T17:18:40.582Z</time></trkpt><trkpt lat="42.6570142" lon="12.6918264"><ele>784.3333333333333</ele><time>2026-04-10T17:18:41.586Z</time></trkpt><trkpt lat="42.6569914" lon="12.6919129"><ele>782.6666666666666</ele><time>2026-04-10T17:18:42.589Z</time></trkpt><trkpt lat="42.6569691" lon="12.6920577"><ele>781.0</ele><time>2026-04-10T17:18:44.578Z</time></trkpt><trkpt lat="42.6570036" lon="12.6921584"><ele>780.8</ele><time>2026-04-10T17:18:46.584Z</time></trkpt><trkpt lat="42.6570619" lon="12.6922359"><ele>780.5999999999999</ele><time>2026-04-10T17:18:48.577Z</time></trkpt><trkpt lat="42.6571995" lon="12.6922815"><ele>780.4</ele><time>2026-04-10T17:18:50.581Z</time></trkpt><trkpt lat="42.6572876" lon="12.6922856"><ele>780.2</ele><time>2026-04-10T17:18:51.579Z</time></trkpt><trkpt lat="42.6574051" lon="12.6923183"><ele>780.0</ele><time>2026-04-10T17:18:52.584Z</time></trkpt><trkpt lat="42.6575228" lon="12.692347"><ele>780.0</ele><time>2026-04-10T17:18:53.589Z</time></trkpt><trkpt lat="42.6576516" lon="12.6923614"><ele>780.0</ele><time>2026-04-10T17:18:54.587Z</time></trkpt><trkpt lat="42.6577724" lon="12.692345"><ele>780.0</ele><time>2026-04-10T17:18:55.591Z</time></trkpt><trkpt lat="42.6579013" lon="12.6923344"><ele>780.0</ele><time>2026-04-10T17:18:56.591Z</time></trkpt><trkpt lat="42.6580285" lon="12.6923616"><ele>782.0</ele><time>2026-04-10T17:18:57.588Z</time></trkpt><trkpt lat="42.6581443" lon="12.6923795"><ele>784.0</ele><time>2026-04-10T17:18:58.581Z</time></trkpt><trkpt lat="42.6582559" lon="12.6924203"><ele>786.0</ele><time>2026-04-10T17:18:59.588Z</time></trkpt><trkpt lat="42.6583374" lon="12.6925089"><ele>788.0</ele><time>2026-04-10T17:19:00.58Z</time></trkpt><trkpt lat="42.6584119" lon="12.6926579"><ele>785.3333333333334</ele><time>2026-04-10T17:19:01.583Z</time></trkpt><trkpt lat="42.6585028" lon="12.6928242"><ele>782.6666666666667</ele><time>2026-04-10T17:19:02.568Z</time></trkpt><trkpt lat="42.6586008" lon="12.6930007"><ele>780.0</ele><time>2026-04-10T17:19:03.578Z</time></trkpt><trkpt lat="42.6586844" lon="12.6932011"><ele>783.6666666666667</ele><time>2026-04-10T17:19:04.583Z</time></trkpt><trkpt lat="42.6587681" lon="12.6933656"><ele>787.3333333333334</ele><time>2026-04-10T17:19:05.583Z</time></trkpt><trkpt lat="42.6588585" lon="12.6935053"><ele>791.0</ele><time>2026-04-10T17:19:06.582Z</time></trkpt><trkpt lat="42.659" lon="12.693663"><ele>791.0</ele><time>2026-04-10T17:19:07.576Z</time></trkpt><trkpt lat="42.6590456" lon="12.6937363"><ele>791.0</ele><time>2026-04-10T17:19:08.564Z</time></trkpt><trkpt lat="42.6591724" lon="12.6937392"><ele>791.0</ele><time>2026-04-10T17:19:10.576Z</time></trkpt><trkpt lat="42.6592387" lon="12.6937133"><ele>791.0</ele><time>2026-04-10T17:19:11.58Z</time></trkpt><trkpt lat="42.6593483" lon="12.693666"><ele>791.0</ele><time>2026-04-10T17:19:13.59Z</time></trkpt><trkpt lat="42.6594217" lon="12.6936461"><ele>792.1428571428571</ele><time>2026-04-10T17:19:14.594Z</time></trkpt><trkpt lat="42.6594911" lon="12.6936146"><ele>793.2857142857142</ele><time>2026-04-10T17:19:15.587Z</time></trkpt><trkpt lat="42.6595599" lon="12.6935772"><ele>794.4285714285714</ele><time>2026-04-10T17:19:16.589Z</time></trkpt><trkpt lat="42.6596273" lon="12.6935515"><ele>795.5714285714286</ele><time>2026-04-10T17:19:17.59Z</time></trkpt><trkpt lat="42.6596924" lon="12.6935271"><ele>796.7142857142857</ele><time>2026-04-10T17:19:18.585Z</time></trkpt><trkpt lat="42.6597565" lon="12.693485"><ele>797.8571428571429</ele><time>2026-04-10T17:19:19.591Z</time></trkpt><trkpt lat="42.6598371" lon="12.6934401"><ele>799.0</ele><time>2026-04-10T17:19:20.592Z</time></trkpt><trkpt lat="42.659917" lon="12.6933628"><ele>799.0</ele><time>2026-04-10T17:19:21.587Z</time></trkpt><trkpt lat="42.659999" lon="12.6932681"><ele>799.0</ele><time>2026-04-10T17:19:22.587Z</time></trkpt><trkpt lat="42.6600656" lon="12.6931775"><ele>799.0</ele><time>2026-04-10T17:19:23.59Z</time></trkpt><trkpt lat="42.6601321" lon="12.6931015"><ele>799.0</ele><time>2026-04-10T17:19:24.586Z</time></trkpt><trkpt lat="42.6601928" lon="12.6930532"><ele>799.0</ele><time>2026-04-10T17:19:25.582Z</time></trkpt><trkpt lat="42.660319" lon="12.6931283"><ele>801.0</ele><time>2026-04-10T17:19:27.581Z</time></trkpt><trkpt lat="42.6603896" lon="12.693237"><ele>803.0</ele><time>2026-04-10T17:19:28.594Z</time></trkpt><trkpt lat="42.6604657" lon="12.6933328"><ele>805.0</ele><time>2026-04-10T17:19:29.584Z</time></trkpt><trkpt lat="42.6605451" lon="12.6934116"><ele>807.0</ele><time>2026-04-10T17:19:30.578Z</time></trkpt><trkpt lat="42.6606264" lon="12.6934884"><ele>809.0</ele><time>2026-04-10T17:19:31.588Z</time></trkpt><trkpt lat="42.6607069" lon="12.6935631"><ele>802.6</ele><time>2026-04-10T17:19:32.594Z</time></trkpt><trkpt lat="42.6607773" lon="12.6936358"><ele>796.2</ele><time>2026-04-10T17:19:33.592Z</time></trkpt><trkpt lat="42.660852" lon="12.6937265"><ele>789.8000000000001</ele><time>2026-04-10T17:19:34.593Z</time></trkpt><trkpt lat="42.660925" lon="12.6938135"><ele>783.4000000000001</ele><time>2026-04-10T17:19:35.588Z</time></trkpt><trkpt lat="42.6610027" lon="12.693873"><ele>777.0</ele><time>2026-04-10T17:19:36.585Z</time></trkpt><trkpt lat="42.6610897" lon="12.6939196"><ele>779.2</ele><time>2026-04-10T17:19:37.582Z</time></trkpt><trkpt lat="42.6611999" lon="12.6939467"><ele>781.4000000000001</ele><time>2026-04-10T17:19:38.587Z</time></trkpt><trkpt lat="42.6612961" lon="12.6939809"><ele>783.5999999999999</ele><time>2026-04-10T17:19:39.584Z</time></trkpt><trkpt lat="42.661409" lon="12.6940032"><ele>785.8</ele><time>2026-04-10T17:19:40.581Z</time></trkpt><trkpt lat="42.6615242" lon="12.6940116"><ele>788.0</ele><time>2026-04-10T17:19:41.576Z</time></trkpt><trkpt lat="42.6616538" lon="12.6940088"><ele>788.0</ele><time>2026-04-10T17:19:42.584Z</time></trkpt><trkpt lat="42.6617811" lon="12.6939991"><ele>788.0</ele><time>2026-04-10T17:19:43.585Z</time></trkpt><trkpt lat="42.6618983" lon="12.6939976"><ele>788.0</ele><time>2026-04-10T17:19:44.584Z</time></trkpt><trkpt lat="42.6620102" lon="12.6939959"><ele>788.0</ele><time>2026-04-10T17:19:45.581Z</time></trkpt><trkpt lat="42.6621154" lon="12.6939858"><ele>787.5999999999999</ele><time>2026-04-10T17:19:46.586Z</time></trkpt><trkpt lat="42.6622169" lon="12.6939571"><ele>787.1999999999999</ele><time>2026-04-10T17:19:47.584Z</time></trkpt><trkpt lat="42.6623074" lon="12.6938971"><ele>786.8</ele><time>2026-04-10T17:19:48.58Z</time></trkpt><trkpt lat="42.6623849" lon="12.6938201"><ele>786.4</ele><time>2026-04-10T17:19:49.579Z</time></trkpt><trkpt lat="42.6624606" lon="12.6937197"><ele>786.0</ele><time>2026-04-10T17:19:50.577Z</time></trkpt><trkpt lat="42.6625247" lon="12.6936006"><ele>787.8</ele><time>2026-04-10T17:19:51.578Z</time></trkpt><trkpt lat="42.6625577" lon="12.6934388"><ele>789.5999999999999</ele><time>2026-04-10T17:19:52.574Z</time></trkpt><trkpt lat="42.6625842" lon="12.6933055"><ele>791.4</ele><time>2026-04-10T17:19:53.576Z</time></trkpt><trkpt lat="42.6626036" lon="12.6931873"><ele>793.2</ele><time>2026-04-10T17:19:54.575Z</time></trkpt><trkpt lat="42.6626131" lon="12.6930651"><ele>795.0</ele><time>2026-04-10T17:19:55.57Z</time></trkpt><trkpt lat="42.6626135" lon="12.6929521"><ele>795.0</ele><time>2026-04-10T17:19:56.57Z</time></trkpt><trkpt lat="42.6626191" lon="12.6928556"><ele>795.0</ele><time>2026-04-10T17:19:57.567Z</time></trkpt><trkpt lat="42.6626454" lon="12.6927204"><ele>795.0</ele><time>2026-04-10T17:19:59.57Z</time></trkpt><trkpt lat="42.6627571" lon="12.6928018"><ele>795.0</ele><time>2026-04-10T17:20:01.593Z</time></trkpt><trkpt lat="42.6628134" lon="12.6929072"><ele>795.0</ele><time>2026-04-10T17:20:02.58Z</time></trkpt><trkpt lat="42.6628635" lon="12.6930332"><ele>796.5</ele><time>2026-04-10T17:20:03.584Z</time></trkpt><trkpt lat="42.6629166" lon="12.6931806"><ele>798.0</ele><time>2026-04-10T17:20:04.579Z</time></trkpt><trkpt lat="42.6629283" lon="12.6933283"><ele>799.5</ele><time>2026-04-10T17:20:05.569Z</time></trkpt><trkpt lat="42.6629119" lon="12.6934823"><ele>801.0</ele><time>2026-04-10T17:20:06.576Z</time></trkpt><trkpt lat="42.6629002" lon="12.6936505"><ele>801.0</ele><time>2026-04-10T17:20:07.568Z</time></trkpt><trkpt lat="42.662898" lon="12.6938069"><ele>801.0</ele><time>2026-04-10T17:20:08.568Z</time></trkpt><trkpt lat="42.6629228" lon="12.6939339"><ele>801.0</ele><time>2026-04-10T17:20:09.566Z</time></trkpt><trkpt lat="42.662966" lon="12.6940351"><ele>801.0</ele><time>2026-04-10T17:20:10.578Z</time></trkpt><trkpt lat="42.6630346" lon="12.6941185"><ele>801.0</ele><time>2026-04-10T17:20:11.579Z</time></trkpt><trkpt lat="42.6631251" lon="12.6942061"><ele>801.0</ele><time>2026-04-10T17:20:12.583Z</time></trkpt><trkpt lat="42.6632248" lon="12.6943055"><ele>801.0</ele><time>2026-04-10T17:20:13.581Z</time></trkpt><trkpt lat="42.6633316" lon="12.6944025"><ele>801.0</ele><time>2026-04-10T17:20:14.574Z</time></trkpt><trkpt lat="42.6634203" lon="12.6944779"><ele>801.0</ele><time>2026-04-10T17:20:15.568Z</time></trkpt><trkpt lat="42.6635149" lon="12.6945139"><ele>802.1999999999999</ele><time>2026-04-10T17:20:16.572Z</time></trkpt><trkpt lat="42.6636119" lon="12.6945155"><ele>803.4</ele><time>2026-04-10T17:20:17.576Z</time></trkpt><trkpt lat="42.663711" lon="12.694499"><ele>804.6</ele><time>2026-04-10T17:20:18.573Z</time></trkpt><trkpt lat="42.6638059" lon="12.6944648"><ele>805.8</ele><time>2026-04-10T17:20:19.582Z</time></trkpt><trkpt lat="42.6638963" lon="12.6944357"><ele>807.0</ele><time>2026-04-10T17:20:20.583Z</time></trkpt><trkpt lat="42.6640163" lon="12.6944788"><ele>808.8333333333334</ele><time>2026-04-10T17:20:22.573Z</time></trkpt><trkpt lat="42.6640563" lon="12.694548"><ele>810.6666666666667</ele><time>2026-04-10T17:20:23.586Z</time></trkpt><trkpt lat="42.6640908" lon="12.6946458"><ele>812.5</ele><time>2026-04-10T17:20:24.58Z</time></trkpt><trkpt lat="42.664123" lon="12.6947449"><ele>814.3333333333334</ele><time>2026-04-10T17:20:25.579Z</time></trkpt><trkpt lat="42.6642407" lon="12.6948137"><ele>816.1666666666667</ele><time>2026-04-10T17:20:27.588Z</time></trkpt><trkpt lat="42.6643043" lon="12.6948654"><ele>818.0</ele><time>2026-04-10T17:20:28.584Z</time></trkpt><trkpt lat="42.6643548" lon="12.6949358"><ele>818.0</ele><time>2026-04-10T17:20:29.584Z</time></trkpt><trkpt lat="42.6643971" lon="12.6950255"><ele>818.0</ele><time>2026-04-10T17:20:30.587Z</time></trkpt><trkpt lat="42.6644147" lon="12.6951297"><ele>818.0</ele><time>2026-04-10T17:20:31.588Z</time></trkpt><trkpt lat="42.664415" lon="12.6952292"><ele>818.0</ele><time>2026-04-10T17:20:32.583Z</time></trkpt><trkpt lat="42.6644518" lon="12.6953646"><ele>818.0</ele><time>2026-04-10T17:20:34.604Z</time></trkpt><trkpt lat="42.6645876" lon="12.695369"><ele>821.2</ele><time>2026-04-10T17:20:36.587Z</time></trkpt><trkpt lat="42.6646808" lon="12.6953527"><ele>824.4</ele><time>2026-04-10T17:20:37.567Z</time></trkpt><trkpt lat="42.6647789" lon="12.6953423"><ele>827.6</ele><time>2026-04-10T17:20:38.571Z</time></trkpt><trkpt lat="42.6648782" lon="12.6953514"><ele>830.8000000000001</ele><time>2026-04-10T17:20:39.569Z</time></trkpt><trkpt lat="42.6649859" lon="12.6953742"><ele>834.0</ele><time>2026-04-10T17:20:40.569Z</time></trkpt><trkpt lat="42.6651025" lon="12.6954194"><ele>834.0</ele><time>2026-04-10T17:20:41.579Z</time></trkpt><trkpt lat="42.665211" lon="12.6954612"><ele>834.0</ele><time>2026-04-10T17:20:42.58Z</time></trkpt><trkpt lat="42.6652977" lon="12.6954992"><ele>834.0</ele><time>2026-04-10T17:20:43.583Z</time></trkpt><trkpt lat="42.6653665" lon="12.6955262"><ele>834.0</ele><time>2026-04-10T17:20:44.578Z</time></trkpt><trkpt lat="42.6654631" lon="12.6955012"><ele>834.0</ele><time>2026-04-10T17:20:46.571Z</time></trkpt><trkpt lat="42.6655349" lon="12.6953803"><ele>833.3333333333334</ele><time>2026-04-10T17:20:48.582Z</time></trkpt><trkpt lat="42.6655843" lon="12.6953216"><ele>832.6666666666667</ele><time>2026-04-10T17:20:49.585Z</time></trkpt><trkpt lat="42.6656459" lon="12.695266"><ele>832.0</ele><time>2026-04-10T17:20:50.588Z</time></trkpt><trkpt lat="42.6656971" lon="12.6951838"><ele>831.3333333333334</ele><time>2026-04-10T17:20:51.587Z</time></trkpt><trkpt lat="42.6657504" lon="12.6950869"><ele>830.6666666666667</ele><time>2026-04-10T17:20:52.582Z</time></trkpt><trkpt lat="42.6658172" lon="12.694971"><ele>830.0</ele><time>2026-04-10T17:20:53.583Z</time></trkpt><trkpt lat="42.665896" lon="12.6948579"><ele>830.0</ele><time>2026-04-10T17:20:54.584Z</time></trkpt><trkpt lat="42.6659844" lon="12.6947526"><ele>830.0</ele><time>2026-04-10T17:20:55.578Z</time></trkpt><trkpt lat="42.6660773" lon="12.694671"><ele>830.0</ele><time>2026-04-10T17:20:56.571Z</time></trkpt><trkpt lat="42.6661719" lon="12.6946266"><ele>830.0</ele><time>2026-04-10T17:20:57.577Z</time></trkpt><trkpt lat="42.666269" lon="12.6946274"><ele>830.0</ele><time>2026-04-10T17:20:58.584Z</time></trkpt><trkpt lat="42.6663619" lon="12.6946507"><ele>829.6</ele><time>2026-04-10T17:20:59.581Z</time></trkpt><trkpt lat="42.6664538" lon="12.6946603"><ele>829.2</ele><time>2026-04-10T17:21:00.577Z</time></trkpt><trkpt lat="42.6665476" lon="12.6946337"><ele>828.8</ele><time>2026-04-10T17:21:01.583Z</time></trkpt><trkpt lat="42.666648" lon="12.6945775"><ele>828.4</ele><time>2026-04-10T17:21:02.579Z</time></trkpt><trkpt lat="42.6667552" lon="12.6945173"><ele>828.0</ele><time>2026-04-10T17:21:03.585Z</time></trkpt><trkpt lat="42.6668578" lon="12.6944526"><ele>829.5</ele><time>2026-04-10T17:21:04.586Z</time></trkpt><trkpt lat="42.6669614" lon="12.6943694"><ele>831.0</ele><time>2026-04-10T17:21:05.575Z</time></trkpt><trkpt lat="42.6670607" lon="12.6942642"><ele>832.5</ele><time>2026-04-10T17:21:06.588Z</time></trkpt><trkpt lat="42.6671509" lon="12.6941563"><ele>834.0</ele><time>2026-04-10T17:21:07.574Z</time></trkpt><trkpt lat="42.6672303" lon="12.6940676"><ele>834.0</ele><time>2026-04-10T17:21:08.574Z</time></trkpt><trkpt lat="42.6672964" lon="12.6939812"><ele>834.0</ele><time>2026-04-10T17:21:09.581Z</time></trkpt><trkpt lat="42.6673453" lon="12.6938919"><ele>834.0</ele><time>2026-04-10T17:21:10.573Z</time></trkpt><trkpt lat="42.6673742" lon="12.6937923"><ele>834.0</ele><time>2026-04-10T17:21:11.577Z</time></trkpt><trkpt lat="42.6673792" lon="12.6936882"><ele>834.0</ele><time>2026-04-10T17:21:12.574Z</time></trkpt><trkpt lat="42.6673616" lon="12.6935678"><ele>834.0</ele><time>2026-04-10T17:21:13.575Z</time></trkpt><trkpt lat="42.6673277" lon="12.6934402"><ele>835.2</ele><time>2026-04-10T17:21:14.573Z</time></trkpt><trkpt lat="42.6672989" lon="12.6933223"><ele>836.4000000000001</ele><time>2026-04-10T17:21:15.573Z</time></trkpt><trkpt lat="42.6672764" lon="12.6931859"><ele>837.6</ele><time>2026-04-10T17:21:16.575Z</time></trkpt><trkpt lat="42.6672617" lon="12.6930422"><ele>838.8</ele><time>2026-04-10T17:21:17.567Z</time></trkpt><trkpt lat="42.6672463" lon="12.6929145"><ele>840.0</ele><time>2026-04-10T17:21:18.563Z</time></trkpt><trkpt lat="42.667224" lon="12.6928251"><ele>839.6</ele><time>2026-04-10T17:21:19.574Z</time></trkpt><trkpt lat="42.6671757" lon="12.6927427"><ele>839.2</ele><time>2026-04-10T17:21:20.574Z</time></trkpt><trkpt lat="42.6671164" lon="12.6926357"><ele>838.8</ele><time>2026-04-10T17:21:21.576Z</time></trkpt><trkpt lat="42.667069" lon="12.6924966"><ele>838.4</ele><time>2026-04-10T17:21:22.576Z</time></trkpt><trkpt lat="42.6670274" lon="12.6923538"><ele>838.0</ele><time>2026-04-10T17:21:23.588Z</time></trkpt><trkpt lat="42.6669898" lon="12.6922203"><ele>838.0</ele><time>2026-04-10T17:21:24.598Z</time></trkpt><trkpt lat="42.6669485" lon="12.6920818"><ele>838.0</ele><time>2026-04-10T17:21:25.587Z</time></trkpt><trkpt lat="42.6669168" lon="12.6919384"><ele>838.0</ele><time>2026-04-10T17:21:26.579Z</time></trkpt><trkpt lat="42.6668983" lon="12.6917879"><ele>838.0</ele><time>2026-04-10T17:21:27.578Z</time></trkpt><trkpt lat="42.6668863" lon="12.6916515"><ele>838.0</ele><time>2026-04-10T17:21:28.583Z</time></trkpt><trkpt lat="42.6668705" lon="12.6915357"><ele>839.2</ele><time>2026-04-10T17:21:29.581Z</time></trkpt><trkpt lat="42.6668618" lon="12.6914087"><ele>840.4</ele><time>2026-04-10T17:21:30.584Z</time></trkpt><trkpt lat="42.6668718" lon="12.691274"><ele>841.6</ele><time>2026-04-10T17:21:31.583Z</time></trkpt><trkpt lat="42.6669048" lon="12.691144"><ele>842.8000000000001</ele><time>2026-04-10T17:21:32.577Z</time></trkpt><trkpt lat="42.6669644" lon="12.6910143"><ele>844.0</ele><time>2026-04-10T17:21:33.578Z</time></trkpt><trkpt lat="42.667042" lon="12.6908987"><ele>844.0</ele><time>2026-04-10T17:21:34.579Z</time></trkpt><trkpt lat="42.6671264" lon="12.6907818"><ele>844.0</ele><time>2026-04-10T17:21:35.593Z</time></trkpt><trkpt lat="42.6672036" lon="12.6906474"><ele>844.0</ele><time>2026-04-10T17:21:36.586Z</time></trkpt><trkpt lat="42.6672803" lon="12.6905233"><ele>844.0</ele><time>2026-04-10T17:21:37.58Z</time></trkpt><trkpt lat="42.6673693" lon="12.6904304"><ele>844.0</ele><time>2026-04-10T17:21:38.58Z</time></trkpt><trkpt lat="42.6674707" lon="12.6903654"><ele>844.0</ele><time>2026-04-10T17:21:39.587Z</time></trkpt><trkpt lat="42.6675734" lon="12.6903081"><ele>844.0</ele><time>2026-04-10T17:21:40.579Z</time></trkpt><trkpt lat="42.6676522" lon="12.6902181"><ele>844.0</ele><time>2026-04-10T17:21:41.58Z</time></trkpt><trkpt lat="42.667713" lon="12.6901085"><ele>844.0</ele><time>2026-04-10T17:21:42.584Z</time></trkpt><trkpt lat="42.6677536" lon="12.6899866"><ele>846.3333333333333</ele><time>2026-04-10T17:21:43.585Z</time></trkpt><trkpt lat="42.6677833" lon="12.6898619"><ele>848.6666666666666</ele><time>2026-04-10T17:21:44.586Z</time></trkpt><trkpt lat="42.6678162" lon="12.6897555"><ele>851.0</ele><time>2026-04-10T17:21:45.59Z</time></trkpt><trkpt lat="42.6678542" lon="12.6896415"><ele>853.3333333333333</ele><time>2026-04-10T17:21:46.585Z</time></trkpt><trkpt lat="42.6678971" lon="12.6895414"><ele>855.6666666666666</ele><time>2026-04-10T17:21:47.579Z</time></trkpt><trkpt lat="42.6679444" lon="12.6894726"><ele>858.0</ele><time>2026-04-10T17:21:48.582Z</time></trkpt><trkpt lat="42.6680051" lon="12.6894244"><ele>858.4</ele><time>2026-04-10T17:21:49.596Z</time></trkpt><trkpt lat="42.6680776" lon="12.6893643"><ele>858.8</ele><time>2026-04-10T17:21:50.585Z</time></trkpt><trkpt lat="42.6681582" lon="12.6892831"><ele>859.2</ele><time>2026-04-10T17:21:51.584Z</time></trkpt><trkpt lat="42.668245" lon="12.6891804"><ele>859.6</ele><time>2026-04-10T17:21:52.591Z</time></trkpt><trkpt lat="42.6683161" lon="12.6890676"><ele>860.0</ele><time>2026-04-10T17:21:53.59Z</time></trkpt><trkpt lat="42.668373" lon="12.6889604"><ele>860.0000000000001</ele><time>2026-04-10T17:21:54.596Z</time></trkpt><trkpt lat="42.668436" lon="12.688862"><ele>860.0</ele><time>2026-04-10T17:21:55.59Z</time></trkpt><trkpt lat="42.6684957" lon="12.6887701"><ele>860.0</ele><time>2026-04-10T17:21:56.595Z</time></trkpt><trkpt lat="42.6685452" lon="12.688689"><ele>860.0</ele><time>2026-04-10T17:21:57.595Z</time></trkpt><trkpt lat="42.6685855" lon="12.6886082"><ele>860.0000000000001</ele><time>2026-04-10T17:21:58.595Z</time></trkpt><trkpt lat="42.6686284" lon="12.6885329"><ele>860.0</ele><time>2026-04-10T17:21:59.59Z</time></trkpt><trkpt lat="42.6686794" lon="12.6884667"><ele>859.0000000000001</ele><time>2026-04-10T17:22:00.587Z</time></trkpt><trkpt lat="42.6687373" lon="12.6884153"><ele>858.0</ele><time>2026-04-10T17:22:01.599Z</time></trkpt><trkpt lat="42.6688066" lon="12.6883739"><ele>857.0</ele><time>2026-04-10T17:22:02.585Z</time></trkpt><trkpt lat="42.668882" lon="12.6883038"><ele>856.0</ele><time>2026-04-10T17:22:03.587Z</time></trkpt><trkpt lat="42.6689489" lon="12.6882182"><ele>855.0000000000001</ele><time>2026-04-10T17:22:04.594Z</time></trkpt><trkpt lat="42.6690103" lon="12.6881192"><ele>854.0</ele><time>2026-04-10T17:22:05.59Z</time></trkpt><trkpt lat="42.6690638" lon="12.6880057"><ele>854.0000000000001</ele><time>2026-04-10T17:22:06.592Z</time></trkpt><trkpt lat="42.6691103" lon="12.6878902"><ele>854.0</ele><time>2026-04-10T17:22:07.584Z</time></trkpt><trkpt lat="42.6691523" lon="12.6877682"><ele>854.0</ele><time>2026-04-10T17:22:08.582Z</time></trkpt><trkpt lat="42.6691937" lon="12.6876525"><ele>854.0</ele><time>2026-04-10T17:22:09.576Z</time></trkpt><trkpt lat="42.6692275" lon="12.6875495"><ele>854.0000000000001</ele><time>2026-04-10T17:22:10.576Z</time></trkpt><trkpt lat="42.6692612" lon="12.6874696"><ele>854.0</ele><time>2026-04-10T17:22:11.578Z</time></trkpt><trkpt lat="42.669344" lon="12.6874281"><ele>855.3333333333334</ele><time>2026-04-10T17:22:13.583Z</time></trkpt><trkpt lat="42.6694082" lon="12.6875049"><ele>856.6666666666667</ele><time>2026-04-10T17:22:14.571Z</time></trkpt><trkpt lat="42.6694663" lon="12.6875673"><ele>858.0</ele><time>2026-04-10T17:22:15.577Z</time></trkpt><trkpt lat="42.6695788" lon="12.6875919"><ele>859.3333333333333</ele><time>2026-04-10T17:22:17.576Z</time></trkpt><trkpt lat="42.6696302" lon="12.6875371"><ele>860.6666666666666</ele><time>2026-04-10T17:22:18.586Z</time></trkpt><trkpt lat="42.6696534" lon="12.6874329"><ele>862.0</ele><time>2026-04-10T17:22:19.586Z</time></trkpt><trkpt lat="42.6696602" lon="12.687289"><ele>862.0</ele><time>2026-04-10T17:22:20.576Z</time></trkpt><trkpt lat="42.6696716" lon="12.6871244"><ele>862.0</ele><time>2026-04-10T17:22:21.577Z</time></trkpt><trkpt lat="42.6697091" lon="12.686964"><ele>862.0</ele><time>2026-04-10T17:22:22.577Z</time></trkpt><trkpt lat="42.66977" lon="12.686824"><ele>862.0</ele><time>2026-04-10T17:22:23.576Z</time></trkpt><trkpt lat="42.6698452" lon="12.6866944"><ele>862.25</ele><time>2026-04-10T17:22:24.584Z</time></trkpt><trkpt lat="42.6699339" lon="12.6865858"><ele>862.5</ele><time>2026-04-10T17:22:25.58Z</time></trkpt><trkpt lat="42.6700259" lon="12.6864753"><ele>862.75</ele><time>2026-04-10T17:22:26.582Z</time></trkpt><trkpt lat="42.6701124" lon="12.686362"><ele>863.0</ele><time>2026-04-10T17:22:27.579Z</time></trkpt><trkpt lat="42.6701942" lon="12.6862545"><ele>863.0</ele><time>2026-04-10T17:22:28.581Z</time></trkpt><trkpt lat="42.6702646" lon="12.6861418"><ele>863.0</ele><time>2026-04-10T17:22:29.583Z</time></trkpt><trkpt lat="42.6703276" lon="12.6860362"><ele>863.0</ele><time>2026-04-10T17:22:30.583Z</time></trkpt><trkpt lat="42.6703903" lon="12.6859509"><ele>863.0</ele><time>2026-04-10T17:22:31.582Z</time></trkpt><trkpt lat="42.6704518" lon="12.6858602"><ele>863.0</ele><time>2026-04-10T17:22:32.579Z</time></trkpt><trkpt lat="42.6705218" lon="12.6857683"><ele>860.2</ele><time>2026-04-10T17:22:33.573Z</time></trkpt><trkpt lat="42.6705909" lon="12.6856517"><ele>857.4</ele><time>2026-04-10T17:22:34.573Z</time></trkpt><trkpt lat="42.6706545" lon="12.6855245"><ele>854.6</ele><time>2026-04-10T17:22:35.576Z</time></trkpt><trkpt lat="42.6706941" lon="12.6853983"><ele>851.8000000000001</ele><time>2026-04-10T17:22:36.576Z</time></trkpt><trkpt lat="42.670713" lon="12.6852769"><ele>849.0</ele><time>2026-04-10T17:22:37.593Z</time></trkpt><trkpt lat="42.6707139" lon="12.6851704"><ele>847.5</ele><time>2026-04-10T17:22:38.59Z</time></trkpt><trkpt lat="42.6706611" lon="12.6850444"><ele>846.0</ele><time>2026-04-10T17:22:40.591Z</time></trkpt><trkpt lat="42.6705538" lon="12.6850296"><ele>844.5</ele><time>2026-04-10T17:22:42.589Z</time></trkpt><trkpt lat="42.6704822" lon="12.6850282"><ele>843.0</ele><time>2026-04-10T17:22:43.583Z</time></trkpt><trkpt lat="42.6704142" lon="12.6850238"><ele>841.5</ele><time>2026-04-10T17:22:44.592Z</time></trkpt><trkpt lat="42.6703498" lon="12.6850055"><ele>840.0</ele><time>2026-04-10T17:22:45.587Z</time></trkpt><trkpt lat="42.6702865" lon="12.6849529"><ele>844.2</ele><time>2026-04-10T17:22:46.578Z</time></trkpt><trkpt lat="42.670242" lon="12.6848593"><ele>848.4</ele><time>2026-04-10T17:22:47.567Z</time></trkpt><trkpt lat="42.6702257" lon="12.6847222"><ele>852.5999999999999</ele><time>2026-04-10T17:22:48.568Z</time></trkpt><trkpt lat="42.670217" lon="12.6845505"><ele>856.8</ele><time>2026-04-10T17:22:49.572Z</time></trkpt><trkpt lat="42.6702037" lon="12.6843767"><ele>861.0</ele><time>2026-04-10T17:22:50.565Z</time></trkpt><trkpt lat="42.6701959" lon="12.684229"><ele>861.0</ele><time>2026-04-10T17:22:51.568Z</time></trkpt><trkpt lat="42.6701917" lon="12.684074"><ele>860.9999999999999</ele><time>2026-04-10T17:22:52.565Z</time></trkpt><trkpt lat="42.670204" lon="12.6839328"><ele>860.9999999999999</ele><time>2026-04-10T17:22:53.568Z</time></trkpt><trkpt lat="42.6702355" lon="12.6837952"><ele>861.0</ele><time>2026-04-10T17:22:54.564Z</time></trkpt><trkpt lat="42.6702926" lon="12.6836751"><ele>861.0</ele><time>2026-04-10T17:22:55.567Z</time></trkpt><trkpt lat="42.6703598" lon="12.6835557"><ele>852.25</ele><time>2026-04-10T17:22:56.564Z</time></trkpt><trkpt lat="42.6704258" lon="12.6834273"><ele>843.5</ele><time>2026-04-10T17:22:57.562Z</time></trkpt><trkpt lat="42.6704837" lon="12.683268"><ele>834.75</ele><time>2026-04-10T17:22:58.565Z</time></trkpt><trkpt lat="42.6705317" lon="12.68309"><ele>826.0</ele><time>2026-04-10T17:22:59.563Z</time></trkpt><trkpt lat="42.6705721" lon="12.6829156"><ele>826.0</ele><time>2026-04-10T17:23:00.566Z</time></trkpt><trkpt lat="42.6706069" lon="12.6827615"><ele>826.0</ele><time>2026-04-10T17:23:01.579Z</time></trkpt><trkpt lat="42.670631" lon="12.6826264"><ele>826.0</ele><time>2026-04-10T17:23:02.569Z</time></trkpt><trkpt lat="42.6706484" lon="12.682502"><ele>826.0</ele><time>2026-04-10T17:23:03.566Z</time></trkpt><trkpt lat="42.6706728" lon="12.6823884"><ele>826.0</ele><time>2026-04-10T17:23:04.566Z</time></trkpt><trkpt lat="42.6707066" lon="12.6822802"><ele>825.9999999999999</ele><time>2026-04-10T17:23:05.562Z</time></trkpt><trkpt lat="42.6707554" lon="12.6821873"><ele>826.0</ele><time>2026-04-10T17:23:06.578Z</time></trkpt><trkpt lat="42.6708066" lon="12.6821143"><ele>826.0</ele><time>2026-04-10T17:23:07.578Z</time></trkpt><trkpt lat="42.6708651" lon="12.6820526"><ele>826.0</ele><time>2026-04-10T17:23:08.587Z</time></trkpt><trkpt lat="42.670925" lon="12.6819778"><ele>825.9999999999999</ele><time>2026-04-10T17:23:09.584Z</time></trkpt><trkpt lat="42.6709932" lon="12.681884"><ele>826.0</ele><time>2026-04-10T17:23:10.58Z</time></trkpt><trkpt lat="42.6710346" lon="12.681755"><ele>827.5</ele><time>2026-04-10T17:23:11.58Z</time></trkpt><trkpt lat="42.6710709" lon="12.6816266"><ele>829.0</ele><time>2026-04-10T17:23:12.577Z</time></trkpt><trkpt lat="42.6711004" lon="12.6814783"><ele>830.5</ele><time>2026-04-10T17:23:13.581Z</time></trkpt><trkpt lat="42.6711334" lon="12.6813135"><ele>832.0</ele><time>2026-04-10T17:23:14.584Z</time></trkpt><trkpt lat="42.6711845" lon="12.6811473"><ele>824.0</ele><time>2026-04-10T17:23:15.583Z</time></trkpt><trkpt lat="42.671244" lon="12.6809737"><ele>816.0</ele><time>2026-04-10T17:23:16.588Z</time></trkpt><trkpt lat="42.6713065" lon="12.6807955"><ele>808.0</ele><time>2026-04-10T17:23:17.587Z</time></trkpt><trkpt lat="42.6713787" lon="12.6806312"><ele>800.0</ele><time>2026-04-10T17:23:18.589Z</time></trkpt><trkpt lat="42.6714422" lon="12.6804759"><ele>800.0</ele><time>2026-04-10T17:23:19.603Z</time></trkpt><trkpt lat="42.6714902" lon="12.6803517"><ele>800.0</ele><time>2026-04-10T17:23:20.592Z</time></trkpt><trkpt lat="42.6715596" lon="12.6802326"><ele>800.0</ele><time>2026-04-10T17:23:21.593Z</time></trkpt><trkpt lat="42.6716336" lon="12.6801463"><ele>800.0</ele><time>2026-04-10T17:23:22.591Z</time></trkpt><trkpt lat="42.6716734" lon="12.6800098"><ele>800.0</ele><time>2026-04-10T17:23:23.592Z</time></trkpt><trkpt lat="42.6717132" lon="12.6798496"><ele>800.8</ele><time>2026-04-10T17:23:24.593Z</time></trkpt><trkpt lat="42.6717293" lon="12.6797291"><ele>801.6</ele><time>2026-04-10T17:23:25.584Z</time></trkpt><trkpt lat="42.6717686" lon="12.6795924"><ele>802.4000000000001</ele><time>2026-04-10T17:23:26.584Z</time></trkpt><trkpt lat="42.6718243" lon="12.6794688"><ele>803.2</ele><time>2026-04-10T17:23:27.584Z</time></trkpt><trkpt lat="42.671901" lon="12.6793705"><ele>804.0</ele><time>2026-04-10T17:23:28.584Z</time></trkpt><trkpt lat="42.6719758" lon="12.6792761"><ele>799.25</ele><time>2026-04-10T17:23:29.579Z</time></trkpt><trkpt lat="42.6720597" lon="12.6791811"><ele>794.5</ele><time>2026-04-10T17:23:30.576Z</time></trkpt><trkpt lat="42.6721649" lon="12.6790851"><ele>789.75</ele><time>2026-04-10T17:23:31.578Z</time></trkpt><trkpt lat="42.672254" lon="12.6789741"><ele>785.0</ele><time>2026-04-10T17:23:32.576Z</time></trkpt><trkpt lat="42.6723392" lon="12.6788649"><ele>785.0</ele><time>2026-04-10T17:23:33.576Z</time></trkpt><trkpt lat="42.6724303" lon="12.6787608"><ele>785.0</ele><time>2026-04-10T17:23:34.575Z</time></trkpt><trkpt lat="42.6725189" lon="12.6786496"><ele>785.0</ele><time>2026-04-10T17:23:35.579Z</time></trkpt><trkpt lat="42.6726157" lon="12.6785522"><ele>785.0</ele><time>2026-04-10T17:23:36.581Z</time></trkpt><trkpt lat="42.6727135" lon="12.6784477"><ele>782.8</ele><time>2026-04-10T17:23:37.583Z</time></trkpt><trkpt lat="42.6728008" lon="12.6783347"><ele>780.6</ele><time>2026-04-10T17:23:38.595Z</time></trkpt><trkpt lat="42.6728799" lon="12.6782622"><ele>778.4000000000001</ele><time>2026-04-10T17:23:39.599Z</time></trkpt><trkpt lat="42.6729377" lon="12.6782077"><ele>776.2</ele><time>2026-04-10T17:23:40.595Z</time></trkpt><trkpt lat="42.6728546" lon="12.6783148"><ele>774.0</ele><time>2026-04-10T17:23:50.599Z</time></trkpt><trkpt lat="42.672793" lon="12.6783881"><ele>775.3333333333334</ele><time>2026-04-10T17:23:51.589Z</time></trkpt><trkpt lat="42.6727193" lon="12.6784791"><ele>776.6666666666667</ele><time>2026-04-10T17:23:52.592Z</time></trkpt><trkpt lat="42.6726409" lon="12.6785932"><ele>778.0</ele><time>2026-04-10T17:23:53.588Z</time></trkpt><trkpt lat="42.6725806" lon="12.6786777"><ele>779.3333333333334</ele><time>2026-04-10T17:23:54.587Z</time></trkpt><trkpt lat="42.6725224" lon="12.678747"><ele>780.6666666666667</ele><time>2026-04-10T17:23:55.585Z</time></trkpt><trkpt lat="42.6724683" lon="12.6787939"><ele>782.0</ele><time>2026-04-10T17:23:56.582Z</time></trkpt><trkpt lat="42.6723893" lon="12.678817"><ele>782.0</ele><time>2026-04-10T17:23:58.584Z</time></trkpt><trkpt lat="42.6722829" lon="12.6787031"><ele>782.0</ele><time>2026-04-10T17:24:00.579Z</time></trkpt><trkpt lat="42.6722276" lon="12.6786073"><ele>782.0</ele><time>2026-04-10T17:24:01.588Z</time></trkpt><trkpt lat="42.6721435" lon="12.6785315"><ele>782.0</ele><time>2026-04-10T17:24:02.579Z</time></trkpt><trkpt lat="42.6720453" lon="12.6784739"><ele>782.0</ele><time>2026-04-10T17:24:03.579Z</time></trkpt><trkpt lat="42.6719492" lon="12.6784121"><ele>784.2</ele><time>2026-04-10T17:24:04.576Z</time></trkpt><trkpt lat="42.6718465" lon="12.6783467"><ele>786.4000000000001</ele><time>2026-04-10T17:24:05.572Z</time></trkpt><trkpt lat="42.6717431" lon="12.6782896"><ele>788.5999999999999</ele><time>2026-04-10T17:24:06.576Z</time></trkpt><trkpt lat="42.6716485" lon="12.6782522"><ele>790.8</ele><time>2026-04-10T17:24:07.577Z</time></trkpt><trkpt lat="42.6715565" lon="12.6782223"><ele>793.0</ele><time>2026-04-10T17:24:08.582Z</time></trkpt><trkpt lat="42.6714623" lon="12.6781865"><ele>793.0</ele><time>2026-04-10T17:24:09.586Z</time></trkpt><trkpt lat="42.6713704" lon="12.6781492"><ele>793.0</ele><time>2026-04-10T17:24:10.585Z</time></trkpt><trkpt lat="42.6712789" lon="12.6781272"><ele>793.0</ele><time>2026-04-10T17:24:11.573Z</time></trkpt><trkpt lat="42.6711999" lon="12.678106"><ele>793.0</ele><time>2026-04-10T17:24:12.575Z</time></trkpt><trkpt lat="42.6711054" lon="12.6780239"><ele>793.0</ele><time>2026-04-10T17:24:14.58Z</time></trkpt><trkpt lat="42.6710755" lon="12.6778825"><ele>797.0</ele><time>2026-04-10T17:24:16.564Z</time></trkpt><trkpt lat="42.67109" lon="12.6777479"><ele>801.0</ele><time>2026-04-10T17:24:17.572Z</time></trkpt><trkpt lat="42.6710857" lon="12.6775887"><ele>805.0</ele><time>2026-04-10T17:24:18.573Z</time></trkpt><trkpt lat="42.6710565" lon="12.6774389"><ele>809.0</ele><time>2026-04-10T17:24:19.566Z</time></trkpt><trkpt lat="42.6710146" lon="12.6772831"><ele>809.0</ele><time>2026-04-10T17:24:20.572Z</time></trkpt><trkpt lat="42.6709765" lon="12.6771363"><ele>809.0</ele><time>2026-04-10T17:24:21.569Z</time></trkpt><trkpt lat="42.670943" lon="12.6769869"><ele>809.0</ele><time>2026-04-10T17:24:22.565Z</time></trkpt><trkpt lat="42.6709043" lon="12.6768391"><ele>809.0</ele><time>2026-04-10T17:24:23.576Z</time></trkpt><trkpt lat="42.6708688" lon="12.6767237"><ele>809.0</ele><time>2026-04-10T17:24:24.572Z</time></trkpt><trkpt lat="42.6708078" lon="12.6766083"><ele>806.6666666666667</ele><time>2026-04-10T17:24:25.573Z</time></trkpt><trkpt lat="42.6707506" lon="12.6765258"><ele>804.3333333333334</ele><time>2026-04-10T17:24:26.568Z</time></trkpt><trkpt lat="42.6706815" lon="12.6764653"><ele>802.0</ele><time>2026-04-10T17:24:27.572Z</time></trkpt><trkpt lat="42.6706059" lon="12.6764336"><ele>799.6666666666667</ele><time>2026-04-10T17:24:28.572Z</time></trkpt><trkpt lat="42.6705188" lon="12.676421"><ele>797.3333333333334</ele><time>2026-04-10T17:24:29.568Z</time></trkpt><trkpt lat="42.6704262" lon="12.6764003"><ele>795.0</ele><time>2026-04-10T17:24:30.564Z</time></trkpt><trkpt lat="42.6703434" lon="12.6763709"><ele>794.8</ele><time>2026-04-10T17:24:31.557Z</time></trkpt><trkpt lat="42.6702481" lon="12.6762895"><ele>794.6</ele><time>2026-04-10T17:24:33.56Z</time></trkpt><trkpt lat="42.6702378" lon="12.6761709"><ele>794.4000000000001</ele><time>2026-04-10T17:24:35.559Z</time></trkpt><trkpt lat="42.67031" lon="12.6760087"><ele>794.2</ele><time>2026-04-10T17:24:37.563Z</time></trkpt><trkpt lat="42.6703601" lon="12.67593"><ele>794.0</ele><time>2026-04-10T17:24:38.581Z</time></trkpt><trkpt lat="42.6704125" lon="12.6758333"><ele>794.0</ele><time>2026-04-10T17:24:39.584Z</time></trkpt><trkpt lat="42.6704614" lon="12.6757217"><ele>794.0</ele><time>2026-04-10T17:24:40.587Z</time></trkpt><trkpt lat="42.6705313" lon="12.6755937"><ele>794.0</ele><time>2026-04-10T17:24:41.589Z</time></trkpt><trkpt lat="42.6705942" lon="12.6754928"><ele>794.0</ele><time>2026-04-10T17:24:42.589Z</time></trkpt><trkpt lat="42.6706516" lon="12.6753756"><ele>794.0</ele><time>2026-04-10T17:24:43.583Z</time></trkpt><trkpt lat="42.6706893" lon="12.6752666"><ele>796.2</ele><time>2026-04-10T17:24:44.584Z</time></trkpt><trkpt lat="42.6706876" lon="12.675148"><ele>798.4000000000001</ele><time>2026-04-10T17:24:45.584Z</time></trkpt><trkpt lat="42.6706759" lon="12.6750151"><ele>800.6</ele><time>2026-04-10T17:24:46.584Z</time></trkpt><trkpt lat="42.670658" lon="12.6748756"><ele>802.8</ele><time>2026-04-10T17:24:47.584Z</time></trkpt><trkpt lat="42.6706407" lon="12.6747309"><ele>805.0</ele><time>2026-04-10T17:24:48.585Z</time></trkpt><trkpt lat="42.6706492" lon="12.6746141"><ele>805.0</ele><time>2026-04-10T17:24:49.578Z</time></trkpt><trkpt lat="42.6706455" lon="12.6744914"><ele>805.0</ele><time>2026-04-10T17:24:50.58Z</time></trkpt><trkpt lat="42.6706406" lon="12.674375"><ele>805.0</ele><time>2026-04-10T17:24:51.574Z</time></trkpt><trkpt lat="42.670615" lon="12.6742548"><ele>805.0</ele><time>2026-04-10T17:24:52.576Z</time></trkpt><trkpt lat="42.6705803" lon="12.6741181"><ele>805.0</ele><time>2026-04-10T17:24:53.58Z</time></trkpt><trkpt lat="42.6705475" lon="12.6739611"><ele>804.25</ele><time>2026-04-10T17:24:54.572Z</time></trkpt><trkpt lat="42.670543" lon="12.6738023"><ele>803.5</ele><time>2026-04-10T17:24:55.577Z</time></trkpt><trkpt lat="42.6705483" lon="12.6736379"><ele>802.75</ele><time>2026-04-10T17:24:56.576Z</time></trkpt><trkpt lat="42.6705589" lon="12.6734588"><ele>802.0</ele><time>2026-04-10T17:24:57.579Z</time></trkpt><trkpt lat="42.6705682" lon="12.6732816"><ele>800.5</ele><time>2026-04-10T17:24:58.572Z</time></trkpt><trkpt lat="42.6705396" lon="12.6731074"><ele>799.0</ele><time>2026-04-10T17:24:59.569Z</time></trkpt><trkpt lat="42.6705006" lon="12.6729498"><ele>797.5</ele><time>2026-04-10T17:25:00.571Z</time></trkpt><trkpt lat="42.6704853" lon="12.6728118"><ele>796.0</ele><time>2026-04-10T17:25:01.57Z</time></trkpt><trkpt lat="42.6704964" lon="12.6726802"><ele>796.0</ele><time>2026-04-10T17:25:02.568Z</time></trkpt><trkpt lat="42.6705519" lon="12.6725798"><ele>796.0</ele><time>2026-04-10T17:25:03.571Z</time></trkpt><trkpt lat="42.6706179" lon="12.6724707"><ele>796.0</ele><time>2026-04-10T17:25:04.568Z</time></trkpt><trkpt lat="42.6706798" lon="12.6723282"><ele>796.0</ele><time>2026-04-10T17:25:05.574Z</time></trkpt><trkpt lat="42.6707601" lon="12.6721837"><ele>796.0</ele><time>2026-04-10T17:25:06.571Z</time></trkpt><trkpt lat="42.6708466" lon="12.6720503"><ele>796.0</ele><time>2026-04-10T17:25:07.57Z</time></trkpt><trkpt lat="42.6709213" lon="12.6718938"><ele>796.0</ele><time>2026-04-10T17:25:08.574Z</time></trkpt><trkpt lat="42.6709895" lon="12.6717663"><ele>796.0</ele><time>2026-04-10T17:25:09.573Z</time></trkpt><trkpt lat="42.6710449" lon="12.6716601"><ele>795.9999999999999</ele><time>2026-04-10T17:25:10.579Z</time></trkpt><trkpt lat="42.671087" lon="12.6715644"><ele>796.0</ele><time>2026-04-10T17:25:11.579Z</time></trkpt><trkpt lat="42.6711179" lon="12.6714803"><ele>796.0</ele><time>2026-04-10T17:25:12.603Z</time></trkpt><trkpt lat="42.6711361" lon="12.6713781"><ele>796.0</ele><time>2026-04-10T17:25:13.589Z</time></trkpt><trkpt lat="42.6711489" lon="12.6712728"><ele>795.9999999999999</ele><time>2026-04-10T17:25:14.587Z</time></trkpt><trkpt lat="42.671149" lon="12.671168"><ele>796.0</ele><time>2026-04-10T17:25:15.584Z</time></trkpt><trkpt lat="42.6711539" lon="12.6710576"><ele>790.5</ele><time>2026-04-10T17:25:16.58Z</time></trkpt><trkpt lat="42.6711569" lon="12.6709175"><ele>785.0</ele><time>2026-04-10T17:25:17.578Z</time></trkpt><trkpt lat="42.6711608" lon="12.6707527"><ele>779.5</ele><time>2026-04-10T17:25:18.58Z</time></trkpt><trkpt lat="42.6711677" lon="12.6705775"><ele>774.0</ele><time>2026-04-10T17:25:19.583Z</time></trkpt><trkpt lat="42.6711679" lon="12.6704148"><ele>774.0</ele><time>2026-04-10T17:25:20.584Z</time></trkpt><trkpt lat="42.6711797" lon="12.6702577"><ele>774.0</ele><time>2026-04-10T17:25:21.581Z</time></trkpt><trkpt lat="42.6711973" lon="12.6701038"><ele>774.0</ele><time>2026-04-10T17:25:22.581Z</time></trkpt><trkpt lat="42.6712271" lon="12.6699543"><ele>774.0</ele><time>2026-04-10T17:25:23.576Z</time></trkpt><trkpt lat="42.6712865" lon="12.6698374"><ele>774.0</ele><time>2026-04-10T17:25:24.581Z</time></trkpt><trkpt lat="42.6713404" lon="12.6697262"><ele>774.0</ele><time>2026-04-10T17:25:25.582Z</time></trkpt><trkpt lat="42.6713898" lon="12.6696182"><ele>774.0</ele><time>2026-04-10T17:25:26.587Z</time></trkpt><trkpt lat="42.6714307" lon="12.669511"><ele>774.0</ele><time>2026-04-10T17:25:27.579Z</time></trkpt><trkpt lat="42.6714675" lon="12.6693921"><ele>774.0</ele><time>2026-04-10T17:25:28.586Z</time></trkpt><trkpt lat="42.6714856" lon="12.6692533"><ele>774.0</ele><time>2026-04-10T17:25:29.584Z</time></trkpt><trkpt lat="42.6714845" lon="12.6691225"><ele>773.2</ele><time>2026-04-10T17:25:30.573Z</time></trkpt><trkpt lat="42.6714732" lon="12.6690097"><ele>772.4000000000001</ele><time>2026-04-10T17:25:31.578Z</time></trkpt><trkpt lat="42.6714449" lon="12.6688996"><ele>771.6</ele><time>2026-04-10T17:25:32.571Z</time></trkpt><trkpt lat="42.6714072" lon="12.6687761"><ele>770.8</ele><time>2026-04-10T17:25:33.578Z</time></trkpt><trkpt lat="42.6713528" lon="12.6686425"><ele>770.0</ele><time>2026-04-10T17:25:34.568Z</time></trkpt><trkpt lat="42.671291" lon="12.6684723"><ele>766.0</ele><time>2026-04-10T17:25:35.571Z</time></trkpt><trkpt lat="42.6712333" lon="12.6682894"><ele>762.0</ele><time>2026-04-10T17:25:36.579Z</time></trkpt><trkpt lat="42.6711703" lon="12.6681084"><ele>758.0</ele><time>2026-04-10T17:25:37.571Z</time></trkpt><trkpt lat="42.6711114" lon="12.6679287"><ele>754.0</ele><time>2026-04-10T17:25:38.58Z</time></trkpt><trkpt lat="42.6710563" lon="12.6677866"><ele>758.0</ele><time>2026-04-10T17:25:39.577Z</time></trkpt><trkpt lat="42.6710231" lon="12.6676473"><ele>762.0</ele><time>2026-04-10T17:25:40.575Z</time></trkpt><trkpt lat="42.6709691" lon="12.6674952"><ele>766.0</ele><time>2026-04-10T17:25:41.578Z</time></trkpt><trkpt lat="42.670912" lon="12.6673613"><ele>770.0</ele><time>2026-04-10T17:25:42.586Z</time></trkpt><trkpt lat="42.6708638" lon="12.6672203"><ele>770.0</ele><time>2026-04-10T17:25:43.571Z</time></trkpt><trkpt lat="42.6708257" lon="12.6670911"><ele>770.0</ele><time>2026-04-10T17:25:44.586Z</time></trkpt><trkpt lat="42.6707917" lon="12.6669516"><ele>770.0</ele><time>2026-04-10T17:25:45.578Z</time></trkpt><trkpt lat="42.6707887" lon="12.6668221"><ele>770.0</ele><time>2026-04-10T17:25:46.578Z</time></trkpt><trkpt lat="42.6708266" lon="12.6667017"><ele>770.0</ele><time>2026-04-10T17:25:47.576Z</time></trkpt><trkpt lat="42.6708699" lon="12.666587"><ele>768.0000000000001</ele><time>2026-04-10T17:25:48.575Z</time></trkpt><trkpt lat="42.6708993" lon="12.6664738"><ele>766.0</ele><time>2026-04-10T17:25:49.585Z</time></trkpt><trkpt lat="42.6709115" lon="12.6663852"><ele>764.0</ele><time>2026-04-10T17:25:50.58Z</time></trkpt><trkpt lat="42.6708956" lon="12.6662938"><ele>762.0</ele><time>2026-04-10T17:25:51.577Z</time></trkpt><trkpt lat="42.6708603" lon="12.6662007"><ele>760.0</ele><time>2026-04-10T17:25:52.585Z</time></trkpt><trkpt lat="42.6708195" lon="12.6660839"><ele>758.0</ele><time>2026-04-10T17:25:53.582Z</time></trkpt><trkpt lat="42.6707696" lon="12.6659727"><ele>755.5999999999999</ele><time>2026-04-10T17:25:54.595Z</time></trkpt><trkpt lat="42.6707105" lon="12.6658809"><ele>753.1999999999999</ele><time>2026-04-10T17:25:55.584Z</time></trkpt><trkpt lat="42.6706415" lon="12.6657887"><ele>750.8</ele><time>2026-04-10T17:25:56.581Z</time></trkpt><trkpt lat="42.6705514" lon="12.665705"><ele>748.4</ele><time>2026-04-10T17:25:57.577Z</time></trkpt><trkpt lat="42.6704725" lon="12.6656431"><ele>746.0</ele><time>2026-04-10T17:25:58.582Z</time></trkpt><trkpt lat="42.6704005" lon="12.6655943"><ele>746.0</ele><time>2026-04-10T17:25:59.57Z</time></trkpt><trkpt lat="42.6703289" lon="12.6655834"><ele>746.0</ele><time>2026-04-10T17:26:00.576Z</time></trkpt><trkpt lat="42.6702255" lon="12.6655754"><ele>746.0</ele><time>2026-04-10T17:26:01.58Z</time></trkpt><trkpt lat="42.6701242" lon="12.6655751"><ele>746.0</ele><time>2026-04-10T17:26:02.567Z</time></trkpt><trkpt lat="42.6700333" lon="12.6655663"><ele>746.0</ele><time>2026-04-10T17:26:03.558Z</time></trkpt><trkpt lat="42.6699571" lon="12.6655058"><ele>745.1999999999999</ele><time>2026-04-10T17:26:04.567Z</time></trkpt><trkpt lat="42.6699002" lon="12.6654372"><ele>744.4</ele><time>2026-04-10T17:26:05.568Z</time></trkpt><trkpt lat="42.6698624" lon="12.6653418"><ele>743.6</ele><time>2026-04-10T17:26:06.561Z</time></trkpt><trkpt lat="42.669831" lon="12.6652151"><ele>742.8</ele><time>2026-04-10T17:26:07.575Z</time></trkpt><trkpt lat="42.669789" lon="12.6650611"><ele>742.0</ele><time>2026-04-10T17:26:08.575Z</time></trkpt><trkpt lat="42.6697272" lon="12.6649164"><ele>742.0</ele><time>2026-04-10T17:26:09.571Z</time></trkpt><trkpt lat="42.6696558" lon="12.6647885"><ele>742.0</ele><time>2026-04-10T17:26:10.575Z</time></trkpt><trkpt lat="42.6695981" lon="12.6646712"><ele>742.0</ele><time>2026-04-10T17:26:11.574Z</time></trkpt><trkpt lat="42.6695417" lon="12.6645805"><ele>742.0</ele><time>2026-04-10T17:26:12.577Z</time></trkpt><trkpt lat="42.6694842" lon="12.6645362"><ele>742.0</ele><time>2026-04-10T17:26:13.588Z</time></trkpt><trkpt lat="42.6694094" lon="12.6644448"><ele>744.2</ele><time>2026-04-10T17:26:15.576Z</time></trkpt><trkpt lat="42.6694395" lon="12.6643425"><ele>746.4000000000001</ele><time>2026-04-10T17:26:17.593Z</time></trkpt><trkpt lat="42.6695102" lon="12.6643223"><ele>748.5999999999999</ele><time>2026-04-10T17:26:18.581Z</time></trkpt><trkpt lat="42.6696067" lon="12.6643344"><ele>750.8</ele><time>2026-04-10T17:26:19.58Z</time></trkpt><trkpt lat="42.6697169" lon="12.66436"><ele>753.0</ele><time>2026-04-10T17:26:20.576Z</time></trkpt><trkpt lat="42.6698416" lon="12.6643763"><ele>753.0</ele><time>2026-04-10T17:26:21.575Z</time></trkpt><trkpt lat="42.6699802" lon="12.6643861"><ele>753.0</ele><time>2026-04-10T17:26:22.579Z</time></trkpt><trkpt lat="42.6701263" lon="12.6644003"><ele>753.0</ele><time>2026-04-10T17:26:23.584Z</time></trkpt><trkpt lat="42.6702676" lon="12.6644083"><ele>753.0</ele><time>2026-04-10T17:26:24.582Z</time></trkpt><trkpt lat="42.6703929" lon="12.6643951"><ele>750.8</ele><time>2026-04-10T17:26:25.582Z</time></trkpt><trkpt lat="42.6705022" lon="12.6643753"><ele>748.5999999999999</ele><time>2026-04-10T17:26:26.583Z</time></trkpt><trkpt lat="42.6706025" lon="12.6643425"><ele>746.4000000000001</ele><time>2026-04-10T17:26:27.583Z</time></trkpt><trkpt lat="42.6707001" lon="12.6642926"><ele>744.2</ele><time>2026-04-10T17:26:28.584Z</time></trkpt><trkpt lat="42.6707886" lon="12.6642395"><ele>742.0</ele><time>2026-04-10T17:26:29.581Z</time></trkpt><trkpt lat="42.6708785" lon="12.6641842"><ele>742.0</ele><time>2026-04-10T17:26:30.58Z</time></trkpt><trkpt lat="42.6709599" lon="12.664124"><ele>742.0</ele><time>2026-04-10T17:26:31.588Z</time></trkpt><trkpt lat="42.6710337" lon="12.6640356"><ele>742.0</ele><time>2026-04-10T17:26:32.577Z</time></trkpt><trkpt lat="42.6710992" lon="12.6639281"><ele>742.0</ele><time>2026-04-10T17:26:33.593Z</time></trkpt><trkpt lat="42.6711665" lon="12.6638335"><ele>742.0</ele><time>2026-04-10T17:26:34.584Z</time></trkpt><trkpt lat="42.6712443" lon="12.6637564"><ele>742.0</ele><time>2026-04-10T17:26:35.586Z</time></trkpt><trkpt lat="42.6713232" lon="12.6636949"><ele>742.0</ele><time>2026-04-10T17:26:36.587Z</time></trkpt><trkpt lat="42.671395" lon="12.6636188"><ele>742.0</ele><time>2026-04-10T17:26:37.582Z</time></trkpt><trkpt lat="42.671461" lon="12.6635073"><ele>742.0</ele><time>2026-04-10T17:26:38.585Z</time></trkpt><trkpt lat="42.6715315" lon="12.6633797"><ele>742.0</ele><time>2026-04-10T17:26:39.585Z</time></trkpt><trkpt lat="42.6716055" lon="12.6632595"><ele>742.0</ele><time>2026-04-10T17:26:40.587Z</time></trkpt><trkpt lat="42.671694" lon="12.6631635"><ele>742.0</ele><time>2026-04-10T17:26:41.587Z</time></trkpt><trkpt lat="42.6717858" lon="12.6630694"><ele>742.0</ele><time>2026-04-10T17:26:42.587Z</time></trkpt><trkpt lat="42.6718548" lon="12.6629664"><ele>742.0</ele><time>2026-04-10T17:26:43.582Z</time></trkpt><trkpt lat="42.6719193" lon="12.6628468"><ele>742.0</ele><time>2026-04-10T17:26:44.592Z</time></trkpt><trkpt lat="42.6719613" lon="12.6627387"><ele>740.6</ele><time>2026-04-10T17:26:45.583Z</time></trkpt><trkpt lat="42.671994" lon="12.6626296"><ele>739.2</ele><time>2026-04-10T17:26:46.589Z</time></trkpt><trkpt lat="42.6720104" lon="12.6625244"><ele>737.8</ele><time>2026-04-10T17:26:47.589Z</time></trkpt><trkpt lat="42.6720238" lon="12.6624004"><ele>736.4</ele><time>2026-04-10T17:26:48.589Z</time></trkpt><trkpt lat="42.6720273" lon="12.6622506"><ele>735.0</ele><time>2026-04-10T17:26:49.596Z</time></trkpt><trkpt lat="42.6720349" lon="12.6621054"><ele>735.0</ele><time>2026-04-10T17:26:50.6Z</time></trkpt><trkpt lat="42.672041" lon="12.6619699"><ele>735.0</ele><time>2026-04-10T17:26:51.592Z</time></trkpt><trkpt lat="42.6720354" lon="12.6618558"><ele>735.0</ele><time>2026-04-10T17:26:52.592Z</time></trkpt><trkpt lat="42.6720198" lon="12.6617527"><ele>735.0</ele><time>2026-04-10T17:26:53.587Z</time></trkpt><trkpt lat="42.6719835" lon="12.6616728"><ele>735.0</ele><time>2026-04-10T17:26:54.587Z</time></trkpt><trkpt lat="42.6719343" lon="12.6616114"><ele>735.0</ele><time>2026-04-10T17:26:55.579Z</time></trkpt><trkpt lat="42.6718654" lon="12.6615494"><ele>736.4</ele><time>2026-04-10T17:26:56.577Z</time></trkpt><trkpt lat="42.6717856" lon="12.6614804"><ele>737.8</ele><time>2026-04-10T17:26:57.582Z</time></trkpt><trkpt lat="42.6717078" lon="12.6614003"><ele>739.2</ele><time>2026-04-10T17:26:58.588Z</time></trkpt><trkpt lat="42.6716385" lon="12.6613212"><ele>740.6</ele><time>2026-04-10T17:26:59.582Z</time></trkpt><trkpt lat="42.6715867" lon="12.6612216"><ele>742.0</ele><time>2026-04-10T17:27:00.584Z</time></trkpt><trkpt lat="42.6715631" lon="12.6610988"><ele>742.0</ele><time>2026-04-10T17:27:01.583Z</time></trkpt><trkpt lat="42.6715813" lon="12.6609676"><ele>742.0</ele><time>2026-04-10T17:27:02.577Z</time></trkpt><trkpt lat="42.6716147" lon="12.6608413"><ele>742.0</ele><time>2026-04-10T17:27:03.581Z</time></trkpt><trkpt lat="42.6716341" lon="12.6607282"><ele>742.0</ele><time>2026-04-10T17:27:04.583Z</time></trkpt><trkpt lat="42.6716503" lon="12.6606109"><ele>742.0</ele><time>2026-04-10T17:27:05.58Z</time></trkpt><trkpt lat="42.6716304" lon="12.6605042"><ele>742.0</ele><time>2026-04-10T17:27:06.583Z</time></trkpt><trkpt lat="42.6715995" lon="12.6603943"><ele>742.0</ele><time>2026-04-10T17:27:07.58Z</time></trkpt><trkpt lat="42.6715615" lon="12.6602976"><ele>742.0</ele><time>2026-04-10T17:27:08.584Z</time></trkpt><trkpt lat="42.6715136" lon="12.6602011"><ele>742.0</ele><time>2026-04-10T17:27:09.579Z</time></trkpt><trkpt lat="42.6714436" lon="12.6600993"><ele>742.0</ele><time>2026-04-10T17:27:10.576Z</time></trkpt><trkpt lat="42.6713628" lon="12.6600049"><ele>742.6</ele><time>2026-04-10T17:27:11.578Z</time></trkpt><trkpt lat="42.6712705" lon="12.6599376"><ele>743.2</ele><time>2026-04-10T17:27:12.575Z</time></trkpt><trkpt lat="42.671175" lon="12.6598732"><ele>743.8</ele><time>2026-04-10T17:27:13.576Z</time></trkpt><trkpt lat="42.6710778" lon="12.6598044"><ele>744.4</ele><time>2026-04-10T17:27:14.581Z</time></trkpt><trkpt lat="42.670987" lon="12.6597578"><ele>745.0</ele><time>2026-04-10T17:27:15.593Z</time></trkpt><trkpt lat="42.6709154" lon="12.659692"><ele>745.0</ele><time>2026-04-10T17:27:16.589Z</time></trkpt><trkpt lat="42.6708617" lon="12.6596134"><ele>745.0</ele><time>2026-04-10T17:27:17.588Z</time></trkpt><trkpt lat="42.670819" lon="12.659518"><ele>745.0</ele><time>2026-04-10T17:27:18.581Z</time></trkpt><trkpt lat="42.6707792" lon="12.6593925"><ele>745.0</ele><time>2026-04-10T17:27:19.581Z</time></trkpt><trkpt lat="42.6707692" lon="12.6592492"><ele>745.0</ele><time>2026-04-10T17:27:20.582Z</time></trkpt><trkpt lat="42.6707848" lon="12.6591098"><ele>743.4</ele><time>2026-04-10T17:27:21.58Z</time></trkpt><trkpt lat="42.6708065" lon="12.6589768"><ele>741.8</ele><time>2026-04-10T17:27:22.588Z</time></trkpt><trkpt lat="42.6708373" lon="12.6588308"><ele>740.2</ele><time>2026-04-10T17:27:23.597Z</time></trkpt><trkpt lat="42.6708888" lon="12.6587214"><ele>738.6</ele><time>2026-04-10T17:27:24.59Z</time></trkpt><trkpt lat="42.6709393" lon="12.6586262"><ele>737.0</ele><time>2026-04-10T17:27:25.598Z</time></trkpt><trkpt lat="42.6709871" lon="12.6585001"><ele>737.0</ele><time>2026-04-10T17:27:27.589Z</time></trkpt><trkpt lat="42.6709186" lon="12.6584324"><ele>737.0</ele><time>2026-04-10T17:27:29.594Z</time></trkpt><trkpt lat="42.6708179" lon="12.6583481"><ele>737.0</ele><time>2026-04-10T17:27:31.603Z</time></trkpt><trkpt lat="42.6707395" lon="12.6582449"><ele>737.0</ele><time>2026-04-10T17:27:33.602Z</time></trkpt><trkpt lat="42.6706757" lon="12.6581795"><ele>737.0</ele><time>2026-04-10T17:27:35.602Z</time></trkpt><trkpt lat="42.6706764" lon="12.6582728"><ele>737.0</ele><time>2026-04-10T17:27:42.602Z</time></trkpt><trkpt lat="42.6707255" lon="12.6583456"><ele>737.0</ele><time>2026-04-10T17:27:44.604Z</time></trkpt><trkpt lat="42.6707777" lon="12.658447"><ele>737.0</ele><time>2026-04-10T17:27:46.613Z</time></trkpt><trkpt lat="42.6708393" lon="12.6585463"><ele>737.0</ele><time>2026-04-10T17:27:48.598Z</time></trkpt><trkpt lat="42.670898" lon="12.6586224"><ele>737.0</ele><time>2026-04-10T17:27:50.595Z</time></trkpt><trkpt lat="42.6709532" lon="12.6586751"><ele>737.0</ele><time>2026-04-10T17:27:54.604Z</time></trkpt><trkpt lat="42.6710176" lon="12.6586636"><ele>735.6666666666666</ele><time>2026-04-10T17:28:02.604Z</time></trkpt><trkpt lat="42.6711264" lon="12.6586434"><ele>734.3333333333333</ele><time>2026-04-10T17:28:04.595Z</time></trkpt><trkpt lat="42.671191" lon="12.6586289"><ele>733.0</ele><time>2026-04-10T17:28:05.585Z</time></trkpt><trkpt lat="42.6712825" lon="12.658604"><ele>731.6666666666666</ele><time>2026-04-10T17:28:06.582Z</time></trkpt><trkpt lat="42.6713453" lon="12.6585786"><ele>730.3333333333334</ele><time>2026-04-10T17:28:07.587Z</time></trkpt><trkpt lat="42.6714133" lon="12.658574"><ele>729.0</ele><time>2026-04-10T17:28:08.598Z</time></trkpt><trkpt lat="42.6715185" lon="12.6586035"><ele>729.0</ele><time>2026-04-10T17:28:10.588Z</time></trkpt><trkpt lat="42.6715866" lon="12.6586283"><ele>729.0</ele><time>2026-04-10T17:28:11.589Z</time></trkpt><trkpt lat="42.671655" lon="12.6586719"><ele>729.0</ele><time>2026-04-10T17:28:12.584Z</time></trkpt><trkpt lat="42.671735" lon="12.6587259"><ele>729.0</ele><time>2026-04-10T17:28:13.594Z</time></trkpt><trkpt lat="42.6718096" lon="12.6587757"><ele>729.0</ele><time>2026-04-10T17:28:14.59Z</time></trkpt><trkpt lat="42.6718779" lon="12.6588153"><ele>729.0</ele><time>2026-04-10T17:28:15.592Z</time></trkpt><trkpt lat="42.6719517" lon="12.6588575"><ele>728.3333333333334</ele><time>2026-04-10T17:28:16.592Z</time></trkpt><trkpt lat="42.6720255" lon="12.6589035"><ele>727.6666666666666</ele><time>2026-04-10T17:28:17.608Z</time></trkpt><trkpt lat="42.6720959" lon="12.6589571"><ele>727.0</ele><time>2026-04-10T17:28:18.595Z</time></trkpt><trkpt lat="42.6721671" lon="12.6590049"><ele>726.3333333333333</ele><time>2026-04-10T17:28:19.608Z</time></trkpt><trkpt lat="42.6722369" lon="12.6590563"><ele>725.6666666666666</ele><time>2026-04-10T17:28:20.598Z</time></trkpt><trkpt lat="42.6722922" lon="12.659103"><ele>725.0</ele><time>2026-04-10T17:28:21.597Z</time></trkpt><trkpt lat="42.6723534" lon="12.6591471"><ele>725.0</ele><time>2026-04-10T17:28:22.597Z</time></trkpt><trkpt lat="42.6724658" lon="12.6591956"><ele>725.0</ele><time>2026-04-10T17:28:24.598Z</time></trkpt><trkpt lat="42.6725354" lon="12.6591984"><ele>725.0</ele><time>2026-04-10T17:28:25.596Z</time></trkpt><trkpt lat="42.6726394" lon="12.6592478"><ele>725.0</ele><time>2026-04-10T17:28:27.581Z</time></trkpt><trkpt lat="42.6727189" lon="12.6593605"><ele>725.0</ele><time>2026-04-10T17:28:29.579Z</time></trkpt><trkpt lat="42.6727425" lon="12.6594545"><ele>724.6666666666666</ele><time>2026-04-10T17:28:30.582Z</time></trkpt><trkpt lat="42.6727685" lon="12.6595564"><ele>724.3333333333333</ele><time>2026-04-10T17:28:31.584Z</time></trkpt><trkpt lat="42.672801" lon="12.6596672"><ele>724.0</ele><time>2026-04-10T17:28:32.581Z</time></trkpt><trkpt lat="42.6728397" lon="12.6597833"><ele>723.6666666666666</ele><time>2026-04-10T17:28:33.582Z</time></trkpt><trkpt lat="42.672875" lon="12.6599065"><ele>723.3333333333334</ele><time>2026-04-10T17:28:34.583Z</time></trkpt><trkpt lat="42.6729177" lon="12.6600144"><ele>723.0</ele><time>2026-04-10T17:28:35.581Z</time></trkpt><trkpt lat="42.6729688" lon="12.6601048"><ele>722.5</ele><time>2026-04-10T17:28:36.582Z</time></trkpt><trkpt lat="42.6730227" lon="12.660184"><ele>722.0</ele><time>2026-04-10T17:28:37.574Z</time></trkpt><trkpt lat="42.6730901" lon="12.6601968"><ele>721.5</ele><time>2026-04-10T17:28:38.579Z</time></trkpt><trkpt lat="42.6731728" lon="12.6602"><ele>721.0</ele><time>2026-04-10T17:28:39.576Z</time></trkpt><trkpt lat="42.673272" lon="12.6602218"><ele>720.5</ele><time>2026-04-10T17:28:40.575Z</time></trkpt><trkpt lat="42.6733728" lon="12.6602563"><ele>720.0</ele><time>2026-04-10T17:28:41.576Z</time></trkpt><trkpt lat="42.6734519" lon="12.6603062"><ele>720.0</ele><time>2026-04-10T17:28:42.576Z</time></trkpt><trkpt lat="42.6735403" lon="12.6603688"><ele>720.0</ele><time>2026-04-10T17:28:43.573Z</time></trkpt><trkpt lat="42.6736277" lon="12.6604391"><ele>720.0</ele><time>2026-04-10T17:28:44.582Z</time></trkpt><trkpt lat="42.6737062" lon="12.6605199"><ele>720.0</ele><time>2026-04-10T17:28:45.585Z</time></trkpt><trkpt lat="42.6737766" lon="12.6606005"><ele>720.0</ele><time>2026-04-10T17:28:46.578Z</time></trkpt><trkpt lat="42.6738407" lon="12.6606448"><ele>721.5</ele><time>2026-04-10T17:28:47.578Z</time></trkpt><trkpt lat="42.6739032" lon="12.6606879"><ele>723.0</ele><time>2026-04-10T17:28:48.593Z</time></trkpt><trkpt lat="42.6739688" lon="12.660737"><ele>724.5</ele><time>2026-04-10T17:28:49.582Z</time></trkpt><trkpt lat="42.6740505" lon="12.6607998"><ele>726.0</ele><time>2026-04-10T17:28:50.601Z</time></trkpt><trkpt lat="42.6741355" lon="12.6608767"><ele>727.5</ele><time>2026-04-10T17:28:51.583Z</time></trkpt><trkpt lat="42.6742205" lon="12.660953"><ele>729.0</ele><time>2026-04-10T17:28:52.586Z</time></trkpt><trkpt lat="42.67431" lon="12.6610325"><ele>729.0</ele><time>2026-04-10T17:28:53.587Z</time></trkpt><trkpt lat="42.6744018" lon="12.6611151"><ele>729.0</ele><time>2026-04-10T17:28:54.585Z</time></trkpt><trkpt lat="42.6744984" lon="12.6612044"><ele>729.0</ele><time>2026-04-10T17:28:55.59Z</time></trkpt><trkpt lat="42.6745877" lon="12.6612874"><ele>729.0</ele><time>2026-04-10T17:28:56.588Z</time></trkpt><trkpt lat="42.6746693" lon="12.6613588"><ele>729.0</ele><time>2026-04-10T17:28:57.587Z</time></trkpt><trkpt lat="42.6747276" lon="12.6614417"><ele>728.8000000000001</ele><time>2026-04-10T17:28:58.58Z</time></trkpt><trkpt lat="42.6747742" lon="12.6615296"><ele>728.6</ele><time>2026-04-10T17:28:59.58Z</time></trkpt><trkpt lat="42.6748571" lon="12.6616524"><ele>728.4</ele><time>2026-04-10T17:29:01.598Z</time></trkpt><trkpt lat="42.6749312" lon="12.661707"><ele>728.2</ele><time>2026-04-10T17:29:02.58Z</time></trkpt><trkpt lat="42.6750157" lon="12.6617586"><ele>728.0</ele><time>2026-04-10T17:29:03.58Z</time></trkpt><trkpt lat="42.6751152" lon="12.6618327"><ele>728.0</ele><time>2026-04-10T17:29:04.581Z</time></trkpt><trkpt lat="42.6752013" lon="12.6619101"><ele>728.0</ele><time>2026-04-10T17:29:05.576Z</time></trkpt><trkpt lat="42.6752906" lon="12.661953"><ele>728.0</ele><time>2026-04-10T17:29:06.585Z</time></trkpt><trkpt lat="42.6753764" lon="12.6619684"><ele>728.0</ele><time>2026-04-10T17:29:07.573Z</time></trkpt><trkpt lat="42.6754611" lon="12.6619399"><ele>728.0</ele><time>2026-04-10T17:29:08.579Z</time></trkpt><trkpt lat="42.6755385" lon="12.6618893"><ele>728.4</ele><time>2026-04-10T17:29:09.569Z</time></trkpt><trkpt lat="42.6755961" lon="12.6618062"><ele>728.8</ele><time>2026-04-10T17:29:10.569Z</time></trkpt><trkpt lat="42.6756921" lon="12.6617224"><ele>729.2</ele><time>2026-04-10T17:29:11.578Z</time></trkpt><trkpt lat="42.675793" lon="12.6616369"><ele>729.6</ele><time>2026-04-10T17:29:12.573Z</time></trkpt><trkpt lat="42.675863" lon="12.6615407"><ele>730.0</ele><time>2026-04-10T17:29:13.583Z</time></trkpt><trkpt lat="42.6759394" lon="12.6614565"><ele>730.0</ele><time>2026-04-10T17:29:14.579Z</time></trkpt><trkpt lat="42.6760119" lon="12.6613773"><ele>730.0</ele><time>2026-04-10T17:29:15.578Z</time></trkpt><trkpt lat="42.6760862" lon="12.6613121"><ele>730.0</ele><time>2026-04-10T17:29:16.585Z</time></trkpt><trkpt lat="42.6761584" lon="12.6612606"><ele>730.0</ele><time>2026-04-10T17:29:17.582Z</time></trkpt><trkpt lat="42.676232" lon="12.6611924"><ele>730.0</ele><time>2026-04-10T17:29:18.584Z</time></trkpt><trkpt lat="42.6763216" lon="12.661126"><ele>730.5</ele><time>2026-04-10T17:29:19.598Z</time></trkpt><trkpt lat="42.6764325" lon="12.6610797"><ele>731.0</ele><time>2026-04-10T17:29:20.585Z</time></trkpt><trkpt lat="42.6765439" lon="12.6610442"><ele>731.5</ele><time>2026-04-10T17:29:21.593Z</time></trkpt><trkpt lat="42.676663" lon="12.6610192"><ele>732.0</ele><time>2026-04-10T17:29:22.58Z</time></trkpt><trkpt lat="42.6767727" lon="12.6610169"><ele>732.0</ele><time>2026-04-10T17:29:23.588Z</time></trkpt><trkpt lat="42.6768664" lon="12.6610203"><ele>732.0</ele><time>2026-04-10T17:29:24.586Z</time></trkpt><trkpt lat="42.6769506" lon="12.6610214"><ele>732.0</ele><time>2026-04-10T17:29:25.585Z</time></trkpt><trkpt lat="42.6770171" lon="12.6610036"><ele>732.0</ele><time>2026-04-10T17:29:26.581Z</time></trkpt><trkpt lat="42.677082" lon="12.6609776"><ele>732.0</ele><time>2026-04-10T17:29:27.578Z</time></trkpt><trkpt lat="42.6771601" lon="12.6608855"><ele>732.0</ele><time>2026-04-10T17:29:29.58Z</time></trkpt><trkpt lat="42.6772548" lon="12.6608452"><ele>732.6666666666666</ele><time>2026-04-10T17:29:31.58Z</time></trkpt><trkpt lat="42.6773232" lon="12.6608476"><ele>733.3333333333334</ele><time>2026-04-10T17:29:32.58Z</time></trkpt><trkpt lat="42.6773962" lon="12.6608451"><ele>734.0</ele><time>2026-04-10T17:29:33.579Z</time></trkpt><trkpt lat="42.6774797" lon="12.6608617"><ele>734.6666666666667</ele><time>2026-04-10T17:29:34.575Z</time></trkpt><trkpt lat="42.6775571" lon="12.660866"><ele>735.3333333333334</ele><time>2026-04-10T17:29:35.575Z</time></trkpt><trkpt lat="42.6776229" lon="12.6608846"><ele>736.0</ele><time>2026-04-10T17:29:36.581Z</time></trkpt><trkpt lat="42.6776911" lon="12.6609432"><ele>736.0</ele><time>2026-04-10T17:29:41.58Z</time></trkpt><trkpt lat="42.67776" lon="12.661"><ele>736.0</ele><time>2026-04-10T17:29:43.577Z</time></trkpt><trkpt lat="42.6778242" lon="12.6610397"><ele>736.0</ele><time>2026-04-10T17:29:44.57Z</time></trkpt><trkpt lat="42.6779162" lon="12.6610943"><ele>736.0</ele><time>2026-04-10T17:29:45.577Z</time></trkpt><trkpt lat="42.6780249" lon="12.6611392"><ele>736.0</ele><time>2026-04-10T17:29:46.572Z</time></trkpt><trkpt lat="42.6781655" lon="12.6611654"><ele>740.3333333333334</ele><time>2026-04-10T17:29:47.572Z</time></trkpt><trkpt lat="42.6783236" lon="12.6612015"><ele>744.6666666666666</ele><time>2026-04-10T17:29:48.575Z</time></trkpt><trkpt lat="42.6785167" lon="12.6612357"><ele>749.0</ele><time>2026-04-10T17:29:49.575Z</time></trkpt><trkpt lat="42.6787229" lon="12.6613227"><ele>749.3333333333333</ele><time>2026-04-10T17:29:50.601Z</time></trkpt><trkpt lat="42.6789088" lon="12.6613432"><ele>749.6666666666666</ele><time>2026-04-10T17:29:51.565Z</time></trkpt><trkpt lat="42.6790791" lon="12.6613448"><ele>750.0</ele><time>2026-04-10T17:29:52.578Z</time></trkpt><trkpt lat="42.6792571" lon="12.6613332"><ele>750.0</ele><time>2026-04-10T17:29:53.581Z</time></trkpt><trkpt lat="42.6794218" lon="12.6613144"><ele>750.0</ele><time>2026-04-10T17:29:54.587Z</time></trkpt><trkpt lat="42.679577" lon="12.6612951"><ele>750.0</ele><time>2026-04-10T17:29:55.579Z</time></trkpt><trkpt lat="42.6797124" lon="12.6612835"><ele>752.0</ele><time>2026-04-10T17:29:56.582Z</time></trkpt><trkpt lat="42.6798454" lon="12.6612628"><ele>754.0</ele><time>2026-04-10T17:29:57.582Z</time></trkpt><trkpt lat="42.6799324" lon="12.6612383"><ele>756.0</ele><time>2026-04-10T17:29:58.586Z</time></trkpt><trkpt lat="42.6800388" lon="12.6612297"><ele>758.0</ele><time>2026-04-10T17:29:59.583Z</time></trkpt><trkpt lat="42.6801838" lon="12.6612624"><ele>758.0</ele><time>2026-04-10T17:30:01.584Z</time></trkpt><trkpt lat="42.6802663" lon="12.6613124"><ele>758.0</ele><time>2026-04-10T17:30:02.581Z</time></trkpt><trkpt lat="42.6803444" lon="12.6613747"><ele>758.0</ele><time>2026-04-10T17:30:03.583Z</time></trkpt><trkpt lat="42.6804272" lon="12.6614152"><ele>758.0</ele><time>2026-04-10T17:30:04.581Z</time></trkpt><trkpt lat="42.6805261" lon="12.6614466"><ele>758.0</ele><time>2026-04-10T17:30:05.582Z</time></trkpt><trkpt lat="42.6806257" lon="12.6614845"><ele>760.25</ele><time>2026-04-10T17:30:06.582Z</time></trkpt><trkpt lat="42.6807385" lon="12.6615318"><ele>762.5</ele><time>2026-04-10T17:30:07.58Z</time></trkpt><trkpt lat="42.6808491" lon="12.6616118"><ele>764.75</ele><time>2026-04-10T17:30:08.583Z</time></trkpt><trkpt lat="42.6809616" lon="12.6616923"><ele>767.0</ele><time>2026-04-10T17:30:09.579Z</time></trkpt><trkpt lat="42.6810717" lon="12.6617612"><ele>768.25</ele><time>2026-04-10T17:30:10.583Z</time></trkpt><trkpt lat="42.6811932" lon="12.661809"><ele>769.5</ele><time>2026-04-10T17:30:11.582Z</time></trkpt><trkpt lat="42.6813298" lon="12.6618648"><ele>770.75</ele><time>2026-04-10T17:30:12.583Z</time></trkpt><trkpt lat="42.6814436" lon="12.6619354"><ele>772.0</ele><time>2026-04-10T17:30:13.584Z</time></trkpt><trkpt lat="42.6815549" lon="12.6620054"><ele>773.25</ele><time>2026-04-10T17:30:14.584Z</time></trkpt><trkpt lat="42.6816725" lon="12.6620771"><ele>774.5</ele><time>2026-04-10T17:30:15.585Z</time></trkpt><trkpt lat="42.6817876" lon="12.6621448"><ele>775.75</ele><time>2026-04-10T17:30:16.585Z</time></trkpt><trkpt lat="42.6819016" lon="12.6622101"><ele>777.0</ele><time>2026-04-10T17:30:17.582Z</time></trkpt><trkpt lat="42.6820126" lon="12.6622617"><ele>777.0</ele><time>2026-04-10T17:30:18.581Z</time></trkpt><trkpt lat="42.6821144" lon="12.6622919"><ele>777.0</ele><time>2026-04-10T17:30:19.579Z</time></trkpt><trkpt lat="42.6822348" lon="12.6623086"><ele>777.0</ele><time>2026-04-10T17:30:20.59Z</time></trkpt><trkpt lat="42.6823424" lon="12.662321"><ele>777.0</ele><time>2026-04-10T17:30:21.579Z</time></trkpt><trkpt lat="42.6824599" lon="12.6623154"><ele>777.0</ele><time>2026-04-10T17:30:22.572Z</time></trkpt><trkpt lat="42.6825695" lon="12.6622901"><ele>777.0</ele><time>2026-04-10T17:30:23.587Z</time></trkpt><trkpt lat="42.6826616" lon="12.6622823"><ele>777.0</ele><time>2026-04-10T17:30:24.571Z</time></trkpt><trkpt lat="42.6827381" lon="12.6622851"><ele>777.0</ele><time>2026-04-10T17:30:25.581Z</time></trkpt><trkpt lat="42.6828009" lon="12.6622757"><ele>777.0</ele><time>2026-04-10T17:30:26.583Z</time></trkpt><trkpt lat="42.6828807" lon="12.6622919"><ele>777.0</ele><time>2026-04-10T17:30:27.586Z</time></trkpt><trkpt lat="42.6829694" lon="12.662335"><ele>776.4000000000001</ele><time>2026-04-10T17:30:28.593Z</time></trkpt><trkpt lat="42.6830388" lon="12.6624217"><ele>775.8000000000001</ele><time>2026-04-10T17:30:29.589Z</time></trkpt><trkpt lat="42.6831061" lon="12.6625221"><ele>775.2</ele><time>2026-04-10T17:30:30.597Z</time></trkpt><trkpt lat="42.6831755" lon="12.6626058"><ele>774.6</ele><time>2026-04-10T17:30:31.598Z</time></trkpt><trkpt lat="42.6832432" lon="12.6626819"><ele>774.0</ele><time>2026-04-10T17:30:32.596Z</time></trkpt><trkpt lat="42.6833028" lon="12.6627483"><ele>773.4000000000001</ele><time>2026-04-10T17:30:33.591Z</time></trkpt><trkpt lat="42.6833454" lon="12.6628131"><ele>772.8</ele><time>2026-04-10T17:30:34.59Z</time></trkpt><trkpt lat="42.6833889" lon="12.6629726"><ele>772.2</ele><time>2026-04-10T17:30:36.589Z</time></trkpt><trkpt lat="42.683386" lon="12.6630986"><ele>771.5999999999999</ele><time>2026-04-10T17:30:37.579Z</time></trkpt><trkpt lat="42.6833781" lon="12.6632438"><ele>771.0</ele><time>2026-04-10T17:30:38.587Z</time></trkpt><trkpt lat="42.6833846" lon="12.6633907"><ele>771.0</ele><time>2026-04-10T17:30:39.579Z</time></trkpt><trkpt lat="42.6833971" lon="12.6635122"><ele>771.0</ele><time>2026-04-10T17:30:40.578Z</time></trkpt><trkpt lat="42.6834113" lon="12.6636239"><ele>771.0</ele><time>2026-04-10T17:30:41.573Z</time></trkpt><trkpt lat="42.6834417" lon="12.6636997"><ele>771.0</ele><time>2026-04-10T17:30:42.571Z</time></trkpt><trkpt lat="42.6835048" lon="12.6637759"><ele>771.0</ele><time>2026-04-10T17:30:43.574Z</time></trkpt><trkpt lat="42.6835607" lon="12.6638296"><ele>771.0</ele><time>2026-04-10T17:30:44.574Z</time></trkpt><trkpt lat="42.6836321" lon="12.6638762"><ele>766.5999999999999</ele><time>2026-04-10T17:30:45.578Z</time></trkpt><trkpt lat="42.6837149" lon="12.663915"><ele>762.2</ele><time>2026-04-10T17:30:46.583Z</time></trkpt><trkpt lat="42.6837978" lon="12.663958"><ele>757.8</ele><time>2026-04-10T17:30:47.577Z</time></trkpt><trkpt lat="42.6838773" lon="12.6640264"><ele>753.4000000000001</ele><time>2026-04-10T17:30:48.565Z</time></trkpt><trkpt lat="42.6839622" lon="12.664114"><ele>749.0</ele><time>2026-04-10T17:30:49.577Z</time></trkpt><trkpt lat="42.6840441" lon="12.6642289"><ele>749.0</ele><time>2026-04-10T17:30:50.574Z</time></trkpt><trkpt lat="42.6841358" lon="12.6643408"><ele>749.0</ele><time>2026-04-10T17:30:51.592Z</time></trkpt><trkpt lat="42.6842235" lon="12.6644453"><ele>749.0</ele><time>2026-04-10T17:30:52.572Z</time></trkpt><trkpt lat="42.684311" lon="12.6645416"><ele>749.0</ele><time>2026-04-10T17:30:53.588Z</time></trkpt><trkpt lat="42.6843938" lon="12.6646234"><ele>747.6</ele><time>2026-04-10T17:30:54.581Z</time></trkpt><trkpt lat="42.6844801" lon="12.66468"><ele>746.2</ele><time>2026-04-10T17:30:55.58Z</time></trkpt><trkpt lat="42.6845709" lon="12.6647096"><ele>744.8000000000001</ele><time>2026-04-10T17:30:56.576Z</time></trkpt><trkpt lat="42.6846658" lon="12.6647175"><ele>743.4000000000001</ele><time>2026-04-10T17:30:57.572Z</time></trkpt><trkpt lat="42.6847654" lon="12.6647164"><ele>742.0</ele><time>2026-04-10T17:30:58.577Z</time></trkpt><trkpt lat="42.684863" lon="12.6647249"><ele>742.0</ele><time>2026-04-10T17:30:59.58Z</time></trkpt><trkpt lat="42.6849643" lon="12.6647461"><ele>742.0</ele><time>2026-04-10T17:31:00.576Z</time></trkpt><trkpt lat="42.6850574" lon="12.6647747"><ele>742.0</ele><time>2026-04-10T17:31:01.575Z</time></trkpt><trkpt lat="42.6851621" lon="12.6648299"><ele>742.0</ele><time>2026-04-10T17:31:02.571Z</time></trkpt><trkpt lat="42.6852788" lon="12.6648941"><ele>742.0</ele><time>2026-04-10T17:31:03.564Z</time></trkpt><trkpt lat="42.6854199" lon="12.664965"><ele>736.75</ele><time>2026-04-10T17:31:04.571Z</time></trkpt><trkpt lat="42.6855678" lon="12.6650197"><ele>731.5</ele><time>2026-04-10T17:31:05.575Z</time></trkpt><trkpt lat="42.6857142" lon="12.6650685"><ele>726.25</ele><time>2026-04-10T17:31:06.571Z</time></trkpt><trkpt lat="42.6858419" lon="12.6651383"><ele>721.0</ele><time>2026-04-10T17:31:07.573Z</time></trkpt><trkpt lat="42.6859495" lon="12.6652007"><ele>720.25</ele><time>2026-04-10T17:31:08.58Z</time></trkpt><trkpt lat="42.6860547" lon="12.6652885"><ele>719.5</ele><time>2026-04-10T17:31:09.588Z</time></trkpt><trkpt lat="42.6861647" lon="12.6654042"><ele>718.75</ele><time>2026-04-10T17:31:10.59Z</time></trkpt><trkpt lat="42.6862608" lon="12.665522"><ele>718.0</ele><time>2026-04-10T17:31:11.588Z</time></trkpt><trkpt lat="42.6863139" lon="12.6656278"><ele>718.0</ele><time>2026-04-10T17:31:12.583Z</time></trkpt><trkpt lat="42.6864004" lon="12.6657392"><ele>718.0</ele><time>2026-04-10T17:31:14.571Z</time></trkpt><trkpt lat="42.6864682" lon="12.6657529"><ele>718.0</ele><time>2026-04-10T17:31:15.572Z</time></trkpt><trkpt lat="42.6865628" lon="12.6657509"><ele>718.0</ele><time>2026-04-10T17:31:16.587Z</time></trkpt><trkpt lat="42.6866623" lon="12.6657568"><ele>718.0</ele><time>2026-04-10T17:31:17.589Z</time></trkpt><trkpt lat="42.6867675" lon="12.6657928"><ele>718.0</ele><time>2026-04-10T17:31:18.593Z</time></trkpt><trkpt lat="42.686872" lon="12.6658789"><ele>718.0</ele><time>2026-04-10T17:31:19.585Z</time></trkpt><trkpt lat="42.6869734" lon="12.6659796"><ele>718.0</ele><time>2026-04-10T17:31:20.595Z</time></trkpt><trkpt lat="42.6870662" lon="12.6660719"><ele>718.0</ele><time>2026-04-10T17:31:21.583Z</time></trkpt><trkpt lat="42.6871576" lon="12.6661365"><ele>716.5</ele><time>2026-04-10T17:31:22.6Z</time></trkpt><trkpt lat="42.687237" lon="12.6661742"><ele>715.0</ele><time>2026-04-10T17:31:23.584Z</time></trkpt><trkpt lat="42.687315" lon="12.6661892"><ele>713.5</ele><time>2026-04-10T17:31:24.594Z</time></trkpt><trkpt lat="42.6873893" lon="12.6662017"><ele>712.0</ele><time>2026-04-10T17:31:25.589Z</time></trkpt><trkpt lat="42.6874835" lon="12.6662769"><ele>710.5</ele><time>2026-04-10T17:31:27.582Z</time></trkpt><trkpt lat="42.6875058" lon="12.6663939"><ele>709.0</ele><time>2026-04-10T17:31:30.601Z</time></trkpt><trkpt lat="42.6875015" lon="12.6664929"><ele>709.0</ele><time>2026-04-10T17:31:32.593Z</time></trkpt><trkpt lat="42.6874958" lon="12.6663801"><ele>709.0</ele><time>2026-04-10T17:32:08.593Z</time></trkpt><trkpt lat="42.6875416" lon="12.6663074"><ele>709.0</ele><time>2026-04-10T17:32:11.595Z</time></trkpt><trkpt lat="42.6875897" lon="12.6662448"><ele>709.0</ele><time>2026-04-10T17:32:13.597Z</time></trkpt><trkpt lat="42.6876573" lon="12.6661475"><ele>709.0</ele><time>2026-04-10T17:32:15.594Z</time></trkpt><trkpt lat="42.6877363" lon="12.6660984"><ele>709.0</ele><time>2026-04-10T17:32:17.584Z</time></trkpt><trkpt lat="42.6878093" lon="12.666113"><ele>705.0</ele><time>2026-04-10T17:32:19.592Z</time></trkpt><trkpt lat="42.687899" lon="12.666128"><ele>701.0</ele><time>2026-04-10T17:32:21.59Z</time></trkpt><trkpt lat="42.6879388" lon="12.6662363"><ele>697.0</ele><time>2026-04-10T17:32:23.589Z</time></trkpt><trkpt lat="42.6879153" lon="12.6663944"><ele>693.0</ele><time>2026-04-10T17:32:25.588Z</time></trkpt><trkpt lat="42.6878826" lon="12.6665078"><ele>689.0</ele><time>2026-04-10T17:32:26.6Z</time></trkpt><trkpt lat="42.6878424" lon="12.6666279"><ele>689.0</ele><time>2026-04-10T17:32:27.578Z</time></trkpt><trkpt lat="42.6877939" lon="12.6667537"><ele>689.0</ele><time>2026-04-10T17:32:28.578Z</time></trkpt><trkpt lat="42.6877315" lon="12.666897"><ele>689.0</ele><time>2026-04-10T17:32:29.581Z</time></trkpt><trkpt lat="42.6876639" lon="12.6670495"><ele>689.0</ele><time>2026-04-10T17:32:30.581Z</time></trkpt><trkpt lat="42.6876111" lon="12.6672045"><ele>692.6</ele><time>2026-04-10T17:32:31.582Z</time></trkpt><trkpt lat="42.6875759" lon="12.6673597"><ele>696.2</ele><time>2026-04-10T17:32:32.571Z</time></trkpt><trkpt lat="42.6875584" lon="12.667496"><ele>699.8000000000001</ele><time>2026-04-10T17:32:33.568Z</time></trkpt><trkpt lat="42.6875523" lon="12.6676156"><ele>703.4000000000001</ele><time>2026-04-10T17:32:34.56Z</time></trkpt><trkpt lat="42.6875507" lon="12.6677151"><ele>707.0</ele><time>2026-04-10T17:32:35.567Z</time></trkpt><trkpt lat="42.6875861" lon="12.6677928"><ele>709.0</ele><time>2026-04-10T17:32:36.568Z</time></trkpt><trkpt lat="42.6876374" lon="12.6678462"><ele>711.0</ele><time>2026-04-10T17:32:37.571Z</time></trkpt><trkpt lat="42.6877067" lon="12.6678739"><ele>713.0</ele><time>2026-04-10T17:32:38.564Z</time></trkpt><trkpt lat="42.6877989" lon="12.6678593"><ele>715.0</ele><time>2026-04-10T17:32:39.565Z</time></trkpt><trkpt lat="42.6879125" lon="12.6678007"><ele>717.0</ele><time>2026-04-10T17:32:40.578Z</time></trkpt><trkpt lat="42.6880363" lon="12.6677196"><ele>712.0</ele><time>2026-04-10T17:32:41.577Z</time></trkpt><trkpt lat="42.688158" lon="12.6676702"><ele>707.0</ele><time>2026-04-10T17:32:42.579Z</time></trkpt><trkpt lat="42.688278" lon="12.6676356"><ele>702.0</ele><time>2026-04-10T17:32:43.571Z</time></trkpt><trkpt lat="42.6883894" lon="12.6676316"><ele>697.0</ele><time>2026-04-10T17:32:44.573Z</time></trkpt><trkpt lat="42.6884944" lon="12.667655"><ele>697.0</ele><time>2026-04-10T17:32:45.577Z</time></trkpt><trkpt lat="42.6885782" lon="12.6677162"><ele>697.0</ele><time>2026-04-10T17:32:46.578Z</time></trkpt><trkpt lat="42.6886424" lon="12.6678095"><ele>697.0</ele><time>2026-04-10T17:32:47.584Z</time></trkpt><trkpt lat="42.6886877" lon="12.6679059"><ele>697.0</ele><time>2026-04-10T17:32:48.577Z</time></trkpt><trkpt lat="42.6887236" lon="12.6680291"><ele>697.0</ele><time>2026-04-10T17:32:49.576Z</time></trkpt><trkpt lat="42.688767" lon="12.6681814"><ele>698.6</ele><time>2026-04-10T17:32:50.581Z</time></trkpt><trkpt lat="42.6887946" lon="12.6683432"><ele>700.2</ele><time>2026-04-10T17:32:51.572Z</time></trkpt><trkpt lat="42.6888304" lon="12.6684921"><ele>701.8</ele><time>2026-04-10T17:32:52.572Z</time></trkpt><trkpt lat="42.6888662" lon="12.6686242"><ele>703.4</ele><time>2026-04-10T17:32:53.569Z</time></trkpt><trkpt lat="42.6889206" lon="12.6687219"><ele>705.0</ele><time>2026-04-10T17:32:54.56Z</time></trkpt><trkpt lat="42.6889845" lon="12.6687324"><ele>705.0</ele><time>2026-04-10T17:32:55.572Z</time></trkpt><trkpt lat="42.689073" lon="12.6687229"><ele>705.0</ele><time>2026-04-10T17:32:56.567Z</time></trkpt><trkpt lat="42.6891546" lon="12.66863"><ele>705.0</ele><time>2026-04-10T17:32:57.576Z</time></trkpt><trkpt lat="42.6892713" lon="12.6685002"><ele>705.0</ele><time>2026-04-10T17:32:58.57Z</time></trkpt><trkpt lat="42.6893824" lon="12.6683945"><ele>703.8</ele><time>2026-04-10T17:32:59.569Z</time></trkpt><trkpt lat="42.6894848" lon="12.6683456"><ele>702.6</ele><time>2026-04-10T17:33:00.577Z</time></trkpt><trkpt lat="42.6895727" lon="12.6683173"><ele>701.4000000000001</ele><time>2026-04-10T17:33:01.58Z</time></trkpt><trkpt lat="42.6896715" lon="12.6683467"><ele>700.2</ele><time>2026-04-10T17:33:02.575Z</time></trkpt><trkpt lat="42.6897663" lon="12.6683893"><ele>699.0</ele><time>2026-04-10T17:33:03.587Z</time></trkpt><trkpt lat="42.6898571" lon="12.6684642"><ele>699.0</ele><time>2026-04-10T17:33:04.587Z</time></trkpt><trkpt lat="42.6899308" lon="12.668548"><ele>699.0</ele><time>2026-04-10T17:33:05.586Z</time></trkpt><trkpt lat="42.689983" lon="12.6686355"><ele>699.0</ele><time>2026-04-10T17:33:06.584Z</time></trkpt><trkpt lat="42.6900001" lon="12.6687227"><ele>699.0</ele><time>2026-04-10T17:33:07.589Z</time></trkpt><trkpt lat="42.6899901" lon="12.6688309"><ele>699.0</ele><time>2026-04-10T17:33:08.589Z</time></trkpt><trkpt lat="42.689961" lon="12.6689531"><ele>699.0</ele><time>2026-04-10T17:33:09.572Z</time></trkpt><trkpt lat="42.6899227" lon="12.6690853"><ele>699.5</ele><time>2026-04-10T17:33:10.583Z</time></trkpt><trkpt lat="42.6898905" lon="12.6692465"><ele>700.0</ele><time>2026-04-10T17:33:11.579Z</time></trkpt><trkpt lat="42.689863" lon="12.6694349"><ele>700.5</ele><time>2026-04-10T17:33:12.572Z</time></trkpt><trkpt lat="42.6898438" lon="12.6696505"><ele>701.0</ele><time>2026-04-10T17:33:13.577Z</time></trkpt><trkpt lat="42.6898289" lon="12.6698679"><ele>699.0</ele><time>2026-04-10T17:33:14.567Z</time></trkpt><trkpt lat="42.6897989" lon="12.6700999"><ele>697.0</ele><time>2026-04-10T17:33:15.568Z</time></trkpt><trkpt lat="42.6897869" lon="12.6703414"><ele>695.0</ele><time>2026-04-10T17:33:16.572Z</time></trkpt><trkpt lat="42.6897693" lon="12.6705007"><ele>694.2</ele><time>2026-04-10T17:33:17.569Z</time></trkpt><trkpt lat="42.6897414" lon="12.6706483"><ele>693.4</ele><time>2026-04-10T17:33:18.57Z</time></trkpt><trkpt lat="42.6897558" lon="12.6707757"><ele>692.5999999999999</ele><time>2026-04-10T17:33:19.567Z</time></trkpt><trkpt lat="42.6897532" lon="12.670904"><ele>691.8</ele><time>2026-04-10T17:33:20.565Z</time></trkpt><trkpt lat="42.6897735" lon="12.6710479"><ele>691.0</ele><time>2026-04-10T17:33:21.561Z</time></trkpt><trkpt lat="42.6898238" lon="12.6712075"><ele>690.75</ele><time>2026-04-10T17:33:22.568Z</time></trkpt><trkpt lat="42.6898646" lon="12.6713745"><ele>690.5</ele><time>2026-04-10T17:33:23.567Z</time></trkpt><trkpt lat="42.6899009" lon="12.6715621"><ele>690.25</ele><time>2026-04-10T17:33:24.567Z</time></trkpt><trkpt lat="42.6899158" lon="12.6717457"><ele>690.0</ele><time>2026-04-10T17:33:25.564Z</time></trkpt><trkpt lat="42.6899352" lon="12.6719137"><ele>690.0</ele><time>2026-04-10T17:33:26.581Z</time></trkpt><trkpt lat="42.6899498" lon="12.6720822"><ele>690.0</ele><time>2026-04-10T17:33:27.568Z</time></trkpt><trkpt lat="42.6899924" lon="12.6722803"><ele>690.0</ele><time>2026-04-10T17:33:28.577Z</time></trkpt><trkpt lat="42.6900401" lon="12.6724551"><ele>690.0</ele><time>2026-04-10T17:33:29.575Z</time></trkpt><trkpt lat="42.6901024" lon="12.67266"><ele>690.0</ele><time>2026-04-10T17:33:30.574Z</time></trkpt><trkpt lat="42.690156" lon="12.6728443"><ele>690.0</ele><time>2026-04-10T17:33:31.581Z</time></trkpt><trkpt lat="42.6902013" lon="12.673001"><ele>690.0</ele><time>2026-04-10T17:33:32.577Z</time></trkpt><trkpt lat="42.690245" lon="12.6731967"><ele>690.0</ele><time>2026-04-10T17:33:33.576Z</time></trkpt><trkpt lat="42.6902963" lon="12.6733359"><ele>686.6666666666666</ele><time>2026-04-10T17:33:34.568Z</time></trkpt><trkpt lat="42.6903239" lon="12.6734473"><ele>683.3333333333334</ele><time>2026-04-10T17:33:35.569Z</time></trkpt><trkpt lat="42.6903866" lon="12.6735358"><ele>680.0</ele><time>2026-04-10T17:33:36.577Z</time></trkpt><trkpt lat="42.6904829" lon="12.6736102"><ele>676.6666666666667</ele><time>2026-04-10T17:33:37.579Z</time></trkpt><trkpt lat="42.6905433" lon="12.673674"><ele>673.3333333333334</ele><time>2026-04-10T17:33:38.57Z</time></trkpt><trkpt lat="42.6906076" lon="12.6736975"><ele>670.0</ele><time>2026-04-10T17:33:39.579Z</time></trkpt><trkpt lat="42.6906989" lon="12.6737611"><ele>670.0</ele><time>2026-04-10T17:33:41.575Z</time></trkpt><trkpt lat="42.6907448" lon="12.6738622"><ele>670.0</ele><time>2026-04-10T17:33:43.582Z</time></trkpt><trkpt lat="42.6906756" lon="12.6739602"><ele>670.0</ele><time>2026-04-10T17:33:45.59Z</time></trkpt><trkpt lat="42.6906108" lon="12.6739902"><ele>670.0</ele><time>2026-04-10T17:33:46.586Z</time></trkpt><trkpt lat="42.6905258" lon="12.6739923"><ele>670.0</ele><time>2026-04-10T17:33:47.587Z</time></trkpt><trkpt lat="42.6904332" lon="12.6739774"><ele>670.0</ele><time>2026-04-10T17:33:48.579Z</time></trkpt><trkpt lat="42.690357" lon="12.6739707"><ele>670.0</ele><time>2026-04-10T17:33:49.586Z</time></trkpt><trkpt lat="42.6902865" lon="12.6739686"><ele>670.0</ele><time>2026-04-10T17:33:50.583Z</time></trkpt><trkpt lat="42.6902264" lon="12.6739954"><ele>670.0</ele><time>2026-04-10T17:33:51.577Z</time></trkpt><trkpt lat="42.6901534" lon="12.6741084"><ele>670.0</ele><time>2026-04-10T17:33:53.569Z</time></trkpt><trkpt lat="42.6901452" lon="12.6741944"><ele>670.0</ele><time>2026-04-10T17:33:54.571Z</time></trkpt><trkpt lat="42.6901652" lon="12.6743144"><ele>670.0</ele><time>2026-04-10T17:33:55.574Z</time></trkpt><trkpt lat="42.6902135" lon="12.6744414"><ele>669.3333333333334</ele><time>2026-04-10T17:33:56.567Z</time></trkpt><trkpt lat="42.6902852" lon="12.6745698"><ele>668.6666666666666</ele><time>2026-04-10T17:33:57.577Z</time></trkpt><trkpt lat="42.6904093" lon="12.6747041"><ele>668.0</ele><time>2026-04-10T17:33:58.57Z</time></trkpt><trkpt lat="42.6905512" lon="12.6748443"><ele>668.0</ele><time>2026-04-10T17:33:59.577Z</time></trkpt><trkpt lat="42.6907217" lon="12.6749998"><ele>668.0</ele><time>2026-04-10T17:34:00.574Z</time></trkpt><trkpt lat="42.6908609" lon="12.6751698"><ele>668.0</ele><time>2026-04-10T17:34:01.58Z</time></trkpt><trkpt lat="42.6909833" lon="12.6753024"><ele>670.75</ele><time>2026-04-10T17:34:02.57Z</time></trkpt><trkpt lat="42.6910873" lon="12.6753942"><ele>673.5</ele><time>2026-04-10T17:34:03.569Z</time></trkpt><trkpt lat="42.6911757" lon="12.6754765"><ele>676.25</ele><time>2026-04-10T17:34:04.566Z</time></trkpt><trkpt lat="42.6912491" lon="12.6755839"><ele>679.0</ele><time>2026-04-10T17:34:05.569Z</time></trkpt><trkpt lat="42.6913141" lon="12.6757071"><ele>674.0</ele><time>2026-04-10T17:34:06.58Z</time></trkpt><trkpt lat="42.6913446" lon="12.6758115"><ele>669.0</ele><time>2026-04-10T17:34:07.574Z</time></trkpt><trkpt lat="42.6913801" lon="12.6758932"><ele>664.0</ele><time>2026-04-10T17:34:08.579Z</time></trkpt><trkpt lat="42.6914448" lon="12.6759642"><ele>659.0</ele><time>2026-04-10T17:34:09.573Z</time></trkpt><trkpt lat="42.691539" lon="12.6760252"><ele>654.0</ele><time>2026-04-10T17:34:10.573Z</time></trkpt><trkpt lat="42.6916476" lon="12.6760768"><ele>658.0</ele><time>2026-04-10T17:34:11.572Z</time></trkpt><trkpt lat="42.6917738" lon="12.6761268"><ele>662.0</ele><time>2026-04-10T17:34:12.574Z</time></trkpt><trkpt lat="42.6919164" lon="12.6761788"><ele>666.0</ele><time>2026-04-10T17:34:13.574Z</time></trkpt><trkpt lat="42.6920703" lon="12.676233"><ele>670.0</ele><time>2026-04-10T17:34:14.566Z</time></trkpt><trkpt lat="42.6922458" lon="12.6762421"><ele>670.0</ele><time>2026-04-10T17:34:15.576Z</time></trkpt><trkpt lat="42.692439" lon="12.6762175"><ele>670.0</ele><time>2026-04-10T17:34:16.575Z</time></trkpt><trkpt lat="42.6926236" lon="12.6762127"><ele>670.0</ele><time>2026-04-10T17:34:17.572Z</time></trkpt><trkpt lat="42.6927734" lon="12.6761935"><ele>668.2</ele><time>2026-04-10T17:34:18.566Z</time></trkpt><trkpt lat="42.6928866" lon="12.6761789"><ele>666.4</ele><time>2026-04-10T17:34:19.573Z</time></trkpt><trkpt lat="42.6929807" lon="12.6761655"><ele>664.5999999999999</ele><time>2026-04-10T17:34:20.579Z</time></trkpt><trkpt lat="42.6930474" lon="12.6761817"><ele>662.8</ele><time>2026-04-10T17:34:21.578Z</time></trkpt><trkpt lat="42.693121" lon="12.6762506"><ele>661.0</ele><time>2026-04-10T17:34:22.583Z</time></trkpt><trkpt lat="42.6931895" lon="12.676329"><ele>661.0</ele><time>2026-04-10T17:34:23.585Z</time></trkpt><trkpt lat="42.6932569" lon="12.6764231"><ele>661.0</ele><time>2026-04-10T17:34:24.585Z</time></trkpt><trkpt lat="42.6933402" lon="12.6765001"><ele>661.0</ele><time>2026-04-10T17:34:25.577Z</time></trkpt><trkpt lat="42.693443" lon="12.6765529"><ele>661.0</ele><time>2026-04-10T17:34:26.58Z</time></trkpt><trkpt lat="42.6935647" lon="12.6765785"><ele>661.0</ele><time>2026-04-10T17:34:27.58Z</time></trkpt><trkpt lat="42.6937074" lon="12.6765883"><ele>659.25</ele><time>2026-04-10T17:34:28.612Z</time></trkpt><trkpt lat="42.6938475" lon="12.6766098"><ele>657.5</ele><time>2026-04-10T17:34:29.589Z</time></trkpt><trkpt lat="42.6939898" lon="12.6766425"><ele>655.75</ele><time>2026-04-10T17:34:30.589Z</time></trkpt><trkpt lat="42.6941148" lon="12.6766746"><ele>654.0</ele><time>2026-04-10T17:34:31.588Z</time></trkpt><trkpt lat="42.6942143" lon="12.6767063"><ele>654.0</ele><time>2026-04-10T17:34:32.582Z</time></trkpt><trkpt lat="42.6942996" lon="12.6767572"><ele>654.0</ele><time>2026-04-10T17:34:33.578Z</time></trkpt><trkpt lat="42.694373" lon="12.6768444"><ele>654.0</ele><time>2026-04-10T17:34:34.575Z</time></trkpt><trkpt lat="42.6944291" lon="12.676934"><ele>654.0</ele><time>2026-04-10T17:34:35.576Z</time></trkpt><trkpt lat="42.6944863" lon="12.6770472"><ele>654.0</ele><time>2026-04-10T17:34:36.571Z</time></trkpt><trkpt lat="42.6945535" lon="12.677173"><ele>652.75</ele><time>2026-04-10T17:34:37.577Z</time></trkpt><trkpt lat="42.6946349" lon="12.6773147"><ele>651.5</ele><time>2026-04-10T17:34:38.579Z</time></trkpt><trkpt lat="42.6947235" lon="12.677474"><ele>650.25</ele><time>2026-04-10T17:34:39.575Z</time></trkpt><trkpt lat="42.6947996" lon="12.6776575"><ele>649.0</ele><time>2026-04-10T17:34:40.573Z</time></trkpt><trkpt lat="42.6948794" lon="12.6778559"><ele>652.6666666666667</ele><time>2026-04-10T17:34:41.574Z</time></trkpt><trkpt lat="42.6949544" lon="12.6780676"><ele>656.3333333333334</ele><time>2026-04-10T17:34:42.576Z</time></trkpt><trkpt lat="42.6950364" lon="12.6782742"><ele>660.0</ele><time>2026-04-10T17:34:43.578Z</time></trkpt><trkpt lat="42.695128" lon="12.6784669"><ele>658.6666666666666</ele><time>2026-04-10T17:34:44.582Z</time></trkpt><trkpt lat="42.6952128" lon="12.6786499"><ele>657.3333333333333</ele><time>2026-04-10T17:34:45.578Z</time></trkpt><trkpt lat="42.6952872" lon="12.6788294"><ele>656.0</ele><time>2026-04-10T17:34:46.579Z</time></trkpt><trkpt lat="42.6953585" lon="12.6790067"><ele>656.0</ele><time>2026-04-10T17:34:47.578Z</time></trkpt><trkpt lat="42.6954251" lon="12.6791575"><ele>656.0</ele><time>2026-04-10T17:34:48.578Z</time></trkpt><trkpt lat="42.6954737" lon="12.6793"><ele>656.0</ele><time>2026-04-10T17:34:49.571Z</time></trkpt><trkpt lat="42.6955122" lon="12.679421"><ele>656.0</ele><time>2026-04-10T17:34:50.57Z</time></trkpt><trkpt lat="42.695549" lon="12.6795169"><ele>656.0</ele><time>2026-04-10T17:34:51.57Z</time></trkpt><trkpt lat="42.6956588" lon="12.6795641"><ele>656.0</ele><time>2026-04-10T17:34:53.57Z</time></trkpt><trkpt lat="42.6957212" lon="12.6795276"><ele>656.0</ele><time>2026-04-10T17:34:54.576Z</time></trkpt><trkpt lat="42.6957911" lon="12.6794565"><ele>656.0</ele><time>2026-04-10T17:34:55.573Z</time></trkpt><trkpt lat="42.695859" lon="12.6793925"><ele>656.0</ele><time>2026-04-10T17:34:56.565Z</time></trkpt><trkpt lat="42.6959256" lon="12.6793471"><ele>656.0</ele><time>2026-04-10T17:34:57.565Z</time></trkpt><trkpt lat="42.6959949" lon="12.67936"><ele>656.0</ele><time>2026-04-10T17:34:58.583Z</time></trkpt><trkpt lat="42.6961065" lon="12.6794304"><ele>657.0</ele><time>2026-04-10T17:35:00.583Z</time></trkpt><trkpt lat="42.6961866" lon="12.6795004"><ele>658.0</ele><time>2026-04-10T17:35:02.575Z</time></trkpt><trkpt lat="42.6962797" lon="12.6795807"><ele>659.0</ele><time>2026-04-10T17:35:04.575Z</time></trkpt><trkpt lat="42.6963415" lon="12.6796215"><ele>660.0</ele><time>2026-04-10T17:35:05.578Z</time></trkpt><trkpt lat="42.6964061" lon="12.6796565"><ele>661.0</ele><time>2026-04-10T17:35:06.579Z</time></trkpt><trkpt lat="42.6964738" lon="12.6796917"><ele>662.0</ele><time>2026-04-10T17:35:07.576Z</time></trkpt><trkpt lat="42.6965359" lon="12.6797475"><ele>662.0</ele><time>2026-04-10T17:35:08.575Z</time></trkpt><trkpt lat="42.6965922" lon="12.6798334"><ele>662.0</ele><time>2026-04-10T17:35:09.573Z</time></trkpt><trkpt lat="42.6966345" lon="12.6799385"><ele>662.0</ele><time>2026-04-10T17:35:10.57Z</time></trkpt><trkpt lat="42.6966634" lon="12.6800495"><ele>662.0</ele><time>2026-04-10T17:35:11.582Z</time></trkpt><trkpt lat="42.6966688" lon="12.6801618"><ele>662.0</ele><time>2026-04-10T17:35:12.578Z</time></trkpt><trkpt lat="42.6966691" lon="12.6802817"><ele>662.0</ele><time>2026-04-10T17:35:13.583Z</time></trkpt><trkpt lat="42.6966799" lon="12.6804092"><ele>664.6</ele><time>2026-04-10T17:35:14.577Z</time></trkpt><trkpt lat="42.6967036" lon="12.6805315"><ele>667.2</ele><time>2026-04-10T17:35:15.572Z</time></trkpt><trkpt lat="42.696734" lon="12.6806577"><ele>669.8</ele><time>2026-04-10T17:35:16.57Z</time></trkpt><trkpt lat="42.6967601" lon="12.6807974"><ele>672.4</ele><time>2026-04-10T17:35:17.58Z</time></trkpt><trkpt lat="42.6967832" lon="12.680932"><ele>675.0</ele><time>2026-04-10T17:35:18.574Z</time></trkpt><trkpt lat="42.6967935" lon="12.6810561"><ele>673.25</ele><time>2026-04-10T17:35:19.575Z</time></trkpt><trkpt lat="42.6968023" lon="12.6811609"><ele>671.5</ele><time>2026-04-10T17:35:20.568Z</time></trkpt><trkpt lat="42.6968598" lon="12.6812786"><ele>669.75</ele><time>2026-04-10T17:35:22.559Z</time></trkpt><trkpt lat="42.6969781" lon="12.6811545"><ele>668.0</ele><time>2026-04-10T17:35:24.574Z</time></trkpt><trkpt lat="42.6970551" lon="12.6810118"><ele>668.0</ele><time>2026-04-10T17:35:25.564Z</time></trkpt><trkpt lat="42.6971275" lon="12.6808502"><ele>668.0</ele><time>2026-04-10T17:35:26.566Z</time></trkpt><trkpt lat="42.697201" lon="12.6806967"><ele>668.0</ele><time>2026-04-10T17:35:27.569Z</time></trkpt><trkpt lat="42.6972852" lon="12.680553"><ele>668.0</ele><time>2026-04-10T17:35:28.57Z</time></trkpt><trkpt lat="42.6973848" lon="12.6804181"><ele>668.0</ele><time>2026-04-10T17:35:29.586Z</time></trkpt><trkpt lat="42.697496" lon="12.6803037"><ele>668.0</ele><time>2026-04-10T17:35:30.569Z</time></trkpt><trkpt lat="42.6976215" lon="12.680187"><ele>668.0</ele><time>2026-04-10T17:35:31.579Z</time></trkpt><trkpt lat="42.6977706" lon="12.6800578"><ele>664.6666666666666</ele><time>2026-04-10T17:35:32.572Z</time></trkpt><trkpt lat="42.6979095" lon="12.6799367"><ele>661.3333333333334</ele><time>2026-04-10T17:35:33.568Z</time></trkpt><trkpt lat="42.6980479" lon="12.6798155"><ele>658.0</ele><time>2026-04-10T17:35:34.567Z</time></trkpt><trkpt lat="42.6981889" lon="12.6797304"><ele>658.0</ele><time>2026-04-10T17:35:35.567Z</time></trkpt><trkpt lat="42.6983295" lon="12.6796346"><ele>658.0</ele><time>2026-04-10T17:35:36.567Z</time></trkpt><trkpt lat="42.6984694" lon="12.6795289"><ele>658.0</ele><time>2026-04-10T17:35:37.572Z</time></trkpt><trkpt lat="42.6986057" lon="12.6794133"><ele>653.6666666666667</ele><time>2026-04-10T17:35:38.572Z</time></trkpt><trkpt lat="42.6987483" lon="12.6793082"><ele>649.3333333333334</ele><time>2026-04-10T17:35:39.571Z</time></trkpt><trkpt lat="42.6988943" lon="12.6792229"><ele>645.0</ele><time>2026-04-10T17:35:40.572Z</time></trkpt><trkpt lat="42.6990446" lon="12.6791408"><ele>645.0</ele><time>2026-04-10T17:35:41.571Z</time></trkpt><trkpt lat="42.6991745" lon="12.679064"><ele>645.0</ele><time>2026-04-10T17:35:42.567Z</time></trkpt><trkpt lat="42.6993124" lon="12.6789597"><ele>645.0</ele><time>2026-04-10T17:35:43.568Z</time></trkpt><trkpt lat="42.69945" lon="12.6788563"><ele>643.75</ele><time>2026-04-10T17:35:44.567Z</time></trkpt><trkpt lat="42.6995742" lon="12.6787385"><ele>642.5</ele><time>2026-04-10T17:35:45.563Z</time></trkpt><trkpt lat="42.699677" lon="12.6786115"><ele>641.25</ele><time>2026-04-10T17:35:46.567Z</time></trkpt><trkpt lat="42.6997716" lon="12.6785147"><ele>640.0</ele><time>2026-04-10T17:35:47.568Z</time></trkpt><trkpt lat="42.6998738" lon="12.6784115"><ele>640.0</ele><time>2026-04-10T17:35:48.563Z</time></trkpt><trkpt lat="42.6999646" lon="12.67832"><ele>640.0</ele><time>2026-04-10T17:35:49.563Z</time></trkpt><trkpt lat="42.7000788" lon="12.678252"><ele>640.0</ele><time>2026-04-10T17:35:50.563Z</time></trkpt><trkpt lat="42.7002044" lon="12.6781882"><ele>640.0</ele><time>2026-04-10T17:35:51.564Z</time></trkpt><trkpt lat="42.7003559" lon="12.6781536"><ele>640.5</ele><time>2026-04-10T17:35:52.57Z</time></trkpt><trkpt lat="42.700496" lon="12.6781117"><ele>641.0</ele><time>2026-04-10T17:35:53.567Z</time></trkpt><trkpt lat="42.7006364" lon="12.6780907"><ele>641.5</ele><time>2026-04-10T17:35:54.572Z</time></trkpt><trkpt lat="42.7007705" lon="12.6780582"><ele>642.0</ele><time>2026-04-10T17:35:55.57Z</time></trkpt><trkpt lat="42.7009022" lon="12.6780446"><ele>642.0</ele><time>2026-04-10T17:35:56.562Z</time></trkpt><trkpt lat="42.7010297" lon="12.6780315"><ele>642.0</ele><time>2026-04-10T17:35:57.567Z</time></trkpt><trkpt lat="42.7011612" lon="12.6780015"><ele>642.0</ele><time>2026-04-10T17:35:58.562Z</time></trkpt><trkpt lat="42.7012884" lon="12.6779748"><ele>642.0</ele><time>2026-04-10T17:35:59.562Z</time></trkpt><trkpt lat="42.7014106" lon="12.6779515"><ele>640.5</ele><time>2026-04-10T17:36:00.57Z</time></trkpt><trkpt lat="42.7015317" lon="12.677913"><ele>639.0</ele><time>2026-04-10T17:36:01.568Z</time></trkpt><trkpt lat="42.7016467" lon="12.6778766"><ele>637.5</ele><time>2026-04-10T17:36:02.568Z</time></trkpt><trkpt lat="42.7017584" lon="12.6778593"><ele>636.0</ele><time>2026-04-10T17:36:03.563Z</time></trkpt><trkpt lat="42.7018686" lon="12.6778496"><ele>635.0</ele><time>2026-04-10T17:36:04.561Z</time></trkpt><trkpt lat="42.7019767" lon="12.6778577"><ele>634.0</ele><time>2026-04-10T17:36:05.558Z</time></trkpt><trkpt lat="42.7020889" lon="12.6778529"><ele>633.0</ele><time>2026-04-10T17:36:06.566Z</time></trkpt><trkpt lat="42.7021999" lon="12.6778567"><ele>632.0</ele><time>2026-04-10T17:36:07.563Z</time></trkpt><trkpt lat="42.7023126" lon="12.6778508"><ele>631.0</ele><time>2026-04-10T17:36:08.562Z</time></trkpt><trkpt lat="42.7024179" lon="12.6778571"><ele>631.0</ele><time>2026-04-10T17:36:09.567Z</time></trkpt><trkpt lat="42.7025272" lon="12.6778529"><ele>631.0</ele><time>2026-04-10T17:36:10.564Z</time></trkpt><trkpt lat="42.7026358" lon="12.677849"><ele>631.0</ele><time>2026-04-10T17:36:11.567Z</time></trkpt><trkpt lat="42.7027472" lon="12.6778375"><ele>631.0</ele><time>2026-04-10T17:36:12.569Z</time></trkpt><trkpt lat="42.7028591" lon="12.6778451"><ele>631.0</ele><time>2026-04-10T17:36:13.566Z</time></trkpt><trkpt lat="42.7029633" lon="12.6778444"><ele>630.8</ele><time>2026-04-10T17:36:14.566Z</time></trkpt><trkpt lat="42.7030657" lon="12.677849"><ele>630.6</ele><time>2026-04-10T17:36:15.568Z</time></trkpt><trkpt lat="42.7031636" lon="12.677846"><ele>630.4</ele><time>2026-04-10T17:36:16.563Z</time></trkpt><trkpt lat="42.7032599" lon="12.6778333"><ele>630.2</ele><time>2026-04-10T17:36:17.568Z</time></trkpt><trkpt lat="42.7033588" lon="12.6778277"><ele>630.0</ele><time>2026-04-10T17:36:18.567Z</time></trkpt><trkpt lat="42.7034518" lon="12.6778229"><ele>630.0</ele><time>2026-04-10T17:36:19.569Z</time></trkpt><trkpt lat="42.7035385" lon="12.677816"><ele>630.0</ele><time>2026-04-10T17:36:20.568Z</time></trkpt><trkpt lat="42.7036349" lon="12.6778171"><ele>630.0</ele><time>2026-04-10T17:36:21.568Z</time></trkpt><trkpt lat="42.7037479" lon="12.6778271"><ele>630.0</ele><time>2026-04-10T17:36:22.566Z</time></trkpt><trkpt lat="42.7038563" lon="12.6778338"><ele>630.0</ele><time>2026-04-10T17:36:23.569Z</time></trkpt><trkpt lat="42.7039608" lon="12.6778324"><ele>628.4</ele><time>2026-04-10T17:36:24.568Z</time></trkpt><trkpt lat="42.7040756" lon="12.6778315"><ele>626.8</ele><time>2026-04-10T17:36:25.573Z</time></trkpt><trkpt lat="42.7041821" lon="12.6778355"><ele>625.2</ele><time>2026-04-10T17:36:26.566Z</time></trkpt><trkpt lat="42.7042864" lon="12.6778431"><ele>623.6</ele><time>2026-04-10T17:36:27.569Z</time></trkpt><trkpt lat="42.7043883" lon="12.6778757"><ele>622.0</ele><time>2026-04-10T17:36:28.569Z</time></trkpt><trkpt lat="42.7044842" lon="12.6779121"><ele>619.6</ele><time>2026-04-10T17:36:29.566Z</time></trkpt><trkpt lat="42.7045802" lon="12.6779491"><ele>617.2</ele><time>2026-04-10T17:36:30.563Z</time></trkpt><trkpt lat="42.7046843" lon="12.6779905"><ele>614.8</ele><time>2026-04-10T17:36:31.58Z</time></trkpt><trkpt lat="42.7047889" lon="12.6780205"><ele>612.4</ele><time>2026-04-10T17:36:32.559Z</time></trkpt><trkpt lat="42.704888" lon="12.6780456"><ele>610.0</ele><time>2026-04-10T17:36:33.561Z</time></trkpt><trkpt lat="42.7049887" lon="12.6780792"><ele>610.0</ele><time>2026-04-10T17:36:34.558Z</time></trkpt><trkpt lat="42.7050835" lon="12.6780986"><ele>610.0</ele><time>2026-04-10T17:36:35.563Z</time></trkpt><trkpt lat="42.7051656" lon="12.6781018"><ele>610.0</ele><time>2026-04-10T17:36:36.558Z</time></trkpt><trkpt lat="42.7052332" lon="12.6780872"><ele>610.0</ele><time>2026-04-10T17:36:37.551Z</time></trkpt><trkpt lat="42.7052923" lon="12.6780537"><ele>610.0</ele><time>2026-04-10T17:36:38.555Z</time></trkpt><trkpt lat="42.7052882" lon="12.6779311"><ele>610.0</ele><time>2026-04-10T17:36:40.562Z</time></trkpt><trkpt lat="42.7052266" lon="12.6778607"><ele>610.0</ele><time>2026-04-10T17:36:41.56Z</time></trkpt><trkpt lat="42.7051305" lon="12.6778114"><ele>610.0</ele><time>2026-04-10T17:36:42.568Z</time></trkpt><trkpt lat="42.7050054" lon="12.6777765"><ele>610.0</ele><time>2026-04-10T17:36:43.564Z</time></trkpt><trkpt lat="42.7048587" lon="12.6777447"><ele>610.0</ele><time>2026-04-10T17:36:44.559Z</time></trkpt><trkpt lat="42.7047173" lon="12.6777221"><ele>605.6666666666667</ele><time>2026-04-10T17:36:45.565Z</time></trkpt><trkpt lat="42.7045683" lon="12.6776564"><ele>601.3333333333334</ele><time>2026-04-10T17:36:46.567Z</time></trkpt><trkpt lat="42.7043816" lon="12.677526"><ele>597.0</ele><time>2026-04-10T17:36:47.56Z</time></trkpt><trkpt lat="42.7042447" lon="12.67738"><ele>597.0</ele><time>2026-04-10T17:36:48.561Z</time></trkpt><trkpt lat="42.7041418" lon="12.6772223"><ele>597.0</ele><time>2026-04-10T17:36:49.56Z</time></trkpt><trkpt lat="42.7040774" lon="12.6771208"><ele>597.0</ele><time>2026-04-10T17:36:50.557Z</time></trkpt><trkpt lat="42.7040381" lon="12.677043"><ele>597.0</ele><time>2026-04-10T17:36:51.556Z</time></trkpt><trkpt lat="42.7040044" lon="12.6769558"><ele>597.0</ele><time>2026-04-10T17:36:52.56Z</time></trkpt><trkpt lat="42.7040563" lon="12.6768524"><ele>597.0</ele><time>2026-04-10T17:36:54.574Z</time></trkpt><trkpt lat="42.7041584" lon="12.6768449"><ele>597.0</ele><time>2026-04-10T17:36:56.564Z</time></trkpt><trkpt lat="42.7042268" lon="12.6769671"><ele>597.0</ele><time>2026-04-10T17:36:57.567Z</time></trkpt><trkpt lat="42.7042811" lon="12.677073"><ele>597.0</ele><time>2026-04-10T17:36:58.565Z</time></trkpt><trkpt lat="42.7043829" lon="12.6771897"><ele>597.0</ele><time>2026-04-10T17:36:59.564Z</time></trkpt><trkpt lat="42.7045101" lon="12.6772808"><ele>590.6666666666666</ele><time>2026-04-10T17:37:00.568Z</time></trkpt><trkpt lat="42.704648" lon="12.677341"><ele>584.3333333333333</ele><time>2026-04-10T17:37:01.571Z</time></trkpt><trkpt lat="42.7048046" lon="12.6773675"><ele>578.0</ele><time>2026-04-10T17:37:02.571Z</time></trkpt><trkpt lat="42.7049986" lon="12.6773659"><ele>578.0</ele><time>2026-04-10T17:37:03.56Z</time></trkpt><trkpt lat="42.7052093" lon="12.6773274"><ele>578.0</ele><time>2026-04-10T17:37:04.563Z</time></trkpt><trkpt lat="42.7053704" lon="12.6773399"><ele>578.0</ele><time>2026-04-10T17:37:05.561Z</time></trkpt><trkpt lat="42.705524" lon="12.6773999"><ele>575.0</ele><time>2026-04-10T17:37:06.558Z</time></trkpt><trkpt lat="42.7056631" lon="12.677415"><ele>572.0</ele><time>2026-04-10T17:37:07.561Z</time></trkpt><trkpt lat="42.7057947" lon="12.677466"><ele>569.0</ele><time>2026-04-10T17:37:08.558Z</time></trkpt><trkpt lat="42.7059547" lon="12.6774466"><ele>566.0</ele><time>2026-04-10T17:37:09.564Z</time></trkpt><trkpt lat="42.7060755" lon="12.67739"><ele>562.3333333333333</ele><time>2026-04-10T17:37:10.559Z</time></trkpt><trkpt lat="42.7062463" lon="12.6774052"><ele>558.6666666666666</ele><time>2026-04-10T17:37:11.559Z</time></trkpt><trkpt lat="42.7063973" lon="12.6774317"><ele>555.0</ele><time>2026-04-10T17:37:12.557Z</time></trkpt><trkpt lat="42.7065222" lon="12.6774918"><ele>555.0</ele><time>2026-04-10T17:37:13.556Z</time></trkpt><trkpt lat="42.7066187" lon="12.6775117"><ele>555.0</ele><time>2026-04-10T17:37:14.563Z</time></trkpt><trkpt lat="42.7067216" lon="12.6775857"><ele>555.0</ele><time>2026-04-10T17:37:15.56Z</time></trkpt><trkpt lat="42.7068501" lon="12.6776821"><ele>555.0</ele><time>2026-04-10T17:37:16.558Z</time></trkpt><trkpt lat="42.7070277" lon="12.6778053"><ele>555.25</ele><time>2026-04-10T17:37:17.556Z</time></trkpt><trkpt lat="42.7071715" lon="12.6778976"><ele>555.5</ele><time>2026-04-10T17:37:18.552Z</time></trkpt><trkpt lat="42.7072971" lon="12.6779849"><ele>555.75</ele><time>2026-04-10T17:37:19.551Z</time></trkpt><trkpt lat="42.7073988" lon="12.6780386"><ele>556.0</ele><time>2026-04-10T17:37:20.551Z</time></trkpt><trkpt lat="42.7074907" lon="12.6781168"><ele>556.0</ele><time>2026-04-10T17:37:21.56Z</time></trkpt><trkpt lat="42.7075574" lon="12.6782061"><ele>556.0</ele><time>2026-04-10T17:37:22.557Z</time></trkpt><trkpt lat="42.7076623" lon="12.6783084"><ele>556.0</ele><time>2026-04-10T17:37:23.573Z</time></trkpt><trkpt lat="42.7077526" lon="12.6784588"><ele>556.0</ele><time>2026-04-10T17:37:24.568Z</time></trkpt><trkpt lat="42.7078778" lon="12.67862"><ele>551.3333333333334</ele><time>2026-04-10T17:37:25.564Z</time></trkpt><trkpt lat="42.7080312" lon="12.6788523"><ele>546.6666666666666</ele><time>2026-04-10T17:37:26.561Z</time></trkpt><trkpt lat="42.7081732" lon="12.679029"><ele>542.0</ele><time>2026-04-10T17:37:27.563Z</time></trkpt><trkpt lat="42.708273" lon="12.6792162"><ele>542.0</ele><time>2026-04-10T17:37:28.568Z</time></trkpt><trkpt lat="42.7083541" lon="12.6793766"><ele>542.0</ele><time>2026-04-10T17:37:29.562Z</time></trkpt><trkpt lat="42.7084018" lon="12.6795108"><ele>542.0</ele><time>2026-04-10T17:37:30.56Z</time></trkpt><trkpt lat="42.7084966" lon="12.6796157"><ele>542.0</ele><time>2026-04-10T17:37:31.568Z</time></trkpt><trkpt lat="42.7086052" lon="12.6796948"><ele>539.0</ele><time>2026-04-10T17:37:32.564Z</time></trkpt><trkpt lat="42.708751" lon="12.6797797"><ele>536.0</ele><time>2026-04-10T17:37:33.577Z</time></trkpt><trkpt lat="42.7089212" lon="12.6798698"><ele>533.0</ele><time>2026-04-10T17:37:34.563Z</time></trkpt><trkpt lat="42.7090462" lon="12.6799646"><ele>533.0</ele><time>2026-04-10T17:37:35.562Z</time></trkpt><trkpt lat="42.7091954" lon="12.6800675"><ele>533.0</ele><time>2026-04-10T17:37:36.558Z</time></trkpt><trkpt lat="42.7093121" lon="12.680152"><ele>533.0</ele><time>2026-04-10T17:37:37.553Z</time></trkpt><trkpt lat="42.7094341" lon="12.6802517"><ele>533.0</ele><time>2026-04-10T17:37:38.556Z</time></trkpt><trkpt lat="42.7095372" lon="12.6803889"><ele>533.0</ele><time>2026-04-10T17:37:39.555Z</time></trkpt><trkpt lat="42.7096404" lon="12.6805102"><ele>533.0</ele><time>2026-04-10T17:37:40.561Z</time></trkpt><trkpt lat="42.7097426" lon="12.6806072"><ele>533.0</ele><time>2026-04-10T17:37:41.558Z</time></trkpt><trkpt lat="42.7098219" lon="12.6807378"><ele>533.0</ele><time>2026-04-10T17:37:42.556Z</time></trkpt><trkpt lat="42.7098791" lon="12.680811"><ele>533.0</ele><time>2026-04-10T17:37:43.55Z</time></trkpt><trkpt lat="42.7099569" lon="12.6808156"><ele>533.0</ele><time>2026-04-10T17:37:44.55Z</time></trkpt><trkpt lat="42.7100196" lon="12.6807876"><ele>533.0</ele><time>2026-04-10T17:37:45.552Z</time></trkpt><trkpt lat="42.7100607" lon="12.6807018"><ele>533.0</ele><time>2026-04-10T17:37:46.552Z</time></trkpt><trkpt lat="42.7100667" lon="12.6805376"><ele>533.0</ele><time>2026-04-10T17:37:47.557Z</time></trkpt><trkpt lat="42.7100531" lon="12.6803237"><ele>529.0</ele><time>2026-04-10T17:37:48.555Z</time></trkpt><trkpt lat="42.7100457" lon="12.6800986"><ele>525.0</ele><time>2026-04-10T17:37:49.564Z</time></trkpt><trkpt lat="42.7100234" lon="12.6798319"><ele>521.0</ele><time>2026-04-10T17:37:50.561Z</time></trkpt><trkpt lat="42.7099899" lon="12.6795963"><ele>519.5</ele><time>2026-04-10T17:37:51.561Z</time></trkpt><trkpt lat="42.7099827" lon="12.679379"><ele>518.0</ele><time>2026-04-10T17:37:52.561Z</time></trkpt><trkpt lat="42.7099509" lon="12.6791793"><ele>516.5</ele><time>2026-04-10T17:37:53.563Z</time></trkpt><trkpt lat="42.7099093" lon="12.6790063"><ele>515.0</ele><time>2026-04-10T17:37:54.566Z</time></trkpt><trkpt lat="42.7099025" lon="12.6788169"><ele>515.0</ele><time>2026-04-10T17:37:55.563Z</time></trkpt><trkpt lat="42.7098897" lon="12.6786381"><ele>515.0</ele><time>2026-04-10T17:37:56.565Z</time></trkpt><trkpt lat="42.7099642" lon="12.6784566"><ele>515.0</ele><time>2026-04-10T17:37:57.566Z</time></trkpt><trkpt lat="42.7100286" lon="12.6782779"><ele>515.0</ele><time>2026-04-10T17:37:58.568Z</time></trkpt><trkpt lat="42.7100753" lon="12.6780824"><ele>510.66666666666663</ele><time>2026-04-10T17:37:59.562Z</time></trkpt><trkpt lat="42.7101046" lon="12.6778759"><ele>506.33333333333337</ele><time>2026-04-10T17:38:00.565Z</time></trkpt><trkpt lat="42.7101399" lon="12.6776969"><ele>502.0</ele><time>2026-04-10T17:38:01.578Z</time></trkpt><trkpt lat="42.7101418" lon="12.6774713"><ele>498.0</ele><time>2026-04-10T17:38:02.563Z</time></trkpt><trkpt lat="42.7101229" lon="12.6772297"><ele>494.0</ele><time>2026-04-10T17:38:03.563Z</time></trkpt><trkpt lat="42.7101003" lon="12.6769909"><ele>490.0</ele><time>2026-04-10T17:38:04.57Z</time></trkpt><trkpt lat="42.7101181" lon="12.6767558"><ele>486.6666666666667</ele><time>2026-04-10T17:38:05.558Z</time></trkpt><trkpt lat="42.7101273" lon="12.6764929"><ele>483.33333333333337</ele><time>2026-04-10T17:38:06.562Z</time></trkpt><trkpt lat="42.7101396" lon="12.6762793"><ele>480.0</ele><time>2026-04-10T17:38:07.566Z</time></trkpt><trkpt lat="42.7102161" lon="12.6760766"><ele>474.66666666666663</ele><time>2026-04-10T17:38:08.569Z</time></trkpt><trkpt lat="42.7102357" lon="12.6758859"><ele>469.3333333333333</ele><time>2026-04-10T17:38:09.568Z</time></trkpt><trkpt lat="42.7102356" lon="12.6756643"><ele>464.0</ele><time>2026-04-10T17:38:10.567Z</time></trkpt><trkpt lat="42.7102531" lon="12.675465"><ele>468.66666666666663</ele><time>2026-04-10T17:38:11.559Z</time></trkpt><trkpt lat="42.710309" lon="12.67526"><ele>473.33333333333337</ele><time>2026-04-10T17:38:12.563Z</time></trkpt><trkpt lat="42.7103999" lon="12.6750731"><ele>478.0</ele><time>2026-04-10T17:38:13.566Z</time></trkpt><trkpt lat="42.7104975" lon="12.6748985"><ele>478.0</ele><time>2026-04-10T17:38:14.568Z</time></trkpt><trkpt lat="42.710648" lon="12.6747595"><ele>478.0</ele><time>2026-04-10T17:38:15.567Z</time></trkpt><trkpt lat="42.7107961" lon="12.6746052"><ele>478.0</ele><time>2026-04-10T17:38:16.569Z</time></trkpt><trkpt lat="42.710931" lon="12.6744426"><ele>478.33333333333337</ele><time>2026-04-10T17:38:17.567Z</time></trkpt><trkpt lat="42.7110879" lon="12.6742553"><ele>478.66666666666663</ele><time>2026-04-10T17:38:18.568Z</time></trkpt><trkpt lat="42.7112433" lon="12.6740819"><ele>479.0</ele><time>2026-04-10T17:38:19.568Z</time></trkpt><trkpt lat="42.7113792" lon="12.6738985"><ele>479.0</ele><time>2026-04-10T17:38:20.57Z</time></trkpt><trkpt lat="42.711529" lon="12.6737312"><ele>479.0</ele><time>2026-04-10T17:38:21.567Z</time></trkpt><trkpt lat="42.7116481" lon="12.6735492"><ele>479.0</ele><time>2026-04-10T17:38:22.57Z</time></trkpt><trkpt lat="42.7117961" lon="12.673381"><ele>474.3333333333333</ele><time>2026-04-10T17:38:23.568Z</time></trkpt><trkpt lat="42.711935" lon="12.6731999"><ele>469.66666666666663</ele><time>2026-04-10T17:38:24.57Z</time></trkpt><trkpt lat="42.7120808" lon="12.673028"><ele>465.0</ele><time>2026-04-10T17:38:25.565Z</time></trkpt><trkpt lat="42.7122239" lon="12.6728694"><ele>453.33333333333337</ele><time>2026-04-10T17:38:26.567Z</time></trkpt><trkpt lat="42.7123545" lon="12.6727163"><ele>441.6666666666667</ele><time>2026-04-10T17:38:27.569Z</time></trkpt><trkpt lat="42.7125034" lon="12.6725815"><ele>430.0</ele><time>2026-04-10T17:38:28.567Z</time></trkpt><trkpt lat="42.7126642" lon="12.6724677"><ele>430.6666666666667</ele><time>2026-04-10T17:38:29.571Z</time></trkpt><trkpt lat="42.712815" lon="12.6723712"><ele>431.33333333333337</ele><time>2026-04-10T17:38:30.563Z</time></trkpt><trkpt lat="42.7129634" lon="12.6722671"><ele>432.0</ele><time>2026-04-10T17:38:31.574Z</time></trkpt><trkpt lat="42.7131119" lon="12.6721978"><ele>432.0</ele><time>2026-04-10T17:38:32.566Z</time></trkpt><trkpt lat="42.7132178" lon="12.6721298"><ele>432.00000000000006</ele><time>2026-04-10T17:38:33.56Z</time></trkpt><trkpt lat="42.7133212" lon="12.6721175"><ele>432.00000000000006</ele><time>2026-04-10T17:38:34.568Z</time></trkpt><trkpt lat="42.7134291" lon="12.6721634"><ele>432.0</ele><time>2026-04-10T17:38:35.576Z</time></trkpt><trkpt lat="42.7135252" lon="12.6722233"><ele>432.0</ele><time>2026-04-10T17:38:36.565Z</time></trkpt><trkpt lat="42.7136059" lon="12.6723572"><ele>430.6</ele><time>2026-04-10T17:38:37.573Z</time></trkpt><trkpt lat="42.7136871" lon="12.6724887"><ele>429.20000000000005</ele><time>2026-04-10T17:38:38.568Z</time></trkpt><trkpt lat="42.7137726" lon="12.6725706"><ele>427.8</ele><time>2026-04-10T17:38:39.567Z</time></trkpt><trkpt lat="42.7138571" lon="12.6726337"><ele>426.4</ele><time>2026-04-10T17:38:40.574Z</time></trkpt><trkpt lat="42.7139592" lon="12.6726674"><ele>425.0</ele><time>2026-04-10T17:38:41.566Z</time></trkpt><trkpt lat="42.7140782" lon="12.6726506"><ele>425.0</ele><time>2026-04-10T17:38:42.574Z</time></trkpt><trkpt lat="42.7141945" lon="12.6725491"><ele>425.0</ele><time>2026-04-10T17:38:43.566Z</time></trkpt><trkpt lat="42.7143104" lon="12.6724148"><ele>425.0</ele><time>2026-04-10T17:38:44.567Z</time></trkpt><trkpt lat="42.7144223" lon="12.6722393"><ele>425.5</ele><time>2026-04-10T17:38:45.571Z</time></trkpt><trkpt lat="42.714508" lon="12.6720806"><ele>426.0</ele><time>2026-04-10T17:38:46.568Z</time></trkpt><trkpt lat="42.7146374" lon="12.6719999"><ele>426.5</ele><time>2026-04-10T17:38:47.57Z</time></trkpt><trkpt lat="42.714754" lon="12.6719631"><ele>427.0</ele><time>2026-04-10T17:38:48.566Z</time></trkpt><trkpt lat="42.7148745" lon="12.6719528"><ele>427.0</ele><time>2026-04-10T17:38:49.573Z</time></trkpt><trkpt lat="42.7150167" lon="12.6719474"><ele>427.0</ele><time>2026-04-10T17:38:50.572Z</time></trkpt><trkpt lat="42.715199" lon="12.6719922"><ele>427.0</ele><time>2026-04-10T17:38:51.565Z</time></trkpt><trkpt lat="42.7153751" lon="12.6720208"><ele>421.33333333333337</ele><time>2026-04-10T17:38:52.567Z</time></trkpt><trkpt lat="42.7155395" lon="12.6720844"><ele>415.66666666666663</ele><time>2026-04-10T17:38:53.569Z</time></trkpt><trkpt lat="42.7157534" lon="12.6721287"><ele>410.0</ele><time>2026-04-10T17:38:54.569Z</time></trkpt><trkpt lat="42.7159163" lon="12.6721546"><ele>410.0</ele><time>2026-04-10T17:38:55.565Z</time></trkpt><trkpt lat="42.716048" lon="12.6721975"><ele>410.0</ele><time>2026-04-10T17:38:56.566Z</time></trkpt><trkpt lat="42.7162236" lon="12.672211"><ele>410.0</ele><time>2026-04-10T17:38:57.569Z</time></trkpt><trkpt lat="42.7164439" lon="12.6722472"><ele>406.0</ele><time>2026-04-10T17:38:58.571Z</time></trkpt><trkpt lat="42.716627" lon="12.6722284"><ele>402.0</ele><time>2026-04-10T17:38:59.569Z</time></trkpt><trkpt lat="42.7167764" lon="12.672189"><ele>398.0</ele><time>2026-04-10T17:39:00.564Z</time></trkpt><trkpt lat="42.7169396" lon="12.6721609"><ele>393.66666666666663</ele><time>2026-04-10T17:39:01.569Z</time></trkpt><trkpt lat="42.7170799" lon="12.6721509"><ele>389.33333333333337</ele><time>2026-04-10T17:39:02.565Z</time></trkpt><trkpt lat="42.7172262" lon="12.6721683"><ele>385.0</ele><time>2026-04-10T17:39:03.566Z</time></trkpt><trkpt lat="42.7173902" lon="12.6722422"><ele>385.0</ele><time>2026-04-10T17:39:04.569Z</time></trkpt><trkpt lat="42.7175622" lon="12.672246"><ele>385.0</ele><time>2026-04-10T17:39:05.573Z</time></trkpt><trkpt lat="42.717748" lon="12.6722514"><ele>385.0</ele><time>2026-04-10T17:39:06.582Z</time></trkpt><trkpt lat="42.7179235" lon="12.6722085"><ele>384.33333333333337</ele><time>2026-04-10T17:39:07.569Z</time></trkpt><trkpt lat="42.7181175" lon="12.6721944"><ele>383.6666666666667</ele><time>2026-04-10T17:39:08.577Z</time></trkpt><trkpt lat="42.7182575" lon="12.672137"><ele>383.0</ele><time>2026-04-10T17:39:09.564Z</time></trkpt><trkpt lat="42.718492" lon="12.6721139"><ele>383.0</ele><time>2026-04-10T17:39:10.568Z</time></trkpt><trkpt lat="42.7186756" lon="12.6720718"><ele>383.0</ele><time>2026-04-10T17:39:11.573Z</time></trkpt><trkpt lat="42.7188656" lon="12.6720599"><ele>383.0</ele><time>2026-04-10T17:39:12.574Z</time></trkpt><trkpt lat="42.7190636" lon="12.6720536"><ele>383.0</ele><time>2026-04-10T17:39:13.575Z</time></trkpt><trkpt lat="42.719236" lon="12.6720181"><ele>383.0</ele><time>2026-04-10T17:39:14.575Z</time></trkpt><trkpt lat="42.7194212" lon="12.6720102"><ele>383.0</ele><time>2026-04-10T17:39:15.574Z</time></trkpt><trkpt lat="42.7196038" lon="12.6720122"><ele>381.33333333333337</ele><time>2026-04-10T17:39:16.578Z</time></trkpt><trkpt lat="42.7197679" lon="12.671994"><ele>379.6666666666667</ele><time>2026-04-10T17:39:17.571Z</time></trkpt><trkpt lat="42.7199359" lon="12.6719727"><ele>378.0</ele><time>2026-04-10T17:39:18.573Z</time></trkpt><trkpt lat="42.7200907" lon="12.6719556"><ele>375.5</ele><time>2026-04-10T17:39:19.574Z</time></trkpt><trkpt lat="42.7202073" lon="12.6719272"><ele>373.0</ele><time>2026-04-10T17:39:20.576Z</time></trkpt><trkpt lat="42.7203275" lon="12.6719191"><ele>370.5</ele><time>2026-04-10T17:39:21.58Z</time></trkpt><trkpt lat="42.7204666" lon="12.6719608"><ele>368.0</ele><time>2026-04-10T17:39:22.578Z</time></trkpt><trkpt lat="42.7205839" lon="12.6719783"><ele>368.0</ele><time>2026-04-10T17:39:23.58Z</time></trkpt><trkpt lat="42.7207362" lon="12.6720374"><ele>368.0</ele><time>2026-04-10T17:39:24.582Z</time></trkpt><trkpt lat="42.7208905" lon="12.6720923"><ele>368.0</ele><time>2026-04-10T17:39:25.587Z</time></trkpt><trkpt lat="42.7210342" lon="12.6721643"><ele>364.33333333333337</ele><time>2026-04-10T17:39:26.589Z</time></trkpt><trkpt lat="42.7211803" lon="12.6722377"><ele>360.6666666666667</ele><time>2026-04-10T17:39:27.588Z</time></trkpt><trkpt lat="42.7213291" lon="12.6723344"><ele>357.0</ele><time>2026-04-10T17:39:28.588Z</time></trkpt><trkpt lat="42.7214655" lon="12.6724485"><ele>357.0</ele><time>2026-04-10T17:39:29.577Z</time></trkpt><trkpt lat="42.7215721" lon="12.6725674"><ele>357.0</ele><time>2026-04-10T17:39:30.577Z</time></trkpt><trkpt lat="42.72171" lon="12.6727075"><ele>357.0</ele><time>2026-04-10T17:39:31.585Z</time></trkpt><trkpt lat="42.72183" lon="12.6728517"><ele>358.75</ele><time>2026-04-10T17:39:32.57Z</time></trkpt><trkpt lat="42.7219176" lon="12.6730333"><ele>360.5</ele><time>2026-04-10T17:39:33.573Z</time></trkpt><trkpt lat="42.7219639" lon="12.6732224"><ele>362.25</ele><time>2026-04-10T17:39:34.591Z</time></trkpt><trkpt lat="42.7219898" lon="12.6734124"><ele>364.0</ele><time>2026-04-10T17:39:35.587Z</time></trkpt><trkpt lat="42.7220197" lon="12.6735592"><ele>364.0</ele><time>2026-04-10T17:39:36.588Z</time></trkpt><trkpt lat="42.7220585" lon="12.6736576"><ele>366.0</ele><time>2026-04-10T17:39:37.59Z</time></trkpt><trkpt lat="42.7220898" lon="12.6737385"><ele>366.0</ele><time>2026-04-10T17:39:38.58Z</time></trkpt><trkpt lat="42.7221621" lon="12.6737931"><ele>366.0</ele><time>2026-04-10T17:39:40.591Z</time></trkpt><trkpt lat="42.7222421" lon="12.6737371"><ele>366.0</ele><time>2026-04-10T17:39:42.587Z</time></trkpt><trkpt lat="42.7222908" lon="12.6736799"><ele>366.0</ele><time>2026-04-10T17:39:44.593Z</time></trkpt></trkseg></trk></gpx>